<?xml version="1.0" encoding="UTF-8" standalone="no" ?>
<gpx xmlns="http://www.topografix.com/GPX/1/1" xmlns:xsi="http://www.w3.org/2001/XMLSchema-instance" xsi:schemaLocation="http://www.topografix.com/GPX/1/1 http://www.topografix.com/GPX/1/1/gpx.xsd" version="1.1" creator="VisuGPX - https://www.visugpx.com">
  <metadata>
    <name>2019 - Visite Strasbourg</name>
  </metadata>
  <trk>
    <name><![CDATA[2019 - Visite Strasbourg]]></name>
    <trkseg>
      <trkpt lat="48.54127" lon="7.50042">
        <ele>172.3</ele>
        <time>2019-08-08T08:58:43Z</time>
      </trkpt>
      <trkpt lat="48.54126" lon="7.5004">
        <ele>172.3</ele>
        <time>2019-08-08T09:06:58Z</time>
      </trkpt>
      <trkpt lat="48.54128" lon="7.50037">
        <ele>172.3</ele>
        <time>2019-08-08T09:07:02Z</time>
      </trkpt>
      <trkpt lat="48.5413" lon="7.50033">
        <ele>172.3</ele>
        <time>2019-08-08T09:07:09Z</time>
      </trkpt>
      <trkpt lat="48.54132" lon="7.50029">
        <ele>172.3</ele>
        <time>2019-08-08T09:07:13Z</time>
      </trkpt>
      <trkpt lat="48.54133" lon="7.50025">
        <ele>172.3</ele>
        <time>2019-08-08T09:07:16Z</time>
      </trkpt>
      <trkpt lat="48.54133" lon="7.5002">
        <ele>172.3</ele>
        <time>2019-08-08T09:07:18Z</time>
      </trkpt>
      <trkpt lat="48.54133" lon="7.50016">
        <ele>172.3</ele>
        <time>2019-08-08T09:07:21Z</time>
      </trkpt>
      <trkpt lat="48.54134" lon="7.50011">
        <ele>172.3</ele>
        <time>2019-08-08T09:07:24Z</time>
      </trkpt>
      <trkpt lat="48.54133" lon="7.50003">
        <ele>172.3</ele>
        <time>2019-08-08T09:07:27Z</time>
      </trkpt>
      <trkpt lat="48.54133" lon="7.49999">
        <ele>172.3</ele>
        <time>2019-08-08T09:07:29Z</time>
      </trkpt>
      <trkpt lat="48.5413" lon="7.49997">
        <ele>172.1</ele>
        <time>2019-08-08T09:07:31Z</time>
      </trkpt>
      <trkpt lat="48.54127" lon="7.50001">
        <ele>172.1</ele>
        <time>2019-08-08T09:07:33Z</time>
      </trkpt>
      <trkpt lat="48.54125" lon="7.50004">
        <ele>172.1</ele>
        <time>2019-08-08T09:07:34Z</time>
      </trkpt>
      <trkpt lat="48.54122" lon="7.50009">
        <ele>172.1</ele>
        <time>2019-08-08T09:07:36Z</time>
      </trkpt>
      <trkpt lat="48.54117" lon="7.50013">
        <ele>172.1</ele>
        <time>2019-08-08T09:07:38Z</time>
      </trkpt>
      <trkpt lat="48.54112" lon="7.50017">
        <ele>172.1</ele>
        <time>2019-08-08T09:07:40Z</time>
      </trkpt>
      <trkpt lat="48.54109" lon="7.5002">
        <ele>172.1</ele>
        <time>2019-08-08T09:07:41Z</time>
      </trkpt>
      <trkpt lat="48.54105" lon="7.50026">
        <ele>172.1</ele>
        <time>2019-08-08T09:07:43Z</time>
      </trkpt>
      <trkpt lat="48.54102" lon="7.50031">
        <ele>172.1</ele>
        <time>2019-08-08T09:07:45Z</time>
      </trkpt>
      <trkpt lat="48.54098" lon="7.50037">
        <ele>172.1</ele>
        <time>2019-08-08T09:07:47Z</time>
      </trkpt>
      <trkpt lat="48.54096" lon="7.50044">
        <ele>172.1</ele>
        <time>2019-08-08T09:07:49Z</time>
      </trkpt>
      <trkpt lat="48.54095" lon="7.50049">
        <ele>172.1</ele>
        <time>2019-08-08T09:07:51Z</time>
      </trkpt>
      <trkpt lat="48.54093" lon="7.50056">
        <ele>172.1</ele>
        <time>2019-08-08T09:07:53Z</time>
      </trkpt>
      <trkpt lat="48.54093" lon="7.5006">
        <ele>172.2</ele>
        <time>2019-08-08T09:07:54Z</time>
      </trkpt>
      <trkpt lat="48.54092" lon="7.5007">
        <ele>172.3</ele>
        <time>2019-08-08T09:07:56Z</time>
      </trkpt>
      <trkpt lat="48.54089" lon="7.50076">
        <ele>172.3</ele>
        <time>2019-08-08T09:07:58Z</time>
      </trkpt>
      <trkpt lat="48.54085" lon="7.50081">
        <ele>172.4</ele>
        <time>2019-08-08T09:08:00Z</time>
      </trkpt>
      <trkpt lat="48.54082" lon="7.50087">
        <ele>172.4</ele>
        <time>2019-08-08T09:08:02Z</time>
      </trkpt>
      <trkpt lat="48.54081" lon="7.50092">
        <ele>172.5</ele>
        <time>2019-08-08T09:08:04Z</time>
      </trkpt>
      <trkpt lat="48.54079" lon="7.50098">
        <ele>172.5</ele>
        <time>2019-08-08T09:08:06Z</time>
      </trkpt>
      <trkpt lat="48.54077" lon="7.50101">
        <ele>172.5</ele>
        <time>2019-08-08T09:08:07Z</time>
      </trkpt>
      <trkpt lat="48.54076" lon="7.50105">
        <ele>172.6</ele>
        <time>2019-08-08T09:08:08Z</time>
      </trkpt>
      <trkpt lat="48.54074" lon="7.50108">
        <ele>172.6</ele>
        <time>2019-08-08T09:08:09Z</time>
      </trkpt>
      <trkpt lat="48.54071" lon="7.50114">
        <ele>172.6</ele>
        <time>2019-08-08T09:08:10Z</time>
      </trkpt>
      <trkpt lat="48.5407" lon="7.50119">
        <ele>172.6</ele>
        <time>2019-08-08T09:08:11Z</time>
      </trkpt>
      <trkpt lat="48.54072" lon="7.50124">
        <ele>172.6</ele>
        <time>2019-08-08T09:08:13Z</time>
      </trkpt>
      <trkpt lat="48.54073" lon="7.50127">
        <ele>172.6</ele>
        <time>2019-08-08T09:08:15Z</time>
      </trkpt>
      <trkpt lat="48.54076" lon="7.50132">
        <ele>172.6</ele>
        <time>2019-08-08T09:08:17Z</time>
      </trkpt>
      <trkpt lat="48.54084" lon="7.50139">
        <ele>172.6</ele>
        <time>2019-08-08T09:08:19Z</time>
      </trkpt>
      <trkpt lat="48.54087" lon="7.50141">
        <ele>172.6</ele>
        <time>2019-08-08T09:08:20Z</time>
      </trkpt>
      <trkpt lat="48.54091" lon="7.50143">
        <ele>172.6</ele>
        <time>2019-08-08T09:08:21Z</time>
      </trkpt>
      <trkpt lat="48.54095" lon="7.50145">
        <ele>172.5</ele>
        <time>2019-08-08T09:08:23Z</time>
      </trkpt>
      <trkpt lat="48.54098" lon="7.50147">
        <ele>172.5</ele>
        <time>2019-08-08T09:08:24Z</time>
      </trkpt>
      <trkpt lat="48.54101" lon="7.50149">
        <ele>172.5</ele>
        <time>2019-08-08T09:08:25Z</time>
      </trkpt>
      <trkpt lat="48.54103" lon="7.5015">
        <ele>172.4</ele>
        <time>2019-08-08T09:08:26Z</time>
      </trkpt>
      <trkpt lat="48.54107" lon="7.50154">
        <ele>172.4</ele>
        <time>2019-08-08T09:08:27Z</time>
      </trkpt>
      <trkpt lat="48.54112" lon="7.50156">
        <ele>172.3</ele>
        <time>2019-08-08T09:08:29Z</time>
      </trkpt>
      <trkpt lat="48.54116" lon="7.50155">
        <ele>172.2</ele>
        <time>2019-08-08T09:08:31Z</time>
      </trkpt>
      <trkpt lat="48.5412" lon="7.50156">
        <ele>172.1</ele>
        <time>2019-08-08T09:08:33Z</time>
      </trkpt>
      <trkpt lat="48.54123" lon="7.50156">
        <ele>172</ele>
        <time>2019-08-08T09:08:34Z</time>
      </trkpt>
      <trkpt lat="48.54127" lon="7.50157">
        <ele>172</ele>
        <time>2019-08-08T09:08:36Z</time>
      </trkpt>
      <trkpt lat="48.5413" lon="7.50159">
        <ele>171.9</ele>
        <time>2019-08-08T09:08:38Z</time>
      </trkpt>
      <trkpt lat="48.54135" lon="7.50162">
        <ele>171.8</ele>
        <time>2019-08-08T09:08:40Z</time>
      </trkpt>
      <trkpt lat="48.54139" lon="7.50163">
        <ele>171.8</ele>
        <time>2019-08-08T09:08:42Z</time>
      </trkpt>
      <trkpt lat="48.54142" lon="7.50165">
        <ele>171.7</ele>
        <time>2019-08-08T09:08:44Z</time>
      </trkpt>
      <trkpt lat="48.54147" lon="7.50167">
        <ele>171.7</ele>
        <time>2019-08-08T09:08:46Z</time>
      </trkpt>
      <trkpt lat="48.5415" lon="7.50168">
        <ele>171.6</ele>
        <time>2019-08-08T09:08:47Z</time>
      </trkpt>
      <trkpt lat="48.54154" lon="7.5017">
        <ele>171.6</ele>
        <time>2019-08-08T09:08:49Z</time>
      </trkpt>
      <trkpt lat="48.54158" lon="7.50175">
        <ele>171.6</ele>
        <time>2019-08-08T09:08:51Z</time>
      </trkpt>
      <trkpt lat="48.54161" lon="7.50177">
        <ele>171.5</ele>
        <time>2019-08-08T09:08:52Z</time>
      </trkpt>
      <trkpt lat="48.54164" lon="7.50178">
        <ele>171.5</ele>
        <time>2019-08-08T09:08:53Z</time>
      </trkpt>
      <trkpt lat="48.54168" lon="7.5018">
        <ele>171.5</ele>
        <time>2019-08-08T09:08:54Z</time>
      </trkpt>
      <trkpt lat="48.54171" lon="7.50181">
        <ele>171.4</ele>
        <time>2019-08-08T09:08:55Z</time>
      </trkpt>
      <trkpt lat="48.54174" lon="7.50182">
        <ele>171.4</ele>
        <time>2019-08-08T09:08:56Z</time>
      </trkpt>
      <trkpt lat="48.54176" lon="7.50184">
        <ele>171.3</ele>
        <time>2019-08-08T09:08:57Z</time>
      </trkpt>
      <trkpt lat="48.54179" lon="7.50185">
        <ele>171.2</ele>
        <time>2019-08-08T09:08:58Z</time>
      </trkpt>
      <trkpt lat="48.54182" lon="7.50186">
        <ele>171.2</ele>
        <time>2019-08-08T09:08:59Z</time>
      </trkpt>
      <trkpt lat="48.54185" lon="7.50189">
        <ele>171</ele>
        <time>2019-08-08T09:09:00Z</time>
      </trkpt>
      <trkpt lat="48.54189" lon="7.50192">
        <ele>171</ele>
        <time>2019-08-08T09:09:01Z</time>
      </trkpt>
      <trkpt lat="48.54192" lon="7.50195">
        <ele>170.9</ele>
        <time>2019-08-08T09:09:02Z</time>
      </trkpt>
      <trkpt lat="48.54194" lon="7.50197">
        <ele>170.8</ele>
        <time>2019-08-08T09:09:03Z</time>
      </trkpt>
      <trkpt lat="48.54199" lon="7.502">
        <ele>170.7</ele>
        <time>2019-08-08T09:09:05Z</time>
      </trkpt>
      <trkpt lat="48.54202" lon="7.50203">
        <ele>170.7</ele>
        <time>2019-08-08T09:09:06Z</time>
      </trkpt>
      <trkpt lat="48.54205" lon="7.50206">
        <ele>170.7</ele>
        <time>2019-08-08T09:09:07Z</time>
      </trkpt>
      <trkpt lat="48.54208" lon="7.50207">
        <ele>170.7</ele>
        <time>2019-08-08T09:09:08Z</time>
      </trkpt>
      <trkpt lat="48.54211" lon="7.5021">
        <ele>170.6</ele>
        <time>2019-08-08T09:09:09Z</time>
      </trkpt>
      <trkpt lat="48.54213" lon="7.50212">
        <ele>170.7</ele>
        <time>2019-08-08T09:09:10Z</time>
      </trkpt>
      <trkpt lat="48.54216" lon="7.50213">
        <ele>170.7</ele>
        <time>2019-08-08T09:09:11Z</time>
      </trkpt>
      <trkpt lat="48.54219" lon="7.50214">
        <ele>170.7</ele>
        <time>2019-08-08T09:09:12Z</time>
      </trkpt>
      <trkpt lat="48.54222" lon="7.50217">
        <ele>170.7</ele>
        <time>2019-08-08T09:09:13Z</time>
      </trkpt>
      <trkpt lat="48.54225" lon="7.5022">
        <ele>170.8</ele>
        <time>2019-08-08T09:09:14Z</time>
      </trkpt>
      <trkpt lat="48.54227" lon="7.50223">
        <ele>170.8</ele>
        <time>2019-08-08T09:09:15Z</time>
      </trkpt>
      <trkpt lat="48.54228" lon="7.50226">
        <ele>170.9</ele>
        <time>2019-08-08T09:09:16Z</time>
      </trkpt>
      <trkpt lat="48.54228" lon="7.50235">
        <ele>171</ele>
        <time>2019-08-08T09:09:18Z</time>
      </trkpt>
      <trkpt lat="48.54227" lon="7.5024">
        <ele>171.1</ele>
        <time>2019-08-08T09:09:20Z</time>
      </trkpt>
      <trkpt lat="48.5423" lon="7.50242">
        <ele>171.2</ele>
        <time>2019-08-08T09:09:22Z</time>
      </trkpt>
      <trkpt lat="48.54235" lon="7.50247">
        <ele>171.4</ele>
        <time>2019-08-08T09:09:24Z</time>
      </trkpt>
      <trkpt lat="48.54237" lon="7.50251">
        <ele>171.5</ele>
        <time>2019-08-08T09:09:26Z</time>
      </trkpt>
      <trkpt lat="48.54242" lon="7.50256">
        <ele>171.7</ele>
        <time>2019-08-08T09:09:28Z</time>
      </trkpt>
      <trkpt lat="48.54245" lon="7.50257">
        <ele>171.9</ele>
        <time>2019-08-08T09:09:29Z</time>
      </trkpt>
      <trkpt lat="48.54248" lon="7.50262">
        <ele>172.1</ele>
        <time>2019-08-08T09:09:31Z</time>
      </trkpt>
      <trkpt lat="48.5425" lon="7.50267">
        <ele>172.2</ele>
        <time>2019-08-08T09:09:32Z</time>
      </trkpt>
      <trkpt lat="48.54253" lon="7.50269">
        <ele>172.3</ele>
        <time>2019-08-08T09:09:33Z</time>
      </trkpt>
      <trkpt lat="48.54256" lon="7.50271">
        <ele>172.4</ele>
        <time>2019-08-08T09:09:34Z</time>
      </trkpt>
      <trkpt lat="48.54259" lon="7.50272">
        <ele>172.4</ele>
        <time>2019-08-08T09:09:35Z</time>
      </trkpt>
      <trkpt lat="48.54263" lon="7.50275">
        <ele>172.5</ele>
        <time>2019-08-08T09:09:36Z</time>
      </trkpt>
      <trkpt lat="48.54266" lon="7.50278">
        <ele>172.5</ele>
        <time>2019-08-08T09:09:37Z</time>
      </trkpt>
      <trkpt lat="48.54268" lon="7.50281">
        <ele>172.5</ele>
        <time>2019-08-08T09:09:38Z</time>
      </trkpt>
      <trkpt lat="48.54271" lon="7.50283">
        <ele>172.6</ele>
        <time>2019-08-08T09:09:39Z</time>
      </trkpt>
      <trkpt lat="48.54275" lon="7.50285">
        <ele>172.6</ele>
        <time>2019-08-08T09:09:40Z</time>
      </trkpt>
      <trkpt lat="48.54278" lon="7.50288">
        <ele>172.6</ele>
        <time>2019-08-08T09:09:41Z</time>
      </trkpt>
      <trkpt lat="48.5428" lon="7.50291">
        <ele>172.6</ele>
        <time>2019-08-08T09:09:42Z</time>
      </trkpt>
      <trkpt lat="48.54283" lon="7.50294">
        <ele>172.6</ele>
        <time>2019-08-08T09:09:43Z</time>
      </trkpt>
      <trkpt lat="48.54287" lon="7.50295">
        <ele>172.6</ele>
        <time>2019-08-08T09:09:44Z</time>
      </trkpt>
      <trkpt lat="48.5429" lon="7.50296">
        <ele>172.6</ele>
        <time>2019-08-08T09:09:45Z</time>
      </trkpt>
      <trkpt lat="48.54293" lon="7.50298">
        <ele>172.6</ele>
        <time>2019-08-08T09:09:46Z</time>
      </trkpt>
      <trkpt lat="48.54295" lon="7.50303">
        <ele>172.6</ele>
        <time>2019-08-08T09:09:47Z</time>
      </trkpt>
      <trkpt lat="48.54298" lon="7.50306">
        <ele>172.6</ele>
        <time>2019-08-08T09:09:48Z</time>
      </trkpt>
      <trkpt lat="48.54302" lon="7.50308">
        <ele>172.6</ele>
        <time>2019-08-08T09:09:49Z</time>
      </trkpt>
      <trkpt lat="48.54305" lon="7.50312">
        <ele>172.6</ele>
        <time>2019-08-08T09:09:50Z</time>
      </trkpt>
      <trkpt lat="48.54308" lon="7.50315">
        <ele>172.6</ele>
        <time>2019-08-08T09:09:51Z</time>
      </trkpt>
      <trkpt lat="48.54311" lon="7.50316">
        <ele>172.6</ele>
        <time>2019-08-08T09:09:52Z</time>
      </trkpt>
      <trkpt lat="48.54315" lon="7.50318">
        <ele>172.6</ele>
        <time>2019-08-08T09:09:53Z</time>
      </trkpt>
      <trkpt lat="48.54318" lon="7.5032">
        <ele>172.6</ele>
        <time>2019-08-08T09:09:54Z</time>
      </trkpt>
      <trkpt lat="48.5432" lon="7.50323">
        <ele>172.6</ele>
        <time>2019-08-08T09:09:55Z</time>
      </trkpt>
      <trkpt lat="48.54322" lon="7.50326">
        <ele>172.6</ele>
        <time>2019-08-08T09:09:56Z</time>
      </trkpt>
      <trkpt lat="48.54325" lon="7.50329">
        <ele>172.6</ele>
        <time>2019-08-08T09:09:57Z</time>
      </trkpt>
      <trkpt lat="48.54327" lon="7.50332">
        <ele>172.6</ele>
        <time>2019-08-08T09:09:58Z</time>
      </trkpt>
      <trkpt lat="48.54329" lon="7.50335">
        <ele>172.6</ele>
        <time>2019-08-08T09:09:59Z</time>
      </trkpt>
      <trkpt lat="48.54333" lon="7.50336">
        <ele>172.6</ele>
        <time>2019-08-08T09:10:00Z</time>
      </trkpt>
      <trkpt lat="48.54336" lon="7.50339">
        <ele>172.6</ele>
        <time>2019-08-08T09:10:01Z</time>
      </trkpt>
      <trkpt lat="48.54338" lon="7.50343">
        <ele>172.6</ele>
        <time>2019-08-08T09:10:02Z</time>
      </trkpt>
      <trkpt lat="48.54341" lon="7.50347">
        <ele>172.6</ele>
        <time>2019-08-08T09:10:03Z</time>
      </trkpt>
      <trkpt lat="48.54343" lon="7.50351">
        <ele>172.6</ele>
        <time>2019-08-08T09:10:04Z</time>
      </trkpt>
      <trkpt lat="48.54345" lon="7.50354">
        <ele>172.6</ele>
        <time>2019-08-08T09:10:05Z</time>
      </trkpt>
      <trkpt lat="48.54349" lon="7.50357">
        <ele>172.6</ele>
        <time>2019-08-08T09:10:06Z</time>
      </trkpt>
      <trkpt lat="48.54351" lon="7.50361">
        <ele>172.6</ele>
        <time>2019-08-08T09:10:07Z</time>
      </trkpt>
      <trkpt lat="48.54351" lon="7.50367">
        <ele>172.4</ele>
        <time>2019-08-08T09:10:09Z</time>
      </trkpt>
      <trkpt lat="48.54352" lon="7.50374">
        <ele>172.3</ele>
        <time>2019-08-08T09:10:11Z</time>
      </trkpt>
      <trkpt lat="48.54351" lon="7.50378">
        <ele>172.3</ele>
        <time>2019-08-08T09:10:12Z</time>
      </trkpt>
      <trkpt lat="48.54349" lon="7.50382">
        <ele>172.3</ele>
        <time>2019-08-08T09:10:13Z</time>
      </trkpt>
      <trkpt lat="48.54346" lon="7.50388">
        <ele>172.2</ele>
        <time>2019-08-08T09:10:15Z</time>
      </trkpt>
      <trkpt lat="48.54344" lon="7.50391">
        <ele>172.2</ele>
        <time>2019-08-08T09:10:16Z</time>
      </trkpt>
      <trkpt lat="48.54342" lon="7.50394">
        <ele>172.2</ele>
        <time>2019-08-08T09:10:17Z</time>
      </trkpt>
      <trkpt lat="48.5434" lon="7.50398">
        <ele>172.2</ele>
        <time>2019-08-08T09:10:18Z</time>
      </trkpt>
      <trkpt lat="48.54337" lon="7.50401">
        <ele>172.2</ele>
        <time>2019-08-08T09:10:19Z</time>
      </trkpt>
      <trkpt lat="48.54335" lon="7.50403">
        <ele>172.1</ele>
        <time>2019-08-08T09:10:20Z</time>
      </trkpt>
      <trkpt lat="48.54332" lon="7.50406">
        <ele>172.1</ele>
        <time>2019-08-08T09:10:21Z</time>
      </trkpt>
      <trkpt lat="48.5433" lon="7.50409">
        <ele>172.1</ele>
        <time>2019-08-08T09:10:22Z</time>
      </trkpt>
      <trkpt lat="48.54328" lon="7.50412">
        <ele>172.1</ele>
        <time>2019-08-08T09:10:23Z</time>
      </trkpt>
      <trkpt lat="48.54325" lon="7.50416">
        <ele>172.1</ele>
        <time>2019-08-08T09:10:24Z</time>
      </trkpt>
      <trkpt lat="48.54323" lon="7.5042">
        <ele>172</ele>
        <time>2019-08-08T09:10:25Z</time>
      </trkpt>
      <trkpt lat="48.54321" lon="7.50425">
        <ele>172</ele>
        <time>2019-08-08T09:10:26Z</time>
      </trkpt>
      <trkpt lat="48.54318" lon="7.50429">
        <ele>172.1</ele>
        <time>2019-08-08T09:10:27Z</time>
      </trkpt>
      <trkpt lat="48.54316" lon="7.50433">
        <ele>172.1</ele>
        <time>2019-08-08T09:10:28Z</time>
      </trkpt>
      <trkpt lat="48.54314" lon="7.50437">
        <ele>172.1</ele>
        <time>2019-08-08T09:10:29Z</time>
      </trkpt>
      <trkpt lat="48.54312" lon="7.50439">
        <ele>172.1</ele>
        <time>2019-08-08T09:10:30Z</time>
      </trkpt>
      <trkpt lat="48.54309" lon="7.50443">
        <ele>172.1</ele>
        <time>2019-08-08T09:10:31Z</time>
      </trkpt>
      <trkpt lat="48.54305" lon="7.50444">
        <ele>172.2</ele>
        <time>2019-08-08T09:10:33Z</time>
      </trkpt>
      <trkpt lat="48.543" lon="7.50446">
        <ele>172.2</ele>
        <time>2019-08-08T09:10:35Z</time>
      </trkpt>
      <trkpt lat="48.54298" lon="7.50448">
        <ele>172.2</ele>
        <time>2019-08-08T09:10:36Z</time>
      </trkpt>
      <trkpt lat="48.54294" lon="7.50449">
        <ele>172.3</ele>
        <time>2019-08-08T09:10:38Z</time>
      </trkpt>
      <trkpt lat="48.54291" lon="7.50452">
        <ele>172.3</ele>
        <time>2019-08-08T09:10:39Z</time>
      </trkpt>
      <trkpt lat="48.54286" lon="7.50457">
        <ele>172.4</ele>
        <time>2019-08-08T09:10:41Z</time>
      </trkpt>
      <trkpt lat="48.54283" lon="7.50462">
        <ele>172.5</ele>
        <time>2019-08-08T09:10:42Z</time>
      </trkpt>
      <trkpt lat="48.54281" lon="7.50464">
        <ele>172.6</ele>
        <time>2019-08-08T09:10:43Z</time>
      </trkpt>
      <trkpt lat="48.54278" lon="7.5047">
        <ele>172.7</ele>
        <time>2019-08-08T09:10:44Z</time>
      </trkpt>
      <trkpt lat="48.54274" lon="7.50476">
        <ele>172.8</ele>
        <time>2019-08-08T09:10:45Z</time>
      </trkpt>
      <trkpt lat="48.5427" lon="7.50483">
        <ele>172.9</ele>
        <time>2019-08-08T09:10:46Z</time>
      </trkpt>
      <trkpt lat="48.54267" lon="7.50488">
        <ele>173.1</ele>
        <time>2019-08-08T09:10:47Z</time>
      </trkpt>
      <trkpt lat="48.54264" lon="7.50493">
        <ele>173.2</ele>
        <time>2019-08-08T09:10:48Z</time>
      </trkpt>
      <trkpt lat="48.54261" lon="7.50499">
        <ele>173.3</ele>
        <time>2019-08-08T09:10:50Z</time>
      </trkpt>
      <trkpt lat="48.54259" lon="7.50502">
        <ele>173.4</ele>
        <time>2019-08-08T09:10:51Z</time>
      </trkpt>
      <trkpt lat="48.54256" lon="7.50506">
        <ele>173.5</ele>
        <time>2019-08-08T09:10:52Z</time>
      </trkpt>
      <trkpt lat="48.54253" lon="7.5051">
        <ele>173.6</ele>
        <time>2019-08-08T09:10:53Z</time>
      </trkpt>
      <trkpt lat="48.54251" lon="7.50513">
        <ele>173.7</ele>
        <time>2019-08-08T09:10:54Z</time>
      </trkpt>
      <trkpt lat="48.5425" lon="7.50518">
        <ele>173.8</ele>
        <time>2019-08-08T09:10:56Z</time>
      </trkpt>
      <trkpt lat="48.5425" lon="7.50522">
        <ele>173.8</ele>
        <time>2019-08-08T09:10:57Z</time>
      </trkpt>
      <trkpt lat="48.54251" lon="7.50527">
        <ele>173.9</ele>
        <time>2019-08-08T09:10:59Z</time>
      </trkpt>
      <trkpt lat="48.54256" lon="7.50535">
        <ele>173.9</ele>
        <time>2019-08-08T09:11:01Z</time>
      </trkpt>
      <trkpt lat="48.54259" lon="7.50539">
        <ele>173.9</ele>
        <time>2019-08-08T09:11:02Z</time>
      </trkpt>
      <trkpt lat="48.54261" lon="7.50544">
        <ele>173.9</ele>
        <time>2019-08-08T09:11:03Z</time>
      </trkpt>
      <trkpt lat="48.54267" lon="7.50556">
        <ele>173.9</ele>
        <time>2019-08-08T09:11:05Z</time>
      </trkpt>
      <trkpt lat="48.54269" lon="7.5056">
        <ele>173.9</ele>
        <time>2019-08-08T09:11:06Z</time>
      </trkpt>
      <trkpt lat="48.54271" lon="7.50563">
        <ele>173.9</ele>
        <time>2019-08-08T09:11:07Z</time>
      </trkpt>
      <trkpt lat="48.54273" lon="7.50566">
        <ele>173.9</ele>
        <time>2019-08-08T09:11:08Z</time>
      </trkpt>
      <trkpt lat="48.54275" lon="7.50569">
        <ele>173.9</ele>
        <time>2019-08-08T09:11:09Z</time>
      </trkpt>
      <trkpt lat="48.54278" lon="7.50575">
        <ele>173.9</ele>
        <time>2019-08-08T09:11:10Z</time>
      </trkpt>
      <trkpt lat="48.5428" lon="7.50579">
        <ele>173.9</ele>
        <time>2019-08-08T09:11:11Z</time>
      </trkpt>
      <trkpt lat="48.54281" lon="7.50583">
        <ele>173.8</ele>
        <time>2019-08-08T09:11:12Z</time>
      </trkpt>
      <trkpt lat="48.54283" lon="7.50588">
        <ele>173.8</ele>
        <time>2019-08-08T09:11:13Z</time>
      </trkpt>
      <trkpt lat="48.54285" lon="7.50594">
        <ele>173.7</ele>
        <time>2019-08-08T09:11:14Z</time>
      </trkpt>
      <trkpt lat="48.54288" lon="7.506">
        <ele>173.7</ele>
        <time>2019-08-08T09:11:15Z</time>
      </trkpt>
      <trkpt lat="48.5429" lon="7.50605">
        <ele>173.6</ele>
        <time>2019-08-08T09:11:16Z</time>
      </trkpt>
      <trkpt lat="48.54292" lon="7.5061">
        <ele>173.5</ele>
        <time>2019-08-08T09:11:17Z</time>
      </trkpt>
      <trkpt lat="48.54294" lon="7.50613">
        <ele>173.5</ele>
        <time>2019-08-08T09:11:18Z</time>
      </trkpt>
      <trkpt lat="48.54296" lon="7.50615">
        <ele>173.4</ele>
        <time>2019-08-08T09:11:19Z</time>
      </trkpt>
      <trkpt lat="48.54299" lon="7.50618">
        <ele>173.4</ele>
        <time>2019-08-08T09:11:20Z</time>
      </trkpt>
      <trkpt lat="48.54303" lon="7.50624">
        <ele>173.5</ele>
        <time>2019-08-08T09:11:22Z</time>
      </trkpt>
      <trkpt lat="48.54306" lon="7.50626">
        <ele>173.5</ele>
        <time>2019-08-08T09:11:23Z</time>
      </trkpt>
      <trkpt lat="48.54308" lon="7.5063">
        <ele>173.5</ele>
        <time>2019-08-08T09:11:24Z</time>
      </trkpt>
      <trkpt lat="48.5431" lon="7.50632">
        <ele>173.5</ele>
        <time>2019-08-08T09:11:25Z</time>
      </trkpt>
      <trkpt lat="48.54314" lon="7.50635">
        <ele>173.5</ele>
        <time>2019-08-08T09:11:26Z</time>
      </trkpt>
      <trkpt lat="48.54316" lon="7.50639">
        <ele>173.5</ele>
        <time>2019-08-08T09:11:27Z</time>
      </trkpt>
      <trkpt lat="48.54319" lon="7.50642">
        <ele>173.4</ele>
        <time>2019-08-08T09:11:28Z</time>
      </trkpt>
      <trkpt lat="48.54322" lon="7.50645">
        <ele>173.4</ele>
        <time>2019-08-08T09:11:29Z</time>
      </trkpt>
      <trkpt lat="48.54325" lon="7.50647">
        <ele>173.4</ele>
        <time>2019-08-08T09:11:30Z</time>
      </trkpt>
      <trkpt lat="48.54329" lon="7.50649">
        <ele>173.3</ele>
        <time>2019-08-08T09:11:31Z</time>
      </trkpt>
      <trkpt lat="48.54331" lon="7.50652">
        <ele>173.2</ele>
        <time>2019-08-08T09:11:32Z</time>
      </trkpt>
      <trkpt lat="48.54333" lon="7.50657">
        <ele>173.2</ele>
        <time>2019-08-08T09:11:33Z</time>
      </trkpt>
      <trkpt lat="48.54338" lon="7.50663">
        <ele>172.9</ele>
        <time>2019-08-08T09:11:34Z</time>
      </trkpt>
      <trkpt lat="48.54343" lon="7.50668">
        <ele>173</ele>
        <time>2019-08-08T09:11:35Z</time>
      </trkpt>
      <trkpt lat="48.54347" lon="7.50672">
        <ele>173</ele>
        <time>2019-08-08T09:11:36Z</time>
      </trkpt>
      <trkpt lat="48.54349" lon="7.50674">
        <ele>173.1</ele>
        <time>2019-08-08T09:11:37Z</time>
      </trkpt>
      <trkpt lat="48.54352" lon="7.50677">
        <ele>173.1</ele>
        <time>2019-08-08T09:11:38Z</time>
      </trkpt>
      <trkpt lat="48.54355" lon="7.5068">
        <ele>173.1</ele>
        <time>2019-08-08T09:11:39Z</time>
      </trkpt>
      <trkpt lat="48.54358" lon="7.50683">
        <ele>173.1</ele>
        <time>2019-08-08T09:11:40Z</time>
      </trkpt>
      <trkpt lat="48.54361" lon="7.50686">
        <ele>173.2</ele>
        <time>2019-08-08T09:11:41Z</time>
      </trkpt>
      <trkpt lat="48.54363" lon="7.50689">
        <ele>173.2</ele>
        <time>2019-08-08T09:11:42Z</time>
      </trkpt>
      <trkpt lat="48.54365" lon="7.50693">
        <ele>173.2</ele>
        <time>2019-08-08T09:11:43Z</time>
      </trkpt>
      <trkpt lat="48.54369" lon="7.50696">
        <ele>173.3</ele>
        <time>2019-08-08T09:11:44Z</time>
      </trkpt>
      <trkpt lat="48.54372" lon="7.50701">
        <ele>173.3</ele>
        <time>2019-08-08T09:11:45Z</time>
      </trkpt>
      <trkpt lat="48.54374" lon="7.50705">
        <ele>173.3</ele>
        <time>2019-08-08T09:11:46Z</time>
      </trkpt>
      <trkpt lat="48.54377" lon="7.50708">
        <ele>173.3</ele>
        <time>2019-08-08T09:11:47Z</time>
      </trkpt>
      <trkpt lat="48.5438" lon="7.50712">
        <ele>173.4</ele>
        <time>2019-08-08T09:11:48Z</time>
      </trkpt>
      <trkpt lat="48.54383" lon="7.50716">
        <ele>173.4</ele>
        <time>2019-08-08T09:11:49Z</time>
      </trkpt>
      <trkpt lat="48.54385" lon="7.5072">
        <ele>173.4</ele>
        <time>2019-08-08T09:11:50Z</time>
      </trkpt>
      <trkpt lat="48.54388" lon="7.50724">
        <ele>173.5</ele>
        <time>2019-08-08T09:11:51Z</time>
      </trkpt>
      <trkpt lat="48.54391" lon="7.50728">
        <ele>173.5</ele>
        <time>2019-08-08T09:11:52Z</time>
      </trkpt>
      <trkpt lat="48.54393" lon="7.50731">
        <ele>173.5</ele>
        <time>2019-08-08T09:11:53Z</time>
      </trkpt>
      <trkpt lat="48.54395" lon="7.50734">
        <ele>173.6</ele>
        <time>2019-08-08T09:11:54Z</time>
      </trkpt>
      <trkpt lat="48.54398" lon="7.5074">
        <ele>173.6</ele>
        <time>2019-08-08T09:11:55Z</time>
      </trkpt>
      <trkpt lat="48.54401" lon="7.50742">
        <ele>173.6</ele>
        <time>2019-08-08T09:11:56Z</time>
      </trkpt>
      <trkpt lat="48.54405" lon="7.50746">
        <ele>173.6</ele>
        <time>2019-08-08T09:11:58Z</time>
      </trkpt>
      <trkpt lat="48.54408" lon="7.50747">
        <ele>173.6</ele>
        <time>2019-08-08T09:11:59Z</time>
      </trkpt>
      <trkpt lat="48.54411" lon="7.50752">
        <ele>173.6</ele>
        <time>2019-08-08T09:12:00Z</time>
      </trkpt>
      <trkpt lat="48.54414" lon="7.50753">
        <ele>173.6</ele>
        <time>2019-08-08T09:12:01Z</time>
      </trkpt>
      <trkpt lat="48.54417" lon="7.50757">
        <ele>173.6</ele>
        <time>2019-08-08T09:12:02Z</time>
      </trkpt>
      <trkpt lat="48.5442" lon="7.5076">
        <ele>173.6</ele>
        <time>2019-08-08T09:12:03Z</time>
      </trkpt>
      <trkpt lat="48.54423" lon="7.50764">
        <ele>173.6</ele>
        <time>2019-08-08T09:12:04Z</time>
      </trkpt>
      <trkpt lat="48.54426" lon="7.50765">
        <ele>173.6</ele>
        <time>2019-08-08T09:12:05Z</time>
      </trkpt>
      <trkpt lat="48.54429" lon="7.50769">
        <ele>173.6</ele>
        <time>2019-08-08T09:12:06Z</time>
      </trkpt>
      <trkpt lat="48.54431" lon="7.50773">
        <ele>173.6</ele>
        <time>2019-08-08T09:12:07Z</time>
      </trkpt>
      <trkpt lat="48.54434" lon="7.50777">
        <ele>173.6</ele>
        <time>2019-08-08T09:12:08Z</time>
      </trkpt>
      <trkpt lat="48.54437" lon="7.50782">
        <ele>173.6</ele>
        <time>2019-08-08T09:12:09Z</time>
      </trkpt>
      <trkpt lat="48.54439" lon="7.50787">
        <ele>173.6</ele>
        <time>2019-08-08T09:12:10Z</time>
      </trkpt>
      <trkpt lat="48.54442" lon="7.50791">
        <ele>173.5</ele>
        <time>2019-08-08T09:12:11Z</time>
      </trkpt>
      <trkpt lat="48.54445" lon="7.50796">
        <ele>173.5</ele>
        <time>2019-08-08T09:12:12Z</time>
      </trkpt>
      <trkpt lat="48.54448" lon="7.50801">
        <ele>173.5</ele>
        <time>2019-08-08T09:12:13Z</time>
      </trkpt>
      <trkpt lat="48.5445" lon="7.50805">
        <ele>173.5</ele>
        <time>2019-08-08T09:12:14Z</time>
      </trkpt>
      <trkpt lat="48.54452" lon="7.50808">
        <ele>173.4</ele>
        <time>2019-08-08T09:12:15Z</time>
      </trkpt>
      <trkpt lat="48.54455" lon="7.50812">
        <ele>173.4</ele>
        <time>2019-08-08T09:12:16Z</time>
      </trkpt>
      <trkpt lat="48.54459" lon="7.50815">
        <ele>173.4</ele>
        <time>2019-08-08T09:12:17Z</time>
      </trkpt>
      <trkpt lat="48.54461" lon="7.50818">
        <ele>173.4</ele>
        <time>2019-08-08T09:12:18Z</time>
      </trkpt>
      <trkpt lat="48.54463" lon="7.50821">
        <ele>173.4</ele>
        <time>2019-08-08T09:12:19Z</time>
      </trkpt>
      <trkpt lat="48.54466" lon="7.50825">
        <ele>173.3</ele>
        <time>2019-08-08T09:12:20Z</time>
      </trkpt>
      <trkpt lat="48.54469" lon="7.50829">
        <ele>173.3</ele>
        <time>2019-08-08T09:12:21Z</time>
      </trkpt>
      <trkpt lat="48.54471" lon="7.50835">
        <ele>173.3</ele>
        <time>2019-08-08T09:12:22Z</time>
      </trkpt>
      <trkpt lat="48.54473" lon="7.50839">
        <ele>173.2</ele>
        <time>2019-08-08T09:12:23Z</time>
      </trkpt>
      <trkpt lat="48.54476" lon="7.50842">
        <ele>173.2</ele>
        <time>2019-08-08T09:12:24Z</time>
      </trkpt>
      <trkpt lat="48.54479" lon="7.50845">
        <ele>173.2</ele>
        <time>2019-08-08T09:12:25Z</time>
      </trkpt>
      <trkpt lat="48.54481" lon="7.50848">
        <ele>173.1</ele>
        <time>2019-08-08T09:12:26Z</time>
      </trkpt>
      <trkpt lat="48.54483" lon="7.50851">
        <ele>173.1</ele>
        <time>2019-08-08T09:12:28Z</time>
      </trkpt>
      <trkpt lat="48.5448" lon="7.50852">
        <ele>173.1</ele>
        <time>2019-08-08T09:12:30Z</time>
      </trkpt>
      <trkpt lat="48.54478" lon="7.50854">
        <ele>173.1</ele>
        <time>2019-08-08T09:12:31Z</time>
      </trkpt>
      <trkpt lat="48.54475" lon="7.50857">
        <ele>173.2</ele>
        <time>2019-08-08T09:12:32Z</time>
      </trkpt>
      <trkpt lat="48.54474" lon="7.50861">
        <ele>173.1</ele>
        <time>2019-08-08T09:12:33Z</time>
      </trkpt>
      <trkpt lat="48.54476" lon="7.50868">
        <ele>173.1</ele>
        <time>2019-08-08T09:12:35Z</time>
      </trkpt>
      <trkpt lat="48.54477" lon="7.50872">
        <ele>173.1</ele>
        <time>2019-08-08T09:12:36Z</time>
      </trkpt>
      <trkpt lat="48.5448" lon="7.50876">
        <ele>173.1</ele>
        <time>2019-08-08T09:12:37Z</time>
      </trkpt>
      <trkpt lat="48.54482" lon="7.5088">
        <ele>173.1</ele>
        <time>2019-08-08T09:12:38Z</time>
      </trkpt>
      <trkpt lat="48.54485" lon="7.50884">
        <ele>173.1</ele>
        <time>2019-08-08T09:12:39Z</time>
      </trkpt>
      <trkpt lat="48.54487" lon="7.50888">
        <ele>173</ele>
        <time>2019-08-08T09:12:40Z</time>
      </trkpt>
      <trkpt lat="48.5449" lon="7.50891">
        <ele>173</ele>
        <time>2019-08-08T09:12:41Z</time>
      </trkpt>
      <trkpt lat="48.54492" lon="7.50895">
        <ele>173</ele>
        <time>2019-08-08T09:12:42Z</time>
      </trkpt>
      <trkpt lat="48.54494" lon="7.50899">
        <ele>173</ele>
        <time>2019-08-08T09:12:43Z</time>
      </trkpt>
      <trkpt lat="48.54497" lon="7.50903">
        <ele>173</ele>
        <time>2019-08-08T09:12:44Z</time>
      </trkpt>
      <trkpt lat="48.545" lon="7.50908">
        <ele>173</ele>
        <time>2019-08-08T09:12:45Z</time>
      </trkpt>
      <trkpt lat="48.54503" lon="7.50913">
        <ele>173</ele>
        <time>2019-08-08T09:12:46Z</time>
      </trkpt>
      <trkpt lat="48.54505" lon="7.50917">
        <ele>173</ele>
        <time>2019-08-08T09:12:47Z</time>
      </trkpt>
      <trkpt lat="48.54507" lon="7.50922">
        <ele>172.9</ele>
        <time>2019-08-08T09:12:48Z</time>
      </trkpt>
      <trkpt lat="48.5451" lon="7.50927">
        <ele>172.9</ele>
        <time>2019-08-08T09:12:49Z</time>
      </trkpt>
      <trkpt lat="48.54512" lon="7.50932">
        <ele>172.9</ele>
        <time>2019-08-08T09:12:50Z</time>
      </trkpt>
      <trkpt lat="48.54515" lon="7.50938">
        <ele>172.8</ele>
        <time>2019-08-08T09:12:51Z</time>
      </trkpt>
      <trkpt lat="48.54518" lon="7.50943">
        <ele>172.8</ele>
        <time>2019-08-08T09:12:52Z</time>
      </trkpt>
      <trkpt lat="48.54521" lon="7.50949">
        <ele>172.7</ele>
        <time>2019-08-08T09:12:53Z</time>
      </trkpt>
      <trkpt lat="48.54523" lon="7.50953">
        <ele>172.6</ele>
        <time>2019-08-08T09:12:54Z</time>
      </trkpt>
      <trkpt lat="48.54525" lon="7.50958">
        <ele>172.5</ele>
        <time>2019-08-08T09:12:55Z</time>
      </trkpt>
      <trkpt lat="48.54527" lon="7.50962">
        <ele>172.4</ele>
        <time>2019-08-08T09:12:56Z</time>
      </trkpt>
      <trkpt lat="48.54529" lon="7.50966">
        <ele>172.2</ele>
        <time>2019-08-08T09:12:57Z</time>
      </trkpt>
      <trkpt lat="48.5453" lon="7.5097">
        <ele>172</ele>
        <time>2019-08-08T09:12:58Z</time>
      </trkpt>
      <trkpt lat="48.54531" lon="7.50974">
        <ele>171.7</ele>
        <time>2019-08-08T09:12:59Z</time>
      </trkpt>
      <trkpt lat="48.54532" lon="7.5098">
        <ele>171.4</ele>
        <time>2019-08-08T09:13:00Z</time>
      </trkpt>
      <trkpt lat="48.54533" lon="7.50985">
        <ele>171.1</ele>
        <time>2019-08-08T09:13:01Z</time>
      </trkpt>
      <trkpt lat="48.54534" lon="7.50989">
        <ele>170.8</ele>
        <time>2019-08-08T09:13:02Z</time>
      </trkpt>
      <trkpt lat="48.54537" lon="7.50996">
        <ele>170.3</ele>
        <time>2019-08-08T09:13:04Z</time>
      </trkpt>
      <trkpt lat="48.5454" lon="7.50999">
        <ele>170.1</ele>
        <time>2019-08-08T09:13:05Z</time>
      </trkpt>
      <trkpt lat="48.54542" lon="7.51001">
        <ele>170</ele>
        <time>2019-08-08T09:13:06Z</time>
      </trkpt>
      <trkpt lat="48.54545" lon="7.51003">
        <ele>170</ele>
        <time>2019-08-08T09:13:07Z</time>
      </trkpt>
      <trkpt lat="48.54548" lon="7.51006">
        <ele>169.9</ele>
        <time>2019-08-08T09:13:08Z</time>
      </trkpt>
      <trkpt lat="48.54551" lon="7.51009">
        <ele>169.9</ele>
        <time>2019-08-08T09:13:09Z</time>
      </trkpt>
      <trkpt lat="48.54553" lon="7.51013">
        <ele>169.8</ele>
        <time>2019-08-08T09:13:10Z</time>
      </trkpt>
      <trkpt lat="48.54556" lon="7.51017">
        <ele>169.8</ele>
        <time>2019-08-08T09:13:11Z</time>
      </trkpt>
      <trkpt lat="48.5456" lon="7.51021">
        <ele>169.7</ele>
        <time>2019-08-08T09:13:12Z</time>
      </trkpt>
      <trkpt lat="48.54564" lon="7.51025">
        <ele>169.6</ele>
        <time>2019-08-08T09:13:13Z</time>
      </trkpt>
      <trkpt lat="48.54567" lon="7.51029">
        <ele>169.6</ele>
        <time>2019-08-08T09:13:14Z</time>
      </trkpt>
      <trkpt lat="48.54572" lon="7.51035">
        <ele>169.5</ele>
        <time>2019-08-08T09:13:15Z</time>
      </trkpt>
      <trkpt lat="48.54576" lon="7.5104">
        <ele>169.5</ele>
        <time>2019-08-08T09:13:16Z</time>
      </trkpt>
      <trkpt lat="48.5458" lon="7.51045">
        <ele>169.4</ele>
        <time>2019-08-08T09:13:17Z</time>
      </trkpt>
      <trkpt lat="48.54585" lon="7.51051">
        <ele>169.4</ele>
        <time>2019-08-08T09:13:18Z</time>
      </trkpt>
      <trkpt lat="48.54589" lon="7.51057">
        <ele>169.4</ele>
        <time>2019-08-08T09:13:19Z</time>
      </trkpt>
      <trkpt lat="48.54592" lon="7.51063">
        <ele>169.3</ele>
        <time>2019-08-08T09:13:20Z</time>
      </trkpt>
      <trkpt lat="48.54595" lon="7.51069">
        <ele>169.3</ele>
        <time>2019-08-08T09:13:21Z</time>
      </trkpt>
      <trkpt lat="48.54599" lon="7.51074">
        <ele>169.3</ele>
        <time>2019-08-08T09:13:22Z</time>
      </trkpt>
      <trkpt lat="48.54603" lon="7.5108">
        <ele>169.3</ele>
        <time>2019-08-08T09:13:23Z</time>
      </trkpt>
      <trkpt lat="48.54607" lon="7.51085">
        <ele>169.2</ele>
        <time>2019-08-08T09:13:24Z</time>
      </trkpt>
      <trkpt lat="48.5461" lon="7.5109">
        <ele>169.2</ele>
        <time>2019-08-08T09:13:25Z</time>
      </trkpt>
      <trkpt lat="48.54614" lon="7.51094">
        <ele>169.2</ele>
        <time>2019-08-08T09:13:26Z</time>
      </trkpt>
      <trkpt lat="48.54619" lon="7.51098">
        <ele>169.2</ele>
        <time>2019-08-08T09:13:27Z</time>
      </trkpt>
      <trkpt lat="48.54623" lon="7.51103">
        <ele>169.2</ele>
        <time>2019-08-08T09:13:28Z</time>
      </trkpt>
      <trkpt lat="48.54627" lon="7.51107">
        <ele>169.1</ele>
        <time>2019-08-08T09:13:29Z</time>
      </trkpt>
      <trkpt lat="48.54631" lon="7.51113">
        <ele>169.1</ele>
        <time>2019-08-08T09:13:30Z</time>
      </trkpt>
      <trkpt lat="48.54635" lon="7.51117">
        <ele>169.1</ele>
        <time>2019-08-08T09:13:31Z</time>
      </trkpt>
      <trkpt lat="48.54639" lon="7.51122">
        <ele>169.1</ele>
        <time>2019-08-08T09:13:32Z</time>
      </trkpt>
      <trkpt lat="48.54643" lon="7.51126">
        <ele>169.1</ele>
        <time>2019-08-08T09:13:33Z</time>
      </trkpt>
      <trkpt lat="48.54647" lon="7.5113">
        <ele>169.1</ele>
        <time>2019-08-08T09:13:34Z</time>
      </trkpt>
      <trkpt lat="48.54651" lon="7.51133">
        <ele>169.1</ele>
        <time>2019-08-08T09:13:35Z</time>
      </trkpt>
      <trkpt lat="48.54655" lon="7.51137">
        <ele>169.1</ele>
        <time>2019-08-08T09:13:36Z</time>
      </trkpt>
      <trkpt lat="48.54658" lon="7.5114">
        <ele>169.1</ele>
        <time>2019-08-08T09:13:37Z</time>
      </trkpt>
      <trkpt lat="48.54663" lon="7.51145">
        <ele>169.1</ele>
        <time>2019-08-08T09:13:38Z</time>
      </trkpt>
      <trkpt lat="48.54666" lon="7.5115">
        <ele>169.1</ele>
        <time>2019-08-08T09:13:39Z</time>
      </trkpt>
      <trkpt lat="48.54669" lon="7.51155">
        <ele>169.1</ele>
        <time>2019-08-08T09:13:40Z</time>
      </trkpt>
      <trkpt lat="48.54672" lon="7.51161">
        <ele>169.1</ele>
        <time>2019-08-08T09:13:41Z</time>
      </trkpt>
      <trkpt lat="48.54676" lon="7.51167">
        <ele>169.1</ele>
        <time>2019-08-08T09:13:42Z</time>
      </trkpt>
      <trkpt lat="48.5468" lon="7.51173">
        <ele>169.1</ele>
        <time>2019-08-08T09:13:43Z</time>
      </trkpt>
      <trkpt lat="48.54684" lon="7.51178">
        <ele>169.1</ele>
        <time>2019-08-08T09:13:44Z</time>
      </trkpt>
      <trkpt lat="48.54688" lon="7.51184">
        <ele>169.1</ele>
        <time>2019-08-08T09:13:45Z</time>
      </trkpt>
      <trkpt lat="48.54691" lon="7.51191">
        <ele>169.1</ele>
        <time>2019-08-08T09:13:46Z</time>
      </trkpt>
      <trkpt lat="48.54695" lon="7.51197">
        <ele>169.1</ele>
        <time>2019-08-08T09:13:47Z</time>
      </trkpt>
      <trkpt lat="48.54699" lon="7.51202">
        <ele>169.1</ele>
        <time>2019-08-08T09:13:48Z</time>
      </trkpt>
      <trkpt lat="48.54702" lon="7.51207">
        <ele>169.1</ele>
        <time>2019-08-08T09:13:49Z</time>
      </trkpt>
      <trkpt lat="48.54707" lon="7.51212">
        <ele>169.1</ele>
        <time>2019-08-08T09:13:50Z</time>
      </trkpt>
      <trkpt lat="48.54711" lon="7.51217">
        <ele>169</ele>
        <time>2019-08-08T09:13:51Z</time>
      </trkpt>
      <trkpt lat="48.54716" lon="7.51223">
        <ele>169</ele>
        <time>2019-08-08T09:13:52Z</time>
      </trkpt>
      <trkpt lat="48.5472" lon="7.51228">
        <ele>169</ele>
        <time>2019-08-08T09:13:53Z</time>
      </trkpt>
      <trkpt lat="48.54723" lon="7.51234">
        <ele>169</ele>
        <time>2019-08-08T09:13:54Z</time>
      </trkpt>
      <trkpt lat="48.54726" lon="7.51238">
        <ele>169</ele>
        <time>2019-08-08T09:13:55Z</time>
      </trkpt>
      <trkpt lat="48.5473" lon="7.51243">
        <ele>169</ele>
        <time>2019-08-08T09:13:56Z</time>
      </trkpt>
      <trkpt lat="48.54733" lon="7.51249">
        <ele>168.9</ele>
        <time>2019-08-08T09:13:57Z</time>
      </trkpt>
      <trkpt lat="48.54736" lon="7.51255">
        <ele>168.9</ele>
        <time>2019-08-08T09:13:58Z</time>
      </trkpt>
      <trkpt lat="48.5474" lon="7.5126">
        <ele>168.9</ele>
        <time>2019-08-08T09:13:59Z</time>
      </trkpt>
      <trkpt lat="48.54744" lon="7.51265">
        <ele>168.9</ele>
        <time>2019-08-08T09:14:00Z</time>
      </trkpt>
      <trkpt lat="48.54748" lon="7.5127">
        <ele>168.9</ele>
        <time>2019-08-08T09:14:01Z</time>
      </trkpt>
      <trkpt lat="48.54752" lon="7.51274">
        <ele>168.9</ele>
        <time>2019-08-08T09:14:02Z</time>
      </trkpt>
      <trkpt lat="48.54755" lon="7.51278">
        <ele>168.9</ele>
        <time>2019-08-08T09:14:03Z</time>
      </trkpt>
      <trkpt lat="48.54758" lon="7.51285">
        <ele>168.8</ele>
        <time>2019-08-08T09:14:04Z</time>
      </trkpt>
      <trkpt lat="48.54762" lon="7.5129">
        <ele>168.8</ele>
        <time>2019-08-08T09:14:05Z</time>
      </trkpt>
      <trkpt lat="48.54766" lon="7.51295">
        <ele>168.8</ele>
        <time>2019-08-08T09:14:06Z</time>
      </trkpt>
      <trkpt lat="48.54769" lon="7.51299">
        <ele>168.7</ele>
        <time>2019-08-08T09:14:07Z</time>
      </trkpt>
      <trkpt lat="48.54773" lon="7.51303">
        <ele>168.7</ele>
        <time>2019-08-08T09:14:08Z</time>
      </trkpt>
      <trkpt lat="48.54777" lon="7.51307">
        <ele>168.6</ele>
        <time>2019-08-08T09:14:09Z</time>
      </trkpt>
      <trkpt lat="48.5478" lon="7.51312">
        <ele>168.4</ele>
        <time>2019-08-08T09:14:10Z</time>
      </trkpt>
      <trkpt lat="48.54784" lon="7.51316">
        <ele>168.2</ele>
        <time>2019-08-08T09:14:11Z</time>
      </trkpt>
      <trkpt lat="48.54788" lon="7.5132">
        <ele>168.1</ele>
        <time>2019-08-08T09:14:12Z</time>
      </trkpt>
      <trkpt lat="48.54791" lon="7.51324">
        <ele>167.9</ele>
        <time>2019-08-08T09:14:13Z</time>
      </trkpt>
      <trkpt lat="48.54795" lon="7.51327">
        <ele>167.7</ele>
        <time>2019-08-08T09:14:14Z</time>
      </trkpt>
      <trkpt lat="48.54798" lon="7.51333">
        <ele>167.5</ele>
        <time>2019-08-08T09:14:15Z</time>
      </trkpt>
      <trkpt lat="48.54802" lon="7.51339">
        <ele>167.3</ele>
        <time>2019-08-08T09:14:16Z</time>
      </trkpt>
      <trkpt lat="48.54806" lon="7.51343">
        <ele>167.3</ele>
        <time>2019-08-08T09:14:17Z</time>
      </trkpt>
      <trkpt lat="48.5481" lon="7.51348">
        <ele>167.2</ele>
        <time>2019-08-08T09:14:18Z</time>
      </trkpt>
      <trkpt lat="48.54813" lon="7.51353">
        <ele>167.2</ele>
        <time>2019-08-08T09:14:19Z</time>
      </trkpt>
      <trkpt lat="48.54817" lon="7.51358">
        <ele>167.1</ele>
        <time>2019-08-08T09:14:20Z</time>
      </trkpt>
      <trkpt lat="48.54821" lon="7.51364">
        <ele>167.1</ele>
        <time>2019-08-08T09:14:21Z</time>
      </trkpt>
      <trkpt lat="48.54825" lon="7.51369">
        <ele>167</ele>
        <time>2019-08-08T09:14:22Z</time>
      </trkpt>
      <trkpt lat="48.5483" lon="7.51373">
        <ele>166.9</ele>
        <time>2019-08-08T09:14:23Z</time>
      </trkpt>
      <trkpt lat="48.54834" lon="7.51378">
        <ele>166.9</ele>
        <time>2019-08-08T09:14:24Z</time>
      </trkpt>
      <trkpt lat="48.54837" lon="7.51385">
        <ele>166.8</ele>
        <time>2019-08-08T09:14:25Z</time>
      </trkpt>
      <trkpt lat="48.54841" lon="7.51391">
        <ele>166.7</ele>
        <time>2019-08-08T09:14:26Z</time>
      </trkpt>
      <trkpt lat="48.54846" lon="7.51397">
        <ele>166.7</ele>
        <time>2019-08-08T09:14:27Z</time>
      </trkpt>
      <trkpt lat="48.54849" lon="7.51403">
        <ele>166.6</ele>
        <time>2019-08-08T09:14:28Z</time>
      </trkpt>
      <trkpt lat="48.54852" lon="7.51409">
        <ele>166.5</ele>
        <time>2019-08-08T09:14:29Z</time>
      </trkpt>
      <trkpt lat="48.54854" lon="7.51417">
        <ele>166.4</ele>
        <time>2019-08-08T09:14:30Z</time>
      </trkpt>
      <trkpt lat="48.54856" lon="7.51425">
        <ele>166.4</ele>
        <time>2019-08-08T09:14:31Z</time>
      </trkpt>
      <trkpt lat="48.54856" lon="7.51431">
        <ele>166.4</ele>
        <time>2019-08-08T09:14:32Z</time>
      </trkpt>
      <trkpt lat="48.54856" lon="7.51438">
        <ele>166.4</ele>
        <time>2019-08-08T09:14:33Z</time>
      </trkpt>
      <trkpt lat="48.54857" lon="7.51444">
        <ele>166.4</ele>
        <time>2019-08-08T09:14:34Z</time>
      </trkpt>
      <trkpt lat="48.54856" lon="7.51448">
        <ele>166.3</ele>
        <time>2019-08-08T09:14:35Z</time>
      </trkpt>
      <trkpt lat="48.54857" lon="7.51456">
        <ele>166.3</ele>
        <time>2019-08-08T09:14:37Z</time>
      </trkpt>
      <trkpt lat="48.5486" lon="7.5146">
        <ele>166.3</ele>
        <time>2019-08-08T09:14:39Z</time>
      </trkpt>
      <trkpt lat="48.54864" lon="7.51463">
        <ele>166.3</ele>
        <time>2019-08-08T09:14:41Z</time>
      </trkpt>
      <trkpt lat="48.54867" lon="7.51464">
        <ele>166.3</ele>
        <time>2019-08-08T09:14:42Z</time>
      </trkpt>
      <trkpt lat="48.5487" lon="7.51465">
        <ele>166.3</ele>
        <time>2019-08-08T09:14:43Z</time>
      </trkpt>
      <trkpt lat="48.54874" lon="7.51468">
        <ele>166.3</ele>
        <time>2019-08-08T09:14:45Z</time>
      </trkpt>
      <trkpt lat="48.54876" lon="7.51472">
        <ele>166.3</ele>
        <time>2019-08-08T09:14:46Z</time>
      </trkpt>
      <trkpt lat="48.54878" lon="7.51476">
        <ele>166.3</ele>
        <time>2019-08-08T09:14:47Z</time>
      </trkpt>
      <trkpt lat="48.5488" lon="7.51479">
        <ele>166.3</ele>
        <time>2019-08-08T09:14:48Z</time>
      </trkpt>
      <trkpt lat="48.54884" lon="7.51482">
        <ele>166.3</ele>
        <time>2019-08-08T09:14:49Z</time>
      </trkpt>
      <trkpt lat="48.54889" lon="7.51484">
        <ele>166.3</ele>
        <time>2019-08-08T09:14:50Z</time>
      </trkpt>
      <trkpt lat="48.54893" lon="7.51483">
        <ele>166.3</ele>
        <time>2019-08-08T09:14:51Z</time>
      </trkpt>
      <trkpt lat="48.54897" lon="7.51484">
        <ele>166.4</ele>
        <time>2019-08-08T09:14:52Z</time>
      </trkpt>
      <trkpt lat="48.54901" lon="7.51486">
        <ele>166.4</ele>
        <time>2019-08-08T09:14:53Z</time>
      </trkpt>
      <trkpt lat="48.54905" lon="7.51487">
        <ele>166.4</ele>
        <time>2019-08-08T09:14:54Z</time>
      </trkpt>
      <trkpt lat="48.54909" lon="7.51491">
        <ele>166.5</ele>
        <time>2019-08-08T09:14:55Z</time>
      </trkpt>
      <trkpt lat="48.54914" lon="7.51497">
        <ele>166.5</ele>
        <time>2019-08-08T09:14:56Z</time>
      </trkpt>
      <trkpt lat="48.54919" lon="7.51501">
        <ele>166.6</ele>
        <time>2019-08-08T09:14:57Z</time>
      </trkpt>
      <trkpt lat="48.54924" lon="7.51507">
        <ele>166.7</ele>
        <time>2019-08-08T09:14:58Z</time>
      </trkpt>
      <trkpt lat="48.54928" lon="7.51512">
        <ele>166.7</ele>
        <time>2019-08-08T09:14:59Z</time>
      </trkpt>
      <trkpt lat="48.54933" lon="7.51517">
        <ele>166.8</ele>
        <time>2019-08-08T09:15:00Z</time>
      </trkpt>
      <trkpt lat="48.54938" lon="7.51523">
        <ele>166.9</ele>
        <time>2019-08-08T09:15:01Z</time>
      </trkpt>
      <trkpt lat="48.54942" lon="7.51529">
        <ele>167.1</ele>
        <time>2019-08-08T09:15:02Z</time>
      </trkpt>
      <trkpt lat="48.54945" lon="7.51536">
        <ele>167.2</ele>
        <time>2019-08-08T09:15:03Z</time>
      </trkpt>
      <trkpt lat="48.54949" lon="7.51542">
        <ele>167.3</ele>
        <time>2019-08-08T09:15:04Z</time>
      </trkpt>
      <trkpt lat="48.54953" lon="7.51549">
        <ele>167.4</ele>
        <time>2019-08-08T09:15:05Z</time>
      </trkpt>
      <trkpt lat="48.54957" lon="7.51555">
        <ele>167.6</ele>
        <time>2019-08-08T09:15:06Z</time>
      </trkpt>
      <trkpt lat="48.54961" lon="7.51561">
        <ele>167.6</ele>
        <time>2019-08-08T09:15:07Z</time>
      </trkpt>
      <trkpt lat="48.54965" lon="7.51569">
        <ele>167.6</ele>
        <time>2019-08-08T09:15:08Z</time>
      </trkpt>
      <trkpt lat="48.54969" lon="7.51576">
        <ele>167.7</ele>
        <time>2019-08-08T09:15:09Z</time>
      </trkpt>
      <trkpt lat="48.54973" lon="7.51582">
        <ele>167.6</ele>
        <time>2019-08-08T09:15:10Z</time>
      </trkpt>
      <trkpt lat="48.54977" lon="7.51589">
        <ele>167.6</ele>
        <time>2019-08-08T09:15:11Z</time>
      </trkpt>
      <trkpt lat="48.54981" lon="7.51596">
        <ele>167.5</ele>
        <time>2019-08-08T09:15:12Z</time>
      </trkpt>
      <trkpt lat="48.54984" lon="7.51601">
        <ele>167.5</ele>
        <time>2019-08-08T09:15:13Z</time>
      </trkpt>
      <trkpt lat="48.54987" lon="7.51607">
        <ele>167.3</ele>
        <time>2019-08-08T09:15:14Z</time>
      </trkpt>
      <trkpt lat="48.54991" lon="7.51613">
        <ele>167.2</ele>
        <time>2019-08-08T09:15:15Z</time>
      </trkpt>
      <trkpt lat="48.54994" lon="7.51619">
        <ele>167.1</ele>
        <time>2019-08-08T09:15:16Z</time>
      </trkpt>
      <trkpt lat="48.54998" lon="7.51624">
        <ele>167</ele>
        <time>2019-08-08T09:15:17Z</time>
      </trkpt>
      <trkpt lat="48.55" lon="7.51631">
        <ele>166.9</ele>
        <time>2019-08-08T09:15:18Z</time>
      </trkpt>
      <trkpt lat="48.55004" lon="7.51637">
        <ele>166.8</ele>
        <time>2019-08-08T09:15:19Z</time>
      </trkpt>
      <trkpt lat="48.55007" lon="7.51644">
        <ele>166.7</ele>
        <time>2019-08-08T09:15:20Z</time>
      </trkpt>
      <trkpt lat="48.5501" lon="7.51649">
        <ele>166.6</ele>
        <time>2019-08-08T09:15:21Z</time>
      </trkpt>
      <trkpt lat="48.55013" lon="7.51655">
        <ele>166.5</ele>
        <time>2019-08-08T09:15:22Z</time>
      </trkpt>
      <trkpt lat="48.55017" lon="7.51661">
        <ele>166.5</ele>
        <time>2019-08-08T09:15:23Z</time>
      </trkpt>
      <trkpt lat="48.5502" lon="7.51666">
        <ele>166.4</ele>
        <time>2019-08-08T09:15:24Z</time>
      </trkpt>
      <trkpt lat="48.55023" lon="7.51672">
        <ele>166.4</ele>
        <time>2019-08-08T09:15:25Z</time>
      </trkpt>
      <trkpt lat="48.55025" lon="7.51678">
        <ele>166.3</ele>
        <time>2019-08-08T09:15:26Z</time>
      </trkpt>
      <trkpt lat="48.55027" lon="7.51683">
        <ele>166.3</ele>
        <time>2019-08-08T09:15:27Z</time>
      </trkpt>
      <trkpt lat="48.55029" lon="7.51688">
        <ele>166.3</ele>
        <time>2019-08-08T09:15:28Z</time>
      </trkpt>
      <trkpt lat="48.55032" lon="7.51693">
        <ele>166.3</ele>
        <time>2019-08-08T09:15:29Z</time>
      </trkpt>
      <trkpt lat="48.55035" lon="7.51699">
        <ele>166.3</ele>
        <time>2019-08-08T09:15:30Z</time>
      </trkpt>
      <trkpt lat="48.55037" lon="7.51704">
        <ele>166.3</ele>
        <time>2019-08-08T09:15:31Z</time>
      </trkpt>
      <trkpt lat="48.5504" lon="7.51711">
        <ele>166.4</ele>
        <time>2019-08-08T09:15:32Z</time>
      </trkpt>
      <trkpt lat="48.55042" lon="7.51717">
        <ele>166.4</ele>
        <time>2019-08-08T09:15:33Z</time>
      </trkpt>
      <trkpt lat="48.55045" lon="7.51723">
        <ele>166.5</ele>
        <time>2019-08-08T09:15:34Z</time>
      </trkpt>
      <trkpt lat="48.55047" lon="7.5173">
        <ele>166.6</ele>
        <time>2019-08-08T09:15:35Z</time>
      </trkpt>
      <trkpt lat="48.5505" lon="7.51736">
        <ele>166.7</ele>
        <time>2019-08-08T09:15:36Z</time>
      </trkpt>
      <trkpt lat="48.55053" lon="7.51742">
        <ele>166.7</ele>
        <time>2019-08-08T09:15:37Z</time>
      </trkpt>
      <trkpt lat="48.55055" lon="7.51748">
        <ele>166.8</ele>
        <time>2019-08-08T09:15:38Z</time>
      </trkpt>
      <trkpt lat="48.55058" lon="7.51754">
        <ele>166.9</ele>
        <time>2019-08-08T09:15:39Z</time>
      </trkpt>
      <trkpt lat="48.55061" lon="7.5176">
        <ele>167</ele>
        <time>2019-08-08T09:15:40Z</time>
      </trkpt>
      <trkpt lat="48.55063" lon="7.51766">
        <ele>167.1</ele>
        <time>2019-08-08T09:15:41Z</time>
      </trkpt>
      <trkpt lat="48.55066" lon="7.51772">
        <ele>167.1</ele>
        <time>2019-08-08T09:15:42Z</time>
      </trkpt>
      <trkpt lat="48.55069" lon="7.51777">
        <ele>167.2</ele>
        <time>2019-08-08T09:15:43Z</time>
      </trkpt>
      <trkpt lat="48.55072" lon="7.51782">
        <ele>167.2</ele>
        <time>2019-08-08T09:15:44Z</time>
      </trkpt>
      <trkpt lat="48.55075" lon="7.51788">
        <ele>167.3</ele>
        <time>2019-08-08T09:15:45Z</time>
      </trkpt>
      <trkpt lat="48.55077" lon="7.51794">
        <ele>167.3</ele>
        <time>2019-08-08T09:15:46Z</time>
      </trkpt>
      <trkpt lat="48.5508" lon="7.51801">
        <ele>167.3</ele>
        <time>2019-08-08T09:15:47Z</time>
      </trkpt>
      <trkpt lat="48.55082" lon="7.51807">
        <ele>167.3</ele>
        <time>2019-08-08T09:15:48Z</time>
      </trkpt>
      <trkpt lat="48.55085" lon="7.51814">
        <ele>167.2</ele>
        <time>2019-08-08T09:15:49Z</time>
      </trkpt>
      <trkpt lat="48.55087" lon="7.5182">
        <ele>167.2</ele>
        <time>2019-08-08T09:15:50Z</time>
      </trkpt>
      <trkpt lat="48.5509" lon="7.51828">
        <ele>167.1</ele>
        <time>2019-08-08T09:15:51Z</time>
      </trkpt>
      <trkpt lat="48.55092" lon="7.51836">
        <ele>167</ele>
        <time>2019-08-08T09:15:52Z</time>
      </trkpt>
      <trkpt lat="48.55094" lon="7.51844">
        <ele>166.9</ele>
        <time>2019-08-08T09:15:53Z</time>
      </trkpt>
      <trkpt lat="48.55096" lon="7.51852">
        <ele>166.8</ele>
        <time>2019-08-08T09:15:54Z</time>
      </trkpt>
      <trkpt lat="48.55098" lon="7.51859">
        <ele>166.7</ele>
        <time>2019-08-08T09:15:55Z</time>
      </trkpt>
      <trkpt lat="48.551" lon="7.51867">
        <ele>166.7</ele>
        <time>2019-08-08T09:15:56Z</time>
      </trkpt>
      <trkpt lat="48.55102" lon="7.51873">
        <ele>166.6</ele>
        <time>2019-08-08T09:15:57Z</time>
      </trkpt>
      <trkpt lat="48.55104" lon="7.51879">
        <ele>166.5</ele>
        <time>2019-08-08T09:15:58Z</time>
      </trkpt>
      <trkpt lat="48.55106" lon="7.51886">
        <ele>166.5</ele>
        <time>2019-08-08T09:15:59Z</time>
      </trkpt>
      <trkpt lat="48.55108" lon="7.51892">
        <ele>166.4</ele>
        <time>2019-08-08T09:16:00Z</time>
      </trkpt>
      <trkpt lat="48.5511" lon="7.51898">
        <ele>166.4</ele>
        <time>2019-08-08T09:16:01Z</time>
      </trkpt>
      <trkpt lat="48.55112" lon="7.51904">
        <ele>166.4</ele>
        <time>2019-08-08T09:16:02Z</time>
      </trkpt>
      <trkpt lat="48.55113" lon="7.51911">
        <ele>166.3</ele>
        <time>2019-08-08T09:16:03Z</time>
      </trkpt>
      <trkpt lat="48.55116" lon="7.51917">
        <ele>166.3</ele>
        <time>2019-08-08T09:16:04Z</time>
      </trkpt>
      <trkpt lat="48.55117" lon="7.51925">
        <ele>166.3</ele>
        <time>2019-08-08T09:16:05Z</time>
      </trkpt>
      <trkpt lat="48.55119" lon="7.51932">
        <ele>166.3</ele>
        <time>2019-08-08T09:16:06Z</time>
      </trkpt>
      <trkpt lat="48.55121" lon="7.51938">
        <ele>166.2</ele>
        <time>2019-08-08T09:16:07Z</time>
      </trkpt>
      <trkpt lat="48.55123" lon="7.51944">
        <ele>166.2</ele>
        <time>2019-08-08T09:16:08Z</time>
      </trkpt>
      <trkpt lat="48.55125" lon="7.51951">
        <ele>166.2</ele>
        <time>2019-08-08T09:16:09Z</time>
      </trkpt>
      <trkpt lat="48.55127" lon="7.51957">
        <ele>166.2</ele>
        <time>2019-08-08T09:16:10Z</time>
      </trkpt>
      <trkpt lat="48.55129" lon="7.51963">
        <ele>166.2</ele>
        <time>2019-08-08T09:16:11Z</time>
      </trkpt>
      <trkpt lat="48.55131" lon="7.5197">
        <ele>166.2</ele>
        <time>2019-08-08T09:16:12Z</time>
      </trkpt>
      <trkpt lat="48.55132" lon="7.51977">
        <ele>166.2</ele>
        <time>2019-08-08T09:16:13Z</time>
      </trkpt>
      <trkpt lat="48.55134" lon="7.51985">
        <ele>166.2</ele>
        <time>2019-08-08T09:16:14Z</time>
      </trkpt>
      <trkpt lat="48.55136" lon="7.51992">
        <ele>166.1</ele>
        <time>2019-08-08T09:16:15Z</time>
      </trkpt>
      <trkpt lat="48.55138" lon="7.51999">
        <ele>166.1</ele>
        <time>2019-08-08T09:16:16Z</time>
      </trkpt>
      <trkpt lat="48.5514" lon="7.52006">
        <ele>166.1</ele>
        <time>2019-08-08T09:16:17Z</time>
      </trkpt>
      <trkpt lat="48.55142" lon="7.52012">
        <ele>166.1</ele>
        <time>2019-08-08T09:16:18Z</time>
      </trkpt>
      <trkpt lat="48.55143" lon="7.52019">
        <ele>166</ele>
        <time>2019-08-08T09:16:19Z</time>
      </trkpt>
      <trkpt lat="48.55146" lon="7.52024">
        <ele>166</ele>
        <time>2019-08-08T09:16:20Z</time>
      </trkpt>
      <trkpt lat="48.55148" lon="7.5203">
        <ele>166</ele>
        <time>2019-08-08T09:16:21Z</time>
      </trkpt>
      <trkpt lat="48.55151" lon="7.52036">
        <ele>165.9</ele>
        <time>2019-08-08T09:16:22Z</time>
      </trkpt>
      <trkpt lat="48.55152" lon="7.52043">
        <ele>165.9</ele>
        <time>2019-08-08T09:16:23Z</time>
      </trkpt>
      <trkpt lat="48.55155" lon="7.5205">
        <ele>165.8</ele>
        <time>2019-08-08T09:16:24Z</time>
      </trkpt>
      <trkpt lat="48.55157" lon="7.52058">
        <ele>165.8</ele>
        <time>2019-08-08T09:16:25Z</time>
      </trkpt>
      <trkpt lat="48.55159" lon="7.52066">
        <ele>165.7</ele>
        <time>2019-08-08T09:16:26Z</time>
      </trkpt>
      <trkpt lat="48.55161" lon="7.52073">
        <ele>165.7</ele>
        <time>2019-08-08T09:16:27Z</time>
      </trkpt>
      <trkpt lat="48.55163" lon="7.5208">
        <ele>165.6</ele>
        <time>2019-08-08T09:16:28Z</time>
      </trkpt>
      <trkpt lat="48.55165" lon="7.52087">
        <ele>165.5</ele>
        <time>2019-08-08T09:16:29Z</time>
      </trkpt>
      <trkpt lat="48.55167" lon="7.52094">
        <ele>165.5</ele>
        <time>2019-08-08T09:16:30Z</time>
      </trkpt>
      <trkpt lat="48.55169" lon="7.52101">
        <ele>165.4</ele>
        <time>2019-08-08T09:16:31Z</time>
      </trkpt>
      <trkpt lat="48.55171" lon="7.52109">
        <ele>165.4</ele>
        <time>2019-08-08T09:16:32Z</time>
      </trkpt>
      <trkpt lat="48.55172" lon="7.52115">
        <ele>165.3</ele>
        <time>2019-08-08T09:16:33Z</time>
      </trkpt>
      <trkpt lat="48.55174" lon="7.52122">
        <ele>165.3</ele>
        <time>2019-08-08T09:16:34Z</time>
      </trkpt>
      <trkpt lat="48.55176" lon="7.52129">
        <ele>165.3</ele>
        <time>2019-08-08T09:16:35Z</time>
      </trkpt>
      <trkpt lat="48.55179" lon="7.52136">
        <ele>165.2</ele>
        <time>2019-08-08T09:16:36Z</time>
      </trkpt>
      <trkpt lat="48.55181" lon="7.52144">
        <ele>165.2</ele>
        <time>2019-08-08T09:16:37Z</time>
      </trkpt>
      <trkpt lat="48.55184" lon="7.52151">
        <ele>165.2</ele>
        <time>2019-08-08T09:16:38Z</time>
      </trkpt>
      <trkpt lat="48.55186" lon="7.52158">
        <ele>165.2</ele>
        <time>2019-08-08T09:16:39Z</time>
      </trkpt>
      <trkpt lat="48.55188" lon="7.52164">
        <ele>165.2</ele>
        <time>2019-08-08T09:16:40Z</time>
      </trkpt>
      <trkpt lat="48.5519" lon="7.5217">
        <ele>165.2</ele>
        <time>2019-08-08T09:16:41Z</time>
      </trkpt>
      <trkpt lat="48.55192" lon="7.52177">
        <ele>165.2</ele>
        <time>2019-08-08T09:16:42Z</time>
      </trkpt>
      <trkpt lat="48.55194" lon="7.52183">
        <ele>165.2</ele>
        <time>2019-08-08T09:16:43Z</time>
      </trkpt>
      <trkpt lat="48.55196" lon="7.52189">
        <ele>165.2</ele>
        <time>2019-08-08T09:16:44Z</time>
      </trkpt>
      <trkpt lat="48.55198" lon="7.52195">
        <ele>165.2</ele>
        <time>2019-08-08T09:16:45Z</time>
      </trkpt>
      <trkpt lat="48.552" lon="7.52202">
        <ele>165.2</ele>
        <time>2019-08-08T09:16:46Z</time>
      </trkpt>
      <trkpt lat="48.55202" lon="7.52208">
        <ele>165.2</ele>
        <time>2019-08-08T09:16:47Z</time>
      </trkpt>
      <trkpt lat="48.55205" lon="7.52215">
        <ele>165.2</ele>
        <time>2019-08-08T09:16:48Z</time>
      </trkpt>
      <trkpt lat="48.55207" lon="7.52223">
        <ele>165.2</ele>
        <time>2019-08-08T09:16:49Z</time>
      </trkpt>
      <trkpt lat="48.55209" lon="7.5223">
        <ele>165.1</ele>
        <time>2019-08-08T09:16:50Z</time>
      </trkpt>
      <trkpt lat="48.55211" lon="7.52236">
        <ele>165.1</ele>
        <time>2019-08-08T09:16:51Z</time>
      </trkpt>
      <trkpt lat="48.55213" lon="7.52243">
        <ele>165.1</ele>
        <time>2019-08-08T09:16:52Z</time>
      </trkpt>
      <trkpt lat="48.55215" lon="7.5225">
        <ele>165.1</ele>
        <time>2019-08-08T09:16:53Z</time>
      </trkpt>
      <trkpt lat="48.55218" lon="7.52257">
        <ele>165.1</ele>
        <time>2019-08-08T09:16:54Z</time>
      </trkpt>
      <trkpt lat="48.55221" lon="7.52263">
        <ele>165.1</ele>
        <time>2019-08-08T09:16:55Z</time>
      </trkpt>
      <trkpt lat="48.55224" lon="7.52268">
        <ele>165.1</ele>
        <time>2019-08-08T09:16:56Z</time>
      </trkpt>
      <trkpt lat="48.55226" lon="7.52274">
        <ele>165</ele>
        <time>2019-08-08T09:16:57Z</time>
      </trkpt>
      <trkpt lat="48.55228" lon="7.52281">
        <ele>165</ele>
        <time>2019-08-08T09:16:58Z</time>
      </trkpt>
      <trkpt lat="48.55231" lon="7.52287">
        <ele>165</ele>
        <time>2019-08-08T09:16:59Z</time>
      </trkpt>
      <trkpt lat="48.55234" lon="7.52294">
        <ele>165</ele>
        <time>2019-08-08T09:17:00Z</time>
      </trkpt>
      <trkpt lat="48.55237" lon="7.52299">
        <ele>164.9</ele>
        <time>2019-08-08T09:17:01Z</time>
      </trkpt>
      <trkpt lat="48.5524" lon="7.52305">
        <ele>164.9</ele>
        <time>2019-08-08T09:17:02Z</time>
      </trkpt>
      <trkpt lat="48.55243" lon="7.52312">
        <ele>164.9</ele>
        <time>2019-08-08T09:17:03Z</time>
      </trkpt>
      <trkpt lat="48.55247" lon="7.52319">
        <ele>164.9</ele>
        <time>2019-08-08T09:17:04Z</time>
      </trkpt>
      <trkpt lat="48.55251" lon="7.52324">
        <ele>164.9</ele>
        <time>2019-08-08T09:17:05Z</time>
      </trkpt>
      <trkpt lat="48.55254" lon="7.5233">
        <ele>164.8</ele>
        <time>2019-08-08T09:17:06Z</time>
      </trkpt>
      <trkpt lat="48.55258" lon="7.52334">
        <ele>164.8</ele>
        <time>2019-08-08T09:17:07Z</time>
      </trkpt>
      <trkpt lat="48.55262" lon="7.5234">
        <ele>164.8</ele>
        <time>2019-08-08T09:17:08Z</time>
      </trkpt>
      <trkpt lat="48.55265" lon="7.52345">
        <ele>164.8</ele>
        <time>2019-08-08T09:17:09Z</time>
      </trkpt>
      <trkpt lat="48.55269" lon="7.5235">
        <ele>164.7</ele>
        <time>2019-08-08T09:17:10Z</time>
      </trkpt>
      <trkpt lat="48.55273" lon="7.52355">
        <ele>164.7</ele>
        <time>2019-08-08T09:17:11Z</time>
      </trkpt>
      <trkpt lat="48.55277" lon="7.52361">
        <ele>164.7</ele>
        <time>2019-08-08T09:17:12Z</time>
      </trkpt>
      <trkpt lat="48.5528" lon="7.52365">
        <ele>164.7</ele>
        <time>2019-08-08T09:17:13Z</time>
      </trkpt>
      <trkpt lat="48.55284" lon="7.5237">
        <ele>164.7</ele>
        <time>2019-08-08T09:17:14Z</time>
      </trkpt>
      <trkpt lat="48.55288" lon="7.52375">
        <ele>164.6</ele>
        <time>2019-08-08T09:17:15Z</time>
      </trkpt>
      <trkpt lat="48.55291" lon="7.5238">
        <ele>164.6</ele>
        <time>2019-08-08T09:17:16Z</time>
      </trkpt>
      <trkpt lat="48.55295" lon="7.52385">
        <ele>164.6</ele>
        <time>2019-08-08T09:17:17Z</time>
      </trkpt>
      <trkpt lat="48.55299" lon="7.5239">
        <ele>164.6</ele>
        <time>2019-08-08T09:17:18Z</time>
      </trkpt>
      <trkpt lat="48.55303" lon="7.52395">
        <ele>164.6</ele>
        <time>2019-08-08T09:17:19Z</time>
      </trkpt>
      <trkpt lat="48.55307" lon="7.52401">
        <ele>164.6</ele>
        <time>2019-08-08T09:17:20Z</time>
      </trkpt>
      <trkpt lat="48.55311" lon="7.52406">
        <ele>164.5</ele>
        <time>2019-08-08T09:17:21Z</time>
      </trkpt>
      <trkpt lat="48.55315" lon="7.52411">
        <ele>164.5</ele>
        <time>2019-08-08T09:17:22Z</time>
      </trkpt>
      <trkpt lat="48.55319" lon="7.52415">
        <ele>164.5</ele>
        <time>2019-08-08T09:17:23Z</time>
      </trkpt>
      <trkpt lat="48.55323" lon="7.52419">
        <ele>164.5</ele>
        <time>2019-08-08T09:17:24Z</time>
      </trkpt>
      <trkpt lat="48.55327" lon="7.52424">
        <ele>164.5</ele>
        <time>2019-08-08T09:17:25Z</time>
      </trkpt>
      <trkpt lat="48.5533" lon="7.52429">
        <ele>164.5</ele>
        <time>2019-08-08T09:17:26Z</time>
      </trkpt>
      <trkpt lat="48.55335" lon="7.52434">
        <ele>164.5</ele>
        <time>2019-08-08T09:17:27Z</time>
      </trkpt>
      <trkpt lat="48.55339" lon="7.52439">
        <ele>164.5</ele>
        <time>2019-08-08T09:17:28Z</time>
      </trkpt>
      <trkpt lat="48.55344" lon="7.52444">
        <ele>164.4</ele>
        <time>2019-08-08T09:17:29Z</time>
      </trkpt>
      <trkpt lat="48.55348" lon="7.52451">
        <ele>164.4</ele>
        <time>2019-08-08T09:17:30Z</time>
      </trkpt>
      <trkpt lat="48.55353" lon="7.52457">
        <ele>164.4</ele>
        <time>2019-08-08T09:17:31Z</time>
      </trkpt>
      <trkpt lat="48.55357" lon="7.52462">
        <ele>164.4</ele>
        <time>2019-08-08T09:17:32Z</time>
      </trkpt>
      <trkpt lat="48.55361" lon="7.52469">
        <ele>164.4</ele>
        <time>2019-08-08T09:17:33Z</time>
      </trkpt>
      <trkpt lat="48.55365" lon="7.52475">
        <ele>164.4</ele>
        <time>2019-08-08T09:17:34Z</time>
      </trkpt>
      <trkpt lat="48.55369" lon="7.5248">
        <ele>164.3</ele>
        <time>2019-08-08T09:17:35Z</time>
      </trkpt>
      <trkpt lat="48.55373" lon="7.52486">
        <ele>164.3</ele>
        <time>2019-08-08T09:17:36Z</time>
      </trkpt>
      <trkpt lat="48.55377" lon="7.5249">
        <ele>164.3</ele>
        <time>2019-08-08T09:17:37Z</time>
      </trkpt>
      <trkpt lat="48.5538" lon="7.52493">
        <ele>164.3</ele>
        <time>2019-08-08T09:17:38Z</time>
      </trkpt>
      <trkpt lat="48.55384" lon="7.52498">
        <ele>164.2</ele>
        <time>2019-08-08T09:17:39Z</time>
      </trkpt>
      <trkpt lat="48.55388" lon="7.52502">
        <ele>164.2</ele>
        <time>2019-08-08T09:17:40Z</time>
      </trkpt>
      <trkpt lat="48.55392" lon="7.52507">
        <ele>164.2</ele>
        <time>2019-08-08T09:17:41Z</time>
      </trkpt>
      <trkpt lat="48.55397" lon="7.52513">
        <ele>164.1</ele>
        <time>2019-08-08T09:17:42Z</time>
      </trkpt>
      <trkpt lat="48.55401" lon="7.52519">
        <ele>164.1</ele>
        <time>2019-08-08T09:17:43Z</time>
      </trkpt>
      <trkpt lat="48.55406" lon="7.52525">
        <ele>164</ele>
        <time>2019-08-08T09:17:44Z</time>
      </trkpt>
      <trkpt lat="48.55411" lon="7.52531">
        <ele>164</ele>
        <time>2019-08-08T09:17:45Z</time>
      </trkpt>
      <trkpt lat="48.55414" lon="7.52536">
        <ele>164</ele>
        <time>2019-08-08T09:17:46Z</time>
      </trkpt>
      <trkpt lat="48.55418" lon="7.5254">
        <ele>164</ele>
        <time>2019-08-08T09:17:47Z</time>
      </trkpt>
      <trkpt lat="48.55421" lon="7.52545">
        <ele>163.9</ele>
        <time>2019-08-08T09:17:48Z</time>
      </trkpt>
      <trkpt lat="48.55424" lon="7.52549">
        <ele>163.9</ele>
        <time>2019-08-08T09:17:49Z</time>
      </trkpt>
      <trkpt lat="48.55428" lon="7.52553">
        <ele>163.9</ele>
        <time>2019-08-08T09:17:50Z</time>
      </trkpt>
      <trkpt lat="48.55432" lon="7.52558">
        <ele>163.9</ele>
        <time>2019-08-08T09:17:51Z</time>
      </trkpt>
      <trkpt lat="48.55437" lon="7.52563">
        <ele>163.9</ele>
        <time>2019-08-08T09:17:52Z</time>
      </trkpt>
      <trkpt lat="48.55441" lon="7.52567">
        <ele>164</ele>
        <time>2019-08-08T09:17:53Z</time>
      </trkpt>
      <trkpt lat="48.55445" lon="7.52572">
        <ele>164</ele>
        <time>2019-08-08T09:17:54Z</time>
      </trkpt>
      <trkpt lat="48.55449" lon="7.52576">
        <ele>164</ele>
        <time>2019-08-08T09:17:55Z</time>
      </trkpt>
      <trkpt lat="48.55453" lon="7.52582">
        <ele>164</ele>
        <time>2019-08-08T09:17:56Z</time>
      </trkpt>
      <trkpt lat="48.55458" lon="7.52586">
        <ele>164.1</ele>
        <time>2019-08-08T09:17:57Z</time>
      </trkpt>
      <trkpt lat="48.55462" lon="7.52591">
        <ele>164.1</ele>
        <time>2019-08-08T09:17:58Z</time>
      </trkpt>
      <trkpt lat="48.55466" lon="7.52597">
        <ele>164.1</ele>
        <time>2019-08-08T09:17:59Z</time>
      </trkpt>
      <trkpt lat="48.55471" lon="7.52602">
        <ele>164.2</ele>
        <time>2019-08-08T09:18:00Z</time>
      </trkpt>
      <trkpt lat="48.55474" lon="7.52605">
        <ele>164.2</ele>
        <time>2019-08-08T09:18:01Z</time>
      </trkpt>
      <trkpt lat="48.55478" lon="7.5261">
        <ele>164.2</ele>
        <time>2019-08-08T09:18:02Z</time>
      </trkpt>
      <trkpt lat="48.55482" lon="7.52615">
        <ele>164.2</ele>
        <time>2019-08-08T09:18:03Z</time>
      </trkpt>
      <trkpt lat="48.55485" lon="7.5262">
        <ele>164.2</ele>
        <time>2019-08-08T09:18:04Z</time>
      </trkpt>
      <trkpt lat="48.55489" lon="7.52625">
        <ele>164.2</ele>
        <time>2019-08-08T09:18:05Z</time>
      </trkpt>
      <trkpt lat="48.55493" lon="7.52629">
        <ele>164.2</ele>
        <time>2019-08-08T09:18:06Z</time>
      </trkpt>
      <trkpt lat="48.55496" lon="7.52637">
        <ele>164.2</ele>
        <time>2019-08-08T09:18:07Z</time>
      </trkpt>
      <trkpt lat="48.555" lon="7.52643">
        <ele>164.2</ele>
        <time>2019-08-08T09:18:08Z</time>
      </trkpt>
      <trkpt lat="48.55504" lon="7.52649">
        <ele>164.2</ele>
        <time>2019-08-08T09:18:09Z</time>
      </trkpt>
      <trkpt lat="48.55508" lon="7.52655">
        <ele>164.2</ele>
        <time>2019-08-08T09:18:10Z</time>
      </trkpt>
      <trkpt lat="48.55513" lon="7.52661">
        <ele>164.2</ele>
        <time>2019-08-08T09:18:11Z</time>
      </trkpt>
      <trkpt lat="48.55517" lon="7.52666">
        <ele>164.2</ele>
        <time>2019-08-08T09:18:12Z</time>
      </trkpt>
      <trkpt lat="48.55521" lon="7.52671">
        <ele>164.2</ele>
        <time>2019-08-08T09:18:13Z</time>
      </trkpt>
      <trkpt lat="48.55526" lon="7.52676">
        <ele>164.2</ele>
        <time>2019-08-08T09:18:14Z</time>
      </trkpt>
      <trkpt lat="48.5553" lon="7.5268">
        <ele>164.2</ele>
        <time>2019-08-08T09:18:15Z</time>
      </trkpt>
      <trkpt lat="48.55534" lon="7.52683">
        <ele>164.2</ele>
        <time>2019-08-08T09:18:16Z</time>
      </trkpt>
      <trkpt lat="48.55539" lon="7.52686">
        <ele>164.3</ele>
        <time>2019-08-08T09:18:17Z</time>
      </trkpt>
      <trkpt lat="48.55542" lon="7.52692">
        <ele>164.3</ele>
        <time>2019-08-08T09:18:18Z</time>
      </trkpt>
      <trkpt lat="48.55546" lon="7.52696">
        <ele>164.3</ele>
        <time>2019-08-08T09:18:19Z</time>
      </trkpt>
      <trkpt lat="48.55549" lon="7.527">
        <ele>164.3</ele>
        <time>2019-08-08T09:18:20Z</time>
      </trkpt>
      <trkpt lat="48.55553" lon="7.52705">
        <ele>164.3</ele>
        <time>2019-08-08T09:18:21Z</time>
      </trkpt>
      <trkpt lat="48.55556" lon="7.52712">
        <ele>164.3</ele>
        <time>2019-08-08T09:18:22Z</time>
      </trkpt>
      <trkpt lat="48.55559" lon="7.52719">
        <ele>164.3</ele>
        <time>2019-08-08T09:18:23Z</time>
      </trkpt>
      <trkpt lat="48.55563" lon="7.52726">
        <ele>164.3</ele>
        <time>2019-08-08T09:18:24Z</time>
      </trkpt>
      <trkpt lat="48.55567" lon="7.52732">
        <ele>164.3</ele>
        <time>2019-08-08T09:18:25Z</time>
      </trkpt>
      <trkpt lat="48.5557" lon="7.52739">
        <ele>164.3</ele>
        <time>2019-08-08T09:18:26Z</time>
      </trkpt>
      <trkpt lat="48.55573" lon="7.52745">
        <ele>164.3</ele>
        <time>2019-08-08T09:18:27Z</time>
      </trkpt>
      <trkpt lat="48.55577" lon="7.52751">
        <ele>164.3</ele>
        <time>2019-08-08T09:18:28Z</time>
      </trkpt>
      <trkpt lat="48.55581" lon="7.52756">
        <ele>164.3</ele>
        <time>2019-08-08T09:18:29Z</time>
      </trkpt>
      <trkpt lat="48.55585" lon="7.52759">
        <ele>164.3</ele>
        <time>2019-08-08T09:18:30Z</time>
      </trkpt>
      <trkpt lat="48.55587" lon="7.52763">
        <ele>164.1</ele>
        <time>2019-08-08T09:18:31Z</time>
      </trkpt>
      <trkpt lat="48.55591" lon="7.52766">
        <ele>164</ele>
        <time>2019-08-08T09:18:32Z</time>
      </trkpt>
      <trkpt lat="48.55594" lon="7.5277">
        <ele>164</ele>
        <time>2019-08-08T09:18:33Z</time>
      </trkpt>
      <trkpt lat="48.55596" lon="7.52773">
        <ele>163.9</ele>
        <time>2019-08-08T09:18:34Z</time>
      </trkpt>
      <trkpt lat="48.55597" lon="7.52777">
        <ele>163.8</ele>
        <time>2019-08-08T09:18:35Z</time>
      </trkpt>
      <trkpt lat="48.55601" lon="7.52781">
        <ele>163.7</ele>
        <time>2019-08-08T09:18:37Z</time>
      </trkpt>
      <trkpt lat="48.55605" lon="7.52781">
        <ele>163.6</ele>
        <time>2019-08-08T09:18:39Z</time>
      </trkpt>
      <trkpt lat="48.55609" lon="7.52782">
        <ele>163.3</ele>
        <time>2019-08-08T09:18:42Z</time>
      </trkpt>
      <trkpt lat="48.55615" lon="7.52787">
        <ele>163.4</ele>
        <time>2019-08-08T09:18:44Z</time>
      </trkpt>
      <trkpt lat="48.55618" lon="7.52791">
        <ele>163.4</ele>
        <time>2019-08-08T09:18:45Z</time>
      </trkpt>
      <trkpt lat="48.55621" lon="7.52795">
        <ele>163.5</ele>
        <time>2019-08-08T09:18:46Z</time>
      </trkpt>
      <trkpt lat="48.55623" lon="7.52799">
        <ele>163.5</ele>
        <time>2019-08-08T09:18:47Z</time>
      </trkpt>
      <trkpt lat="48.55626" lon="7.52802">
        <ele>163.5</ele>
        <time>2019-08-08T09:18:48Z</time>
      </trkpt>
      <trkpt lat="48.5563" lon="7.52807">
        <ele>163.6</ele>
        <time>2019-08-08T09:18:49Z</time>
      </trkpt>
      <trkpt lat="48.55634" lon="7.5281">
        <ele>163.6</ele>
        <time>2019-08-08T09:18:50Z</time>
      </trkpt>
      <trkpt lat="48.55637" lon="7.52813">
        <ele>163.7</ele>
        <time>2019-08-08T09:18:51Z</time>
      </trkpt>
      <trkpt lat="48.55641" lon="7.52816">
        <ele>163.7</ele>
        <time>2019-08-08T09:18:52Z</time>
      </trkpt>
      <trkpt lat="48.55645" lon="7.52819">
        <ele>163.7</ele>
        <time>2019-08-08T09:18:53Z</time>
      </trkpt>
      <trkpt lat="48.5565" lon="7.52821">
        <ele>163.8</ele>
        <time>2019-08-08T09:18:54Z</time>
      </trkpt>
      <trkpt lat="48.55654" lon="7.52823">
        <ele>163.8</ele>
        <time>2019-08-08T09:18:55Z</time>
      </trkpt>
      <trkpt lat="48.55659" lon="7.52826">
        <ele>163.8</ele>
        <time>2019-08-08T09:18:56Z</time>
      </trkpt>
      <trkpt lat="48.55663" lon="7.5283">
        <ele>163.8</ele>
        <time>2019-08-08T09:18:57Z</time>
      </trkpt>
      <trkpt lat="48.55668" lon="7.52834">
        <ele>163.8</ele>
        <time>2019-08-08T09:18:58Z</time>
      </trkpt>
      <trkpt lat="48.55672" lon="7.52837">
        <ele>163.8</ele>
        <time>2019-08-08T09:18:59Z</time>
      </trkpt>
      <trkpt lat="48.55676" lon="7.52839">
        <ele>163.8</ele>
        <time>2019-08-08T09:19:00Z</time>
      </trkpt>
      <trkpt lat="48.55682" lon="7.52843">
        <ele>163.8</ele>
        <time>2019-08-08T09:19:01Z</time>
      </trkpt>
      <trkpt lat="48.55688" lon="7.52849">
        <ele>163.8</ele>
        <time>2019-08-08T09:19:02Z</time>
      </trkpt>
      <trkpt lat="48.55694" lon="7.52852">
        <ele>163.7</ele>
        <time>2019-08-08T09:19:03Z</time>
      </trkpt>
      <trkpt lat="48.557" lon="7.52855">
        <ele>163.7</ele>
        <time>2019-08-08T09:19:04Z</time>
      </trkpt>
      <trkpt lat="48.55706" lon="7.52858">
        <ele>163.6</ele>
        <time>2019-08-08T09:19:05Z</time>
      </trkpt>
      <trkpt lat="48.5571" lon="7.52859">
        <ele>163.6</ele>
        <time>2019-08-08T09:19:06Z</time>
      </trkpt>
      <trkpt lat="48.55714" lon="7.52861">
        <ele>163.6</ele>
        <time>2019-08-08T09:19:07Z</time>
      </trkpt>
      <trkpt lat="48.55718" lon="7.52864">
        <ele>163.5</ele>
        <time>2019-08-08T09:19:08Z</time>
      </trkpt>
      <trkpt lat="48.55722" lon="7.52866">
        <ele>163.5</ele>
        <time>2019-08-08T09:19:09Z</time>
      </trkpt>
      <trkpt lat="48.55725" lon="7.52868">
        <ele>163.5</ele>
        <time>2019-08-08T09:19:10Z</time>
      </trkpt>
      <trkpt lat="48.55727" lon="7.5287">
        <ele>163.5</ele>
        <time>2019-08-08T09:19:11Z</time>
      </trkpt>
      <trkpt lat="48.5573" lon="7.52873">
        <ele>163.4</ele>
        <time>2019-08-08T09:19:12Z</time>
      </trkpt>
      <trkpt lat="48.55733" lon="7.52874">
        <ele>163.4</ele>
        <time>2019-08-08T09:19:13Z</time>
      </trkpt>
      <trkpt lat="48.55737" lon="7.52874">
        <ele>163.4</ele>
        <time>2019-08-08T09:19:14Z</time>
      </trkpt>
      <trkpt lat="48.55741" lon="7.52874">
        <ele>163.4</ele>
        <time>2019-08-08T09:19:15Z</time>
      </trkpt>
      <trkpt lat="48.55744" lon="7.52875">
        <ele>163.4</ele>
        <time>2019-08-08T09:19:16Z</time>
      </trkpt>
      <trkpt lat="48.55749" lon="7.52879">
        <ele>163.3</ele>
        <time>2019-08-08T09:19:17Z</time>
      </trkpt>
      <trkpt lat="48.55755" lon="7.52885">
        <ele>163.3</ele>
        <time>2019-08-08T09:19:18Z</time>
      </trkpt>
      <trkpt lat="48.5576" lon="7.52891">
        <ele>163.3</ele>
        <time>2019-08-08T09:19:19Z</time>
      </trkpt>
      <trkpt lat="48.55765" lon="7.52896">
        <ele>163.4</ele>
        <time>2019-08-08T09:19:20Z</time>
      </trkpt>
      <trkpt lat="48.55771" lon="7.529">
        <ele>163.4</ele>
        <time>2019-08-08T09:19:21Z</time>
      </trkpt>
      <trkpt lat="48.55777" lon="7.52901">
        <ele>163.4</ele>
        <time>2019-08-08T09:19:22Z</time>
      </trkpt>
      <trkpt lat="48.55782" lon="7.52902">
        <ele>163.4</ele>
        <time>2019-08-08T09:19:23Z</time>
      </trkpt>
      <trkpt lat="48.55787" lon="7.52901">
        <ele>163.4</ele>
        <time>2019-08-08T09:19:24Z</time>
      </trkpt>
      <trkpt lat="48.55791" lon="7.52901">
        <ele>163.4</ele>
        <time>2019-08-08T09:19:25Z</time>
      </trkpt>
      <trkpt lat="48.55796" lon="7.52901">
        <ele>163.4</ele>
        <time>2019-08-08T09:19:26Z</time>
      </trkpt>
      <trkpt lat="48.55801" lon="7.52901">
        <ele>163.4</ele>
        <time>2019-08-08T09:19:27Z</time>
      </trkpt>
      <trkpt lat="48.55806" lon="7.52903">
        <ele>163.4</ele>
        <time>2019-08-08T09:19:28Z</time>
      </trkpt>
      <trkpt lat="48.55813" lon="7.52909">
        <ele>163.5</ele>
        <time>2019-08-08T09:19:29Z</time>
      </trkpt>
      <trkpt lat="48.5582" lon="7.52912">
        <ele>163.5</ele>
        <time>2019-08-08T09:19:30Z</time>
      </trkpt>
      <trkpt lat="48.55825" lon="7.52915">
        <ele>163.5</ele>
        <time>2019-08-08T09:19:31Z</time>
      </trkpt>
      <trkpt lat="48.55831" lon="7.52916">
        <ele>163.5</ele>
        <time>2019-08-08T09:19:32Z</time>
      </trkpt>
      <trkpt lat="48.55836" lon="7.52917">
        <ele>163.5</ele>
        <time>2019-08-08T09:19:33Z</time>
      </trkpt>
      <trkpt lat="48.55841" lon="7.52919">
        <ele>163.6</ele>
        <time>2019-08-08T09:19:34Z</time>
      </trkpt>
      <trkpt lat="48.55846" lon="7.5292">
        <ele>163.6</ele>
        <time>2019-08-08T09:19:35Z</time>
      </trkpt>
      <trkpt lat="48.55852" lon="7.52922">
        <ele>163.6</ele>
        <time>2019-08-08T09:19:36Z</time>
      </trkpt>
      <trkpt lat="48.55857" lon="7.52924">
        <ele>163.7</ele>
        <time>2019-08-08T09:19:37Z</time>
      </trkpt>
      <trkpt lat="48.55863" lon="7.52925">
        <ele>163.7</ele>
        <time>2019-08-08T09:19:38Z</time>
      </trkpt>
      <trkpt lat="48.55867" lon="7.52925">
        <ele>163.7</ele>
        <time>2019-08-08T09:19:39Z</time>
      </trkpt>
      <trkpt lat="48.55872" lon="7.52926">
        <ele>163.7</ele>
        <time>2019-08-08T09:19:40Z</time>
      </trkpt>
      <trkpt lat="48.55877" lon="7.52927">
        <ele>163.8</ele>
        <time>2019-08-08T09:19:41Z</time>
      </trkpt>
      <trkpt lat="48.55881" lon="7.52929">
        <ele>163.8</ele>
        <time>2019-08-08T09:19:42Z</time>
      </trkpt>
      <trkpt lat="48.55887" lon="7.52933">
        <ele>163.8</ele>
        <time>2019-08-08T09:19:43Z</time>
      </trkpt>
      <trkpt lat="48.55893" lon="7.52939">
        <ele>163.9</ele>
        <time>2019-08-08T09:19:44Z</time>
      </trkpt>
      <trkpt lat="48.559" lon="7.52946">
        <ele>163.9</ele>
        <time>2019-08-08T09:19:45Z</time>
      </trkpt>
      <trkpt lat="48.55907" lon="7.52949">
        <ele>164</ele>
        <time>2019-08-08T09:19:46Z</time>
      </trkpt>
      <trkpt lat="48.55913" lon="7.52951">
        <ele>164</ele>
        <time>2019-08-08T09:19:47Z</time>
      </trkpt>
      <trkpt lat="48.55919" lon="7.52953">
        <ele>164</ele>
        <time>2019-08-08T09:19:48Z</time>
      </trkpt>
      <trkpt lat="48.55924" lon="7.52954">
        <ele>164.1</ele>
        <time>2019-08-08T09:19:49Z</time>
      </trkpt>
      <trkpt lat="48.55931" lon="7.52953">
        <ele>164.1</ele>
        <time>2019-08-08T09:19:50Z</time>
      </trkpt>
      <trkpt lat="48.55936" lon="7.52954">
        <ele>164.1</ele>
        <time>2019-08-08T09:19:51Z</time>
      </trkpt>
      <trkpt lat="48.5594" lon="7.52955">
        <ele>164.1</ele>
        <time>2019-08-08T09:19:52Z</time>
      </trkpt>
      <trkpt lat="48.55945" lon="7.52955">
        <ele>164.2</ele>
        <time>2019-08-08T09:19:53Z</time>
      </trkpt>
      <trkpt lat="48.55949" lon="7.52956">
        <ele>164.2</ele>
        <time>2019-08-08T09:19:54Z</time>
      </trkpt>
      <trkpt lat="48.55953" lon="7.52956">
        <ele>164.2</ele>
        <time>2019-08-08T09:19:55Z</time>
      </trkpt>
      <trkpt lat="48.55958" lon="7.52958">
        <ele>164.2</ele>
        <time>2019-08-08T09:19:56Z</time>
      </trkpt>
      <trkpt lat="48.55962" lon="7.5296">
        <ele>164.3</ele>
        <time>2019-08-08T09:19:57Z</time>
      </trkpt>
      <trkpt lat="48.55966" lon="7.52961">
        <ele>164.3</ele>
        <time>2019-08-08T09:19:58Z</time>
      </trkpt>
      <trkpt lat="48.55971" lon="7.52963">
        <ele>164.3</ele>
        <time>2019-08-08T09:19:59Z</time>
      </trkpt>
      <trkpt lat="48.55976" lon="7.52963">
        <ele>164.3</ele>
        <time>2019-08-08T09:20:00Z</time>
      </trkpt>
      <trkpt lat="48.55984" lon="7.52966">
        <ele>164.4</ele>
        <time>2019-08-08T09:20:01Z</time>
      </trkpt>
      <trkpt lat="48.5599" lon="7.52969">
        <ele>164.4</ele>
        <time>2019-08-08T09:20:02Z</time>
      </trkpt>
      <trkpt lat="48.55996" lon="7.52972">
        <ele>164.4</ele>
        <time>2019-08-08T09:20:03Z</time>
      </trkpt>
      <trkpt lat="48.56001" lon="7.52975">
        <ele>164.5</ele>
        <time>2019-08-08T09:20:04Z</time>
      </trkpt>
      <trkpt lat="48.56006" lon="7.52977">
        <ele>164.5</ele>
        <time>2019-08-08T09:20:05Z</time>
      </trkpt>
      <trkpt lat="48.5601" lon="7.52979">
        <ele>164.5</ele>
        <time>2019-08-08T09:20:06Z</time>
      </trkpt>
      <trkpt lat="48.56015" lon="7.52981">
        <ele>164.5</ele>
        <time>2019-08-08T09:20:07Z</time>
      </trkpt>
      <trkpt lat="48.5602" lon="7.52982">
        <ele>164.6</ele>
        <time>2019-08-08T09:20:08Z</time>
      </trkpt>
      <trkpt lat="48.56024" lon="7.52984">
        <ele>164.6</ele>
        <time>2019-08-08T09:20:09Z</time>
      </trkpt>
      <trkpt lat="48.56029" lon="7.52986">
        <ele>164.6</ele>
        <time>2019-08-08T09:20:10Z</time>
      </trkpt>
      <trkpt lat="48.56034" lon="7.52986">
        <ele>164.6</ele>
        <time>2019-08-08T09:20:11Z</time>
      </trkpt>
      <trkpt lat="48.56039" lon="7.52987">
        <ele>164.7</ele>
        <time>2019-08-08T09:20:12Z</time>
      </trkpt>
      <trkpt lat="48.56044" lon="7.52989">
        <ele>164.7</ele>
        <time>2019-08-08T09:20:13Z</time>
      </trkpt>
      <trkpt lat="48.56048" lon="7.52992">
        <ele>164.7</ele>
        <time>2019-08-08T09:20:14Z</time>
      </trkpt>
      <trkpt lat="48.56053" lon="7.52994">
        <ele>164.7</ele>
        <time>2019-08-08T09:20:15Z</time>
      </trkpt>
      <trkpt lat="48.56057" lon="7.52995">
        <ele>164.8</ele>
        <time>2019-08-08T09:20:16Z</time>
      </trkpt>
      <trkpt lat="48.56062" lon="7.52995">
        <ele>164.8</ele>
        <time>2019-08-08T09:20:17Z</time>
      </trkpt>
      <trkpt lat="48.56067" lon="7.52996">
        <ele>164.8</ele>
        <time>2019-08-08T09:20:18Z</time>
      </trkpt>
      <trkpt lat="48.56071" lon="7.52998">
        <ele>164.8</ele>
        <time>2019-08-08T09:20:19Z</time>
      </trkpt>
      <trkpt lat="48.56077" lon="7.53">
        <ele>164.9</ele>
        <time>2019-08-08T09:20:20Z</time>
      </trkpt>
      <trkpt lat="48.56082" lon="7.53001">
        <ele>164.9</ele>
        <time>2019-08-08T09:20:21Z</time>
      </trkpt>
      <trkpt lat="48.56086" lon="7.53002">
        <ele>164.9</ele>
        <time>2019-08-08T09:20:22Z</time>
      </trkpt>
      <trkpt lat="48.56089" lon="7.53005">
        <ele>164.9</ele>
        <time>2019-08-08T09:20:23Z</time>
      </trkpt>
      <trkpt lat="48.56091" lon="7.53006">
        <ele>164.9</ele>
        <time>2019-08-08T09:20:24Z</time>
      </trkpt>
      <trkpt lat="48.56094" lon="7.53008">
        <ele>165</ele>
        <time>2019-08-08T09:20:26Z</time>
      </trkpt>
      <trkpt lat="48.56097" lon="7.53009">
        <ele>165</ele>
        <time>2019-08-08T09:20:28Z</time>
      </trkpt>
      <trkpt lat="48.561" lon="7.53009">
        <ele>165</ele>
        <time>2019-08-08T09:20:29Z</time>
      </trkpt>
      <trkpt lat="48.56103" lon="7.53009">
        <ele>165</ele>
        <time>2019-08-08T09:20:30Z</time>
      </trkpt>
      <trkpt lat="48.56106" lon="7.5301">
        <ele>165</ele>
        <time>2019-08-08T09:20:31Z</time>
      </trkpt>
      <trkpt lat="48.56109" lon="7.53012">
        <ele>165</ele>
        <time>2019-08-08T09:20:32Z</time>
      </trkpt>
      <trkpt lat="48.56111" lon="7.53014">
        <ele>165.1</ele>
        <time>2019-08-08T09:20:33Z</time>
      </trkpt>
      <trkpt lat="48.56115" lon="7.53013">
        <ele>165.1</ele>
        <time>2019-08-08T09:20:34Z</time>
      </trkpt>
      <trkpt lat="48.56119" lon="7.53013">
        <ele>165.1</ele>
        <time>2019-08-08T09:20:35Z</time>
      </trkpt>
      <trkpt lat="48.56123" lon="7.53014">
        <ele>165.1</ele>
        <time>2019-08-08T09:20:36Z</time>
      </trkpt>
      <trkpt lat="48.56129" lon="7.53017">
        <ele>165.1</ele>
        <time>2019-08-08T09:20:37Z</time>
      </trkpt>
      <trkpt lat="48.56134" lon="7.53021">
        <ele>165.2</ele>
        <time>2019-08-08T09:20:38Z</time>
      </trkpt>
      <trkpt lat="48.56138" lon="7.53027">
        <ele>165.2</ele>
        <time>2019-08-08T09:20:39Z</time>
      </trkpt>
      <trkpt lat="48.56144" lon="7.53032">
        <ele>165.3</ele>
        <time>2019-08-08T09:20:40Z</time>
      </trkpt>
      <trkpt lat="48.56149" lon="7.53036">
        <ele>165.3</ele>
        <time>2019-08-08T09:20:41Z</time>
      </trkpt>
      <trkpt lat="48.56154" lon="7.53038">
        <ele>165.3</ele>
        <time>2019-08-08T09:20:42Z</time>
      </trkpt>
      <trkpt lat="48.56159" lon="7.53039">
        <ele>165.4</ele>
        <time>2019-08-08T09:20:43Z</time>
      </trkpt>
      <trkpt lat="48.56163" lon="7.53041">
        <ele>165.4</ele>
        <time>2019-08-08T09:20:44Z</time>
      </trkpt>
      <trkpt lat="48.56168" lon="7.5304">
        <ele>165.4</ele>
        <time>2019-08-08T09:20:45Z</time>
      </trkpt>
      <trkpt lat="48.56171" lon="7.53039">
        <ele>165.5</ele>
        <time>2019-08-08T09:20:46Z</time>
      </trkpt>
      <trkpt lat="48.56175" lon="7.53037">
        <ele>165.5</ele>
        <time>2019-08-08T09:20:47Z</time>
      </trkpt>
      <trkpt lat="48.56179" lon="7.53036">
        <ele>165.5</ele>
        <time>2019-08-08T09:20:49Z</time>
      </trkpt>
      <trkpt lat="48.56183" lon="7.53034">
        <ele>165.6</ele>
        <time>2019-08-08T09:20:53Z</time>
      </trkpt>
      <trkpt lat="48.56186" lon="7.53033">
        <ele>165.6</ele>
        <time>2019-08-08T09:20:54Z</time>
      </trkpt>
      <trkpt lat="48.5619" lon="7.53033">
        <ele>165.6</ele>
        <time>2019-08-08T09:20:56Z</time>
      </trkpt>
      <trkpt lat="48.56196" lon="7.53035">
        <ele>165.1</ele>
        <time>2019-08-08T09:20:58Z</time>
      </trkpt>
      <trkpt lat="48.562" lon="7.53035">
        <ele>164.8</ele>
        <time>2019-08-08T09:20:59Z</time>
      </trkpt>
      <trkpt lat="48.56202" lon="7.53034">
        <ele>164.6</ele>
        <time>2019-08-08T09:21:00Z</time>
      </trkpt>
      <trkpt lat="48.56207" lon="7.53032">
        <ele>164.3</ele>
        <time>2019-08-08T09:21:01Z</time>
      </trkpt>
      <trkpt lat="48.56213" lon="7.53033">
        <ele>163.9</ele>
        <time>2019-08-08T09:21:02Z</time>
      </trkpt>
      <trkpt lat="48.56218" lon="7.53036">
        <ele>163.7</ele>
        <time>2019-08-08T09:21:03Z</time>
      </trkpt>
      <trkpt lat="48.56223" lon="7.53034">
        <ele>163.5</ele>
        <time>2019-08-08T09:21:04Z</time>
      </trkpt>
      <trkpt lat="48.56229" lon="7.53033">
        <ele>163.3</ele>
        <time>2019-08-08T09:21:05Z</time>
      </trkpt>
      <trkpt lat="48.56234" lon="7.53031">
        <ele>163.1</ele>
        <time>2019-08-08T09:21:06Z</time>
      </trkpt>
      <trkpt lat="48.56238" lon="7.53031">
        <ele>163</ele>
        <time>2019-08-08T09:21:07Z</time>
      </trkpt>
      <trkpt lat="48.56242" lon="7.53031">
        <ele>162.9</ele>
        <time>2019-08-08T09:21:08Z</time>
      </trkpt>
      <trkpt lat="48.56246" lon="7.5303">
        <ele>162.8</ele>
        <time>2019-08-08T09:21:09Z</time>
      </trkpt>
      <trkpt lat="48.5625" lon="7.53029">
        <ele>162.7</ele>
        <time>2019-08-08T09:21:10Z</time>
      </trkpt>
      <trkpt lat="48.56256" lon="7.53028">
        <ele>162.6</ele>
        <time>2019-08-08T09:21:11Z</time>
      </trkpt>
      <trkpt lat="48.56262" lon="7.53026">
        <ele>162.5</ele>
        <time>2019-08-08T09:21:12Z</time>
      </trkpt>
      <trkpt lat="48.56267" lon="7.53025">
        <ele>162.4</ele>
        <time>2019-08-08T09:21:13Z</time>
      </trkpt>
      <trkpt lat="48.56272" lon="7.53025">
        <ele>162.3</ele>
        <time>2019-08-08T09:21:14Z</time>
      </trkpt>
      <trkpt lat="48.56276" lon="7.53026">
        <ele>162.2</ele>
        <time>2019-08-08T09:21:15Z</time>
      </trkpt>
      <trkpt lat="48.56279" lon="7.53026">
        <ele>162.1</ele>
        <time>2019-08-08T09:21:16Z</time>
      </trkpt>
      <trkpt lat="48.56283" lon="7.53025">
        <ele>162.1</ele>
        <time>2019-08-08T09:21:17Z</time>
      </trkpt>
      <trkpt lat="48.56287" lon="7.53025">
        <ele>162</ele>
        <time>2019-08-08T09:21:18Z</time>
      </trkpt>
      <trkpt lat="48.56292" lon="7.53024">
        <ele>162</ele>
        <time>2019-08-08T09:21:19Z</time>
      </trkpt>
      <trkpt lat="48.56297" lon="7.53023">
        <ele>162</ele>
        <time>2019-08-08T09:21:20Z</time>
      </trkpt>
      <trkpt lat="48.56302" lon="7.53021">
        <ele>161.9</ele>
        <time>2019-08-08T09:21:21Z</time>
      </trkpt>
      <trkpt lat="48.56306" lon="7.53019">
        <ele>161.9</ele>
        <time>2019-08-08T09:21:22Z</time>
      </trkpt>
      <trkpt lat="48.56312" lon="7.53016">
        <ele>161.9</ele>
        <time>2019-08-08T09:21:23Z</time>
      </trkpt>
      <trkpt lat="48.56316" lon="7.53015">
        <ele>161.9</ele>
        <time>2019-08-08T09:21:24Z</time>
      </trkpt>
      <trkpt lat="48.5632" lon="7.53014">
        <ele>161.9</ele>
        <time>2019-08-08T09:21:25Z</time>
      </trkpt>
      <trkpt lat="48.56324" lon="7.53015">
        <ele>161.9</ele>
        <time>2019-08-08T09:21:26Z</time>
      </trkpt>
      <trkpt lat="48.56328" lon="7.53016">
        <ele>161.9</ele>
        <time>2019-08-08T09:21:27Z</time>
      </trkpt>
      <trkpt lat="48.56332" lon="7.53015">
        <ele>161.9</ele>
        <time>2019-08-08T09:21:28Z</time>
      </trkpt>
      <trkpt lat="48.56335" lon="7.53014">
        <ele>161.9</ele>
        <time>2019-08-08T09:21:29Z</time>
      </trkpt>
      <trkpt lat="48.56339" lon="7.53013">
        <ele>161.9</ele>
        <time>2019-08-08T09:21:30Z</time>
      </trkpt>
      <trkpt lat="48.56342" lon="7.5301">
        <ele>161.9</ele>
        <time>2019-08-08T09:21:31Z</time>
      </trkpt>
      <trkpt lat="48.56346" lon="7.53007">
        <ele>162.1</ele>
        <time>2019-08-08T09:21:32Z</time>
      </trkpt>
      <trkpt lat="48.5635" lon="7.53004">
        <ele>162.1</ele>
        <time>2019-08-08T09:21:33Z</time>
      </trkpt>
      <trkpt lat="48.56354" lon="7.53001">
        <ele>162.2</ele>
        <time>2019-08-08T09:21:34Z</time>
      </trkpt>
      <trkpt lat="48.56358" lon="7.53">
        <ele>162.3</ele>
        <time>2019-08-08T09:21:35Z</time>
      </trkpt>
      <trkpt lat="48.56362" lon="7.52998">
        <ele>162.4</ele>
        <time>2019-08-08T09:21:36Z</time>
      </trkpt>
      <trkpt lat="48.56367" lon="7.52996">
        <ele>162.4</ele>
        <time>2019-08-08T09:21:37Z</time>
      </trkpt>
      <trkpt lat="48.56372" lon="7.52995">
        <ele>162.5</ele>
        <time>2019-08-08T09:21:38Z</time>
      </trkpt>
      <trkpt lat="48.56376" lon="7.52993">
        <ele>162.5</ele>
        <time>2019-08-08T09:21:39Z</time>
      </trkpt>
      <trkpt lat="48.5638" lon="7.52992">
        <ele>162.6</ele>
        <time>2019-08-08T09:21:40Z</time>
      </trkpt>
      <trkpt lat="48.56383" lon="7.52991">
        <ele>162.6</ele>
        <time>2019-08-08T09:21:41Z</time>
      </trkpt>
      <trkpt lat="48.56387" lon="7.52991">
        <ele>162.7</ele>
        <time>2019-08-08T09:21:42Z</time>
      </trkpt>
      <trkpt lat="48.5639" lon="7.52989">
        <ele>162.7</ele>
        <time>2019-08-08T09:21:43Z</time>
      </trkpt>
      <trkpt lat="48.56394" lon="7.5299">
        <ele>162.8</ele>
        <time>2019-08-08T09:21:44Z</time>
      </trkpt>
      <trkpt lat="48.56397" lon="7.52991">
        <ele>162.8</ele>
        <time>2019-08-08T09:21:45Z</time>
      </trkpt>
      <trkpt lat="48.56401" lon="7.52991">
        <ele>162.8</ele>
        <time>2019-08-08T09:21:46Z</time>
      </trkpt>
      <trkpt lat="48.56405" lon="7.52991">
        <ele>162.9</ele>
        <time>2019-08-08T09:21:47Z</time>
      </trkpt>
      <trkpt lat="48.56409" lon="7.52991">
        <ele>162.9</ele>
        <time>2019-08-08T09:21:48Z</time>
      </trkpt>
      <trkpt lat="48.56414" lon="7.5299">
        <ele>163</ele>
        <time>2019-08-08T09:21:49Z</time>
      </trkpt>
      <trkpt lat="48.56417" lon="7.52989">
        <ele>163</ele>
        <time>2019-08-08T09:21:50Z</time>
      </trkpt>
      <trkpt lat="48.5642" lon="7.52986">
        <ele>163.1</ele>
        <time>2019-08-08T09:21:51Z</time>
      </trkpt>
      <trkpt lat="48.56423" lon="7.52983">
        <ele>163.1</ele>
        <time>2019-08-08T09:21:52Z</time>
      </trkpt>
      <trkpt lat="48.56426" lon="7.5298">
        <ele>163.1</ele>
        <time>2019-08-08T09:21:53Z</time>
      </trkpt>
      <trkpt lat="48.56429" lon="7.52978">
        <ele>163.1</ele>
        <time>2019-08-08T09:21:54Z</time>
      </trkpt>
      <trkpt lat="48.56432" lon="7.52975">
        <ele>163.2</ele>
        <time>2019-08-08T09:21:55Z</time>
      </trkpt>
      <trkpt lat="48.56435" lon="7.52972">
        <ele>163.2</ele>
        <time>2019-08-08T09:21:56Z</time>
      </trkpt>
      <trkpt lat="48.56438" lon="7.52969">
        <ele>163.2</ele>
        <time>2019-08-08T09:21:57Z</time>
      </trkpt>
      <trkpt lat="48.56443" lon="7.52961">
        <ele>163.2</ele>
        <time>2019-08-08T09:21:58Z</time>
      </trkpt>
      <trkpt lat="48.56446" lon="7.52959">
        <ele>163.2</ele>
        <time>2019-08-08T09:21:59Z</time>
      </trkpt>
      <trkpt lat="48.56449" lon="7.52958">
        <ele>163.2</ele>
        <time>2019-08-08T09:22:00Z</time>
      </trkpt>
      <trkpt lat="48.56455" lon="7.52959">
        <ele>163.2</ele>
        <time>2019-08-08T09:22:02Z</time>
      </trkpt>
      <trkpt lat="48.56459" lon="7.5296">
        <ele>163.2</ele>
        <time>2019-08-08T09:22:03Z</time>
      </trkpt>
      <trkpt lat="48.56463" lon="7.5296">
        <ele>163.2</ele>
        <time>2019-08-08T09:22:04Z</time>
      </trkpt>
      <trkpt lat="48.56466" lon="7.5296">
        <ele>163.2</ele>
        <time>2019-08-08T09:22:05Z</time>
      </trkpt>
      <trkpt lat="48.56469" lon="7.52959">
        <ele>163.2</ele>
        <time>2019-08-08T09:22:06Z</time>
      </trkpt>
      <trkpt lat="48.56472" lon="7.52958">
        <ele>163.2</ele>
        <time>2019-08-08T09:22:07Z</time>
      </trkpt>
      <trkpt lat="48.56476" lon="7.52957">
        <ele>163.2</ele>
        <time>2019-08-08T09:22:08Z</time>
      </trkpt>
      <trkpt lat="48.56479" lon="7.52957">
        <ele>163.2</ele>
        <time>2019-08-08T09:22:09Z</time>
      </trkpt>
      <trkpt lat="48.56483" lon="7.52958">
        <ele>163.2</ele>
        <time>2019-08-08T09:22:10Z</time>
      </trkpt>
      <trkpt lat="48.56487" lon="7.5296">
        <ele>163.1</ele>
        <time>2019-08-08T09:22:11Z</time>
      </trkpt>
      <trkpt lat="48.56492" lon="7.52962">
        <ele>163.1</ele>
        <time>2019-08-08T09:22:12Z</time>
      </trkpt>
      <trkpt lat="48.56496" lon="7.52964">
        <ele>163.1</ele>
        <time>2019-08-08T09:22:13Z</time>
      </trkpt>
      <trkpt lat="48.56501" lon="7.52965">
        <ele>163.1</ele>
        <time>2019-08-08T09:22:14Z</time>
      </trkpt>
      <trkpt lat="48.56505" lon="7.52966">
        <ele>163.1</ele>
        <time>2019-08-08T09:22:15Z</time>
      </trkpt>
      <trkpt lat="48.5651" lon="7.52966">
        <ele>163.1</ele>
        <time>2019-08-08T09:22:16Z</time>
      </trkpt>
      <trkpt lat="48.56513" lon="7.52966">
        <ele>163.1</ele>
        <time>2019-08-08T09:22:17Z</time>
      </trkpt>
      <trkpt lat="48.56517" lon="7.52966">
        <ele>163.1</ele>
        <time>2019-08-08T09:22:18Z</time>
      </trkpt>
      <trkpt lat="48.5652" lon="7.52966">
        <ele>163.1</ele>
        <time>2019-08-08T09:22:19Z</time>
      </trkpt>
      <trkpt lat="48.56523" lon="7.52964">
        <ele>163.1</ele>
        <time>2019-08-08T09:22:20Z</time>
      </trkpt>
      <trkpt lat="48.56527" lon="7.52962">
        <ele>163.1</ele>
        <time>2019-08-08T09:22:21Z</time>
      </trkpt>
      <trkpt lat="48.5653" lon="7.5296">
        <ele>163</ele>
        <time>2019-08-08T09:22:22Z</time>
      </trkpt>
      <trkpt lat="48.56534" lon="7.52959">
        <ele>163</ele>
        <time>2019-08-08T09:22:23Z</time>
      </trkpt>
      <trkpt lat="48.5654" lon="7.52958">
        <ele>163</ele>
        <time>2019-08-08T09:22:24Z</time>
      </trkpt>
      <trkpt lat="48.56545" lon="7.52957">
        <ele>162.9</ele>
        <time>2019-08-08T09:22:25Z</time>
      </trkpt>
      <trkpt lat="48.56549" lon="7.52957">
        <ele>162.9</ele>
        <time>2019-08-08T09:22:26Z</time>
      </trkpt>
      <trkpt lat="48.56553" lon="7.52956">
        <ele>162.8</ele>
        <time>2019-08-08T09:22:27Z</time>
      </trkpt>
      <trkpt lat="48.56558" lon="7.52956">
        <ele>162.7</ele>
        <time>2019-08-08T09:22:28Z</time>
      </trkpt>
      <trkpt lat="48.56561" lon="7.52957">
        <ele>162.6</ele>
        <time>2019-08-08T09:22:29Z</time>
      </trkpt>
      <trkpt lat="48.56567" lon="7.52952">
        <ele>162.5</ele>
        <time>2019-08-08T09:22:30Z</time>
      </trkpt>
      <trkpt lat="48.56572" lon="7.52946">
        <ele>162.3</ele>
        <time>2019-08-08T09:22:31Z</time>
      </trkpt>
      <trkpt lat="48.56577" lon="7.52941">
        <ele>162.1</ele>
        <time>2019-08-08T09:22:32Z</time>
      </trkpt>
      <trkpt lat="48.56581" lon="7.52936">
        <ele>162</ele>
        <time>2019-08-08T09:22:33Z</time>
      </trkpt>
      <trkpt lat="48.56584" lon="7.52934">
        <ele>161.9</ele>
        <time>2019-08-08T09:22:34Z</time>
      </trkpt>
      <trkpt lat="48.56589" lon="7.52932">
        <ele>161.8</ele>
        <time>2019-08-08T09:22:35Z</time>
      </trkpt>
      <trkpt lat="48.56592" lon="7.52928">
        <ele>161.8</ele>
        <time>2019-08-08T09:22:36Z</time>
      </trkpt>
      <trkpt lat="48.56596" lon="7.52923">
        <ele>161.7</ele>
        <time>2019-08-08T09:22:37Z</time>
      </trkpt>
      <trkpt lat="48.56601" lon="7.52918">
        <ele>161.7</ele>
        <time>2019-08-08T09:22:38Z</time>
      </trkpt>
      <trkpt lat="48.56605" lon="7.5292">
        <ele>161.6</ele>
        <time>2019-08-08T09:22:39Z</time>
      </trkpt>
      <trkpt lat="48.56609" lon="7.52924">
        <ele>161.6</ele>
        <time>2019-08-08T09:22:40Z</time>
      </trkpt>
      <trkpt lat="48.56613" lon="7.52923">
        <ele>161.5</ele>
        <time>2019-08-08T09:22:42Z</time>
      </trkpt>
      <trkpt lat="48.56616" lon="7.52922">
        <ele>161.5</ele>
        <time>2019-08-08T09:22:43Z</time>
      </trkpt>
      <trkpt lat="48.5662" lon="7.52919">
        <ele>161.8</ele>
        <time>2019-08-08T09:22:44Z</time>
      </trkpt>
      <trkpt lat="48.56624" lon="7.52915">
        <ele>162</ele>
        <time>2019-08-08T09:22:45Z</time>
      </trkpt>
      <trkpt lat="48.56627" lon="7.52912">
        <ele>162.2</ele>
        <time>2019-08-08T09:22:46Z</time>
      </trkpt>
      <trkpt lat="48.5663" lon="7.52908">
        <ele>162.4</ele>
        <time>2019-08-08T09:22:48Z</time>
      </trkpt>
      <trkpt lat="48.56635" lon="7.52906">
        <ele>162.5</ele>
        <time>2019-08-08T09:22:50Z</time>
      </trkpt>
      <trkpt lat="48.56638" lon="7.52905">
        <ele>162.6</ele>
        <time>2019-08-08T09:22:51Z</time>
      </trkpt>
      <trkpt lat="48.5664" lon="7.52905">
        <ele>162.6</ele>
        <time>2019-08-08T09:22:52Z</time>
      </trkpt>
      <trkpt lat="48.56644" lon="7.52905">
        <ele>162.6</ele>
        <time>2019-08-08T09:22:53Z</time>
      </trkpt>
      <trkpt lat="48.56648" lon="7.52905">
        <ele>162.6</ele>
        <time>2019-08-08T09:22:54Z</time>
      </trkpt>
      <trkpt lat="48.56652" lon="7.52902">
        <ele>162.6</ele>
        <time>2019-08-08T09:22:55Z</time>
      </trkpt>
      <trkpt lat="48.56656" lon="7.52898">
        <ele>162.6</ele>
        <time>2019-08-08T09:22:56Z</time>
      </trkpt>
      <trkpt lat="48.5666" lon="7.52894">
        <ele>162.6</ele>
        <time>2019-08-08T09:22:57Z</time>
      </trkpt>
      <trkpt lat="48.56663" lon="7.52892">
        <ele>162.6</ele>
        <time>2019-08-08T09:22:58Z</time>
      </trkpt>
      <trkpt lat="48.56666" lon="7.5289">
        <ele>162.7</ele>
        <time>2019-08-08T09:22:59Z</time>
      </trkpt>
      <trkpt lat="48.56669" lon="7.52888">
        <ele>162.7</ele>
        <time>2019-08-08T09:23:00Z</time>
      </trkpt>
      <trkpt lat="48.56673" lon="7.52885">
        <ele>162.7</ele>
        <time>2019-08-08T09:23:01Z</time>
      </trkpt>
      <trkpt lat="48.56676" lon="7.52882">
        <ele>162.7</ele>
        <time>2019-08-08T09:23:02Z</time>
      </trkpt>
      <trkpt lat="48.56679" lon="7.52881">
        <ele>162.7</ele>
        <time>2019-08-08T09:23:03Z</time>
      </trkpt>
      <trkpt lat="48.56684" lon="7.52884">
        <ele>162.7</ele>
        <time>2019-08-08T09:23:05Z</time>
      </trkpt>
      <trkpt lat="48.56686" lon="7.52887">
        <ele>162.8</ele>
        <time>2019-08-08T09:23:06Z</time>
      </trkpt>
      <trkpt lat="48.56687" lon="7.52891">
        <ele>162.9</ele>
        <time>2019-08-08T09:23:07Z</time>
      </trkpt>
      <trkpt lat="48.56689" lon="7.52895">
        <ele>162.9</ele>
        <time>2019-08-08T09:23:08Z</time>
      </trkpt>
      <trkpt lat="48.56689" lon="7.52902">
        <ele>163</ele>
        <time>2019-08-08T09:23:10Z</time>
      </trkpt>
      <trkpt lat="48.56688" lon="7.52908">
        <ele>163</ele>
        <time>2019-08-08T09:23:11Z</time>
      </trkpt>
      <trkpt lat="48.56687" lon="7.52913">
        <ele>163.1</ele>
        <time>2019-08-08T09:23:12Z</time>
      </trkpt>
      <trkpt lat="48.56687" lon="7.52919">
        <ele>163.1</ele>
        <time>2019-08-08T09:23:13Z</time>
      </trkpt>
      <trkpt lat="48.56686" lon="7.52924">
        <ele>163.2</ele>
        <time>2019-08-08T09:23:14Z</time>
      </trkpt>
      <trkpt lat="48.56685" lon="7.52929">
        <ele>163.2</ele>
        <time>2019-08-08T09:23:15Z</time>
      </trkpt>
      <trkpt lat="48.56683" lon="7.52935">
        <ele>163.2</ele>
        <time>2019-08-08T09:23:16Z</time>
      </trkpt>
      <trkpt lat="48.56681" lon="7.52943">
        <ele>163.3</ele>
        <time>2019-08-08T09:23:17Z</time>
      </trkpt>
      <trkpt lat="48.5668" lon="7.52949">
        <ele>163.3</ele>
        <time>2019-08-08T09:23:18Z</time>
      </trkpt>
      <trkpt lat="48.56679" lon="7.52956">
        <ele>163.3</ele>
        <time>2019-08-08T09:23:19Z</time>
      </trkpt>
      <trkpt lat="48.56678" lon="7.52962">
        <ele>163.3</ele>
        <time>2019-08-08T09:23:20Z</time>
      </trkpt>
      <trkpt lat="48.56678" lon="7.52967">
        <ele>163.3</ele>
        <time>2019-08-08T09:23:21Z</time>
      </trkpt>
      <trkpt lat="48.56677" lon="7.52972">
        <ele>163.3</ele>
        <time>2019-08-08T09:23:22Z</time>
      </trkpt>
      <trkpt lat="48.56676" lon="7.52977">
        <ele>163.4</ele>
        <time>2019-08-08T09:23:23Z</time>
      </trkpt>
      <trkpt lat="48.56676" lon="7.52981">
        <ele>163.4</ele>
        <time>2019-08-08T09:23:24Z</time>
      </trkpt>
      <trkpt lat="48.56674" lon="7.52989">
        <ele>163.3</ele>
        <time>2019-08-08T09:23:26Z</time>
      </trkpt>
      <trkpt lat="48.56673" lon="7.52996">
        <ele>163.3</ele>
        <time>2019-08-08T09:23:28Z</time>
      </trkpt>
      <trkpt lat="48.56672" lon="7.53001">
        <ele>163.3</ele>
        <time>2019-08-08T09:23:29Z</time>
      </trkpt>
      <trkpt lat="48.56671" lon="7.53007">
        <ele>163.3</ele>
        <time>2019-08-08T09:23:30Z</time>
      </trkpt>
      <trkpt lat="48.5667" lon="7.53013">
        <ele>163.3</ele>
        <time>2019-08-08T09:23:31Z</time>
      </trkpt>
      <trkpt lat="48.56669" lon="7.53019">
        <ele>163.3</ele>
        <time>2019-08-08T09:23:32Z</time>
      </trkpt>
      <trkpt lat="48.56669" lon="7.53025">
        <ele>163.3</ele>
        <time>2019-08-08T09:23:33Z</time>
      </trkpt>
      <trkpt lat="48.56668" lon="7.53031">
        <ele>163.3</ele>
        <time>2019-08-08T09:23:34Z</time>
      </trkpt>
      <trkpt lat="48.56667" lon="7.53038">
        <ele>163.3</ele>
        <time>2019-08-08T09:23:35Z</time>
      </trkpt>
      <trkpt lat="48.56665" lon="7.53046">
        <ele>163.3</ele>
        <time>2019-08-08T09:23:36Z</time>
      </trkpt>
      <trkpt lat="48.56662" lon="7.53054">
        <ele>163.3</ele>
        <time>2019-08-08T09:23:37Z</time>
      </trkpt>
      <trkpt lat="48.5666" lon="7.53062">
        <ele>163.3</ele>
        <time>2019-08-08T09:23:38Z</time>
      </trkpt>
      <trkpt lat="48.56659" lon="7.5307">
        <ele>163.3</ele>
        <time>2019-08-08T09:23:39Z</time>
      </trkpt>
      <trkpt lat="48.56658" lon="7.53079">
        <ele>163.3</ele>
        <time>2019-08-08T09:23:40Z</time>
      </trkpt>
      <trkpt lat="48.56657" lon="7.53087">
        <ele>163.3</ele>
        <time>2019-08-08T09:23:41Z</time>
      </trkpt>
      <trkpt lat="48.56658" lon="7.53091">
        <ele>163.3</ele>
        <time>2019-08-08T09:23:42Z</time>
      </trkpt>
      <trkpt lat="48.56657" lon="7.53097">
        <ele>163.3</ele>
        <time>2019-08-08T09:23:43Z</time>
      </trkpt>
      <trkpt lat="48.56658" lon="7.53103">
        <ele>163.3</ele>
        <time>2019-08-08T09:23:44Z</time>
      </trkpt>
      <trkpt lat="48.56658" lon="7.53111">
        <ele>163.3</ele>
        <time>2019-08-08T09:23:45Z</time>
      </trkpt>
      <trkpt lat="48.56657" lon="7.53117">
        <ele>163.3</ele>
        <time>2019-08-08T09:23:46Z</time>
      </trkpt>
      <trkpt lat="48.56657" lon="7.53123">
        <ele>163.3</ele>
        <time>2019-08-08T09:23:47Z</time>
      </trkpt>
      <trkpt lat="48.56657" lon="7.5313">
        <ele>163.3</ele>
        <time>2019-08-08T09:23:48Z</time>
      </trkpt>
      <trkpt lat="48.56656" lon="7.53136">
        <ele>163.3</ele>
        <time>2019-08-08T09:23:49Z</time>
      </trkpt>
      <trkpt lat="48.56655" lon="7.53143">
        <ele>163.3</ele>
        <time>2019-08-08T09:23:50Z</time>
      </trkpt>
      <trkpt lat="48.56654" lon="7.53149">
        <ele>163.3</ele>
        <time>2019-08-08T09:23:51Z</time>
      </trkpt>
      <trkpt lat="48.56653" lon="7.53156">
        <ele>163.3</ele>
        <time>2019-08-08T09:23:52Z</time>
      </trkpt>
      <trkpt lat="48.56652" lon="7.53161">
        <ele>163.3</ele>
        <time>2019-08-08T09:23:53Z</time>
      </trkpt>
      <trkpt lat="48.56651" lon="7.53166">
        <ele>163.2</ele>
        <time>2019-08-08T09:23:54Z</time>
      </trkpt>
      <trkpt lat="48.5665" lon="7.53171">
        <ele>163.2</ele>
        <time>2019-08-08T09:23:55Z</time>
      </trkpt>
      <trkpt lat="48.5665" lon="7.53175">
        <ele>163.2</ele>
        <time>2019-08-08T09:23:56Z</time>
      </trkpt>
      <trkpt lat="48.56648" lon="7.53181">
        <ele>163.2</ele>
        <time>2019-08-08T09:23:57Z</time>
      </trkpt>
      <trkpt lat="48.56647" lon="7.53186">
        <ele>163.2</ele>
        <time>2019-08-08T09:23:58Z</time>
      </trkpt>
      <trkpt lat="48.56646" lon="7.53192">
        <ele>163.2</ele>
        <time>2019-08-08T09:23:59Z</time>
      </trkpt>
      <trkpt lat="48.56644" lon="7.53197">
        <ele>163.2</ele>
        <time>2019-08-08T09:24:00Z</time>
      </trkpt>
      <trkpt lat="48.56644" lon="7.53207">
        <ele>163.2</ele>
        <time>2019-08-08T09:24:01Z</time>
      </trkpt>
      <trkpt lat="48.56643" lon="7.53214">
        <ele>163.2</ele>
        <time>2019-08-08T09:24:02Z</time>
      </trkpt>
      <trkpt lat="48.56642" lon="7.53223">
        <ele>163.2</ele>
        <time>2019-08-08T09:24:03Z</time>
      </trkpt>
      <trkpt lat="48.56642" lon="7.53229">
        <ele>163.2</ele>
        <time>2019-08-08T09:24:04Z</time>
      </trkpt>
      <trkpt lat="48.56642" lon="7.53237">
        <ele>163.2</ele>
        <time>2019-08-08T09:24:05Z</time>
      </trkpt>
      <trkpt lat="48.5664" lon="7.53242">
        <ele>163.2</ele>
        <time>2019-08-08T09:24:06Z</time>
      </trkpt>
      <trkpt lat="48.5664" lon="7.53246">
        <ele>163.2</ele>
        <time>2019-08-08T09:24:07Z</time>
      </trkpt>
      <trkpt lat="48.5664" lon="7.5325">
        <ele>163.2</ele>
        <time>2019-08-08T09:24:08Z</time>
      </trkpt>
      <trkpt lat="48.5664" lon="7.53256">
        <ele>163.1</ele>
        <time>2019-08-08T09:24:09Z</time>
      </trkpt>
      <trkpt lat="48.56639" lon="7.53266">
        <ele>163.1</ele>
        <time>2019-08-08T09:24:10Z</time>
      </trkpt>
      <trkpt lat="48.5664" lon="7.53277">
        <ele>163.1</ele>
        <time>2019-08-08T09:24:11Z</time>
      </trkpt>
      <trkpt lat="48.56641" lon="7.53287">
        <ele>163.1</ele>
        <time>2019-08-08T09:24:12Z</time>
      </trkpt>
      <trkpt lat="48.56641" lon="7.53296">
        <ele>163.1</ele>
        <time>2019-08-08T09:24:13Z</time>
      </trkpt>
      <trkpt lat="48.56641" lon="7.53306">
        <ele>163.1</ele>
        <time>2019-08-08T09:24:14Z</time>
      </trkpt>
      <trkpt lat="48.56642" lon="7.53316">
        <ele>163.1</ele>
        <time>2019-08-08T09:24:15Z</time>
      </trkpt>
      <trkpt lat="48.56643" lon="7.53325">
        <ele>163.1</ele>
        <time>2019-08-08T09:24:16Z</time>
      </trkpt>
      <trkpt lat="48.56643" lon="7.53334">
        <ele>163.1</ele>
        <time>2019-08-08T09:24:17Z</time>
      </trkpt>
      <trkpt lat="48.56644" lon="7.53342">
        <ele>163.1</ele>
        <time>2019-08-08T09:24:18Z</time>
      </trkpt>
      <trkpt lat="48.56645" lon="7.5335">
        <ele>163.1</ele>
        <time>2019-08-08T09:24:19Z</time>
      </trkpt>
      <trkpt lat="48.56646" lon="7.53359">
        <ele>163.1</ele>
        <time>2019-08-08T09:24:20Z</time>
      </trkpt>
      <trkpt lat="48.56646" lon="7.53367">
        <ele>163.1</ele>
        <time>2019-08-08T09:24:21Z</time>
      </trkpt>
      <trkpt lat="48.56646" lon="7.53375">
        <ele>163.1</ele>
        <time>2019-08-08T09:24:22Z</time>
      </trkpt>
      <trkpt lat="48.56647" lon="7.53384">
        <ele>163.1</ele>
        <time>2019-08-08T09:24:23Z</time>
      </trkpt>
      <trkpt lat="48.56647" lon="7.53392">
        <ele>163.1</ele>
        <time>2019-08-08T09:24:24Z</time>
      </trkpt>
      <trkpt lat="48.56647" lon="7.53401">
        <ele>163.1</ele>
        <time>2019-08-08T09:24:25Z</time>
      </trkpt>
      <trkpt lat="48.56649" lon="7.5341">
        <ele>163</ele>
        <time>2019-08-08T09:24:26Z</time>
      </trkpt>
      <trkpt lat="48.56649" lon="7.53419">
        <ele>162.9</ele>
        <time>2019-08-08T09:24:27Z</time>
      </trkpt>
      <trkpt lat="48.56649" lon="7.53428">
        <ele>162.8</ele>
        <time>2019-08-08T09:24:28Z</time>
      </trkpt>
      <trkpt lat="48.56647" lon="7.53437">
        <ele>162.7</ele>
        <time>2019-08-08T09:24:29Z</time>
      </trkpt>
      <trkpt lat="48.56646" lon="7.53447">
        <ele>162.6</ele>
        <time>2019-08-08T09:24:30Z</time>
      </trkpt>
      <trkpt lat="48.56646" lon="7.53457">
        <ele>162.5</ele>
        <time>2019-08-08T09:24:31Z</time>
      </trkpt>
      <trkpt lat="48.56646" lon="7.53466">
        <ele>162.4</ele>
        <time>2019-08-08T09:24:32Z</time>
      </trkpt>
      <trkpt lat="48.56647" lon="7.53477">
        <ele>162.3</ele>
        <time>2019-08-08T09:24:33Z</time>
      </trkpt>
      <trkpt lat="48.56648" lon="7.53486">
        <ele>162.2</ele>
        <time>2019-08-08T09:24:34Z</time>
      </trkpt>
      <trkpt lat="48.5665" lon="7.53496">
        <ele>162.1</ele>
        <time>2019-08-08T09:24:35Z</time>
      </trkpt>
      <trkpt lat="48.56651" lon="7.53506">
        <ele>162</ele>
        <time>2019-08-08T09:24:36Z</time>
      </trkpt>
      <trkpt lat="48.56653" lon="7.53519">
        <ele>161.8</ele>
        <time>2019-08-08T09:24:37Z</time>
      </trkpt>
      <trkpt lat="48.56657" lon="7.53531">
        <ele>161.7</ele>
        <time>2019-08-08T09:24:38Z</time>
      </trkpt>
      <trkpt lat="48.56659" lon="7.53543">
        <ele>161.5</ele>
        <time>2019-08-08T09:24:39Z</time>
      </trkpt>
      <trkpt lat="48.56661" lon="7.53556">
        <ele>161.3</ele>
        <time>2019-08-08T09:24:40Z</time>
      </trkpt>
      <trkpt lat="48.56663" lon="7.53568">
        <ele>161.1</ele>
        <time>2019-08-08T09:24:41Z</time>
      </trkpt>
      <trkpt lat="48.56665" lon="7.53579">
        <ele>160.9</ele>
        <time>2019-08-08T09:24:42Z</time>
      </trkpt>
      <trkpt lat="48.56667" lon="7.53588">
        <ele>160.7</ele>
        <time>2019-08-08T09:24:43Z</time>
      </trkpt>
      <trkpt lat="48.5667" lon="7.53595">
        <ele>160.5</ele>
        <time>2019-08-08T09:24:44Z</time>
      </trkpt>
      <trkpt lat="48.56671" lon="7.53604">
        <ele>160.4</ele>
        <time>2019-08-08T09:24:45Z</time>
      </trkpt>
      <trkpt lat="48.56673" lon="7.53613">
        <ele>160.3</ele>
        <time>2019-08-08T09:24:46Z</time>
      </trkpt>
      <trkpt lat="48.56672" lon="7.53622">
        <ele>160.2</ele>
        <time>2019-08-08T09:24:47Z</time>
      </trkpt>
      <trkpt lat="48.56673" lon="7.53629">
        <ele>160.1</ele>
        <time>2019-08-08T09:24:48Z</time>
      </trkpt>
      <trkpt lat="48.56675" lon="7.53638">
        <ele>160</ele>
        <time>2019-08-08T09:24:49Z</time>
      </trkpt>
      <trkpt lat="48.56676" lon="7.53645">
        <ele>160</ele>
        <time>2019-08-08T09:24:50Z</time>
      </trkpt>
      <trkpt lat="48.56677" lon="7.53653">
        <ele>160</ele>
        <time>2019-08-08T09:24:51Z</time>
      </trkpt>
      <trkpt lat="48.56679" lon="7.5366">
        <ele>159.9</ele>
        <time>2019-08-08T09:24:52Z</time>
      </trkpt>
      <trkpt lat="48.56682" lon="7.53666">
        <ele>159.9</ele>
        <time>2019-08-08T09:24:53Z</time>
      </trkpt>
      <trkpt lat="48.56686" lon="7.53674">
        <ele>159.9</ele>
        <time>2019-08-08T09:24:54Z</time>
      </trkpt>
      <trkpt lat="48.56689" lon="7.53681">
        <ele>159.9</ele>
        <time>2019-08-08T09:24:55Z</time>
      </trkpt>
      <trkpt lat="48.56691" lon="7.53687">
        <ele>159.9</ele>
        <time>2019-08-08T09:24:56Z</time>
      </trkpt>
      <trkpt lat="48.56692" lon="7.53694">
        <ele>159.9</ele>
        <time>2019-08-08T09:24:57Z</time>
      </trkpt>
      <trkpt lat="48.56694" lon="7.537">
        <ele>159.9</ele>
        <time>2019-08-08T09:24:58Z</time>
      </trkpt>
      <trkpt lat="48.56697" lon="7.5371">
        <ele>159.9</ele>
        <time>2019-08-08T09:24:59Z</time>
      </trkpt>
      <trkpt lat="48.56701" lon="7.53719">
        <ele>159.9</ele>
        <time>2019-08-08T09:25:00Z</time>
      </trkpt>
      <trkpt lat="48.56707" lon="7.53734">
        <ele>159.9</ele>
        <time>2019-08-08T09:25:01Z</time>
      </trkpt>
      <trkpt lat="48.56709" lon="7.53745">
        <ele>159.9</ele>
        <time>2019-08-08T09:25:02Z</time>
      </trkpt>
      <trkpt lat="48.56712" lon="7.53754">
        <ele>159.9</ele>
        <time>2019-08-08T09:25:03Z</time>
      </trkpt>
      <trkpt lat="48.56714" lon="7.53762">
        <ele>159.9</ele>
        <time>2019-08-08T09:25:04Z</time>
      </trkpt>
      <trkpt lat="48.56716" lon="7.53768">
        <ele>159.9</ele>
        <time>2019-08-08T09:25:05Z</time>
      </trkpt>
      <trkpt lat="48.56717" lon="7.53773">
        <ele>159.9</ele>
        <time>2019-08-08T09:25:06Z</time>
      </trkpt>
      <trkpt lat="48.56718" lon="7.53777">
        <ele>159.9</ele>
        <time>2019-08-08T09:25:07Z</time>
      </trkpt>
      <trkpt lat="48.56718" lon="7.53782">
        <ele>160</ele>
        <time>2019-08-08T09:25:08Z</time>
      </trkpt>
      <trkpt lat="48.56719" lon="7.5379">
        <ele>160</ele>
        <time>2019-08-08T09:25:09Z</time>
      </trkpt>
      <trkpt lat="48.5672" lon="7.53798">
        <ele>160</ele>
        <time>2019-08-08T09:25:10Z</time>
      </trkpt>
      <trkpt lat="48.56721" lon="7.53806">
        <ele>160</ele>
        <time>2019-08-08T09:25:11Z</time>
      </trkpt>
      <trkpt lat="48.56723" lon="7.53813">
        <ele>160</ele>
        <time>2019-08-08T09:25:12Z</time>
      </trkpt>
      <trkpt lat="48.56724" lon="7.53821">
        <ele>160.1</ele>
        <time>2019-08-08T09:25:13Z</time>
      </trkpt>
      <trkpt lat="48.56725" lon="7.53827">
        <ele>160.1</ele>
        <time>2019-08-08T09:25:14Z</time>
      </trkpt>
      <trkpt lat="48.56725" lon="7.5384">
        <ele>160.1</ele>
        <time>2019-08-08T09:25:16Z</time>
      </trkpt>
      <trkpt lat="48.56725" lon="7.53846">
        <ele>160.1</ele>
        <time>2019-08-08T09:25:17Z</time>
      </trkpt>
      <trkpt lat="48.56725" lon="7.53855">
        <ele>160.1</ele>
        <time>2019-08-08T09:25:18Z</time>
      </trkpt>
      <trkpt lat="48.56726" lon="7.53861">
        <ele>160.1</ele>
        <time>2019-08-08T09:25:19Z</time>
      </trkpt>
      <trkpt lat="48.56727" lon="7.53867">
        <ele>160.1</ele>
        <time>2019-08-08T09:25:20Z</time>
      </trkpt>
      <trkpt lat="48.56728" lon="7.53875">
        <ele>160.1</ele>
        <time>2019-08-08T09:25:21Z</time>
      </trkpt>
      <trkpt lat="48.56728" lon="7.53884">
        <ele>160.1</ele>
        <time>2019-08-08T09:25:22Z</time>
      </trkpt>
      <trkpt lat="48.56728" lon="7.53892">
        <ele>160.1</ele>
        <time>2019-08-08T09:25:23Z</time>
      </trkpt>
      <trkpt lat="48.56728" lon="7.539">
        <ele>160.1</ele>
        <time>2019-08-08T09:25:24Z</time>
      </trkpt>
      <trkpt lat="48.56727" lon="7.53908">
        <ele>160.1</ele>
        <time>2019-08-08T09:25:25Z</time>
      </trkpt>
      <trkpt lat="48.56728" lon="7.53916">
        <ele>160.1</ele>
        <time>2019-08-08T09:25:26Z</time>
      </trkpt>
      <trkpt lat="48.56727" lon="7.53923">
        <ele>160.1</ele>
        <time>2019-08-08T09:25:27Z</time>
      </trkpt>
      <trkpt lat="48.56727" lon="7.53929">
        <ele>160.1</ele>
        <time>2019-08-08T09:25:28Z</time>
      </trkpt>
      <trkpt lat="48.56727" lon="7.53937">
        <ele>160.1</ele>
        <time>2019-08-08T09:25:29Z</time>
      </trkpt>
      <trkpt lat="48.56727" lon="7.53945">
        <ele>160.1</ele>
        <time>2019-08-08T09:25:30Z</time>
      </trkpt>
      <trkpt lat="48.56727" lon="7.53956">
        <ele>160.1</ele>
        <time>2019-08-08T09:25:31Z</time>
      </trkpt>
      <trkpt lat="48.56726" lon="7.53963">
        <ele>160.1</ele>
        <time>2019-08-08T09:25:32Z</time>
      </trkpt>
      <trkpt lat="48.56727" lon="7.53971">
        <ele>160.1</ele>
        <time>2019-08-08T09:25:33Z</time>
      </trkpt>
      <trkpt lat="48.56727" lon="7.53978">
        <ele>160.1</ele>
        <time>2019-08-08T09:25:34Z</time>
      </trkpt>
      <trkpt lat="48.56728" lon="7.53983">
        <ele>160.2</ele>
        <time>2019-08-08T09:25:35Z</time>
      </trkpt>
      <trkpt lat="48.56728" lon="7.53987">
        <ele>160.2</ele>
        <time>2019-08-08T09:25:36Z</time>
      </trkpt>
      <trkpt lat="48.56727" lon="7.53995">
        <ele>160.2</ele>
        <time>2019-08-08T09:25:38Z</time>
      </trkpt>
      <trkpt lat="48.56726" lon="7.54001">
        <ele>160.2</ele>
        <time>2019-08-08T09:25:40Z</time>
      </trkpt>
      <trkpt lat="48.56725" lon="7.54008">
        <ele>160.2</ele>
        <time>2019-08-08T09:25:42Z</time>
      </trkpt>
      <trkpt lat="48.56724" lon="7.54013">
        <ele>160.3</ele>
        <time>2019-08-08T09:25:43Z</time>
      </trkpt>
      <trkpt lat="48.56723" lon="7.54017">
        <ele>160.3</ele>
        <time>2019-08-08T09:25:44Z</time>
      </trkpt>
      <trkpt lat="48.56723" lon="7.54023">
        <ele>160.3</ele>
        <time>2019-08-08T09:25:45Z</time>
      </trkpt>
      <trkpt lat="48.56723" lon="7.54033">
        <ele>160.3</ele>
        <time>2019-08-08T09:25:47Z</time>
      </trkpt>
      <trkpt lat="48.56724" lon="7.5404">
        <ele>160.3</ele>
        <time>2019-08-08T09:25:48Z</time>
      </trkpt>
      <trkpt lat="48.56724" lon="7.54049">
        <ele>160.4</ele>
        <time>2019-08-08T09:25:49Z</time>
      </trkpt>
      <trkpt lat="48.56724" lon="7.54058">
        <ele>160.4</ele>
        <time>2019-08-08T09:25:50Z</time>
      </trkpt>
      <trkpt lat="48.56725" lon="7.54065">
        <ele>160.4</ele>
        <time>2019-08-08T09:25:51Z</time>
      </trkpt>
      <trkpt lat="48.56725" lon="7.54073">
        <ele>160.5</ele>
        <time>2019-08-08T09:25:52Z</time>
      </trkpt>
      <trkpt lat="48.56726" lon="7.54079">
        <ele>160.5</ele>
        <time>2019-08-08T09:25:53Z</time>
      </trkpt>
      <trkpt lat="48.56728" lon="7.54086">
        <ele>160.5</ele>
        <time>2019-08-08T09:25:54Z</time>
      </trkpt>
      <trkpt lat="48.56729" lon="7.54092">
        <ele>160.6</ele>
        <time>2019-08-08T09:25:55Z</time>
      </trkpt>
      <trkpt lat="48.56728" lon="7.54097">
        <ele>160.6</ele>
        <time>2019-08-08T09:25:56Z</time>
      </trkpt>
      <trkpt lat="48.56728" lon="7.54103">
        <ele>160.6</ele>
        <time>2019-08-08T09:25:57Z</time>
      </trkpt>
      <trkpt lat="48.56728" lon="7.5411">
        <ele>160.6</ele>
        <time>2019-08-08T09:25:58Z</time>
      </trkpt>
      <trkpt lat="48.5673" lon="7.54119">
        <ele>160.7</ele>
        <time>2019-08-08T09:25:59Z</time>
      </trkpt>
      <trkpt lat="48.5673" lon="7.54126">
        <ele>160.7</ele>
        <time>2019-08-08T09:26:00Z</time>
      </trkpt>
      <trkpt lat="48.56729" lon="7.54131">
        <ele>160.7</ele>
        <time>2019-08-08T09:26:01Z</time>
      </trkpt>
      <trkpt lat="48.56729" lon="7.54136">
        <ele>160.8</ele>
        <time>2019-08-08T09:26:02Z</time>
      </trkpt>
      <trkpt lat="48.56729" lon="7.54142">
        <ele>160.8</ele>
        <time>2019-08-08T09:26:03Z</time>
      </trkpt>
      <trkpt lat="48.56729" lon="7.5415">
        <ele>160.8</ele>
        <time>2019-08-08T09:26:04Z</time>
      </trkpt>
      <trkpt lat="48.56729" lon="7.54158">
        <ele>160.9</ele>
        <time>2019-08-08T09:26:05Z</time>
      </trkpt>
      <trkpt lat="48.5673" lon="7.54165">
        <ele>160.9</ele>
        <time>2019-08-08T09:26:06Z</time>
      </trkpt>
      <trkpt lat="48.5673" lon="7.54174">
        <ele>161</ele>
        <time>2019-08-08T09:26:07Z</time>
      </trkpt>
      <trkpt lat="48.5673" lon="7.54182">
        <ele>161.1</ele>
        <time>2019-08-08T09:26:08Z</time>
      </trkpt>
      <trkpt lat="48.5673" lon="7.54186">
        <ele>161.1</ele>
        <time>2019-08-08T09:26:09Z</time>
      </trkpt>
      <trkpt lat="48.56731" lon="7.54195">
        <ele>161.2</ele>
        <time>2019-08-08T09:26:10Z</time>
      </trkpt>
      <trkpt lat="48.56732" lon="7.54201">
        <ele>161.3</ele>
        <time>2019-08-08T09:26:11Z</time>
      </trkpt>
      <trkpt lat="48.56733" lon="7.54211">
        <ele>161.4</ele>
        <time>2019-08-08T09:26:12Z</time>
      </trkpt>
      <trkpt lat="48.56734" lon="7.5422">
        <ele>161.5</ele>
        <time>2019-08-08T09:26:13Z</time>
      </trkpt>
      <trkpt lat="48.56735" lon="7.54227">
        <ele>161.6</ele>
        <time>2019-08-08T09:26:14Z</time>
      </trkpt>
      <trkpt lat="48.56736" lon="7.54234">
        <ele>161.7</ele>
        <time>2019-08-08T09:26:15Z</time>
      </trkpt>
      <trkpt lat="48.56736" lon="7.54241">
        <ele>161.7</ele>
        <time>2019-08-08T09:26:16Z</time>
      </trkpt>
      <trkpt lat="48.56736" lon="7.54249">
        <ele>161.8</ele>
        <time>2019-08-08T09:26:17Z</time>
      </trkpt>
      <trkpt lat="48.56736" lon="7.54255">
        <ele>161.8</ele>
        <time>2019-08-08T09:26:18Z</time>
      </trkpt>
      <trkpt lat="48.56735" lon="7.54264">
        <ele>161.9</ele>
        <time>2019-08-08T09:26:19Z</time>
      </trkpt>
      <trkpt lat="48.56735" lon="7.54273">
        <ele>161.9</ele>
        <time>2019-08-08T09:26:20Z</time>
      </trkpt>
      <trkpt lat="48.56736" lon="7.5428">
        <ele>162</ele>
        <time>2019-08-08T09:26:21Z</time>
      </trkpt>
      <trkpt lat="48.56736" lon="7.54287">
        <ele>162</ele>
        <time>2019-08-08T09:26:22Z</time>
      </trkpt>
      <trkpt lat="48.56736" lon="7.54294">
        <ele>162</ele>
        <time>2019-08-08T09:26:23Z</time>
      </trkpt>
      <trkpt lat="48.56737" lon="7.54302">
        <ele>162.1</ele>
        <time>2019-08-08T09:26:24Z</time>
      </trkpt>
      <trkpt lat="48.56737" lon="7.54307">
        <ele>162.1</ele>
        <time>2019-08-08T09:26:25Z</time>
      </trkpt>
      <trkpt lat="48.56738" lon="7.54315">
        <ele>162.1</ele>
        <time>2019-08-08T09:26:26Z</time>
      </trkpt>
      <trkpt lat="48.56739" lon="7.54321">
        <ele>162.1</ele>
        <time>2019-08-08T09:26:27Z</time>
      </trkpt>
      <trkpt lat="48.56739" lon="7.54327">
        <ele>162.1</ele>
        <time>2019-08-08T09:26:28Z</time>
      </trkpt>
      <trkpt lat="48.5674" lon="7.54335">
        <ele>162.1</ele>
        <time>2019-08-08T09:26:29Z</time>
      </trkpt>
      <trkpt lat="48.5674" lon="7.54341">
        <ele>162.1</ele>
        <time>2019-08-08T09:26:30Z</time>
      </trkpt>
      <trkpt lat="48.56741" lon="7.54347">
        <ele>162.1</ele>
        <time>2019-08-08T09:26:31Z</time>
      </trkpt>
      <trkpt lat="48.56743" lon="7.54357">
        <ele>162.1</ele>
        <time>2019-08-08T09:26:32Z</time>
      </trkpt>
      <trkpt lat="48.56744" lon="7.54366">
        <ele>162</ele>
        <time>2019-08-08T09:26:33Z</time>
      </trkpt>
      <trkpt lat="48.56745" lon="7.54374">
        <ele>162</ele>
        <time>2019-08-08T09:26:34Z</time>
      </trkpt>
      <trkpt lat="48.56745" lon="7.54383">
        <ele>162</ele>
        <time>2019-08-08T09:26:35Z</time>
      </trkpt>
      <trkpt lat="48.56747" lon="7.54392">
        <ele>162</ele>
        <time>2019-08-08T09:26:36Z</time>
      </trkpt>
      <trkpt lat="48.56747" lon="7.54399">
        <ele>162</ele>
        <time>2019-08-08T09:26:37Z</time>
      </trkpt>
      <trkpt lat="48.56746" lon="7.54407">
        <ele>161.9</ele>
        <time>2019-08-08T09:26:38Z</time>
      </trkpt>
      <trkpt lat="48.56746" lon="7.54418">
        <ele>161.9</ele>
        <time>2019-08-08T09:26:39Z</time>
      </trkpt>
      <trkpt lat="48.56747" lon="7.54423">
        <ele>161.9</ele>
        <time>2019-08-08T09:26:40Z</time>
      </trkpt>
      <trkpt lat="48.56747" lon="7.5443">
        <ele>161.9</ele>
        <time>2019-08-08T09:26:41Z</time>
      </trkpt>
      <trkpt lat="48.56747" lon="7.54437">
        <ele>161.9</ele>
        <time>2019-08-08T09:26:42Z</time>
      </trkpt>
      <trkpt lat="48.56748" lon="7.54443">
        <ele>161.9</ele>
        <time>2019-08-08T09:26:43Z</time>
      </trkpt>
      <trkpt lat="48.56749" lon="7.54451">
        <ele>161.8</ele>
        <time>2019-08-08T09:26:44Z</time>
      </trkpt>
      <trkpt lat="48.56749" lon="7.54459">
        <ele>161.8</ele>
        <time>2019-08-08T09:26:45Z</time>
      </trkpt>
      <trkpt lat="48.5675" lon="7.54468">
        <ele>161.8</ele>
        <time>2019-08-08T09:26:46Z</time>
      </trkpt>
      <trkpt lat="48.5675" lon="7.54478">
        <ele>161.8</ele>
        <time>2019-08-08T09:26:47Z</time>
      </trkpt>
      <trkpt lat="48.56752" lon="7.54487">
        <ele>161.8</ele>
        <time>2019-08-08T09:26:48Z</time>
      </trkpt>
      <trkpt lat="48.56752" lon="7.54497">
        <ele>161.7</ele>
        <time>2019-08-08T09:26:49Z</time>
      </trkpt>
      <trkpt lat="48.56753" lon="7.54506">
        <ele>161.7</ele>
        <time>2019-08-08T09:26:50Z</time>
      </trkpt>
      <trkpt lat="48.56753" lon="7.54514">
        <ele>161.7</ele>
        <time>2019-08-08T09:26:51Z</time>
      </trkpt>
      <trkpt lat="48.56752" lon="7.54522">
        <ele>161.7</ele>
        <time>2019-08-08T09:26:52Z</time>
      </trkpt>
      <trkpt lat="48.56752" lon="7.54528">
        <ele>161.7</ele>
        <time>2019-08-08T09:26:53Z</time>
      </trkpt>
      <trkpt lat="48.56751" lon="7.54536">
        <ele>161.7</ele>
        <time>2019-08-08T09:26:54Z</time>
      </trkpt>
      <trkpt lat="48.5675" lon="7.54544">
        <ele>161.7</ele>
        <time>2019-08-08T09:26:55Z</time>
      </trkpt>
      <trkpt lat="48.5675" lon="7.54554">
        <ele>161.7</ele>
        <time>2019-08-08T09:26:56Z</time>
      </trkpt>
      <trkpt lat="48.5675" lon="7.54562">
        <ele>161.7</ele>
        <time>2019-08-08T09:26:57Z</time>
      </trkpt>
      <trkpt lat="48.56751" lon="7.54571">
        <ele>161.6</ele>
        <time>2019-08-08T09:26:58Z</time>
      </trkpt>
      <trkpt lat="48.56752" lon="7.5458">
        <ele>161.6</ele>
        <time>2019-08-08T09:26:59Z</time>
      </trkpt>
      <trkpt lat="48.56753" lon="7.54588">
        <ele>161.6</ele>
        <time>2019-08-08T09:27:00Z</time>
      </trkpt>
      <trkpt lat="48.56753" lon="7.54596">
        <ele>161.6</ele>
        <time>2019-08-08T09:27:01Z</time>
      </trkpt>
      <trkpt lat="48.56754" lon="7.54604">
        <ele>161.5</ele>
        <time>2019-08-08T09:27:02Z</time>
      </trkpt>
      <trkpt lat="48.56756" lon="7.54613">
        <ele>161.5</ele>
        <time>2019-08-08T09:27:03Z</time>
      </trkpt>
      <trkpt lat="48.56756" lon="7.54622">
        <ele>161.5</ele>
        <time>2019-08-08T09:27:04Z</time>
      </trkpt>
      <trkpt lat="48.56756" lon="7.54629">
        <ele>161.5</ele>
        <time>2019-08-08T09:27:05Z</time>
      </trkpt>
      <trkpt lat="48.56758" lon="7.54637">
        <ele>161.5</ele>
        <time>2019-08-08T09:27:06Z</time>
      </trkpt>
      <trkpt lat="48.56759" lon="7.54643">
        <ele>161.5</ele>
        <time>2019-08-08T09:27:07Z</time>
      </trkpt>
      <trkpt lat="48.5676" lon="7.5465">
        <ele>161.5</ele>
        <time>2019-08-08T09:27:08Z</time>
      </trkpt>
      <trkpt lat="48.56761" lon="7.54656">
        <ele>161.5</ele>
        <time>2019-08-08T09:27:09Z</time>
      </trkpt>
      <trkpt lat="48.5676" lon="7.54669">
        <ele>161.5</ele>
        <time>2019-08-08T09:27:11Z</time>
      </trkpt>
      <trkpt lat="48.5676" lon="7.54674">
        <ele>161.5</ele>
        <time>2019-08-08T09:27:12Z</time>
      </trkpt>
      <trkpt lat="48.56761" lon="7.54684">
        <ele>161.5</ele>
        <time>2019-08-08T09:27:13Z</time>
      </trkpt>
      <trkpt lat="48.56761" lon="7.54689">
        <ele>161.5</ele>
        <time>2019-08-08T09:27:14Z</time>
      </trkpt>
      <trkpt lat="48.56758" lon="7.54699">
        <ele>161.5</ele>
        <time>2019-08-08T09:27:15Z</time>
      </trkpt>
      <trkpt lat="48.56755" lon="7.54709">
        <ele>161.5</ele>
        <time>2019-08-08T09:27:16Z</time>
      </trkpt>
      <trkpt lat="48.56751" lon="7.54719">
        <ele>161.5</ele>
        <time>2019-08-08T09:27:17Z</time>
      </trkpt>
      <trkpt lat="48.56749" lon="7.54726">
        <ele>161.5</ele>
        <time>2019-08-08T09:27:18Z</time>
      </trkpt>
      <trkpt lat="48.56747" lon="7.54732">
        <ele>161.6</ele>
        <time>2019-08-08T09:27:19Z</time>
      </trkpt>
      <trkpt lat="48.56745" lon="7.54738">
        <ele>161.6</ele>
        <time>2019-08-08T09:27:20Z</time>
      </trkpt>
      <trkpt lat="48.56744" lon="7.54744">
        <ele>161.6</ele>
        <time>2019-08-08T09:27:21Z</time>
      </trkpt>
      <trkpt lat="48.56741" lon="7.54751">
        <ele>161.6</ele>
        <time>2019-08-08T09:27:22Z</time>
      </trkpt>
      <trkpt lat="48.56739" lon="7.54759">
        <ele>161.6</ele>
        <time>2019-08-08T09:27:23Z</time>
      </trkpt>
      <trkpt lat="48.56737" lon="7.54765">
        <ele>161.6</ele>
        <time>2019-08-08T09:27:24Z</time>
      </trkpt>
      <trkpt lat="48.56734" lon="7.5477">
        <ele>161.7</ele>
        <time>2019-08-08T09:27:25Z</time>
      </trkpt>
      <trkpt lat="48.56732" lon="7.54775">
        <ele>161.7</ele>
        <time>2019-08-08T09:27:26Z</time>
      </trkpt>
      <trkpt lat="48.56731" lon="7.5478">
        <ele>161.7</ele>
        <time>2019-08-08T09:27:27Z</time>
      </trkpt>
      <trkpt lat="48.5673" lon="7.54785">
        <ele>161.7</ele>
        <time>2019-08-08T09:27:28Z</time>
      </trkpt>
      <trkpt lat="48.56729" lon="7.5479">
        <ele>161.7</ele>
        <time>2019-08-08T09:27:29Z</time>
      </trkpt>
      <trkpt lat="48.56727" lon="7.54795">
        <ele>161.7</ele>
        <time>2019-08-08T09:27:30Z</time>
      </trkpt>
      <trkpt lat="48.56724" lon="7.54801">
        <ele>161.7</ele>
        <time>2019-08-08T09:27:31Z</time>
      </trkpt>
      <trkpt lat="48.56722" lon="7.54806">
        <ele>161.7</ele>
        <time>2019-08-08T09:27:32Z</time>
      </trkpt>
      <trkpt lat="48.56719" lon="7.54815">
        <ele>161.7</ele>
        <time>2019-08-08T09:27:33Z</time>
      </trkpt>
      <trkpt lat="48.56716" lon="7.5482">
        <ele>161.7</ele>
        <time>2019-08-08T09:27:34Z</time>
      </trkpt>
      <trkpt lat="48.56713" lon="7.54828">
        <ele>161.7</ele>
        <time>2019-08-08T09:27:35Z</time>
      </trkpt>
      <trkpt lat="48.5671" lon="7.54836">
        <ele>161.7</ele>
        <time>2019-08-08T09:27:36Z</time>
      </trkpt>
      <trkpt lat="48.56708" lon="7.54845">
        <ele>161.7</ele>
        <time>2019-08-08T09:27:37Z</time>
      </trkpt>
      <trkpt lat="48.56705" lon="7.54855">
        <ele>161.7</ele>
        <time>2019-08-08T09:27:38Z</time>
      </trkpt>
      <trkpt lat="48.56703" lon="7.54864">
        <ele>161.7</ele>
        <time>2019-08-08T09:27:39Z</time>
      </trkpt>
      <trkpt lat="48.567" lon="7.5487">
        <ele>161.7</ele>
        <time>2019-08-08T09:27:40Z</time>
      </trkpt>
      <trkpt lat="48.56698" lon="7.54879">
        <ele>161.7</ele>
        <time>2019-08-08T09:27:41Z</time>
      </trkpt>
      <trkpt lat="48.56696" lon="7.54886">
        <ele>161.7</ele>
        <time>2019-08-08T09:27:42Z</time>
      </trkpt>
      <trkpt lat="48.56692" lon="7.54893">
        <ele>161.6</ele>
        <time>2019-08-08T09:27:43Z</time>
      </trkpt>
      <trkpt lat="48.56688" lon="7.549">
        <ele>161.6</ele>
        <time>2019-08-08T09:27:44Z</time>
      </trkpt>
      <trkpt lat="48.56685" lon="7.54906">
        <ele>161.5</ele>
        <time>2019-08-08T09:27:45Z</time>
      </trkpt>
      <trkpt lat="48.56682" lon="7.54915">
        <ele>161.5</ele>
        <time>2019-08-08T09:27:46Z</time>
      </trkpt>
      <trkpt lat="48.56678" lon="7.54923">
        <ele>161.3</ele>
        <time>2019-08-08T09:27:47Z</time>
      </trkpt>
      <trkpt lat="48.56674" lon="7.54929">
        <ele>161.2</ele>
        <time>2019-08-08T09:27:48Z</time>
      </trkpt>
      <trkpt lat="48.56669" lon="7.54934">
        <ele>161</ele>
        <time>2019-08-08T09:27:49Z</time>
      </trkpt>
      <trkpt lat="48.56666" lon="7.5494">
        <ele>160.9</ele>
        <time>2019-08-08T09:27:50Z</time>
      </trkpt>
      <trkpt lat="48.56663" lon="7.54945">
        <ele>160.8</ele>
        <time>2019-08-08T09:27:51Z</time>
      </trkpt>
      <trkpt lat="48.56659" lon="7.54949">
        <ele>160.6</ele>
        <time>2019-08-08T09:27:52Z</time>
      </trkpt>
      <trkpt lat="48.56656" lon="7.54953">
        <ele>160.5</ele>
        <time>2019-08-08T09:27:53Z</time>
      </trkpt>
      <trkpt lat="48.56652" lon="7.54956">
        <ele>160.4</ele>
        <time>2019-08-08T09:27:54Z</time>
      </trkpt>
      <trkpt lat="48.56648" lon="7.54961">
        <ele>160.3</ele>
        <time>2019-08-08T09:27:55Z</time>
      </trkpt>
      <trkpt lat="48.56643" lon="7.54966">
        <ele>160.2</ele>
        <time>2019-08-08T09:27:56Z</time>
      </trkpt>
      <trkpt lat="48.56638" lon="7.54971">
        <ele>160.1</ele>
        <time>2019-08-08T09:27:57Z</time>
      </trkpt>
      <trkpt lat="48.56634" lon="7.54976">
        <ele>160</ele>
        <time>2019-08-08T09:27:58Z</time>
      </trkpt>
      <trkpt lat="48.5663" lon="7.5498">
        <ele>159.9</ele>
        <time>2019-08-08T09:27:59Z</time>
      </trkpt>
      <trkpt lat="48.56626" lon="7.54984">
        <ele>159.9</ele>
        <time>2019-08-08T09:28:00Z</time>
      </trkpt>
      <trkpt lat="48.56623" lon="7.54986">
        <ele>159.8</ele>
        <time>2019-08-08T09:28:01Z</time>
      </trkpt>
      <trkpt lat="48.56619" lon="7.5499">
        <ele>159.8</ele>
        <time>2019-08-08T09:28:02Z</time>
      </trkpt>
      <trkpt lat="48.56616" lon="7.54994">
        <ele>159.7</ele>
        <time>2019-08-08T09:28:03Z</time>
      </trkpt>
      <trkpt lat="48.56611" lon="7.54997">
        <ele>159.7</ele>
        <time>2019-08-08T09:28:04Z</time>
      </trkpt>
      <trkpt lat="48.56607" lon="7.55001">
        <ele>159.6</ele>
        <time>2019-08-08T09:28:05Z</time>
      </trkpt>
      <trkpt lat="48.56602" lon="7.55004">
        <ele>159.6</ele>
        <time>2019-08-08T09:28:06Z</time>
      </trkpt>
      <trkpt lat="48.56598" lon="7.55006">
        <ele>159.6</ele>
        <time>2019-08-08T09:28:07Z</time>
      </trkpt>
      <trkpt lat="48.56595" lon="7.55009">
        <ele>159.6</ele>
        <time>2019-08-08T09:28:08Z</time>
      </trkpt>
      <trkpt lat="48.56592" lon="7.5501">
        <ele>159.6</ele>
        <time>2019-08-08T09:28:09Z</time>
      </trkpt>
      <trkpt lat="48.56589" lon="7.55012">
        <ele>159.6</ele>
        <time>2019-08-08T09:28:10Z</time>
      </trkpt>
      <trkpt lat="48.56585" lon="7.55014">
        <ele>159.5</ele>
        <time>2019-08-08T09:28:11Z</time>
      </trkpt>
      <trkpt lat="48.56582" lon="7.55017">
        <ele>159.5</ele>
        <time>2019-08-08T09:28:12Z</time>
      </trkpt>
      <trkpt lat="48.56577" lon="7.55021">
        <ele>159.5</ele>
        <time>2019-08-08T09:28:13Z</time>
      </trkpt>
      <trkpt lat="48.56572" lon="7.55027">
        <ele>159.5</ele>
        <time>2019-08-08T09:28:14Z</time>
      </trkpt>
      <trkpt lat="48.5657" lon="7.55031">
        <ele>159.5</ele>
        <time>2019-08-08T09:28:15Z</time>
      </trkpt>
      <trkpt lat="48.56566" lon="7.55036">
        <ele>159.5</ele>
        <time>2019-08-08T09:28:16Z</time>
      </trkpt>
      <trkpt lat="48.56563" lon="7.5504">
        <ele>159.5</ele>
        <time>2019-08-08T09:28:17Z</time>
      </trkpt>
      <trkpt lat="48.5656" lon="7.55044">
        <ele>159.5</ele>
        <time>2019-08-08T09:28:18Z</time>
      </trkpt>
      <trkpt lat="48.56557" lon="7.55049">
        <ele>159.5</ele>
        <time>2019-08-08T09:28:19Z</time>
      </trkpt>
      <trkpt lat="48.56555" lon="7.55055">
        <ele>159.5</ele>
        <time>2019-08-08T09:28:20Z</time>
      </trkpt>
      <trkpt lat="48.56553" lon="7.55062">
        <ele>159.5</ele>
        <time>2019-08-08T09:28:21Z</time>
      </trkpt>
      <trkpt lat="48.56551" lon="7.55068">
        <ele>159.5</ele>
        <time>2019-08-08T09:28:22Z</time>
      </trkpt>
      <trkpt lat="48.56549" lon="7.55075">
        <ele>159.5</ele>
        <time>2019-08-08T09:28:23Z</time>
      </trkpt>
      <trkpt lat="48.56546" lon="7.55082">
        <ele>159.5</ele>
        <time>2019-08-08T09:28:24Z</time>
      </trkpt>
      <trkpt lat="48.56545" lon="7.55089">
        <ele>159.5</ele>
        <time>2019-08-08T09:28:25Z</time>
      </trkpt>
      <trkpt lat="48.56543" lon="7.55096">
        <ele>159.5</ele>
        <time>2019-08-08T09:28:26Z</time>
      </trkpt>
      <trkpt lat="48.56539" lon="7.55104">
        <ele>159.5</ele>
        <time>2019-08-08T09:28:27Z</time>
      </trkpt>
      <trkpt lat="48.56536" lon="7.55113">
        <ele>159.5</ele>
        <time>2019-08-08T09:28:28Z</time>
      </trkpt>
      <trkpt lat="48.56532" lon="7.5512">
        <ele>159.5</ele>
        <time>2019-08-08T09:28:29Z</time>
      </trkpt>
      <trkpt lat="48.5653" lon="7.55126">
        <ele>159.5</ele>
        <time>2019-08-08T09:28:30Z</time>
      </trkpt>
      <trkpt lat="48.56529" lon="7.55133">
        <ele>159.5</ele>
        <time>2019-08-08T09:28:31Z</time>
      </trkpt>
      <trkpt lat="48.56527" lon="7.55141">
        <ele>159.5</ele>
        <time>2019-08-08T09:28:32Z</time>
      </trkpt>
      <trkpt lat="48.56526" lon="7.55149">
        <ele>159.5</ele>
        <time>2019-08-08T09:28:33Z</time>
      </trkpt>
      <trkpt lat="48.56525" lon="7.55154">
        <ele>159.5</ele>
        <time>2019-08-08T09:28:34Z</time>
      </trkpt>
      <trkpt lat="48.56524" lon="7.55159">
        <ele>159.5</ele>
        <time>2019-08-08T09:28:35Z</time>
      </trkpt>
      <trkpt lat="48.56523" lon="7.55165">
        <ele>159.5</ele>
        <time>2019-08-08T09:28:36Z</time>
      </trkpt>
      <trkpt lat="48.56521" lon="7.55171">
        <ele>159.6</ele>
        <time>2019-08-08T09:28:37Z</time>
      </trkpt>
      <trkpt lat="48.5652" lon="7.5518">
        <ele>159.6</ele>
        <time>2019-08-08T09:28:38Z</time>
      </trkpt>
      <trkpt lat="48.56518" lon="7.55189">
        <ele>159.6</ele>
        <time>2019-08-08T09:28:39Z</time>
      </trkpt>
      <trkpt lat="48.56517" lon="7.552">
        <ele>159.6</ele>
        <time>2019-08-08T09:28:40Z</time>
      </trkpt>
      <trkpt lat="48.56516" lon="7.55208">
        <ele>159.6</ele>
        <time>2019-08-08T09:28:41Z</time>
      </trkpt>
      <trkpt lat="48.56516" lon="7.55217">
        <ele>159.6</ele>
        <time>2019-08-08T09:28:42Z</time>
      </trkpt>
      <trkpt lat="48.56517" lon="7.55226">
        <ele>159.7</ele>
        <time>2019-08-08T09:28:43Z</time>
      </trkpt>
      <trkpt lat="48.56516" lon="7.55233">
        <ele>159.7</ele>
        <time>2019-08-08T09:28:44Z</time>
      </trkpt>
      <trkpt lat="48.56516" lon="7.55238">
        <ele>159.7</ele>
        <time>2019-08-08T09:28:45Z</time>
      </trkpt>
      <trkpt lat="48.56516" lon="7.55243">
        <ele>159.7</ele>
        <time>2019-08-08T09:28:46Z</time>
      </trkpt>
      <trkpt lat="48.56516" lon="7.5525">
        <ele>159.7</ele>
        <time>2019-08-08T09:28:47Z</time>
      </trkpt>
      <trkpt lat="48.56514" lon="7.55257">
        <ele>159.7</ele>
        <time>2019-08-08T09:28:48Z</time>
      </trkpt>
      <trkpt lat="48.56513" lon="7.55265">
        <ele>159.8</ele>
        <time>2019-08-08T09:28:49Z</time>
      </trkpt>
      <trkpt lat="48.56513" lon="7.55272">
        <ele>159.8</ele>
        <time>2019-08-08T09:28:50Z</time>
      </trkpt>
      <trkpt lat="48.56512" lon="7.55279">
        <ele>159.8</ele>
        <time>2019-08-08T09:28:51Z</time>
      </trkpt>
      <trkpt lat="48.56511" lon="7.55284">
        <ele>159.8</ele>
        <time>2019-08-08T09:28:52Z</time>
      </trkpt>
      <trkpt lat="48.56508" lon="7.5529">
        <ele>159.9</ele>
        <time>2019-08-08T09:28:53Z</time>
      </trkpt>
      <trkpt lat="48.56505" lon="7.55297">
        <ele>159.9</ele>
        <time>2019-08-08T09:28:54Z</time>
      </trkpt>
      <trkpt lat="48.56503" lon="7.55303">
        <ele>159.9</ele>
        <time>2019-08-08T09:28:55Z</time>
      </trkpt>
      <trkpt lat="48.565" lon="7.55311">
        <ele>159.9</ele>
        <time>2019-08-08T09:28:56Z</time>
      </trkpt>
      <trkpt lat="48.56498" lon="7.55316">
        <ele>160</ele>
        <time>2019-08-08T09:28:57Z</time>
      </trkpt>
      <trkpt lat="48.56496" lon="7.55324">
        <ele>160</ele>
        <time>2019-08-08T09:28:58Z</time>
      </trkpt>
      <trkpt lat="48.56494" lon="7.55334">
        <ele>160</ele>
        <time>2019-08-08T09:28:59Z</time>
      </trkpt>
      <trkpt lat="48.56491" lon="7.55343">
        <ele>160.1</ele>
        <time>2019-08-08T09:29:00Z</time>
      </trkpt>
      <trkpt lat="48.56489" lon="7.55352">
        <ele>160.1</ele>
        <time>2019-08-08T09:29:01Z</time>
      </trkpt>
      <trkpt lat="48.56486" lon="7.5536">
        <ele>160.1</ele>
        <time>2019-08-08T09:29:02Z</time>
      </trkpt>
      <trkpt lat="48.56485" lon="7.55369">
        <ele>160.1</ele>
        <time>2019-08-08T09:29:03Z</time>
      </trkpt>
      <trkpt lat="48.56483" lon="7.55377">
        <ele>160.1</ele>
        <time>2019-08-08T09:29:04Z</time>
      </trkpt>
      <trkpt lat="48.56482" lon="7.55386">
        <ele>160.1</ele>
        <time>2019-08-08T09:29:05Z</time>
      </trkpt>
      <trkpt lat="48.5648" lon="7.55393">
        <ele>160.1</ele>
        <time>2019-08-08T09:29:06Z</time>
      </trkpt>
      <trkpt lat="48.56478" lon="7.55398">
        <ele>160.1</ele>
        <time>2019-08-08T09:29:07Z</time>
      </trkpt>
      <trkpt lat="48.56475" lon="7.55402">
        <ele>160.1</ele>
        <time>2019-08-08T09:29:08Z</time>
      </trkpt>
      <trkpt lat="48.56471" lon="7.55406">
        <ele>160</ele>
        <time>2019-08-08T09:29:09Z</time>
      </trkpt>
      <trkpt lat="48.56467" lon="7.55411">
        <ele>160</ele>
        <time>2019-08-08T09:29:10Z</time>
      </trkpt>
      <trkpt lat="48.56464" lon="7.55417">
        <ele>159.9</ele>
        <time>2019-08-08T09:29:11Z</time>
      </trkpt>
      <trkpt lat="48.56459" lon="7.55423">
        <ele>159.8</ele>
        <time>2019-08-08T09:29:12Z</time>
      </trkpt>
      <trkpt lat="48.56456" lon="7.5543">
        <ele>159.6</ele>
        <time>2019-08-08T09:29:13Z</time>
      </trkpt>
      <trkpt lat="48.56452" lon="7.55436">
        <ele>159.5</ele>
        <time>2019-08-08T09:29:14Z</time>
      </trkpt>
      <trkpt lat="48.56451" lon="7.55443">
        <ele>159.4</ele>
        <time>2019-08-08T09:29:15Z</time>
      </trkpt>
      <trkpt lat="48.56449" lon="7.55448">
        <ele>159.3</ele>
        <time>2019-08-08T09:29:16Z</time>
      </trkpt>
      <trkpt lat="48.56446" lon="7.55456">
        <ele>159.1</ele>
        <time>2019-08-08T09:29:17Z</time>
      </trkpt>
      <trkpt lat="48.56444" lon="7.55463">
        <ele>159</ele>
        <time>2019-08-08T09:29:18Z</time>
      </trkpt>
      <trkpt lat="48.56442" lon="7.55469">
        <ele>158.9</ele>
        <time>2019-08-08T09:29:19Z</time>
      </trkpt>
      <trkpt lat="48.5644" lon="7.55477">
        <ele>158.7</ele>
        <time>2019-08-08T09:29:20Z</time>
      </trkpt>
      <trkpt lat="48.56437" lon="7.55485">
        <ele>158.6</ele>
        <time>2019-08-08T09:29:21Z</time>
      </trkpt>
      <trkpt lat="48.56435" lon="7.55494">
        <ele>158.5</ele>
        <time>2019-08-08T09:29:22Z</time>
      </trkpt>
      <trkpt lat="48.56433" lon="7.55501">
        <ele>158.4</ele>
        <time>2019-08-08T09:29:23Z</time>
      </trkpt>
      <trkpt lat="48.56431" lon="7.55507">
        <ele>158.4</ele>
        <time>2019-08-08T09:29:24Z</time>
      </trkpt>
      <trkpt lat="48.56429" lon="7.55512">
        <ele>158.3</ele>
        <time>2019-08-08T09:29:25Z</time>
      </trkpt>
      <trkpt lat="48.56427" lon="7.55519">
        <ele>158.3</ele>
        <time>2019-08-08T09:29:26Z</time>
      </trkpt>
      <trkpt lat="48.56425" lon="7.55525">
        <ele>158.2</ele>
        <time>2019-08-08T09:29:27Z</time>
      </trkpt>
      <trkpt lat="48.56422" lon="7.5553">
        <ele>158.2</ele>
        <time>2019-08-08T09:29:28Z</time>
      </trkpt>
      <trkpt lat="48.5642" lon="7.55535">
        <ele>158.2</ele>
        <time>2019-08-08T09:29:29Z</time>
      </trkpt>
      <trkpt lat="48.56417" lon="7.5554">
        <ele>158.2</ele>
        <time>2019-08-08T09:29:30Z</time>
      </trkpt>
      <trkpt lat="48.56416" lon="7.55546">
        <ele>158.2</ele>
        <time>2019-08-08T09:29:31Z</time>
      </trkpt>
      <trkpt lat="48.56413" lon="7.55551">
        <ele>158.2</ele>
        <time>2019-08-08T09:29:32Z</time>
      </trkpt>
      <trkpt lat="48.5641" lon="7.55557">
        <ele>158.2</ele>
        <time>2019-08-08T09:29:33Z</time>
      </trkpt>
      <trkpt lat="48.56408" lon="7.55562">
        <ele>158.2</ele>
        <time>2019-08-08T09:29:34Z</time>
      </trkpt>
      <trkpt lat="48.56406" lon="7.55568">
        <ele>158.2</ele>
        <time>2019-08-08T09:29:35Z</time>
      </trkpt>
      <trkpt lat="48.56404" lon="7.55575">
        <ele>158.3</ele>
        <time>2019-08-08T09:29:36Z</time>
      </trkpt>
      <trkpt lat="48.56401" lon="7.55581">
        <ele>158.3</ele>
        <time>2019-08-08T09:29:37Z</time>
      </trkpt>
      <trkpt lat="48.56399" lon="7.55586">
        <ele>158.4</ele>
        <time>2019-08-08T09:29:38Z</time>
      </trkpt>
      <trkpt lat="48.56396" lon="7.55591">
        <ele>158.5</ele>
        <time>2019-08-08T09:29:39Z</time>
      </trkpt>
      <trkpt lat="48.56394" lon="7.55596">
        <ele>158.6</ele>
        <time>2019-08-08T09:29:40Z</time>
      </trkpt>
      <trkpt lat="48.56391" lon="7.55602">
        <ele>158.7</ele>
        <time>2019-08-08T09:29:41Z</time>
      </trkpt>
      <trkpt lat="48.56388" lon="7.55609">
        <ele>158.8</ele>
        <time>2019-08-08T09:29:42Z</time>
      </trkpt>
      <trkpt lat="48.56385" lon="7.55615">
        <ele>158.9</ele>
        <time>2019-08-08T09:29:43Z</time>
      </trkpt>
      <trkpt lat="48.56382" lon="7.5562">
        <ele>159</ele>
        <time>2019-08-08T09:29:44Z</time>
      </trkpt>
      <trkpt lat="48.5638" lon="7.55626">
        <ele>159.1</ele>
        <time>2019-08-08T09:29:45Z</time>
      </trkpt>
      <trkpt lat="48.56379" lon="7.55633">
        <ele>159.1</ele>
        <time>2019-08-08T09:29:46Z</time>
      </trkpt>
      <trkpt lat="48.56378" lon="7.55641">
        <ele>159.2</ele>
        <time>2019-08-08T09:29:47Z</time>
      </trkpt>
      <trkpt lat="48.56375" lon="7.55648">
        <ele>159.3</ele>
        <time>2019-08-08T09:29:48Z</time>
      </trkpt>
      <trkpt lat="48.56373" lon="7.55653">
        <ele>159.3</ele>
        <time>2019-08-08T09:29:49Z</time>
      </trkpt>
      <trkpt lat="48.56372" lon="7.55659">
        <ele>159.3</ele>
        <time>2019-08-08T09:29:50Z</time>
      </trkpt>
      <trkpt lat="48.5637" lon="7.55664">
        <ele>159.3</ele>
        <time>2019-08-08T09:29:51Z</time>
      </trkpt>
      <trkpt lat="48.56366" lon="7.55674">
        <ele>159.3</ele>
        <time>2019-08-08T09:29:52Z</time>
      </trkpt>
      <trkpt lat="48.56364" lon="7.55683">
        <ele>159.4</ele>
        <time>2019-08-08T09:29:53Z</time>
      </trkpt>
      <trkpt lat="48.56364" lon="7.55687">
        <ele>159.4</ele>
        <time>2019-08-08T09:29:54Z</time>
      </trkpt>
      <trkpt lat="48.56365" lon="7.55695">
        <ele>159.4</ele>
        <time>2019-08-08T09:29:55Z</time>
      </trkpt>
      <trkpt lat="48.56366" lon="7.55702">
        <ele>159.4</ele>
        <time>2019-08-08T09:29:56Z</time>
      </trkpt>
      <trkpt lat="48.56368" lon="7.55708">
        <ele>159.4</ele>
        <time>2019-08-08T09:29:57Z</time>
      </trkpt>
      <trkpt lat="48.56369" lon="7.55715">
        <ele>159.4</ele>
        <time>2019-08-08T09:29:58Z</time>
      </trkpt>
      <trkpt lat="48.56369" lon="7.55723">
        <ele>159.4</ele>
        <time>2019-08-08T09:29:59Z</time>
      </trkpt>
      <trkpt lat="48.56369" lon="7.5573">
        <ele>159.4</ele>
        <time>2019-08-08T09:30:00Z</time>
      </trkpt>
      <trkpt lat="48.56368" lon="7.55739">
        <ele>159.4</ele>
        <time>2019-08-08T09:30:01Z</time>
      </trkpt>
      <trkpt lat="48.56366" lon="7.55747">
        <ele>159.3</ele>
        <time>2019-08-08T09:30:02Z</time>
      </trkpt>
      <trkpt lat="48.56365" lon="7.55754">
        <ele>159.3</ele>
        <time>2019-08-08T09:30:03Z</time>
      </trkpt>
      <trkpt lat="48.56366" lon="7.55761">
        <ele>159.3</ele>
        <time>2019-08-08T09:30:04Z</time>
      </trkpt>
      <trkpt lat="48.56368" lon="7.5577">
        <ele>159.3</ele>
        <time>2019-08-08T09:30:05Z</time>
      </trkpt>
      <trkpt lat="48.56369" lon="7.55779">
        <ele>159.3</ele>
        <time>2019-08-08T09:30:06Z</time>
      </trkpt>
      <trkpt lat="48.5637" lon="7.55785">
        <ele>159.2</ele>
        <time>2019-08-08T09:30:07Z</time>
      </trkpt>
      <trkpt lat="48.56371" lon="7.55793">
        <ele>159.2</ele>
        <time>2019-08-08T09:30:08Z</time>
      </trkpt>
      <trkpt lat="48.56371" lon="7.558">
        <ele>159.1</ele>
        <time>2019-08-08T09:30:09Z</time>
      </trkpt>
      <trkpt lat="48.56372" lon="7.55806">
        <ele>159</ele>
        <time>2019-08-08T09:30:10Z</time>
      </trkpt>
      <trkpt lat="48.56372" lon="7.55813">
        <ele>159</ele>
        <time>2019-08-08T09:30:11Z</time>
      </trkpt>
      <trkpt lat="48.56372" lon="7.5582">
        <ele>158.9</ele>
        <time>2019-08-08T09:30:12Z</time>
      </trkpt>
      <trkpt lat="48.56372" lon="7.55825">
        <ele>158.9</ele>
        <time>2019-08-08T09:30:13Z</time>
      </trkpt>
      <trkpt lat="48.56372" lon="7.55833">
        <ele>158.8</ele>
        <time>2019-08-08T09:30:14Z</time>
      </trkpt>
      <trkpt lat="48.56373" lon="7.5584">
        <ele>158.8</ele>
        <time>2019-08-08T09:30:15Z</time>
      </trkpt>
      <trkpt lat="48.56373" lon="7.55848">
        <ele>158.7</ele>
        <time>2019-08-08T09:30:16Z</time>
      </trkpt>
      <trkpt lat="48.56374" lon="7.55854">
        <ele>158.7</ele>
        <time>2019-08-08T09:30:17Z</time>
      </trkpt>
      <trkpt lat="48.56373" lon="7.55862">
        <ele>158.6</ele>
        <time>2019-08-08T09:30:18Z</time>
      </trkpt>
      <trkpt lat="48.56373" lon="7.55868">
        <ele>158.6</ele>
        <time>2019-08-08T09:30:19Z</time>
      </trkpt>
      <trkpt lat="48.56371" lon="7.55875">
        <ele>158.6</ele>
        <time>2019-08-08T09:30:20Z</time>
      </trkpt>
      <trkpt lat="48.5637" lon="7.55884">
        <ele>158.5</ele>
        <time>2019-08-08T09:30:21Z</time>
      </trkpt>
      <trkpt lat="48.5637" lon="7.55892">
        <ele>158.5</ele>
        <time>2019-08-08T09:30:22Z</time>
      </trkpt>
      <trkpt lat="48.5637" lon="7.55901">
        <ele>158.5</ele>
        <time>2019-08-08T09:30:23Z</time>
      </trkpt>
      <trkpt lat="48.5637" lon="7.55909">
        <ele>158.5</ele>
        <time>2019-08-08T09:30:24Z</time>
      </trkpt>
      <trkpt lat="48.56369" lon="7.55916">
        <ele>158.4</ele>
        <time>2019-08-08T09:30:25Z</time>
      </trkpt>
      <trkpt lat="48.56368" lon="7.55923">
        <ele>158.4</ele>
        <time>2019-08-08T09:30:26Z</time>
      </trkpt>
      <trkpt lat="48.56368" lon="7.55933">
        <ele>158.4</ele>
        <time>2019-08-08T09:30:27Z</time>
      </trkpt>
      <trkpt lat="48.56366" lon="7.55941">
        <ele>158.4</ele>
        <time>2019-08-08T09:30:28Z</time>
      </trkpt>
      <trkpt lat="48.56364" lon="7.55951">
        <ele>158.4</ele>
        <time>2019-08-08T09:30:29Z</time>
      </trkpt>
      <trkpt lat="48.56362" lon="7.55965">
        <ele>158.4</ele>
        <time>2019-08-08T09:30:30Z</time>
      </trkpt>
      <trkpt lat="48.56359" lon="7.55976">
        <ele>158.4</ele>
        <time>2019-08-08T09:30:31Z</time>
      </trkpt>
      <trkpt lat="48.56358" lon="7.55986">
        <ele>158.4</ele>
        <time>2019-08-08T09:30:32Z</time>
      </trkpt>
      <trkpt lat="48.56357" lon="7.55994">
        <ele>158.4</ele>
        <time>2019-08-08T09:30:33Z</time>
      </trkpt>
      <trkpt lat="48.56356" lon="7.56003">
        <ele>158.4</ele>
        <time>2019-08-08T09:30:34Z</time>
      </trkpt>
      <trkpt lat="48.56355" lon="7.56011">
        <ele>158.4</ele>
        <time>2019-08-08T09:30:35Z</time>
      </trkpt>
      <trkpt lat="48.56354" lon="7.5602">
        <ele>158.4</ele>
        <time>2019-08-08T09:30:36Z</time>
      </trkpt>
      <trkpt lat="48.56353" lon="7.56029">
        <ele>158.4</ele>
        <time>2019-08-08T09:30:37Z</time>
      </trkpt>
      <trkpt lat="48.56353" lon="7.56038">
        <ele>158.4</ele>
        <time>2019-08-08T09:30:38Z</time>
      </trkpt>
      <trkpt lat="48.56352" lon="7.56049">
        <ele>158.4</ele>
        <time>2019-08-08T09:30:39Z</time>
      </trkpt>
      <trkpt lat="48.56351" lon="7.56056">
        <ele>158.4</ele>
        <time>2019-08-08T09:30:40Z</time>
      </trkpt>
      <trkpt lat="48.5635" lon="7.56064">
        <ele>158.4</ele>
        <time>2019-08-08T09:30:41Z</time>
      </trkpt>
      <trkpt lat="48.56348" lon="7.56071">
        <ele>158.4</ele>
        <time>2019-08-08T09:30:42Z</time>
      </trkpt>
      <trkpt lat="48.56346" lon="7.56078">
        <ele>158.4</ele>
        <time>2019-08-08T09:30:43Z</time>
      </trkpt>
      <trkpt lat="48.56344" lon="7.56085">
        <ele>158.4</ele>
        <time>2019-08-08T09:30:44Z</time>
      </trkpt>
      <trkpt lat="48.56341" lon="7.56091">
        <ele>158.4</ele>
        <time>2019-08-08T09:30:45Z</time>
      </trkpt>
      <trkpt lat="48.56339" lon="7.56096">
        <ele>158.4</ele>
        <time>2019-08-08T09:30:46Z</time>
      </trkpt>
      <trkpt lat="48.56335" lon="7.56103">
        <ele>158.4</ele>
        <time>2019-08-08T09:30:47Z</time>
      </trkpt>
      <trkpt lat="48.56332" lon="7.56108">
        <ele>158.4</ele>
        <time>2019-08-08T09:30:48Z</time>
      </trkpt>
      <trkpt lat="48.56329" lon="7.56111">
        <ele>158.4</ele>
        <time>2019-08-08T09:30:49Z</time>
      </trkpt>
      <trkpt lat="48.56326" lon="7.56115">
        <ele>158.4</ele>
        <time>2019-08-08T09:30:50Z</time>
      </trkpt>
      <trkpt lat="48.56323" lon="7.5612">
        <ele>158.4</ele>
        <time>2019-08-08T09:30:51Z</time>
      </trkpt>
      <trkpt lat="48.56319" lon="7.56124">
        <ele>158.4</ele>
        <time>2019-08-08T09:30:52Z</time>
      </trkpt>
      <trkpt lat="48.56315" lon="7.56129">
        <ele>158.4</ele>
        <time>2019-08-08T09:30:53Z</time>
      </trkpt>
      <trkpt lat="48.56311" lon="7.56134">
        <ele>158.4</ele>
        <time>2019-08-08T09:30:54Z</time>
      </trkpt>
      <trkpt lat="48.56307" lon="7.56139">
        <ele>158.4</ele>
        <time>2019-08-08T09:30:55Z</time>
      </trkpt>
      <trkpt lat="48.56303" lon="7.56145">
        <ele>158.4</ele>
        <time>2019-08-08T09:30:56Z</time>
      </trkpt>
      <trkpt lat="48.563" lon="7.5615">
        <ele>158.4</ele>
        <time>2019-08-08T09:30:57Z</time>
      </trkpt>
      <trkpt lat="48.56297" lon="7.56156">
        <ele>158.4</ele>
        <time>2019-08-08T09:30:58Z</time>
      </trkpt>
      <trkpt lat="48.56294" lon="7.56162">
        <ele>158.4</ele>
        <time>2019-08-08T09:30:59Z</time>
      </trkpt>
      <trkpt lat="48.56292" lon="7.56167">
        <ele>158.4</ele>
        <time>2019-08-08T09:31:00Z</time>
      </trkpt>
      <trkpt lat="48.56289" lon="7.56171">
        <ele>158.4</ele>
        <time>2019-08-08T09:31:01Z</time>
      </trkpt>
      <trkpt lat="48.56286" lon="7.56176">
        <ele>158.3</ele>
        <time>2019-08-08T09:31:02Z</time>
      </trkpt>
      <trkpt lat="48.56283" lon="7.56182">
        <ele>158.3</ele>
        <time>2019-08-08T09:31:03Z</time>
      </trkpt>
      <trkpt lat="48.5628" lon="7.56186">
        <ele>158.3</ele>
        <time>2019-08-08T09:31:04Z</time>
      </trkpt>
      <trkpt lat="48.56276" lon="7.56192">
        <ele>158.3</ele>
        <time>2019-08-08T09:31:05Z</time>
      </trkpt>
      <trkpt lat="48.56272" lon="7.56197">
        <ele>158.3</ele>
        <time>2019-08-08T09:31:06Z</time>
      </trkpt>
      <trkpt lat="48.56269" lon="7.56202">
        <ele>158.3</ele>
        <time>2019-08-08T09:31:07Z</time>
      </trkpt>
      <trkpt lat="48.56266" lon="7.56206">
        <ele>158.2</ele>
        <time>2019-08-08T09:31:08Z</time>
      </trkpt>
      <trkpt lat="48.56262" lon="7.56211">
        <ele>158.2</ele>
        <time>2019-08-08T09:31:09Z</time>
      </trkpt>
      <trkpt lat="48.56258" lon="7.56216">
        <ele>158.2</ele>
        <time>2019-08-08T09:31:10Z</time>
      </trkpt>
      <trkpt lat="48.56256" lon="7.56222">
        <ele>158.2</ele>
        <time>2019-08-08T09:31:11Z</time>
      </trkpt>
      <trkpt lat="48.56252" lon="7.56228">
        <ele>158.2</ele>
        <time>2019-08-08T09:31:12Z</time>
      </trkpt>
      <trkpt lat="48.5625" lon="7.56234">
        <ele>158.2</ele>
        <time>2019-08-08T09:31:13Z</time>
      </trkpt>
      <trkpt lat="48.56247" lon="7.56239">
        <ele>158.2</ele>
        <time>2019-08-08T09:31:14Z</time>
      </trkpt>
      <trkpt lat="48.56244" lon="7.56244">
        <ele>158.2</ele>
        <time>2019-08-08T09:31:15Z</time>
      </trkpt>
      <trkpt lat="48.5624" lon="7.56249">
        <ele>158.2</ele>
        <time>2019-08-08T09:31:16Z</time>
      </trkpt>
      <trkpt lat="48.56237" lon="7.56253">
        <ele>158.2</ele>
        <time>2019-08-08T09:31:17Z</time>
      </trkpt>
      <trkpt lat="48.56233" lon="7.56257">
        <ele>158.2</ele>
        <time>2019-08-08T09:31:18Z</time>
      </trkpt>
      <trkpt lat="48.56229" lon="7.56261">
        <ele>158.2</ele>
        <time>2019-08-08T09:31:19Z</time>
      </trkpt>
      <trkpt lat="48.56225" lon="7.56265">
        <ele>158.2</ele>
        <time>2019-08-08T09:31:20Z</time>
      </trkpt>
      <trkpt lat="48.5622" lon="7.56269">
        <ele>158.2</ele>
        <time>2019-08-08T09:31:21Z</time>
      </trkpt>
      <trkpt lat="48.56215" lon="7.56273">
        <ele>158.2</ele>
        <time>2019-08-08T09:31:22Z</time>
      </trkpt>
      <trkpt lat="48.5621" lon="7.56278">
        <ele>158.1</ele>
        <time>2019-08-08T09:31:23Z</time>
      </trkpt>
      <trkpt lat="48.56205" lon="7.56283">
        <ele>158.1</ele>
        <time>2019-08-08T09:31:24Z</time>
      </trkpt>
      <trkpt lat="48.562" lon="7.56286">
        <ele>158.1</ele>
        <time>2019-08-08T09:31:25Z</time>
      </trkpt>
      <trkpt lat="48.56195" lon="7.56291">
        <ele>158.1</ele>
        <time>2019-08-08T09:31:26Z</time>
      </trkpt>
      <trkpt lat="48.56191" lon="7.56296">
        <ele>158.1</ele>
        <time>2019-08-08T09:31:27Z</time>
      </trkpt>
      <trkpt lat="48.56187" lon="7.563">
        <ele>158</ele>
        <time>2019-08-08T09:31:28Z</time>
      </trkpt>
      <trkpt lat="48.56183" lon="7.56305">
        <ele>158</ele>
        <time>2019-08-08T09:31:29Z</time>
      </trkpt>
      <trkpt lat="48.56179" lon="7.56309">
        <ele>158</ele>
        <time>2019-08-08T09:31:30Z</time>
      </trkpt>
      <trkpt lat="48.56175" lon="7.56312">
        <ele>158</ele>
        <time>2019-08-08T09:31:31Z</time>
      </trkpt>
      <trkpt lat="48.56171" lon="7.56316">
        <ele>158</ele>
        <time>2019-08-08T09:31:32Z</time>
      </trkpt>
      <trkpt lat="48.56168" lon="7.56318">
        <ele>158</ele>
        <time>2019-08-08T09:31:33Z</time>
      </trkpt>
      <trkpt lat="48.56163" lon="7.56322">
        <ele>158</ele>
        <time>2019-08-08T09:31:34Z</time>
      </trkpt>
      <trkpt lat="48.56159" lon="7.56325">
        <ele>157.9</ele>
        <time>2019-08-08T09:31:35Z</time>
      </trkpt>
      <trkpt lat="48.56155" lon="7.56328">
        <ele>157.9</ele>
        <time>2019-08-08T09:31:36Z</time>
      </trkpt>
      <trkpt lat="48.56152" lon="7.56332">
        <ele>157.9</ele>
        <time>2019-08-08T09:31:37Z</time>
      </trkpt>
      <trkpt lat="48.56147" lon="7.56337">
        <ele>157.9</ele>
        <time>2019-08-08T09:31:38Z</time>
      </trkpt>
      <trkpt lat="48.56143" lon="7.56342">
        <ele>157.9</ele>
        <time>2019-08-08T09:31:39Z</time>
      </trkpt>
      <trkpt lat="48.5614" lon="7.56347">
        <ele>157.8</ele>
        <time>2019-08-08T09:31:40Z</time>
      </trkpt>
      <trkpt lat="48.56136" lon="7.5635">
        <ele>157.8</ele>
        <time>2019-08-08T09:31:41Z</time>
      </trkpt>
      <trkpt lat="48.56133" lon="7.56354">
        <ele>157.8</ele>
        <time>2019-08-08T09:31:42Z</time>
      </trkpt>
      <trkpt lat="48.56129" lon="7.5636">
        <ele>157.7</ele>
        <time>2019-08-08T09:31:43Z</time>
      </trkpt>
      <trkpt lat="48.56125" lon="7.56364">
        <ele>157.7</ele>
        <time>2019-08-08T09:31:44Z</time>
      </trkpt>
      <trkpt lat="48.56122" lon="7.56368">
        <ele>157.7</ele>
        <time>2019-08-08T09:31:45Z</time>
      </trkpt>
      <trkpt lat="48.56118" lon="7.56372">
        <ele>157.6</ele>
        <time>2019-08-08T09:31:46Z</time>
      </trkpt>
      <trkpt lat="48.56114" lon="7.56376">
        <ele>157.6</ele>
        <time>2019-08-08T09:31:47Z</time>
      </trkpt>
      <trkpt lat="48.5611" lon="7.5638">
        <ele>157.6</ele>
        <time>2019-08-08T09:31:48Z</time>
      </trkpt>
      <trkpt lat="48.56107" lon="7.56384">
        <ele>157.6</ele>
        <time>2019-08-08T09:31:49Z</time>
      </trkpt>
      <trkpt lat="48.56104" lon="7.56388">
        <ele>157.5</ele>
        <time>2019-08-08T09:31:50Z</time>
      </trkpt>
      <trkpt lat="48.56099" lon="7.56392">
        <ele>157.5</ele>
        <time>2019-08-08T09:31:51Z</time>
      </trkpt>
      <trkpt lat="48.56096" lon="7.56396">
        <ele>157.5</ele>
        <time>2019-08-08T09:31:52Z</time>
      </trkpt>
      <trkpt lat="48.56092" lon="7.564">
        <ele>157.4</ele>
        <time>2019-08-08T09:31:53Z</time>
      </trkpt>
      <trkpt lat="48.56088" lon="7.56403">
        <ele>157.4</ele>
        <time>2019-08-08T09:31:54Z</time>
      </trkpt>
      <trkpt lat="48.56084" lon="7.56407">
        <ele>157.3</ele>
        <time>2019-08-08T09:31:55Z</time>
      </trkpt>
      <trkpt lat="48.5608" lon="7.56412">
        <ele>157.3</ele>
        <time>2019-08-08T09:31:56Z</time>
      </trkpt>
      <trkpt lat="48.56076" lon="7.56416">
        <ele>157.2</ele>
        <time>2019-08-08T09:31:57Z</time>
      </trkpt>
      <trkpt lat="48.56072" lon="7.56421">
        <ele>157.2</ele>
        <time>2019-08-08T09:31:58Z</time>
      </trkpt>
      <trkpt lat="48.56068" lon="7.56426">
        <ele>157.1</ele>
        <time>2019-08-08T09:31:59Z</time>
      </trkpt>
      <trkpt lat="48.56064" lon="7.5643">
        <ele>157.1</ele>
        <time>2019-08-08T09:32:00Z</time>
      </trkpt>
      <trkpt lat="48.56059" lon="7.56433">
        <ele>157</ele>
        <time>2019-08-08T09:32:01Z</time>
      </trkpt>
      <trkpt lat="48.56055" lon="7.56439">
        <ele>157</ele>
        <time>2019-08-08T09:32:02Z</time>
      </trkpt>
      <trkpt lat="48.5605" lon="7.56443">
        <ele>157</ele>
        <time>2019-08-08T09:32:03Z</time>
      </trkpt>
      <trkpt lat="48.56045" lon="7.56449">
        <ele>156.9</ele>
        <time>2019-08-08T09:32:04Z</time>
      </trkpt>
      <trkpt lat="48.5604" lon="7.56454">
        <ele>156.9</ele>
        <time>2019-08-08T09:32:05Z</time>
      </trkpt>
      <trkpt lat="48.56034" lon="7.56461">
        <ele>156.8</ele>
        <time>2019-08-08T09:32:06Z</time>
      </trkpt>
      <trkpt lat="48.5603" lon="7.56466">
        <ele>156.8</ele>
        <time>2019-08-08T09:32:07Z</time>
      </trkpt>
      <trkpt lat="48.56024" lon="7.56472">
        <ele>156.8</ele>
        <time>2019-08-08T09:32:08Z</time>
      </trkpt>
      <trkpt lat="48.56021" lon="7.56477">
        <ele>156.7</ele>
        <time>2019-08-08T09:32:09Z</time>
      </trkpt>
      <trkpt lat="48.56016" lon="7.56482">
        <ele>156.7</ele>
        <time>2019-08-08T09:32:10Z</time>
      </trkpt>
      <trkpt lat="48.56013" lon="7.56488">
        <ele>156.7</ele>
        <time>2019-08-08T09:32:11Z</time>
      </trkpt>
      <trkpt lat="48.56009" lon="7.56492">
        <ele>156.6</ele>
        <time>2019-08-08T09:32:12Z</time>
      </trkpt>
      <trkpt lat="48.56006" lon="7.56496">
        <ele>156.6</ele>
        <time>2019-08-08T09:32:13Z</time>
      </trkpt>
      <trkpt lat="48.56004" lon="7.565">
        <ele>156.6</ele>
        <time>2019-08-08T09:32:14Z</time>
      </trkpt>
      <trkpt lat="48.56001" lon="7.56503">
        <ele>156.6</ele>
        <time>2019-08-08T09:32:15Z</time>
      </trkpt>
      <trkpt lat="48.55998" lon="7.56506">
        <ele>156.6</ele>
        <time>2019-08-08T09:32:16Z</time>
      </trkpt>
      <trkpt lat="48.55995" lon="7.56509">
        <ele>156.6</ele>
        <time>2019-08-08T09:32:17Z</time>
      </trkpt>
      <trkpt lat="48.55991" lon="7.56513">
        <ele>156.6</ele>
        <time>2019-08-08T09:32:18Z</time>
      </trkpt>
      <trkpt lat="48.55988" lon="7.56516">
        <ele>156.5</ele>
        <time>2019-08-08T09:32:19Z</time>
      </trkpt>
      <trkpt lat="48.55985" lon="7.56519">
        <ele>156.5</ele>
        <time>2019-08-08T09:32:20Z</time>
      </trkpt>
      <trkpt lat="48.55981" lon="7.56523">
        <ele>156.5</ele>
        <time>2019-08-08T09:32:21Z</time>
      </trkpt>
      <trkpt lat="48.55978" lon="7.56528">
        <ele>156.5</ele>
        <time>2019-08-08T09:32:22Z</time>
      </trkpt>
      <trkpt lat="48.55973" lon="7.56532">
        <ele>156.5</ele>
        <time>2019-08-08T09:32:23Z</time>
      </trkpt>
      <trkpt lat="48.5597" lon="7.56536">
        <ele>156.5</ele>
        <time>2019-08-08T09:32:24Z</time>
      </trkpt>
      <trkpt lat="48.55966" lon="7.56541">
        <ele>156.5</ele>
        <time>2019-08-08T09:32:25Z</time>
      </trkpt>
      <trkpt lat="48.55963" lon="7.56545">
        <ele>156.5</ele>
        <time>2019-08-08T09:32:26Z</time>
      </trkpt>
      <trkpt lat="48.55959" lon="7.56551">
        <ele>156.5</ele>
        <time>2019-08-08T09:32:27Z</time>
      </trkpt>
      <trkpt lat="48.55954" lon="7.56556">
        <ele>156.6</ele>
        <time>2019-08-08T09:32:28Z</time>
      </trkpt>
      <trkpt lat="48.55951" lon="7.56561">
        <ele>156.6</ele>
        <time>2019-08-08T09:32:29Z</time>
      </trkpt>
      <trkpt lat="48.55948" lon="7.56566">
        <ele>156.6</ele>
        <time>2019-08-08T09:32:30Z</time>
      </trkpt>
      <trkpt lat="48.55944" lon="7.5657">
        <ele>156.7</ele>
        <time>2019-08-08T09:32:31Z</time>
      </trkpt>
      <trkpt lat="48.55939" lon="7.56575">
        <ele>156.8</ele>
        <time>2019-08-08T09:32:32Z</time>
      </trkpt>
      <trkpt lat="48.55935" lon="7.5658">
        <ele>156.9</ele>
        <time>2019-08-08T09:32:33Z</time>
      </trkpt>
      <trkpt lat="48.55931" lon="7.56584">
        <ele>157</ele>
        <time>2019-08-08T09:32:34Z</time>
      </trkpt>
      <trkpt lat="48.55928" lon="7.56588">
        <ele>157.1</ele>
        <time>2019-08-08T09:32:35Z</time>
      </trkpt>
      <trkpt lat="48.55924" lon="7.56592">
        <ele>157.2</ele>
        <time>2019-08-08T09:32:36Z</time>
      </trkpt>
      <trkpt lat="48.5592" lon="7.56597">
        <ele>157.3</ele>
        <time>2019-08-08T09:32:37Z</time>
      </trkpt>
      <trkpt lat="48.55918" lon="7.56602">
        <ele>157.4</ele>
        <time>2019-08-08T09:32:38Z</time>
      </trkpt>
      <trkpt lat="48.55914" lon="7.56608">
        <ele>157.5</ele>
        <time>2019-08-08T09:32:39Z</time>
      </trkpt>
      <trkpt lat="48.55911" lon="7.56612">
        <ele>157.6</ele>
        <time>2019-08-08T09:32:40Z</time>
      </trkpt>
      <trkpt lat="48.55908" lon="7.56617">
        <ele>157.7</ele>
        <time>2019-08-08T09:32:41Z</time>
      </trkpt>
      <trkpt lat="48.55904" lon="7.56623">
        <ele>157.7</ele>
        <time>2019-08-08T09:32:43Z</time>
      </trkpt>
      <trkpt lat="48.55902" lon="7.56626">
        <ele>157.8</ele>
        <time>2019-08-08T09:32:44Z</time>
      </trkpt>
      <trkpt lat="48.559" lon="7.5663">
        <ele>157.8</ele>
        <time>2019-08-08T09:32:45Z</time>
      </trkpt>
      <trkpt lat="48.55898" lon="7.56634">
        <ele>157.9</ele>
        <time>2019-08-08T09:32:47Z</time>
      </trkpt>
      <trkpt lat="48.55896" lon="7.56637">
        <ele>157.9</ele>
        <time>2019-08-08T09:32:49Z</time>
      </trkpt>
      <trkpt lat="48.55894" lon="7.56641">
        <ele>157.9</ele>
        <time>2019-08-08T09:32:51Z</time>
      </trkpt>
      <trkpt lat="48.55893" lon="7.56646">
        <ele>158</ele>
        <time>2019-08-08T09:32:53Z</time>
      </trkpt>
      <trkpt lat="48.55891" lon="7.56653">
        <ele>158</ele>
        <time>2019-08-08T09:32:55Z</time>
      </trkpt>
      <trkpt lat="48.5589" lon="7.56656">
        <ele>158</ele>
        <time>2019-08-08T09:32:56Z</time>
      </trkpt>
      <trkpt lat="48.55888" lon="7.56665">
        <ele>158.1</ele>
        <time>2019-08-08T09:32:58Z</time>
      </trkpt>
      <trkpt lat="48.55886" lon="7.56672">
        <ele>158.2</ele>
        <time>2019-08-08T09:32:59Z</time>
      </trkpt>
      <trkpt lat="48.55885" lon="7.56679">
        <ele>158.3</ele>
        <time>2019-08-08T09:33:00Z</time>
      </trkpt>
      <trkpt lat="48.55884" lon="7.56686">
        <ele>158.5</ele>
        <time>2019-08-08T09:33:01Z</time>
      </trkpt>
      <trkpt lat="48.55882" lon="7.56693">
        <ele>158.6</ele>
        <time>2019-08-08T09:33:02Z</time>
      </trkpt>
      <trkpt lat="48.5588" lon="7.567">
        <ele>158.8</ele>
        <time>2019-08-08T09:33:03Z</time>
      </trkpt>
      <trkpt lat="48.55878" lon="7.56706">
        <ele>158.9</ele>
        <time>2019-08-08T09:33:04Z</time>
      </trkpt>
      <trkpt lat="48.55876" lon="7.56712">
        <ele>158.9</ele>
        <time>2019-08-08T09:33:05Z</time>
      </trkpt>
      <trkpt lat="48.55875" lon="7.56719">
        <ele>159</ele>
        <time>2019-08-08T09:33:06Z</time>
      </trkpt>
      <trkpt lat="48.55874" lon="7.56725">
        <ele>159</ele>
        <time>2019-08-08T09:33:07Z</time>
      </trkpt>
      <trkpt lat="48.55874" lon="7.56734">
        <ele>159</ele>
        <time>2019-08-08T09:33:09Z</time>
      </trkpt>
      <trkpt lat="48.55872" lon="7.5674">
        <ele>158.9</ele>
        <time>2019-08-08T09:33:10Z</time>
      </trkpt>
      <trkpt lat="48.55871" lon="7.56745">
        <ele>158.9</ele>
        <time>2019-08-08T09:33:11Z</time>
      </trkpt>
      <trkpt lat="48.55869" lon="7.5675">
        <ele>158.9</ele>
        <time>2019-08-08T09:33:12Z</time>
      </trkpt>
      <trkpt lat="48.55867" lon="7.56755">
        <ele>159</ele>
        <time>2019-08-08T09:33:13Z</time>
      </trkpt>
      <trkpt lat="48.55865" lon="7.56761">
        <ele>159</ele>
        <time>2019-08-08T09:33:14Z</time>
      </trkpt>
      <trkpt lat="48.55864" lon="7.56767">
        <ele>159</ele>
        <time>2019-08-08T09:33:15Z</time>
      </trkpt>
      <trkpt lat="48.55862" lon="7.56773">
        <ele>159.1</ele>
        <time>2019-08-08T09:33:16Z</time>
      </trkpt>
      <trkpt lat="48.55861" lon="7.56778">
        <ele>159.1</ele>
        <time>2019-08-08T09:33:17Z</time>
      </trkpt>
      <trkpt lat="48.5586" lon="7.56783">
        <ele>159.1</ele>
        <time>2019-08-08T09:33:18Z</time>
      </trkpt>
      <trkpt lat="48.55859" lon="7.56789">
        <ele>159.1</ele>
        <time>2019-08-08T09:33:19Z</time>
      </trkpt>
      <trkpt lat="48.55857" lon="7.56794">
        <ele>159.1</ele>
        <time>2019-08-08T09:33:20Z</time>
      </trkpt>
      <trkpt lat="48.55854" lon="7.56801">
        <ele>159.1</ele>
        <time>2019-08-08T09:33:21Z</time>
      </trkpt>
      <trkpt lat="48.55852" lon="7.56808">
        <ele>159.1</ele>
        <time>2019-08-08T09:33:22Z</time>
      </trkpt>
      <trkpt lat="48.5585" lon="7.56813">
        <ele>159.1</ele>
        <time>2019-08-08T09:33:23Z</time>
      </trkpt>
      <trkpt lat="48.55848" lon="7.5682">
        <ele>159.1</ele>
        <time>2019-08-08T09:33:24Z</time>
      </trkpt>
      <trkpt lat="48.55846" lon="7.56827">
        <ele>159.1</ele>
        <time>2019-08-08T09:33:25Z</time>
      </trkpt>
      <trkpt lat="48.55845" lon="7.56835">
        <ele>159.1</ele>
        <time>2019-08-08T09:33:26Z</time>
      </trkpt>
      <trkpt lat="48.55843" lon="7.56842">
        <ele>159.1</ele>
        <time>2019-08-08T09:33:27Z</time>
      </trkpt>
      <trkpt lat="48.55841" lon="7.56849">
        <ele>159.1</ele>
        <time>2019-08-08T09:33:28Z</time>
      </trkpt>
      <trkpt lat="48.5584" lon="7.56856">
        <ele>159.1</ele>
        <time>2019-08-08T09:33:29Z</time>
      </trkpt>
      <trkpt lat="48.55838" lon="7.56862">
        <ele>159.1</ele>
        <time>2019-08-08T09:33:30Z</time>
      </trkpt>
      <trkpt lat="48.55836" lon="7.56871">
        <ele>159.1</ele>
        <time>2019-08-08T09:33:31Z</time>
      </trkpt>
      <trkpt lat="48.55834" lon="7.56877">
        <ele>159.1</ele>
        <time>2019-08-08T09:33:32Z</time>
      </trkpt>
      <trkpt lat="48.55831" lon="7.56885">
        <ele>159.1</ele>
        <time>2019-08-08T09:33:33Z</time>
      </trkpt>
      <trkpt lat="48.55829" lon="7.56892">
        <ele>159.1</ele>
        <time>2019-08-08T09:33:34Z</time>
      </trkpt>
      <trkpt lat="48.55827" lon="7.56899">
        <ele>159.1</ele>
        <time>2019-08-08T09:33:35Z</time>
      </trkpt>
      <trkpt lat="48.55824" lon="7.56905">
        <ele>159.1</ele>
        <time>2019-08-08T09:33:36Z</time>
      </trkpt>
      <trkpt lat="48.55821" lon="7.56912">
        <ele>159.1</ele>
        <time>2019-08-08T09:33:37Z</time>
      </trkpt>
      <trkpt lat="48.55818" lon="7.56919">
        <ele>159.1</ele>
        <time>2019-08-08T09:33:38Z</time>
      </trkpt>
      <trkpt lat="48.55816" lon="7.56925">
        <ele>159.1</ele>
        <time>2019-08-08T09:33:39Z</time>
      </trkpt>
      <trkpt lat="48.55813" lon="7.56931">
        <ele>159.1</ele>
        <time>2019-08-08T09:33:40Z</time>
      </trkpt>
      <trkpt lat="48.55811" lon="7.56938">
        <ele>159.1</ele>
        <time>2019-08-08T09:33:41Z</time>
      </trkpt>
      <trkpt lat="48.55809" lon="7.56945">
        <ele>159.1</ele>
        <time>2019-08-08T09:33:42Z</time>
      </trkpt>
      <trkpt lat="48.55807" lon="7.56951">
        <ele>159.1</ele>
        <time>2019-08-08T09:33:43Z</time>
      </trkpt>
      <trkpt lat="48.55805" lon="7.56959">
        <ele>159</ele>
        <time>2019-08-08T09:33:44Z</time>
      </trkpt>
      <trkpt lat="48.55802" lon="7.56967">
        <ele>158.9</ele>
        <time>2019-08-08T09:33:45Z</time>
      </trkpt>
      <trkpt lat="48.55801" lon="7.56976">
        <ele>158.8</ele>
        <time>2019-08-08T09:33:46Z</time>
      </trkpt>
      <trkpt lat="48.55799" lon="7.56985">
        <ele>158.6</ele>
        <time>2019-08-08T09:33:47Z</time>
      </trkpt>
      <trkpt lat="48.55798" lon="7.56994">
        <ele>158.5</ele>
        <time>2019-08-08T09:33:48Z</time>
      </trkpt>
      <trkpt lat="48.55796" lon="7.57002">
        <ele>158.3</ele>
        <time>2019-08-08T09:33:49Z</time>
      </trkpt>
      <trkpt lat="48.55796" lon="7.57008">
        <ele>158.2</ele>
        <time>2019-08-08T09:33:50Z</time>
      </trkpt>
      <trkpt lat="48.55796" lon="7.57013">
        <ele>158.1</ele>
        <time>2019-08-08T09:33:51Z</time>
      </trkpt>
      <trkpt lat="48.55795" lon="7.57019">
        <ele>158.1</ele>
        <time>2019-08-08T09:33:52Z</time>
      </trkpt>
      <trkpt lat="48.55793" lon="7.57023">
        <ele>158</ele>
        <time>2019-08-08T09:33:53Z</time>
      </trkpt>
      <trkpt lat="48.55792" lon="7.57028">
        <ele>158</ele>
        <time>2019-08-08T09:33:54Z</time>
      </trkpt>
      <trkpt lat="48.5579" lon="7.57034">
        <ele>157.9</ele>
        <time>2019-08-08T09:33:55Z</time>
      </trkpt>
      <trkpt lat="48.55786" lon="7.57041">
        <ele>157.8</ele>
        <time>2019-08-08T09:33:56Z</time>
      </trkpt>
      <trkpt lat="48.55784" lon="7.57048">
        <ele>157.7</ele>
        <time>2019-08-08T09:33:57Z</time>
      </trkpt>
      <trkpt lat="48.55781" lon="7.57057">
        <ele>157.5</ele>
        <time>2019-08-08T09:33:58Z</time>
      </trkpt>
      <trkpt lat="48.5578" lon="7.57068">
        <ele>157.3</ele>
        <time>2019-08-08T09:33:59Z</time>
      </trkpt>
      <trkpt lat="48.55776" lon="7.57081">
        <ele>157.1</ele>
        <time>2019-08-08T09:34:00Z</time>
      </trkpt>
      <trkpt lat="48.55773" lon="7.57091">
        <ele>157.1</ele>
        <time>2019-08-08T09:34:01Z</time>
      </trkpt>
      <trkpt lat="48.55772" lon="7.571">
        <ele>157</ele>
        <time>2019-08-08T09:34:02Z</time>
      </trkpt>
      <trkpt lat="48.55771" lon="7.57107">
        <ele>157.1</ele>
        <time>2019-08-08T09:34:03Z</time>
      </trkpt>
      <trkpt lat="48.5577" lon="7.57115">
        <ele>157.1</ele>
        <time>2019-08-08T09:34:04Z</time>
      </trkpt>
      <trkpt lat="48.55768" lon="7.57125">
        <ele>157.2</ele>
        <time>2019-08-08T09:34:05Z</time>
      </trkpt>
      <trkpt lat="48.55767" lon="7.57132">
        <ele>157.3</ele>
        <time>2019-08-08T09:34:06Z</time>
      </trkpt>
      <trkpt lat="48.55765" lon="7.5714">
        <ele>157.4</ele>
        <time>2019-08-08T09:34:07Z</time>
      </trkpt>
      <trkpt lat="48.55764" lon="7.57144">
        <ele>157.5</ele>
        <time>2019-08-08T09:34:08Z</time>
      </trkpt>
      <trkpt lat="48.55764" lon="7.57149">
        <ele>157.6</ele>
        <time>2019-08-08T09:34:09Z</time>
      </trkpt>
      <trkpt lat="48.55764" lon="7.57154">
        <ele>157.7</ele>
        <time>2019-08-08T09:34:10Z</time>
      </trkpt>
      <trkpt lat="48.55763" lon="7.5716">
        <ele>157.8</ele>
        <time>2019-08-08T09:34:11Z</time>
      </trkpt>
      <trkpt lat="48.55762" lon="7.57167">
        <ele>157.9</ele>
        <time>2019-08-08T09:34:12Z</time>
      </trkpt>
      <trkpt lat="48.55761" lon="7.57175">
        <ele>158</ele>
        <time>2019-08-08T09:34:13Z</time>
      </trkpt>
      <trkpt lat="48.55761" lon="7.57181">
        <ele>158</ele>
        <time>2019-08-08T09:34:14Z</time>
      </trkpt>
      <trkpt lat="48.55761" lon="7.57188">
        <ele>158.1</ele>
        <time>2019-08-08T09:34:15Z</time>
      </trkpt>
      <trkpt lat="48.55762" lon="7.57196">
        <ele>158.1</ele>
        <time>2019-08-08T09:34:16Z</time>
      </trkpt>
      <trkpt lat="48.55763" lon="7.57205">
        <ele>158.1</ele>
        <time>2019-08-08T09:34:17Z</time>
      </trkpt>
      <trkpt lat="48.55764" lon="7.57213">
        <ele>158.1</ele>
        <time>2019-08-08T09:34:18Z</time>
      </trkpt>
      <trkpt lat="48.55764" lon="7.57222">
        <ele>158.1</ele>
        <time>2019-08-08T09:34:19Z</time>
      </trkpt>
      <trkpt lat="48.55765" lon="7.57229">
        <ele>158.1</ele>
        <time>2019-08-08T09:34:20Z</time>
      </trkpt>
      <trkpt lat="48.55766" lon="7.57238">
        <ele>158.1</ele>
        <time>2019-08-08T09:34:21Z</time>
      </trkpt>
      <trkpt lat="48.55767" lon="7.57247">
        <ele>158.1</ele>
        <time>2019-08-08T09:34:22Z</time>
      </trkpt>
      <trkpt lat="48.55766" lon="7.57253">
        <ele>158.1</ele>
        <time>2019-08-08T09:34:23Z</time>
      </trkpt>
      <trkpt lat="48.55767" lon="7.5726">
        <ele>158.1</ele>
        <time>2019-08-08T09:34:24Z</time>
      </trkpt>
      <trkpt lat="48.55767" lon="7.57269">
        <ele>158.1</ele>
        <time>2019-08-08T09:34:25Z</time>
      </trkpt>
      <trkpt lat="48.55767" lon="7.57275">
        <ele>158.1</ele>
        <time>2019-08-08T09:34:26Z</time>
      </trkpt>
      <trkpt lat="48.55765" lon="7.57282">
        <ele>158.1</ele>
        <time>2019-08-08T09:34:27Z</time>
      </trkpt>
      <trkpt lat="48.55766" lon="7.57288">
        <ele>158.1</ele>
        <time>2019-08-08T09:34:28Z</time>
      </trkpt>
      <trkpt lat="48.55765" lon="7.57296">
        <ele>158.1</ele>
        <time>2019-08-08T09:34:29Z</time>
      </trkpt>
      <trkpt lat="48.55764" lon="7.57303">
        <ele>158</ele>
        <time>2019-08-08T09:34:30Z</time>
      </trkpt>
      <trkpt lat="48.55763" lon="7.57309">
        <ele>158</ele>
        <time>2019-08-08T09:34:31Z</time>
      </trkpt>
      <trkpt lat="48.55762" lon="7.57315">
        <ele>157.9</ele>
        <time>2019-08-08T09:34:32Z</time>
      </trkpt>
      <trkpt lat="48.55761" lon="7.57319">
        <ele>157.9</ele>
        <time>2019-08-08T09:34:33Z</time>
      </trkpt>
      <trkpt lat="48.55758" lon="7.57322">
        <ele>157.8</ele>
        <time>2019-08-08T09:34:34Z</time>
      </trkpt>
      <trkpt lat="48.55756" lon="7.57326">
        <ele>157.7</ele>
        <time>2019-08-08T09:34:35Z</time>
      </trkpt>
      <trkpt lat="48.55754" lon="7.57332">
        <ele>157.6</ele>
        <time>2019-08-08T09:34:36Z</time>
      </trkpt>
      <trkpt lat="48.55751" lon="7.5734">
        <ele>157.4</ele>
        <time>2019-08-08T09:34:37Z</time>
      </trkpt>
      <trkpt lat="48.55748" lon="7.57347">
        <ele>157.3</ele>
        <time>2019-08-08T09:34:38Z</time>
      </trkpt>
      <trkpt lat="48.55745" lon="7.57354">
        <ele>157.2</ele>
        <time>2019-08-08T09:34:39Z</time>
      </trkpt>
      <trkpt lat="48.55741" lon="7.57362">
        <ele>157.1</ele>
        <time>2019-08-08T09:34:40Z</time>
      </trkpt>
      <trkpt lat="48.55738" lon="7.57369">
        <ele>157.1</ele>
        <time>2019-08-08T09:34:41Z</time>
      </trkpt>
      <trkpt lat="48.55735" lon="7.57376">
        <ele>157</ele>
        <time>2019-08-08T09:34:42Z</time>
      </trkpt>
      <trkpt lat="48.55733" lon="7.57383">
        <ele>157</ele>
        <time>2019-08-08T09:34:43Z</time>
      </trkpt>
      <trkpt lat="48.5573" lon="7.5739">
        <ele>157</ele>
        <time>2019-08-08T09:34:44Z</time>
      </trkpt>
      <trkpt lat="48.55727" lon="7.57396">
        <ele>157</ele>
        <time>2019-08-08T09:34:45Z</time>
      </trkpt>
      <trkpt lat="48.55724" lon="7.57403">
        <ele>157</ele>
        <time>2019-08-08T09:34:46Z</time>
      </trkpt>
      <trkpt lat="48.55721" lon="7.57411">
        <ele>157</ele>
        <time>2019-08-08T09:34:47Z</time>
      </trkpt>
      <trkpt lat="48.55717" lon="7.57421">
        <ele>157</ele>
        <time>2019-08-08T09:34:48Z</time>
      </trkpt>
      <trkpt lat="48.55712" lon="7.5743">
        <ele>157</ele>
        <time>2019-08-08T09:34:49Z</time>
      </trkpt>
      <trkpt lat="48.55708" lon="7.57438">
        <ele>157</ele>
        <time>2019-08-08T09:34:50Z</time>
      </trkpt>
      <trkpt lat="48.55706" lon="7.57445">
        <ele>157</ele>
        <time>2019-08-08T09:34:51Z</time>
      </trkpt>
      <trkpt lat="48.55705" lon="7.57457">
        <ele>157</ele>
        <time>2019-08-08T09:34:52Z</time>
      </trkpt>
      <trkpt lat="48.55703" lon="7.57467">
        <ele>157</ele>
        <time>2019-08-08T09:34:53Z</time>
      </trkpt>
      <trkpt lat="48.557" lon="7.57477">
        <ele>157</ele>
        <time>2019-08-08T09:34:54Z</time>
      </trkpt>
      <trkpt lat="48.55697" lon="7.57485">
        <ele>157.1</ele>
        <time>2019-08-08T09:34:55Z</time>
      </trkpt>
      <trkpt lat="48.55695" lon="7.57493">
        <ele>157.1</ele>
        <time>2019-08-08T09:34:56Z</time>
      </trkpt>
      <trkpt lat="48.55694" lon="7.57501">
        <ele>157.1</ele>
        <time>2019-08-08T09:34:57Z</time>
      </trkpt>
      <trkpt lat="48.55693" lon="7.57509">
        <ele>157.1</ele>
        <time>2019-08-08T09:34:58Z</time>
      </trkpt>
      <trkpt lat="48.55691" lon="7.57516">
        <ele>157.2</ele>
        <time>2019-08-08T09:34:59Z</time>
      </trkpt>
      <trkpt lat="48.55689" lon="7.57523">
        <ele>157.3</ele>
        <time>2019-08-08T09:35:00Z</time>
      </trkpt>
      <trkpt lat="48.55687" lon="7.57528">
        <ele>157.3</ele>
        <time>2019-08-08T09:35:01Z</time>
      </trkpt>
      <trkpt lat="48.55686" lon="7.57534">
        <ele>157.4</ele>
        <time>2019-08-08T09:35:02Z</time>
      </trkpt>
      <trkpt lat="48.55686" lon="7.57542">
        <ele>157.6</ele>
        <time>2019-08-08T09:35:03Z</time>
      </trkpt>
      <trkpt lat="48.55684" lon="7.57548">
        <ele>157.7</ele>
        <time>2019-08-08T09:35:04Z</time>
      </trkpt>
      <trkpt lat="48.55683" lon="7.57558">
        <ele>157.9</ele>
        <time>2019-08-08T09:35:05Z</time>
      </trkpt>
      <trkpt lat="48.55681" lon="7.57566">
        <ele>157.9</ele>
        <time>2019-08-08T09:35:06Z</time>
      </trkpt>
      <trkpt lat="48.55679" lon="7.57574">
        <ele>158</ele>
        <time>2019-08-08T09:35:07Z</time>
      </trkpt>
      <trkpt lat="48.55677" lon="7.57582">
        <ele>158</ele>
        <time>2019-08-08T09:35:08Z</time>
      </trkpt>
      <trkpt lat="48.55675" lon="7.5759">
        <ele>157.9</ele>
        <time>2019-08-08T09:35:09Z</time>
      </trkpt>
      <trkpt lat="48.5567" lon="7.57601">
        <ele>157.7</ele>
        <time>2019-08-08T09:35:10Z</time>
      </trkpt>
      <trkpt lat="48.55667" lon="7.5761">
        <ele>157.5</ele>
        <time>2019-08-08T09:35:11Z</time>
      </trkpt>
      <trkpt lat="48.55664" lon="7.57617">
        <ele>157.3</ele>
        <time>2019-08-08T09:35:12Z</time>
      </trkpt>
      <trkpt lat="48.55663" lon="7.57628">
        <ele>157.2</ele>
        <time>2019-08-08T09:35:13Z</time>
      </trkpt>
      <trkpt lat="48.55662" lon="7.57636">
        <ele>157.1</ele>
        <time>2019-08-08T09:35:14Z</time>
      </trkpt>
      <trkpt lat="48.55662" lon="7.5764">
        <ele>157.1</ele>
        <time>2019-08-08T09:35:15Z</time>
      </trkpt>
      <trkpt lat="48.55661" lon="7.57648">
        <ele>157.1</ele>
        <time>2019-08-08T09:35:17Z</time>
      </trkpt>
      <trkpt lat="48.55659" lon="7.57654">
        <ele>157.1</ele>
        <time>2019-08-08T09:35:19Z</time>
      </trkpt>
      <trkpt lat="48.55658" lon="7.57661">
        <ele>157.1</ele>
        <time>2019-08-08T09:35:20Z</time>
      </trkpt>
      <trkpt lat="48.55657" lon="7.57665">
        <ele>157</ele>
        <time>2019-08-08T09:35:21Z</time>
      </trkpt>
      <trkpt lat="48.55656" lon="7.57671">
        <ele>157</ele>
        <time>2019-08-08T09:35:22Z</time>
      </trkpt>
      <trkpt lat="48.55656" lon="7.57679">
        <ele>157</ele>
        <time>2019-08-08T09:35:23Z</time>
      </trkpt>
      <trkpt lat="48.55656" lon="7.57687">
        <ele>156.9</ele>
        <time>2019-08-08T09:35:24Z</time>
      </trkpt>
      <trkpt lat="48.55656" lon="7.57695">
        <ele>156.8</ele>
        <time>2019-08-08T09:35:25Z</time>
      </trkpt>
      <trkpt lat="48.55657" lon="7.57703">
        <ele>156.7</ele>
        <time>2019-08-08T09:35:26Z</time>
      </trkpt>
      <trkpt lat="48.55659" lon="7.5771">
        <ele>156.6</ele>
        <time>2019-08-08T09:35:27Z</time>
      </trkpt>
      <trkpt lat="48.55662" lon="7.57717">
        <ele>156.5</ele>
        <time>2019-08-08T09:35:28Z</time>
      </trkpt>
      <trkpt lat="48.55665" lon="7.57723">
        <ele>156.4</ele>
        <time>2019-08-08T09:35:29Z</time>
      </trkpt>
      <trkpt lat="48.55668" lon="7.57731">
        <ele>156.3</ele>
        <time>2019-08-08T09:35:30Z</time>
      </trkpt>
      <trkpt lat="48.55671" lon="7.57739">
        <ele>156.2</ele>
        <time>2019-08-08T09:35:31Z</time>
      </trkpt>
      <trkpt lat="48.55674" lon="7.57746">
        <ele>156.2</ele>
        <time>2019-08-08T09:35:32Z</time>
      </trkpt>
      <trkpt lat="48.55677" lon="7.57753">
        <ele>156.2</ele>
        <time>2019-08-08T09:35:33Z</time>
      </trkpt>
      <trkpt lat="48.5568" lon="7.5776">
        <ele>156.2</ele>
        <time>2019-08-08T09:35:34Z</time>
      </trkpt>
      <trkpt lat="48.55682" lon="7.57767">
        <ele>156.2</ele>
        <time>2019-08-08T09:35:35Z</time>
      </trkpt>
      <trkpt lat="48.55684" lon="7.57775">
        <ele>156.2</ele>
        <time>2019-08-08T09:35:36Z</time>
      </trkpt>
      <trkpt lat="48.55685" lon="7.57783">
        <ele>156.2</ele>
        <time>2019-08-08T09:35:37Z</time>
      </trkpt>
      <trkpt lat="48.55688" lon="7.5779">
        <ele>156.2</ele>
        <time>2019-08-08T09:35:38Z</time>
      </trkpt>
      <trkpt lat="48.55691" lon="7.57797">
        <ele>156.2</ele>
        <time>2019-08-08T09:35:39Z</time>
      </trkpt>
      <trkpt lat="48.55694" lon="7.57803">
        <ele>156.2</ele>
        <time>2019-08-08T09:35:40Z</time>
      </trkpt>
      <trkpt lat="48.55697" lon="7.5781">
        <ele>156.2</ele>
        <time>2019-08-08T09:35:41Z</time>
      </trkpt>
      <trkpt lat="48.55699" lon="7.57817">
        <ele>156.2</ele>
        <time>2019-08-08T09:35:42Z</time>
      </trkpt>
      <trkpt lat="48.55702" lon="7.57824">
        <ele>156.2</ele>
        <time>2019-08-08T09:35:43Z</time>
      </trkpt>
      <trkpt lat="48.55705" lon="7.5783">
        <ele>156.2</ele>
        <time>2019-08-08T09:35:44Z</time>
      </trkpt>
      <trkpt lat="48.5571" lon="7.57835">
        <ele>156.2</ele>
        <time>2019-08-08T09:35:45Z</time>
      </trkpt>
      <trkpt lat="48.55712" lon="7.57841">
        <ele>156.2</ele>
        <time>2019-08-08T09:35:46Z</time>
      </trkpt>
      <trkpt lat="48.55715" lon="7.57847">
        <ele>156.2</ele>
        <time>2019-08-08T09:35:47Z</time>
      </trkpt>
      <trkpt lat="48.55717" lon="7.57854">
        <ele>156.2</ele>
        <time>2019-08-08T09:35:48Z</time>
      </trkpt>
      <trkpt lat="48.5572" lon="7.57861">
        <ele>156.2</ele>
        <time>2019-08-08T09:35:49Z</time>
      </trkpt>
      <trkpt lat="48.55721" lon="7.57868">
        <ele>156.2</ele>
        <time>2019-08-08T09:35:50Z</time>
      </trkpt>
      <trkpt lat="48.55723" lon="7.57877">
        <ele>156.2</ele>
        <time>2019-08-08T09:35:51Z</time>
      </trkpt>
      <trkpt lat="48.55724" lon="7.57885">
        <ele>156.2</ele>
        <time>2019-08-08T09:35:52Z</time>
      </trkpt>
      <trkpt lat="48.55726" lon="7.57893">
        <ele>156.2</ele>
        <time>2019-08-08T09:35:53Z</time>
      </trkpt>
      <trkpt lat="48.55727" lon="7.57902">
        <ele>156.2</ele>
        <time>2019-08-08T09:35:54Z</time>
      </trkpt>
      <trkpt lat="48.55729" lon="7.5791">
        <ele>156.2</ele>
        <time>2019-08-08T09:35:55Z</time>
      </trkpt>
      <trkpt lat="48.55731" lon="7.57917">
        <ele>156.2</ele>
        <time>2019-08-08T09:35:56Z</time>
      </trkpt>
      <trkpt lat="48.55734" lon="7.57924">
        <ele>156.2</ele>
        <time>2019-08-08T09:35:57Z</time>
      </trkpt>
      <trkpt lat="48.55736" lon="7.57931">
        <ele>156.2</ele>
        <time>2019-08-08T09:35:58Z</time>
      </trkpt>
      <trkpt lat="48.55737" lon="7.57938">
        <ele>156.2</ele>
        <time>2019-08-08T09:35:59Z</time>
      </trkpt>
      <trkpt lat="48.55739" lon="7.57946">
        <ele>156.1</ele>
        <time>2019-08-08T09:36:00Z</time>
      </trkpt>
      <trkpt lat="48.55741" lon="7.57953">
        <ele>156.1</ele>
        <time>2019-08-08T09:36:01Z</time>
      </trkpt>
      <trkpt lat="48.55744" lon="7.57958">
        <ele>156</ele>
        <time>2019-08-08T09:36:02Z</time>
      </trkpt>
      <trkpt lat="48.55747" lon="7.57966">
        <ele>155.9</ele>
        <time>2019-08-08T09:36:03Z</time>
      </trkpt>
      <trkpt lat="48.55749" lon="7.57973">
        <ele>155.7</ele>
        <time>2019-08-08T09:36:04Z</time>
      </trkpt>
      <trkpt lat="48.55751" lon="7.57981">
        <ele>155.6</ele>
        <time>2019-08-08T09:36:05Z</time>
      </trkpt>
      <trkpt lat="48.55754" lon="7.57988">
        <ele>155.4</ele>
        <time>2019-08-08T09:36:06Z</time>
      </trkpt>
      <trkpt lat="48.55755" lon="7.57995">
        <ele>155.3</ele>
        <time>2019-08-08T09:36:07Z</time>
      </trkpt>
      <trkpt lat="48.55757" lon="7.58002">
        <ele>155.3</ele>
        <time>2019-08-08T09:36:08Z</time>
      </trkpt>
      <trkpt lat="48.55759" lon="7.58009">
        <ele>155.2</ele>
        <time>2019-08-08T09:36:09Z</time>
      </trkpt>
      <trkpt lat="48.5576" lon="7.58016">
        <ele>155.2</ele>
        <time>2019-08-08T09:36:10Z</time>
      </trkpt>
      <trkpt lat="48.55761" lon="7.58023">
        <ele>155.2</ele>
        <time>2019-08-08T09:36:11Z</time>
      </trkpt>
      <trkpt lat="48.55762" lon="7.58029">
        <ele>155.2</ele>
        <time>2019-08-08T09:36:12Z</time>
      </trkpt>
      <trkpt lat="48.55763" lon="7.58035">
        <ele>155.2</ele>
        <time>2019-08-08T09:36:13Z</time>
      </trkpt>
      <trkpt lat="48.55763" lon="7.58041">
        <ele>155.2</ele>
        <time>2019-08-08T09:36:14Z</time>
      </trkpt>
      <trkpt lat="48.55764" lon="7.58047">
        <ele>155.3</ele>
        <time>2019-08-08T09:36:15Z</time>
      </trkpt>
      <trkpt lat="48.55765" lon="7.58055">
        <ele>155.3</ele>
        <time>2019-08-08T09:36:16Z</time>
      </trkpt>
      <trkpt lat="48.55767" lon="7.58061">
        <ele>155.4</ele>
        <time>2019-08-08T09:36:17Z</time>
      </trkpt>
      <trkpt lat="48.5577" lon="7.58069">
        <ele>155.6</ele>
        <time>2019-08-08T09:36:18Z</time>
      </trkpt>
      <trkpt lat="48.55771" lon="7.58078">
        <ele>155.9</ele>
        <time>2019-08-08T09:36:19Z</time>
      </trkpt>
      <trkpt lat="48.55773" lon="7.58086">
        <ele>156.1</ele>
        <time>2019-08-08T09:36:20Z</time>
      </trkpt>
      <trkpt lat="48.55775" lon="7.58093">
        <ele>156.3</ele>
        <time>2019-08-08T09:36:21Z</time>
      </trkpt>
      <trkpt lat="48.55777" lon="7.58101">
        <ele>156.6</ele>
        <time>2019-08-08T09:36:22Z</time>
      </trkpt>
      <trkpt lat="48.55779" lon="7.58108">
        <ele>156.8</ele>
        <time>2019-08-08T09:36:23Z</time>
      </trkpt>
      <trkpt lat="48.5578" lon="7.58116">
        <ele>156.9</ele>
        <time>2019-08-08T09:36:24Z</time>
      </trkpt>
      <trkpt lat="48.55782" lon="7.58123">
        <ele>157</ele>
        <time>2019-08-08T09:36:25Z</time>
      </trkpt>
      <trkpt lat="48.55783" lon="7.58129">
        <ele>157.1</ele>
        <time>2019-08-08T09:36:26Z</time>
      </trkpt>
      <trkpt lat="48.55785" lon="7.58135">
        <ele>157.1</ele>
        <time>2019-08-08T09:36:27Z</time>
      </trkpt>
      <trkpt lat="48.55786" lon="7.5814">
        <ele>157.1</ele>
        <time>2019-08-08T09:36:28Z</time>
      </trkpt>
      <trkpt lat="48.55787" lon="7.58146">
        <ele>157.1</ele>
        <time>2019-08-08T09:36:29Z</time>
      </trkpt>
      <trkpt lat="48.55789" lon="7.58152">
        <ele>157</ele>
        <time>2019-08-08T09:36:30Z</time>
      </trkpt>
      <trkpt lat="48.5579" lon="7.58159">
        <ele>157</ele>
        <time>2019-08-08T09:36:31Z</time>
      </trkpt>
      <trkpt lat="48.55792" lon="7.58165">
        <ele>156.9</ele>
        <time>2019-08-08T09:36:32Z</time>
      </trkpt>
      <trkpt lat="48.55794" lon="7.58171">
        <ele>156.7</ele>
        <time>2019-08-08T09:36:33Z</time>
      </trkpt>
      <trkpt lat="48.55795" lon="7.58176">
        <ele>156.6</ele>
        <time>2019-08-08T09:36:34Z</time>
      </trkpt>
      <trkpt lat="48.55797" lon="7.58181">
        <ele>156.4</ele>
        <time>2019-08-08T09:36:35Z</time>
      </trkpt>
      <trkpt lat="48.55799" lon="7.58187">
        <ele>156.2</ele>
        <time>2019-08-08T09:36:36Z</time>
      </trkpt>
      <trkpt lat="48.55801" lon="7.58192">
        <ele>156</ele>
        <time>2019-08-08T09:36:37Z</time>
      </trkpt>
      <trkpt lat="48.55803" lon="7.58199">
        <ele>155.8</ele>
        <time>2019-08-08T09:36:38Z</time>
      </trkpt>
      <trkpt lat="48.55804" lon="7.58208">
        <ele>155.6</ele>
        <time>2019-08-08T09:36:39Z</time>
      </trkpt>
      <trkpt lat="48.55805" lon="7.58216">
        <ele>155.4</ele>
        <time>2019-08-08T09:36:40Z</time>
      </trkpt>
      <trkpt lat="48.55806" lon="7.58226">
        <ele>155.3</ele>
        <time>2019-08-08T09:36:41Z</time>
      </trkpt>
      <trkpt lat="48.55805" lon="7.58237">
        <ele>155.3</ele>
        <time>2019-08-08T09:36:42Z</time>
      </trkpt>
      <trkpt lat="48.55804" lon="7.58246">
        <ele>155.3</ele>
        <time>2019-08-08T09:36:43Z</time>
      </trkpt>
      <trkpt lat="48.55802" lon="7.58254">
        <ele>155.4</ele>
        <time>2019-08-08T09:36:44Z</time>
      </trkpt>
      <trkpt lat="48.55799" lon="7.5826">
        <ele>155.5</ele>
        <time>2019-08-08T09:36:45Z</time>
      </trkpt>
      <trkpt lat="48.55796" lon="7.58266">
        <ele>155.6</ele>
        <time>2019-08-08T09:36:46Z</time>
      </trkpt>
      <trkpt lat="48.55793" lon="7.58272">
        <ele>155.8</ele>
        <time>2019-08-08T09:36:47Z</time>
      </trkpt>
      <trkpt lat="48.55789" lon="7.58277">
        <ele>156</ele>
        <time>2019-08-08T09:36:48Z</time>
      </trkpt>
      <trkpt lat="48.55784" lon="7.58282">
        <ele>156.1</ele>
        <time>2019-08-08T09:36:49Z</time>
      </trkpt>
      <trkpt lat="48.5578" lon="7.58288">
        <ele>156.2</ele>
        <time>2019-08-08T09:36:50Z</time>
      </trkpt>
      <trkpt lat="48.55775" lon="7.58294">
        <ele>156.3</ele>
        <time>2019-08-08T09:36:51Z</time>
      </trkpt>
      <trkpt lat="48.5577" lon="7.583">
        <ele>156.5</ele>
        <time>2019-08-08T09:36:52Z</time>
      </trkpt>
      <trkpt lat="48.55765" lon="7.58306">
        <ele>156.6</ele>
        <time>2019-08-08T09:36:53Z</time>
      </trkpt>
      <trkpt lat="48.55762" lon="7.58311">
        <ele>156.7</ele>
        <time>2019-08-08T09:36:54Z</time>
      </trkpt>
      <trkpt lat="48.55757" lon="7.58317">
        <ele>156.8</ele>
        <time>2019-08-08T09:36:55Z</time>
      </trkpt>
      <trkpt lat="48.55754" lon="7.58323">
        <ele>156.9</ele>
        <time>2019-08-08T09:36:56Z</time>
      </trkpt>
      <trkpt lat="48.55751" lon="7.58329">
        <ele>157</ele>
        <time>2019-08-08T09:36:57Z</time>
      </trkpt>
      <trkpt lat="48.55748" lon="7.58335">
        <ele>157.1</ele>
        <time>2019-08-08T09:36:58Z</time>
      </trkpt>
      <trkpt lat="48.55745" lon="7.58341">
        <ele>157.1</ele>
        <time>2019-08-08T09:36:59Z</time>
      </trkpt>
      <trkpt lat="48.55743" lon="7.58344">
        <ele>157.2</ele>
        <time>2019-08-08T09:37:00Z</time>
      </trkpt>
      <trkpt lat="48.55739" lon="7.58349">
        <ele>157.2</ele>
        <time>2019-08-08T09:37:01Z</time>
      </trkpt>
      <trkpt lat="48.55736" lon="7.58354">
        <ele>157.2</ele>
        <time>2019-08-08T09:37:02Z</time>
      </trkpt>
      <trkpt lat="48.55732" lon="7.5836">
        <ele>157.2</ele>
        <time>2019-08-08T09:37:03Z</time>
      </trkpt>
      <trkpt lat="48.5573" lon="7.58364">
        <ele>157.2</ele>
        <time>2019-08-08T09:37:04Z</time>
      </trkpt>
      <trkpt lat="48.55728" lon="7.58369">
        <ele>157.2</ele>
        <time>2019-08-08T09:37:05Z</time>
      </trkpt>
      <trkpt lat="48.55725" lon="7.58375">
        <ele>157.2</ele>
        <time>2019-08-08T09:37:06Z</time>
      </trkpt>
      <trkpt lat="48.55723" lon="7.5838">
        <ele>157.2</ele>
        <time>2019-08-08T09:37:07Z</time>
      </trkpt>
      <trkpt lat="48.5572" lon="7.58385">
        <ele>157.2</ele>
        <time>2019-08-08T09:37:08Z</time>
      </trkpt>
      <trkpt lat="48.55718" lon="7.58389">
        <ele>157.2</ele>
        <time>2019-08-08T09:37:09Z</time>
      </trkpt>
      <trkpt lat="48.55715" lon="7.58395">
        <ele>157.2</ele>
        <time>2019-08-08T09:37:10Z</time>
      </trkpt>
      <trkpt lat="48.55713" lon="7.58401">
        <ele>157.2</ele>
        <time>2019-08-08T09:37:11Z</time>
      </trkpt>
      <trkpt lat="48.5571" lon="7.58406">
        <ele>157.2</ele>
        <time>2019-08-08T09:37:12Z</time>
      </trkpt>
      <trkpt lat="48.55707" lon="7.58411">
        <ele>157.2</ele>
        <time>2019-08-08T09:37:13Z</time>
      </trkpt>
      <trkpt lat="48.55705" lon="7.58415">
        <ele>157.2</ele>
        <time>2019-08-08T09:37:14Z</time>
      </trkpt>
      <trkpt lat="48.55702" lon="7.58421">
        <ele>157.2</ele>
        <time>2019-08-08T09:37:15Z</time>
      </trkpt>
      <trkpt lat="48.55699" lon="7.58426">
        <ele>157.1</ele>
        <time>2019-08-08T09:37:16Z</time>
      </trkpt>
      <trkpt lat="48.55696" lon="7.58431">
        <ele>157.1</ele>
        <time>2019-08-08T09:37:17Z</time>
      </trkpt>
      <trkpt lat="48.55694" lon="7.58436">
        <ele>157</ele>
        <time>2019-08-08T09:37:18Z</time>
      </trkpt>
      <trkpt lat="48.55691" lon="7.58441">
        <ele>156.9</ele>
        <time>2019-08-08T09:37:19Z</time>
      </trkpt>
      <trkpt lat="48.55688" lon="7.5845">
        <ele>156.8</ele>
        <time>2019-08-08T09:37:20Z</time>
      </trkpt>
      <trkpt lat="48.55686" lon="7.58457">
        <ele>156.7</ele>
        <time>2019-08-08T09:37:21Z</time>
      </trkpt>
      <trkpt lat="48.55683" lon="7.58464">
        <ele>156.6</ele>
        <time>2019-08-08T09:37:22Z</time>
      </trkpt>
      <trkpt lat="48.5568" lon="7.58474">
        <ele>156.5</ele>
        <time>2019-08-08T09:37:23Z</time>
      </trkpt>
      <trkpt lat="48.55677" lon="7.58483">
        <ele>156.4</ele>
        <time>2019-08-08T09:37:24Z</time>
      </trkpt>
      <trkpt lat="48.55674" lon="7.58492">
        <ele>156.4</ele>
        <time>2019-08-08T09:37:25Z</time>
      </trkpt>
      <trkpt lat="48.55672" lon="7.58501">
        <ele>156.4</ele>
        <time>2019-08-08T09:37:26Z</time>
      </trkpt>
      <trkpt lat="48.5567" lon="7.58512">
        <ele>156.4</ele>
        <time>2019-08-08T09:37:27Z</time>
      </trkpt>
      <trkpt lat="48.55668" lon="7.58521">
        <ele>156.5</ele>
        <time>2019-08-08T09:37:28Z</time>
      </trkpt>
      <trkpt lat="48.55667" lon="7.5853">
        <ele>156.5</ele>
        <time>2019-08-08T09:37:29Z</time>
      </trkpt>
      <trkpt lat="48.55665" lon="7.58536">
        <ele>156.6</ele>
        <time>2019-08-08T09:37:30Z</time>
      </trkpt>
      <trkpt lat="48.55664" lon="7.58542">
        <ele>156.7</ele>
        <time>2019-08-08T09:37:31Z</time>
      </trkpt>
      <trkpt lat="48.55663" lon="7.58547">
        <ele>156.7</ele>
        <time>2019-08-08T09:37:32Z</time>
      </trkpt>
      <trkpt lat="48.55663" lon="7.58553">
        <ele>156.8</ele>
        <time>2019-08-08T09:37:33Z</time>
      </trkpt>
      <trkpt lat="48.55663" lon="7.58558">
        <ele>156.9</ele>
        <time>2019-08-08T09:37:34Z</time>
      </trkpt>
      <trkpt lat="48.55662" lon="7.58563">
        <ele>156.9</ele>
        <time>2019-08-08T09:37:35Z</time>
      </trkpt>
      <trkpt lat="48.55661" lon="7.58569">
        <ele>157</ele>
        <time>2019-08-08T09:37:37Z</time>
      </trkpt>
      <trkpt lat="48.55657" lon="7.58574">
        <ele>157</ele>
        <time>2019-08-08T09:37:40Z</time>
      </trkpt>
      <trkpt lat="48.55655" lon="7.58578">
        <ele>156.9</ele>
        <time>2019-08-08T09:37:41Z</time>
      </trkpt>
      <trkpt lat="48.55653" lon="7.58584">
        <ele>156.9</ele>
        <time>2019-08-08T09:37:42Z</time>
      </trkpt>
      <trkpt lat="48.55651" lon="7.58591">
        <ele>156.8</ele>
        <time>2019-08-08T09:37:43Z</time>
      </trkpt>
      <trkpt lat="48.55647" lon="7.58598">
        <ele>156.7</ele>
        <time>2019-08-08T09:37:44Z</time>
      </trkpt>
      <trkpt lat="48.55644" lon="7.58604">
        <ele>156.6</ele>
        <time>2019-08-08T09:37:45Z</time>
      </trkpt>
      <trkpt lat="48.55643" lon="7.58611">
        <ele>156.4</ele>
        <time>2019-08-08T09:37:46Z</time>
      </trkpt>
      <trkpt lat="48.5564" lon="7.58619">
        <ele>156.3</ele>
        <time>2019-08-08T09:37:47Z</time>
      </trkpt>
      <trkpt lat="48.55638" lon="7.58629">
        <ele>156.2</ele>
        <time>2019-08-08T09:37:48Z</time>
      </trkpt>
      <trkpt lat="48.55636" lon="7.58637">
        <ele>156.1</ele>
        <time>2019-08-08T09:37:49Z</time>
      </trkpt>
      <trkpt lat="48.55634" lon="7.58645">
        <ele>156</ele>
        <time>2019-08-08T09:37:50Z</time>
      </trkpt>
      <trkpt lat="48.55631" lon="7.58652">
        <ele>156</ele>
        <time>2019-08-08T09:37:51Z</time>
      </trkpt>
      <trkpt lat="48.55629" lon="7.58659">
        <ele>156</ele>
        <time>2019-08-08T09:37:52Z</time>
      </trkpt>
      <trkpt lat="48.55628" lon="7.58663">
        <ele>156</ele>
        <time>2019-08-08T09:37:53Z</time>
      </trkpt>
      <trkpt lat="48.55627" lon="7.58667">
        <ele>156.1</ele>
        <time>2019-08-08T09:37:54Z</time>
      </trkpt>
      <trkpt lat="48.55625" lon="7.58671">
        <ele>156.1</ele>
        <time>2019-08-08T09:37:55Z</time>
      </trkpt>
      <trkpt lat="48.55623" lon="7.58676">
        <ele>156.2</ele>
        <time>2019-08-08T09:37:56Z</time>
      </trkpt>
      <trkpt lat="48.55622" lon="7.58682">
        <ele>156.2</ele>
        <time>2019-08-08T09:37:57Z</time>
      </trkpt>
      <trkpt lat="48.55621" lon="7.58689">
        <ele>156.3</ele>
        <time>2019-08-08T09:37:58Z</time>
      </trkpt>
      <trkpt lat="48.55621" lon="7.58696">
        <ele>156.3</ele>
        <time>2019-08-08T09:37:59Z</time>
      </trkpt>
      <trkpt lat="48.55619" lon="7.58701">
        <ele>156.3</ele>
        <time>2019-08-08T09:38:00Z</time>
      </trkpt>
      <trkpt lat="48.55617" lon="7.58705">
        <ele>156.4</ele>
        <time>2019-08-08T09:38:01Z</time>
      </trkpt>
      <trkpt lat="48.55616" lon="7.5871">
        <ele>156.4</ele>
        <time>2019-08-08T09:38:02Z</time>
      </trkpt>
      <trkpt lat="48.55614" lon="7.58715">
        <ele>156.4</ele>
        <time>2019-08-08T09:38:03Z</time>
      </trkpt>
      <trkpt lat="48.55612" lon="7.5872">
        <ele>156.4</ele>
        <time>2019-08-08T09:38:04Z</time>
      </trkpt>
      <trkpt lat="48.5561" lon="7.58725">
        <ele>156.4</ele>
        <time>2019-08-08T09:38:05Z</time>
      </trkpt>
      <trkpt lat="48.55609" lon="7.58731">
        <ele>156.4</ele>
        <time>2019-08-08T09:38:06Z</time>
      </trkpt>
      <trkpt lat="48.55607" lon="7.58737">
        <ele>156.4</ele>
        <time>2019-08-08T09:38:07Z</time>
      </trkpt>
      <trkpt lat="48.55604" lon="7.58741">
        <ele>156.4</ele>
        <time>2019-08-08T09:38:08Z</time>
      </trkpt>
      <trkpt lat="48.55601" lon="7.58747">
        <ele>156.4</ele>
        <time>2019-08-08T09:38:09Z</time>
      </trkpt>
      <trkpt lat="48.55599" lon="7.58754">
        <ele>156.4</ele>
        <time>2019-08-08T09:38:10Z</time>
      </trkpt>
      <trkpt lat="48.55597" lon="7.5876">
        <ele>156.4</ele>
        <time>2019-08-08T09:38:11Z</time>
      </trkpt>
      <trkpt lat="48.55596" lon="7.58765">
        <ele>156.4</ele>
        <time>2019-08-08T09:38:12Z</time>
      </trkpt>
      <trkpt lat="48.55595" lon="7.58771">
        <ele>156.4</ele>
        <time>2019-08-08T09:38:13Z</time>
      </trkpt>
      <trkpt lat="48.55593" lon="7.58776">
        <ele>156.4</ele>
        <time>2019-08-08T09:38:14Z</time>
      </trkpt>
      <trkpt lat="48.55592" lon="7.5878">
        <ele>156.4</ele>
        <time>2019-08-08T09:38:15Z</time>
      </trkpt>
      <trkpt lat="48.55589" lon="7.58784">
        <ele>156.4</ele>
        <time>2019-08-08T09:38:16Z</time>
      </trkpt>
      <trkpt lat="48.55586" lon="7.58789">
        <ele>156.4</ele>
        <time>2019-08-08T09:38:17Z</time>
      </trkpt>
      <trkpt lat="48.55583" lon="7.58795">
        <ele>156.4</ele>
        <time>2019-08-08T09:38:18Z</time>
      </trkpt>
      <trkpt lat="48.5558" lon="7.588">
        <ele>156.4</ele>
        <time>2019-08-08T09:38:19Z</time>
      </trkpt>
      <trkpt lat="48.55578" lon="7.58806">
        <ele>156.4</ele>
        <time>2019-08-08T09:38:20Z</time>
      </trkpt>
      <trkpt lat="48.55576" lon="7.5881">
        <ele>156.4</ele>
        <time>2019-08-08T09:38:21Z</time>
      </trkpt>
      <trkpt lat="48.55573" lon="7.58813">
        <ele>156.4</ele>
        <time>2019-08-08T09:38:22Z</time>
      </trkpt>
      <trkpt lat="48.55571" lon="7.58817">
        <ele>156.4</ele>
        <time>2019-08-08T09:38:23Z</time>
      </trkpt>
      <trkpt lat="48.55568" lon="7.58821">
        <ele>156.4</ele>
        <time>2019-08-08T09:38:24Z</time>
      </trkpt>
      <trkpt lat="48.55567" lon="7.58826">
        <ele>156.4</ele>
        <time>2019-08-08T09:38:25Z</time>
      </trkpt>
      <trkpt lat="48.55565" lon="7.58831">
        <ele>156.4</ele>
        <time>2019-08-08T09:38:26Z</time>
      </trkpt>
      <trkpt lat="48.55563" lon="7.58836">
        <ele>156.4</ele>
        <time>2019-08-08T09:38:27Z</time>
      </trkpt>
      <trkpt lat="48.55561" lon="7.58843">
        <ele>156.4</ele>
        <time>2019-08-08T09:38:28Z</time>
      </trkpt>
      <trkpt lat="48.55558" lon="7.5885">
        <ele>156.4</ele>
        <time>2019-08-08T09:38:29Z</time>
      </trkpt>
      <trkpt lat="48.55555" lon="7.58857">
        <ele>156.4</ele>
        <time>2019-08-08T09:38:30Z</time>
      </trkpt>
      <trkpt lat="48.55551" lon="7.58865">
        <ele>156.4</ele>
        <time>2019-08-08T09:38:31Z</time>
      </trkpt>
      <trkpt lat="48.55548" lon="7.58871">
        <ele>156.4</ele>
        <time>2019-08-08T09:38:32Z</time>
      </trkpt>
      <trkpt lat="48.55545" lon="7.58878">
        <ele>156.4</ele>
        <time>2019-08-08T09:38:33Z</time>
      </trkpt>
      <trkpt lat="48.55542" lon="7.58885">
        <ele>156.4</ele>
        <time>2019-08-08T09:38:34Z</time>
      </trkpt>
      <trkpt lat="48.55538" lon="7.58891">
        <ele>156.4</ele>
        <time>2019-08-08T09:38:35Z</time>
      </trkpt>
      <trkpt lat="48.55533" lon="7.58898">
        <ele>156.5</ele>
        <time>2019-08-08T09:38:36Z</time>
      </trkpt>
      <trkpt lat="48.55529" lon="7.58904">
        <ele>156.5</ele>
        <time>2019-08-08T09:38:37Z</time>
      </trkpt>
      <trkpt lat="48.55525" lon="7.58911">
        <ele>156.5</ele>
        <time>2019-08-08T09:38:38Z</time>
      </trkpt>
      <trkpt lat="48.55521" lon="7.58917">
        <ele>156.6</ele>
        <time>2019-08-08T09:38:39Z</time>
      </trkpt>
      <trkpt lat="48.55516" lon="7.58925">
        <ele>156.7</ele>
        <time>2019-08-08T09:38:40Z</time>
      </trkpt>
      <trkpt lat="48.55511" lon="7.58932">
        <ele>156.9</ele>
        <time>2019-08-08T09:38:41Z</time>
      </trkpt>
      <trkpt lat="48.55508" lon="7.58939">
        <ele>157</ele>
        <time>2019-08-08T09:38:42Z</time>
      </trkpt>
      <trkpt lat="48.55504" lon="7.58945">
        <ele>157.2</ele>
        <time>2019-08-08T09:38:43Z</time>
      </trkpt>
      <trkpt lat="48.55502" lon="7.5895">
        <ele>157.3</ele>
        <time>2019-08-08T09:38:44Z</time>
      </trkpt>
      <trkpt lat="48.55499" lon="7.58955">
        <ele>157.3</ele>
        <time>2019-08-08T09:38:46Z</time>
      </trkpt>
      <trkpt lat="48.55497" lon="7.58959">
        <ele>157.4</ele>
        <time>2019-08-08T09:38:47Z</time>
      </trkpt>
      <trkpt lat="48.55496" lon="7.58963">
        <ele>157.3</ele>
        <time>2019-08-08T09:38:48Z</time>
      </trkpt>
      <trkpt lat="48.55493" lon="7.5897">
        <ele>157.2</ele>
        <time>2019-08-08T09:38:49Z</time>
      </trkpt>
      <trkpt lat="48.5549" lon="7.58976">
        <ele>157</ele>
        <time>2019-08-08T09:38:50Z</time>
      </trkpt>
      <trkpt lat="48.55486" lon="7.58982">
        <ele>156.5</ele>
        <time>2019-08-08T09:38:51Z</time>
      </trkpt>
      <trkpt lat="48.55482" lon="7.58989">
        <ele>156.5</ele>
        <time>2019-08-08T09:38:52Z</time>
      </trkpt>
      <trkpt lat="48.55479" lon="7.58995">
        <ele>156.5</ele>
        <time>2019-08-08T09:38:53Z</time>
      </trkpt>
      <trkpt lat="48.55475" lon="7.59001">
        <ele>156.5</ele>
        <time>2019-08-08T09:38:54Z</time>
      </trkpt>
      <trkpt lat="48.55472" lon="7.59007">
        <ele>156.5</ele>
        <time>2019-08-08T09:38:55Z</time>
      </trkpt>
      <trkpt lat="48.55469" lon="7.59013">
        <ele>156.4</ele>
        <time>2019-08-08T09:38:56Z</time>
      </trkpt>
      <trkpt lat="48.55466" lon="7.5902">
        <ele>156.4</ele>
        <time>2019-08-08T09:38:57Z</time>
      </trkpt>
      <trkpt lat="48.55463" lon="7.59026">
        <ele>156.4</ele>
        <time>2019-08-08T09:38:58Z</time>
      </trkpt>
      <trkpt lat="48.5546" lon="7.59031">
        <ele>156.4</ele>
        <time>2019-08-08T09:38:59Z</time>
      </trkpt>
      <trkpt lat="48.55457" lon="7.59036">
        <ele>156.4</ele>
        <time>2019-08-08T09:39:00Z</time>
      </trkpt>
      <trkpt lat="48.55454" lon="7.59041">
        <ele>156.4</ele>
        <time>2019-08-08T09:39:01Z</time>
      </trkpt>
      <trkpt lat="48.5545" lon="7.59048">
        <ele>156.3</ele>
        <time>2019-08-08T09:39:02Z</time>
      </trkpt>
      <trkpt lat="48.55445" lon="7.59054">
        <ele>156.2</ele>
        <time>2019-08-08T09:39:03Z</time>
      </trkpt>
      <trkpt lat="48.55441" lon="7.59059">
        <ele>156.1</ele>
        <time>2019-08-08T09:39:04Z</time>
      </trkpt>
      <trkpt lat="48.55437" lon="7.59065">
        <ele>156</ele>
        <time>2019-08-08T09:39:05Z</time>
      </trkpt>
      <trkpt lat="48.55434" lon="7.59071">
        <ele>155.9</ele>
        <time>2019-08-08T09:39:06Z</time>
      </trkpt>
      <trkpt lat="48.5543" lon="7.59078">
        <ele>155.8</ele>
        <time>2019-08-08T09:39:07Z</time>
      </trkpt>
      <trkpt lat="48.55428" lon="7.59083">
        <ele>155.7</ele>
        <time>2019-08-08T09:39:08Z</time>
      </trkpt>
      <trkpt lat="48.55423" lon="7.59091">
        <ele>155.6</ele>
        <time>2019-08-08T09:39:09Z</time>
      </trkpt>
      <trkpt lat="48.55419" lon="7.59097">
        <ele>155.5</ele>
        <time>2019-08-08T09:39:10Z</time>
      </trkpt>
      <trkpt lat="48.55416" lon="7.59103">
        <ele>155.4</ele>
        <time>2019-08-08T09:39:11Z</time>
      </trkpt>
      <trkpt lat="48.55411" lon="7.5911">
        <ele>155.3</ele>
        <time>2019-08-08T09:39:12Z</time>
      </trkpt>
      <trkpt lat="48.55407" lon="7.59115">
        <ele>155.2</ele>
        <time>2019-08-08T09:39:13Z</time>
      </trkpt>
      <trkpt lat="48.55403" lon="7.59121">
        <ele>155.2</ele>
        <time>2019-08-08T09:39:14Z</time>
      </trkpt>
      <trkpt lat="48.554" lon="7.59127">
        <ele>155.2</ele>
        <time>2019-08-08T09:39:15Z</time>
      </trkpt>
      <trkpt lat="48.55396" lon="7.59132">
        <ele>155.2</ele>
        <time>2019-08-08T09:39:16Z</time>
      </trkpt>
      <trkpt lat="48.55394" lon="7.59137">
        <ele>155.1</ele>
        <time>2019-08-08T09:39:17Z</time>
      </trkpt>
      <trkpt lat="48.5539" lon="7.59142">
        <ele>155.1</ele>
        <time>2019-08-08T09:39:18Z</time>
      </trkpt>
      <trkpt lat="48.55386" lon="7.59148">
        <ele>155.1</ele>
        <time>2019-08-08T09:39:19Z</time>
      </trkpt>
      <trkpt lat="48.55382" lon="7.59155">
        <ele>155.1</ele>
        <time>2019-08-08T09:39:20Z</time>
      </trkpt>
      <trkpt lat="48.55379" lon="7.59161">
        <ele>155.1</ele>
        <time>2019-08-08T09:39:21Z</time>
      </trkpt>
      <trkpt lat="48.55375" lon="7.59167">
        <ele>155.1</ele>
        <time>2019-08-08T09:39:22Z</time>
      </trkpt>
      <trkpt lat="48.55372" lon="7.59172">
        <ele>155.1</ele>
        <time>2019-08-08T09:39:23Z</time>
      </trkpt>
      <trkpt lat="48.55369" lon="7.59177">
        <ele>155.1</ele>
        <time>2019-08-08T09:39:24Z</time>
      </trkpt>
      <trkpt lat="48.55365" lon="7.59183">
        <ele>155.1</ele>
        <time>2019-08-08T09:39:25Z</time>
      </trkpt>
      <trkpt lat="48.55362" lon="7.59189">
        <ele>155.1</ele>
        <time>2019-08-08T09:39:26Z</time>
      </trkpt>
      <trkpt lat="48.55357" lon="7.59196">
        <ele>155.1</ele>
        <time>2019-08-08T09:39:27Z</time>
      </trkpt>
      <trkpt lat="48.55352" lon="7.59202">
        <ele>155.1</ele>
        <time>2019-08-08T09:39:28Z</time>
      </trkpt>
      <trkpt lat="48.55347" lon="7.59208">
        <ele>155.1</ele>
        <time>2019-08-08T09:39:29Z</time>
      </trkpt>
      <trkpt lat="48.55343" lon="7.59215">
        <ele>155.1</ele>
        <time>2019-08-08T09:39:30Z</time>
      </trkpt>
      <trkpt lat="48.55338" lon="7.59221">
        <ele>155.1</ele>
        <time>2019-08-08T09:39:31Z</time>
      </trkpt>
      <trkpt lat="48.55334" lon="7.59227">
        <ele>155.1</ele>
        <time>2019-08-08T09:39:32Z</time>
      </trkpt>
      <trkpt lat="48.5533" lon="7.59232">
        <ele>155.1</ele>
        <time>2019-08-08T09:39:33Z</time>
      </trkpt>
      <trkpt lat="48.55326" lon="7.59238">
        <ele>155.1</ele>
        <time>2019-08-08T09:39:34Z</time>
      </trkpt>
      <trkpt lat="48.55322" lon="7.59245">
        <ele>155.1</ele>
        <time>2019-08-08T09:39:35Z</time>
      </trkpt>
      <trkpt lat="48.55319" lon="7.59251">
        <ele>155.1</ele>
        <time>2019-08-08T09:39:36Z</time>
      </trkpt>
      <trkpt lat="48.55316" lon="7.59256">
        <ele>155.1</ele>
        <time>2019-08-08T09:39:37Z</time>
      </trkpt>
      <trkpt lat="48.55313" lon="7.59261">
        <ele>155.1</ele>
        <time>2019-08-08T09:39:38Z</time>
      </trkpt>
      <trkpt lat="48.55309" lon="7.59267">
        <ele>155.1</ele>
        <time>2019-08-08T09:39:39Z</time>
      </trkpt>
      <trkpt lat="48.55305" lon="7.59273">
        <ele>155.1</ele>
        <time>2019-08-08T09:39:40Z</time>
      </trkpt>
      <trkpt lat="48.55301" lon="7.59277">
        <ele>155.2</ele>
        <time>2019-08-08T09:39:41Z</time>
      </trkpt>
      <trkpt lat="48.55299" lon="7.59283">
        <ele>155.2</ele>
        <time>2019-08-08T09:39:42Z</time>
      </trkpt>
      <trkpt lat="48.55296" lon="7.59289">
        <ele>155.2</ele>
        <time>2019-08-08T09:39:43Z</time>
      </trkpt>
      <trkpt lat="48.55293" lon="7.59295">
        <ele>155.2</ele>
        <time>2019-08-08T09:39:44Z</time>
      </trkpt>
      <trkpt lat="48.55291" lon="7.59301">
        <ele>155.2</ele>
        <time>2019-08-08T09:39:45Z</time>
      </trkpt>
      <trkpt lat="48.5529" lon="7.59306">
        <ele>155.2</ele>
        <time>2019-08-08T09:39:46Z</time>
      </trkpt>
      <trkpt lat="48.55288" lon="7.5931">
        <ele>155.3</ele>
        <time>2019-08-08T09:39:47Z</time>
      </trkpt>
      <trkpt lat="48.55287" lon="7.59314">
        <ele>155.3</ele>
        <time>2019-08-08T09:39:48Z</time>
      </trkpt>
      <trkpt lat="48.55287" lon="7.59319">
        <ele>155.3</ele>
        <time>2019-08-08T09:39:49Z</time>
      </trkpt>
      <trkpt lat="48.55286" lon="7.59325">
        <ele>155.3</ele>
        <time>2019-08-08T09:39:50Z</time>
      </trkpt>
      <trkpt lat="48.55286" lon="7.59332">
        <ele>155.3</ele>
        <time>2019-08-08T09:39:51Z</time>
      </trkpt>
      <trkpt lat="48.55285" lon="7.59337">
        <ele>155.3</ele>
        <time>2019-08-08T09:39:52Z</time>
      </trkpt>
      <trkpt lat="48.55285" lon="7.59342">
        <ele>155.3</ele>
        <time>2019-08-08T09:39:53Z</time>
      </trkpt>
      <trkpt lat="48.55285" lon="7.59349">
        <ele>155.4</ele>
        <time>2019-08-08T09:39:54Z</time>
      </trkpt>
      <trkpt lat="48.55284" lon="7.59354">
        <ele>155.4</ele>
        <time>2019-08-08T09:39:55Z</time>
      </trkpt>
      <trkpt lat="48.55284" lon="7.5936">
        <ele>155.4</ele>
        <time>2019-08-08T09:39:56Z</time>
      </trkpt>
      <trkpt lat="48.55284" lon="7.59369">
        <ele>155.5</ele>
        <time>2019-08-08T09:39:57Z</time>
      </trkpt>
      <trkpt lat="48.55282" lon="7.59378">
        <ele>155.6</ele>
        <time>2019-08-08T09:39:58Z</time>
      </trkpt>
      <trkpt lat="48.55281" lon="7.59385">
        <ele>155.7</ele>
        <time>2019-08-08T09:39:59Z</time>
      </trkpt>
      <trkpt lat="48.55281" lon="7.59393">
        <ele>155.8</ele>
        <time>2019-08-08T09:40:00Z</time>
      </trkpt>
      <trkpt lat="48.5528" lon="7.59399">
        <ele>155.8</ele>
        <time>2019-08-08T09:40:01Z</time>
      </trkpt>
      <trkpt lat="48.5528" lon="7.59403">
        <ele>155.9</ele>
        <time>2019-08-08T09:40:02Z</time>
      </trkpt>
      <trkpt lat="48.55279" lon="7.5941">
        <ele>155.9</ele>
        <time>2019-08-08T09:40:03Z</time>
      </trkpt>
      <trkpt lat="48.55278" lon="7.59418">
        <ele>156</ele>
        <time>2019-08-08T09:40:04Z</time>
      </trkpt>
      <trkpt lat="48.55277" lon="7.5943">
        <ele>156</ele>
        <time>2019-08-08T09:40:05Z</time>
      </trkpt>
      <trkpt lat="48.55277" lon="7.59438">
        <ele>156.1</ele>
        <time>2019-08-08T09:40:06Z</time>
      </trkpt>
      <trkpt lat="48.55276" lon="7.59446">
        <ele>156.1</ele>
        <time>2019-08-08T09:40:07Z</time>
      </trkpt>
      <trkpt lat="48.55275" lon="7.59455">
        <ele>156.1</ele>
        <time>2019-08-08T09:40:08Z</time>
      </trkpt>
      <trkpt lat="48.55274" lon="7.59463">
        <ele>156.1</ele>
        <time>2019-08-08T09:40:09Z</time>
      </trkpt>
      <trkpt lat="48.55273" lon="7.59471">
        <ele>156.1</ele>
        <time>2019-08-08T09:40:10Z</time>
      </trkpt>
      <trkpt lat="48.55271" lon="7.59479">
        <ele>156.1</ele>
        <time>2019-08-08T09:40:11Z</time>
      </trkpt>
      <trkpt lat="48.55269" lon="7.59486">
        <ele>156.1</ele>
        <time>2019-08-08T09:40:12Z</time>
      </trkpt>
      <trkpt lat="48.55268" lon="7.59493">
        <ele>156.1</ele>
        <time>2019-08-08T09:40:13Z</time>
      </trkpt>
      <trkpt lat="48.55265" lon="7.59501">
        <ele>156.1</ele>
        <time>2019-08-08T09:40:14Z</time>
      </trkpt>
      <trkpt lat="48.55264" lon="7.59508">
        <ele>156.1</ele>
        <time>2019-08-08T09:40:15Z</time>
      </trkpt>
      <trkpt lat="48.55263" lon="7.59514">
        <ele>156.1</ele>
        <time>2019-08-08T09:40:16Z</time>
      </trkpt>
      <trkpt lat="48.55262" lon="7.5952">
        <ele>156.1</ele>
        <time>2019-08-08T09:40:17Z</time>
      </trkpt>
      <trkpt lat="48.55261" lon="7.59527">
        <ele>156.1</ele>
        <time>2019-08-08T09:40:18Z</time>
      </trkpt>
      <trkpt lat="48.5526" lon="7.59536">
        <ele>156.1</ele>
        <time>2019-08-08T09:40:19Z</time>
      </trkpt>
      <trkpt lat="48.5526" lon="7.59545">
        <ele>156.1</ele>
        <time>2019-08-08T09:40:20Z</time>
      </trkpt>
      <trkpt lat="48.55259" lon="7.59553">
        <ele>156.1</ele>
        <time>2019-08-08T09:40:21Z</time>
      </trkpt>
      <trkpt lat="48.55258" lon="7.59561">
        <ele>156.1</ele>
        <time>2019-08-08T09:40:22Z</time>
      </trkpt>
      <trkpt lat="48.55258" lon="7.59568">
        <ele>156</ele>
        <time>2019-08-08T09:40:23Z</time>
      </trkpt>
      <trkpt lat="48.55258" lon="7.59577">
        <ele>156</ele>
        <time>2019-08-08T09:40:24Z</time>
      </trkpt>
      <trkpt lat="48.55258" lon="7.59587">
        <ele>155.9</ele>
        <time>2019-08-08T09:40:25Z</time>
      </trkpt>
      <trkpt lat="48.55259" lon="7.59594">
        <ele>155.9</ele>
        <time>2019-08-08T09:40:26Z</time>
      </trkpt>
      <trkpt lat="48.5526" lon="7.59602">
        <ele>155.8</ele>
        <time>2019-08-08T09:40:27Z</time>
      </trkpt>
      <trkpt lat="48.55261" lon="7.59611">
        <ele>155.7</ele>
        <time>2019-08-08T09:40:28Z</time>
      </trkpt>
      <trkpt lat="48.55262" lon="7.59619">
        <ele>155.6</ele>
        <time>2019-08-08T09:40:29Z</time>
      </trkpt>
      <trkpt lat="48.55263" lon="7.59628">
        <ele>155.5</ele>
        <time>2019-08-08T09:40:30Z</time>
      </trkpt>
      <trkpt lat="48.55264" lon="7.59637">
        <ele>155.4</ele>
        <time>2019-08-08T09:40:31Z</time>
      </trkpt>
      <trkpt lat="48.55266" lon="7.59645">
        <ele>155.3</ele>
        <time>2019-08-08T09:40:32Z</time>
      </trkpt>
      <trkpt lat="48.55268" lon="7.59652">
        <ele>155.3</ele>
        <time>2019-08-08T09:40:33Z</time>
      </trkpt>
      <trkpt lat="48.55268" lon="7.59661">
        <ele>155.2</ele>
        <time>2019-08-08T09:40:34Z</time>
      </trkpt>
      <trkpt lat="48.5527" lon="7.59668">
        <ele>155.2</ele>
        <time>2019-08-08T09:40:35Z</time>
      </trkpt>
      <trkpt lat="48.5527" lon="7.59676">
        <ele>155.1</ele>
        <time>2019-08-08T09:40:36Z</time>
      </trkpt>
      <trkpt lat="48.55272" lon="7.59683">
        <ele>155.1</ele>
        <time>2019-08-08T09:40:37Z</time>
      </trkpt>
      <trkpt lat="48.55275" lon="7.59688">
        <ele>155.1</ele>
        <time>2019-08-08T09:40:38Z</time>
      </trkpt>
      <trkpt lat="48.55279" lon="7.59694">
        <ele>155.1</ele>
        <time>2019-08-08T09:40:39Z</time>
      </trkpt>
      <trkpt lat="48.55282" lon="7.59702">
        <ele>155.1</ele>
        <time>2019-08-08T09:40:40Z</time>
      </trkpt>
      <trkpt lat="48.55285" lon="7.59709">
        <ele>155</ele>
        <time>2019-08-08T09:40:41Z</time>
      </trkpt>
      <trkpt lat="48.55287" lon="7.59717">
        <ele>155</ele>
        <time>2019-08-08T09:40:42Z</time>
      </trkpt>
      <trkpt lat="48.55291" lon="7.59723">
        <ele>155</ele>
        <time>2019-08-08T09:40:43Z</time>
      </trkpt>
      <trkpt lat="48.55294" lon="7.5973">
        <ele>154.9</ele>
        <time>2019-08-08T09:40:44Z</time>
      </trkpt>
      <trkpt lat="48.55298" lon="7.59737">
        <ele>154.9</ele>
        <time>2019-08-08T09:40:45Z</time>
      </trkpt>
      <trkpt lat="48.55302" lon="7.59744">
        <ele>154.8</ele>
        <time>2019-08-08T09:40:46Z</time>
      </trkpt>
      <trkpt lat="48.55306" lon="7.59752">
        <ele>154.7</ele>
        <time>2019-08-08T09:40:47Z</time>
      </trkpt>
      <trkpt lat="48.5531" lon="7.59758">
        <ele>154.6</ele>
        <time>2019-08-08T09:40:48Z</time>
      </trkpt>
      <trkpt lat="48.55314" lon="7.59766">
        <ele>154.5</ele>
        <time>2019-08-08T09:40:49Z</time>
      </trkpt>
      <trkpt lat="48.55318" lon="7.59772">
        <ele>154.5</ele>
        <time>2019-08-08T09:40:50Z</time>
      </trkpt>
      <trkpt lat="48.55322" lon="7.59778">
        <ele>154.5</ele>
        <time>2019-08-08T09:40:51Z</time>
      </trkpt>
      <trkpt lat="48.55327" lon="7.59785">
        <ele>154.5</ele>
        <time>2019-08-08T09:40:52Z</time>
      </trkpt>
      <trkpt lat="48.55331" lon="7.5979">
        <ele>154.5</ele>
        <time>2019-08-08T09:40:53Z</time>
      </trkpt>
      <trkpt lat="48.55335" lon="7.59795">
        <ele>154.5</ele>
        <time>2019-08-08T09:40:54Z</time>
      </trkpt>
      <trkpt lat="48.55339" lon="7.59801">
        <ele>154.5</ele>
        <time>2019-08-08T09:40:55Z</time>
      </trkpt>
      <trkpt lat="48.55342" lon="7.59806">
        <ele>154.5</ele>
        <time>2019-08-08T09:40:56Z</time>
      </trkpt>
      <trkpt lat="48.55345" lon="7.59812">
        <ele>154.4</ele>
        <time>2019-08-08T09:40:57Z</time>
      </trkpt>
      <trkpt lat="48.55348" lon="7.59817">
        <ele>154.4</ele>
        <time>2019-08-08T09:40:58Z</time>
      </trkpt>
      <trkpt lat="48.55351" lon="7.59824">
        <ele>154.4</ele>
        <time>2019-08-08T09:40:59Z</time>
      </trkpt>
      <trkpt lat="48.55354" lon="7.5983">
        <ele>154.3</ele>
        <time>2019-08-08T09:41:00Z</time>
      </trkpt>
      <trkpt lat="48.55357" lon="7.59836">
        <ele>154.3</ele>
        <time>2019-08-08T09:41:01Z</time>
      </trkpt>
      <trkpt lat="48.5536" lon="7.59841">
        <ele>154.2</ele>
        <time>2019-08-08T09:41:02Z</time>
      </trkpt>
      <trkpt lat="48.55363" lon="7.59847">
        <ele>154.2</ele>
        <time>2019-08-08T09:41:03Z</time>
      </trkpt>
      <trkpt lat="48.55365" lon="7.59853">
        <ele>154.1</ele>
        <time>2019-08-08T09:41:04Z</time>
      </trkpt>
      <trkpt lat="48.55367" lon="7.5986">
        <ele>154.1</ele>
        <time>2019-08-08T09:41:05Z</time>
      </trkpt>
      <trkpt lat="48.55369" lon="7.59867">
        <ele>154.1</ele>
        <time>2019-08-08T09:41:06Z</time>
      </trkpt>
      <trkpt lat="48.55372" lon="7.59873">
        <ele>154.1</ele>
        <time>2019-08-08T09:41:07Z</time>
      </trkpt>
      <trkpt lat="48.55374" lon="7.5988">
        <ele>154.1</ele>
        <time>2019-08-08T09:41:08Z</time>
      </trkpt>
      <trkpt lat="48.55374" lon="7.59888">
        <ele>154</ele>
        <time>2019-08-08T09:41:09Z</time>
      </trkpt>
      <trkpt lat="48.55376" lon="7.59895">
        <ele>154</ele>
        <time>2019-08-08T09:41:10Z</time>
      </trkpt>
      <trkpt lat="48.55377" lon="7.59902">
        <ele>154</ele>
        <time>2019-08-08T09:41:11Z</time>
      </trkpt>
      <trkpt lat="48.55378" lon="7.59911">
        <ele>154</ele>
        <time>2019-08-08T09:41:12Z</time>
      </trkpt>
      <trkpt lat="48.55378" lon="7.59918">
        <ele>153.9</ele>
        <time>2019-08-08T09:41:13Z</time>
      </trkpt>
      <trkpt lat="48.55378" lon="7.59926">
        <ele>153.9</ele>
        <time>2019-08-08T09:41:14Z</time>
      </trkpt>
      <trkpt lat="48.55378" lon="7.59936">
        <ele>153.8</ele>
        <time>2019-08-08T09:41:15Z</time>
      </trkpt>
      <trkpt lat="48.55376" lon="7.59946">
        <ele>153.8</ele>
        <time>2019-08-08T09:41:16Z</time>
      </trkpt>
      <trkpt lat="48.55376" lon="7.59955">
        <ele>153.8</ele>
        <time>2019-08-08T09:41:17Z</time>
      </trkpt>
      <trkpt lat="48.55375" lon="7.59964">
        <ele>153.8</ele>
        <time>2019-08-08T09:41:18Z</time>
      </trkpt>
      <trkpt lat="48.55375" lon="7.59971">
        <ele>153.8</ele>
        <time>2019-08-08T09:41:19Z</time>
      </trkpt>
      <trkpt lat="48.55374" lon="7.59979">
        <ele>153.7</ele>
        <time>2019-08-08T09:41:20Z</time>
      </trkpt>
      <trkpt lat="48.55376" lon="7.59988">
        <ele>153.7</ele>
        <time>2019-08-08T09:41:21Z</time>
      </trkpt>
      <trkpt lat="48.55376" lon="7.59997">
        <ele>153.7</ele>
        <time>2019-08-08T09:41:22Z</time>
      </trkpt>
      <trkpt lat="48.55377" lon="7.60006">
        <ele>153.7</ele>
        <time>2019-08-08T09:41:23Z</time>
      </trkpt>
      <trkpt lat="48.55379" lon="7.60015">
        <ele>153.6</ele>
        <time>2019-08-08T09:41:24Z</time>
      </trkpt>
      <trkpt lat="48.55381" lon="7.60024">
        <ele>153.6</ele>
        <time>2019-08-08T09:41:25Z</time>
      </trkpt>
      <trkpt lat="48.55384" lon="7.60032">
        <ele>153.6</ele>
        <time>2019-08-08T09:41:26Z</time>
      </trkpt>
      <trkpt lat="48.55385" lon="7.6004">
        <ele>153.6</ele>
        <time>2019-08-08T09:41:27Z</time>
      </trkpt>
      <trkpt lat="48.55387" lon="7.60045">
        <ele>153.6</ele>
        <time>2019-08-08T09:41:28Z</time>
      </trkpt>
      <trkpt lat="48.55389" lon="7.60049">
        <ele>153.7</ele>
        <time>2019-08-08T09:41:30Z</time>
      </trkpt>
      <trkpt lat="48.554" lon="7.60058">
        <ele>153.7</ele>
        <time>2019-08-08T09:42:55Z</time>
      </trkpt>
      <trkpt lat="48.55398" lon="7.60064">
        <ele>153.8</ele>
        <time>2019-08-08T09:42:57Z</time>
      </trkpt>
      <trkpt lat="48.55397" lon="7.6007">
        <ele>153.8</ele>
        <time>2019-08-08T09:42:59Z</time>
      </trkpt>
      <trkpt lat="48.55396" lon="7.60074">
        <ele>153.9</ele>
        <time>2019-08-08T09:43:00Z</time>
      </trkpt>
      <trkpt lat="48.55395" lon="7.60078">
        <ele>153.9</ele>
        <time>2019-08-08T09:43:01Z</time>
      </trkpt>
      <trkpt lat="48.55393" lon="7.60083">
        <ele>153.9</ele>
        <time>2019-08-08T09:43:02Z</time>
      </trkpt>
      <trkpt lat="48.55393" lon="7.60087">
        <ele>153.9</ele>
        <time>2019-08-08T09:43:03Z</time>
      </trkpt>
      <trkpt lat="48.55392" lon="7.60093">
        <ele>153.9</ele>
        <time>2019-08-08T09:43:04Z</time>
      </trkpt>
      <trkpt lat="48.55391" lon="7.60097">
        <ele>154</ele>
        <time>2019-08-08T09:43:05Z</time>
      </trkpt>
      <trkpt lat="48.55388" lon="7.60105">
        <ele>154</ele>
        <time>2019-08-08T09:43:07Z</time>
      </trkpt>
      <trkpt lat="48.55388" lon="7.6011">
        <ele>154</ele>
        <time>2019-08-08T09:43:08Z</time>
      </trkpt>
      <trkpt lat="48.55387" lon="7.60114">
        <ele>153.9</ele>
        <time>2019-08-08T09:43:09Z</time>
      </trkpt>
      <trkpt lat="48.55385" lon="7.60121">
        <ele>153.9</ele>
        <time>2019-08-08T09:43:11Z</time>
      </trkpt>
      <trkpt lat="48.55384" lon="7.60126">
        <ele>153.8</ele>
        <time>2019-08-08T09:43:12Z</time>
      </trkpt>
      <trkpt lat="48.55383" lon="7.60131">
        <ele>153.8</ele>
        <time>2019-08-08T09:43:13Z</time>
      </trkpt>
      <trkpt lat="48.55383" lon="7.60135">
        <ele>153.8</ele>
        <time>2019-08-08T09:43:14Z</time>
      </trkpt>
      <trkpt lat="48.55382" lon="7.6014">
        <ele>153.7</ele>
        <time>2019-08-08T09:43:15Z</time>
      </trkpt>
      <trkpt lat="48.55381" lon="7.60144">
        <ele>153.7</ele>
        <time>2019-08-08T09:43:16Z</time>
      </trkpt>
      <trkpt lat="48.5538" lon="7.60149">
        <ele>153.6</ele>
        <time>2019-08-08T09:43:17Z</time>
      </trkpt>
      <trkpt lat="48.55379" lon="7.60156">
        <ele>153.6</ele>
        <time>2019-08-08T09:43:18Z</time>
      </trkpt>
      <trkpt lat="48.55378" lon="7.60163">
        <ele>153.6</ele>
        <time>2019-08-08T09:43:19Z</time>
      </trkpt>
      <trkpt lat="48.55377" lon="7.60168">
        <ele>153.7</ele>
        <time>2019-08-08T09:43:20Z</time>
      </trkpt>
      <trkpt lat="48.55375" lon="7.60174">
        <ele>153.7</ele>
        <time>2019-08-08T09:43:21Z</time>
      </trkpt>
      <trkpt lat="48.55375" lon="7.60181">
        <ele>153.7</ele>
        <time>2019-08-08T09:43:22Z</time>
      </trkpt>
      <trkpt lat="48.55375" lon="7.60186">
        <ele>153.7</ele>
        <time>2019-08-08T09:43:23Z</time>
      </trkpt>
      <trkpt lat="48.55374" lon="7.60191">
        <ele>153.7</ele>
        <time>2019-08-08T09:43:24Z</time>
      </trkpt>
      <trkpt lat="48.55374" lon="7.60198">
        <ele>153.8</ele>
        <time>2019-08-08T09:43:25Z</time>
      </trkpt>
      <trkpt lat="48.55373" lon="7.60204">
        <ele>153.8</ele>
        <time>2019-08-08T09:43:26Z</time>
      </trkpt>
      <trkpt lat="48.55373" lon="7.60213">
        <ele>153.8</ele>
        <time>2019-08-08T09:43:27Z</time>
      </trkpt>
      <trkpt lat="48.55372" lon="7.60221">
        <ele>153.8</ele>
        <time>2019-08-08T09:43:28Z</time>
      </trkpt>
      <trkpt lat="48.55371" lon="7.60228">
        <ele>153.8</ele>
        <time>2019-08-08T09:43:29Z</time>
      </trkpt>
      <trkpt lat="48.55371" lon="7.60235">
        <ele>153.7</ele>
        <time>2019-08-08T09:43:30Z</time>
      </trkpt>
      <trkpt lat="48.55371" lon="7.60243">
        <ele>153.6</ele>
        <time>2019-08-08T09:43:31Z</time>
      </trkpt>
      <trkpt lat="48.5537" lon="7.60251">
        <ele>153.6</ele>
        <time>2019-08-08T09:43:32Z</time>
      </trkpt>
      <trkpt lat="48.5537" lon="7.60256">
        <ele>153.5</ele>
        <time>2019-08-08T09:43:33Z</time>
      </trkpt>
      <trkpt lat="48.5537" lon="7.60261">
        <ele>153.5</ele>
        <time>2019-08-08T09:43:34Z</time>
      </trkpt>
      <trkpt lat="48.5537" lon="7.60266">
        <ele>153.4</ele>
        <time>2019-08-08T09:43:35Z</time>
      </trkpt>
      <trkpt lat="48.55367" lon="7.60274">
        <ele>153.4</ele>
        <time>2019-08-08T09:43:36Z</time>
      </trkpt>
      <trkpt lat="48.55367" lon="7.60279">
        <ele>153.3</ele>
        <time>2019-08-08T09:43:37Z</time>
      </trkpt>
      <trkpt lat="48.55367" lon="7.60287">
        <ele>153.3</ele>
        <time>2019-08-08T09:43:38Z</time>
      </trkpt>
      <trkpt lat="48.55367" lon="7.60295">
        <ele>153.3</ele>
        <time>2019-08-08T09:43:39Z</time>
      </trkpt>
      <trkpt lat="48.55367" lon="7.60303">
        <ele>153.4</ele>
        <time>2019-08-08T09:43:40Z</time>
      </trkpt>
      <trkpt lat="48.55367" lon="7.60312">
        <ele>153.4</ele>
        <time>2019-08-08T09:43:41Z</time>
      </trkpt>
      <trkpt lat="48.55366" lon="7.60322">
        <ele>153.4</ele>
        <time>2019-08-08T09:43:42Z</time>
      </trkpt>
      <trkpt lat="48.55365" lon="7.60331">
        <ele>153.4</ele>
        <time>2019-08-08T09:43:43Z</time>
      </trkpt>
      <trkpt lat="48.55364" lon="7.60341">
        <ele>153.4</ele>
        <time>2019-08-08T09:43:44Z</time>
      </trkpt>
      <trkpt lat="48.55364" lon="7.6035">
        <ele>153.4</ele>
        <time>2019-08-08T09:43:45Z</time>
      </trkpt>
      <trkpt lat="48.55363" lon="7.60358">
        <ele>153.4</ele>
        <time>2019-08-08T09:43:46Z</time>
      </trkpt>
      <trkpt lat="48.55363" lon="7.60367">
        <ele>153.4</ele>
        <time>2019-08-08T09:43:47Z</time>
      </trkpt>
      <trkpt lat="48.55362" lon="7.60373">
        <ele>153.4</ele>
        <time>2019-08-08T09:43:48Z</time>
      </trkpt>
      <trkpt lat="48.55362" lon="7.60379">
        <ele>153.4</ele>
        <time>2019-08-08T09:43:49Z</time>
      </trkpt>
      <trkpt lat="48.55362" lon="7.60386">
        <ele>153.4</ele>
        <time>2019-08-08T09:43:50Z</time>
      </trkpt>
      <trkpt lat="48.55361" lon="7.60393">
        <ele>153.4</ele>
        <time>2019-08-08T09:43:51Z</time>
      </trkpt>
      <trkpt lat="48.55361" lon="7.604">
        <ele>153.4</ele>
        <time>2019-08-08T09:43:52Z</time>
      </trkpt>
      <trkpt lat="48.55361" lon="7.60408">
        <ele>153.4</ele>
        <time>2019-08-08T09:43:53Z</time>
      </trkpt>
      <trkpt lat="48.5536" lon="7.60416">
        <ele>153.4</ele>
        <time>2019-08-08T09:43:54Z</time>
      </trkpt>
      <trkpt lat="48.5536" lon="7.60422">
        <ele>153.4</ele>
        <time>2019-08-08T09:43:55Z</time>
      </trkpt>
      <trkpt lat="48.5536" lon="7.60431">
        <ele>153.4</ele>
        <time>2019-08-08T09:43:56Z</time>
      </trkpt>
      <trkpt lat="48.5536" lon="7.60437">
        <ele>153.4</ele>
        <time>2019-08-08T09:43:57Z</time>
      </trkpt>
      <trkpt lat="48.5536" lon="7.60446">
        <ele>153.4</ele>
        <time>2019-08-08T09:43:58Z</time>
      </trkpt>
      <trkpt lat="48.5536" lon="7.60453">
        <ele>153.3</ele>
        <time>2019-08-08T09:43:59Z</time>
      </trkpt>
      <trkpt lat="48.5536" lon="7.60462">
        <ele>153.3</ele>
        <time>2019-08-08T09:44:00Z</time>
      </trkpt>
      <trkpt lat="48.5536" lon="7.60473">
        <ele>153.3</ele>
        <time>2019-08-08T09:44:01Z</time>
      </trkpt>
      <trkpt lat="48.55359" lon="7.60483">
        <ele>153.3</ele>
        <time>2019-08-08T09:44:02Z</time>
      </trkpt>
      <trkpt lat="48.55359" lon="7.6049">
        <ele>153.3</ele>
        <time>2019-08-08T09:44:03Z</time>
      </trkpt>
      <trkpt lat="48.55359" lon="7.60497">
        <ele>153.3</ele>
        <time>2019-08-08T09:44:04Z</time>
      </trkpt>
      <trkpt lat="48.55359" lon="7.60502">
        <ele>153.3</ele>
        <time>2019-08-08T09:44:05Z</time>
      </trkpt>
      <trkpt lat="48.5536" lon="7.60508">
        <ele>153.3</ele>
        <time>2019-08-08T09:44:06Z</time>
      </trkpt>
      <trkpt lat="48.55361" lon="7.60514">
        <ele>153.4</ele>
        <time>2019-08-08T09:44:07Z</time>
      </trkpt>
      <trkpt lat="48.55363" lon="7.60519">
        <ele>153.4</ele>
        <time>2019-08-08T09:44:08Z</time>
      </trkpt>
      <trkpt lat="48.55363" lon="7.60526">
        <ele>153.4</ele>
        <time>2019-08-08T09:44:09Z</time>
      </trkpt>
      <trkpt lat="48.55365" lon="7.60533">
        <ele>153.4</ele>
        <time>2019-08-08T09:44:10Z</time>
      </trkpt>
      <trkpt lat="48.55366" lon="7.60542">
        <ele>153.4</ele>
        <time>2019-08-08T09:44:11Z</time>
      </trkpt>
      <trkpt lat="48.55366" lon="7.60549">
        <ele>153.3</ele>
        <time>2019-08-08T09:44:12Z</time>
      </trkpt>
      <trkpt lat="48.55366" lon="7.60561">
        <ele>153.3</ele>
        <time>2019-08-08T09:44:13Z</time>
      </trkpt>
      <trkpt lat="48.55367" lon="7.60571">
        <ele>153.3</ele>
        <time>2019-08-08T09:44:14Z</time>
      </trkpt>
      <trkpt lat="48.55367" lon="7.60582">
        <ele>153.3</ele>
        <time>2019-08-08T09:44:15Z</time>
      </trkpt>
      <trkpt lat="48.55367" lon="7.60591">
        <ele>153.3</ele>
        <time>2019-08-08T09:44:16Z</time>
      </trkpt>
      <trkpt lat="48.55366" lon="7.60599">
        <ele>153.3</ele>
        <time>2019-08-08T09:44:17Z</time>
      </trkpt>
      <trkpt lat="48.55365" lon="7.60608">
        <ele>153.4</ele>
        <time>2019-08-08T09:44:18Z</time>
      </trkpt>
      <trkpt lat="48.55365" lon="7.60618">
        <ele>153.4</ele>
        <time>2019-08-08T09:44:19Z</time>
      </trkpt>
      <trkpt lat="48.55365" lon="7.60625">
        <ele>153.5</ele>
        <time>2019-08-08T09:44:20Z</time>
      </trkpt>
      <trkpt lat="48.55365" lon="7.60632">
        <ele>153.6</ele>
        <time>2019-08-08T09:44:21Z</time>
      </trkpt>
      <trkpt lat="48.55365" lon="7.60639">
        <ele>153.7</ele>
        <time>2019-08-08T09:44:22Z</time>
      </trkpt>
      <trkpt lat="48.55365" lon="7.60646">
        <ele>153.8</ele>
        <time>2019-08-08T09:44:23Z</time>
      </trkpt>
      <trkpt lat="48.55366" lon="7.60653">
        <ele>153.9</ele>
        <time>2019-08-08T09:44:24Z</time>
      </trkpt>
      <trkpt lat="48.55368" lon="7.6066">
        <ele>153.9</ele>
        <time>2019-08-08T09:44:25Z</time>
      </trkpt>
      <trkpt lat="48.5537" lon="7.60668">
        <ele>153.9</ele>
        <time>2019-08-08T09:44:26Z</time>
      </trkpt>
      <trkpt lat="48.55371" lon="7.60675">
        <ele>153.8</ele>
        <time>2019-08-08T09:44:27Z</time>
      </trkpt>
      <trkpt lat="48.55372" lon="7.60682">
        <ele>153.7</ele>
        <time>2019-08-08T09:44:28Z</time>
      </trkpt>
      <trkpt lat="48.55373" lon="7.60689">
        <ele>153.5</ele>
        <time>2019-08-08T09:44:29Z</time>
      </trkpt>
      <trkpt lat="48.55374" lon="7.60697">
        <ele>153.4</ele>
        <time>2019-08-08T09:44:30Z</time>
      </trkpt>
      <trkpt lat="48.55374" lon="7.60705">
        <ele>153.3</ele>
        <time>2019-08-08T09:44:31Z</time>
      </trkpt>
      <trkpt lat="48.55375" lon="7.60711">
        <ele>153.2</ele>
        <time>2019-08-08T09:44:32Z</time>
      </trkpt>
      <trkpt lat="48.55374" lon="7.6072">
        <ele>153.1</ele>
        <time>2019-08-08T09:44:33Z</time>
      </trkpt>
      <trkpt lat="48.55373" lon="7.60727">
        <ele>153</ele>
        <time>2019-08-08T09:44:34Z</time>
      </trkpt>
      <trkpt lat="48.55373" lon="7.60734">
        <ele>153</ele>
        <time>2019-08-08T09:44:35Z</time>
      </trkpt>
      <trkpt lat="48.55372" lon="7.60742">
        <ele>153</ele>
        <time>2019-08-08T09:44:36Z</time>
      </trkpt>
      <trkpt lat="48.55372" lon="7.6075">
        <ele>153</ele>
        <time>2019-08-08T09:44:37Z</time>
      </trkpt>
      <trkpt lat="48.55371" lon="7.60759">
        <ele>153</ele>
        <time>2019-08-08T09:44:38Z</time>
      </trkpt>
      <trkpt lat="48.55371" lon="7.60766">
        <ele>153</ele>
        <time>2019-08-08T09:44:39Z</time>
      </trkpt>
      <trkpt lat="48.55371" lon="7.60773">
        <ele>153</ele>
        <time>2019-08-08T09:44:40Z</time>
      </trkpt>
      <trkpt lat="48.55371" lon="7.6078">
        <ele>153.1</ele>
        <time>2019-08-08T09:44:41Z</time>
      </trkpt>
      <trkpt lat="48.55371" lon="7.60787">
        <ele>153.1</ele>
        <time>2019-08-08T09:44:42Z</time>
      </trkpt>
      <trkpt lat="48.55372" lon="7.60794">
        <ele>153.1</ele>
        <time>2019-08-08T09:44:43Z</time>
      </trkpt>
      <trkpt lat="48.55372" lon="7.608">
        <ele>153.1</ele>
        <time>2019-08-08T09:44:44Z</time>
      </trkpt>
      <trkpt lat="48.55372" lon="7.60807">
        <ele>153.1</ele>
        <time>2019-08-08T09:44:45Z</time>
      </trkpt>
      <trkpt lat="48.55372" lon="7.60814">
        <ele>153.1</ele>
        <time>2019-08-08T09:44:46Z</time>
      </trkpt>
      <trkpt lat="48.55373" lon="7.60821">
        <ele>153.1</ele>
        <time>2019-08-08T09:44:47Z</time>
      </trkpt>
      <trkpt lat="48.55373" lon="7.60829">
        <ele>153.1</ele>
        <time>2019-08-08T09:44:48Z</time>
      </trkpt>
      <trkpt lat="48.55373" lon="7.60835">
        <ele>153.1</ele>
        <time>2019-08-08T09:44:49Z</time>
      </trkpt>
      <trkpt lat="48.55374" lon="7.60841">
        <ele>153.1</ele>
        <time>2019-08-08T09:44:50Z</time>
      </trkpt>
      <trkpt lat="48.55374" lon="7.60848">
        <ele>153.1</ele>
        <time>2019-08-08T09:44:51Z</time>
      </trkpt>
      <trkpt lat="48.55374" lon="7.60854">
        <ele>153.1</ele>
        <time>2019-08-08T09:44:52Z</time>
      </trkpt>
      <trkpt lat="48.55374" lon="7.6086">
        <ele>153.1</ele>
        <time>2019-08-08T09:44:53Z</time>
      </trkpt>
      <trkpt lat="48.55375" lon="7.60865">
        <ele>153.1</ele>
        <time>2019-08-08T09:44:54Z</time>
      </trkpt>
      <trkpt lat="48.55375" lon="7.6087">
        <ele>153.1</ele>
        <time>2019-08-08T09:44:55Z</time>
      </trkpt>
      <trkpt lat="48.55375" lon="7.60878">
        <ele>153.1</ele>
        <time>2019-08-08T09:44:56Z</time>
      </trkpt>
      <trkpt lat="48.55375" lon="7.60886">
        <ele>153.1</ele>
        <time>2019-08-08T09:44:57Z</time>
      </trkpt>
      <trkpt lat="48.55375" lon="7.60892">
        <ele>153.2</ele>
        <time>2019-08-08T09:44:58Z</time>
      </trkpt>
      <trkpt lat="48.55376" lon="7.60897">
        <ele>153.2</ele>
        <time>2019-08-08T09:44:59Z</time>
      </trkpt>
      <trkpt lat="48.55377" lon="7.60904">
        <ele>153.2</ele>
        <time>2019-08-08T09:45:00Z</time>
      </trkpt>
      <trkpt lat="48.55377" lon="7.60912">
        <ele>153.3</ele>
        <time>2019-08-08T09:45:01Z</time>
      </trkpt>
      <trkpt lat="48.55378" lon="7.60917">
        <ele>153.3</ele>
        <time>2019-08-08T09:45:02Z</time>
      </trkpt>
      <trkpt lat="48.55379" lon="7.60923">
        <ele>153.3</ele>
        <time>2019-08-08T09:45:03Z</time>
      </trkpt>
      <trkpt lat="48.55379" lon="7.6093">
        <ele>153.3</ele>
        <time>2019-08-08T09:45:04Z</time>
      </trkpt>
      <trkpt lat="48.5538" lon="7.60936">
        <ele>153.3</ele>
        <time>2019-08-08T09:45:05Z</time>
      </trkpt>
      <trkpt lat="48.5538" lon="7.60942">
        <ele>153.3</ele>
        <time>2019-08-08T09:45:06Z</time>
      </trkpt>
      <trkpt lat="48.55379" lon="7.60948">
        <ele>153.3</ele>
        <time>2019-08-08T09:45:07Z</time>
      </trkpt>
      <trkpt lat="48.55379" lon="7.60955">
        <ele>153.2</ele>
        <time>2019-08-08T09:45:08Z</time>
      </trkpt>
      <trkpt lat="48.55378" lon="7.60962">
        <ele>153.1</ele>
        <time>2019-08-08T09:45:09Z</time>
      </trkpt>
      <trkpt lat="48.55377" lon="7.6097">
        <ele>153</ele>
        <time>2019-08-08T09:45:10Z</time>
      </trkpt>
      <trkpt lat="48.55376" lon="7.60979">
        <ele>152.9</ele>
        <time>2019-08-08T09:45:11Z</time>
      </trkpt>
      <trkpt lat="48.55376" lon="7.60988">
        <ele>152.8</ele>
        <time>2019-08-08T09:45:12Z</time>
      </trkpt>
      <trkpt lat="48.55377" lon="7.60996">
        <ele>152.7</ele>
        <time>2019-08-08T09:45:13Z</time>
      </trkpt>
      <trkpt lat="48.55377" lon="7.61003">
        <ele>152.7</ele>
        <time>2019-08-08T09:45:14Z</time>
      </trkpt>
      <trkpt lat="48.55379" lon="7.61009">
        <ele>152.6</ele>
        <time>2019-08-08T09:45:15Z</time>
      </trkpt>
      <trkpt lat="48.55381" lon="7.61015">
        <ele>152.5</ele>
        <time>2019-08-08T09:45:16Z</time>
      </trkpt>
      <trkpt lat="48.55384" lon="7.61021">
        <ele>152.4</ele>
        <time>2019-08-08T09:45:17Z</time>
      </trkpt>
      <trkpt lat="48.55385" lon="7.61028">
        <ele>152.4</ele>
        <time>2019-08-08T09:45:18Z</time>
      </trkpt>
      <trkpt lat="48.55387" lon="7.61034">
        <ele>152.2</ele>
        <time>2019-08-08T09:45:19Z</time>
      </trkpt>
      <trkpt lat="48.5539" lon="7.61041">
        <ele>152.2</ele>
        <time>2019-08-08T09:45:20Z</time>
      </trkpt>
      <trkpt lat="48.55392" lon="7.61048">
        <ele>152.2</ele>
        <time>2019-08-08T09:45:21Z</time>
      </trkpt>
      <trkpt lat="48.55394" lon="7.61054">
        <ele>152.1</ele>
        <time>2019-08-08T09:45:22Z</time>
      </trkpt>
      <trkpt lat="48.55395" lon="7.61062">
        <ele>152.1</ele>
        <time>2019-08-08T09:45:23Z</time>
      </trkpt>
      <trkpt lat="48.55397" lon="7.61067">
        <ele>152.1</ele>
        <time>2019-08-08T09:45:24Z</time>
      </trkpt>
      <trkpt lat="48.55399" lon="7.61072">
        <ele>152.1</ele>
        <time>2019-08-08T09:45:25Z</time>
      </trkpt>
      <trkpt lat="48.55401" lon="7.61079">
        <ele>152.1</ele>
        <time>2019-08-08T09:45:26Z</time>
      </trkpt>
      <trkpt lat="48.55403" lon="7.61087">
        <ele>152.1</ele>
        <time>2019-08-08T09:45:27Z</time>
      </trkpt>
      <trkpt lat="48.55406" lon="7.61093">
        <ele>152</ele>
        <time>2019-08-08T09:45:28Z</time>
      </trkpt>
      <trkpt lat="48.55409" lon="7.61099">
        <ele>152.1</ele>
        <time>2019-08-08T09:45:29Z</time>
      </trkpt>
      <trkpt lat="48.5541" lon="7.61106">
        <ele>152.1</ele>
        <time>2019-08-08T09:45:30Z</time>
      </trkpt>
      <trkpt lat="48.55412" lon="7.61111">
        <ele>152.1</ele>
        <time>2019-08-08T09:45:31Z</time>
      </trkpt>
      <trkpt lat="48.55414" lon="7.61119">
        <ele>152.1</ele>
        <time>2019-08-08T09:45:32Z</time>
      </trkpt>
      <trkpt lat="48.55415" lon="7.61127">
        <ele>152.1</ele>
        <time>2019-08-08T09:45:33Z</time>
      </trkpt>
      <trkpt lat="48.55418" lon="7.61136">
        <ele>152.1</ele>
        <time>2019-08-08T09:45:34Z</time>
      </trkpt>
      <trkpt lat="48.5542" lon="7.61144">
        <ele>152.1</ele>
        <time>2019-08-08T09:45:35Z</time>
      </trkpt>
      <trkpt lat="48.55421" lon="7.61149">
        <ele>152.1</ele>
        <time>2019-08-08T09:45:36Z</time>
      </trkpt>
      <trkpt lat="48.55424" lon="7.61154">
        <ele>152.1</ele>
        <time>2019-08-08T09:45:37Z</time>
      </trkpt>
      <trkpt lat="48.55426" lon="7.61161">
        <ele>152.2</ele>
        <time>2019-08-08T09:45:38Z</time>
      </trkpt>
      <trkpt lat="48.55427" lon="7.61167">
        <ele>152.2</ele>
        <time>2019-08-08T09:45:39Z</time>
      </trkpt>
      <trkpt lat="48.55429" lon="7.61173">
        <ele>152.2</ele>
        <time>2019-08-08T09:45:40Z</time>
      </trkpt>
      <trkpt lat="48.5543" lon="7.61178">
        <ele>152.2</ele>
        <time>2019-08-08T09:45:41Z</time>
      </trkpt>
      <trkpt lat="48.55432" lon="7.61184">
        <ele>152.2</ele>
        <time>2019-08-08T09:45:42Z</time>
      </trkpt>
      <trkpt lat="48.55434" lon="7.61191">
        <ele>152.2</ele>
        <time>2019-08-08T09:45:43Z</time>
      </trkpt>
      <trkpt lat="48.55436" lon="7.61197">
        <ele>152.2</ele>
        <time>2019-08-08T09:45:44Z</time>
      </trkpt>
      <trkpt lat="48.55438" lon="7.61202">
        <ele>152.1</ele>
        <time>2019-08-08T09:45:45Z</time>
      </trkpt>
      <trkpt lat="48.55439" lon="7.61207">
        <ele>152.1</ele>
        <time>2019-08-08T09:45:46Z</time>
      </trkpt>
      <trkpt lat="48.5544" lon="7.61213">
        <ele>152.1</ele>
        <time>2019-08-08T09:45:47Z</time>
      </trkpt>
      <trkpt lat="48.55441" lon="7.61219">
        <ele>152.1</ele>
        <time>2019-08-08T09:45:48Z</time>
      </trkpt>
      <trkpt lat="48.55442" lon="7.61224">
        <ele>152.1</ele>
        <time>2019-08-08T09:45:49Z</time>
      </trkpt>
      <trkpt lat="48.55444" lon="7.61228">
        <ele>152.1</ele>
        <time>2019-08-08T09:45:50Z</time>
      </trkpt>
      <trkpt lat="48.55446" lon="7.61234">
        <ele>152.1</ele>
        <time>2019-08-08T09:45:51Z</time>
      </trkpt>
      <trkpt lat="48.55447" lon="7.61239">
        <ele>152.1</ele>
        <time>2019-08-08T09:45:52Z</time>
      </trkpt>
      <trkpt lat="48.55449" lon="7.61245">
        <ele>152.1</ele>
        <time>2019-08-08T09:45:54Z</time>
      </trkpt>
      <trkpt lat="48.55451" lon="7.6125">
        <ele>152</ele>
        <time>2019-08-08T09:45:56Z</time>
      </trkpt>
      <trkpt lat="48.55454" lon="7.61251">
        <ele>152</ele>
        <time>2019-08-08T09:46:00Z</time>
      </trkpt>
      <trkpt lat="48.55455" lon="7.61255">
        <ele>152</ele>
        <time>2019-08-08T09:46:09Z</time>
      </trkpt>
      <trkpt lat="48.55461" lon="7.61265">
        <ele>152</ele>
        <time>2019-08-08T09:46:41Z</time>
      </trkpt>
      <trkpt lat="48.55464" lon="7.61267">
        <ele>151.9</ele>
        <time>2019-08-08T09:46:46Z</time>
      </trkpt>
      <trkpt lat="48.55467" lon="7.61269">
        <ele>151.9</ele>
        <time>2019-08-08T09:48:24Z</time>
      </trkpt>
      <trkpt lat="48.55467" lon="7.61276">
        <ele>151.9</ele>
        <time>2019-08-08T09:49:11Z</time>
      </trkpt>
      <trkpt lat="48.5547" lon="7.6128">
        <ele>151.9</ele>
        <time>2019-08-08T09:49:13Z</time>
      </trkpt>
      <trkpt lat="48.55471" lon="7.61284">
        <ele>151.9</ele>
        <time>2019-08-08T09:49:14Z</time>
      </trkpt>
      <trkpt lat="48.55472" lon="7.61288">
        <ele>151.9</ele>
        <time>2019-08-08T09:49:15Z</time>
      </trkpt>
      <trkpt lat="48.55472" lon="7.61295">
        <ele>151.8</ele>
        <time>2019-08-08T09:49:17Z</time>
      </trkpt>
      <trkpt lat="48.55473" lon="7.613">
        <ele>151.8</ele>
        <time>2019-08-08T09:49:18Z</time>
      </trkpt>
      <trkpt lat="48.55474" lon="7.61304">
        <ele>151.8</ele>
        <time>2019-08-08T09:49:19Z</time>
      </trkpt>
      <trkpt lat="48.55475" lon="7.61309">
        <ele>151.8</ele>
        <time>2019-08-08T09:49:20Z</time>
      </trkpt>
      <trkpt lat="48.55477" lon="7.61315">
        <ele>151.7</ele>
        <time>2019-08-08T09:49:22Z</time>
      </trkpt>
      <trkpt lat="48.55477" lon="7.6132">
        <ele>151.7</ele>
        <time>2019-08-08T09:49:23Z</time>
      </trkpt>
      <trkpt lat="48.55478" lon="7.61327">
        <ele>151.7</ele>
        <time>2019-08-08T09:49:25Z</time>
      </trkpt>
      <trkpt lat="48.55478" lon="7.61331">
        <ele>151.7</ele>
        <time>2019-08-08T09:49:26Z</time>
      </trkpt>
      <trkpt lat="48.55478" lon="7.61335">
        <ele>151.7</ele>
        <time>2019-08-08T09:49:27Z</time>
      </trkpt>
      <trkpt lat="48.5548" lon="7.61342">
        <ele>151.7</ele>
        <time>2019-08-08T09:49:29Z</time>
      </trkpt>
      <trkpt lat="48.55482" lon="7.61349">
        <ele>151.6</ele>
        <time>2019-08-08T09:49:31Z</time>
      </trkpt>
      <trkpt lat="48.55484" lon="7.61354">
        <ele>151.6</ele>
        <time>2019-08-08T09:49:32Z</time>
      </trkpt>
      <trkpt lat="48.55486" lon="7.6136">
        <ele>151.6</ele>
        <time>2019-08-08T09:49:33Z</time>
      </trkpt>
      <trkpt lat="48.55487" lon="7.61368">
        <ele>151.6</ele>
        <time>2019-08-08T09:49:34Z</time>
      </trkpt>
      <trkpt lat="48.55488" lon="7.61373">
        <ele>151.6</ele>
        <time>2019-08-08T09:49:35Z</time>
      </trkpt>
      <trkpt lat="48.55489" lon="7.61379">
        <ele>151.5</ele>
        <time>2019-08-08T09:49:36Z</time>
      </trkpt>
      <trkpt lat="48.5549" lon="7.61385">
        <ele>151.5</ele>
        <time>2019-08-08T09:49:37Z</time>
      </trkpt>
      <trkpt lat="48.5549" lon="7.6139">
        <ele>151.5</ele>
        <time>2019-08-08T09:49:38Z</time>
      </trkpt>
      <trkpt lat="48.55491" lon="7.61395">
        <ele>151.5</ele>
        <time>2019-08-08T09:49:39Z</time>
      </trkpt>
      <trkpt lat="48.55491" lon="7.614">
        <ele>151.5</ele>
        <time>2019-08-08T09:49:40Z</time>
      </trkpt>
      <trkpt lat="48.55491" lon="7.61407">
        <ele>151.5</ele>
        <time>2019-08-08T09:49:41Z</time>
      </trkpt>
      <trkpt lat="48.55492" lon="7.61413">
        <ele>151.5</ele>
        <time>2019-08-08T09:49:42Z</time>
      </trkpt>
      <trkpt lat="48.55494" lon="7.61419">
        <ele>151.5</ele>
        <time>2019-08-08T09:49:43Z</time>
      </trkpt>
      <trkpt lat="48.55496" lon="7.61427">
        <ele>151.5</ele>
        <time>2019-08-08T09:49:44Z</time>
      </trkpt>
      <trkpt lat="48.55498" lon="7.61434">
        <ele>151.5</ele>
        <time>2019-08-08T09:49:45Z</time>
      </trkpt>
      <trkpt lat="48.555" lon="7.61443">
        <ele>151.5</ele>
        <time>2019-08-08T09:49:46Z</time>
      </trkpt>
      <trkpt lat="48.55504" lon="7.61452">
        <ele>151.5</ele>
        <time>2019-08-08T09:49:47Z</time>
      </trkpt>
      <trkpt lat="48.55507" lon="7.61461">
        <ele>151.5</ele>
        <time>2019-08-08T09:49:48Z</time>
      </trkpt>
      <trkpt lat="48.55509" lon="7.6147">
        <ele>151.5</ele>
        <time>2019-08-08T09:49:49Z</time>
      </trkpt>
      <trkpt lat="48.55512" lon="7.61479">
        <ele>151.5</ele>
        <time>2019-08-08T09:49:50Z</time>
      </trkpt>
      <trkpt lat="48.55516" lon="7.61487">
        <ele>151.5</ele>
        <time>2019-08-08T09:49:51Z</time>
      </trkpt>
      <trkpt lat="48.55518" lon="7.61495">
        <ele>151.5</ele>
        <time>2019-08-08T09:49:52Z</time>
      </trkpt>
      <trkpt lat="48.55521" lon="7.61502">
        <ele>151.5</ele>
        <time>2019-08-08T09:49:53Z</time>
      </trkpt>
      <trkpt lat="48.55525" lon="7.6151">
        <ele>151.5</ele>
        <time>2019-08-08T09:49:54Z</time>
      </trkpt>
      <trkpt lat="48.55528" lon="7.61516">
        <ele>151.5</ele>
        <time>2019-08-08T09:49:55Z</time>
      </trkpt>
      <trkpt lat="48.55531" lon="7.61523">
        <ele>151.5</ele>
        <time>2019-08-08T09:49:56Z</time>
      </trkpt>
      <trkpt lat="48.55535" lon="7.6153">
        <ele>151.5</ele>
        <time>2019-08-08T09:49:57Z</time>
      </trkpt>
      <trkpt lat="48.55538" lon="7.61537">
        <ele>151.5</ele>
        <time>2019-08-08T09:49:58Z</time>
      </trkpt>
      <trkpt lat="48.55543" lon="7.61544">
        <ele>151.6</ele>
        <time>2019-08-08T09:49:59Z</time>
      </trkpt>
      <trkpt lat="48.55547" lon="7.61551">
        <ele>151.6</ele>
        <time>2019-08-08T09:50:00Z</time>
      </trkpt>
      <trkpt lat="48.55551" lon="7.61558">
        <ele>151.6</ele>
        <time>2019-08-08T09:50:01Z</time>
      </trkpt>
      <trkpt lat="48.55554" lon="7.61565">
        <ele>151.6</ele>
        <time>2019-08-08T09:50:02Z</time>
      </trkpt>
      <trkpt lat="48.55559" lon="7.61571">
        <ele>151.6</ele>
        <time>2019-08-08T09:50:03Z</time>
      </trkpt>
      <trkpt lat="48.55562" lon="7.61577">
        <ele>151.6</ele>
        <time>2019-08-08T09:50:04Z</time>
      </trkpt>
      <trkpt lat="48.55565" lon="7.61581">
        <ele>151.6</ele>
        <time>2019-08-08T09:50:05Z</time>
      </trkpt>
      <trkpt lat="48.55568" lon="7.61584">
        <ele>151.6</ele>
        <time>2019-08-08T09:50:06Z</time>
      </trkpt>
      <trkpt lat="48.55569" lon="7.61587">
        <ele>151.6</ele>
        <time>2019-08-08T09:50:07Z</time>
      </trkpt>
      <trkpt lat="48.55571" lon="7.61591">
        <ele>151.7</ele>
        <time>2019-08-08T09:50:09Z</time>
      </trkpt>
      <trkpt lat="48.55573" lon="7.61598">
        <ele>151.7</ele>
        <time>2019-08-08T09:50:11Z</time>
      </trkpt>
      <trkpt lat="48.55574" lon="7.61603">
        <ele>151.7</ele>
        <time>2019-08-08T09:50:12Z</time>
      </trkpt>
      <trkpt lat="48.55575" lon="7.6161">
        <ele>151.7</ele>
        <time>2019-08-08T09:50:13Z</time>
      </trkpt>
      <trkpt lat="48.55578" lon="7.61617">
        <ele>151.7</ele>
        <time>2019-08-08T09:50:14Z</time>
      </trkpt>
      <trkpt lat="48.55581" lon="7.61625">
        <ele>151.8</ele>
        <time>2019-08-08T09:50:15Z</time>
      </trkpt>
      <trkpt lat="48.55584" lon="7.61634">
        <ele>151.9</ele>
        <time>2019-08-08T09:50:16Z</time>
      </trkpt>
      <trkpt lat="48.55587" lon="7.61644">
        <ele>152</ele>
        <time>2019-08-08T09:50:17Z</time>
      </trkpt>
      <trkpt lat="48.55589" lon="7.61652">
        <ele>152.2</ele>
        <time>2019-08-08T09:50:18Z</time>
      </trkpt>
      <trkpt lat="48.55591" lon="7.61659">
        <ele>152.3</ele>
        <time>2019-08-08T09:50:19Z</time>
      </trkpt>
      <trkpt lat="48.55593" lon="7.61666">
        <ele>152.4</ele>
        <time>2019-08-08T09:50:20Z</time>
      </trkpt>
      <trkpt lat="48.55595" lon="7.6167">
        <ele>152.4</ele>
        <time>2019-08-08T09:50:21Z</time>
      </trkpt>
      <trkpt lat="48.55597" lon="7.61676">
        <ele>152.5</ele>
        <time>2019-08-08T09:50:22Z</time>
      </trkpt>
      <trkpt lat="48.55601" lon="7.61682">
        <ele>152.7</ele>
        <time>2019-08-08T09:50:23Z</time>
      </trkpt>
      <trkpt lat="48.55605" lon="7.61687">
        <ele>152.9</ele>
        <time>2019-08-08T09:50:24Z</time>
      </trkpt>
      <trkpt lat="48.55608" lon="7.61692">
        <ele>152.9</ele>
        <time>2019-08-08T09:50:25Z</time>
      </trkpt>
      <trkpt lat="48.55612" lon="7.61698">
        <ele>152.9</ele>
        <time>2019-08-08T09:50:26Z</time>
      </trkpt>
      <trkpt lat="48.55614" lon="7.61703">
        <ele>152.9</ele>
        <time>2019-08-08T09:50:27Z</time>
      </trkpt>
      <trkpt lat="48.55616" lon="7.61707">
        <ele>152.9</ele>
        <time>2019-08-08T09:50:28Z</time>
      </trkpt>
      <trkpt lat="48.55618" lon="7.6171">
        <ele>152.9</ele>
        <time>2019-08-08T09:50:29Z</time>
      </trkpt>
      <trkpt lat="48.55621" lon="7.61714">
        <ele>152.9</ele>
        <time>2019-08-08T09:50:30Z</time>
      </trkpt>
      <trkpt lat="48.55624" lon="7.61718">
        <ele>152.8</ele>
        <time>2019-08-08T09:50:31Z</time>
      </trkpt>
      <trkpt lat="48.55627" lon="7.61724">
        <ele>152.8</ele>
        <time>2019-08-08T09:50:32Z</time>
      </trkpt>
      <trkpt lat="48.55629" lon="7.61729">
        <ele>152.8</ele>
        <time>2019-08-08T09:50:33Z</time>
      </trkpt>
      <trkpt lat="48.55631" lon="7.61732">
        <ele>152.8</ele>
        <time>2019-08-08T09:50:34Z</time>
      </trkpt>
      <trkpt lat="48.55635" lon="7.61737">
        <ele>152.8</ele>
        <time>2019-08-08T09:50:36Z</time>
      </trkpt>
      <trkpt lat="48.55637" lon="7.6174">
        <ele>152.7</ele>
        <time>2019-08-08T09:50:38Z</time>
      </trkpt>
      <trkpt lat="48.55639" lon="7.61743">
        <ele>152.7</ele>
        <time>2019-08-08T09:50:41Z</time>
      </trkpt>
      <trkpt lat="48.55642" lon="7.61743">
        <ele>152.7</ele>
        <time>2019-08-08T09:50:43Z</time>
      </trkpt>
      <trkpt lat="48.55645" lon="7.61743">
        <ele>152.6</ele>
        <time>2019-08-08T09:50:45Z</time>
      </trkpt>
      <trkpt lat="48.5565" lon="7.6174">
        <ele>152.5</ele>
        <time>2019-08-08T09:50:47Z</time>
      </trkpt>
      <trkpt lat="48.55652" lon="7.61738">
        <ele>152.4</ele>
        <time>2019-08-08T09:50:48Z</time>
      </trkpt>
      <trkpt lat="48.55656" lon="7.61736">
        <ele>152.3</ele>
        <time>2019-08-08T09:50:50Z</time>
      </trkpt>
      <trkpt lat="48.55662" lon="7.61736">
        <ele>152.2</ele>
        <time>2019-08-08T09:50:52Z</time>
      </trkpt>
      <trkpt lat="48.55668" lon="7.6174">
        <ele>152.1</ele>
        <time>2019-08-08T09:50:53Z</time>
      </trkpt>
      <trkpt lat="48.55672" lon="7.61744">
        <ele>152.1</ele>
        <time>2019-08-08T09:50:54Z</time>
      </trkpt>
      <trkpt lat="48.55677" lon="7.6175">
        <ele>152</ele>
        <time>2019-08-08T09:50:55Z</time>
      </trkpt>
      <trkpt lat="48.55683" lon="7.61753">
        <ele>151.9</ele>
        <time>2019-08-08T09:50:56Z</time>
      </trkpt>
      <trkpt lat="48.5569" lon="7.61753">
        <ele>151.9</ele>
        <time>2019-08-08T09:50:57Z</time>
      </trkpt>
      <trkpt lat="48.55695" lon="7.61754">
        <ele>151.8</ele>
        <time>2019-08-08T09:50:58Z</time>
      </trkpt>
      <trkpt lat="48.557" lon="7.61756">
        <ele>151.7</ele>
        <time>2019-08-08T09:50:59Z</time>
      </trkpt>
      <trkpt lat="48.55705" lon="7.61758">
        <ele>151.7</ele>
        <time>2019-08-08T09:51:00Z</time>
      </trkpt>
      <trkpt lat="48.5571" lon="7.61763">
        <ele>151.6</ele>
        <time>2019-08-08T09:51:01Z</time>
      </trkpt>
      <trkpt lat="48.55713" lon="7.61767">
        <ele>151.5</ele>
        <time>2019-08-08T09:51:02Z</time>
      </trkpt>
      <trkpt lat="48.55717" lon="7.61769">
        <ele>151.5</ele>
        <time>2019-08-08T09:51:03Z</time>
      </trkpt>
      <trkpt lat="48.55721" lon="7.61771">
        <ele>151.4</ele>
        <time>2019-08-08T09:51:04Z</time>
      </trkpt>
      <trkpt lat="48.55725" lon="7.61775">
        <ele>151.3</ele>
        <time>2019-08-08T09:51:05Z</time>
      </trkpt>
      <trkpt lat="48.5573" lon="7.6178">
        <ele>151.3</ele>
        <time>2019-08-08T09:51:06Z</time>
      </trkpt>
      <trkpt lat="48.55735" lon="7.61783">
        <ele>151.2</ele>
        <time>2019-08-08T09:51:07Z</time>
      </trkpt>
      <trkpt lat="48.5574" lon="7.61786">
        <ele>151.2</ele>
        <time>2019-08-08T09:51:08Z</time>
      </trkpt>
      <trkpt lat="48.55746" lon="7.61789">
        <ele>151.1</ele>
        <time>2019-08-08T09:51:09Z</time>
      </trkpt>
      <trkpt lat="48.55752" lon="7.61793">
        <ele>151</ele>
        <time>2019-08-08T09:51:10Z</time>
      </trkpt>
      <trkpt lat="48.55758" lon="7.61795">
        <ele>151</ele>
        <time>2019-08-08T09:51:11Z</time>
      </trkpt>
      <trkpt lat="48.55763" lon="7.61797">
        <ele>150.9</ele>
        <time>2019-08-08T09:51:12Z</time>
      </trkpt>
      <trkpt lat="48.55768" lon="7.61799">
        <ele>150.9</ele>
        <time>2019-08-08T09:51:13Z</time>
      </trkpt>
      <trkpt lat="48.55773" lon="7.618">
        <ele>150.9</ele>
        <time>2019-08-08T09:51:14Z</time>
      </trkpt>
      <trkpt lat="48.55777" lon="7.61802">
        <ele>150.8</ele>
        <time>2019-08-08T09:51:15Z</time>
      </trkpt>
      <trkpt lat="48.55781" lon="7.61804">
        <ele>150.7</ele>
        <time>2019-08-08T09:51:16Z</time>
      </trkpt>
      <trkpt lat="48.55784" lon="7.61806">
        <ele>150.7</ele>
        <time>2019-08-08T09:51:17Z</time>
      </trkpt>
      <trkpt lat="48.55788" lon="7.61808">
        <ele>150.6</ele>
        <time>2019-08-08T09:51:18Z</time>
      </trkpt>
      <trkpt lat="48.55792" lon="7.6181">
        <ele>150.4</ele>
        <time>2019-08-08T09:51:19Z</time>
      </trkpt>
      <trkpt lat="48.55796" lon="7.61812">
        <ele>150.3</ele>
        <time>2019-08-08T09:51:20Z</time>
      </trkpt>
      <trkpt lat="48.558" lon="7.61816">
        <ele>150.2</ele>
        <time>2019-08-08T09:51:21Z</time>
      </trkpt>
      <trkpt lat="48.55804" lon="7.61818">
        <ele>150</ele>
        <time>2019-08-08T09:51:22Z</time>
      </trkpt>
      <trkpt lat="48.55808" lon="7.61821">
        <ele>149.8</ele>
        <time>2019-08-08T09:51:23Z</time>
      </trkpt>
      <trkpt lat="48.55812" lon="7.61824">
        <ele>149.6</ele>
        <time>2019-08-08T09:51:24Z</time>
      </trkpt>
      <trkpt lat="48.55817" lon="7.61827">
        <ele>149.4</ele>
        <time>2019-08-08T09:51:25Z</time>
      </trkpt>
      <trkpt lat="48.55822" lon="7.6183">
        <ele>149.2</ele>
        <time>2019-08-08T09:51:26Z</time>
      </trkpt>
      <trkpt lat="48.55827" lon="7.61833">
        <ele>149</ele>
        <time>2019-08-08T09:51:27Z</time>
      </trkpt>
      <trkpt lat="48.55831" lon="7.61835">
        <ele>148.9</ele>
        <time>2019-08-08T09:51:28Z</time>
      </trkpt>
      <trkpt lat="48.55836" lon="7.61838">
        <ele>148.8</ele>
        <time>2019-08-08T09:51:29Z</time>
      </trkpt>
      <trkpt lat="48.5584" lon="7.6184">
        <ele>148.7</ele>
        <time>2019-08-08T09:51:30Z</time>
      </trkpt>
      <trkpt lat="48.55843" lon="7.61841">
        <ele>148.7</ele>
        <time>2019-08-08T09:51:31Z</time>
      </trkpt>
      <trkpt lat="48.55848" lon="7.61843">
        <ele>148.6</ele>
        <time>2019-08-08T09:51:32Z</time>
      </trkpt>
      <trkpt lat="48.55851" lon="7.61845">
        <ele>148.6</ele>
        <time>2019-08-08T09:51:33Z</time>
      </trkpt>
      <trkpt lat="48.55855" lon="7.61847">
        <ele>148.5</ele>
        <time>2019-08-08T09:51:34Z</time>
      </trkpt>
      <trkpt lat="48.55858" lon="7.61849">
        <ele>148.5</ele>
        <time>2019-08-08T09:51:35Z</time>
      </trkpt>
      <trkpt lat="48.55862" lon="7.6185">
        <ele>148.5</ele>
        <time>2019-08-08T09:51:36Z</time>
      </trkpt>
      <trkpt lat="48.55866" lon="7.61851">
        <ele>148.5</ele>
        <time>2019-08-08T09:51:37Z</time>
      </trkpt>
      <trkpt lat="48.55871" lon="7.61854">
        <ele>148.4</ele>
        <time>2019-08-08T09:51:38Z</time>
      </trkpt>
      <trkpt lat="48.55876" lon="7.61856">
        <ele>148.4</ele>
        <time>2019-08-08T09:51:39Z</time>
      </trkpt>
      <trkpt lat="48.55881" lon="7.61859">
        <ele>148.4</ele>
        <time>2019-08-08T09:51:40Z</time>
      </trkpt>
      <trkpt lat="48.55886" lon="7.61862">
        <ele>148.4</ele>
        <time>2019-08-08T09:51:41Z</time>
      </trkpt>
      <trkpt lat="48.55891" lon="7.61865">
        <ele>148.4</ele>
        <time>2019-08-08T09:51:42Z</time>
      </trkpt>
      <trkpt lat="48.55896" lon="7.6187">
        <ele>148.4</ele>
        <time>2019-08-08T09:51:43Z</time>
      </trkpt>
      <trkpt lat="48.559" lon="7.61873">
        <ele>148.4</ele>
        <time>2019-08-08T09:51:44Z</time>
      </trkpt>
      <trkpt lat="48.55905" lon="7.61875">
        <ele>148.4</ele>
        <time>2019-08-08T09:51:45Z</time>
      </trkpt>
      <trkpt lat="48.55909" lon="7.61879">
        <ele>148.4</ele>
        <time>2019-08-08T09:51:46Z</time>
      </trkpt>
      <trkpt lat="48.55914" lon="7.61881">
        <ele>148.4</ele>
        <time>2019-08-08T09:51:47Z</time>
      </trkpt>
      <trkpt lat="48.55918" lon="7.61884">
        <ele>148.4</ele>
        <time>2019-08-08T09:51:48Z</time>
      </trkpt>
      <trkpt lat="48.55921" lon="7.61886">
        <ele>148.5</ele>
        <time>2019-08-08T09:51:49Z</time>
      </trkpt>
      <trkpt lat="48.55925" lon="7.61889">
        <ele>148.5</ele>
        <time>2019-08-08T09:51:50Z</time>
      </trkpt>
      <trkpt lat="48.55928" lon="7.61891">
        <ele>148.5</ele>
        <time>2019-08-08T09:51:51Z</time>
      </trkpt>
      <trkpt lat="48.55932" lon="7.61893">
        <ele>148.5</ele>
        <time>2019-08-08T09:51:52Z</time>
      </trkpt>
      <trkpt lat="48.55938" lon="7.61895">
        <ele>148.5</ele>
        <time>2019-08-08T09:51:53Z</time>
      </trkpt>
      <trkpt lat="48.55945" lon="7.61896">
        <ele>148.6</ele>
        <time>2019-08-08T09:51:54Z</time>
      </trkpt>
      <trkpt lat="48.55951" lon="7.61898">
        <ele>148.6</ele>
        <time>2019-08-08T09:51:55Z</time>
      </trkpt>
      <trkpt lat="48.55958" lon="7.61899">
        <ele>148.6</ele>
        <time>2019-08-08T09:51:56Z</time>
      </trkpt>
      <trkpt lat="48.55964" lon="7.61901">
        <ele>148.6</ele>
        <time>2019-08-08T09:51:57Z</time>
      </trkpt>
      <trkpt lat="48.55971" lon="7.619">
        <ele>148.6</ele>
        <time>2019-08-08T09:51:58Z</time>
      </trkpt>
      <trkpt lat="48.55977" lon="7.61901">
        <ele>148.6</ele>
        <time>2019-08-08T09:51:59Z</time>
      </trkpt>
      <trkpt lat="48.55984" lon="7.61901">
        <ele>148.5</ele>
        <time>2019-08-08T09:52:00Z</time>
      </trkpt>
      <trkpt lat="48.55989" lon="7.61901">
        <ele>148.5</ele>
        <time>2019-08-08T09:52:01Z</time>
      </trkpt>
      <trkpt lat="48.55995" lon="7.61901">
        <ele>148.5</ele>
        <time>2019-08-08T09:52:02Z</time>
      </trkpt>
      <trkpt lat="48.56" lon="7.61901">
        <ele>148.5</ele>
        <time>2019-08-08T09:52:03Z</time>
      </trkpt>
      <trkpt lat="48.56006" lon="7.61901">
        <ele>148.5</ele>
        <time>2019-08-08T09:52:04Z</time>
      </trkpt>
      <trkpt lat="48.56011" lon="7.61901">
        <ele>148.6</ele>
        <time>2019-08-08T09:52:05Z</time>
      </trkpt>
      <trkpt lat="48.56016" lon="7.619">
        <ele>148.6</ele>
        <time>2019-08-08T09:52:06Z</time>
      </trkpt>
      <trkpt lat="48.56021" lon="7.61899">
        <ele>148.7</ele>
        <time>2019-08-08T09:52:07Z</time>
      </trkpt>
      <trkpt lat="48.56027" lon="7.61899">
        <ele>148.8</ele>
        <time>2019-08-08T09:52:08Z</time>
      </trkpt>
      <trkpt lat="48.56032" lon="7.61898">
        <ele>148.9</ele>
        <time>2019-08-08T09:52:09Z</time>
      </trkpt>
      <trkpt lat="48.56037" lon="7.61898">
        <ele>149</ele>
        <time>2019-08-08T09:52:10Z</time>
      </trkpt>
      <trkpt lat="48.56043" lon="7.61896">
        <ele>149.1</ele>
        <time>2019-08-08T09:52:11Z</time>
      </trkpt>
      <trkpt lat="48.56048" lon="7.61894">
        <ele>149.2</ele>
        <time>2019-08-08T09:52:12Z</time>
      </trkpt>
      <trkpt lat="48.56054" lon="7.61894">
        <ele>149.3</ele>
        <time>2019-08-08T09:52:13Z</time>
      </trkpt>
      <trkpt lat="48.56059" lon="7.61893">
        <ele>149.4</ele>
        <time>2019-08-08T09:52:14Z</time>
      </trkpt>
      <trkpt lat="48.56065" lon="7.61893">
        <ele>149.4</ele>
        <time>2019-08-08T09:52:15Z</time>
      </trkpt>
      <trkpt lat="48.56071" lon="7.61893">
        <ele>149.4</ele>
        <time>2019-08-08T09:52:16Z</time>
      </trkpt>
      <trkpt lat="48.56079" lon="7.61896">
        <ele>149.4</ele>
        <time>2019-08-08T09:52:17Z</time>
      </trkpt>
      <trkpt lat="48.56086" lon="7.61898">
        <ele>149.3</ele>
        <time>2019-08-08T09:52:18Z</time>
      </trkpt>
      <trkpt lat="48.56092" lon="7.619">
        <ele>149.2</ele>
        <time>2019-08-08T09:52:19Z</time>
      </trkpt>
      <trkpt lat="48.56098" lon="7.61902">
        <ele>149.1</ele>
        <time>2019-08-08T09:52:20Z</time>
      </trkpt>
      <trkpt lat="48.56103" lon="7.61904">
        <ele>149</ele>
        <time>2019-08-08T09:52:21Z</time>
      </trkpt>
      <trkpt lat="48.56107" lon="7.61906">
        <ele>148.9</ele>
        <time>2019-08-08T09:52:22Z</time>
      </trkpt>
      <trkpt lat="48.56111" lon="7.61908">
        <ele>148.8</ele>
        <time>2019-08-08T09:52:23Z</time>
      </trkpt>
      <trkpt lat="48.56116" lon="7.6191">
        <ele>148.7</ele>
        <time>2019-08-08T09:52:24Z</time>
      </trkpt>
      <trkpt lat="48.56121" lon="7.6191">
        <ele>148.6</ele>
        <time>2019-08-08T09:52:25Z</time>
      </trkpt>
      <trkpt lat="48.56125" lon="7.61911">
        <ele>148.5</ele>
        <time>2019-08-08T09:52:26Z</time>
      </trkpt>
      <trkpt lat="48.56128" lon="7.61911">
        <ele>148.5</ele>
        <time>2019-08-08T09:52:27Z</time>
      </trkpt>
      <trkpt lat="48.56131" lon="7.6191">
        <ele>148.4</ele>
        <time>2019-08-08T09:52:28Z</time>
      </trkpt>
      <trkpt lat="48.56135" lon="7.6191">
        <ele>148.3</ele>
        <time>2019-08-08T09:52:29Z</time>
      </trkpt>
      <trkpt lat="48.5614" lon="7.61912">
        <ele>148.3</ele>
        <time>2019-08-08T09:52:30Z</time>
      </trkpt>
      <trkpt lat="48.56145" lon="7.61913">
        <ele>148.2</ele>
        <time>2019-08-08T09:52:31Z</time>
      </trkpt>
      <trkpt lat="48.5615" lon="7.61914">
        <ele>148.1</ele>
        <time>2019-08-08T09:52:32Z</time>
      </trkpt>
      <trkpt lat="48.56154" lon="7.61915">
        <ele>148.1</ele>
        <time>2019-08-08T09:52:33Z</time>
      </trkpt>
      <trkpt lat="48.56157" lon="7.61914">
        <ele>148.1</ele>
        <time>2019-08-08T09:52:34Z</time>
      </trkpt>
      <trkpt lat="48.56161" lon="7.61915">
        <ele>148</ele>
        <time>2019-08-08T09:52:35Z</time>
      </trkpt>
      <trkpt lat="48.56165" lon="7.61915">
        <ele>148</ele>
        <time>2019-08-08T09:52:36Z</time>
      </trkpt>
      <trkpt lat="48.56168" lon="7.61915">
        <ele>148</ele>
        <time>2019-08-08T09:52:37Z</time>
      </trkpt>
      <trkpt lat="48.56172" lon="7.61914">
        <ele>148</ele>
        <time>2019-08-08T09:52:38Z</time>
      </trkpt>
      <trkpt lat="48.56177" lon="7.61912">
        <ele>148</ele>
        <time>2019-08-08T09:52:40Z</time>
      </trkpt>
      <trkpt lat="48.56181" lon="7.61911">
        <ele>148</ele>
        <time>2019-08-08T09:52:41Z</time>
      </trkpt>
      <trkpt lat="48.56185" lon="7.61911">
        <ele>148</ele>
        <time>2019-08-08T09:52:42Z</time>
      </trkpt>
      <trkpt lat="48.56189" lon="7.61911">
        <ele>148</ele>
        <time>2019-08-08T09:52:43Z</time>
      </trkpt>
      <trkpt lat="48.56192" lon="7.61911">
        <ele>148</ele>
        <time>2019-08-08T09:52:44Z</time>
      </trkpt>
      <trkpt lat="48.56195" lon="7.61912">
        <ele>148</ele>
        <time>2019-08-08T09:52:45Z</time>
      </trkpt>
      <trkpt lat="48.56199" lon="7.61912">
        <ele>148.1</ele>
        <time>2019-08-08T09:52:46Z</time>
      </trkpt>
      <trkpt lat="48.56204" lon="7.61911">
        <ele>148.1</ele>
        <time>2019-08-08T09:52:47Z</time>
      </trkpt>
      <trkpt lat="48.56208" lon="7.61909">
        <ele>148.1</ele>
        <time>2019-08-08T09:52:48Z</time>
      </trkpt>
      <trkpt lat="48.56213" lon="7.61907">
        <ele>148.2</ele>
        <time>2019-08-08T09:52:49Z</time>
      </trkpt>
      <trkpt lat="48.56217" lon="7.61906">
        <ele>148.2</ele>
        <time>2019-08-08T09:52:50Z</time>
      </trkpt>
      <trkpt lat="48.56221" lon="7.61904">
        <ele>148.2</ele>
        <time>2019-08-08T09:52:51Z</time>
      </trkpt>
      <trkpt lat="48.56224" lon="7.61902">
        <ele>148.2</ele>
        <time>2019-08-08T09:52:52Z</time>
      </trkpt>
      <trkpt lat="48.56228" lon="7.619">
        <ele>148.3</ele>
        <time>2019-08-08T09:52:53Z</time>
      </trkpt>
      <trkpt lat="48.56231" lon="7.61898">
        <ele>148.3</ele>
        <time>2019-08-08T09:52:54Z</time>
      </trkpt>
      <trkpt lat="48.56234" lon="7.61896">
        <ele>148.3</ele>
        <time>2019-08-08T09:52:55Z</time>
      </trkpt>
      <trkpt lat="48.56238" lon="7.61894">
        <ele>148.3</ele>
        <time>2019-08-08T09:52:56Z</time>
      </trkpt>
      <trkpt lat="48.56242" lon="7.61891">
        <ele>148.3</ele>
        <time>2019-08-08T09:52:57Z</time>
      </trkpt>
      <trkpt lat="48.56245" lon="7.61888">
        <ele>148.3</ele>
        <time>2019-08-08T09:52:58Z</time>
      </trkpt>
      <trkpt lat="48.56249" lon="7.61885">
        <ele>148.3</ele>
        <time>2019-08-08T09:52:59Z</time>
      </trkpt>
      <trkpt lat="48.56253" lon="7.61882">
        <ele>148.3</ele>
        <time>2019-08-08T09:53:00Z</time>
      </trkpt>
      <trkpt lat="48.56258" lon="7.61877">
        <ele>148.3</ele>
        <time>2019-08-08T09:53:01Z</time>
      </trkpt>
      <trkpt lat="48.56262" lon="7.61872">
        <ele>148.3</ele>
        <time>2019-08-08T09:53:02Z</time>
      </trkpt>
      <trkpt lat="48.56268" lon="7.61866">
        <ele>148.2</ele>
        <time>2019-08-08T09:53:03Z</time>
      </trkpt>
      <trkpt lat="48.56272" lon="7.6186">
        <ele>148.2</ele>
        <time>2019-08-08T09:53:04Z</time>
      </trkpt>
      <trkpt lat="48.56276" lon="7.61854">
        <ele>148.1</ele>
        <time>2019-08-08T09:53:05Z</time>
      </trkpt>
      <trkpt lat="48.56281" lon="7.61848">
        <ele>148.1</ele>
        <time>2019-08-08T09:53:06Z</time>
      </trkpt>
      <trkpt lat="48.56286" lon="7.61843">
        <ele>148</ele>
        <time>2019-08-08T09:53:07Z</time>
      </trkpt>
      <trkpt lat="48.56291" lon="7.61838">
        <ele>148</ele>
        <time>2019-08-08T09:53:08Z</time>
      </trkpt>
      <trkpt lat="48.56296" lon="7.61832">
        <ele>148</ele>
        <time>2019-08-08T09:53:09Z</time>
      </trkpt>
      <trkpt lat="48.56301" lon="7.61828">
        <ele>148</ele>
        <time>2019-08-08T09:53:10Z</time>
      </trkpt>
      <trkpt lat="48.56304" lon="7.61828">
        <ele>147.9</ele>
        <time>2019-08-08T09:53:11Z</time>
      </trkpt>
      <trkpt lat="48.56308" lon="7.61828">
        <ele>147.9</ele>
        <time>2019-08-08T09:53:12Z</time>
      </trkpt>
      <trkpt lat="48.56311" lon="7.61827">
        <ele>147.9</ele>
        <time>2019-08-08T09:53:13Z</time>
      </trkpt>
      <trkpt lat="48.56316" lon="7.61828">
        <ele>147.8</ele>
        <time>2019-08-08T09:53:14Z</time>
      </trkpt>
      <trkpt lat="48.56321" lon="7.61828">
        <ele>147.8</ele>
        <time>2019-08-08T09:53:15Z</time>
      </trkpt>
      <trkpt lat="48.56326" lon="7.61829">
        <ele>147.7</ele>
        <time>2019-08-08T09:53:16Z</time>
      </trkpt>
      <trkpt lat="48.56333" lon="7.6183">
        <ele>147.6</ele>
        <time>2019-08-08T09:53:17Z</time>
      </trkpt>
      <trkpt lat="48.56338" lon="7.61832">
        <ele>147.6</ele>
        <time>2019-08-08T09:53:18Z</time>
      </trkpt>
      <trkpt lat="48.56343" lon="7.61833">
        <ele>147.6</ele>
        <time>2019-08-08T09:53:19Z</time>
      </trkpt>
      <trkpt lat="48.56348" lon="7.61835">
        <ele>147.6</ele>
        <time>2019-08-08T09:53:20Z</time>
      </trkpt>
      <trkpt lat="48.56352" lon="7.61836">
        <ele>147.7</ele>
        <time>2019-08-08T09:53:21Z</time>
      </trkpt>
      <trkpt lat="48.56357" lon="7.61838">
        <ele>147.7</ele>
        <time>2019-08-08T09:53:22Z</time>
      </trkpt>
      <trkpt lat="48.56361" lon="7.6184">
        <ele>147.7</ele>
        <time>2019-08-08T09:53:23Z</time>
      </trkpt>
      <trkpt lat="48.56365" lon="7.61842">
        <ele>147.8</ele>
        <time>2019-08-08T09:53:24Z</time>
      </trkpt>
      <trkpt lat="48.56369" lon="7.61843">
        <ele>147.8</ele>
        <time>2019-08-08T09:53:25Z</time>
      </trkpt>
      <trkpt lat="48.56374" lon="7.61845">
        <ele>147.8</ele>
        <time>2019-08-08T09:53:26Z</time>
      </trkpt>
      <trkpt lat="48.56378" lon="7.61847">
        <ele>147.7</ele>
        <time>2019-08-08T09:53:27Z</time>
      </trkpt>
      <trkpt lat="48.56382" lon="7.6185">
        <ele>147.6</ele>
        <time>2019-08-08T09:53:28Z</time>
      </trkpt>
      <trkpt lat="48.56387" lon="7.61856">
        <ele>147.5</ele>
        <time>2019-08-08T09:53:29Z</time>
      </trkpt>
      <trkpt lat="48.56392" lon="7.61862">
        <ele>147.3</ele>
        <time>2019-08-08T09:53:30Z</time>
      </trkpt>
      <trkpt lat="48.56398" lon="7.61867">
        <ele>147.2</ele>
        <time>2019-08-08T09:53:31Z</time>
      </trkpt>
      <trkpt lat="48.56402" lon="7.61872">
        <ele>147.1</ele>
        <time>2019-08-08T09:53:32Z</time>
      </trkpt>
      <trkpt lat="48.56406" lon="7.61877">
        <ele>147.1</ele>
        <time>2019-08-08T09:53:33Z</time>
      </trkpt>
      <trkpt lat="48.56409" lon="7.61882">
        <ele>147.1</ele>
        <time>2019-08-08T09:53:34Z</time>
      </trkpt>
      <trkpt lat="48.56413" lon="7.61886">
        <ele>147.1</ele>
        <time>2019-08-08T09:53:35Z</time>
      </trkpt>
      <trkpt lat="48.56418" lon="7.6189">
        <ele>147.2</ele>
        <time>2019-08-08T09:53:36Z</time>
      </trkpt>
      <trkpt lat="48.56421" lon="7.61894">
        <ele>147.3</ele>
        <time>2019-08-08T09:53:37Z</time>
      </trkpt>
      <trkpt lat="48.56424" lon="7.61898">
        <ele>147.3</ele>
        <time>2019-08-08T09:53:38Z</time>
      </trkpt>
      <trkpt lat="48.56427" lon="7.61901">
        <ele>147.4</ele>
        <time>2019-08-08T09:53:39Z</time>
      </trkpt>
      <trkpt lat="48.5643" lon="7.61905">
        <ele>147.5</ele>
        <time>2019-08-08T09:53:40Z</time>
      </trkpt>
      <trkpt lat="48.56433" lon="7.61908">
        <ele>147.5</ele>
        <time>2019-08-08T09:53:41Z</time>
      </trkpt>
      <trkpt lat="48.56436" lon="7.6191">
        <ele>147.6</ele>
        <time>2019-08-08T09:53:42Z</time>
      </trkpt>
      <trkpt lat="48.56438" lon="7.61913">
        <ele>147.6</ele>
        <time>2019-08-08T09:53:43Z</time>
      </trkpt>
      <trkpt lat="48.56441" lon="7.61914">
        <ele>147.6</ele>
        <time>2019-08-08T09:53:44Z</time>
      </trkpt>
      <trkpt lat="48.56444" lon="7.61915">
        <ele>147.7</ele>
        <time>2019-08-08T09:53:45Z</time>
      </trkpt>
      <trkpt lat="48.56447" lon="7.61917">
        <ele>147.7</ele>
        <time>2019-08-08T09:53:46Z</time>
      </trkpt>
      <trkpt lat="48.56451" lon="7.61921">
        <ele>147.7</ele>
        <time>2019-08-08T09:53:47Z</time>
      </trkpt>
      <trkpt lat="48.56454" lon="7.61924">
        <ele>147.8</ele>
        <time>2019-08-08T09:53:48Z</time>
      </trkpt>
      <trkpt lat="48.56458" lon="7.61926">
        <ele>147.8</ele>
        <time>2019-08-08T09:53:49Z</time>
      </trkpt>
      <trkpt lat="48.56461" lon="7.61927">
        <ele>147.9</ele>
        <time>2019-08-08T09:53:50Z</time>
      </trkpt>
      <trkpt lat="48.56467" lon="7.61928">
        <ele>148</ele>
        <time>2019-08-08T09:53:51Z</time>
      </trkpt>
      <trkpt lat="48.56472" lon="7.6193">
        <ele>148</ele>
        <time>2019-08-08T09:53:52Z</time>
      </trkpt>
      <trkpt lat="48.56476" lon="7.61933">
        <ele>148</ele>
        <time>2019-08-08T09:53:53Z</time>
      </trkpt>
      <trkpt lat="48.5648" lon="7.61935">
        <ele>148</ele>
        <time>2019-08-08T09:53:54Z</time>
      </trkpt>
      <trkpt lat="48.56485" lon="7.61936">
        <ele>147.9</ele>
        <time>2019-08-08T09:53:55Z</time>
      </trkpt>
      <trkpt lat="48.56488" lon="7.61939">
        <ele>147.8</ele>
        <time>2019-08-08T09:53:56Z</time>
      </trkpt>
      <trkpt lat="48.56493" lon="7.61941">
        <ele>147.8</ele>
        <time>2019-08-08T09:53:57Z</time>
      </trkpt>
      <trkpt lat="48.56496" lon="7.61942">
        <ele>147.7</ele>
        <time>2019-08-08T09:53:58Z</time>
      </trkpt>
      <trkpt lat="48.565" lon="7.61943">
        <ele>147.6</ele>
        <time>2019-08-08T09:53:59Z</time>
      </trkpt>
      <trkpt lat="48.56505" lon="7.61947">
        <ele>147.5</ele>
        <time>2019-08-08T09:54:00Z</time>
      </trkpt>
      <trkpt lat="48.56509" lon="7.61951">
        <ele>147.4</ele>
        <time>2019-08-08T09:54:01Z</time>
      </trkpt>
      <trkpt lat="48.56515" lon="7.61957">
        <ele>147.3</ele>
        <time>2019-08-08T09:54:02Z</time>
      </trkpt>
      <trkpt lat="48.5652" lon="7.6196">
        <ele>147.3</ele>
        <time>2019-08-08T09:54:03Z</time>
      </trkpt>
      <trkpt lat="48.56524" lon="7.61964">
        <ele>147.3</ele>
        <time>2019-08-08T09:54:04Z</time>
      </trkpt>
      <trkpt lat="48.56528" lon="7.61967">
        <ele>147.4</ele>
        <time>2019-08-08T09:54:05Z</time>
      </trkpt>
      <trkpt lat="48.56532" lon="7.61971">
        <ele>147.4</ele>
        <time>2019-08-08T09:54:06Z</time>
      </trkpt>
      <trkpt lat="48.56536" lon="7.61975">
        <ele>147.4</ele>
        <time>2019-08-08T09:54:07Z</time>
      </trkpt>
      <trkpt lat="48.5654" lon="7.6198">
        <ele>147.5</ele>
        <time>2019-08-08T09:54:08Z</time>
      </trkpt>
      <trkpt lat="48.56544" lon="7.61984">
        <ele>147.6</ele>
        <time>2019-08-08T09:54:09Z</time>
      </trkpt>
      <trkpt lat="48.56549" lon="7.61989">
        <ele>147.7</ele>
        <time>2019-08-08T09:54:10Z</time>
      </trkpt>
      <trkpt lat="48.56555" lon="7.61993">
        <ele>147.8</ele>
        <time>2019-08-08T09:54:11Z</time>
      </trkpt>
      <trkpt lat="48.56561" lon="7.61995">
        <ele>148</ele>
        <time>2019-08-08T09:54:12Z</time>
      </trkpt>
      <trkpt lat="48.56566" lon="7.61998">
        <ele>148.1</ele>
        <time>2019-08-08T09:54:13Z</time>
      </trkpt>
      <trkpt lat="48.56571" lon="7.62001">
        <ele>148.2</ele>
        <time>2019-08-08T09:54:14Z</time>
      </trkpt>
      <trkpt lat="48.56576" lon="7.62004">
        <ele>148.4</ele>
        <time>2019-08-08T09:54:15Z</time>
      </trkpt>
      <trkpt lat="48.56581" lon="7.62007">
        <ele>148.5</ele>
        <time>2019-08-08T09:54:16Z</time>
      </trkpt>
      <trkpt lat="48.56586" lon="7.62009">
        <ele>148.7</ele>
        <time>2019-08-08T09:54:17Z</time>
      </trkpt>
      <trkpt lat="48.56591" lon="7.62012">
        <ele>148.9</ele>
        <time>2019-08-08T09:54:18Z</time>
      </trkpt>
      <trkpt lat="48.56596" lon="7.62016">
        <ele>149</ele>
        <time>2019-08-08T09:54:19Z</time>
      </trkpt>
      <trkpt lat="48.56601" lon="7.62021">
        <ele>149</ele>
        <time>2019-08-08T09:54:20Z</time>
      </trkpt>
      <trkpt lat="48.56606" lon="7.62024">
        <ele>149</ele>
        <time>2019-08-08T09:54:21Z</time>
      </trkpt>
      <trkpt lat="48.56611" lon="7.62029">
        <ele>149</ele>
        <time>2019-08-08T09:54:22Z</time>
      </trkpt>
      <trkpt lat="48.56617" lon="7.62034">
        <ele>149.1</ele>
        <time>2019-08-08T09:54:23Z</time>
      </trkpt>
      <trkpt lat="48.56621" lon="7.62039">
        <ele>149.1</ele>
        <time>2019-08-08T09:54:24Z</time>
      </trkpt>
      <trkpt lat="48.56625" lon="7.62043">
        <ele>149.1</ele>
        <time>2019-08-08T09:54:25Z</time>
      </trkpt>
      <trkpt lat="48.56628" lon="7.62046">
        <ele>149.1</ele>
        <time>2019-08-08T09:54:26Z</time>
      </trkpt>
      <trkpt lat="48.56632" lon="7.62049">
        <ele>149.2</ele>
        <time>2019-08-08T09:54:27Z</time>
      </trkpt>
      <trkpt lat="48.56636" lon="7.62052">
        <ele>149.2</ele>
        <time>2019-08-08T09:54:28Z</time>
      </trkpt>
      <trkpt lat="48.56638" lon="7.62055">
        <ele>149.2</ele>
        <time>2019-08-08T09:54:29Z</time>
      </trkpt>
      <trkpt lat="48.56641" lon="7.62057">
        <ele>149.2</ele>
        <time>2019-08-08T09:54:30Z</time>
      </trkpt>
      <trkpt lat="48.56644" lon="7.6206">
        <ele>149.3</ele>
        <time>2019-08-08T09:54:31Z</time>
      </trkpt>
      <trkpt lat="48.56647" lon="7.62062">
        <ele>149.3</ele>
        <time>2019-08-08T09:54:32Z</time>
      </trkpt>
      <trkpt lat="48.56651" lon="7.62065">
        <ele>149.4</ele>
        <time>2019-08-08T09:54:33Z</time>
      </trkpt>
      <trkpt lat="48.56654" lon="7.62069">
        <ele>149.4</ele>
        <time>2019-08-08T09:54:34Z</time>
      </trkpt>
      <trkpt lat="48.56659" lon="7.62073">
        <ele>149.5</ele>
        <time>2019-08-08T09:54:35Z</time>
      </trkpt>
      <trkpt lat="48.56663" lon="7.62078">
        <ele>149.6</ele>
        <time>2019-08-08T09:54:36Z</time>
      </trkpt>
      <trkpt lat="48.56667" lon="7.62083">
        <ele>149.7</ele>
        <time>2019-08-08T09:54:37Z</time>
      </trkpt>
      <trkpt lat="48.56671" lon="7.62087">
        <ele>149.7</ele>
        <time>2019-08-08T09:54:38Z</time>
      </trkpt>
      <trkpt lat="48.56676" lon="7.62091">
        <ele>149.8</ele>
        <time>2019-08-08T09:54:39Z</time>
      </trkpt>
      <trkpt lat="48.5668" lon="7.62096">
        <ele>149.9</ele>
        <time>2019-08-08T09:54:40Z</time>
      </trkpt>
      <trkpt lat="48.56684" lon="7.621">
        <ele>149.9</ele>
        <time>2019-08-08T09:54:41Z</time>
      </trkpt>
      <trkpt lat="48.56687" lon="7.62105">
        <ele>149.9</ele>
        <time>2019-08-08T09:54:42Z</time>
      </trkpt>
      <trkpt lat="48.5669" lon="7.62109">
        <ele>149.9</ele>
        <time>2019-08-08T09:54:43Z</time>
      </trkpt>
      <trkpt lat="48.56695" lon="7.62111">
        <ele>149.9</ele>
        <time>2019-08-08T09:54:44Z</time>
      </trkpt>
      <trkpt lat="48.56699" lon="7.62116">
        <ele>149.9</ele>
        <time>2019-08-08T09:54:45Z</time>
      </trkpt>
      <trkpt lat="48.56703" lon="7.62119">
        <ele>149.9</ele>
        <time>2019-08-08T09:54:46Z</time>
      </trkpt>
      <trkpt lat="48.56706" lon="7.62123">
        <ele>149.9</ele>
        <time>2019-08-08T09:54:47Z</time>
      </trkpt>
      <trkpt lat="48.56711" lon="7.62128">
        <ele>149.9</ele>
        <time>2019-08-08T09:54:48Z</time>
      </trkpt>
      <trkpt lat="48.56716" lon="7.62133">
        <ele>149.9</ele>
        <time>2019-08-08T09:54:49Z</time>
      </trkpt>
      <trkpt lat="48.56719" lon="7.6214">
        <ele>149.9</ele>
        <time>2019-08-08T09:54:50Z</time>
      </trkpt>
      <trkpt lat="48.56722" lon="7.62146">
        <ele>149.9</ele>
        <time>2019-08-08T09:54:51Z</time>
      </trkpt>
      <trkpt lat="48.56724" lon="7.62152">
        <ele>149.9</ele>
        <time>2019-08-08T09:54:52Z</time>
      </trkpt>
      <trkpt lat="48.56727" lon="7.62158">
        <ele>149.9</ele>
        <time>2019-08-08T09:54:53Z</time>
      </trkpt>
      <trkpt lat="48.5673" lon="7.62165">
        <ele>149.9</ele>
        <time>2019-08-08T09:54:54Z</time>
      </trkpt>
      <trkpt lat="48.56734" lon="7.6217">
        <ele>150</ele>
        <time>2019-08-08T09:54:55Z</time>
      </trkpt>
      <trkpt lat="48.56738" lon="7.62174">
        <ele>150</ele>
        <time>2019-08-08T09:54:56Z</time>
      </trkpt>
      <trkpt lat="48.56742" lon="7.62179">
        <ele>150</ele>
        <time>2019-08-08T09:54:57Z</time>
      </trkpt>
      <trkpt lat="48.56747" lon="7.62181">
        <ele>150</ele>
        <time>2019-08-08T09:54:58Z</time>
      </trkpt>
      <trkpt lat="48.56753" lon="7.62183">
        <ele>150</ele>
        <time>2019-08-08T09:54:59Z</time>
      </trkpt>
      <trkpt lat="48.56758" lon="7.62187">
        <ele>149.9</ele>
        <time>2019-08-08T09:55:00Z</time>
      </trkpt>
      <trkpt lat="48.56763" lon="7.62189">
        <ele>149.9</ele>
        <time>2019-08-08T09:55:01Z</time>
      </trkpt>
      <trkpt lat="48.56768" lon="7.62192">
        <ele>149.8</ele>
        <time>2019-08-08T09:55:02Z</time>
      </trkpt>
      <trkpt lat="48.56773" lon="7.62193">
        <ele>149.7</ele>
        <time>2019-08-08T09:55:03Z</time>
      </trkpt>
      <trkpt lat="48.56777" lon="7.62198">
        <ele>149.6</ele>
        <time>2019-08-08T09:55:04Z</time>
      </trkpt>
      <trkpt lat="48.56781" lon="7.62201">
        <ele>149.5</ele>
        <time>2019-08-08T09:55:05Z</time>
      </trkpt>
      <trkpt lat="48.56784" lon="7.62204">
        <ele>149.5</ele>
        <time>2019-08-08T09:55:06Z</time>
      </trkpt>
      <trkpt lat="48.56788" lon="7.62207">
        <ele>149.4</ele>
        <time>2019-08-08T09:55:07Z</time>
      </trkpt>
      <trkpt lat="48.56792" lon="7.62209">
        <ele>149.4</ele>
        <time>2019-08-08T09:55:08Z</time>
      </trkpt>
      <trkpt lat="48.56794" lon="7.62211">
        <ele>149.3</ele>
        <time>2019-08-08T09:55:09Z</time>
      </trkpt>
      <trkpt lat="48.56797" lon="7.62214">
        <ele>149.3</ele>
        <time>2019-08-08T09:55:10Z</time>
      </trkpt>
      <trkpt lat="48.56799" lon="7.62216">
        <ele>149.3</ele>
        <time>2019-08-08T09:55:11Z</time>
      </trkpt>
      <trkpt lat="48.56802" lon="7.62219">
        <ele>149.2</ele>
        <time>2019-08-08T09:55:12Z</time>
      </trkpt>
      <trkpt lat="48.56804" lon="7.62223">
        <ele>149.2</ele>
        <time>2019-08-08T09:55:13Z</time>
      </trkpt>
      <trkpt lat="48.56807" lon="7.62225">
        <ele>149.2</ele>
        <time>2019-08-08T09:55:14Z</time>
      </trkpt>
      <trkpt lat="48.56811" lon="7.62227">
        <ele>149.2</ele>
        <time>2019-08-08T09:55:15Z</time>
      </trkpt>
      <trkpt lat="48.56814" lon="7.6223">
        <ele>149.2</ele>
        <time>2019-08-08T09:55:16Z</time>
      </trkpt>
      <trkpt lat="48.56817" lon="7.62232">
        <ele>149.2</ele>
        <time>2019-08-08T09:55:17Z</time>
      </trkpt>
      <trkpt lat="48.5682" lon="7.62235">
        <ele>149.3</ele>
        <time>2019-08-08T09:55:18Z</time>
      </trkpt>
      <trkpt lat="48.56824" lon="7.62237">
        <ele>149.3</ele>
        <time>2019-08-08T09:55:19Z</time>
      </trkpt>
      <trkpt lat="48.56828" lon="7.6224">
        <ele>149.3</ele>
        <time>2019-08-08T09:55:20Z</time>
      </trkpt>
      <trkpt lat="48.56831" lon="7.62244">
        <ele>149.4</ele>
        <time>2019-08-08T09:55:21Z</time>
      </trkpt>
      <trkpt lat="48.56835" lon="7.62246">
        <ele>149.4</ele>
        <time>2019-08-08T09:55:22Z</time>
      </trkpt>
      <trkpt lat="48.5684" lon="7.62249">
        <ele>149.4</ele>
        <time>2019-08-08T09:55:23Z</time>
      </trkpt>
      <trkpt lat="48.56845" lon="7.62251">
        <ele>149.5</ele>
        <time>2019-08-08T09:55:24Z</time>
      </trkpt>
      <trkpt lat="48.56849" lon="7.62255">
        <ele>149.5</ele>
        <time>2019-08-08T09:55:25Z</time>
      </trkpt>
      <trkpt lat="48.56855" lon="7.6226">
        <ele>149.5</ele>
        <time>2019-08-08T09:55:26Z</time>
      </trkpt>
      <trkpt lat="48.56859" lon="7.62263">
        <ele>149.5</ele>
        <time>2019-08-08T09:55:27Z</time>
      </trkpt>
      <trkpt lat="48.56866" lon="7.62268">
        <ele>149.6</ele>
        <time>2019-08-08T09:55:28Z</time>
      </trkpt>
      <trkpt lat="48.56873" lon="7.62274">
        <ele>149.6</ele>
        <time>2019-08-08T09:55:29Z</time>
      </trkpt>
      <trkpt lat="48.56877" lon="7.62277">
        <ele>149.6</ele>
        <time>2019-08-08T09:55:30Z</time>
      </trkpt>
      <trkpt lat="48.56881" lon="7.6228">
        <ele>149.5</ele>
        <time>2019-08-08T09:55:31Z</time>
      </trkpt>
      <trkpt lat="48.56885" lon="7.62284">
        <ele>149.5</ele>
        <time>2019-08-08T09:55:32Z</time>
      </trkpt>
      <trkpt lat="48.56889" lon="7.62286">
        <ele>149.5</ele>
        <time>2019-08-08T09:55:33Z</time>
      </trkpt>
      <trkpt lat="48.56892" lon="7.62289">
        <ele>149.5</ele>
        <time>2019-08-08T09:55:34Z</time>
      </trkpt>
      <trkpt lat="48.56896" lon="7.62291">
        <ele>149.5</ele>
        <time>2019-08-08T09:55:35Z</time>
      </trkpt>
      <trkpt lat="48.56901" lon="7.62294">
        <ele>149.5</ele>
        <time>2019-08-08T09:55:36Z</time>
      </trkpt>
      <trkpt lat="48.56906" lon="7.62298">
        <ele>149.5</ele>
        <time>2019-08-08T09:55:37Z</time>
      </trkpt>
      <trkpt lat="48.56911" lon="7.62303">
        <ele>149.5</ele>
        <time>2019-08-08T09:55:38Z</time>
      </trkpt>
      <trkpt lat="48.56915" lon="7.62306">
        <ele>149.5</ele>
        <time>2019-08-08T09:55:39Z</time>
      </trkpt>
      <trkpt lat="48.56919" lon="7.62309">
        <ele>149.5</ele>
        <time>2019-08-08T09:55:40Z</time>
      </trkpt>
      <trkpt lat="48.56924" lon="7.62313">
        <ele>149.5</ele>
        <time>2019-08-08T09:55:41Z</time>
      </trkpt>
      <trkpt lat="48.56928" lon="7.62317">
        <ele>149.5</ele>
        <time>2019-08-08T09:55:42Z</time>
      </trkpt>
      <trkpt lat="48.56932" lon="7.6232">
        <ele>149.5</ele>
        <time>2019-08-08T09:55:43Z</time>
      </trkpt>
      <trkpt lat="48.56937" lon="7.62321">
        <ele>149.4</ele>
        <time>2019-08-08T09:55:44Z</time>
      </trkpt>
      <trkpt lat="48.56942" lon="7.62324">
        <ele>149.4</ele>
        <time>2019-08-08T09:55:45Z</time>
      </trkpt>
      <trkpt lat="48.56945" lon="7.62328">
        <ele>149.3</ele>
        <time>2019-08-08T09:55:46Z</time>
      </trkpt>
      <trkpt lat="48.56949" lon="7.62331">
        <ele>149.3</ele>
        <time>2019-08-08T09:55:47Z</time>
      </trkpt>
      <trkpt lat="48.56953" lon="7.62336">
        <ele>149.3</ele>
        <time>2019-08-08T09:55:48Z</time>
      </trkpt>
      <trkpt lat="48.56956" lon="7.62341">
        <ele>149.2</ele>
        <time>2019-08-08T09:55:49Z</time>
      </trkpt>
      <trkpt lat="48.5696" lon="7.62346">
        <ele>149.2</ele>
        <time>2019-08-08T09:55:50Z</time>
      </trkpt>
      <trkpt lat="48.56963" lon="7.62351">
        <ele>149.1</ele>
        <time>2019-08-08T09:55:51Z</time>
      </trkpt>
      <trkpt lat="48.56966" lon="7.62356">
        <ele>149.1</ele>
        <time>2019-08-08T09:55:52Z</time>
      </trkpt>
      <trkpt lat="48.5697" lon="7.62364">
        <ele>149.1</ele>
        <time>2019-08-08T09:55:53Z</time>
      </trkpt>
      <trkpt lat="48.56976" lon="7.62372">
        <ele>149.1</ele>
        <time>2019-08-08T09:55:54Z</time>
      </trkpt>
      <trkpt lat="48.56981" lon="7.62379">
        <ele>149</ele>
        <time>2019-08-08T09:55:55Z</time>
      </trkpt>
      <trkpt lat="48.56984" lon="7.62387">
        <ele>149</ele>
        <time>2019-08-08T09:55:56Z</time>
      </trkpt>
      <trkpt lat="48.56988" lon="7.62395">
        <ele>149</ele>
        <time>2019-08-08T09:55:57Z</time>
      </trkpt>
      <trkpt lat="48.56992" lon="7.62403">
        <ele>149</ele>
        <time>2019-08-08T09:55:58Z</time>
      </trkpt>
      <trkpt lat="48.56998" lon="7.62412">
        <ele>149.1</ele>
        <time>2019-08-08T09:55:59Z</time>
      </trkpt>
      <trkpt lat="48.57003" lon="7.62421">
        <ele>149.1</ele>
        <time>2019-08-08T09:56:00Z</time>
      </trkpt>
      <trkpt lat="48.57008" lon="7.62429">
        <ele>149.1</ele>
        <time>2019-08-08T09:56:01Z</time>
      </trkpt>
      <trkpt lat="48.57014" lon="7.62436">
        <ele>149.1</ele>
        <time>2019-08-08T09:56:02Z</time>
      </trkpt>
      <trkpt lat="48.57019" lon="7.62442">
        <ele>149.1</ele>
        <time>2019-08-08T09:56:03Z</time>
      </trkpt>
      <trkpt lat="48.57024" lon="7.62449">
        <ele>149.2</ele>
        <time>2019-08-08T09:56:04Z</time>
      </trkpt>
      <trkpt lat="48.57027" lon="7.62454">
        <ele>149.2</ele>
        <time>2019-08-08T09:56:05Z</time>
      </trkpt>
      <trkpt lat="48.57032" lon="7.62459">
        <ele>149.3</ele>
        <time>2019-08-08T09:56:06Z</time>
      </trkpt>
      <trkpt lat="48.57037" lon="7.62463">
        <ele>149.4</ele>
        <time>2019-08-08T09:56:07Z</time>
      </trkpt>
      <trkpt lat="48.57042" lon="7.62467">
        <ele>149.5</ele>
        <time>2019-08-08T09:56:08Z</time>
      </trkpt>
      <trkpt lat="48.57047" lon="7.62472">
        <ele>149.6</ele>
        <time>2019-08-08T09:56:09Z</time>
      </trkpt>
      <trkpt lat="48.57052" lon="7.62478">
        <ele>149.8</ele>
        <time>2019-08-08T09:56:10Z</time>
      </trkpt>
      <trkpt lat="48.57056" lon="7.62483">
        <ele>149.9</ele>
        <time>2019-08-08T09:56:11Z</time>
      </trkpt>
      <trkpt lat="48.5706" lon="7.62488">
        <ele>150</ele>
        <time>2019-08-08T09:56:12Z</time>
      </trkpt>
      <trkpt lat="48.57064" lon="7.62495">
        <ele>150.1</ele>
        <time>2019-08-08T09:56:13Z</time>
      </trkpt>
      <trkpt lat="48.57069" lon="7.625">
        <ele>150.1</ele>
        <time>2019-08-08T09:56:14Z</time>
      </trkpt>
      <trkpt lat="48.57072" lon="7.62504">
        <ele>150.2</ele>
        <time>2019-08-08T09:56:15Z</time>
      </trkpt>
      <trkpt lat="48.57076" lon="7.62507">
        <ele>150.2</ele>
        <time>2019-08-08T09:56:16Z</time>
      </trkpt>
      <trkpt lat="48.57082" lon="7.62511">
        <ele>150.3</ele>
        <time>2019-08-08T09:56:17Z</time>
      </trkpt>
      <trkpt lat="48.57086" lon="7.62515">
        <ele>150.3</ele>
        <time>2019-08-08T09:56:18Z</time>
      </trkpt>
      <trkpt lat="48.57091" lon="7.62518">
        <ele>150.3</ele>
        <time>2019-08-08T09:56:19Z</time>
      </trkpt>
      <trkpt lat="48.57097" lon="7.6252">
        <ele>150.3</ele>
        <time>2019-08-08T09:56:20Z</time>
      </trkpt>
      <trkpt lat="48.57102" lon="7.62522">
        <ele>150.3</ele>
        <time>2019-08-08T09:56:21Z</time>
      </trkpt>
      <trkpt lat="48.57109" lon="7.62525">
        <ele>150.3</ele>
        <time>2019-08-08T09:56:22Z</time>
      </trkpt>
      <trkpt lat="48.57115" lon="7.62527">
        <ele>150.3</ele>
        <time>2019-08-08T09:56:23Z</time>
      </trkpt>
      <trkpt lat="48.57121" lon="7.62529">
        <ele>150.3</ele>
        <time>2019-08-08T09:56:24Z</time>
      </trkpt>
      <trkpt lat="48.57127" lon="7.62533">
        <ele>150.4</ele>
        <time>2019-08-08T09:56:25Z</time>
      </trkpt>
      <trkpt lat="48.5713" lon="7.62538">
        <ele>150.4</ele>
        <time>2019-08-08T09:56:26Z</time>
      </trkpt>
      <trkpt lat="48.57135" lon="7.62542">
        <ele>150.5</ele>
        <time>2019-08-08T09:56:27Z</time>
      </trkpt>
      <trkpt lat="48.57139" lon="7.62546">
        <ele>150.5</ele>
        <time>2019-08-08T09:56:28Z</time>
      </trkpt>
      <trkpt lat="48.57143" lon="7.62548">
        <ele>150.6</ele>
        <time>2019-08-08T09:56:29Z</time>
      </trkpt>
      <trkpt lat="48.57148" lon="7.6255">
        <ele>150.6</ele>
        <time>2019-08-08T09:56:30Z</time>
      </trkpt>
      <trkpt lat="48.57153" lon="7.62551">
        <ele>150.7</ele>
        <time>2019-08-08T09:56:31Z</time>
      </trkpt>
      <trkpt lat="48.57159" lon="7.62554">
        <ele>150.8</ele>
        <time>2019-08-08T09:56:32Z</time>
      </trkpt>
      <trkpt lat="48.57164" lon="7.62556">
        <ele>150.9</ele>
        <time>2019-08-08T09:56:33Z</time>
      </trkpt>
      <trkpt lat="48.5717" lon="7.62557">
        <ele>150.9</ele>
        <time>2019-08-08T09:56:34Z</time>
      </trkpt>
      <trkpt lat="48.57176" lon="7.62558">
        <ele>151</ele>
        <time>2019-08-08T09:56:35Z</time>
      </trkpt>
      <trkpt lat="48.57181" lon="7.6256">
        <ele>151</ele>
        <time>2019-08-08T09:56:36Z</time>
      </trkpt>
      <trkpt lat="48.57187" lon="7.62562">
        <ele>151.1</ele>
        <time>2019-08-08T09:56:37Z</time>
      </trkpt>
      <trkpt lat="48.57191" lon="7.62565">
        <ele>151.1</ele>
        <time>2019-08-08T09:56:38Z</time>
      </trkpt>
      <trkpt lat="48.57194" lon="7.62568">
        <ele>151.2</ele>
        <time>2019-08-08T09:56:39Z</time>
      </trkpt>
      <trkpt lat="48.57199" lon="7.6257">
        <ele>151.2</ele>
        <time>2019-08-08T09:56:40Z</time>
      </trkpt>
      <trkpt lat="48.57204" lon="7.62573">
        <ele>151.2</ele>
        <time>2019-08-08T09:56:41Z</time>
      </trkpt>
      <trkpt lat="48.57209" lon="7.62576">
        <ele>151.2</ele>
        <time>2019-08-08T09:56:42Z</time>
      </trkpt>
      <trkpt lat="48.57214" lon="7.6258">
        <ele>151.2</ele>
        <time>2019-08-08T09:56:43Z</time>
      </trkpt>
      <trkpt lat="48.57219" lon="7.62583">
        <ele>151.1</ele>
        <time>2019-08-08T09:56:44Z</time>
      </trkpt>
      <trkpt lat="48.57223" lon="7.62586">
        <ele>151.1</ele>
        <time>2019-08-08T09:56:45Z</time>
      </trkpt>
      <trkpt lat="48.57229" lon="7.6259">
        <ele>151</ele>
        <time>2019-08-08T09:56:46Z</time>
      </trkpt>
      <trkpt lat="48.57234" lon="7.62592">
        <ele>150.9</ele>
        <time>2019-08-08T09:56:47Z</time>
      </trkpt>
      <trkpt lat="48.5724" lon="7.62596">
        <ele>150.7</ele>
        <time>2019-08-08T09:56:48Z</time>
      </trkpt>
      <trkpt lat="48.57246" lon="7.62598">
        <ele>150.6</ele>
        <time>2019-08-08T09:56:49Z</time>
      </trkpt>
      <trkpt lat="48.57252" lon="7.62601">
        <ele>150.5</ele>
        <time>2019-08-08T09:56:50Z</time>
      </trkpt>
      <trkpt lat="48.57257" lon="7.62605">
        <ele>150.3</ele>
        <time>2019-08-08T09:56:51Z</time>
      </trkpt>
      <trkpt lat="48.57262" lon="7.62607">
        <ele>150.2</ele>
        <time>2019-08-08T09:56:52Z</time>
      </trkpt>
      <trkpt lat="48.57267" lon="7.62609">
        <ele>150.2</ele>
        <time>2019-08-08T09:56:53Z</time>
      </trkpt>
      <trkpt lat="48.57272" lon="7.6261">
        <ele>150.1</ele>
        <time>2019-08-08T09:56:54Z</time>
      </trkpt>
      <trkpt lat="48.57278" lon="7.62612">
        <ele>150.1</ele>
        <time>2019-08-08T09:56:55Z</time>
      </trkpt>
      <trkpt lat="48.57283" lon="7.62616">
        <ele>150.1</ele>
        <time>2019-08-08T09:56:56Z</time>
      </trkpt>
      <trkpt lat="48.57289" lon="7.62619">
        <ele>150.1</ele>
        <time>2019-08-08T09:56:57Z</time>
      </trkpt>
      <trkpt lat="48.57295" lon="7.62622">
        <ele>150.1</ele>
        <time>2019-08-08T09:56:58Z</time>
      </trkpt>
      <trkpt lat="48.573" lon="7.62625">
        <ele>150.1</ele>
        <time>2019-08-08T09:56:59Z</time>
      </trkpt>
      <trkpt lat="48.57306" lon="7.62629">
        <ele>150</ele>
        <time>2019-08-08T09:57:00Z</time>
      </trkpt>
      <trkpt lat="48.57311" lon="7.62632">
        <ele>150</ele>
        <time>2019-08-08T09:57:01Z</time>
      </trkpt>
      <trkpt lat="48.57316" lon="7.62635">
        <ele>150</ele>
        <time>2019-08-08T09:57:02Z</time>
      </trkpt>
      <trkpt lat="48.57321" lon="7.62637">
        <ele>150</ele>
        <time>2019-08-08T09:57:03Z</time>
      </trkpt>
      <trkpt lat="48.57326" lon="7.6264">
        <ele>150</ele>
        <time>2019-08-08T09:57:04Z</time>
      </trkpt>
      <trkpt lat="48.57332" lon="7.62643">
        <ele>150</ele>
        <time>2019-08-08T09:57:05Z</time>
      </trkpt>
      <trkpt lat="48.57336" lon="7.62644">
        <ele>150</ele>
        <time>2019-08-08T09:57:06Z</time>
      </trkpt>
      <trkpt lat="48.57341" lon="7.62646">
        <ele>150</ele>
        <time>2019-08-08T09:57:07Z</time>
      </trkpt>
      <trkpt lat="48.57346" lon="7.62648">
        <ele>150</ele>
        <time>2019-08-08T09:57:08Z</time>
      </trkpt>
      <trkpt lat="48.57351" lon="7.62651">
        <ele>150</ele>
        <time>2019-08-08T09:57:09Z</time>
      </trkpt>
      <trkpt lat="48.57356" lon="7.62652">
        <ele>150</ele>
        <time>2019-08-08T09:57:10Z</time>
      </trkpt>
      <trkpt lat="48.5736" lon="7.62654">
        <ele>150</ele>
        <time>2019-08-08T09:57:11Z</time>
      </trkpt>
      <trkpt lat="48.57365" lon="7.62657">
        <ele>150</ele>
        <time>2019-08-08T09:57:12Z</time>
      </trkpt>
      <trkpt lat="48.57369" lon="7.62659">
        <ele>150</ele>
        <time>2019-08-08T09:57:13Z</time>
      </trkpt>
      <trkpt lat="48.57373" lon="7.62661">
        <ele>150</ele>
        <time>2019-08-08T09:57:14Z</time>
      </trkpt>
      <trkpt lat="48.57378" lon="7.62663">
        <ele>150</ele>
        <time>2019-08-08T09:57:15Z</time>
      </trkpt>
      <trkpt lat="48.57382" lon="7.62665">
        <ele>149.9</ele>
        <time>2019-08-08T09:57:16Z</time>
      </trkpt>
      <trkpt lat="48.57386" lon="7.62668">
        <ele>149.9</ele>
        <time>2019-08-08T09:57:17Z</time>
      </trkpt>
      <trkpt lat="48.57391" lon="7.6267">
        <ele>149.9</ele>
        <time>2019-08-08T09:57:18Z</time>
      </trkpt>
      <trkpt lat="48.57396" lon="7.62672">
        <ele>149.8</ele>
        <time>2019-08-08T09:57:19Z</time>
      </trkpt>
      <trkpt lat="48.57401" lon="7.62674">
        <ele>149.7</ele>
        <time>2019-08-08T09:57:20Z</time>
      </trkpt>
      <trkpt lat="48.57406" lon="7.62677">
        <ele>149.6</ele>
        <time>2019-08-08T09:57:21Z</time>
      </trkpt>
      <trkpt lat="48.57411" lon="7.6268">
        <ele>149.5</ele>
        <time>2019-08-08T09:57:22Z</time>
      </trkpt>
      <trkpt lat="48.57417" lon="7.62683">
        <ele>149.4</ele>
        <time>2019-08-08T09:57:23Z</time>
      </trkpt>
      <trkpt lat="48.57422" lon="7.62685">
        <ele>149.3</ele>
        <time>2019-08-08T09:57:24Z</time>
      </trkpt>
      <trkpt lat="48.57427" lon="7.62688">
        <ele>149.2</ele>
        <time>2019-08-08T09:57:25Z</time>
      </trkpt>
      <trkpt lat="48.57433" lon="7.6269">
        <ele>149.1</ele>
        <time>2019-08-08T09:57:26Z</time>
      </trkpt>
      <trkpt lat="48.57439" lon="7.62692">
        <ele>149.1</ele>
        <time>2019-08-08T09:57:27Z</time>
      </trkpt>
      <trkpt lat="48.57444" lon="7.62694">
        <ele>149.1</ele>
        <time>2019-08-08T09:57:28Z</time>
      </trkpt>
      <trkpt lat="48.57449" lon="7.62696">
        <ele>149.1</ele>
        <time>2019-08-08T09:57:29Z</time>
      </trkpt>
      <trkpt lat="48.57454" lon="7.62697">
        <ele>149.1</ele>
        <time>2019-08-08T09:57:30Z</time>
      </trkpt>
      <trkpt lat="48.5746" lon="7.62699">
        <ele>149.1</ele>
        <time>2019-08-08T09:57:31Z</time>
      </trkpt>
      <trkpt lat="48.57465" lon="7.62701">
        <ele>149.1</ele>
        <time>2019-08-08T09:57:32Z</time>
      </trkpt>
      <trkpt lat="48.57469" lon="7.62703">
        <ele>149</ele>
        <time>2019-08-08T09:57:33Z</time>
      </trkpt>
      <trkpt lat="48.57473" lon="7.62705">
        <ele>149</ele>
        <time>2019-08-08T09:57:34Z</time>
      </trkpt>
      <trkpt lat="48.57477" lon="7.62709">
        <ele>149</ele>
        <time>2019-08-08T09:57:35Z</time>
      </trkpt>
      <trkpt lat="48.5748" lon="7.62714">
        <ele>149</ele>
        <time>2019-08-08T09:57:36Z</time>
      </trkpt>
      <trkpt lat="48.57484" lon="7.62718">
        <ele>149</ele>
        <time>2019-08-08T09:57:37Z</time>
      </trkpt>
      <trkpt lat="48.57488" lon="7.62722">
        <ele>149</ele>
        <time>2019-08-08T09:57:38Z</time>
      </trkpt>
      <trkpt lat="48.57491" lon="7.62726">
        <ele>149</ele>
        <time>2019-08-08T09:57:39Z</time>
      </trkpt>
      <trkpt lat="48.57495" lon="7.62731">
        <ele>149</ele>
        <time>2019-08-08T09:57:40Z</time>
      </trkpt>
      <trkpt lat="48.57499" lon="7.62736">
        <ele>149</ele>
        <time>2019-08-08T09:57:41Z</time>
      </trkpt>
      <trkpt lat="48.57502" lon="7.62742">
        <ele>149</ele>
        <time>2019-08-08T09:57:42Z</time>
      </trkpt>
      <trkpt lat="48.57506" lon="7.62748">
        <ele>149</ele>
        <time>2019-08-08T09:57:43Z</time>
      </trkpt>
      <trkpt lat="48.5751" lon="7.62753">
        <ele>149</ele>
        <time>2019-08-08T09:57:44Z</time>
      </trkpt>
      <trkpt lat="48.57513" lon="7.62759">
        <ele>148.9</ele>
        <time>2019-08-08T09:57:45Z</time>
      </trkpt>
      <trkpt lat="48.57516" lon="7.62767">
        <ele>148.9</ele>
        <time>2019-08-08T09:57:46Z</time>
      </trkpt>
      <trkpt lat="48.57519" lon="7.62775">
        <ele>148.8</ele>
        <time>2019-08-08T09:57:47Z</time>
      </trkpt>
      <trkpt lat="48.57522" lon="7.62782">
        <ele>148.7</ele>
        <time>2019-08-08T09:57:48Z</time>
      </trkpt>
      <trkpt lat="48.57526" lon="7.62788">
        <ele>148.6</ele>
        <time>2019-08-08T09:57:49Z</time>
      </trkpt>
      <trkpt lat="48.57529" lon="7.62797">
        <ele>148.4</ele>
        <time>2019-08-08T09:57:50Z</time>
      </trkpt>
      <trkpt lat="48.57533" lon="7.62803">
        <ele>148.3</ele>
        <time>2019-08-08T09:57:51Z</time>
      </trkpt>
      <trkpt lat="48.57537" lon="7.62809">
        <ele>148.1</ele>
        <time>2019-08-08T09:57:52Z</time>
      </trkpt>
      <trkpt lat="48.57541" lon="7.62815">
        <ele>148.1</ele>
        <time>2019-08-08T09:57:53Z</time>
      </trkpt>
      <trkpt lat="48.57544" lon="7.62821">
        <ele>148</ele>
        <time>2019-08-08T09:57:54Z</time>
      </trkpt>
      <trkpt lat="48.57549" lon="7.62825">
        <ele>147.9</ele>
        <time>2019-08-08T09:57:55Z</time>
      </trkpt>
      <trkpt lat="48.57553" lon="7.62829">
        <ele>147.9</ele>
        <time>2019-08-08T09:57:56Z</time>
      </trkpt>
      <trkpt lat="48.57557" lon="7.62832">
        <ele>147.9</ele>
        <time>2019-08-08T09:57:57Z</time>
      </trkpt>
      <trkpt lat="48.57561" lon="7.62836">
        <ele>147.9</ele>
        <time>2019-08-08T09:57:58Z</time>
      </trkpt>
      <trkpt lat="48.57565" lon="7.62839">
        <ele>147.9</ele>
        <time>2019-08-08T09:57:59Z</time>
      </trkpt>
      <trkpt lat="48.57571" lon="7.62842">
        <ele>147.9</ele>
        <time>2019-08-08T09:58:00Z</time>
      </trkpt>
      <trkpt lat="48.57575" lon="7.62846">
        <ele>147.9</ele>
        <time>2019-08-08T09:58:01Z</time>
      </trkpt>
      <trkpt lat="48.5758" lon="7.6285">
        <ele>147.9</ele>
        <time>2019-08-08T09:58:02Z</time>
      </trkpt>
      <trkpt lat="48.57585" lon="7.62855">
        <ele>147.9</ele>
        <time>2019-08-08T09:58:03Z</time>
      </trkpt>
      <trkpt lat="48.57591" lon="7.6286">
        <ele>147.9</ele>
        <time>2019-08-08T09:58:04Z</time>
      </trkpt>
      <trkpt lat="48.57595" lon="7.62865">
        <ele>147.9</ele>
        <time>2019-08-08T09:58:05Z</time>
      </trkpt>
      <trkpt lat="48.576" lon="7.6287">
        <ele>147.9</ele>
        <time>2019-08-08T09:58:06Z</time>
      </trkpt>
      <trkpt lat="48.57604" lon="7.62874">
        <ele>147.9</ele>
        <time>2019-08-08T09:58:07Z</time>
      </trkpt>
      <trkpt lat="48.57607" lon="7.62876">
        <ele>147.9</ele>
        <time>2019-08-08T09:58:08Z</time>
      </trkpt>
      <trkpt lat="48.57612" lon="7.62878">
        <ele>147.8</ele>
        <time>2019-08-08T09:58:10Z</time>
      </trkpt>
      <trkpt lat="48.57616" lon="7.62879">
        <ele>147.8</ele>
        <time>2019-08-08T09:58:12Z</time>
      </trkpt>
      <trkpt lat="48.57619" lon="7.62882">
        <ele>147.8</ele>
        <time>2019-08-08T09:58:14Z</time>
      </trkpt>
      <trkpt lat="48.57623" lon="7.62883">
        <ele>147.8</ele>
        <time>2019-08-08T09:58:16Z</time>
      </trkpt>
      <trkpt lat="48.57627" lon="7.62885">
        <ele>147.6</ele>
        <time>2019-08-08T09:58:17Z</time>
      </trkpt>
      <trkpt lat="48.57631" lon="7.62887">
        <ele>147.5</ele>
        <time>2019-08-08T09:58:18Z</time>
      </trkpt>
      <trkpt lat="48.57635" lon="7.62889">
        <ele>147.4</ele>
        <time>2019-08-08T09:58:19Z</time>
      </trkpt>
      <trkpt lat="48.57639" lon="7.62892">
        <ele>147.2</ele>
        <time>2019-08-08T09:58:20Z</time>
      </trkpt>
      <trkpt lat="48.57642" lon="7.62896">
        <ele>147.2</ele>
        <time>2019-08-08T09:58:21Z</time>
      </trkpt>
      <trkpt lat="48.57646" lon="7.62899">
        <ele>147.1</ele>
        <time>2019-08-08T09:58:22Z</time>
      </trkpt>
      <trkpt lat="48.5765" lon="7.62902">
        <ele>147</ele>
        <time>2019-08-08T09:58:23Z</time>
      </trkpt>
      <trkpt lat="48.57654" lon="7.62906">
        <ele>147</ele>
        <time>2019-08-08T09:58:24Z</time>
      </trkpt>
      <trkpt lat="48.57657" lon="7.6291">
        <ele>147</ele>
        <time>2019-08-08T09:58:25Z</time>
      </trkpt>
      <trkpt lat="48.57661" lon="7.62913">
        <ele>146.9</ele>
        <time>2019-08-08T09:58:26Z</time>
      </trkpt>
      <trkpt lat="48.57666" lon="7.62917">
        <ele>146.9</ele>
        <time>2019-08-08T09:58:27Z</time>
      </trkpt>
      <trkpt lat="48.57671" lon="7.6292">
        <ele>146.9</ele>
        <time>2019-08-08T09:58:28Z</time>
      </trkpt>
      <trkpt lat="48.57675" lon="7.62925">
        <ele>146.9</ele>
        <time>2019-08-08T09:58:29Z</time>
      </trkpt>
      <trkpt lat="48.57679" lon="7.62929">
        <ele>146.9</ele>
        <time>2019-08-08T09:58:30Z</time>
      </trkpt>
      <trkpt lat="48.57684" lon="7.62933">
        <ele>146.9</ele>
        <time>2019-08-08T09:58:31Z</time>
      </trkpt>
      <trkpt lat="48.57688" lon="7.62936">
        <ele>146.9</ele>
        <time>2019-08-08T09:58:32Z</time>
      </trkpt>
      <trkpt lat="48.57692" lon="7.62939">
        <ele>146.9</ele>
        <time>2019-08-08T09:58:33Z</time>
      </trkpt>
      <trkpt lat="48.57694" lon="7.62942">
        <ele>146.9</ele>
        <time>2019-08-08T09:58:34Z</time>
      </trkpt>
      <trkpt lat="48.57696" lon="7.62945">
        <ele>146.9</ele>
        <time>2019-08-08T09:58:35Z</time>
      </trkpt>
      <trkpt lat="48.57701" lon="7.62948">
        <ele>146.9</ele>
        <time>2019-08-08T09:58:37Z</time>
      </trkpt>
      <trkpt lat="48.57704" lon="7.6295">
        <ele>146.9</ele>
        <time>2019-08-08T09:58:38Z</time>
      </trkpt>
      <trkpt lat="48.57707" lon="7.62953">
        <ele>146.9</ele>
        <time>2019-08-08T09:58:39Z</time>
      </trkpt>
      <trkpt lat="48.5771" lon="7.62956">
        <ele>146.9</ele>
        <time>2019-08-08T09:58:40Z</time>
      </trkpt>
      <trkpt lat="48.57714" lon="7.62959">
        <ele>146.9</ele>
        <time>2019-08-08T09:58:41Z</time>
      </trkpt>
      <trkpt lat="48.57716" lon="7.62963">
        <ele>146.9</ele>
        <time>2019-08-08T09:58:42Z</time>
      </trkpt>
      <trkpt lat="48.5772" lon="7.62967">
        <ele>146.9</ele>
        <time>2019-08-08T09:58:43Z</time>
      </trkpt>
      <trkpt lat="48.57725" lon="7.62975">
        <ele>146.9</ele>
        <time>2019-08-08T09:58:44Z</time>
      </trkpt>
      <trkpt lat="48.5773" lon="7.62981">
        <ele>146.9</ele>
        <time>2019-08-08T09:58:45Z</time>
      </trkpt>
      <trkpt lat="48.57733" lon="7.62985">
        <ele>146.9</ele>
        <time>2019-08-08T09:58:46Z</time>
      </trkpt>
      <trkpt lat="48.57736" lon="7.62988">
        <ele>146.9</ele>
        <time>2019-08-08T09:58:47Z</time>
      </trkpt>
      <trkpt lat="48.57739" lon="7.62991">
        <ele>146.9</ele>
        <time>2019-08-08T09:58:48Z</time>
      </trkpt>
      <trkpt lat="48.57742" lon="7.62994">
        <ele>146.9</ele>
        <time>2019-08-08T09:58:49Z</time>
      </trkpt>
      <trkpt lat="48.57745" lon="7.62997">
        <ele>146.9</ele>
        <time>2019-08-08T09:58:50Z</time>
      </trkpt>
      <trkpt lat="48.57748" lon="7.63001">
        <ele>146.9</ele>
        <time>2019-08-08T09:58:51Z</time>
      </trkpt>
      <trkpt lat="48.57753" lon="7.63005">
        <ele>146.9</ele>
        <time>2019-08-08T09:58:52Z</time>
      </trkpt>
      <trkpt lat="48.57757" lon="7.63008">
        <ele>146.9</ele>
        <time>2019-08-08T09:58:53Z</time>
      </trkpt>
      <trkpt lat="48.5776" lon="7.63012">
        <ele>146.9</ele>
        <time>2019-08-08T09:58:54Z</time>
      </trkpt>
      <trkpt lat="48.57764" lon="7.63015">
        <ele>146.9</ele>
        <time>2019-08-08T09:58:55Z</time>
      </trkpt>
      <trkpt lat="48.57768" lon="7.63018">
        <ele>146.9</ele>
        <time>2019-08-08T09:58:56Z</time>
      </trkpt>
      <trkpt lat="48.57772" lon="7.63021">
        <ele>146.9</ele>
        <time>2019-08-08T09:58:57Z</time>
      </trkpt>
      <trkpt lat="48.57775" lon="7.63024">
        <ele>146.9</ele>
        <time>2019-08-08T09:58:58Z</time>
      </trkpt>
      <trkpt lat="48.57778" lon="7.63028">
        <ele>147</ele>
        <time>2019-08-08T09:58:59Z</time>
      </trkpt>
      <trkpt lat="48.57781" lon="7.63031">
        <ele>147</ele>
        <time>2019-08-08T09:59:00Z</time>
      </trkpt>
      <trkpt lat="48.57785" lon="7.63034">
        <ele>147</ele>
        <time>2019-08-08T09:59:01Z</time>
      </trkpt>
      <trkpt lat="48.57789" lon="7.63038">
        <ele>147</ele>
        <time>2019-08-08T09:59:02Z</time>
      </trkpt>
      <trkpt lat="48.57793" lon="7.63042">
        <ele>147</ele>
        <time>2019-08-08T09:59:03Z</time>
      </trkpt>
      <trkpt lat="48.57799" lon="7.63049">
        <ele>147</ele>
        <time>2019-08-08T09:59:04Z</time>
      </trkpt>
      <trkpt lat="48.57803" lon="7.63056">
        <ele>147</ele>
        <time>2019-08-08T09:59:05Z</time>
      </trkpt>
      <trkpt lat="48.57808" lon="7.63063">
        <ele>147</ele>
        <time>2019-08-08T09:59:06Z</time>
      </trkpt>
      <trkpt lat="48.57814" lon="7.63068">
        <ele>147</ele>
        <time>2019-08-08T09:59:07Z</time>
      </trkpt>
      <trkpt lat="48.57819" lon="7.63073">
        <ele>147</ele>
        <time>2019-08-08T09:59:08Z</time>
      </trkpt>
      <trkpt lat="48.57826" lon="7.63081">
        <ele>147</ele>
        <time>2019-08-08T09:59:09Z</time>
      </trkpt>
      <trkpt lat="48.57831" lon="7.63086">
        <ele>147</ele>
        <time>2019-08-08T09:59:10Z</time>
      </trkpt>
      <trkpt lat="48.57834" lon="7.6309">
        <ele>147</ele>
        <time>2019-08-08T09:59:11Z</time>
      </trkpt>
      <trkpt lat="48.57837" lon="7.63093">
        <ele>147</ele>
        <time>2019-08-08T09:59:12Z</time>
      </trkpt>
      <trkpt lat="48.57841" lon="7.63096">
        <ele>147</ele>
        <time>2019-08-08T09:59:13Z</time>
      </trkpt>
      <trkpt lat="48.57845" lon="7.631">
        <ele>147</ele>
        <time>2019-08-08T09:59:14Z</time>
      </trkpt>
      <trkpt lat="48.57849" lon="7.63104">
        <ele>147</ele>
        <time>2019-08-08T09:59:15Z</time>
      </trkpt>
      <trkpt lat="48.57854" lon="7.63108">
        <ele>147</ele>
        <time>2019-08-08T09:59:16Z</time>
      </trkpt>
      <trkpt lat="48.5786" lon="7.63115">
        <ele>147</ele>
        <time>2019-08-08T09:59:17Z</time>
      </trkpt>
      <trkpt lat="48.57865" lon="7.6312">
        <ele>147</ele>
        <time>2019-08-08T09:59:18Z</time>
      </trkpt>
      <trkpt lat="48.57871" lon="7.63126">
        <ele>147</ele>
        <time>2019-08-08T09:59:19Z</time>
      </trkpt>
      <trkpt lat="48.57876" lon="7.63131">
        <ele>147</ele>
        <time>2019-08-08T09:59:20Z</time>
      </trkpt>
      <trkpt lat="48.57881" lon="7.63137">
        <ele>146.9</ele>
        <time>2019-08-08T09:59:21Z</time>
      </trkpt>
      <trkpt lat="48.57886" lon="7.63143">
        <ele>146.9</ele>
        <time>2019-08-08T09:59:22Z</time>
      </trkpt>
      <trkpt lat="48.5789" lon="7.63149">
        <ele>146.9</ele>
        <time>2019-08-08T09:59:23Z</time>
      </trkpt>
      <trkpt lat="48.57894" lon="7.63154">
        <ele>146.9</ele>
        <time>2019-08-08T09:59:24Z</time>
      </trkpt>
      <trkpt lat="48.57898" lon="7.6316">
        <ele>146.8</ele>
        <time>2019-08-08T09:59:25Z</time>
      </trkpt>
      <trkpt lat="48.57902" lon="7.63165">
        <ele>146.7</ele>
        <time>2019-08-08T09:59:26Z</time>
      </trkpt>
      <trkpt lat="48.57906" lon="7.63171">
        <ele>146.6</ele>
        <time>2019-08-08T09:59:27Z</time>
      </trkpt>
      <trkpt lat="48.57911" lon="7.63176">
        <ele>146.5</ele>
        <time>2019-08-08T09:59:28Z</time>
      </trkpt>
      <trkpt lat="48.57915" lon="7.63182">
        <ele>146.3</ele>
        <time>2019-08-08T09:59:29Z</time>
      </trkpt>
      <trkpt lat="48.57918" lon="7.63188">
        <ele>146.2</ele>
        <time>2019-08-08T09:59:30Z</time>
      </trkpt>
      <trkpt lat="48.57922" lon="7.63193">
        <ele>146.1</ele>
        <time>2019-08-08T09:59:31Z</time>
      </trkpt>
      <trkpt lat="48.57927" lon="7.63197">
        <ele>146</ele>
        <time>2019-08-08T09:59:32Z</time>
      </trkpt>
      <trkpt lat="48.57932" lon="7.63199">
        <ele>146</ele>
        <time>2019-08-08T09:59:33Z</time>
      </trkpt>
      <trkpt lat="48.57936" lon="7.63202">
        <ele>145.9</ele>
        <time>2019-08-08T09:59:34Z</time>
      </trkpt>
      <trkpt lat="48.5794" lon="7.63206">
        <ele>145.9</ele>
        <time>2019-08-08T09:59:35Z</time>
      </trkpt>
      <trkpt lat="48.57944" lon="7.63209">
        <ele>146</ele>
        <time>2019-08-08T09:59:36Z</time>
      </trkpt>
      <trkpt lat="48.57949" lon="7.63212">
        <ele>146</ele>
        <time>2019-08-08T09:59:37Z</time>
      </trkpt>
      <trkpt lat="48.57955" lon="7.63215">
        <ele>146.1</ele>
        <time>2019-08-08T09:59:38Z</time>
      </trkpt>
      <trkpt lat="48.57961" lon="7.6322">
        <ele>146.3</ele>
        <time>2019-08-08T09:59:39Z</time>
      </trkpt>
      <trkpt lat="48.57967" lon="7.63224">
        <ele>146.5</ele>
        <time>2019-08-08T09:59:40Z</time>
      </trkpt>
      <trkpt lat="48.57973" lon="7.6323">
        <ele>146.6</ele>
        <time>2019-08-08T09:59:41Z</time>
      </trkpt>
      <trkpt lat="48.57978" lon="7.63233">
        <ele>146.8</ele>
        <time>2019-08-08T09:59:42Z</time>
      </trkpt>
      <trkpt lat="48.57982" lon="7.63237">
        <ele>146.9</ele>
        <time>2019-08-08T09:59:43Z</time>
      </trkpt>
      <trkpt lat="48.57987" lon="7.63241">
        <ele>147</ele>
        <time>2019-08-08T09:59:44Z</time>
      </trkpt>
      <trkpt lat="48.57991" lon="7.63244">
        <ele>147</ele>
        <time>2019-08-08T09:59:45Z</time>
      </trkpt>
      <trkpt lat="48.57995" lon="7.63248">
        <ele>147</ele>
        <time>2019-08-08T09:59:46Z</time>
      </trkpt>
      <trkpt lat="48.57999" lon="7.63252">
        <ele>147</ele>
        <time>2019-08-08T09:59:47Z</time>
      </trkpt>
      <trkpt lat="48.58003" lon="7.63257">
        <ele>147</ele>
        <time>2019-08-08T09:59:48Z</time>
      </trkpt>
      <trkpt lat="48.58007" lon="7.63263">
        <ele>147</ele>
        <time>2019-08-08T09:59:49Z</time>
      </trkpt>
      <trkpt lat="48.58012" lon="7.63267">
        <ele>147</ele>
        <time>2019-08-08T09:59:50Z</time>
      </trkpt>
      <trkpt lat="48.58016" lon="7.63272">
        <ele>147</ele>
        <time>2019-08-08T09:59:51Z</time>
      </trkpt>
      <trkpt lat="48.58021" lon="7.63277">
        <ele>147</ele>
        <time>2019-08-08T09:59:52Z</time>
      </trkpt>
      <trkpt lat="48.58025" lon="7.63281">
        <ele>147</ele>
        <time>2019-08-08T09:59:53Z</time>
      </trkpt>
      <trkpt lat="48.5803" lon="7.63286">
        <ele>147</ele>
        <time>2019-08-08T09:59:54Z</time>
      </trkpt>
      <trkpt lat="48.58034" lon="7.63291">
        <ele>147</ele>
        <time>2019-08-08T09:59:55Z</time>
      </trkpt>
      <trkpt lat="48.58038" lon="7.63295">
        <ele>147</ele>
        <time>2019-08-08T09:59:56Z</time>
      </trkpt>
      <trkpt lat="48.58042" lon="7.63299">
        <ele>147</ele>
        <time>2019-08-08T09:59:57Z</time>
      </trkpt>
      <trkpt lat="48.58045" lon="7.63304">
        <ele>147</ele>
        <time>2019-08-08T09:59:58Z</time>
      </trkpt>
      <trkpt lat="48.58049" lon="7.63309">
        <ele>147</ele>
        <time>2019-08-08T09:59:59Z</time>
      </trkpt>
      <trkpt lat="48.58053" lon="7.63315">
        <ele>147</ele>
        <time>2019-08-08T10:00:00Z</time>
      </trkpt>
      <trkpt lat="48.58057" lon="7.6332">
        <ele>147</ele>
        <time>2019-08-08T10:00:01Z</time>
      </trkpt>
      <trkpt lat="48.58062" lon="7.63326">
        <ele>147</ele>
        <time>2019-08-08T10:00:02Z</time>
      </trkpt>
      <trkpt lat="48.58066" lon="7.6333">
        <ele>147</ele>
        <time>2019-08-08T10:00:03Z</time>
      </trkpt>
      <trkpt lat="48.5807" lon="7.63336">
        <ele>147</ele>
        <time>2019-08-08T10:00:04Z</time>
      </trkpt>
      <trkpt lat="48.58074" lon="7.63342">
        <ele>147</ele>
        <time>2019-08-08T10:00:05Z</time>
      </trkpt>
      <trkpt lat="48.58078" lon="7.63347">
        <ele>147</ele>
        <time>2019-08-08T10:00:06Z</time>
      </trkpt>
      <trkpt lat="48.58081" lon="7.63352">
        <ele>147</ele>
        <time>2019-08-08T10:00:07Z</time>
      </trkpt>
      <trkpt lat="48.58083" lon="7.63358">
        <ele>147</ele>
        <time>2019-08-08T10:00:08Z</time>
      </trkpt>
      <trkpt lat="48.58082" lon="7.63367">
        <ele>147</ele>
        <time>2019-08-08T10:00:09Z</time>
      </trkpt>
      <trkpt lat="48.58081" lon="7.63375">
        <ele>147</ele>
        <time>2019-08-08T10:00:10Z</time>
      </trkpt>
      <trkpt lat="48.5808" lon="7.63382">
        <ele>147</ele>
        <time>2019-08-08T10:00:11Z</time>
      </trkpt>
      <trkpt lat="48.58077" lon="7.63389">
        <ele>147</ele>
        <time>2019-08-08T10:00:12Z</time>
      </trkpt>
      <trkpt lat="48.58073" lon="7.63396">
        <ele>147</ele>
        <time>2019-08-08T10:00:13Z</time>
      </trkpt>
      <trkpt lat="48.5807" lon="7.63403">
        <ele>147</ele>
        <time>2019-08-08T10:00:14Z</time>
      </trkpt>
      <trkpt lat="48.58068" lon="7.6341">
        <ele>147</ele>
        <time>2019-08-08T10:00:15Z</time>
      </trkpt>
      <trkpt lat="48.58064" lon="7.63416">
        <ele>147</ele>
        <time>2019-08-08T10:00:16Z</time>
      </trkpt>
      <trkpt lat="48.58062" lon="7.63421">
        <ele>147</ele>
        <time>2019-08-08T10:00:17Z</time>
      </trkpt>
      <trkpt lat="48.58059" lon="7.63426">
        <ele>147</ele>
        <time>2019-08-08T10:00:18Z</time>
      </trkpt>
      <trkpt lat="48.58056" lon="7.63431">
        <ele>147</ele>
        <time>2019-08-08T10:00:19Z</time>
      </trkpt>
      <trkpt lat="48.58052" lon="7.63436">
        <ele>147</ele>
        <time>2019-08-08T10:00:20Z</time>
      </trkpt>
      <trkpt lat="48.58048" lon="7.63441">
        <ele>147</ele>
        <time>2019-08-08T10:00:21Z</time>
      </trkpt>
      <trkpt lat="48.58045" lon="7.63446">
        <ele>147</ele>
        <time>2019-08-08T10:00:22Z</time>
      </trkpt>
      <trkpt lat="48.58041" lon="7.63451">
        <ele>147</ele>
        <time>2019-08-08T10:00:23Z</time>
      </trkpt>
      <trkpt lat="48.58037" lon="7.63456">
        <ele>147</ele>
        <time>2019-08-08T10:00:24Z</time>
      </trkpt>
      <trkpt lat="48.58034" lon="7.63461">
        <ele>147</ele>
        <time>2019-08-08T10:00:25Z</time>
      </trkpt>
      <trkpt lat="48.5803" lon="7.63465">
        <ele>147</ele>
        <time>2019-08-08T10:00:26Z</time>
      </trkpt>
      <trkpt lat="48.58027" lon="7.6347">
        <ele>147</ele>
        <time>2019-08-08T10:00:27Z</time>
      </trkpt>
      <trkpt lat="48.58025" lon="7.63475">
        <ele>147</ele>
        <time>2019-08-08T10:00:28Z</time>
      </trkpt>
      <trkpt lat="48.58024" lon="7.6348">
        <ele>147</ele>
        <time>2019-08-08T10:00:29Z</time>
      </trkpt>
      <trkpt lat="48.58024" lon="7.63484">
        <ele>147</ele>
        <time>2019-08-08T10:00:30Z</time>
      </trkpt>
      <trkpt lat="48.58022" lon="7.63489">
        <ele>147</ele>
        <time>2019-08-08T10:00:31Z</time>
      </trkpt>
      <trkpt lat="48.5802" lon="7.63496">
        <ele>147</ele>
        <time>2019-08-08T10:00:32Z</time>
      </trkpt>
      <trkpt lat="48.58018" lon="7.63503">
        <ele>147</ele>
        <time>2019-08-08T10:00:33Z</time>
      </trkpt>
      <trkpt lat="48.58016" lon="7.63509">
        <ele>147</ele>
        <time>2019-08-08T10:00:34Z</time>
      </trkpt>
      <trkpt lat="48.58016" lon="7.63517">
        <ele>147</ele>
        <time>2019-08-08T10:00:35Z</time>
      </trkpt>
      <trkpt lat="48.58016" lon="7.63524">
        <ele>147</ele>
        <time>2019-08-08T10:00:36Z</time>
      </trkpt>
      <trkpt lat="48.58016" lon="7.63531">
        <ele>147</ele>
        <time>2019-08-08T10:00:37Z</time>
      </trkpt>
      <trkpt lat="48.58015" lon="7.63539">
        <ele>147</ele>
        <time>2019-08-08T10:00:38Z</time>
      </trkpt>
      <trkpt lat="48.58015" lon="7.63549">
        <ele>147</ele>
        <time>2019-08-08T10:00:39Z</time>
      </trkpt>
      <trkpt lat="48.58016" lon="7.63562">
        <ele>147</ele>
        <time>2019-08-08T10:00:40Z</time>
      </trkpt>
      <trkpt lat="48.58016" lon="7.63576">
        <ele>147</ele>
        <time>2019-08-08T10:00:41Z</time>
      </trkpt>
      <trkpt lat="48.58017" lon="7.63589">
        <ele>147</ele>
        <time>2019-08-08T10:00:42Z</time>
      </trkpt>
      <trkpt lat="48.58018" lon="7.636">
        <ele>147</ele>
        <time>2019-08-08T10:00:43Z</time>
      </trkpt>
      <trkpt lat="48.58018" lon="7.6361">
        <ele>147</ele>
        <time>2019-08-08T10:00:44Z</time>
      </trkpt>
      <trkpt lat="48.58019" lon="7.63619">
        <ele>147</ele>
        <time>2019-08-08T10:00:45Z</time>
      </trkpt>
      <trkpt lat="48.5802" lon="7.63628">
        <ele>147</ele>
        <time>2019-08-08T10:00:46Z</time>
      </trkpt>
      <trkpt lat="48.58021" lon="7.63636">
        <ele>147</ele>
        <time>2019-08-08T10:00:47Z</time>
      </trkpt>
      <trkpt lat="48.58022" lon="7.63643">
        <ele>147</ele>
        <time>2019-08-08T10:00:48Z</time>
      </trkpt>
      <trkpt lat="48.58023" lon="7.6365">
        <ele>147</ele>
        <time>2019-08-08T10:00:49Z</time>
      </trkpt>
      <trkpt lat="48.58024" lon="7.63655">
        <ele>147</ele>
        <time>2019-08-08T10:00:50Z</time>
      </trkpt>
      <trkpt lat="48.58023" lon="7.6366">
        <ele>147</ele>
        <time>2019-08-08T10:00:51Z</time>
      </trkpt>
      <trkpt lat="48.58025" lon="7.63667">
        <ele>147</ele>
        <time>2019-08-08T10:00:52Z</time>
      </trkpt>
      <trkpt lat="48.58025" lon="7.63674">
        <ele>147</ele>
        <time>2019-08-08T10:00:53Z</time>
      </trkpt>
      <trkpt lat="48.58026" lon="7.63681">
        <ele>147</ele>
        <time>2019-08-08T10:00:54Z</time>
      </trkpt>
      <trkpt lat="48.58027" lon="7.63689">
        <ele>147</ele>
        <time>2019-08-08T10:00:55Z</time>
      </trkpt>
      <trkpt lat="48.58026" lon="7.63696">
        <ele>147</ele>
        <time>2019-08-08T10:00:56Z</time>
      </trkpt>
      <trkpt lat="48.58025" lon="7.63703">
        <ele>147</ele>
        <time>2019-08-08T10:00:57Z</time>
      </trkpt>
      <trkpt lat="48.58024" lon="7.63716">
        <ele>147</ele>
        <time>2019-08-08T10:00:58Z</time>
      </trkpt>
      <trkpt lat="48.58023" lon="7.63726">
        <ele>147</ele>
        <time>2019-08-08T10:00:59Z</time>
      </trkpt>
      <trkpt lat="48.58021" lon="7.63735">
        <ele>147</ele>
        <time>2019-08-08T10:01:00Z</time>
      </trkpt>
      <trkpt lat="48.58021" lon="7.63746">
        <ele>147</ele>
        <time>2019-08-08T10:01:01Z</time>
      </trkpt>
      <trkpt lat="48.5802" lon="7.63755">
        <ele>147</ele>
        <time>2019-08-08T10:01:02Z</time>
      </trkpt>
      <trkpt lat="48.58019" lon="7.63765">
        <ele>147</ele>
        <time>2019-08-08T10:01:03Z</time>
      </trkpt>
      <trkpt lat="48.58019" lon="7.63774">
        <ele>147</ele>
        <time>2019-08-08T10:01:04Z</time>
      </trkpt>
      <trkpt lat="48.58018" lon="7.63782">
        <ele>147</ele>
        <time>2019-08-08T10:01:05Z</time>
      </trkpt>
      <trkpt lat="48.58019" lon="7.6379">
        <ele>147</ele>
        <time>2019-08-08T10:01:06Z</time>
      </trkpt>
      <trkpt lat="48.58021" lon="7.63796">
        <ele>147</ele>
        <time>2019-08-08T10:01:07Z</time>
      </trkpt>
      <trkpt lat="48.58022" lon="7.63801">
        <ele>147</ele>
        <time>2019-08-08T10:01:08Z</time>
      </trkpt>
      <trkpt lat="48.58023" lon="7.63807">
        <ele>147</ele>
        <time>2019-08-08T10:01:09Z</time>
      </trkpt>
      <trkpt lat="48.58021" lon="7.63813">
        <ele>147</ele>
        <time>2019-08-08T10:01:10Z</time>
      </trkpt>
      <trkpt lat="48.58023" lon="7.63819">
        <ele>147</ele>
        <time>2019-08-08T10:01:11Z</time>
      </trkpt>
      <trkpt lat="48.58022" lon="7.63827">
        <ele>147</ele>
        <time>2019-08-08T10:01:12Z</time>
      </trkpt>
      <trkpt lat="48.58023" lon="7.63835">
        <ele>147</ele>
        <time>2019-08-08T10:01:13Z</time>
      </trkpt>
      <trkpt lat="48.58023" lon="7.63843">
        <ele>147</ele>
        <time>2019-08-08T10:01:14Z</time>
      </trkpt>
      <trkpt lat="48.58024" lon="7.63854">
        <ele>147</ele>
        <time>2019-08-08T10:01:15Z</time>
      </trkpt>
      <trkpt lat="48.58025" lon="7.63864">
        <ele>147</ele>
        <time>2019-08-08T10:01:16Z</time>
      </trkpt>
      <trkpt lat="48.58025" lon="7.63871">
        <ele>147</ele>
        <time>2019-08-08T10:01:17Z</time>
      </trkpt>
      <trkpt lat="48.58026" lon="7.63878">
        <ele>147</ele>
        <time>2019-08-08T10:01:18Z</time>
      </trkpt>
      <trkpt lat="48.58026" lon="7.63885">
        <ele>147</ele>
        <time>2019-08-08T10:01:19Z</time>
      </trkpt>
      <trkpt lat="48.58026" lon="7.63892">
        <ele>147</ele>
        <time>2019-08-08T10:01:20Z</time>
      </trkpt>
      <trkpt lat="48.58027" lon="7.63899">
        <ele>147</ele>
        <time>2019-08-08T10:01:21Z</time>
      </trkpt>
      <trkpt lat="48.58028" lon="7.63907">
        <ele>147</ele>
        <time>2019-08-08T10:01:22Z</time>
      </trkpt>
      <trkpt lat="48.58029" lon="7.63917">
        <ele>147</ele>
        <time>2019-08-08T10:01:23Z</time>
      </trkpt>
      <trkpt lat="48.58029" lon="7.63926">
        <ele>147</ele>
        <time>2019-08-08T10:01:24Z</time>
      </trkpt>
      <trkpt lat="48.58029" lon="7.63933">
        <ele>147</ele>
        <time>2019-08-08T10:01:25Z</time>
      </trkpt>
      <trkpt lat="48.58028" lon="7.6394">
        <ele>147</ele>
        <time>2019-08-08T10:01:26Z</time>
      </trkpt>
      <trkpt lat="48.58029" lon="7.63948">
        <ele>147</ele>
        <time>2019-08-08T10:01:27Z</time>
      </trkpt>
      <trkpt lat="48.58029" lon="7.63955">
        <ele>147</ele>
        <time>2019-08-08T10:01:28Z</time>
      </trkpt>
      <trkpt lat="48.5803" lon="7.63961">
        <ele>147</ele>
        <time>2019-08-08T10:01:29Z</time>
      </trkpt>
      <trkpt lat="48.58031" lon="7.63968">
        <ele>147</ele>
        <time>2019-08-08T10:01:30Z</time>
      </trkpt>
      <trkpt lat="48.58032" lon="7.63975">
        <ele>147</ele>
        <time>2019-08-08T10:01:31Z</time>
      </trkpt>
      <trkpt lat="48.58032" lon="7.63983">
        <ele>147</ele>
        <time>2019-08-08T10:01:32Z</time>
      </trkpt>
      <trkpt lat="48.58032" lon="7.63991">
        <ele>147</ele>
        <time>2019-08-08T10:01:33Z</time>
      </trkpt>
      <trkpt lat="48.58032" lon="7.63997">
        <ele>147</ele>
        <time>2019-08-08T10:01:34Z</time>
      </trkpt>
      <trkpt lat="48.58032" lon="7.64004">
        <ele>147</ele>
        <time>2019-08-08T10:01:35Z</time>
      </trkpt>
      <trkpt lat="48.58032" lon="7.64009">
        <ele>147</ele>
        <time>2019-08-08T10:01:36Z</time>
      </trkpt>
      <trkpt lat="48.58032" lon="7.64014">
        <ele>147</ele>
        <time>2019-08-08T10:01:37Z</time>
      </trkpt>
      <trkpt lat="48.58032" lon="7.64019">
        <ele>147</ele>
        <time>2019-08-08T10:01:38Z</time>
      </trkpt>
      <trkpt lat="48.58032" lon="7.64024">
        <ele>147.1</ele>
        <time>2019-08-08T10:01:39Z</time>
      </trkpt>
      <trkpt lat="48.58032" lon="7.64031">
        <ele>147.1</ele>
        <time>2019-08-08T10:01:41Z</time>
      </trkpt>
      <trkpt lat="48.58033" lon="7.64037">
        <ele>147.1</ele>
        <time>2019-08-08T10:01:42Z</time>
      </trkpt>
      <trkpt lat="48.58031" lon="7.64043">
        <ele>147.1</ele>
        <time>2019-08-08T10:01:43Z</time>
      </trkpt>
      <trkpt lat="48.5803" lon="7.6405">
        <ele>147.1</ele>
        <time>2019-08-08T10:01:44Z</time>
      </trkpt>
      <trkpt lat="48.58028" lon="7.64058">
        <ele>147.1</ele>
        <time>2019-08-08T10:01:45Z</time>
      </trkpt>
      <trkpt lat="48.58028" lon="7.64067">
        <ele>147.1</ele>
        <time>2019-08-08T10:01:46Z</time>
      </trkpt>
      <trkpt lat="48.58028" lon="7.64077">
        <ele>147.1</ele>
        <time>2019-08-08T10:01:47Z</time>
      </trkpt>
      <trkpt lat="48.58028" lon="7.64087">
        <ele>147.1</ele>
        <time>2019-08-08T10:01:48Z</time>
      </trkpt>
      <trkpt lat="48.58028" lon="7.64095">
        <ele>147.1</ele>
        <time>2019-08-08T10:01:49Z</time>
      </trkpt>
      <trkpt lat="48.58029" lon="7.64104">
        <ele>147.1</ele>
        <time>2019-08-08T10:01:50Z</time>
      </trkpt>
      <trkpt lat="48.5803" lon="7.64112">
        <ele>147</ele>
        <time>2019-08-08T10:01:51Z</time>
      </trkpt>
      <trkpt lat="48.58031" lon="7.64122">
        <ele>147</ele>
        <time>2019-08-08T10:01:52Z</time>
      </trkpt>
      <trkpt lat="48.58033" lon="7.64131">
        <ele>147</ele>
        <time>2019-08-08T10:01:53Z</time>
      </trkpt>
      <trkpt lat="48.58033" lon="7.64139">
        <ele>147</ele>
        <time>2019-08-08T10:01:54Z</time>
      </trkpt>
      <trkpt lat="48.58034" lon="7.64149">
        <ele>147</ele>
        <time>2019-08-08T10:01:55Z</time>
      </trkpt>
      <trkpt lat="48.58034" lon="7.64158">
        <ele>147</ele>
        <time>2019-08-08T10:01:56Z</time>
      </trkpt>
      <trkpt lat="48.58035" lon="7.64167">
        <ele>147</ele>
        <time>2019-08-08T10:01:57Z</time>
      </trkpt>
      <trkpt lat="48.58035" lon="7.64175">
        <ele>147</ele>
        <time>2019-08-08T10:01:58Z</time>
      </trkpt>
      <trkpt lat="48.58035" lon="7.64183">
        <ele>147</ele>
        <time>2019-08-08T10:01:59Z</time>
      </trkpt>
      <trkpt lat="48.58035" lon="7.64191">
        <ele>147</ele>
        <time>2019-08-08T10:02:00Z</time>
      </trkpt>
      <trkpt lat="48.58035" lon="7.64198">
        <ele>147</ele>
        <time>2019-08-08T10:02:01Z</time>
      </trkpt>
      <trkpt lat="48.58035" lon="7.64205">
        <ele>147</ele>
        <time>2019-08-08T10:02:02Z</time>
      </trkpt>
      <trkpt lat="48.58035" lon="7.64213">
        <ele>147</ele>
        <time>2019-08-08T10:02:03Z</time>
      </trkpt>
      <trkpt lat="48.58034" lon="7.64219">
        <ele>147</ele>
        <time>2019-08-08T10:02:04Z</time>
      </trkpt>
      <trkpt lat="48.58033" lon="7.64226">
        <ele>147</ele>
        <time>2019-08-08T10:02:05Z</time>
      </trkpt>
      <trkpt lat="48.58033" lon="7.64233">
        <ele>146.9</ele>
        <time>2019-08-08T10:02:06Z</time>
      </trkpt>
      <trkpt lat="48.58033" lon="7.6424">
        <ele>146.9</ele>
        <time>2019-08-08T10:02:07Z</time>
      </trkpt>
      <trkpt lat="48.58032" lon="7.64247">
        <ele>146.9</ele>
        <time>2019-08-08T10:02:08Z</time>
      </trkpt>
      <trkpt lat="48.58031" lon="7.64254">
        <ele>146.9</ele>
        <time>2019-08-08T10:02:09Z</time>
      </trkpt>
      <trkpt lat="48.58031" lon="7.64262">
        <ele>146.9</ele>
        <time>2019-08-08T10:02:10Z</time>
      </trkpt>
      <trkpt lat="48.5803" lon="7.64271">
        <ele>146.9</ele>
        <time>2019-08-08T10:02:11Z</time>
      </trkpt>
      <trkpt lat="48.5803" lon="7.64279">
        <ele>146.9</ele>
        <time>2019-08-08T10:02:12Z</time>
      </trkpt>
      <trkpt lat="48.58031" lon="7.64287">
        <ele>146.8</ele>
        <time>2019-08-08T10:02:13Z</time>
      </trkpt>
      <trkpt lat="48.58031" lon="7.64294">
        <ele>146.8</ele>
        <time>2019-08-08T10:02:14Z</time>
      </trkpt>
      <trkpt lat="48.58032" lon="7.64301">
        <ele>146.8</ele>
        <time>2019-08-08T10:02:15Z</time>
      </trkpt>
      <trkpt lat="48.58032" lon="7.64307">
        <ele>146.8</ele>
        <time>2019-08-08T10:02:16Z</time>
      </trkpt>
      <trkpt lat="48.58033" lon="7.64313">
        <ele>146.8</ele>
        <time>2019-08-08T10:02:17Z</time>
      </trkpt>
      <trkpt lat="48.58033" lon="7.64319">
        <ele>146.8</ele>
        <time>2019-08-08T10:02:18Z</time>
      </trkpt>
      <trkpt lat="48.58033" lon="7.64323">
        <ele>146.8</ele>
        <time>2019-08-08T10:02:19Z</time>
      </trkpt>
      <trkpt lat="48.58031" lon="7.64328">
        <ele>146.8</ele>
        <time>2019-08-08T10:02:20Z</time>
      </trkpt>
      <trkpt lat="48.5803" lon="7.64334">
        <ele>146.8</ele>
        <time>2019-08-08T10:02:21Z</time>
      </trkpt>
      <trkpt lat="48.58029" lon="7.64341">
        <ele>146.8</ele>
        <time>2019-08-08T10:02:22Z</time>
      </trkpt>
      <trkpt lat="48.58027" lon="7.6435">
        <ele>146.8</ele>
        <time>2019-08-08T10:02:23Z</time>
      </trkpt>
      <trkpt lat="48.58026" lon="7.64359">
        <ele>146.8</ele>
        <time>2019-08-08T10:02:24Z</time>
      </trkpt>
      <trkpt lat="48.58025" lon="7.64367">
        <ele>146.8</ele>
        <time>2019-08-08T10:02:25Z</time>
      </trkpt>
      <trkpt lat="48.58024" lon="7.64373">
        <ele>146.8</ele>
        <time>2019-08-08T10:02:26Z</time>
      </trkpt>
      <trkpt lat="48.58021" lon="7.64382">
        <ele>146.8</ele>
        <time>2019-08-08T10:02:27Z</time>
      </trkpt>
      <trkpt lat="48.5802" lon="7.64391">
        <ele>146.8</ele>
        <time>2019-08-08T10:02:28Z</time>
      </trkpt>
      <trkpt lat="48.58018" lon="7.64399">
        <ele>146.8</ele>
        <time>2019-08-08T10:02:29Z</time>
      </trkpt>
      <trkpt lat="48.58016" lon="7.64407">
        <ele>146.8</ele>
        <time>2019-08-08T10:02:30Z</time>
      </trkpt>
      <trkpt lat="48.58015" lon="7.64414">
        <ele>146.8</ele>
        <time>2019-08-08T10:02:31Z</time>
      </trkpt>
      <trkpt lat="48.58014" lon="7.64421">
        <ele>146.8</ele>
        <time>2019-08-08T10:02:32Z</time>
      </trkpt>
      <trkpt lat="48.58014" lon="7.6443">
        <ele>146.8</ele>
        <time>2019-08-08T10:02:33Z</time>
      </trkpt>
      <trkpt lat="48.58014" lon="7.64439">
        <ele>146.8</ele>
        <time>2019-08-08T10:02:34Z</time>
      </trkpt>
      <trkpt lat="48.58014" lon="7.64449">
        <ele>146.8</ele>
        <time>2019-08-08T10:02:35Z</time>
      </trkpt>
      <trkpt lat="48.58014" lon="7.64459">
        <ele>146.8</ele>
        <time>2019-08-08T10:02:36Z</time>
      </trkpt>
      <trkpt lat="48.58012" lon="7.6447">
        <ele>146.8</ele>
        <time>2019-08-08T10:02:37Z</time>
      </trkpt>
      <trkpt lat="48.58011" lon="7.64478">
        <ele>146.8</ele>
        <time>2019-08-08T10:02:38Z</time>
      </trkpt>
      <trkpt lat="48.58011" lon="7.64484">
        <ele>146.8</ele>
        <time>2019-08-08T10:02:39Z</time>
      </trkpt>
      <trkpt lat="48.58011" lon="7.64491">
        <ele>146.8</ele>
        <time>2019-08-08T10:02:40Z</time>
      </trkpt>
      <trkpt lat="48.5801" lon="7.64497">
        <ele>146.8</ele>
        <time>2019-08-08T10:02:41Z</time>
      </trkpt>
      <trkpt lat="48.5801" lon="7.64502">
        <ele>146.8</ele>
        <time>2019-08-08T10:02:42Z</time>
      </trkpt>
      <trkpt lat="48.5801" lon="7.64508">
        <ele>146.8</ele>
        <time>2019-08-08T10:02:43Z</time>
      </trkpt>
      <trkpt lat="48.58009" lon="7.64514">
        <ele>146.8</ele>
        <time>2019-08-08T10:02:44Z</time>
      </trkpt>
      <trkpt lat="48.58009" lon="7.64519">
        <ele>146.8</ele>
        <time>2019-08-08T10:02:45Z</time>
      </trkpt>
      <trkpt lat="48.58007" lon="7.64527">
        <ele>146.8</ele>
        <time>2019-08-08T10:02:46Z</time>
      </trkpt>
      <trkpt lat="48.58006" lon="7.64535">
        <ele>146.8</ele>
        <time>2019-08-08T10:02:47Z</time>
      </trkpt>
      <trkpt lat="48.58005" lon="7.64541">
        <ele>146.8</ele>
        <time>2019-08-08T10:02:48Z</time>
      </trkpt>
      <trkpt lat="48.58004" lon="7.64547">
        <ele>146.8</ele>
        <time>2019-08-08T10:02:49Z</time>
      </trkpt>
      <trkpt lat="48.58003" lon="7.64554">
        <ele>146.8</ele>
        <time>2019-08-08T10:02:50Z</time>
      </trkpt>
      <trkpt lat="48.58001" lon="7.64562">
        <ele>146.8</ele>
        <time>2019-08-08T10:02:51Z</time>
      </trkpt>
      <trkpt lat="48.58" lon="7.64568">
        <ele>146.8</ele>
        <time>2019-08-08T10:02:52Z</time>
      </trkpt>
      <trkpt lat="48.57999" lon="7.64577">
        <ele>146.8</ele>
        <time>2019-08-08T10:02:53Z</time>
      </trkpt>
      <trkpt lat="48.57998" lon="7.64585">
        <ele>146.8</ele>
        <time>2019-08-08T10:02:54Z</time>
      </trkpt>
      <trkpt lat="48.57997" lon="7.64591">
        <ele>146.7</ele>
        <time>2019-08-08T10:02:55Z</time>
      </trkpt>
      <trkpt lat="48.57997" lon="7.64595">
        <ele>146.7</ele>
        <time>2019-08-08T10:02:56Z</time>
      </trkpt>
      <trkpt lat="48.57996" lon="7.64601">
        <ele>146.7</ele>
        <time>2019-08-08T10:02:57Z</time>
      </trkpt>
      <trkpt lat="48.57994" lon="7.64604">
        <ele>146.7</ele>
        <time>2019-08-08T10:02:58Z</time>
      </trkpt>
      <trkpt lat="48.57992" lon="7.64608">
        <ele>146.7</ele>
        <time>2019-08-08T10:02:59Z</time>
      </trkpt>
      <trkpt lat="48.57993" lon="7.64614">
        <ele>146.7</ele>
        <time>2019-08-08T10:03:01Z</time>
      </trkpt>
      <trkpt lat="48.57991" lon="7.64625">
        <ele>146.6</ele>
        <time>2019-08-08T10:03:03Z</time>
      </trkpt>
      <trkpt lat="48.57991" lon="7.64635">
        <ele>146.5</ele>
        <time>2019-08-08T10:03:04Z</time>
      </trkpt>
      <trkpt lat="48.57991" lon="7.64644">
        <ele>146.4</ele>
        <time>2019-08-08T10:03:05Z</time>
      </trkpt>
      <trkpt lat="48.5799" lon="7.64652">
        <ele>146.3</ele>
        <time>2019-08-08T10:03:06Z</time>
      </trkpt>
      <trkpt lat="48.5799" lon="7.64659">
        <ele>146.2</ele>
        <time>2019-08-08T10:03:07Z</time>
      </trkpt>
      <trkpt lat="48.57989" lon="7.64666">
        <ele>146.1</ele>
        <time>2019-08-08T10:03:08Z</time>
      </trkpt>
      <trkpt lat="48.57989" lon="7.64673">
        <ele>146.1</ele>
        <time>2019-08-08T10:03:09Z</time>
      </trkpt>
      <trkpt lat="48.57989" lon="7.64679">
        <ele>146</ele>
        <time>2019-08-08T10:03:10Z</time>
      </trkpt>
      <trkpt lat="48.57989" lon="7.64687">
        <ele>145.9</ele>
        <time>2019-08-08T10:03:11Z</time>
      </trkpt>
      <trkpt lat="48.57989" lon="7.64694">
        <ele>145.8</ele>
        <time>2019-08-08T10:03:12Z</time>
      </trkpt>
      <trkpt lat="48.57988" lon="7.64701">
        <ele>145.7</ele>
        <time>2019-08-08T10:03:13Z</time>
      </trkpt>
      <trkpt lat="48.57987" lon="7.64707">
        <ele>145.6</ele>
        <time>2019-08-08T10:03:14Z</time>
      </trkpt>
      <trkpt lat="48.57987" lon="7.64714">
        <ele>145.5</ele>
        <time>2019-08-08T10:03:15Z</time>
      </trkpt>
      <trkpt lat="48.57985" lon="7.64724">
        <ele>145.4</ele>
        <time>2019-08-08T10:03:16Z</time>
      </trkpt>
      <trkpt lat="48.57985" lon="7.64731">
        <ele>145.3</ele>
        <time>2019-08-08T10:03:17Z</time>
      </trkpt>
      <trkpt lat="48.57985" lon="7.6474">
        <ele>145.3</ele>
        <time>2019-08-08T10:03:18Z</time>
      </trkpt>
      <trkpt lat="48.57985" lon="7.64748">
        <ele>145.2</ele>
        <time>2019-08-08T10:03:19Z</time>
      </trkpt>
      <trkpt lat="48.57984" lon="7.64756">
        <ele>145.2</ele>
        <time>2019-08-08T10:03:20Z</time>
      </trkpt>
      <trkpt lat="48.57984" lon="7.64763">
        <ele>145.2</ele>
        <time>2019-08-08T10:03:21Z</time>
      </trkpt>
      <trkpt lat="48.57984" lon="7.6477">
        <ele>145.2</ele>
        <time>2019-08-08T10:03:22Z</time>
      </trkpt>
      <trkpt lat="48.57983" lon="7.64776">
        <ele>145.3</ele>
        <time>2019-08-08T10:03:23Z</time>
      </trkpt>
      <trkpt lat="48.57982" lon="7.64782">
        <ele>145.3</ele>
        <time>2019-08-08T10:03:24Z</time>
      </trkpt>
      <trkpt lat="48.57981" lon="7.64788">
        <ele>145.3</ele>
        <time>2019-08-08T10:03:25Z</time>
      </trkpt>
      <trkpt lat="48.57981" lon="7.64794">
        <ele>145.4</ele>
        <time>2019-08-08T10:03:26Z</time>
      </trkpt>
      <trkpt lat="48.5798" lon="7.648">
        <ele>145.4</ele>
        <time>2019-08-08T10:03:27Z</time>
      </trkpt>
      <trkpt lat="48.57981" lon="7.64806">
        <ele>145.4</ele>
        <time>2019-08-08T10:03:28Z</time>
      </trkpt>
      <trkpt lat="48.5798" lon="7.64811">
        <ele>145.4</ele>
        <time>2019-08-08T10:03:29Z</time>
      </trkpt>
      <trkpt lat="48.57979" lon="7.64817">
        <ele>145.4</ele>
        <time>2019-08-08T10:03:30Z</time>
      </trkpt>
      <trkpt lat="48.57978" lon="7.64823">
        <ele>145.4</ele>
        <time>2019-08-08T10:03:31Z</time>
      </trkpt>
      <trkpt lat="48.57977" lon="7.64829">
        <ele>145.4</ele>
        <time>2019-08-08T10:03:32Z</time>
      </trkpt>
      <trkpt lat="48.57975" lon="7.64836">
        <ele>145.3</ele>
        <time>2019-08-08T10:03:33Z</time>
      </trkpt>
      <trkpt lat="48.57974" lon="7.64844">
        <ele>145.3</ele>
        <time>2019-08-08T10:03:34Z</time>
      </trkpt>
      <trkpt lat="48.57972" lon="7.64851">
        <ele>145.2</ele>
        <time>2019-08-08T10:03:35Z</time>
      </trkpt>
      <trkpt lat="48.57971" lon="7.64858">
        <ele>145.1</ele>
        <time>2019-08-08T10:03:36Z</time>
      </trkpt>
      <trkpt lat="48.57969" lon="7.64865">
        <ele>145</ele>
        <time>2019-08-08T10:03:37Z</time>
      </trkpt>
      <trkpt lat="48.57968" lon="7.64872">
        <ele>144.9</ele>
        <time>2019-08-08T10:03:38Z</time>
      </trkpt>
      <trkpt lat="48.57967" lon="7.64878">
        <ele>144.8</ele>
        <time>2019-08-08T10:03:39Z</time>
      </trkpt>
      <trkpt lat="48.57966" lon="7.64884">
        <ele>144.7</ele>
        <time>2019-08-08T10:03:40Z</time>
      </trkpt>
      <trkpt lat="48.57966" lon="7.6489">
        <ele>144.6</ele>
        <time>2019-08-08T10:03:41Z</time>
      </trkpt>
      <trkpt lat="48.57966" lon="7.64896">
        <ele>144.5</ele>
        <time>2019-08-08T10:03:42Z</time>
      </trkpt>
      <trkpt lat="48.57965" lon="7.64902">
        <ele>144.4</ele>
        <time>2019-08-08T10:03:43Z</time>
      </trkpt>
      <trkpt lat="48.57965" lon="7.64909">
        <ele>144.3</ele>
        <time>2019-08-08T10:03:44Z</time>
      </trkpt>
      <trkpt lat="48.57963" lon="7.64916">
        <ele>144.3</ele>
        <time>2019-08-08T10:03:45Z</time>
      </trkpt>
      <trkpt lat="48.57962" lon="7.64923">
        <ele>144.2</ele>
        <time>2019-08-08T10:03:46Z</time>
      </trkpt>
      <trkpt lat="48.57962" lon="7.64931">
        <ele>144.2</ele>
        <time>2019-08-08T10:03:47Z</time>
      </trkpt>
      <trkpt lat="48.57962" lon="7.64939">
        <ele>144.3</ele>
        <time>2019-08-08T10:03:48Z</time>
      </trkpt>
      <trkpt lat="48.57961" lon="7.64947">
        <ele>144.4</ele>
        <time>2019-08-08T10:03:49Z</time>
      </trkpt>
      <trkpt lat="48.5796" lon="7.64955">
        <ele>144.6</ele>
        <time>2019-08-08T10:03:50Z</time>
      </trkpt>
      <trkpt lat="48.57959" lon="7.64964">
        <ele>144.8</ele>
        <time>2019-08-08T10:03:51Z</time>
      </trkpt>
      <trkpt lat="48.57959" lon="7.64972">
        <ele>145.1</ele>
        <time>2019-08-08T10:03:52Z</time>
      </trkpt>
      <trkpt lat="48.57958" lon="7.64981">
        <ele>145.3</ele>
        <time>2019-08-08T10:03:53Z</time>
      </trkpt>
      <trkpt lat="48.57957" lon="7.6499">
        <ele>145.5</ele>
        <time>2019-08-08T10:03:54Z</time>
      </trkpt>
      <trkpt lat="48.57955" lon="7.64999">
        <ele>145.6</ele>
        <time>2019-08-08T10:03:55Z</time>
      </trkpt>
      <trkpt lat="48.57954" lon="7.65009">
        <ele>145.7</ele>
        <time>2019-08-08T10:03:56Z</time>
      </trkpt>
      <trkpt lat="48.57954" lon="7.6502">
        <ele>145.6</ele>
        <time>2019-08-08T10:03:57Z</time>
      </trkpt>
      <trkpt lat="48.57954" lon="7.65031">
        <ele>145.5</ele>
        <time>2019-08-08T10:03:58Z</time>
      </trkpt>
      <trkpt lat="48.57954" lon="7.65042">
        <ele>145.5</ele>
        <time>2019-08-08T10:03:59Z</time>
      </trkpt>
      <trkpt lat="48.57953" lon="7.6505">
        <ele>145.5</ele>
        <time>2019-08-08T10:04:00Z</time>
      </trkpt>
      <trkpt lat="48.57952" lon="7.65059">
        <ele>145.5</ele>
        <time>2019-08-08T10:04:01Z</time>
      </trkpt>
      <trkpt lat="48.5795" lon="7.65066">
        <ele>145.5</ele>
        <time>2019-08-08T10:04:02Z</time>
      </trkpt>
      <trkpt lat="48.5795" lon="7.65072">
        <ele>145.5</ele>
        <time>2019-08-08T10:04:03Z</time>
      </trkpt>
      <trkpt lat="48.57948" lon="7.65079">
        <ele>145.4</ele>
        <time>2019-08-08T10:04:04Z</time>
      </trkpt>
      <trkpt lat="48.57948" lon="7.65085">
        <ele>145.3</ele>
        <time>2019-08-08T10:04:05Z</time>
      </trkpt>
      <trkpt lat="48.57947" lon="7.65091">
        <ele>145.2</ele>
        <time>2019-08-08T10:04:06Z</time>
      </trkpt>
      <trkpt lat="48.57947" lon="7.651">
        <ele>145</ele>
        <time>2019-08-08T10:04:07Z</time>
      </trkpt>
      <trkpt lat="48.57945" lon="7.65108">
        <ele>144.8</ele>
        <time>2019-08-08T10:04:08Z</time>
      </trkpt>
      <trkpt lat="48.57945" lon="7.65116">
        <ele>144.5</ele>
        <time>2019-08-08T10:04:09Z</time>
      </trkpt>
      <trkpt lat="48.57944" lon="7.65125">
        <ele>144.3</ele>
        <time>2019-08-08T10:04:10Z</time>
      </trkpt>
      <trkpt lat="48.57943" lon="7.65133">
        <ele>144</ele>
        <time>2019-08-08T10:04:11Z</time>
      </trkpt>
      <trkpt lat="48.57943" lon="7.65141">
        <ele>143.8</ele>
        <time>2019-08-08T10:04:12Z</time>
      </trkpt>
      <trkpt lat="48.57943" lon="7.65151">
        <ele>143.6</ele>
        <time>2019-08-08T10:04:13Z</time>
      </trkpt>
      <trkpt lat="48.57943" lon="7.65159">
        <ele>143.5</ele>
        <time>2019-08-08T10:04:14Z</time>
      </trkpt>
      <trkpt lat="48.57943" lon="7.65167">
        <ele>143.4</ele>
        <time>2019-08-08T10:04:15Z</time>
      </trkpt>
      <trkpt lat="48.57942" lon="7.65176">
        <ele>143.3</ele>
        <time>2019-08-08T10:04:16Z</time>
      </trkpt>
      <trkpt lat="48.57941" lon="7.65185">
        <ele>143.2</ele>
        <time>2019-08-08T10:04:17Z</time>
      </trkpt>
      <trkpt lat="48.57941" lon="7.65194">
        <ele>143</ele>
        <time>2019-08-08T10:04:18Z</time>
      </trkpt>
      <trkpt lat="48.57942" lon="7.65203">
        <ele>142.8</ele>
        <time>2019-08-08T10:04:19Z</time>
      </trkpt>
      <trkpt lat="48.57941" lon="7.65213">
        <ele>142.7</ele>
        <time>2019-08-08T10:04:20Z</time>
      </trkpt>
      <trkpt lat="48.57941" lon="7.65223">
        <ele>142.6</ele>
        <time>2019-08-08T10:04:21Z</time>
      </trkpt>
      <trkpt lat="48.5794" lon="7.65235">
        <ele>142.6</ele>
        <time>2019-08-08T10:04:22Z</time>
      </trkpt>
      <trkpt lat="48.5794" lon="7.65245">
        <ele>142.5</ele>
        <time>2019-08-08T10:04:23Z</time>
      </trkpt>
      <trkpt lat="48.57939" lon="7.65253">
        <ele>142.5</ele>
        <time>2019-08-08T10:04:24Z</time>
      </trkpt>
      <trkpt lat="48.57938" lon="7.65263">
        <ele>142.5</ele>
        <time>2019-08-08T10:04:25Z</time>
      </trkpt>
      <trkpt lat="48.57937" lon="7.65272">
        <ele>142.5</ele>
        <time>2019-08-08T10:04:26Z</time>
      </trkpt>
      <trkpt lat="48.57937" lon="7.65279">
        <ele>142.5</ele>
        <time>2019-08-08T10:04:27Z</time>
      </trkpt>
      <trkpt lat="48.57937" lon="7.65286">
        <ele>142.5</ele>
        <time>2019-08-08T10:04:28Z</time>
      </trkpt>
      <trkpt lat="48.57936" lon="7.65294">
        <ele>142.5</ele>
        <time>2019-08-08T10:04:29Z</time>
      </trkpt>
      <trkpt lat="48.57935" lon="7.65302">
        <ele>142.5</ele>
        <time>2019-08-08T10:04:30Z</time>
      </trkpt>
      <trkpt lat="48.57933" lon="7.6531">
        <ele>142.5</ele>
        <time>2019-08-08T10:04:31Z</time>
      </trkpt>
      <trkpt lat="48.57931" lon="7.65317">
        <ele>142.5</ele>
        <time>2019-08-08T10:04:32Z</time>
      </trkpt>
      <trkpt lat="48.57929" lon="7.65323">
        <ele>142.5</ele>
        <time>2019-08-08T10:04:33Z</time>
      </trkpt>
      <trkpt lat="48.57928" lon="7.65329">
        <ele>142.5</ele>
        <time>2019-08-08T10:04:34Z</time>
      </trkpt>
      <trkpt lat="48.57926" lon="7.65334">
        <ele>142.5</ele>
        <time>2019-08-08T10:04:35Z</time>
      </trkpt>
      <trkpt lat="48.57925" lon="7.65339">
        <ele>142.5</ele>
        <time>2019-08-08T10:04:36Z</time>
      </trkpt>
      <trkpt lat="48.57924" lon="7.65346">
        <ele>142.5</ele>
        <time>2019-08-08T10:04:37Z</time>
      </trkpt>
      <trkpt lat="48.57924" lon="7.65354">
        <ele>142.5</ele>
        <time>2019-08-08T10:04:38Z</time>
      </trkpt>
      <trkpt lat="48.57923" lon="7.65362">
        <ele>142.5</ele>
        <time>2019-08-08T10:04:39Z</time>
      </trkpt>
      <trkpt lat="48.57923" lon="7.65369">
        <ele>142.5</ele>
        <time>2019-08-08T10:04:40Z</time>
      </trkpt>
      <trkpt lat="48.57922" lon="7.65376">
        <ele>142.5</ele>
        <time>2019-08-08T10:04:41Z</time>
      </trkpt>
      <trkpt lat="48.57922" lon="7.65382">
        <ele>142.5</ele>
        <time>2019-08-08T10:04:42Z</time>
      </trkpt>
      <trkpt lat="48.5792" lon="7.65387">
        <ele>142.5</ele>
        <time>2019-08-08T10:04:43Z</time>
      </trkpt>
      <trkpt lat="48.57919" lon="7.65392">
        <ele>142.5</ele>
        <time>2019-08-08T10:04:44Z</time>
      </trkpt>
      <trkpt lat="48.57918" lon="7.65398">
        <ele>142.5</ele>
        <time>2019-08-08T10:04:45Z</time>
      </trkpt>
      <trkpt lat="48.57916" lon="7.65404">
        <ele>142.5</ele>
        <time>2019-08-08T10:04:46Z</time>
      </trkpt>
      <trkpt lat="48.57915" lon="7.6541">
        <ele>142.5</ele>
        <time>2019-08-08T10:04:47Z</time>
      </trkpt>
      <trkpt lat="48.57915" lon="7.65416">
        <ele>142.5</ele>
        <time>2019-08-08T10:04:48Z</time>
      </trkpt>
      <trkpt lat="48.57915" lon="7.65424">
        <ele>142.5</ele>
        <time>2019-08-08T10:04:49Z</time>
      </trkpt>
      <trkpt lat="48.57916" lon="7.65434">
        <ele>142.5</ele>
        <time>2019-08-08T10:04:50Z</time>
      </trkpt>
      <trkpt lat="48.57919" lon="7.65443">
        <ele>142.5</ele>
        <time>2019-08-08T10:04:51Z</time>
      </trkpt>
      <trkpt lat="48.57922" lon="7.65453">
        <ele>142.5</ele>
        <time>2019-08-08T10:04:52Z</time>
      </trkpt>
      <trkpt lat="48.57925" lon="7.65462">
        <ele>142.5</ele>
        <time>2019-08-08T10:04:53Z</time>
      </trkpt>
      <trkpt lat="48.57928" lon="7.65469">
        <ele>142.5</ele>
        <time>2019-08-08T10:04:54Z</time>
      </trkpt>
      <trkpt lat="48.57931" lon="7.65476">
        <ele>142.5</ele>
        <time>2019-08-08T10:04:55Z</time>
      </trkpt>
      <trkpt lat="48.57933" lon="7.65483">
        <ele>142.5</ele>
        <time>2019-08-08T10:04:56Z</time>
      </trkpt>
      <trkpt lat="48.57936" lon="7.6549">
        <ele>142.5</ele>
        <time>2019-08-08T10:04:57Z</time>
      </trkpt>
      <trkpt lat="48.57938" lon="7.65498">
        <ele>142.5</ele>
        <time>2019-08-08T10:04:58Z</time>
      </trkpt>
      <trkpt lat="48.5794" lon="7.65504">
        <ele>142.5</ele>
        <time>2019-08-08T10:04:59Z</time>
      </trkpt>
      <trkpt lat="48.57943" lon="7.6551">
        <ele>142.5</ele>
        <time>2019-08-08T10:05:00Z</time>
      </trkpt>
      <trkpt lat="48.57944" lon="7.65517">
        <ele>142.5</ele>
        <time>2019-08-08T10:05:01Z</time>
      </trkpt>
      <trkpt lat="48.57946" lon="7.65524">
        <ele>142.5</ele>
        <time>2019-08-08T10:05:02Z</time>
      </trkpt>
      <trkpt lat="48.57947" lon="7.65531">
        <ele>142.5</ele>
        <time>2019-08-08T10:05:03Z</time>
      </trkpt>
      <trkpt lat="48.57948" lon="7.65539">
        <ele>142.5</ele>
        <time>2019-08-08T10:05:04Z</time>
      </trkpt>
      <trkpt lat="48.57949" lon="7.65547">
        <ele>142.5</ele>
        <time>2019-08-08T10:05:05Z</time>
      </trkpt>
      <trkpt lat="48.5795" lon="7.65556">
        <ele>142.5</ele>
        <time>2019-08-08T10:05:06Z</time>
      </trkpt>
      <trkpt lat="48.57951" lon="7.65565">
        <ele>142.5</ele>
        <time>2019-08-08T10:05:07Z</time>
      </trkpt>
      <trkpt lat="48.57951" lon="7.65574">
        <ele>142.5</ele>
        <time>2019-08-08T10:05:08Z</time>
      </trkpt>
      <trkpt lat="48.5795" lon="7.65583">
        <ele>142.5</ele>
        <time>2019-08-08T10:05:09Z</time>
      </trkpt>
      <trkpt lat="48.5795" lon="7.65592">
        <ele>142.5</ele>
        <time>2019-08-08T10:05:10Z</time>
      </trkpt>
      <trkpt lat="48.57951" lon="7.65599">
        <ele>142.5</ele>
        <time>2019-08-08T10:05:11Z</time>
      </trkpt>
      <trkpt lat="48.57951" lon="7.65606">
        <ele>142.5</ele>
        <time>2019-08-08T10:05:12Z</time>
      </trkpt>
      <trkpt lat="48.57951" lon="7.65613">
        <ele>142.5</ele>
        <time>2019-08-08T10:05:13Z</time>
      </trkpt>
      <trkpt lat="48.57952" lon="7.65621">
        <ele>142.5</ele>
        <time>2019-08-08T10:05:14Z</time>
      </trkpt>
      <trkpt lat="48.57954" lon="7.65629">
        <ele>142.5</ele>
        <time>2019-08-08T10:05:15Z</time>
      </trkpt>
      <trkpt lat="48.57954" lon="7.65638">
        <ele>142.5</ele>
        <time>2019-08-08T10:05:16Z</time>
      </trkpt>
      <trkpt lat="48.57954" lon="7.65648">
        <ele>142.5</ele>
        <time>2019-08-08T10:05:17Z</time>
      </trkpt>
      <trkpt lat="48.57953" lon="7.65656">
        <ele>142.5</ele>
        <time>2019-08-08T10:05:18Z</time>
      </trkpt>
      <trkpt lat="48.57951" lon="7.65666">
        <ele>142.5</ele>
        <time>2019-08-08T10:05:19Z</time>
      </trkpt>
      <trkpt lat="48.57949" lon="7.65674">
        <ele>142.5</ele>
        <time>2019-08-08T10:05:20Z</time>
      </trkpt>
      <trkpt lat="48.57946" lon="7.65683">
        <ele>142.5</ele>
        <time>2019-08-08T10:05:21Z</time>
      </trkpt>
      <trkpt lat="48.57944" lon="7.65691">
        <ele>142.5</ele>
        <time>2019-08-08T10:05:22Z</time>
      </trkpt>
      <trkpt lat="48.57941" lon="7.65699">
        <ele>142.5</ele>
        <time>2019-08-08T10:05:23Z</time>
      </trkpt>
      <trkpt lat="48.57939" lon="7.65706">
        <ele>142.5</ele>
        <time>2019-08-08T10:05:24Z</time>
      </trkpt>
      <trkpt lat="48.57936" lon="7.65714">
        <ele>142.5</ele>
        <time>2019-08-08T10:05:25Z</time>
      </trkpt>
      <trkpt lat="48.57934" lon="7.65719">
        <ele>142.5</ele>
        <time>2019-08-08T10:05:26Z</time>
      </trkpt>
      <trkpt lat="48.57931" lon="7.65725">
        <ele>142.5</ele>
        <time>2019-08-08T10:05:27Z</time>
      </trkpt>
      <trkpt lat="48.57929" lon="7.65731">
        <ele>142.5</ele>
        <time>2019-08-08T10:05:28Z</time>
      </trkpt>
      <trkpt lat="48.57927" lon="7.65737">
        <ele>142.5</ele>
        <time>2019-08-08T10:05:29Z</time>
      </trkpt>
      <trkpt lat="48.57925" lon="7.65744">
        <ele>142.5</ele>
        <time>2019-08-08T10:05:30Z</time>
      </trkpt>
      <trkpt lat="48.57924" lon="7.6575">
        <ele>142.6</ele>
        <time>2019-08-08T10:05:31Z</time>
      </trkpt>
      <trkpt lat="48.57923" lon="7.65757">
        <ele>142.6</ele>
        <time>2019-08-08T10:05:32Z</time>
      </trkpt>
      <trkpt lat="48.57922" lon="7.65764">
        <ele>142.5</ele>
        <time>2019-08-08T10:05:33Z</time>
      </trkpt>
      <trkpt lat="48.57922" lon="7.6577">
        <ele>142.5</ele>
        <time>2019-08-08T10:05:34Z</time>
      </trkpt>
      <trkpt lat="48.57923" lon="7.65778">
        <ele>142.4</ele>
        <time>2019-08-08T10:05:35Z</time>
      </trkpt>
      <trkpt lat="48.57924" lon="7.65786">
        <ele>142.4</ele>
        <time>2019-08-08T10:05:36Z</time>
      </trkpt>
      <trkpt lat="48.57925" lon="7.65795">
        <ele>142.4</ele>
        <time>2019-08-08T10:05:37Z</time>
      </trkpt>
      <trkpt lat="48.57927" lon="7.65805">
        <ele>142.4</ele>
        <time>2019-08-08T10:05:38Z</time>
      </trkpt>
      <trkpt lat="48.5793" lon="7.65815">
        <ele>142.4</ele>
        <time>2019-08-08T10:05:39Z</time>
      </trkpt>
      <trkpt lat="48.57931" lon="7.65823">
        <ele>142.5</ele>
        <time>2019-08-08T10:05:40Z</time>
      </trkpt>
      <trkpt lat="48.57934" lon="7.6583">
        <ele>142.5</ele>
        <time>2019-08-08T10:05:41Z</time>
      </trkpt>
      <trkpt lat="48.57935" lon="7.65837">
        <ele>142.6</ele>
        <time>2019-08-08T10:05:42Z</time>
      </trkpt>
      <trkpt lat="48.57936" lon="7.65845">
        <ele>142.6</ele>
        <time>2019-08-08T10:05:43Z</time>
      </trkpt>
      <trkpt lat="48.57935" lon="7.65851">
        <ele>142.6</ele>
        <time>2019-08-08T10:05:44Z</time>
      </trkpt>
      <trkpt lat="48.57935" lon="7.65859">
        <ele>142.7</ele>
        <time>2019-08-08T10:05:45Z</time>
      </trkpt>
      <trkpt lat="48.57935" lon="7.65866">
        <ele>142.7</ele>
        <time>2019-08-08T10:05:46Z</time>
      </trkpt>
      <trkpt lat="48.57935" lon="7.65874">
        <ele>142.7</ele>
        <time>2019-08-08T10:05:47Z</time>
      </trkpt>
      <trkpt lat="48.57935" lon="7.6588">
        <ele>142.7</ele>
        <time>2019-08-08T10:05:48Z</time>
      </trkpt>
      <trkpt lat="48.57935" lon="7.65886">
        <ele>142.6</ele>
        <time>2019-08-08T10:05:49Z</time>
      </trkpt>
      <trkpt lat="48.57934" lon="7.65893">
        <ele>142.6</ele>
        <time>2019-08-08T10:05:50Z</time>
      </trkpt>
      <trkpt lat="48.57934" lon="7.65901">
        <ele>142.6</ele>
        <time>2019-08-08T10:05:51Z</time>
      </trkpt>
      <trkpt lat="48.57934" lon="7.65908">
        <ele>142.6</ele>
        <time>2019-08-08T10:05:52Z</time>
      </trkpt>
      <trkpt lat="48.57935" lon="7.65914">
        <ele>142.6</ele>
        <time>2019-08-08T10:05:53Z</time>
      </trkpt>
      <trkpt lat="48.57934" lon="7.65922">
        <ele>142.6</ele>
        <time>2019-08-08T10:05:54Z</time>
      </trkpt>
      <trkpt lat="48.57935" lon="7.65932">
        <ele>142.5</ele>
        <time>2019-08-08T10:05:55Z</time>
      </trkpt>
      <trkpt lat="48.57936" lon="7.65941">
        <ele>142.5</ele>
        <time>2019-08-08T10:05:56Z</time>
      </trkpt>
      <trkpt lat="48.57937" lon="7.65951">
        <ele>142.4</ele>
        <time>2019-08-08T10:05:57Z</time>
      </trkpt>
      <trkpt lat="48.57939" lon="7.65961">
        <ele>142.4</ele>
        <time>2019-08-08T10:05:58Z</time>
      </trkpt>
      <trkpt lat="48.57942" lon="7.65969">
        <ele>142.4</ele>
        <time>2019-08-08T10:05:59Z</time>
      </trkpt>
      <trkpt lat="48.57944" lon="7.65978">
        <ele>142.4</ele>
        <time>2019-08-08T10:06:00Z</time>
      </trkpt>
      <trkpt lat="48.57947" lon="7.65986">
        <ele>142.5</ele>
        <time>2019-08-08T10:06:01Z</time>
      </trkpt>
      <trkpt lat="48.5795" lon="7.65992">
        <ele>142.5</ele>
        <time>2019-08-08T10:06:02Z</time>
      </trkpt>
      <trkpt lat="48.57953" lon="7.65999">
        <ele>142.6</ele>
        <time>2019-08-08T10:06:03Z</time>
      </trkpt>
      <trkpt lat="48.57955" lon="7.66005">
        <ele>142.6</ele>
        <time>2019-08-08T10:06:04Z</time>
      </trkpt>
      <trkpt lat="48.57957" lon="7.66011">
        <ele>142.6</ele>
        <time>2019-08-08T10:06:05Z</time>
      </trkpt>
      <trkpt lat="48.57959" lon="7.66019">
        <ele>142.6</ele>
        <time>2019-08-08T10:06:06Z</time>
      </trkpt>
      <trkpt lat="48.57961" lon="7.66026">
        <ele>142.6</ele>
        <time>2019-08-08T10:06:07Z</time>
      </trkpt>
      <trkpt lat="48.57963" lon="7.66034">
        <ele>142.6</ele>
        <time>2019-08-08T10:06:08Z</time>
      </trkpt>
      <trkpt lat="48.57965" lon="7.66041">
        <ele>142.5</ele>
        <time>2019-08-08T10:06:09Z</time>
      </trkpt>
      <trkpt lat="48.57968" lon="7.66047">
        <ele>142.5</ele>
        <time>2019-08-08T10:06:10Z</time>
      </trkpt>
      <trkpt lat="48.57973" lon="7.66054">
        <ele>142.5</ele>
        <time>2019-08-08T10:06:11Z</time>
      </trkpt>
      <trkpt lat="48.57977" lon="7.66062">
        <ele>142.5</ele>
        <time>2019-08-08T10:06:12Z</time>
      </trkpt>
      <trkpt lat="48.57981" lon="7.66069">
        <ele>142.5</ele>
        <time>2019-08-08T10:06:13Z</time>
      </trkpt>
      <trkpt lat="48.57986" lon="7.66076">
        <ele>142.6</ele>
        <time>2019-08-08T10:06:14Z</time>
      </trkpt>
      <trkpt lat="48.5799" lon="7.66084">
        <ele>142.6</ele>
        <time>2019-08-08T10:06:15Z</time>
      </trkpt>
      <trkpt lat="48.57994" lon="7.6609">
        <ele>142.6</ele>
        <time>2019-08-08T10:06:16Z</time>
      </trkpt>
      <trkpt lat="48.57998" lon="7.66097">
        <ele>142.6</ele>
        <time>2019-08-08T10:06:17Z</time>
      </trkpt>
      <trkpt lat="48.58" lon="7.66104">
        <ele>142.6</ele>
        <time>2019-08-08T10:06:18Z</time>
      </trkpt>
      <trkpt lat="48.58003" lon="7.66109">
        <ele>142.6</ele>
        <time>2019-08-08T10:06:19Z</time>
      </trkpt>
      <trkpt lat="48.58005" lon="7.66114">
        <ele>142.6</ele>
        <time>2019-08-08T10:06:20Z</time>
      </trkpt>
      <trkpt lat="48.58008" lon="7.66119">
        <ele>142.5</ele>
        <time>2019-08-08T10:06:21Z</time>
      </trkpt>
      <trkpt lat="48.5801" lon="7.66124">
        <ele>142.5</ele>
        <time>2019-08-08T10:06:22Z</time>
      </trkpt>
      <trkpt lat="48.58012" lon="7.66131">
        <ele>142.6</ele>
        <time>2019-08-08T10:06:23Z</time>
      </trkpt>
      <trkpt lat="48.58014" lon="7.66136">
        <ele>142.6</ele>
        <time>2019-08-08T10:06:24Z</time>
      </trkpt>
      <trkpt lat="48.58015" lon="7.66141">
        <ele>142.6</ele>
        <time>2019-08-08T10:06:25Z</time>
      </trkpt>
      <trkpt lat="48.58015" lon="7.66146">
        <ele>142.6</ele>
        <time>2019-08-08T10:06:26Z</time>
      </trkpt>
      <trkpt lat="48.58016" lon="7.6615">
        <ele>142.6</ele>
        <time>2019-08-08T10:06:27Z</time>
      </trkpt>
      <trkpt lat="48.58017" lon="7.66155">
        <ele>142.6</ele>
        <time>2019-08-08T10:06:28Z</time>
      </trkpt>
      <trkpt lat="48.58017" lon="7.66162">
        <ele>142.6</ele>
        <time>2019-08-08T10:06:29Z</time>
      </trkpt>
      <trkpt lat="48.58017" lon="7.66171">
        <ele>142.6</ele>
        <time>2019-08-08T10:06:30Z</time>
      </trkpt>
      <trkpt lat="48.58017" lon="7.6618">
        <ele>142.6</ele>
        <time>2019-08-08T10:06:31Z</time>
      </trkpt>
      <trkpt lat="48.58017" lon="7.6619">
        <ele>142.6</ele>
        <time>2019-08-08T10:06:32Z</time>
      </trkpt>
      <trkpt lat="48.58018" lon="7.662">
        <ele>142.6</ele>
        <time>2019-08-08T10:06:33Z</time>
      </trkpt>
      <trkpt lat="48.5802" lon="7.66208">
        <ele>142.6</ele>
        <time>2019-08-08T10:06:34Z</time>
      </trkpt>
      <trkpt lat="48.58021" lon="7.66217">
        <ele>142.6</ele>
        <time>2019-08-08T10:06:35Z</time>
      </trkpt>
      <trkpt lat="48.58023" lon="7.66226">
        <ele>142.6</ele>
        <time>2019-08-08T10:06:36Z</time>
      </trkpt>
      <trkpt lat="48.58024" lon="7.66235">
        <ele>142.6</ele>
        <time>2019-08-08T10:06:37Z</time>
      </trkpt>
      <trkpt lat="48.58025" lon="7.66245">
        <ele>142.6</ele>
        <time>2019-08-08T10:06:38Z</time>
      </trkpt>
      <trkpt lat="48.58026" lon="7.66255">
        <ele>142.6</ele>
        <time>2019-08-08T10:06:39Z</time>
      </trkpt>
      <trkpt lat="48.58028" lon="7.66265">
        <ele>142.5</ele>
        <time>2019-08-08T10:06:40Z</time>
      </trkpt>
      <trkpt lat="48.58029" lon="7.66274">
        <ele>142.5</ele>
        <time>2019-08-08T10:06:41Z</time>
      </trkpt>
      <trkpt lat="48.5803" lon="7.66283">
        <ele>142.4</ele>
        <time>2019-08-08T10:06:42Z</time>
      </trkpt>
      <trkpt lat="48.58032" lon="7.66292">
        <ele>142.4</ele>
        <time>2019-08-08T10:06:43Z</time>
      </trkpt>
      <trkpt lat="48.58034" lon="7.66298">
        <ele>142.4</ele>
        <time>2019-08-08T10:06:44Z</time>
      </trkpt>
      <trkpt lat="48.58035" lon="7.66305">
        <ele>142.4</ele>
        <time>2019-08-08T10:06:45Z</time>
      </trkpt>
      <trkpt lat="48.58037" lon="7.66312">
        <ele>142.4</ele>
        <time>2019-08-08T10:06:46Z</time>
      </trkpt>
      <trkpt lat="48.58037" lon="7.66318">
        <ele>142.4</ele>
        <time>2019-08-08T10:06:47Z</time>
      </trkpt>
      <trkpt lat="48.58037" lon="7.66323">
        <ele>142.4</ele>
        <time>2019-08-08T10:06:48Z</time>
      </trkpt>
      <trkpt lat="48.58038" lon="7.66328">
        <ele>142.4</ele>
        <time>2019-08-08T10:06:49Z</time>
      </trkpt>
      <trkpt lat="48.5804" lon="7.66337">
        <ele>142.4</ele>
        <time>2019-08-08T10:06:50Z</time>
      </trkpt>
      <trkpt lat="48.58041" lon="7.66343">
        <ele>142.5</ele>
        <time>2019-08-08T10:06:51Z</time>
      </trkpt>
      <trkpt lat="48.58041" lon="7.6635">
        <ele>142.6</ele>
        <time>2019-08-08T10:06:52Z</time>
      </trkpt>
      <trkpt lat="48.58041" lon="7.66357">
        <ele>142.6</ele>
        <time>2019-08-08T10:06:53Z</time>
      </trkpt>
      <trkpt lat="48.58043" lon="7.6636">
        <ele>142.7</ele>
        <time>2019-08-08T10:06:54Z</time>
      </trkpt>
      <trkpt lat="48.58043" lon="7.66366">
        <ele>142.7</ele>
        <time>2019-08-08T10:07:03Z</time>
      </trkpt>
      <trkpt lat="48.58043" lon="7.66372">
        <ele>142.8</ele>
        <time>2019-08-08T10:07:05Z</time>
      </trkpt>
      <trkpt lat="48.58043" lon="7.66377">
        <ele>142.6</ele>
        <time>2019-08-08T10:07:06Z</time>
      </trkpt>
      <trkpt lat="48.58042" lon="7.66382">
        <ele>142.6</ele>
        <time>2019-08-08T10:07:07Z</time>
      </trkpt>
      <trkpt lat="48.58041" lon="7.6639">
        <ele>142.5</ele>
        <time>2019-08-08T10:07:08Z</time>
      </trkpt>
      <trkpt lat="48.58039" lon="7.66396">
        <ele>142.5</ele>
        <time>2019-08-08T10:07:09Z</time>
      </trkpt>
      <trkpt lat="48.58038" lon="7.66402">
        <ele>142.5</ele>
        <time>2019-08-08T10:07:10Z</time>
      </trkpt>
      <trkpt lat="48.58037" lon="7.66408">
        <ele>142.5</ele>
        <time>2019-08-08T10:07:11Z</time>
      </trkpt>
      <trkpt lat="48.58035" lon="7.66412">
        <ele>142.5</ele>
        <time>2019-08-08T10:07:12Z</time>
      </trkpt>
      <trkpt lat="48.58033" lon="7.66418">
        <ele>142.4</ele>
        <time>2019-08-08T10:07:13Z</time>
      </trkpt>
      <trkpt lat="48.58033" lon="7.66424">
        <ele>142.4</ele>
        <time>2019-08-08T10:07:14Z</time>
      </trkpt>
      <trkpt lat="48.58031" lon="7.6643">
        <ele>142.4</ele>
        <time>2019-08-08T10:07:15Z</time>
      </trkpt>
      <trkpt lat="48.58029" lon="7.66436">
        <ele>142.3</ele>
        <time>2019-08-08T10:07:16Z</time>
      </trkpt>
      <trkpt lat="48.58027" lon="7.66441">
        <ele>142.2</ele>
        <time>2019-08-08T10:07:17Z</time>
      </trkpt>
      <trkpt lat="48.58025" lon="7.66447">
        <ele>142.1</ele>
        <time>2019-08-08T10:07:18Z</time>
      </trkpt>
      <trkpt lat="48.58023" lon="7.66452">
        <ele>142</ele>
        <time>2019-08-08T10:07:19Z</time>
      </trkpt>
      <trkpt lat="48.58021" lon="7.66458">
        <ele>141.9</ele>
        <time>2019-08-08T10:07:20Z</time>
      </trkpt>
      <trkpt lat="48.5802" lon="7.66464">
        <ele>141.9</ele>
        <time>2019-08-08T10:07:21Z</time>
      </trkpt>
      <trkpt lat="48.58017" lon="7.66473">
        <ele>141.9</ele>
        <time>2019-08-08T10:07:22Z</time>
      </trkpt>
      <trkpt lat="48.58013" lon="7.66483">
        <ele>142</ele>
        <time>2019-08-08T10:07:23Z</time>
      </trkpt>
      <trkpt lat="48.5801" lon="7.66491">
        <ele>142.2</ele>
        <time>2019-08-08T10:07:24Z</time>
      </trkpt>
      <trkpt lat="48.58007" lon="7.66501">
        <ele>142.4</ele>
        <time>2019-08-08T10:07:25Z</time>
      </trkpt>
      <trkpt lat="48.58004" lon="7.66512">
        <ele>142.5</ele>
        <time>2019-08-08T10:07:26Z</time>
      </trkpt>
      <trkpt lat="48.58002" lon="7.6652">
        <ele>142.5</ele>
        <time>2019-08-08T10:07:27Z</time>
      </trkpt>
      <trkpt lat="48.58" lon="7.66528">
        <ele>142.5</ele>
        <time>2019-08-08T10:07:28Z</time>
      </trkpt>
      <trkpt lat="48.57999" lon="7.66536">
        <ele>142.5</ele>
        <time>2019-08-08T10:07:29Z</time>
      </trkpt>
      <trkpt lat="48.57998" lon="7.66544">
        <ele>142.6</ele>
        <time>2019-08-08T10:07:30Z</time>
      </trkpt>
      <trkpt lat="48.57996" lon="7.66553">
        <ele>142.6</ele>
        <time>2019-08-08T10:07:31Z</time>
      </trkpt>
      <trkpt lat="48.57994" lon="7.66562">
        <ele>142.7</ele>
        <time>2019-08-08T10:07:32Z</time>
      </trkpt>
      <trkpt lat="48.57993" lon="7.66575">
        <ele>142.9</ele>
        <time>2019-08-08T10:07:33Z</time>
      </trkpt>
      <trkpt lat="48.57993" lon="7.66584">
        <ele>143</ele>
        <time>2019-08-08T10:07:34Z</time>
      </trkpt>
      <trkpt lat="48.57993" lon="7.6659">
        <ele>143.2</ele>
        <time>2019-08-08T10:07:35Z</time>
      </trkpt>
      <trkpt lat="48.57991" lon="7.66598">
        <ele>143.3</ele>
        <time>2019-08-08T10:07:36Z</time>
      </trkpt>
      <trkpt lat="48.5799" lon="7.66603">
        <ele>143.5</ele>
        <time>2019-08-08T10:07:37Z</time>
      </trkpt>
      <trkpt lat="48.57988" lon="7.66607">
        <ele>143.7</ele>
        <time>2019-08-08T10:07:38Z</time>
      </trkpt>
      <trkpt lat="48.57987" lon="7.66611">
        <ele>143.8</ele>
        <time>2019-08-08T10:07:39Z</time>
      </trkpt>
      <trkpt lat="48.57986" lon="7.66616">
        <ele>144</ele>
        <time>2019-08-08T10:07:40Z</time>
      </trkpt>
      <trkpt lat="48.57984" lon="7.66623">
        <ele>144.3</ele>
        <time>2019-08-08T10:07:42Z</time>
      </trkpt>
      <trkpt lat="48.57983" lon="7.66627">
        <ele>144.4</ele>
        <time>2019-08-08T10:07:43Z</time>
      </trkpt>
      <trkpt lat="48.57982" lon="7.66632">
        <ele>144.6</ele>
        <time>2019-08-08T10:07:44Z</time>
      </trkpt>
      <trkpt lat="48.57981" lon="7.66637">
        <ele>144.7</ele>
        <time>2019-08-08T10:07:45Z</time>
      </trkpt>
      <trkpt lat="48.57978" lon="7.66641">
        <ele>144.8</ele>
        <time>2019-08-08T10:07:47Z</time>
      </trkpt>
      <trkpt lat="48.57975" lon="7.66651">
        <ele>145.1</ele>
        <time>2019-08-08T10:08:16Z</time>
      </trkpt>
      <trkpt lat="48.57975" lon="7.66655">
        <ele>145.2</ele>
        <time>2019-08-08T10:08:17Z</time>
      </trkpt>
      <trkpt lat="48.57973" lon="7.66664">
        <ele>145.3</ele>
        <time>2019-08-08T10:08:19Z</time>
      </trkpt>
      <trkpt lat="48.57972" lon="7.66669">
        <ele>145.4</ele>
        <time>2019-08-08T10:08:20Z</time>
      </trkpt>
      <trkpt lat="48.5797" lon="7.66676">
        <ele>145.5</ele>
        <time>2019-08-08T10:08:21Z</time>
      </trkpt>
      <trkpt lat="48.57968" lon="7.66681">
        <ele>145.5</ele>
        <time>2019-08-08T10:08:22Z</time>
      </trkpt>
      <trkpt lat="48.57967" lon="7.66688">
        <ele>145.6</ele>
        <time>2019-08-08T10:08:23Z</time>
      </trkpt>
      <trkpt lat="48.57964" lon="7.66695">
        <ele>145.6</ele>
        <time>2019-08-08T10:08:24Z</time>
      </trkpt>
      <trkpt lat="48.57961" lon="7.66705">
        <ele>145.6</ele>
        <time>2019-08-08T10:08:25Z</time>
      </trkpt>
      <trkpt lat="48.57959" lon="7.66714">
        <ele>145.6</ele>
        <time>2019-08-08T10:08:26Z</time>
      </trkpt>
      <trkpt lat="48.57956" lon="7.66723">
        <ele>145.5</ele>
        <time>2019-08-08T10:08:27Z</time>
      </trkpt>
      <trkpt lat="48.57953" lon="7.66731">
        <ele>145.4</ele>
        <time>2019-08-08T10:08:28Z</time>
      </trkpt>
      <trkpt lat="48.5795" lon="7.66739">
        <ele>145.2</ele>
        <time>2019-08-08T10:08:29Z</time>
      </trkpt>
      <trkpt lat="48.57947" lon="7.66749">
        <ele>144.9</ele>
        <time>2019-08-08T10:08:30Z</time>
      </trkpt>
      <trkpt lat="48.57944" lon="7.66757">
        <ele>144.7</ele>
        <time>2019-08-08T10:08:31Z</time>
      </trkpt>
      <trkpt lat="48.57943" lon="7.66767">
        <ele>144.4</ele>
        <time>2019-08-08T10:08:32Z</time>
      </trkpt>
      <trkpt lat="48.57942" lon="7.66776">
        <ele>144</ele>
        <time>2019-08-08T10:08:33Z</time>
      </trkpt>
      <trkpt lat="48.57942" lon="7.66784">
        <ele>143.8</ele>
        <time>2019-08-08T10:08:34Z</time>
      </trkpt>
      <trkpt lat="48.5794" lon="7.66793">
        <ele>143.4</ele>
        <time>2019-08-08T10:08:35Z</time>
      </trkpt>
      <trkpt lat="48.57938" lon="7.66799">
        <ele>143.2</ele>
        <time>2019-08-08T10:08:36Z</time>
      </trkpt>
      <trkpt lat="48.57936" lon="7.66805">
        <ele>143</ele>
        <time>2019-08-08T10:08:37Z</time>
      </trkpt>
      <trkpt lat="48.57935" lon="7.66814">
        <ele>142.8</ele>
        <time>2019-08-08T10:08:38Z</time>
      </trkpt>
      <trkpt lat="48.57933" lon="7.66824">
        <ele>142.6</ele>
        <time>2019-08-08T10:08:39Z</time>
      </trkpt>
      <trkpt lat="48.5793" lon="7.66834">
        <ele>142.4</ele>
        <time>2019-08-08T10:08:40Z</time>
      </trkpt>
      <trkpt lat="48.57928" lon="7.66843">
        <ele>142.2</ele>
        <time>2019-08-08T10:08:41Z</time>
      </trkpt>
      <trkpt lat="48.57927" lon="7.66851">
        <ele>142.1</ele>
        <time>2019-08-08T10:08:42Z</time>
      </trkpt>
      <trkpt lat="48.57926" lon="7.66858">
        <ele>142</ele>
        <time>2019-08-08T10:08:43Z</time>
      </trkpt>
      <trkpt lat="48.57924" lon="7.66865">
        <ele>142</ele>
        <time>2019-08-08T10:08:44Z</time>
      </trkpt>
      <trkpt lat="48.57922" lon="7.66873">
        <ele>141.9</ele>
        <time>2019-08-08T10:08:45Z</time>
      </trkpt>
      <trkpt lat="48.5792" lon="7.66881">
        <ele>141.9</ele>
        <time>2019-08-08T10:08:46Z</time>
      </trkpt>
      <trkpt lat="48.57918" lon="7.66889">
        <ele>141.8</ele>
        <time>2019-08-08T10:08:47Z</time>
      </trkpt>
      <trkpt lat="48.57916" lon="7.66897">
        <ele>141.8</ele>
        <time>2019-08-08T10:08:48Z</time>
      </trkpt>
      <trkpt lat="48.57915" lon="7.66905">
        <ele>141.8</ele>
        <time>2019-08-08T10:08:49Z</time>
      </trkpt>
      <trkpt lat="48.57914" lon="7.66912">
        <ele>141.7</ele>
        <time>2019-08-08T10:08:50Z</time>
      </trkpt>
      <trkpt lat="48.57913" lon="7.66917">
        <ele>141.7</ele>
        <time>2019-08-08T10:08:51Z</time>
      </trkpt>
      <trkpt lat="48.57911" lon="7.66924">
        <ele>141.7</ele>
        <time>2019-08-08T10:08:52Z</time>
      </trkpt>
      <trkpt lat="48.5791" lon="7.66932">
        <ele>141.7</ele>
        <time>2019-08-08T10:08:53Z</time>
      </trkpt>
      <trkpt lat="48.57908" lon="7.66939">
        <ele>141.7</ele>
        <time>2019-08-08T10:08:54Z</time>
      </trkpt>
      <trkpt lat="48.57907" lon="7.66946">
        <ele>141.7</ele>
        <time>2019-08-08T10:08:55Z</time>
      </trkpt>
      <trkpt lat="48.57905" lon="7.66955">
        <ele>141.7</ele>
        <time>2019-08-08T10:08:56Z</time>
      </trkpt>
      <trkpt lat="48.57903" lon="7.66963">
        <ele>141.7</ele>
        <time>2019-08-08T10:08:57Z</time>
      </trkpt>
      <trkpt lat="48.57903" lon="7.66971">
        <ele>141.6</ele>
        <time>2019-08-08T10:08:58Z</time>
      </trkpt>
      <trkpt lat="48.57904" lon="7.6698">
        <ele>141.6</ele>
        <time>2019-08-08T10:08:59Z</time>
      </trkpt>
      <trkpt lat="48.57903" lon="7.66989">
        <ele>141.6</ele>
        <time>2019-08-08T10:09:00Z</time>
      </trkpt>
      <trkpt lat="48.57902" lon="7.66997">
        <ele>141.6</ele>
        <time>2019-08-08T10:09:01Z</time>
      </trkpt>
      <trkpt lat="48.579" lon="7.67006">
        <ele>141.6</ele>
        <time>2019-08-08T10:09:02Z</time>
      </trkpt>
      <trkpt lat="48.57898" lon="7.67013">
        <ele>141.6</ele>
        <time>2019-08-08T10:09:03Z</time>
      </trkpt>
      <trkpt lat="48.57897" lon="7.6702">
        <ele>141.6</ele>
        <time>2019-08-08T10:09:04Z</time>
      </trkpt>
      <trkpt lat="48.57895" lon="7.67028">
        <ele>141.6</ele>
        <time>2019-08-08T10:09:05Z</time>
      </trkpt>
      <trkpt lat="48.57893" lon="7.67035">
        <ele>141.6</ele>
        <time>2019-08-08T10:09:06Z</time>
      </trkpt>
      <trkpt lat="48.57891" lon="7.67042">
        <ele>141.6</ele>
        <time>2019-08-08T10:09:07Z</time>
      </trkpt>
      <trkpt lat="48.5789" lon="7.67048">
        <ele>141.6</ele>
        <time>2019-08-08T10:09:08Z</time>
      </trkpt>
      <trkpt lat="48.57887" lon="7.67055">
        <ele>141.6</ele>
        <time>2019-08-08T10:09:09Z</time>
      </trkpt>
      <trkpt lat="48.57885" lon="7.6706">
        <ele>141.6</ele>
        <time>2019-08-08T10:09:10Z</time>
      </trkpt>
      <trkpt lat="48.57883" lon="7.67065">
        <ele>141.6</ele>
        <time>2019-08-08T10:09:11Z</time>
      </trkpt>
      <trkpt lat="48.57882" lon="7.6707">
        <ele>141.6</ele>
        <time>2019-08-08T10:09:12Z</time>
      </trkpt>
      <trkpt lat="48.5788" lon="7.67075">
        <ele>141.6</ele>
        <time>2019-08-08T10:09:13Z</time>
      </trkpt>
      <trkpt lat="48.57878" lon="7.67081">
        <ele>141.6</ele>
        <time>2019-08-08T10:09:14Z</time>
      </trkpt>
      <trkpt lat="48.57877" lon="7.67086">
        <ele>141.6</ele>
        <time>2019-08-08T10:09:15Z</time>
      </trkpt>
      <trkpt lat="48.57876" lon="7.67092">
        <ele>141.6</ele>
        <time>2019-08-08T10:09:16Z</time>
      </trkpt>
      <trkpt lat="48.57875" lon="7.67099">
        <ele>141.6</ele>
        <time>2019-08-08T10:09:17Z</time>
      </trkpt>
      <trkpt lat="48.57874" lon="7.67106">
        <ele>141.6</ele>
        <time>2019-08-08T10:09:18Z</time>
      </trkpt>
      <trkpt lat="48.57872" lon="7.67112">
        <ele>141.6</ele>
        <time>2019-08-08T10:09:19Z</time>
      </trkpt>
      <trkpt lat="48.5787" lon="7.67119">
        <ele>141.6</ele>
        <time>2019-08-08T10:09:20Z</time>
      </trkpt>
      <trkpt lat="48.57869" lon="7.67123">
        <ele>141.6</ele>
        <time>2019-08-08T10:09:21Z</time>
      </trkpt>
      <trkpt lat="48.57867" lon="7.67128">
        <ele>141.6</ele>
        <time>2019-08-08T10:09:22Z</time>
      </trkpt>
      <trkpt lat="48.57867" lon="7.67133">
        <ele>141.6</ele>
        <time>2019-08-08T10:09:23Z</time>
      </trkpt>
      <trkpt lat="48.57865" lon="7.67138">
        <ele>141.6</ele>
        <time>2019-08-08T10:09:24Z</time>
      </trkpt>
      <trkpt lat="48.57863" lon="7.67146">
        <ele>141.6</ele>
        <time>2019-08-08T10:09:25Z</time>
      </trkpt>
      <trkpt lat="48.57861" lon="7.67153">
        <ele>141.6</ele>
        <time>2019-08-08T10:09:26Z</time>
      </trkpt>
      <trkpt lat="48.57859" lon="7.67159">
        <ele>141.6</ele>
        <time>2019-08-08T10:09:27Z</time>
      </trkpt>
      <trkpt lat="48.57858" lon="7.67163">
        <ele>141.6</ele>
        <time>2019-08-08T10:09:28Z</time>
      </trkpt>
      <trkpt lat="48.57856" lon="7.67168">
        <ele>141.6</ele>
        <time>2019-08-08T10:09:29Z</time>
      </trkpt>
      <trkpt lat="48.57855" lon="7.67174">
        <ele>141.6</ele>
        <time>2019-08-08T10:09:30Z</time>
      </trkpt>
      <trkpt lat="48.57852" lon="7.6718">
        <ele>141.6</ele>
        <time>2019-08-08T10:09:31Z</time>
      </trkpt>
      <trkpt lat="48.5785" lon="7.67185">
        <ele>141.6</ele>
        <time>2019-08-08T10:09:32Z</time>
      </trkpt>
      <trkpt lat="48.57849" lon="7.6719">
        <ele>141.6</ele>
        <time>2019-08-08T10:09:33Z</time>
      </trkpt>
      <trkpt lat="48.57847" lon="7.67197">
        <ele>141.5</ele>
        <time>2019-08-08T10:09:34Z</time>
      </trkpt>
      <trkpt lat="48.57845" lon="7.67204">
        <ele>141.5</ele>
        <time>2019-08-08T10:09:35Z</time>
      </trkpt>
      <trkpt lat="48.57843" lon="7.67212">
        <ele>141.5</ele>
        <time>2019-08-08T10:09:36Z</time>
      </trkpt>
      <trkpt lat="48.57841" lon="7.67217">
        <ele>141.5</ele>
        <time>2019-08-08T10:09:37Z</time>
      </trkpt>
      <trkpt lat="48.5784" lon="7.67223">
        <ele>141.5</ele>
        <time>2019-08-08T10:09:38Z</time>
      </trkpt>
      <trkpt lat="48.57839" lon="7.67229">
        <ele>141.5</ele>
        <time>2019-08-08T10:09:39Z</time>
      </trkpt>
      <trkpt lat="48.57838" lon="7.67236">
        <ele>141.5</ele>
        <time>2019-08-08T10:09:40Z</time>
      </trkpt>
      <trkpt lat="48.57836" lon="7.67242">
        <ele>141.4</ele>
        <time>2019-08-08T10:09:41Z</time>
      </trkpt>
      <trkpt lat="48.57835" lon="7.67248">
        <ele>141.4</ele>
        <time>2019-08-08T10:09:42Z</time>
      </trkpt>
      <trkpt lat="48.57834" lon="7.67255">
        <ele>141.4</ele>
        <time>2019-08-08T10:09:43Z</time>
      </trkpt>
      <trkpt lat="48.57833" lon="7.67261">
        <ele>141.4</ele>
        <time>2019-08-08T10:09:44Z</time>
      </trkpt>
      <trkpt lat="48.57832" lon="7.67268">
        <ele>141.4</ele>
        <time>2019-08-08T10:09:45Z</time>
      </trkpt>
      <trkpt lat="48.5783" lon="7.67276">
        <ele>141.4</ele>
        <time>2019-08-08T10:09:46Z</time>
      </trkpt>
      <trkpt lat="48.57829" lon="7.67282">
        <ele>141.4</ele>
        <time>2019-08-08T10:09:47Z</time>
      </trkpt>
      <trkpt lat="48.57828" lon="7.67292">
        <ele>141.4</ele>
        <time>2019-08-08T10:09:48Z</time>
      </trkpt>
      <trkpt lat="48.57827" lon="7.673">
        <ele>141.4</ele>
        <time>2019-08-08T10:09:49Z</time>
      </trkpt>
      <trkpt lat="48.57825" lon="7.67308">
        <ele>141.4</ele>
        <time>2019-08-08T10:09:50Z</time>
      </trkpt>
      <trkpt lat="48.57825" lon="7.67318">
        <ele>141.4</ele>
        <time>2019-08-08T10:09:51Z</time>
      </trkpt>
      <trkpt lat="48.57824" lon="7.6733">
        <ele>141.4</ele>
        <time>2019-08-08T10:09:52Z</time>
      </trkpt>
      <trkpt lat="48.57824" lon="7.6734">
        <ele>141.4</ele>
        <time>2019-08-08T10:09:53Z</time>
      </trkpt>
      <trkpt lat="48.57823" lon="7.67349">
        <ele>141.4</ele>
        <time>2019-08-08T10:09:54Z</time>
      </trkpt>
      <trkpt lat="48.57821" lon="7.6736">
        <ele>141.4</ele>
        <time>2019-08-08T10:09:55Z</time>
      </trkpt>
      <trkpt lat="48.57818" lon="7.6737">
        <ele>141.4</ele>
        <time>2019-08-08T10:09:56Z</time>
      </trkpt>
      <trkpt lat="48.57817" lon="7.6738">
        <ele>141.4</ele>
        <time>2019-08-08T10:09:57Z</time>
      </trkpt>
      <trkpt lat="48.57816" lon="7.67391">
        <ele>141.4</ele>
        <time>2019-08-08T10:09:58Z</time>
      </trkpt>
      <trkpt lat="48.57815" lon="7.67401">
        <ele>141.4</ele>
        <time>2019-08-08T10:09:59Z</time>
      </trkpt>
      <trkpt lat="48.57814" lon="7.67411">
        <ele>141.4</ele>
        <time>2019-08-08T10:10:00Z</time>
      </trkpt>
      <trkpt lat="48.57813" lon="7.67419">
        <ele>141.3</ele>
        <time>2019-08-08T10:10:01Z</time>
      </trkpt>
      <trkpt lat="48.57812" lon="7.67427">
        <ele>141.3</ele>
        <time>2019-08-08T10:10:02Z</time>
      </trkpt>
      <trkpt lat="48.5781" lon="7.67434">
        <ele>141.3</ele>
        <time>2019-08-08T10:10:03Z</time>
      </trkpt>
      <trkpt lat="48.57808" lon="7.67441">
        <ele>141.3</ele>
        <time>2019-08-08T10:10:04Z</time>
      </trkpt>
      <trkpt lat="48.57806" lon="7.67448">
        <ele>141.3</ele>
        <time>2019-08-08T10:10:05Z</time>
      </trkpt>
      <trkpt lat="48.57805" lon="7.67454">
        <ele>141.2</ele>
        <time>2019-08-08T10:10:06Z</time>
      </trkpt>
      <trkpt lat="48.57804" lon="7.67461">
        <ele>141.2</ele>
        <time>2019-08-08T10:10:07Z</time>
      </trkpt>
      <trkpt lat="48.57802" lon="7.67468">
        <ele>141.2</ele>
        <time>2019-08-08T10:10:08Z</time>
      </trkpt>
      <trkpt lat="48.57801" lon="7.67474">
        <ele>141.2</ele>
        <time>2019-08-08T10:10:09Z</time>
      </trkpt>
      <trkpt lat="48.57799" lon="7.67482">
        <ele>141.2</ele>
        <time>2019-08-08T10:10:10Z</time>
      </trkpt>
      <trkpt lat="48.57798" lon="7.67489">
        <ele>141.2</ele>
        <time>2019-08-08T10:10:11Z</time>
      </trkpt>
      <trkpt lat="48.57796" lon="7.67498">
        <ele>141.2</ele>
        <time>2019-08-08T10:10:12Z</time>
      </trkpt>
      <trkpt lat="48.57795" lon="7.67505">
        <ele>141.2</ele>
        <time>2019-08-08T10:10:13Z</time>
      </trkpt>
      <trkpt lat="48.57793" lon="7.6751">
        <ele>141.2</ele>
        <time>2019-08-08T10:10:14Z</time>
      </trkpt>
      <trkpt lat="48.57791" lon="7.67517">
        <ele>141.2</ele>
        <time>2019-08-08T10:10:15Z</time>
      </trkpt>
      <trkpt lat="48.5779" lon="7.67523">
        <ele>141.2</ele>
        <time>2019-08-08T10:10:16Z</time>
      </trkpt>
      <trkpt lat="48.57788" lon="7.6753">
        <ele>141.2</ele>
        <time>2019-08-08T10:10:17Z</time>
      </trkpt>
      <trkpt lat="48.57786" lon="7.67537">
        <ele>141.2</ele>
        <time>2019-08-08T10:10:18Z</time>
      </trkpt>
      <trkpt lat="48.57783" lon="7.67544">
        <ele>141.2</ele>
        <time>2019-08-08T10:10:19Z</time>
      </trkpt>
      <trkpt lat="48.57781" lon="7.6755">
        <ele>141.2</ele>
        <time>2019-08-08T10:10:20Z</time>
      </trkpt>
      <trkpt lat="48.5778" lon="7.67557">
        <ele>141.2</ele>
        <time>2019-08-08T10:10:21Z</time>
      </trkpt>
      <trkpt lat="48.57779" lon="7.67564">
        <ele>141.2</ele>
        <time>2019-08-08T10:10:22Z</time>
      </trkpt>
      <trkpt lat="48.57778" lon="7.6757">
        <ele>141.2</ele>
        <time>2019-08-08T10:10:23Z</time>
      </trkpt>
      <trkpt lat="48.57777" lon="7.67577">
        <ele>141.2</ele>
        <time>2019-08-08T10:10:24Z</time>
      </trkpt>
      <trkpt lat="48.57775" lon="7.67584">
        <ele>141.2</ele>
        <time>2019-08-08T10:10:25Z</time>
      </trkpt>
      <trkpt lat="48.57773" lon="7.6759">
        <ele>141.2</ele>
        <time>2019-08-08T10:10:26Z</time>
      </trkpt>
      <trkpt lat="48.57772" lon="7.67598">
        <ele>141.2</ele>
        <time>2019-08-08T10:10:27Z</time>
      </trkpt>
      <trkpt lat="48.5777" lon="7.67604">
        <ele>141.2</ele>
        <time>2019-08-08T10:10:28Z</time>
      </trkpt>
      <trkpt lat="48.57768" lon="7.67611">
        <ele>141.2</ele>
        <time>2019-08-08T10:10:29Z</time>
      </trkpt>
      <trkpt lat="48.57767" lon="7.67618">
        <ele>141.2</ele>
        <time>2019-08-08T10:10:30Z</time>
      </trkpt>
      <trkpt lat="48.57765" lon="7.67624">
        <ele>141.3</ele>
        <time>2019-08-08T10:10:31Z</time>
      </trkpt>
      <trkpt lat="48.57764" lon="7.6763">
        <ele>141.4</ele>
        <time>2019-08-08T10:10:32Z</time>
      </trkpt>
      <trkpt lat="48.57764" lon="7.67637">
        <ele>141.5</ele>
        <time>2019-08-08T10:10:33Z</time>
      </trkpt>
      <trkpt lat="48.57763" lon="7.67643">
        <ele>141.6</ele>
        <time>2019-08-08T10:10:34Z</time>
      </trkpt>
      <trkpt lat="48.57762" lon="7.67648">
        <ele>141.7</ele>
        <time>2019-08-08T10:10:35Z</time>
      </trkpt>
      <trkpt lat="48.57761" lon="7.67653">
        <ele>141.8</ele>
        <time>2019-08-08T10:10:36Z</time>
      </trkpt>
      <trkpt lat="48.57758" lon="7.67659">
        <ele>141.8</ele>
        <time>2019-08-08T10:10:37Z</time>
      </trkpt>
      <trkpt lat="48.57756" lon="7.67665">
        <ele>141.9</ele>
        <time>2019-08-08T10:10:38Z</time>
      </trkpt>
      <trkpt lat="48.57754" lon="7.67672">
        <ele>142</ele>
        <time>2019-08-08T10:10:39Z</time>
      </trkpt>
      <trkpt lat="48.57751" lon="7.67678">
        <ele>142</ele>
        <time>2019-08-08T10:10:40Z</time>
      </trkpt>
      <trkpt lat="48.57749" lon="7.67685">
        <ele>142.1</ele>
        <time>2019-08-08T10:10:41Z</time>
      </trkpt>
      <trkpt lat="48.57747" lon="7.67691">
        <ele>142.1</ele>
        <time>2019-08-08T10:10:42Z</time>
      </trkpt>
      <trkpt lat="48.57744" lon="7.67699">
        <ele>142.2</ele>
        <time>2019-08-08T10:10:43Z</time>
      </trkpt>
      <trkpt lat="48.57742" lon="7.67707">
        <ele>142.2</ele>
        <time>2019-08-08T10:10:44Z</time>
      </trkpt>
      <trkpt lat="48.57739" lon="7.67713">
        <ele>142.2</ele>
        <time>2019-08-08T10:10:45Z</time>
      </trkpt>
      <trkpt lat="48.57737" lon="7.6772">
        <ele>142.1</ele>
        <time>2019-08-08T10:10:46Z</time>
      </trkpt>
      <trkpt lat="48.57736" lon="7.67729">
        <ele>142.1</ele>
        <time>2019-08-08T10:10:47Z</time>
      </trkpt>
      <trkpt lat="48.57734" lon="7.67737">
        <ele>142</ele>
        <time>2019-08-08T10:10:48Z</time>
      </trkpt>
      <trkpt lat="48.57732" lon="7.67745">
        <ele>141.9</ele>
        <time>2019-08-08T10:10:49Z</time>
      </trkpt>
      <trkpt lat="48.57731" lon="7.67752">
        <ele>141.9</ele>
        <time>2019-08-08T10:10:50Z</time>
      </trkpt>
      <trkpt lat="48.57729" lon="7.6776">
        <ele>141.8</ele>
        <time>2019-08-08T10:10:51Z</time>
      </trkpt>
      <trkpt lat="48.57728" lon="7.67767">
        <ele>141.8</ele>
        <time>2019-08-08T10:10:52Z</time>
      </trkpt>
      <trkpt lat="48.57726" lon="7.67775">
        <ele>141.8</ele>
        <time>2019-08-08T10:10:53Z</time>
      </trkpt>
      <trkpt lat="48.57725" lon="7.67784">
        <ele>141.7</ele>
        <time>2019-08-08T10:10:54Z</time>
      </trkpt>
      <trkpt lat="48.57725" lon="7.67792">
        <ele>141.7</ele>
        <time>2019-08-08T10:10:55Z</time>
      </trkpt>
      <trkpt lat="48.57723" lon="7.67801">
        <ele>142</ele>
        <time>2019-08-08T10:10:56Z</time>
      </trkpt>
      <trkpt lat="48.57721" lon="7.67809">
        <ele>142.1</ele>
        <time>2019-08-08T10:10:57Z</time>
      </trkpt>
      <trkpt lat="48.5772" lon="7.67817">
        <ele>142.2</ele>
        <time>2019-08-08T10:10:58Z</time>
      </trkpt>
      <trkpt lat="48.57719" lon="7.67825">
        <ele>142.4</ele>
        <time>2019-08-08T10:10:59Z</time>
      </trkpt>
      <trkpt lat="48.57718" lon="7.67833">
        <ele>142.5</ele>
        <time>2019-08-08T10:11:00Z</time>
      </trkpt>
      <trkpt lat="48.57716" lon="7.6784">
        <ele>142.7</ele>
        <time>2019-08-08T10:11:01Z</time>
      </trkpt>
      <trkpt lat="48.57715" lon="7.67847">
        <ele>142.8</ele>
        <time>2019-08-08T10:11:02Z</time>
      </trkpt>
      <trkpt lat="48.57713" lon="7.67855">
        <ele>142.9</ele>
        <time>2019-08-08T10:11:03Z</time>
      </trkpt>
      <trkpt lat="48.57712" lon="7.67861">
        <ele>142.9</ele>
        <time>2019-08-08T10:11:04Z</time>
      </trkpt>
      <trkpt lat="48.57711" lon="7.67867">
        <ele>143</ele>
        <time>2019-08-08T10:11:05Z</time>
      </trkpt>
      <trkpt lat="48.57709" lon="7.67872">
        <ele>143.1</ele>
        <time>2019-08-08T10:11:06Z</time>
      </trkpt>
      <trkpt lat="48.57708" lon="7.67878">
        <ele>143.1</ele>
        <time>2019-08-08T10:11:07Z</time>
      </trkpt>
      <trkpt lat="48.57706" lon="7.67885">
        <ele>143.2</ele>
        <time>2019-08-08T10:11:08Z</time>
      </trkpt>
      <trkpt lat="48.57704" lon="7.67894">
        <ele>143.2</ele>
        <time>2019-08-08T10:11:09Z</time>
      </trkpt>
      <trkpt lat="48.57702" lon="7.679">
        <ele>143.2</ele>
        <time>2019-08-08T10:11:10Z</time>
      </trkpt>
      <trkpt lat="48.577" lon="7.67905">
        <ele>143.2</ele>
        <time>2019-08-08T10:11:11Z</time>
      </trkpt>
      <trkpt lat="48.57698" lon="7.67911">
        <ele>143.2</ele>
        <time>2019-08-08T10:11:12Z</time>
      </trkpt>
      <trkpt lat="48.57697" lon="7.67918">
        <ele>143.2</ele>
        <time>2019-08-08T10:11:13Z</time>
      </trkpt>
      <trkpt lat="48.57696" lon="7.67924">
        <ele>143.3</ele>
        <time>2019-08-08T10:11:14Z</time>
      </trkpt>
      <trkpt lat="48.57694" lon="7.67932">
        <ele>143.3</ele>
        <time>2019-08-08T10:11:15Z</time>
      </trkpt>
      <trkpt lat="48.57692" lon="7.67939">
        <ele>143.3</ele>
        <time>2019-08-08T10:11:16Z</time>
      </trkpt>
      <trkpt lat="48.5769" lon="7.67945">
        <ele>143.3</ele>
        <time>2019-08-08T10:11:17Z</time>
      </trkpt>
      <trkpt lat="48.57688" lon="7.67952">
        <ele>143.3</ele>
        <time>2019-08-08T10:11:18Z</time>
      </trkpt>
      <trkpt lat="48.57685" lon="7.67958">
        <ele>143.3</ele>
        <time>2019-08-08T10:11:19Z</time>
      </trkpt>
      <trkpt lat="48.57682" lon="7.67965">
        <ele>143.3</ele>
        <time>2019-08-08T10:11:20Z</time>
      </trkpt>
      <trkpt lat="48.5768" lon="7.67971">
        <ele>143.4</ele>
        <time>2019-08-08T10:11:21Z</time>
      </trkpt>
      <trkpt lat="48.57678" lon="7.67977">
        <ele>143.4</ele>
        <time>2019-08-08T10:11:22Z</time>
      </trkpt>
      <trkpt lat="48.57676" lon="7.67983">
        <ele>143.4</ele>
        <time>2019-08-08T10:11:23Z</time>
      </trkpt>
      <trkpt lat="48.57674" lon="7.67989">
        <ele>143.5</ele>
        <time>2019-08-08T10:11:24Z</time>
      </trkpt>
      <trkpt lat="48.57672" lon="7.67995">
        <ele>143.6</ele>
        <time>2019-08-08T10:11:25Z</time>
      </trkpt>
      <trkpt lat="48.5767" lon="7.68001">
        <ele>143.6</ele>
        <time>2019-08-08T10:11:26Z</time>
      </trkpt>
      <trkpt lat="48.57669" lon="7.68006">
        <ele>143.7</ele>
        <time>2019-08-08T10:11:27Z</time>
      </trkpt>
      <trkpt lat="48.57668" lon="7.6801">
        <ele>143.8</ele>
        <time>2019-08-08T10:11:28Z</time>
      </trkpt>
      <trkpt lat="48.57666" lon="7.68015">
        <ele>143.8</ele>
        <time>2019-08-08T10:11:29Z</time>
      </trkpt>
      <trkpt lat="48.57664" lon="7.68019">
        <ele>143.9</ele>
        <time>2019-08-08T10:11:30Z</time>
      </trkpt>
      <trkpt lat="48.5766" lon="7.68024">
        <ele>144</ele>
        <time>2019-08-08T10:11:31Z</time>
      </trkpt>
      <trkpt lat="48.57658" lon="7.68029">
        <ele>144</ele>
        <time>2019-08-08T10:11:32Z</time>
      </trkpt>
      <trkpt lat="48.57655" lon="7.68036">
        <ele>144.1</ele>
        <time>2019-08-08T10:11:33Z</time>
      </trkpt>
      <trkpt lat="48.57652" lon="7.68042">
        <ele>144.1</ele>
        <time>2019-08-08T10:11:34Z</time>
      </trkpt>
      <trkpt lat="48.57648" lon="7.68048">
        <ele>144.2</ele>
        <time>2019-08-08T10:11:35Z</time>
      </trkpt>
      <trkpt lat="48.57645" lon="7.68056">
        <ele>144.1</ele>
        <time>2019-08-08T10:11:36Z</time>
      </trkpt>
      <trkpt lat="48.57643" lon="7.68064">
        <ele>144.1</ele>
        <time>2019-08-08T10:11:37Z</time>
      </trkpt>
      <trkpt lat="48.5764" lon="7.68071">
        <ele>144</ele>
        <time>2019-08-08T10:11:38Z</time>
      </trkpt>
      <trkpt lat="48.57638" lon="7.68079">
        <ele>144</ele>
        <time>2019-08-08T10:11:39Z</time>
      </trkpt>
      <trkpt lat="48.57636" lon="7.68086">
        <ele>143.9</ele>
        <time>2019-08-08T10:11:40Z</time>
      </trkpt>
      <trkpt lat="48.57634" lon="7.68093">
        <ele>143.8</ele>
        <time>2019-08-08T10:11:41Z</time>
      </trkpt>
      <trkpt lat="48.57632" lon="7.681">
        <ele>143.7</ele>
        <time>2019-08-08T10:11:42Z</time>
      </trkpt>
      <trkpt lat="48.57629" lon="7.68104">
        <ele>143.6</ele>
        <time>2019-08-08T10:11:43Z</time>
      </trkpt>
      <trkpt lat="48.57626" lon="7.68109">
        <ele>143.5</ele>
        <time>2019-08-08T10:11:44Z</time>
      </trkpt>
      <trkpt lat="48.57624" lon="7.68115">
        <ele>143.4</ele>
        <time>2019-08-08T10:11:45Z</time>
      </trkpt>
      <trkpt lat="48.57621" lon="7.6812">
        <ele>143.3</ele>
        <time>2019-08-08T10:11:46Z</time>
      </trkpt>
      <trkpt lat="48.57619" lon="7.68125">
        <ele>143.2</ele>
        <time>2019-08-08T10:11:47Z</time>
      </trkpt>
      <trkpt lat="48.57617" lon="7.6813">
        <ele>143.1</ele>
        <time>2019-08-08T10:11:48Z</time>
      </trkpt>
      <trkpt lat="48.57614" lon="7.68134">
        <ele>143</ele>
        <time>2019-08-08T10:11:49Z</time>
      </trkpt>
      <trkpt lat="48.57613" lon="7.68139">
        <ele>142.9</ele>
        <time>2019-08-08T10:11:50Z</time>
      </trkpt>
      <trkpt lat="48.57609" lon="7.68146">
        <ele>142.8</ele>
        <time>2019-08-08T10:11:51Z</time>
      </trkpt>
      <trkpt lat="48.57606" lon="7.68152">
        <ele>142.6</ele>
        <time>2019-08-08T10:11:52Z</time>
      </trkpt>
      <trkpt lat="48.57602" lon="7.68159">
        <ele>142.5</ele>
        <time>2019-08-08T10:11:53Z</time>
      </trkpt>
      <trkpt lat="48.57599" lon="7.68166">
        <ele>142.5</ele>
        <time>2019-08-08T10:11:54Z</time>
      </trkpt>
      <trkpt lat="48.57596" lon="7.68172">
        <ele>142.4</ele>
        <time>2019-08-08T10:11:55Z</time>
      </trkpt>
      <trkpt lat="48.57593" lon="7.68179">
        <ele>142.4</ele>
        <time>2019-08-08T10:11:56Z</time>
      </trkpt>
      <trkpt lat="48.57591" lon="7.68185">
        <ele>142.4</ele>
        <time>2019-08-08T10:11:57Z</time>
      </trkpt>
      <trkpt lat="48.57589" lon="7.68193">
        <ele>142.5</ele>
        <time>2019-08-08T10:11:58Z</time>
      </trkpt>
      <trkpt lat="48.57587" lon="7.682">
        <ele>142.5</ele>
        <time>2019-08-08T10:11:59Z</time>
      </trkpt>
      <trkpt lat="48.57585" lon="7.68205">
        <ele>142.6</ele>
        <time>2019-08-08T10:12:00Z</time>
      </trkpt>
      <trkpt lat="48.57583" lon="7.68209">
        <ele>142.6</ele>
        <time>2019-08-08T10:12:01Z</time>
      </trkpt>
      <trkpt lat="48.57581" lon="7.68212">
        <ele>142.6</ele>
        <time>2019-08-08T10:12:02Z</time>
      </trkpt>
      <trkpt lat="48.57578" lon="7.68216">
        <ele>142.7</ele>
        <time>2019-08-08T10:12:03Z</time>
      </trkpt>
      <trkpt lat="48.57576" lon="7.6822">
        <ele>142.7</ele>
        <time>2019-08-08T10:12:04Z</time>
      </trkpt>
      <trkpt lat="48.57573" lon="7.68224">
        <ele>142.7</ele>
        <time>2019-08-08T10:12:05Z</time>
      </trkpt>
      <trkpt lat="48.5757" lon="7.68228">
        <ele>142.8</ele>
        <time>2019-08-08T10:12:06Z</time>
      </trkpt>
      <trkpt lat="48.57567" lon="7.68231">
        <ele>142.8</ele>
        <time>2019-08-08T10:12:07Z</time>
      </trkpt>
      <trkpt lat="48.57563" lon="7.68235">
        <ele>142.8</ele>
        <time>2019-08-08T10:12:08Z</time>
      </trkpt>
      <trkpt lat="48.5756" lon="7.68238">
        <ele>142.8</ele>
        <time>2019-08-08T10:12:09Z</time>
      </trkpt>
      <trkpt lat="48.57556" lon="7.68243">
        <ele>142.8</ele>
        <time>2019-08-08T10:12:10Z</time>
      </trkpt>
      <trkpt lat="48.57554" lon="7.6825">
        <ele>142.8</ele>
        <time>2019-08-08T10:12:11Z</time>
      </trkpt>
      <trkpt lat="48.57551" lon="7.68257">
        <ele>142.7</ele>
        <time>2019-08-08T10:12:12Z</time>
      </trkpt>
      <trkpt lat="48.57547" lon="7.68265">
        <ele>142.7</ele>
        <time>2019-08-08T10:12:13Z</time>
      </trkpt>
      <trkpt lat="48.57544" lon="7.68274">
        <ele>142.7</ele>
        <time>2019-08-08T10:12:14Z</time>
      </trkpt>
      <trkpt lat="48.5754" lon="7.68284">
        <ele>142.7</ele>
        <time>2019-08-08T10:12:15Z</time>
      </trkpt>
      <trkpt lat="48.57537" lon="7.68292">
        <ele>142.6</ele>
        <time>2019-08-08T10:12:16Z</time>
      </trkpt>
      <trkpt lat="48.57536" lon="7.683">
        <ele>142.6</ele>
        <time>2019-08-08T10:12:17Z</time>
      </trkpt>
      <trkpt lat="48.57534" lon="7.68307">
        <ele>142.6</ele>
        <time>2019-08-08T10:12:18Z</time>
      </trkpt>
      <trkpt lat="48.57532" lon="7.68314">
        <ele>142.6</ele>
        <time>2019-08-08T10:12:19Z</time>
      </trkpt>
      <trkpt lat="48.5753" lon="7.68322">
        <ele>142.5</ele>
        <time>2019-08-08T10:12:20Z</time>
      </trkpt>
      <trkpt lat="48.57528" lon="7.6833">
        <ele>142.5</ele>
        <time>2019-08-08T10:12:21Z</time>
      </trkpt>
      <trkpt lat="48.57525" lon="7.68339">
        <ele>142.5</ele>
        <time>2019-08-08T10:12:22Z</time>
      </trkpt>
      <trkpt lat="48.57523" lon="7.68346">
        <ele>142.5</ele>
        <time>2019-08-08T10:12:23Z</time>
      </trkpt>
      <trkpt lat="48.57521" lon="7.68353">
        <ele>142.5</ele>
        <time>2019-08-08T10:12:24Z</time>
      </trkpt>
      <trkpt lat="48.57518" lon="7.68362">
        <ele>142.5</ele>
        <time>2019-08-08T10:12:25Z</time>
      </trkpt>
      <trkpt lat="48.57516" lon="7.68369">
        <ele>142.4</ele>
        <time>2019-08-08T10:12:26Z</time>
      </trkpt>
      <trkpt lat="48.57513" lon="7.68376">
        <ele>142.4</ele>
        <time>2019-08-08T10:12:27Z</time>
      </trkpt>
      <trkpt lat="48.5751" lon="7.68383">
        <ele>142.4</ele>
        <time>2019-08-08T10:12:28Z</time>
      </trkpt>
      <trkpt lat="48.57508" lon="7.68391">
        <ele>142.4</ele>
        <time>2019-08-08T10:12:29Z</time>
      </trkpt>
      <trkpt lat="48.57505" lon="7.684">
        <ele>142.4</ele>
        <time>2019-08-08T10:12:30Z</time>
      </trkpt>
      <trkpt lat="48.57503" lon="7.68408">
        <ele>142.4</ele>
        <time>2019-08-08T10:12:31Z</time>
      </trkpt>
      <trkpt lat="48.57501" lon="7.68415">
        <ele>142.4</ele>
        <time>2019-08-08T10:12:32Z</time>
      </trkpt>
      <trkpt lat="48.57498" lon="7.68421">
        <ele>142.4</ele>
        <time>2019-08-08T10:12:33Z</time>
      </trkpt>
      <trkpt lat="48.57496" lon="7.68428">
        <ele>142.4</ele>
        <time>2019-08-08T10:12:34Z</time>
      </trkpt>
      <trkpt lat="48.57494" lon="7.68435">
        <ele>142.4</ele>
        <time>2019-08-08T10:12:35Z</time>
      </trkpt>
      <trkpt lat="48.57492" lon="7.68442">
        <ele>142.4</ele>
        <time>2019-08-08T10:12:36Z</time>
      </trkpt>
      <trkpt lat="48.5749" lon="7.68449">
        <ele>142.4</ele>
        <time>2019-08-08T10:12:37Z</time>
      </trkpt>
      <trkpt lat="48.57489" lon="7.68455">
        <ele>142.4</ele>
        <time>2019-08-08T10:12:38Z</time>
      </trkpt>
      <trkpt lat="48.57488" lon="7.68462">
        <ele>142.4</ele>
        <time>2019-08-08T10:12:39Z</time>
      </trkpt>
      <trkpt lat="48.57487" lon="7.6847">
        <ele>142.4</ele>
        <time>2019-08-08T10:12:40Z</time>
      </trkpt>
      <trkpt lat="48.57486" lon="7.68479">
        <ele>142.4</ele>
        <time>2019-08-08T10:12:41Z</time>
      </trkpt>
      <trkpt lat="48.57485" lon="7.68487">
        <ele>142.4</ele>
        <time>2019-08-08T10:12:42Z</time>
      </trkpt>
      <trkpt lat="48.57484" lon="7.68495">
        <ele>142.4</ele>
        <time>2019-08-08T10:12:43Z</time>
      </trkpt>
      <trkpt lat="48.57483" lon="7.68503">
        <ele>142.4</ele>
        <time>2019-08-08T10:12:44Z</time>
      </trkpt>
      <trkpt lat="48.57482" lon="7.68512">
        <ele>142.4</ele>
        <time>2019-08-08T10:12:45Z</time>
      </trkpt>
      <trkpt lat="48.57482" lon="7.6852">
        <ele>142.3</ele>
        <time>2019-08-08T10:12:46Z</time>
      </trkpt>
      <trkpt lat="48.57481" lon="7.68527">
        <ele>142.3</ele>
        <time>2019-08-08T10:12:47Z</time>
      </trkpt>
      <trkpt lat="48.57481" lon="7.68535">
        <ele>142.2</ele>
        <time>2019-08-08T10:12:48Z</time>
      </trkpt>
      <trkpt lat="48.5748" lon="7.68542">
        <ele>142.2</ele>
        <time>2019-08-08T10:12:49Z</time>
      </trkpt>
      <trkpt lat="48.5748" lon="7.68549">
        <ele>142.1</ele>
        <time>2019-08-08T10:12:50Z</time>
      </trkpt>
      <trkpt lat="48.57479" lon="7.68557">
        <ele>142.1</ele>
        <time>2019-08-08T10:12:51Z</time>
      </trkpt>
      <trkpt lat="48.57479" lon="7.68565">
        <ele>142</ele>
        <time>2019-08-08T10:12:52Z</time>
      </trkpt>
      <trkpt lat="48.57479" lon="7.68572">
        <ele>141.9</ele>
        <time>2019-08-08T10:12:53Z</time>
      </trkpt>
      <trkpt lat="48.57478" lon="7.68579">
        <ele>141.8</ele>
        <time>2019-08-08T10:12:54Z</time>
      </trkpt>
      <trkpt lat="48.57478" lon="7.68585">
        <ele>141.7</ele>
        <time>2019-08-08T10:12:55Z</time>
      </trkpt>
      <trkpt lat="48.57477" lon="7.68591">
        <ele>141.6</ele>
        <time>2019-08-08T10:12:56Z</time>
      </trkpt>
      <trkpt lat="48.57477" lon="7.68598">
        <ele>141.5</ele>
        <time>2019-08-08T10:12:57Z</time>
      </trkpt>
      <trkpt lat="48.57475" lon="7.68605">
        <ele>141.3</ele>
        <time>2019-08-08T10:12:58Z</time>
      </trkpt>
      <trkpt lat="48.57474" lon="7.68612">
        <ele>141.2</ele>
        <time>2019-08-08T10:12:59Z</time>
      </trkpt>
      <trkpt lat="48.57473" lon="7.68619">
        <ele>141.2</ele>
        <time>2019-08-08T10:13:00Z</time>
      </trkpt>
      <trkpt lat="48.57472" lon="7.68628">
        <ele>141.1</ele>
        <time>2019-08-08T10:13:01Z</time>
      </trkpt>
      <trkpt lat="48.57471" lon="7.68635">
        <ele>141</ele>
        <time>2019-08-08T10:13:02Z</time>
      </trkpt>
      <trkpt lat="48.57469" lon="7.68642">
        <ele>140.9</ele>
        <time>2019-08-08T10:13:03Z</time>
      </trkpt>
      <trkpt lat="48.57468" lon="7.68648">
        <ele>140.9</ele>
        <time>2019-08-08T10:13:04Z</time>
      </trkpt>
      <trkpt lat="48.57467" lon="7.68654">
        <ele>140.9</ele>
        <time>2019-08-08T10:13:05Z</time>
      </trkpt>
      <trkpt lat="48.57466" lon="7.68658">
        <ele>141</ele>
        <time>2019-08-08T10:13:06Z</time>
      </trkpt>
      <trkpt lat="48.57466" lon="7.68662">
        <ele>141.1</ele>
        <time>2019-08-08T10:13:09Z</time>
      </trkpt>
      <trkpt lat="48.57466" lon="7.68666">
        <ele>141.1</ele>
        <time>2019-08-08T10:13:15Z</time>
      </trkpt>
      <trkpt lat="48.57463" lon="7.68671">
        <ele>141.3</ele>
        <time>2019-08-08T10:13:20Z</time>
      </trkpt>
      <trkpt lat="48.57462" lon="7.68679">
        <ele>141.4</ele>
        <time>2019-08-08T10:13:22Z</time>
      </trkpt>
      <trkpt lat="48.57461" lon="7.68683">
        <ele>141.5</ele>
        <time>2019-08-08T10:13:23Z</time>
      </trkpt>
      <trkpt lat="48.5746" lon="7.68688">
        <ele>141.7</ele>
        <time>2019-08-08T10:13:24Z</time>
      </trkpt>
      <trkpt lat="48.57458" lon="7.68693">
        <ele>141.7</ele>
        <time>2019-08-08T10:13:25Z</time>
      </trkpt>
      <trkpt lat="48.57457" lon="7.687">
        <ele>141.7</ele>
        <time>2019-08-08T10:13:26Z</time>
      </trkpt>
      <trkpt lat="48.57458" lon="7.68708">
        <ele>141.7</ele>
        <time>2019-08-08T10:13:27Z</time>
      </trkpt>
      <trkpt lat="48.57458" lon="7.68716">
        <ele>141.7</ele>
        <time>2019-08-08T10:13:28Z</time>
      </trkpt>
      <trkpt lat="48.57457" lon="7.68722">
        <ele>141.7</ele>
        <time>2019-08-08T10:13:29Z</time>
      </trkpt>
      <trkpt lat="48.57456" lon="7.68727">
        <ele>141.7</ele>
        <time>2019-08-08T10:13:30Z</time>
      </trkpt>
      <trkpt lat="48.57455" lon="7.68731">
        <ele>141.7</ele>
        <time>2019-08-08T10:13:31Z</time>
      </trkpt>
      <trkpt lat="48.57454" lon="7.68737">
        <ele>141.7</ele>
        <time>2019-08-08T10:13:32Z</time>
      </trkpt>
      <trkpt lat="48.57453" lon="7.68742">
        <ele>141.7</ele>
        <time>2019-08-08T10:13:33Z</time>
      </trkpt>
      <trkpt lat="48.57453" lon="7.6875">
        <ele>141.7</ele>
        <time>2019-08-08T10:13:34Z</time>
      </trkpt>
      <trkpt lat="48.57451" lon="7.68759">
        <ele>141.8</ele>
        <time>2019-08-08T10:13:35Z</time>
      </trkpt>
      <trkpt lat="48.5745" lon="7.68766">
        <ele>141.8</ele>
        <time>2019-08-08T10:13:36Z</time>
      </trkpt>
      <trkpt lat="48.57451" lon="7.68774">
        <ele>141.8</ele>
        <time>2019-08-08T10:13:37Z</time>
      </trkpt>
      <trkpt lat="48.57451" lon="7.68782">
        <ele>141.8</ele>
        <time>2019-08-08T10:13:38Z</time>
      </trkpt>
      <trkpt lat="48.5745" lon="7.6879">
        <ele>141.8</ele>
        <time>2019-08-08T10:13:39Z</time>
      </trkpt>
      <trkpt lat="48.57449" lon="7.68796">
        <ele>141.8</ele>
        <time>2019-08-08T10:13:40Z</time>
      </trkpt>
      <trkpt lat="48.57448" lon="7.68802">
        <ele>141.9</ele>
        <time>2019-08-08T10:13:41Z</time>
      </trkpt>
      <trkpt lat="48.57447" lon="7.6881">
        <ele>141.9</ele>
        <time>2019-08-08T10:13:42Z</time>
      </trkpt>
      <trkpt lat="48.57446" lon="7.68816">
        <ele>141.9</ele>
        <time>2019-08-08T10:13:43Z</time>
      </trkpt>
      <trkpt lat="48.57445" lon="7.68825">
        <ele>141.9</ele>
        <time>2019-08-08T10:13:44Z</time>
      </trkpt>
      <trkpt lat="48.57443" lon="7.68834">
        <ele>141.9</ele>
        <time>2019-08-08T10:13:45Z</time>
      </trkpt>
      <trkpt lat="48.57443" lon="7.68844">
        <ele>141.9</ele>
        <time>2019-08-08T10:13:46Z</time>
      </trkpt>
      <trkpt lat="48.57442" lon="7.68853">
        <ele>141.9</ele>
        <time>2019-08-08T10:13:47Z</time>
      </trkpt>
      <trkpt lat="48.57442" lon="7.68862">
        <ele>141.9</ele>
        <time>2019-08-08T10:13:48Z</time>
      </trkpt>
      <trkpt lat="48.57441" lon="7.6887">
        <ele>141.9</ele>
        <time>2019-08-08T10:13:49Z</time>
      </trkpt>
      <trkpt lat="48.5744" lon="7.68879">
        <ele>141.8</ele>
        <time>2019-08-08T10:13:50Z</time>
      </trkpt>
      <trkpt lat="48.57439" lon="7.68886">
        <ele>141.8</ele>
        <time>2019-08-08T10:13:51Z</time>
      </trkpt>
      <trkpt lat="48.57438" lon="7.68893">
        <ele>141.8</ele>
        <time>2019-08-08T10:13:52Z</time>
      </trkpt>
      <trkpt lat="48.57437" lon="7.68902">
        <ele>141.8</ele>
        <time>2019-08-08T10:13:53Z</time>
      </trkpt>
      <trkpt lat="48.57436" lon="7.68911">
        <ele>141.8</ele>
        <time>2019-08-08T10:13:54Z</time>
      </trkpt>
      <trkpt lat="48.57435" lon="7.68919">
        <ele>141.7</ele>
        <time>2019-08-08T10:13:55Z</time>
      </trkpt>
      <trkpt lat="48.57435" lon="7.68927">
        <ele>141.7</ele>
        <time>2019-08-08T10:13:56Z</time>
      </trkpt>
      <trkpt lat="48.57435" lon="7.68937">
        <ele>141.7</ele>
        <time>2019-08-08T10:13:57Z</time>
      </trkpt>
      <trkpt lat="48.57435" lon="7.68944">
        <ele>141.7</ele>
        <time>2019-08-08T10:13:58Z</time>
      </trkpt>
      <trkpt lat="48.57436" lon="7.68952">
        <ele>141.7</ele>
        <time>2019-08-08T10:13:59Z</time>
      </trkpt>
      <trkpt lat="48.57436" lon="7.6896">
        <ele>141.7</ele>
        <time>2019-08-08T10:14:00Z</time>
      </trkpt>
      <trkpt lat="48.57435" lon="7.68968">
        <ele>141.7</ele>
        <time>2019-08-08T10:14:01Z</time>
      </trkpt>
      <trkpt lat="48.57434" lon="7.68977">
        <ele>141.7</ele>
        <time>2019-08-08T10:14:02Z</time>
      </trkpt>
      <trkpt lat="48.57433" lon="7.68986">
        <ele>141.7</ele>
        <time>2019-08-08T10:14:03Z</time>
      </trkpt>
      <trkpt lat="48.57432" lon="7.68995">
        <ele>141.7</ele>
        <time>2019-08-08T10:14:04Z</time>
      </trkpt>
      <trkpt lat="48.57431" lon="7.69003">
        <ele>141.7</ele>
        <time>2019-08-08T10:14:05Z</time>
      </trkpt>
      <trkpt lat="48.57431" lon="7.69012">
        <ele>141.7</ele>
        <time>2019-08-08T10:14:06Z</time>
      </trkpt>
      <trkpt lat="48.5743" lon="7.69022">
        <ele>141.7</ele>
        <time>2019-08-08T10:14:07Z</time>
      </trkpt>
      <trkpt lat="48.57429" lon="7.69028">
        <ele>141.7</ele>
        <time>2019-08-08T10:14:08Z</time>
      </trkpt>
      <trkpt lat="48.57427" lon="7.69032">
        <ele>141.7</ele>
        <time>2019-08-08T10:14:09Z</time>
      </trkpt>
      <trkpt lat="48.57426" lon="7.6904">
        <ele>141.7</ele>
        <time>2019-08-08T10:14:10Z</time>
      </trkpt>
      <trkpt lat="48.57425" lon="7.69046">
        <ele>141.7</ele>
        <time>2019-08-08T10:14:11Z</time>
      </trkpt>
      <trkpt lat="48.57423" lon="7.69053">
        <ele>141.7</ele>
        <time>2019-08-08T10:14:12Z</time>
      </trkpt>
      <trkpt lat="48.57423" lon="7.6906">
        <ele>141.6</ele>
        <time>2019-08-08T10:14:13Z</time>
      </trkpt>
      <trkpt lat="48.57422" lon="7.69067">
        <ele>141.5</ele>
        <time>2019-08-08T10:14:14Z</time>
      </trkpt>
      <trkpt lat="48.57421" lon="7.69075">
        <ele>141.4</ele>
        <time>2019-08-08T10:14:15Z</time>
      </trkpt>
      <trkpt lat="48.5742" lon="7.69083">
        <ele>141.3</ele>
        <time>2019-08-08T10:14:16Z</time>
      </trkpt>
      <trkpt lat="48.5742" lon="7.6909">
        <ele>141.1</ele>
        <time>2019-08-08T10:14:17Z</time>
      </trkpt>
      <trkpt lat="48.5742" lon="7.69099">
        <ele>141.1</ele>
        <time>2019-08-08T10:14:18Z</time>
      </trkpt>
      <trkpt lat="48.57421" lon="7.69107">
        <ele>141.1</ele>
        <time>2019-08-08T10:14:19Z</time>
      </trkpt>
      <trkpt lat="48.57422" lon="7.69115">
        <ele>141.1</ele>
        <time>2019-08-08T10:14:20Z</time>
      </trkpt>
      <trkpt lat="48.57424" lon="7.69122">
        <ele>141</ele>
        <time>2019-08-08T10:14:21Z</time>
      </trkpt>
      <trkpt lat="48.57427" lon="7.69128">
        <ele>141</ele>
        <time>2019-08-08T10:14:22Z</time>
      </trkpt>
      <trkpt lat="48.57432" lon="7.69135">
        <ele>141</ele>
        <time>2019-08-08T10:14:23Z</time>
      </trkpt>
      <trkpt lat="48.57435" lon="7.69143">
        <ele>141</ele>
        <time>2019-08-08T10:14:24Z</time>
      </trkpt>
      <trkpt lat="48.57438" lon="7.69151">
        <ele>141</ele>
        <time>2019-08-08T10:14:25Z</time>
      </trkpt>
      <trkpt lat="48.57441" lon="7.69159">
        <ele>141</ele>
        <time>2019-08-08T10:14:26Z</time>
      </trkpt>
      <trkpt lat="48.57444" lon="7.69164">
        <ele>141</ele>
        <time>2019-08-08T10:14:27Z</time>
      </trkpt>
      <trkpt lat="48.57447" lon="7.6917">
        <ele>141</ele>
        <time>2019-08-08T10:14:28Z</time>
      </trkpt>
      <trkpt lat="48.57451" lon="7.69173">
        <ele>141.1</ele>
        <time>2019-08-08T10:14:29Z</time>
      </trkpt>
      <trkpt lat="48.57454" lon="7.69177">
        <ele>141.1</ele>
        <time>2019-08-08T10:14:30Z</time>
      </trkpt>
      <trkpt lat="48.57456" lon="7.69181">
        <ele>141.2</ele>
        <time>2019-08-08T10:14:31Z</time>
      </trkpt>
      <trkpt lat="48.57458" lon="7.69185">
        <ele>141.2</ele>
        <time>2019-08-08T10:14:32Z</time>
      </trkpt>
      <trkpt lat="48.57459" lon="7.6919">
        <ele>141.3</ele>
        <time>2019-08-08T10:14:34Z</time>
      </trkpt>
      <trkpt lat="48.57458" lon="7.69199">
        <ele>141.4</ele>
        <time>2019-08-08T10:14:36Z</time>
      </trkpt>
      <trkpt lat="48.57457" lon="7.69206">
        <ele>141.5</ele>
        <time>2019-08-08T10:14:37Z</time>
      </trkpt>
      <trkpt lat="48.57455" lon="7.69214">
        <ele>141.6</ele>
        <time>2019-08-08T10:14:38Z</time>
      </trkpt>
      <trkpt lat="48.57453" lon="7.6922">
        <ele>141.6</ele>
        <time>2019-08-08T10:14:39Z</time>
      </trkpt>
      <trkpt lat="48.57451" lon="7.69226">
        <ele>141.7</ele>
        <time>2019-08-08T10:14:40Z</time>
      </trkpt>
      <trkpt lat="48.57448" lon="7.69232">
        <ele>141.8</ele>
        <time>2019-08-08T10:14:41Z</time>
      </trkpt>
      <trkpt lat="48.57445" lon="7.69237">
        <ele>141.8</ele>
        <time>2019-08-08T10:14:42Z</time>
      </trkpt>
      <trkpt lat="48.57441" lon="7.69242">
        <ele>141.9</ele>
        <time>2019-08-08T10:14:43Z</time>
      </trkpt>
      <trkpt lat="48.57439" lon="7.69248">
        <ele>142</ele>
        <time>2019-08-08T10:14:44Z</time>
      </trkpt>
      <trkpt lat="48.57436" lon="7.69256">
        <ele>142.1</ele>
        <time>2019-08-08T10:14:45Z</time>
      </trkpt>
      <trkpt lat="48.57434" lon="7.69263">
        <ele>142.2</ele>
        <time>2019-08-08T10:14:46Z</time>
      </trkpt>
      <trkpt lat="48.57431" lon="7.6927">
        <ele>142.3</ele>
        <time>2019-08-08T10:14:47Z</time>
      </trkpt>
      <trkpt lat="48.57429" lon="7.69276">
        <ele>142.3</ele>
        <time>2019-08-08T10:14:48Z</time>
      </trkpt>
      <trkpt lat="48.57426" lon="7.69282">
        <ele>142.4</ele>
        <time>2019-08-08T10:14:49Z</time>
      </trkpt>
      <trkpt lat="48.57424" lon="7.69287">
        <ele>142.5</ele>
        <time>2019-08-08T10:14:50Z</time>
      </trkpt>
      <trkpt lat="48.57422" lon="7.69292">
        <ele>142.5</ele>
        <time>2019-08-08T10:14:51Z</time>
      </trkpt>
      <trkpt lat="48.5742" lon="7.69297">
        <ele>142.6</ele>
        <time>2019-08-08T10:14:52Z</time>
      </trkpt>
      <trkpt lat="48.57419" lon="7.69301">
        <ele>142.6</ele>
        <time>2019-08-08T10:14:53Z</time>
      </trkpt>
      <trkpt lat="48.57414" lon="7.69307">
        <ele>142.8</ele>
        <time>2019-08-08T10:14:54Z</time>
      </trkpt>
      <trkpt lat="48.57411" lon="7.69311">
        <ele>142.8</ele>
        <time>2019-08-08T10:14:55Z</time>
      </trkpt>
      <trkpt lat="48.57407" lon="7.69318">
        <ele>142.8</ele>
        <time>2019-08-08T10:14:57Z</time>
      </trkpt>
      <trkpt lat="48.57406" lon="7.69325">
        <ele>142.9</ele>
        <time>2019-08-08T10:14:58Z</time>
      </trkpt>
      <trkpt lat="48.57403" lon="7.69336">
        <ele>142.9</ele>
        <time>2019-08-08T10:14:59Z</time>
      </trkpt>
      <trkpt lat="48.57402" lon="7.69345">
        <ele>142.9</ele>
        <time>2019-08-08T10:15:00Z</time>
      </trkpt>
      <trkpt lat="48.57402" lon="7.69354">
        <ele>142.8</ele>
        <time>2019-08-08T10:15:01Z</time>
      </trkpt>
      <trkpt lat="48.57401" lon="7.69363">
        <ele>142.8</ele>
        <time>2019-08-08T10:15:02Z</time>
      </trkpt>
      <trkpt lat="48.574" lon="7.69372">
        <ele>142.9</ele>
        <time>2019-08-08T10:15:03Z</time>
      </trkpt>
      <trkpt lat="48.57399" lon="7.6938">
        <ele>143</ele>
        <time>2019-08-08T10:15:04Z</time>
      </trkpt>
      <trkpt lat="48.57397" lon="7.69388">
        <ele>143.2</ele>
        <time>2019-08-08T10:15:05Z</time>
      </trkpt>
      <trkpt lat="48.57397" lon="7.69397">
        <ele>143.4</ele>
        <time>2019-08-08T10:15:06Z</time>
      </trkpt>
      <trkpt lat="48.57398" lon="7.69406">
        <ele>143.5</ele>
        <time>2019-08-08T10:15:07Z</time>
      </trkpt>
      <trkpt lat="48.57399" lon="7.69416">
        <ele>143.6</ele>
        <time>2019-08-08T10:15:08Z</time>
      </trkpt>
      <trkpt lat="48.57399" lon="7.69426">
        <ele>143.6</ele>
        <time>2019-08-08T10:15:09Z</time>
      </trkpt>
      <trkpt lat="48.57402" lon="7.69435">
        <ele>143.7</ele>
        <time>2019-08-08T10:15:10Z</time>
      </trkpt>
      <trkpt lat="48.57406" lon="7.69446">
        <ele>143.7</ele>
        <time>2019-08-08T10:15:11Z</time>
      </trkpt>
      <trkpt lat="48.5741" lon="7.69456">
        <ele>143.7</ele>
        <time>2019-08-08T10:15:12Z</time>
      </trkpt>
      <trkpt lat="48.57413" lon="7.69463">
        <ele>143.7</ele>
        <time>2019-08-08T10:15:13Z</time>
      </trkpt>
      <trkpt lat="48.57419" lon="7.6947">
        <ele>143.7</ele>
        <time>2019-08-08T10:15:14Z</time>
      </trkpt>
      <trkpt lat="48.57425" lon="7.6948">
        <ele>143.7</ele>
        <time>2019-08-08T10:15:15Z</time>
      </trkpt>
      <trkpt lat="48.57431" lon="7.69486">
        <ele>143.7</ele>
        <time>2019-08-08T10:15:16Z</time>
      </trkpt>
      <trkpt lat="48.57436" lon="7.69495">
        <ele>143.7</ele>
        <time>2019-08-08T10:15:17Z</time>
      </trkpt>
      <trkpt lat="48.57442" lon="7.69502">
        <ele>143.7</ele>
        <time>2019-08-08T10:15:18Z</time>
      </trkpt>
      <trkpt lat="48.57447" lon="7.69509">
        <ele>143.7</ele>
        <time>2019-08-08T10:15:19Z</time>
      </trkpt>
      <trkpt lat="48.57453" lon="7.69514">
        <ele>143.7</ele>
        <time>2019-08-08T10:15:20Z</time>
      </trkpt>
      <trkpt lat="48.57458" lon="7.69521">
        <ele>143.7</ele>
        <time>2019-08-08T10:15:21Z</time>
      </trkpt>
      <trkpt lat="48.57463" lon="7.69526">
        <ele>143.7</ele>
        <time>2019-08-08T10:15:22Z</time>
      </trkpt>
      <trkpt lat="48.57467" lon="7.69532">
        <ele>143.7</ele>
        <time>2019-08-08T10:15:23Z</time>
      </trkpt>
      <trkpt lat="48.57473" lon="7.69535">
        <ele>143.7</ele>
        <time>2019-08-08T10:15:24Z</time>
      </trkpt>
      <trkpt lat="48.57479" lon="7.69536">
        <ele>143.7</ele>
        <time>2019-08-08T10:15:25Z</time>
      </trkpt>
      <trkpt lat="48.57484" lon="7.6954">
        <ele>143.7</ele>
        <time>2019-08-08T10:15:26Z</time>
      </trkpt>
      <trkpt lat="48.57489" lon="7.69544">
        <ele>143.7</ele>
        <time>2019-08-08T10:15:27Z</time>
      </trkpt>
      <trkpt lat="48.57494" lon="7.69547">
        <ele>143.7</ele>
        <time>2019-08-08T10:15:28Z</time>
      </trkpt>
      <trkpt lat="48.57499" lon="7.69552">
        <ele>143.7</ele>
        <time>2019-08-08T10:15:29Z</time>
      </trkpt>
      <trkpt lat="48.57504" lon="7.69556">
        <ele>143.7</ele>
        <time>2019-08-08T10:15:30Z</time>
      </trkpt>
      <trkpt lat="48.57509" lon="7.69559">
        <ele>143.7</ele>
        <time>2019-08-08T10:15:31Z</time>
      </trkpt>
      <trkpt lat="48.57512" lon="7.69563">
        <ele>143.7</ele>
        <time>2019-08-08T10:15:32Z</time>
      </trkpt>
      <trkpt lat="48.57516" lon="7.69567">
        <ele>143.7</ele>
        <time>2019-08-08T10:15:33Z</time>
      </trkpt>
      <trkpt lat="48.57519" lon="7.69569">
        <ele>143.8</ele>
        <time>2019-08-08T10:15:34Z</time>
      </trkpt>
      <trkpt lat="48.57523" lon="7.69573">
        <ele>143.8</ele>
        <time>2019-08-08T10:15:35Z</time>
      </trkpt>
      <trkpt lat="48.57528" lon="7.69575">
        <ele>143.8</ele>
        <time>2019-08-08T10:15:36Z</time>
      </trkpt>
      <trkpt lat="48.57532" lon="7.69578">
        <ele>143.8</ele>
        <time>2019-08-08T10:15:37Z</time>
      </trkpt>
      <trkpt lat="48.57536" lon="7.69582">
        <ele>143.8</ele>
        <time>2019-08-08T10:15:38Z</time>
      </trkpt>
      <trkpt lat="48.57541" lon="7.69587">
        <ele>143.8</ele>
        <time>2019-08-08T10:15:39Z</time>
      </trkpt>
      <trkpt lat="48.57546" lon="7.69592">
        <ele>143.8</ele>
        <time>2019-08-08T10:15:40Z</time>
      </trkpt>
      <trkpt lat="48.57548" lon="7.69596">
        <ele>143.8</ele>
        <time>2019-08-08T10:15:41Z</time>
      </trkpt>
      <trkpt lat="48.57553" lon="7.69601">
        <ele>143.8</ele>
        <time>2019-08-08T10:15:43Z</time>
      </trkpt>
      <trkpt lat="48.57556" lon="7.69606">
        <ele>143.8</ele>
        <time>2019-08-08T10:15:44Z</time>
      </trkpt>
      <trkpt lat="48.57557" lon="7.69613">
        <ele>143.8</ele>
        <time>2019-08-08T10:15:45Z</time>
      </trkpt>
      <trkpt lat="48.57558" lon="7.69624">
        <ele>143.8</ele>
        <time>2019-08-08T10:15:46Z</time>
      </trkpt>
      <trkpt lat="48.57558" lon="7.69635">
        <ele>143.8</ele>
        <time>2019-08-08T10:15:47Z</time>
      </trkpt>
      <trkpt lat="48.57559" lon="7.69646">
        <ele>143.8</ele>
        <time>2019-08-08T10:15:48Z</time>
      </trkpt>
      <trkpt lat="48.5756" lon="7.69652">
        <ele>143.8</ele>
        <time>2019-08-08T10:15:49Z</time>
      </trkpt>
      <trkpt lat="48.5756" lon="7.69659">
        <ele>143.8</ele>
        <time>2019-08-08T10:15:50Z</time>
      </trkpt>
      <trkpt lat="48.5756" lon="7.69665">
        <ele>143.8</ele>
        <time>2019-08-08T10:15:51Z</time>
      </trkpt>
      <trkpt lat="48.5756" lon="7.69672">
        <ele>143.8</ele>
        <time>2019-08-08T10:15:52Z</time>
      </trkpt>
      <trkpt lat="48.57559" lon="7.69678">
        <ele>143.8</ele>
        <time>2019-08-08T10:15:53Z</time>
      </trkpt>
      <trkpt lat="48.57558" lon="7.69684">
        <ele>143.8</ele>
        <time>2019-08-08T10:15:54Z</time>
      </trkpt>
      <trkpt lat="48.57556" lon="7.69689">
        <ele>143.8</ele>
        <time>2019-08-08T10:15:55Z</time>
      </trkpt>
      <trkpt lat="48.57555" lon="7.69698">
        <ele>143.8</ele>
        <time>2019-08-08T10:15:56Z</time>
      </trkpt>
      <trkpt lat="48.57551" lon="7.69705">
        <ele>143.8</ele>
        <time>2019-08-08T10:15:57Z</time>
      </trkpt>
      <trkpt lat="48.57548" lon="7.69712">
        <ele>143.8</ele>
        <time>2019-08-08T10:15:58Z</time>
      </trkpt>
      <trkpt lat="48.57546" lon="7.69719">
        <ele>143.8</ele>
        <time>2019-08-08T10:15:59Z</time>
      </trkpt>
      <trkpt lat="48.57544" lon="7.69724">
        <ele>143.8</ele>
        <time>2019-08-08T10:16:00Z</time>
      </trkpt>
      <trkpt lat="48.57541" lon="7.6973">
        <ele>143.8</ele>
        <time>2019-08-08T10:16:01Z</time>
      </trkpt>
      <trkpt lat="48.57537" lon="7.69735">
        <ele>143.8</ele>
        <time>2019-08-08T10:16:02Z</time>
      </trkpt>
      <trkpt lat="48.57534" lon="7.6974">
        <ele>143.8</ele>
        <time>2019-08-08T10:16:03Z</time>
      </trkpt>
      <trkpt lat="48.57532" lon="7.69743">
        <ele>143.8</ele>
        <time>2019-08-08T10:16:04Z</time>
      </trkpt>
      <trkpt lat="48.57528" lon="7.69746">
        <ele>143.8</ele>
        <time>2019-08-08T10:16:05Z</time>
      </trkpt>
      <trkpt lat="48.57524" lon="7.6975">
        <ele>143.8</ele>
        <time>2019-08-08T10:16:06Z</time>
      </trkpt>
      <trkpt lat="48.57518" lon="7.69757">
        <ele>143.8</ele>
        <time>2019-08-08T10:16:07Z</time>
      </trkpt>
      <trkpt lat="48.57514" lon="7.69764">
        <ele>143.8</ele>
        <time>2019-08-08T10:16:08Z</time>
      </trkpt>
      <trkpt lat="48.5751" lon="7.6977">
        <ele>143.8</ele>
        <time>2019-08-08T10:16:09Z</time>
      </trkpt>
      <trkpt lat="48.57506" lon="7.69776">
        <ele>143.8</ele>
        <time>2019-08-08T10:16:10Z</time>
      </trkpt>
      <trkpt lat="48.57503" lon="7.6978">
        <ele>143.8</ele>
        <time>2019-08-08T10:16:11Z</time>
      </trkpt>
      <trkpt lat="48.57499" lon="7.69786">
        <ele>143.8</ele>
        <time>2019-08-08T10:16:12Z</time>
      </trkpt>
      <trkpt lat="48.57495" lon="7.69791">
        <ele>143.8</ele>
        <time>2019-08-08T10:16:13Z</time>
      </trkpt>
      <trkpt lat="48.57492" lon="7.69796">
        <ele>143.8</ele>
        <time>2019-08-08T10:16:14Z</time>
      </trkpt>
      <trkpt lat="48.57488" lon="7.698">
        <ele>143.8</ele>
        <time>2019-08-08T10:16:15Z</time>
      </trkpt>
      <trkpt lat="48.57484" lon="7.69804">
        <ele>143.8</ele>
        <time>2019-08-08T10:16:16Z</time>
      </trkpt>
      <trkpt lat="48.57481" lon="7.69808">
        <ele>143.8</ele>
        <time>2019-08-08T10:16:17Z</time>
      </trkpt>
      <trkpt lat="48.57477" lon="7.69812">
        <ele>143.8</ele>
        <time>2019-08-08T10:16:18Z</time>
      </trkpt>
      <trkpt lat="48.57472" lon="7.69814">
        <ele>143.8</ele>
        <time>2019-08-08T10:16:19Z</time>
      </trkpt>
      <trkpt lat="48.57468" lon="7.69817">
        <ele>143.8</ele>
        <time>2019-08-08T10:16:20Z</time>
      </trkpt>
      <trkpt lat="48.57464" lon="7.6982">
        <ele>143.8</ele>
        <time>2019-08-08T10:16:21Z</time>
      </trkpt>
      <trkpt lat="48.57459" lon="7.69824">
        <ele>143.8</ele>
        <time>2019-08-08T10:16:22Z</time>
      </trkpt>
      <trkpt lat="48.57454" lon="7.69827">
        <ele>143.8</ele>
        <time>2019-08-08T10:16:23Z</time>
      </trkpt>
      <trkpt lat="48.57449" lon="7.69831">
        <ele>143.8</ele>
        <time>2019-08-08T10:16:24Z</time>
      </trkpt>
      <trkpt lat="48.57444" lon="7.69835">
        <ele>143.8</ele>
        <time>2019-08-08T10:16:25Z</time>
      </trkpt>
      <trkpt lat="48.57439" lon="7.69838">
        <ele>143.7</ele>
        <time>2019-08-08T10:16:26Z</time>
      </trkpt>
      <trkpt lat="48.57435" lon="7.69841">
        <ele>143.6</ele>
        <time>2019-08-08T10:16:27Z</time>
      </trkpt>
      <trkpt lat="48.5743" lon="7.69844">
        <ele>143.5</ele>
        <time>2019-08-08T10:16:28Z</time>
      </trkpt>
      <trkpt lat="48.57425" lon="7.69846">
        <ele>143.4</ele>
        <time>2019-08-08T10:16:29Z</time>
      </trkpt>
      <trkpt lat="48.57419" lon="7.69848">
        <ele>143.2</ele>
        <time>2019-08-08T10:16:30Z</time>
      </trkpt>
      <trkpt lat="48.57414" lon="7.6985">
        <ele>143.1</ele>
        <time>2019-08-08T10:16:31Z</time>
      </trkpt>
      <trkpt lat="48.57409" lon="7.69852">
        <ele>143</ele>
        <time>2019-08-08T10:16:32Z</time>
      </trkpt>
      <trkpt lat="48.57404" lon="7.69853">
        <ele>142.9</ele>
        <time>2019-08-08T10:16:33Z</time>
      </trkpt>
      <trkpt lat="48.57399" lon="7.69856">
        <ele>142.8</ele>
        <time>2019-08-08T10:16:34Z</time>
      </trkpt>
      <trkpt lat="48.57395" lon="7.69858">
        <ele>142.8</ele>
        <time>2019-08-08T10:16:35Z</time>
      </trkpt>
      <trkpt lat="48.5739" lon="7.69862">
        <ele>142.8</ele>
        <time>2019-08-08T10:16:36Z</time>
      </trkpt>
      <trkpt lat="48.57386" lon="7.69866">
        <ele>142.8</ele>
        <time>2019-08-08T10:16:37Z</time>
      </trkpt>
      <trkpt lat="48.57381" lon="7.69871">
        <ele>142.8</ele>
        <time>2019-08-08T10:16:38Z</time>
      </trkpt>
      <trkpt lat="48.57376" lon="7.69875">
        <ele>142.8</ele>
        <time>2019-08-08T10:16:39Z</time>
      </trkpt>
      <trkpt lat="48.57371" lon="7.69878">
        <ele>142.8</ele>
        <time>2019-08-08T10:16:40Z</time>
      </trkpt>
      <trkpt lat="48.57366" lon="7.69883">
        <ele>142.8</ele>
        <time>2019-08-08T10:16:41Z</time>
      </trkpt>
      <trkpt lat="48.57362" lon="7.69887">
        <ele>142.8</ele>
        <time>2019-08-08T10:16:42Z</time>
      </trkpt>
      <trkpt lat="48.57358" lon="7.6989">
        <ele>142.8</ele>
        <time>2019-08-08T10:16:43Z</time>
      </trkpt>
      <trkpt lat="48.57354" lon="7.69894">
        <ele>142.8</ele>
        <time>2019-08-08T10:16:44Z</time>
      </trkpt>
      <trkpt lat="48.57351" lon="7.69896">
        <ele>142.8</ele>
        <time>2019-08-08T10:16:45Z</time>
      </trkpt>
      <trkpt lat="48.57348" lon="7.69899">
        <ele>142.8</ele>
        <time>2019-08-08T10:16:46Z</time>
      </trkpt>
      <trkpt lat="48.57344" lon="7.69903">
        <ele>142.8</ele>
        <time>2019-08-08T10:16:47Z</time>
      </trkpt>
      <trkpt lat="48.5734" lon="7.69907">
        <ele>142.8</ele>
        <time>2019-08-08T10:16:48Z</time>
      </trkpt>
      <trkpt lat="48.57336" lon="7.69908">
        <ele>142.8</ele>
        <time>2019-08-08T10:16:49Z</time>
      </trkpt>
      <trkpt lat="48.5733" lon="7.69914">
        <ele>142.8</ele>
        <time>2019-08-08T10:16:50Z</time>
      </trkpt>
      <trkpt lat="48.57326" lon="7.69918">
        <ele>142.8</ele>
        <time>2019-08-08T10:16:51Z</time>
      </trkpt>
      <trkpt lat="48.57322" lon="7.69922">
        <ele>142.7</ele>
        <time>2019-08-08T10:16:52Z</time>
      </trkpt>
      <trkpt lat="48.57316" lon="7.69925">
        <ele>142.7</ele>
        <time>2019-08-08T10:16:53Z</time>
      </trkpt>
      <trkpt lat="48.57311" lon="7.69929">
        <ele>142.5</ele>
        <time>2019-08-08T10:16:54Z</time>
      </trkpt>
      <trkpt lat="48.57307" lon="7.69933">
        <ele>142.4</ele>
        <time>2019-08-08T10:16:55Z</time>
      </trkpt>
      <trkpt lat="48.57302" lon="7.69937">
        <ele>142.2</ele>
        <time>2019-08-08T10:16:56Z</time>
      </trkpt>
      <trkpt lat="48.57298" lon="7.69943">
        <ele>142</ele>
        <time>2019-08-08T10:16:57Z</time>
      </trkpt>
      <trkpt lat="48.57295" lon="7.69946">
        <ele>141.9</ele>
        <time>2019-08-08T10:16:58Z</time>
      </trkpt>
      <trkpt lat="48.57291" lon="7.6995">
        <ele>141.8</ele>
        <time>2019-08-08T10:16:59Z</time>
      </trkpt>
      <trkpt lat="48.57288" lon="7.69954">
        <ele>141.8</ele>
        <time>2019-08-08T10:17:00Z</time>
      </trkpt>
      <trkpt lat="48.57284" lon="7.69958">
        <ele>141.8</ele>
        <time>2019-08-08T10:17:01Z</time>
      </trkpt>
      <trkpt lat="48.5728" lon="7.69963">
        <ele>141.7</ele>
        <time>2019-08-08T10:17:02Z</time>
      </trkpt>
      <trkpt lat="48.57276" lon="7.69968">
        <ele>141.7</ele>
        <time>2019-08-08T10:17:03Z</time>
      </trkpt>
      <trkpt lat="48.57272" lon="7.69974">
        <ele>141.7</ele>
        <time>2019-08-08T10:17:04Z</time>
      </trkpt>
      <trkpt lat="48.5727" lon="7.6998">
        <ele>141.7</ele>
        <time>2019-08-08T10:17:05Z</time>
      </trkpt>
      <trkpt lat="48.57266" lon="7.69987">
        <ele>141.8</ele>
        <time>2019-08-08T10:17:06Z</time>
      </trkpt>
      <trkpt lat="48.57263" lon="7.69994">
        <ele>141.8</ele>
        <time>2019-08-08T10:17:07Z</time>
      </trkpt>
      <trkpt lat="48.5726" lon="7.70004">
        <ele>141.9</ele>
        <time>2019-08-08T10:17:08Z</time>
      </trkpt>
      <trkpt lat="48.5726" lon="7.70012">
        <ele>142</ele>
        <time>2019-08-08T10:17:09Z</time>
      </trkpt>
      <trkpt lat="48.57261" lon="7.7002">
        <ele>142.1</ele>
        <time>2019-08-08T10:17:10Z</time>
      </trkpt>
      <trkpt lat="48.57259" lon="7.70028">
        <ele>142.2</ele>
        <time>2019-08-08T10:17:11Z</time>
      </trkpt>
      <trkpt lat="48.57259" lon="7.70035">
        <ele>142.3</ele>
        <time>2019-08-08T10:17:12Z</time>
      </trkpt>
      <trkpt lat="48.57259" lon="7.70042">
        <ele>142.4</ele>
        <time>2019-08-08T10:17:13Z</time>
      </trkpt>
      <trkpt lat="48.5726" lon="7.70049">
        <ele>142.5</ele>
        <time>2019-08-08T10:17:14Z</time>
      </trkpt>
      <trkpt lat="48.5726" lon="7.70056">
        <ele>142.6</ele>
        <time>2019-08-08T10:17:15Z</time>
      </trkpt>
      <trkpt lat="48.5726" lon="7.70062">
        <ele>142.7</ele>
        <time>2019-08-08T10:17:16Z</time>
      </trkpt>
      <trkpt lat="48.5726" lon="7.70069">
        <ele>142.7</ele>
        <time>2019-08-08T10:17:17Z</time>
      </trkpt>
      <trkpt lat="48.57261" lon="7.70076">
        <ele>142.7</ele>
        <time>2019-08-08T10:17:18Z</time>
      </trkpt>
      <trkpt lat="48.57261" lon="7.70083">
        <ele>142.7</ele>
        <time>2019-08-08T10:17:19Z</time>
      </trkpt>
      <trkpt lat="48.57261" lon="7.70091">
        <ele>142.7</ele>
        <time>2019-08-08T10:17:20Z</time>
      </trkpt>
      <trkpt lat="48.57261" lon="7.70098">
        <ele>142.6</ele>
        <time>2019-08-08T10:17:21Z</time>
      </trkpt>
      <trkpt lat="48.57261" lon="7.70106">
        <ele>142.5</ele>
        <time>2019-08-08T10:17:22Z</time>
      </trkpt>
      <trkpt lat="48.5726" lon="7.70113">
        <ele>142.4</ele>
        <time>2019-08-08T10:17:23Z</time>
      </trkpt>
      <trkpt lat="48.57259" lon="7.7012">
        <ele>142.3</ele>
        <time>2019-08-08T10:17:24Z</time>
      </trkpt>
      <trkpt lat="48.57258" lon="7.70125">
        <ele>142.2</ele>
        <time>2019-08-08T10:17:25Z</time>
      </trkpt>
      <trkpt lat="48.57255" lon="7.70133">
        <ele>142.1</ele>
        <time>2019-08-08T10:17:26Z</time>
      </trkpt>
      <trkpt lat="48.57252" lon="7.70139">
        <ele>142.1</ele>
        <time>2019-08-08T10:17:27Z</time>
      </trkpt>
      <trkpt lat="48.5725" lon="7.70144">
        <ele>142</ele>
        <time>2019-08-08T10:17:28Z</time>
      </trkpt>
      <trkpt lat="48.57249" lon="7.70148">
        <ele>142</ele>
        <time>2019-08-08T10:17:29Z</time>
      </trkpt>
      <trkpt lat="48.57247" lon="7.70152">
        <ele>141.9</ele>
        <time>2019-08-08T10:17:30Z</time>
      </trkpt>
      <trkpt lat="48.57245" lon="7.70157">
        <ele>141.9</ele>
        <time>2019-08-08T10:17:31Z</time>
      </trkpt>
      <trkpt lat="48.57243" lon="7.70162">
        <ele>141.8</ele>
        <time>2019-08-08T10:17:32Z</time>
      </trkpt>
      <trkpt lat="48.57241" lon="7.70168">
        <ele>141.7</ele>
        <time>2019-08-08T10:17:33Z</time>
      </trkpt>
      <trkpt lat="48.5724" lon="7.70176">
        <ele>141.6</ele>
        <time>2019-08-08T10:17:34Z</time>
      </trkpt>
      <trkpt lat="48.57238" lon="7.70186">
        <ele>141.6</ele>
        <time>2019-08-08T10:17:35Z</time>
      </trkpt>
      <trkpt lat="48.57236" lon="7.70195">
        <ele>141.5</ele>
        <time>2019-08-08T10:17:36Z</time>
      </trkpt>
      <trkpt lat="48.57234" lon="7.70203">
        <ele>141.4</ele>
        <time>2019-08-08T10:17:37Z</time>
      </trkpt>
      <trkpt lat="48.57233" lon="7.7021">
        <ele>141.4</ele>
        <time>2019-08-08T10:17:38Z</time>
      </trkpt>
      <trkpt lat="48.57231" lon="7.70217">
        <ele>141.3</ele>
        <time>2019-08-08T10:17:39Z</time>
      </trkpt>
      <trkpt lat="48.5723" lon="7.70224">
        <ele>141.3</ele>
        <time>2019-08-08T10:17:40Z</time>
      </trkpt>
      <trkpt lat="48.57229" lon="7.70229">
        <ele>141.3</ele>
        <time>2019-08-08T10:17:41Z</time>
      </trkpt>
      <trkpt lat="48.57227" lon="7.70235">
        <ele>141.3</ele>
        <time>2019-08-08T10:17:42Z</time>
      </trkpt>
      <trkpt lat="48.57226" lon="7.70241">
        <ele>141.2</ele>
        <time>2019-08-08T10:17:43Z</time>
      </trkpt>
      <trkpt lat="48.57223" lon="7.70247">
        <ele>141.2</ele>
        <time>2019-08-08T10:17:44Z</time>
      </trkpt>
      <trkpt lat="48.57222" lon="7.70253">
        <ele>141.2</ele>
        <time>2019-08-08T10:17:45Z</time>
      </trkpt>
      <trkpt lat="48.5722" lon="7.7026">
        <ele>141.1</ele>
        <time>2019-08-08T10:17:46Z</time>
      </trkpt>
      <trkpt lat="48.57218" lon="7.70265">
        <ele>141.1</ele>
        <time>2019-08-08T10:17:47Z</time>
      </trkpt>
      <trkpt lat="48.57215" lon="7.70271">
        <ele>141.1</ele>
        <time>2019-08-08T10:17:48Z</time>
      </trkpt>
      <trkpt lat="48.57213" lon="7.70277">
        <ele>141</ele>
        <time>2019-08-08T10:17:49Z</time>
      </trkpt>
      <trkpt lat="48.5721" lon="7.70282">
        <ele>141</ele>
        <time>2019-08-08T10:17:50Z</time>
      </trkpt>
      <trkpt lat="48.57207" lon="7.70288">
        <ele>140.9</ele>
        <time>2019-08-08T10:17:51Z</time>
      </trkpt>
      <trkpt lat="48.57205" lon="7.70296">
        <ele>140.9</ele>
        <time>2019-08-08T10:17:52Z</time>
      </trkpt>
      <trkpt lat="48.57204" lon="7.70301">
        <ele>140.9</ele>
        <time>2019-08-08T10:17:53Z</time>
      </trkpt>
      <trkpt lat="48.57202" lon="7.70308">
        <ele>140.9</ele>
        <time>2019-08-08T10:17:54Z</time>
      </trkpt>
      <trkpt lat="48.57201" lon="7.70315">
        <ele>140.8</ele>
        <time>2019-08-08T10:17:55Z</time>
      </trkpt>
      <trkpt lat="48.572" lon="7.70322">
        <ele>140.8</ele>
        <time>2019-08-08T10:17:56Z</time>
      </trkpt>
      <trkpt lat="48.57199" lon="7.70329">
        <ele>140.8</ele>
        <time>2019-08-08T10:17:57Z</time>
      </trkpt>
      <trkpt lat="48.57199" lon="7.70337">
        <ele>140.8</ele>
        <time>2019-08-08T10:17:58Z</time>
      </trkpt>
      <trkpt lat="48.57197" lon="7.70345">
        <ele>140.7</ele>
        <time>2019-08-08T10:17:59Z</time>
      </trkpt>
      <trkpt lat="48.57195" lon="7.70351">
        <ele>140.7</ele>
        <time>2019-08-08T10:18:00Z</time>
      </trkpt>
      <trkpt lat="48.57193" lon="7.70355">
        <ele>140.7</ele>
        <time>2019-08-08T10:18:01Z</time>
      </trkpt>
      <trkpt lat="48.57189" lon="7.70359">
        <ele>140.6</ele>
        <time>2019-08-08T10:18:02Z</time>
      </trkpt>
      <trkpt lat="48.57187" lon="7.70363">
        <ele>140.5</ele>
        <time>2019-08-08T10:18:03Z</time>
      </trkpt>
      <trkpt lat="48.57185" lon="7.70367">
        <ele>140.4</ele>
        <time>2019-08-08T10:18:04Z</time>
      </trkpt>
      <trkpt lat="48.57182" lon="7.70372">
        <ele>140.3</ele>
        <time>2019-08-08T10:18:05Z</time>
      </trkpt>
      <trkpt lat="48.5718" lon="7.70377">
        <ele>140.2</ele>
        <time>2019-08-08T10:18:06Z</time>
      </trkpt>
      <trkpt lat="48.57178" lon="7.70383">
        <ele>140.1</ele>
        <time>2019-08-08T10:18:07Z</time>
      </trkpt>
      <trkpt lat="48.57177" lon="7.70389">
        <ele>140</ele>
        <time>2019-08-08T10:18:08Z</time>
      </trkpt>
      <trkpt lat="48.57176" lon="7.70394">
        <ele>139.9</ele>
        <time>2019-08-08T10:18:09Z</time>
      </trkpt>
      <trkpt lat="48.57175" lon="7.704">
        <ele>139.7</ele>
        <time>2019-08-08T10:18:10Z</time>
      </trkpt>
      <trkpt lat="48.57173" lon="7.70407">
        <ele>139.6</ele>
        <time>2019-08-08T10:18:11Z</time>
      </trkpt>
      <trkpt lat="48.57173" lon="7.70413">
        <ele>139.4</ele>
        <time>2019-08-08T10:18:12Z</time>
      </trkpt>
      <trkpt lat="48.57171" lon="7.70418">
        <ele>139.5</ele>
        <time>2019-08-08T10:18:13Z</time>
      </trkpt>
      <trkpt lat="48.57169" lon="7.70423">
        <ele>139.5</ele>
        <time>2019-08-08T10:18:14Z</time>
      </trkpt>
      <trkpt lat="48.57166" lon="7.70427">
        <ele>139.5</ele>
        <time>2019-08-08T10:18:15Z</time>
      </trkpt>
      <trkpt lat="48.57164" lon="7.70433">
        <ele>139.6</ele>
        <time>2019-08-08T10:18:16Z</time>
      </trkpt>
      <trkpt lat="48.57162" lon="7.70439">
        <ele>139.6</ele>
        <time>2019-08-08T10:18:17Z</time>
      </trkpt>
      <trkpt lat="48.57161" lon="7.70444">
        <ele>139.7</ele>
        <time>2019-08-08T10:18:18Z</time>
      </trkpt>
      <trkpt lat="48.5716" lon="7.70449">
        <ele>139.7</ele>
        <time>2019-08-08T10:18:19Z</time>
      </trkpt>
      <trkpt lat="48.57158" lon="7.70455">
        <ele>139.8</ele>
        <time>2019-08-08T10:18:20Z</time>
      </trkpt>
      <trkpt lat="48.57155" lon="7.70462">
        <ele>139.8</ele>
        <time>2019-08-08T10:18:21Z</time>
      </trkpt>
      <trkpt lat="48.57152" lon="7.70469">
        <ele>139.9</ele>
        <time>2019-08-08T10:18:22Z</time>
      </trkpt>
      <trkpt lat="48.57151" lon="7.70478">
        <ele>139.9</ele>
        <time>2019-08-08T10:18:23Z</time>
      </trkpt>
      <trkpt lat="48.57149" lon="7.70486">
        <ele>140</ele>
        <time>2019-08-08T10:18:24Z</time>
      </trkpt>
      <trkpt lat="48.57148" lon="7.70494">
        <ele>140</ele>
        <time>2019-08-08T10:18:25Z</time>
      </trkpt>
      <trkpt lat="48.57147" lon="7.70503">
        <ele>140.1</ele>
        <time>2019-08-08T10:18:26Z</time>
      </trkpt>
      <trkpt lat="48.57147" lon="7.7051">
        <ele>140.1</ele>
        <time>2019-08-08T10:18:27Z</time>
      </trkpt>
      <trkpt lat="48.57147" lon="7.70517">
        <ele>140.1</ele>
        <time>2019-08-08T10:18:28Z</time>
      </trkpt>
      <trkpt lat="48.57146" lon="7.70522">
        <ele>140.1</ele>
        <time>2019-08-08T10:18:29Z</time>
      </trkpt>
      <trkpt lat="48.57146" lon="7.7053">
        <ele>140.2</ele>
        <time>2019-08-08T10:18:30Z</time>
      </trkpt>
      <trkpt lat="48.57142" lon="7.70538">
        <ele>140.2</ele>
        <time>2019-08-08T10:18:31Z</time>
      </trkpt>
      <trkpt lat="48.57135" lon="7.70548">
        <ele>140.1</ele>
        <time>2019-08-08T10:18:32Z</time>
      </trkpt>
      <trkpt lat="48.57133" lon="7.70559">
        <ele>140.1</ele>
        <time>2019-08-08T10:18:33Z</time>
      </trkpt>
      <trkpt lat="48.57131" lon="7.70565">
        <ele>140.1</ele>
        <time>2019-08-08T10:18:34Z</time>
      </trkpt>
      <trkpt lat="48.5713" lon="7.7057">
        <ele>140.1</ele>
        <time>2019-08-08T10:18:35Z</time>
      </trkpt>
      <trkpt lat="48.57129" lon="7.70575">
        <ele>140.1</ele>
        <time>2019-08-08T10:18:36Z</time>
      </trkpt>
      <trkpt lat="48.57128" lon="7.70579">
        <ele>140.1</ele>
        <time>2019-08-08T10:18:37Z</time>
      </trkpt>
      <trkpt lat="48.57127" lon="7.70584">
        <ele>140</ele>
        <time>2019-08-08T10:18:38Z</time>
      </trkpt>
      <trkpt lat="48.57125" lon="7.70588">
        <ele>140</ele>
        <time>2019-08-08T10:18:39Z</time>
      </trkpt>
      <trkpt lat="48.57124" lon="7.70594">
        <ele>140</ele>
        <time>2019-08-08T10:18:40Z</time>
      </trkpt>
      <trkpt lat="48.57121" lon="7.70601">
        <ele>140</ele>
        <time>2019-08-08T10:18:41Z</time>
      </trkpt>
      <trkpt lat="48.57117" lon="7.70607">
        <ele>140</ele>
        <time>2019-08-08T10:18:42Z</time>
      </trkpt>
      <trkpt lat="48.57114" lon="7.70613">
        <ele>140</ele>
        <time>2019-08-08T10:18:43Z</time>
      </trkpt>
      <trkpt lat="48.57112" lon="7.70618">
        <ele>140</ele>
        <time>2019-08-08T10:18:44Z</time>
      </trkpt>
      <trkpt lat="48.57111" lon="7.70624">
        <ele>140.1</ele>
        <time>2019-08-08T10:18:45Z</time>
      </trkpt>
      <trkpt lat="48.57109" lon="7.70629">
        <ele>140.1</ele>
        <time>2019-08-08T10:18:46Z</time>
      </trkpt>
      <trkpt lat="48.57105" lon="7.70633">
        <ele>140.1</ele>
        <time>2019-08-08T10:18:47Z</time>
      </trkpt>
      <trkpt lat="48.57103" lon="7.70637">
        <ele>140.1</ele>
        <time>2019-08-08T10:18:48Z</time>
      </trkpt>
      <trkpt lat="48.57101" lon="7.70641">
        <ele>140.2</ele>
        <time>2019-08-08T10:18:49Z</time>
      </trkpt>
      <trkpt lat="48.57098" lon="7.70645">
        <ele>140.2</ele>
        <time>2019-08-08T10:18:50Z</time>
      </trkpt>
      <trkpt lat="48.57096" lon="7.7065">
        <ele>140.2</ele>
        <time>2019-08-08T10:18:51Z</time>
      </trkpt>
      <trkpt lat="48.57094" lon="7.70655">
        <ele>140.3</ele>
        <time>2019-08-08T10:18:52Z</time>
      </trkpt>
      <trkpt lat="48.57092" lon="7.7066">
        <ele>140.3</ele>
        <time>2019-08-08T10:18:53Z</time>
      </trkpt>
      <trkpt lat="48.57089" lon="7.70662">
        <ele>140.3</ele>
        <time>2019-08-08T10:18:54Z</time>
      </trkpt>
      <trkpt lat="48.57088" lon="7.70667">
        <ele>140.4</ele>
        <time>2019-08-08T10:18:55Z</time>
      </trkpt>
      <trkpt lat="48.57085" lon="7.70672">
        <ele>140.4</ele>
        <time>2019-08-08T10:18:56Z</time>
      </trkpt>
      <trkpt lat="48.57083" lon="7.70676">
        <ele>140.4</ele>
        <time>2019-08-08T10:18:57Z</time>
      </trkpt>
      <trkpt lat="48.57082" lon="7.70683">
        <ele>140.5</ele>
        <time>2019-08-08T10:18:58Z</time>
      </trkpt>
      <trkpt lat="48.57079" lon="7.70692">
        <ele>140.6</ele>
        <time>2019-08-08T10:18:59Z</time>
      </trkpt>
      <trkpt lat="48.57076" lon="7.707">
        <ele>140.6</ele>
        <time>2019-08-08T10:19:00Z</time>
      </trkpt>
      <trkpt lat="48.57074" lon="7.70707">
        <ele>140.7</ele>
        <time>2019-08-08T10:19:01Z</time>
      </trkpt>
      <trkpt lat="48.57071" lon="7.70715">
        <ele>140.8</ele>
        <time>2019-08-08T10:19:02Z</time>
      </trkpt>
      <trkpt lat="48.57068" lon="7.70722">
        <ele>140.9</ele>
        <time>2019-08-08T10:19:03Z</time>
      </trkpt>
      <trkpt lat="48.57065" lon="7.70732">
        <ele>140.9</ele>
        <time>2019-08-08T10:19:04Z</time>
      </trkpt>
      <trkpt lat="48.57062" lon="7.70743">
        <ele>141</ele>
        <time>2019-08-08T10:19:05Z</time>
      </trkpt>
      <trkpt lat="48.5706" lon="7.70751">
        <ele>141</ele>
        <time>2019-08-08T10:19:06Z</time>
      </trkpt>
      <trkpt lat="48.5706" lon="7.70759">
        <ele>141</ele>
        <time>2019-08-08T10:19:07Z</time>
      </trkpt>
      <trkpt lat="48.5706" lon="7.70767">
        <ele>141</ele>
        <time>2019-08-08T10:19:08Z</time>
      </trkpt>
      <trkpt lat="48.57057" lon="7.70779">
        <ele>141</ele>
        <time>2019-08-08T10:19:09Z</time>
      </trkpt>
      <trkpt lat="48.57056" lon="7.70789">
        <ele>141</ele>
        <time>2019-08-08T10:19:10Z</time>
      </trkpt>
      <trkpt lat="48.57054" lon="7.70802">
        <ele>141</ele>
        <time>2019-08-08T10:19:11Z</time>
      </trkpt>
      <trkpt lat="48.57052" lon="7.70812">
        <ele>141</ele>
        <time>2019-08-08T10:19:12Z</time>
      </trkpt>
      <trkpt lat="48.57051" lon="7.70822">
        <ele>141</ele>
        <time>2019-08-08T10:19:13Z</time>
      </trkpt>
      <trkpt lat="48.57049" lon="7.70831">
        <ele>140.9</ele>
        <time>2019-08-08T10:19:14Z</time>
      </trkpt>
      <trkpt lat="48.57048" lon="7.70839">
        <ele>140.9</ele>
        <time>2019-08-08T10:19:15Z</time>
      </trkpt>
      <trkpt lat="48.57044" lon="7.70846">
        <ele>140.8</ele>
        <time>2019-08-08T10:19:16Z</time>
      </trkpt>
      <trkpt lat="48.57042" lon="7.70855">
        <ele>140.8</ele>
        <time>2019-08-08T10:19:17Z</time>
      </trkpt>
      <trkpt lat="48.57044" lon="7.70861">
        <ele>140.8</ele>
        <time>2019-08-08T10:19:18Z</time>
      </trkpt>
      <trkpt lat="48.57044" lon="7.70867">
        <ele>140.7</ele>
        <time>2019-08-08T10:19:19Z</time>
      </trkpt>
      <trkpt lat="48.57049" lon="7.70873">
        <ele>140.7</ele>
        <time>2019-08-08T10:19:20Z</time>
      </trkpt>
      <trkpt lat="48.57052" lon="7.70876">
        <ele>140.6</ele>
        <time>2019-08-08T10:19:21Z</time>
      </trkpt>
      <trkpt lat="48.57055" lon="7.70886">
        <ele>140.5</ele>
        <time>2019-08-08T10:19:22Z</time>
      </trkpt>
      <trkpt lat="48.57057" lon="7.70892">
        <ele>140.5</ele>
        <time>2019-08-08T10:19:23Z</time>
      </trkpt>
      <trkpt lat="48.57056" lon="7.70899">
        <ele>140.5</ele>
        <time>2019-08-08T10:19:24Z</time>
      </trkpt>
      <trkpt lat="48.57054" lon="7.70902">
        <ele>140.6</ele>
        <time>2019-08-08T10:19:25Z</time>
      </trkpt>
      <trkpt lat="48.57052" lon="7.70906">
        <ele>140.5</ele>
        <time>2019-08-08T10:19:26Z</time>
      </trkpt>
      <trkpt lat="48.57051" lon="7.70912">
        <ele>140.5</ele>
        <time>2019-08-08T10:19:27Z</time>
      </trkpt>
      <trkpt lat="48.57049" lon="7.70918">
        <ele>140.4</ele>
        <time>2019-08-08T10:19:28Z</time>
      </trkpt>
      <trkpt lat="48.57048" lon="7.70925">
        <ele>140.3</ele>
        <time>2019-08-08T10:19:29Z</time>
      </trkpt>
      <trkpt lat="48.57046" lon="7.70931">
        <ele>140.3</ele>
        <time>2019-08-08T10:19:30Z</time>
      </trkpt>
      <trkpt lat="48.57045" lon="7.70936">
        <ele>140.2</ele>
        <time>2019-08-08T10:19:31Z</time>
      </trkpt>
      <trkpt lat="48.57044" lon="7.7094">
        <ele>140.2</ele>
        <time>2019-08-08T10:19:32Z</time>
      </trkpt>
      <trkpt lat="48.57042" lon="7.70944">
        <ele>140.1</ele>
        <time>2019-08-08T10:19:33Z</time>
      </trkpt>
      <trkpt lat="48.5704" lon="7.70948">
        <ele>140.1</ele>
        <time>2019-08-08T10:19:34Z</time>
      </trkpt>
      <trkpt lat="48.57037" lon="7.70952">
        <ele>140.2</ele>
        <time>2019-08-08T10:19:35Z</time>
      </trkpt>
      <trkpt lat="48.57034" lon="7.70957">
        <ele>140.2</ele>
        <time>2019-08-08T10:19:36Z</time>
      </trkpt>
      <trkpt lat="48.5703" lon="7.70961">
        <ele>140.2</ele>
        <time>2019-08-08T10:19:37Z</time>
      </trkpt>
      <trkpt lat="48.57026" lon="7.70971">
        <ele>140.3</ele>
        <time>2019-08-08T10:19:39Z</time>
      </trkpt>
      <trkpt lat="48.57026" lon="7.70978">
        <ele>140.4</ele>
        <time>2019-08-08T10:19:40Z</time>
      </trkpt>
      <trkpt lat="48.57026" lon="7.70987">
        <ele>140.4</ele>
        <time>2019-08-08T10:19:41Z</time>
      </trkpt>
      <trkpt lat="48.57026" lon="7.70995">
        <ele>140.5</ele>
        <time>2019-08-08T10:19:42Z</time>
      </trkpt>
      <trkpt lat="48.57026" lon="7.71003">
        <ele>140.5</ele>
        <time>2019-08-08T10:19:43Z</time>
      </trkpt>
      <trkpt lat="48.57025" lon="7.7101">
        <ele>140.6</ele>
        <time>2019-08-08T10:19:44Z</time>
      </trkpt>
      <trkpt lat="48.57024" lon="7.71018">
        <ele>140.6</ele>
        <time>2019-08-08T10:19:45Z</time>
      </trkpt>
      <trkpt lat="48.57023" lon="7.71024">
        <ele>140.7</ele>
        <time>2019-08-08T10:19:46Z</time>
      </trkpt>
      <trkpt lat="48.57021" lon="7.71031">
        <ele>140.7</ele>
        <time>2019-08-08T10:19:47Z</time>
      </trkpt>
      <trkpt lat="48.57019" lon="7.71037">
        <ele>140.8</ele>
        <time>2019-08-08T10:19:48Z</time>
      </trkpt>
      <trkpt lat="48.57017" lon="7.71042">
        <ele>141</ele>
        <time>2019-08-08T10:19:49Z</time>
      </trkpt>
      <trkpt lat="48.57015" lon="7.71048">
        <ele>141.1</ele>
        <time>2019-08-08T10:19:50Z</time>
      </trkpt>
      <trkpt lat="48.57012" lon="7.71054">
        <ele>141.1</ele>
        <time>2019-08-08T10:19:51Z</time>
      </trkpt>
      <trkpt lat="48.5701" lon="7.7106">
        <ele>141.2</ele>
        <time>2019-08-08T10:19:52Z</time>
      </trkpt>
      <trkpt lat="48.57006" lon="7.71067">
        <ele>141.3</ele>
        <time>2019-08-08T10:19:53Z</time>
      </trkpt>
      <trkpt lat="48.57004" lon="7.71076">
        <ele>141.4</ele>
        <time>2019-08-08T10:19:54Z</time>
      </trkpt>
      <trkpt lat="48.57003" lon="7.71082">
        <ele>141.5</ele>
        <time>2019-08-08T10:19:55Z</time>
      </trkpt>
      <trkpt lat="48.57001" lon="7.71088">
        <ele>141.6</ele>
        <time>2019-08-08T10:19:57Z</time>
      </trkpt>
      <trkpt lat="48.57" lon="7.71093">
        <ele>141.6</ele>
        <time>2019-08-08T10:20:01Z</time>
      </trkpt>
      <trkpt lat="48.57" lon="7.71097">
        <ele>141.6</ele>
        <time>2019-08-08T10:20:02Z</time>
      </trkpt>
      <trkpt lat="48.56998" lon="7.71103">
        <ele>141.6</ele>
        <time>2019-08-08T10:20:03Z</time>
      </trkpt>
      <trkpt lat="48.56997" lon="7.71109">
        <ele>141.6</ele>
        <time>2019-08-08T10:20:04Z</time>
      </trkpt>
      <trkpt lat="48.56997" lon="7.71115">
        <ele>141.6</ele>
        <time>2019-08-08T10:20:05Z</time>
      </trkpt>
      <trkpt lat="48.56996" lon="7.71122">
        <ele>141.6</ele>
        <time>2019-08-08T10:20:06Z</time>
      </trkpt>
      <trkpt lat="48.56993" lon="7.71129">
        <ele>141.6</ele>
        <time>2019-08-08T10:20:08Z</time>
      </trkpt>
      <trkpt lat="48.5699" lon="7.71136">
        <ele>141.6</ele>
        <time>2019-08-08T10:20:10Z</time>
      </trkpt>
      <trkpt lat="48.56988" lon="7.71144">
        <ele>141.6</ele>
        <time>2019-08-08T10:20:11Z</time>
      </trkpt>
      <trkpt lat="48.56986" lon="7.71152">
        <ele>141.6</ele>
        <time>2019-08-08T10:20:12Z</time>
      </trkpt>
      <trkpt lat="48.56984" lon="7.71158">
        <ele>141.6</ele>
        <time>2019-08-08T10:20:13Z</time>
      </trkpt>
      <trkpt lat="48.56983" lon="7.71163">
        <ele>142.4</ele>
        <time>2019-08-08T10:20:14Z</time>
      </trkpt>
      <trkpt lat="48.56981" lon="7.71167">
        <ele>142.5</ele>
        <time>2019-08-08T10:20:15Z</time>
      </trkpt>
      <trkpt lat="48.56979" lon="7.71171">
        <ele>142.7</ele>
        <time>2019-08-08T10:20:16Z</time>
      </trkpt>
      <trkpt lat="48.56975" lon="7.71177">
        <ele>142.9</ele>
        <time>2019-08-08T10:20:17Z</time>
      </trkpt>
      <trkpt lat="48.56972" lon="7.71183">
        <ele>143.1</ele>
        <time>2019-08-08T10:20:18Z</time>
      </trkpt>
      <trkpt lat="48.56968" lon="7.7119">
        <ele>143.3</ele>
        <time>2019-08-08T10:20:19Z</time>
      </trkpt>
      <trkpt lat="48.56965" lon="7.71197">
        <ele>143.4</ele>
        <time>2019-08-08T10:20:20Z</time>
      </trkpt>
      <trkpt lat="48.56964" lon="7.71203">
        <ele>143.4</ele>
        <time>2019-08-08T10:20:21Z</time>
      </trkpt>
      <trkpt lat="48.56961" lon="7.7121">
        <ele>143.5</ele>
        <time>2019-08-08T10:20:22Z</time>
      </trkpt>
      <trkpt lat="48.56957" lon="7.71218">
        <ele>143.6</ele>
        <time>2019-08-08T10:20:23Z</time>
      </trkpt>
      <trkpt lat="48.56954" lon="7.71224">
        <ele>143.6</ele>
        <time>2019-08-08T10:20:24Z</time>
      </trkpt>
      <trkpt lat="48.56952" lon="7.71233">
        <ele>143.7</ele>
        <time>2019-08-08T10:20:25Z</time>
      </trkpt>
      <trkpt lat="48.56951" lon="7.71242">
        <ele>143.7</ele>
        <time>2019-08-08T10:20:26Z</time>
      </trkpt>
      <trkpt lat="48.56952" lon="7.71252">
        <ele>143.8</ele>
        <time>2019-08-08T10:20:27Z</time>
      </trkpt>
      <trkpt lat="48.56952" lon="7.71263">
        <ele>143.8</ele>
        <time>2019-08-08T10:20:28Z</time>
      </trkpt>
      <trkpt lat="48.56954" lon="7.71271">
        <ele>143.9</ele>
        <time>2019-08-08T10:20:29Z</time>
      </trkpt>
      <trkpt lat="48.56954" lon="7.71278">
        <ele>143.9</ele>
        <time>2019-08-08T10:20:30Z</time>
      </trkpt>
      <trkpt lat="48.56953" lon="7.71285">
        <ele>143.9</ele>
        <time>2019-08-08T10:20:31Z</time>
      </trkpt>
      <trkpt lat="48.56955" lon="7.71292">
        <ele>144</ele>
        <time>2019-08-08T10:20:32Z</time>
      </trkpt>
      <trkpt lat="48.56956" lon="7.71299">
        <ele>144</ele>
        <time>2019-08-08T10:20:34Z</time>
      </trkpt>
      <trkpt lat="48.56957" lon="7.71304">
        <ele>144</ele>
        <time>2019-08-08T10:20:35Z</time>
      </trkpt>
      <trkpt lat="48.5696" lon="7.71311">
        <ele>143.6</ele>
        <time>2019-08-08T10:20:36Z</time>
      </trkpt>
      <trkpt lat="48.56963" lon="7.71319">
        <ele>143.2</ele>
        <time>2019-08-08T10:20:37Z</time>
      </trkpt>
      <trkpt lat="48.56965" lon="7.71326">
        <ele>142.7</ele>
        <time>2019-08-08T10:20:38Z</time>
      </trkpt>
      <trkpt lat="48.56969" lon="7.71332">
        <ele>142.3</ele>
        <time>2019-08-08T10:20:39Z</time>
      </trkpt>
      <trkpt lat="48.56972" lon="7.71339">
        <ele>141.9</ele>
        <time>2019-08-08T10:20:40Z</time>
      </trkpt>
      <trkpt lat="48.56975" lon="7.71345">
        <ele>141.4</ele>
        <time>2019-08-08T10:20:41Z</time>
      </trkpt>
      <trkpt lat="48.56979" lon="7.7135">
        <ele>141</ele>
        <time>2019-08-08T10:20:42Z</time>
      </trkpt>
      <trkpt lat="48.56981" lon="7.71355">
        <ele>141.7</ele>
        <time>2019-08-08T10:20:43Z</time>
      </trkpt>
      <trkpt lat="48.56984" lon="7.71357">
        <ele>141.9</ele>
        <time>2019-08-08T10:20:44Z</time>
      </trkpt>
      <trkpt lat="48.56987" lon="7.71362">
        <ele>142.4</ele>
        <time>2019-08-08T10:20:45Z</time>
      </trkpt>
      <trkpt lat="48.56988" lon="7.71366">
        <ele>142.7</ele>
        <time>2019-08-08T10:20:46Z</time>
      </trkpt>
      <trkpt lat="48.56989" lon="7.71371">
        <ele>143</ele>
        <time>2019-08-08T10:20:47Z</time>
      </trkpt>
      <trkpt lat="48.5699" lon="7.71375">
        <ele>143.3</ele>
        <time>2019-08-08T10:20:49Z</time>
      </trkpt>
      <trkpt lat="48.56994" lon="7.7138">
        <ele>143.8</ele>
        <time>2019-08-08T10:20:51Z</time>
      </trkpt>
      <trkpt lat="48.56997" lon="7.71382">
        <ele>144.5</ele>
        <time>2019-08-08T10:20:52Z</time>
      </trkpt>
      <trkpt lat="48.57002" lon="7.71385">
        <ele>144.3</ele>
        <time>2019-08-08T10:20:54Z</time>
      </trkpt>
      <trkpt lat="48.57004" lon="7.71388">
        <ele>144.2</ele>
        <time>2019-08-08T10:20:55Z</time>
      </trkpt>
      <trkpt lat="48.57006" lon="7.71391">
        <ele>144.2</ele>
        <time>2019-08-08T10:20:56Z</time>
      </trkpt>
      <trkpt lat="48.57008" lon="7.71394">
        <ele>144.1</ele>
        <time>2019-08-08T10:20:57Z</time>
      </trkpt>
      <trkpt lat="48.57011" lon="7.71399">
        <ele>143.9</ele>
        <time>2019-08-08T10:20:59Z</time>
      </trkpt>
      <trkpt lat="48.57015" lon="7.71399">
        <ele>143.8</ele>
        <time>2019-08-08T10:21:08Z</time>
      </trkpt>
      <trkpt lat="48.57024" lon="7.71401">
        <ele>143.5</ele>
        <time>2019-08-08T10:21:38Z</time>
      </trkpt>
      <trkpt lat="48.57021" lon="7.71405">
        <ele>143.4</ele>
        <time>2019-08-08T10:21:41Z</time>
      </trkpt>
      <trkpt lat="48.57019" lon="7.71409">
        <ele>143.3</ele>
        <time>2019-08-08T10:21:48Z</time>
      </trkpt>
      <trkpt lat="48.57023" lon="7.71413">
        <ele>143.1</ele>
        <time>2019-08-08T10:25:15Z</time>
      </trkpt>
      <trkpt lat="48.57027" lon="7.71412">
        <ele>142.6</ele>
        <time>2019-08-08T10:25:19Z</time>
      </trkpt>
      <trkpt lat="48.57031" lon="7.71414">
        <ele>142.1</ele>
        <time>2019-08-08T10:25:23Z</time>
      </trkpt>
      <trkpt lat="48.57033" lon="7.71418">
        <ele>141.7</ele>
        <time>2019-08-08T10:25:26Z</time>
      </trkpt>
      <trkpt lat="48.57036" lon="7.71421">
        <ele>141.2</ele>
        <time>2019-08-08T10:25:28Z</time>
      </trkpt>
      <trkpt lat="48.57039" lon="7.71425">
        <ele>140.7</ele>
        <time>2019-08-08T10:25:29Z</time>
      </trkpt>
      <trkpt lat="48.57041" lon="7.71428">
        <ele>140.3</ele>
        <time>2019-08-08T10:25:30Z</time>
      </trkpt>
      <trkpt lat="48.57045" lon="7.71434">
        <ele>139.6</ele>
        <time>2019-08-08T10:25:32Z</time>
      </trkpt>
      <trkpt lat="48.57047" lon="7.71438">
        <ele>139.1</ele>
        <time>2019-08-08T10:25:33Z</time>
      </trkpt>
      <trkpt lat="48.57049" lon="7.71442">
        <ele>138.7</ele>
        <time>2019-08-08T10:25:34Z</time>
      </trkpt>
      <trkpt lat="48.57052" lon="7.71446">
        <ele>138.1</ele>
        <time>2019-08-08T10:25:35Z</time>
      </trkpt>
      <trkpt lat="48.57055" lon="7.71449">
        <ele>137.7</ele>
        <time>2019-08-08T10:25:36Z</time>
      </trkpt>
      <trkpt lat="48.57058" lon="7.71453">
        <ele>137.2</ele>
        <time>2019-08-08T10:25:37Z</time>
      </trkpt>
      <trkpt lat="48.57061" lon="7.71458">
        <ele>136.7</ele>
        <time>2019-08-08T10:25:38Z</time>
      </trkpt>
      <trkpt lat="48.57065" lon="7.71462">
        <ele>136.6</ele>
        <time>2019-08-08T10:25:39Z</time>
      </trkpt>
      <trkpt lat="48.57068" lon="7.71467">
        <ele>136.6</ele>
        <time>2019-08-08T10:25:40Z</time>
      </trkpt>
      <trkpt lat="48.57071" lon="7.71471">
        <ele>136.5</ele>
        <time>2019-08-08T10:25:41Z</time>
      </trkpt>
      <trkpt lat="48.57075" lon="7.71475">
        <ele>136.5</ele>
        <time>2019-08-08T10:25:42Z</time>
      </trkpt>
      <trkpt lat="48.57078" lon="7.7148">
        <ele>136.4</ele>
        <time>2019-08-08T10:25:43Z</time>
      </trkpt>
      <trkpt lat="48.57081" lon="7.71483">
        <ele>136.4</ele>
        <time>2019-08-08T10:25:44Z</time>
      </trkpt>
      <trkpt lat="48.57083" lon="7.71486">
        <ele>136.4</ele>
        <time>2019-08-08T10:25:45Z</time>
      </trkpt>
      <trkpt lat="48.57086" lon="7.7149">
        <ele>136.3</ele>
        <time>2019-08-08T10:25:46Z</time>
      </trkpt>
      <trkpt lat="48.5709" lon="7.71494">
        <ele>136.3</ele>
        <time>2019-08-08T10:25:47Z</time>
      </trkpt>
      <trkpt lat="48.57093" lon="7.71497">
        <ele>136.2</ele>
        <time>2019-08-08T10:25:48Z</time>
      </trkpt>
      <trkpt lat="48.57096" lon="7.71501">
        <ele>136.2</ele>
        <time>2019-08-08T10:25:49Z</time>
      </trkpt>
      <trkpt lat="48.57099" lon="7.71505">
        <ele>136.1</ele>
        <time>2019-08-08T10:25:50Z</time>
      </trkpt>
      <trkpt lat="48.57102" lon="7.71509">
        <ele>136.1</ele>
        <time>2019-08-08T10:25:51Z</time>
      </trkpt>
      <trkpt lat="48.57104" lon="7.71513">
        <ele>136</ele>
        <time>2019-08-08T10:25:52Z</time>
      </trkpt>
      <trkpt lat="48.57107" lon="7.71518">
        <ele>136</ele>
        <time>2019-08-08T10:25:53Z</time>
      </trkpt>
      <trkpt lat="48.57109" lon="7.71523">
        <ele>135.9</ele>
        <time>2019-08-08T10:25:54Z</time>
      </trkpt>
      <trkpt lat="48.57111" lon="7.71528">
        <ele>135.8</ele>
        <time>2019-08-08T10:25:55Z</time>
      </trkpt>
      <trkpt lat="48.57112" lon="7.71533">
        <ele>135.8</ele>
        <time>2019-08-08T10:25:56Z</time>
      </trkpt>
      <trkpt lat="48.57113" lon="7.71538">
        <ele>135.9</ele>
        <time>2019-08-08T10:25:57Z</time>
      </trkpt>
      <trkpt lat="48.57113" lon="7.71543">
        <ele>135.9</ele>
        <time>2019-08-08T10:25:58Z</time>
      </trkpt>
      <trkpt lat="48.57114" lon="7.71549">
        <ele>136</ele>
        <time>2019-08-08T10:25:59Z</time>
      </trkpt>
      <trkpt lat="48.57116" lon="7.71554">
        <ele>136</ele>
        <time>2019-08-08T10:26:00Z</time>
      </trkpt>
      <trkpt lat="48.57117" lon="7.71557">
        <ele>136.1</ele>
        <time>2019-08-08T10:26:01Z</time>
      </trkpt>
      <trkpt lat="48.5712" lon="7.71561">
        <ele>136.1</ele>
        <time>2019-08-08T10:26:02Z</time>
      </trkpt>
      <trkpt lat="48.57123" lon="7.71563">
        <ele>136.2</ele>
        <time>2019-08-08T10:26:03Z</time>
      </trkpt>
      <trkpt lat="48.57127" lon="7.71566">
        <ele>136.2</ele>
        <time>2019-08-08T10:26:04Z</time>
      </trkpt>
      <trkpt lat="48.57129" lon="7.7157">
        <ele>136.3</ele>
        <time>2019-08-08T10:26:05Z</time>
      </trkpt>
      <trkpt lat="48.57129" lon="7.71577">
        <ele>136.3</ele>
        <time>2019-08-08T10:26:06Z</time>
      </trkpt>
      <trkpt lat="48.57129" lon="7.71582">
        <ele>136.4</ele>
        <time>2019-08-08T10:26:07Z</time>
      </trkpt>
      <trkpt lat="48.57128" lon="7.71588">
        <ele>136.4</ele>
        <time>2019-08-08T10:26:08Z</time>
      </trkpt>
      <trkpt lat="48.57126" lon="7.71593">
        <ele>136.5</ele>
        <time>2019-08-08T10:26:09Z</time>
      </trkpt>
      <trkpt lat="48.57125" lon="7.71599">
        <ele>136.5</ele>
        <time>2019-08-08T10:26:10Z</time>
      </trkpt>
      <trkpt lat="48.57123" lon="7.71606">
        <ele>136.6</ele>
        <time>2019-08-08T10:26:11Z</time>
      </trkpt>
      <trkpt lat="48.57123" lon="7.71612">
        <ele>136.6</ele>
        <time>2019-08-08T10:26:12Z</time>
      </trkpt>
      <trkpt lat="48.57122" lon="7.7162">
        <ele>136.5</ele>
        <time>2019-08-08T10:26:13Z</time>
      </trkpt>
      <trkpt lat="48.57121" lon="7.71628">
        <ele>136.4</ele>
        <time>2019-08-08T10:26:14Z</time>
      </trkpt>
      <trkpt lat="48.57119" lon="7.71635">
        <ele>136.4</ele>
        <time>2019-08-08T10:26:15Z</time>
      </trkpt>
      <trkpt lat="48.57119" lon="7.71641">
        <ele>136.3</ele>
        <time>2019-08-08T10:26:16Z</time>
      </trkpt>
      <trkpt lat="48.57118" lon="7.71647">
        <ele>136.3</ele>
        <time>2019-08-08T10:26:17Z</time>
      </trkpt>
      <trkpt lat="48.57117" lon="7.71653">
        <ele>136.2</ele>
        <time>2019-08-08T10:26:18Z</time>
      </trkpt>
      <trkpt lat="48.57117" lon="7.71659">
        <ele>136.2</ele>
        <time>2019-08-08T10:26:19Z</time>
      </trkpt>
      <trkpt lat="48.57117" lon="7.71665">
        <ele>136.1</ele>
        <time>2019-08-08T10:26:20Z</time>
      </trkpt>
      <trkpt lat="48.57116" lon="7.71671">
        <ele>136</ele>
        <time>2019-08-08T10:26:21Z</time>
      </trkpt>
      <trkpt lat="48.57115" lon="7.71678">
        <ele>136</ele>
        <time>2019-08-08T10:26:22Z</time>
      </trkpt>
      <trkpt lat="48.57113" lon="7.71684">
        <ele>135.9</ele>
        <time>2019-08-08T10:26:23Z</time>
      </trkpt>
      <trkpt lat="48.57111" lon="7.7169">
        <ele>135.8</ele>
        <time>2019-08-08T10:26:24Z</time>
      </trkpt>
      <trkpt lat="48.5711" lon="7.71697">
        <ele>135.8</ele>
        <time>2019-08-08T10:26:25Z</time>
      </trkpt>
      <trkpt lat="48.57107" lon="7.71702">
        <ele>135.7</ele>
        <time>2019-08-08T10:26:26Z</time>
      </trkpt>
      <trkpt lat="48.57104" lon="7.71706">
        <ele>135.7</ele>
        <time>2019-08-08T10:26:27Z</time>
      </trkpt>
      <trkpt lat="48.57102" lon="7.7171">
        <ele>135.7</ele>
        <time>2019-08-08T10:26:28Z</time>
      </trkpt>
      <trkpt lat="48.57098" lon="7.71715">
        <ele>135.7</ele>
        <time>2019-08-08T10:26:29Z</time>
      </trkpt>
      <trkpt lat="48.57096" lon="7.7172">
        <ele>135.7</ele>
        <time>2019-08-08T10:26:30Z</time>
      </trkpt>
      <trkpt lat="48.57094" lon="7.71726">
        <ele>135.6</ele>
        <time>2019-08-08T10:26:31Z</time>
      </trkpt>
      <trkpt lat="48.57091" lon="7.71733">
        <ele>136.1</ele>
        <time>2019-08-08T10:26:32Z</time>
      </trkpt>
      <trkpt lat="48.5709" lon="7.71736">
        <ele>136.2</ele>
        <time>2019-08-08T10:26:33Z</time>
      </trkpt>
      <trkpt lat="48.57089" lon="7.71741">
        <ele>136.4</ele>
        <time>2019-08-08T10:26:34Z</time>
      </trkpt>
      <trkpt lat="48.57087" lon="7.71746">
        <ele>136.5</ele>
        <time>2019-08-08T10:26:35Z</time>
      </trkpt>
      <trkpt lat="48.57085" lon="7.71752">
        <ele>136.7</ele>
        <time>2019-08-08T10:26:36Z</time>
      </trkpt>
      <trkpt lat="48.57082" lon="7.71756">
        <ele>136.9</ele>
        <time>2019-08-08T10:26:37Z</time>
      </trkpt>
      <trkpt lat="48.57079" lon="7.7176">
        <ele>137.1</ele>
        <time>2019-08-08T10:26:38Z</time>
      </trkpt>
      <trkpt lat="48.57076" lon="7.71768">
        <ele>137.4</ele>
        <time>2019-08-08T10:26:40Z</time>
      </trkpt>
      <trkpt lat="48.57074" lon="7.71776">
        <ele>137.6</ele>
        <time>2019-08-08T10:26:41Z</time>
      </trkpt>
      <trkpt lat="48.57072" lon="7.71782">
        <ele>137.9</ele>
        <time>2019-08-08T10:26:42Z</time>
      </trkpt>
      <trkpt lat="48.57071" lon="7.71787">
        <ele>138.4</ele>
        <time>2019-08-08T10:26:43Z</time>
      </trkpt>
      <trkpt lat="48.5707" lon="7.71792">
        <ele>138.4</ele>
        <time>2019-08-08T10:26:44Z</time>
      </trkpt>
      <trkpt lat="48.5707" lon="7.71797">
        <ele>138.5</ele>
        <time>2019-08-08T10:26:45Z</time>
      </trkpt>
      <trkpt lat="48.5707" lon="7.71802">
        <ele>139.3</ele>
        <time>2019-08-08T10:26:46Z</time>
      </trkpt>
      <trkpt lat="48.57068" lon="7.7181">
        <ele>139.5</ele>
        <time>2019-08-08T10:26:47Z</time>
      </trkpt>
      <trkpt lat="48.57067" lon="7.71816">
        <ele>139.6</ele>
        <time>2019-08-08T10:26:48Z</time>
      </trkpt>
      <trkpt lat="48.57068" lon="7.7182">
        <ele>139.6</ele>
        <time>2019-08-08T10:26:49Z</time>
      </trkpt>
      <trkpt lat="48.57068" lon="7.71826">
        <ele>140</ele>
        <time>2019-08-08T10:26:50Z</time>
      </trkpt>
      <trkpt lat="48.5707" lon="7.71832">
        <ele>140.1</ele>
        <time>2019-08-08T10:26:51Z</time>
      </trkpt>
      <trkpt lat="48.57071" lon="7.7184">
        <ele>140.2</ele>
        <time>2019-08-08T10:26:52Z</time>
      </trkpt>
      <trkpt lat="48.57071" lon="7.71848">
        <ele>140.1</ele>
        <time>2019-08-08T10:26:53Z</time>
      </trkpt>
      <trkpt lat="48.57071" lon="7.71856">
        <ele>140.1</ele>
        <time>2019-08-08T10:26:54Z</time>
      </trkpt>
      <trkpt lat="48.5707" lon="7.71864">
        <ele>140.2</ele>
        <time>2019-08-08T10:26:55Z</time>
      </trkpt>
      <trkpt lat="48.5707" lon="7.71872">
        <ele>140.2</ele>
        <time>2019-08-08T10:26:56Z</time>
      </trkpt>
      <trkpt lat="48.57071" lon="7.7188">
        <ele>140.1</ele>
        <time>2019-08-08T10:26:57Z</time>
      </trkpt>
      <trkpt lat="48.57071" lon="7.71886">
        <ele>140</ele>
        <time>2019-08-08T10:26:58Z</time>
      </trkpt>
      <trkpt lat="48.57072" lon="7.71893">
        <ele>139.9</ele>
        <time>2019-08-08T10:26:59Z</time>
      </trkpt>
      <trkpt lat="48.57072" lon="7.719">
        <ele>139.8</ele>
        <time>2019-08-08T10:27:00Z</time>
      </trkpt>
      <trkpt lat="48.57074" lon="7.7191">
        <ele>139.7</ele>
        <time>2019-08-08T10:27:01Z</time>
      </trkpt>
      <trkpt lat="48.57075" lon="7.71919">
        <ele>139.7</ele>
        <time>2019-08-08T10:27:02Z</time>
      </trkpt>
      <trkpt lat="48.57076" lon="7.71927">
        <ele>139.7</ele>
        <time>2019-08-08T10:27:03Z</time>
      </trkpt>
      <trkpt lat="48.57077" lon="7.71932">
        <ele>139.7</ele>
        <time>2019-08-08T10:27:04Z</time>
      </trkpt>
      <trkpt lat="48.57078" lon="7.71938">
        <ele>139.7</ele>
        <time>2019-08-08T10:27:05Z</time>
      </trkpt>
      <trkpt lat="48.57078" lon="7.71945">
        <ele>139.6</ele>
        <time>2019-08-08T10:27:06Z</time>
      </trkpt>
      <trkpt lat="48.57081" lon="7.71952">
        <ele>139.6</ele>
        <time>2019-08-08T10:27:08Z</time>
      </trkpt>
      <trkpt lat="48.57083" lon="7.71957">
        <ele>139.6</ele>
        <time>2019-08-08T10:27:09Z</time>
      </trkpt>
      <trkpt lat="48.57085" lon="7.71965">
        <ele>139.6</ele>
        <time>2019-08-08T10:27:10Z</time>
      </trkpt>
      <trkpt lat="48.57087" lon="7.71974">
        <ele>139.6</ele>
        <time>2019-08-08T10:27:11Z</time>
      </trkpt>
      <trkpt lat="48.57088" lon="7.71983">
        <ele>139.6</ele>
        <time>2019-08-08T10:27:12Z</time>
      </trkpt>
      <trkpt lat="48.57088" lon="7.71991">
        <ele>139.6</ele>
        <time>2019-08-08T10:27:13Z</time>
      </trkpt>
      <trkpt lat="48.57091" lon="7.71999">
        <ele>139.6</ele>
        <time>2019-08-08T10:27:14Z</time>
      </trkpt>
      <trkpt lat="48.57094" lon="7.72006">
        <ele>139.6</ele>
        <time>2019-08-08T10:27:15Z</time>
      </trkpt>
      <trkpt lat="48.57095" lon="7.72014">
        <ele>139.6</ele>
        <time>2019-08-08T10:27:16Z</time>
      </trkpt>
      <trkpt lat="48.57096" lon="7.72023">
        <ele>139.6</ele>
        <time>2019-08-08T10:27:17Z</time>
      </trkpt>
      <trkpt lat="48.57098" lon="7.7203">
        <ele>139.6</ele>
        <time>2019-08-08T10:27:18Z</time>
      </trkpt>
      <trkpt lat="48.571" lon="7.72036">
        <ele>139.6</ele>
        <time>2019-08-08T10:27:19Z</time>
      </trkpt>
      <trkpt lat="48.57102" lon="7.72042">
        <ele>139.5</ele>
        <time>2019-08-08T10:27:20Z</time>
      </trkpt>
      <trkpt lat="48.57104" lon="7.72047">
        <ele>139.5</ele>
        <time>2019-08-08T10:27:21Z</time>
      </trkpt>
      <trkpt lat="48.57106" lon="7.72052">
        <ele>139.5</ele>
        <time>2019-08-08T10:27:22Z</time>
      </trkpt>
      <trkpt lat="48.57108" lon="7.72059">
        <ele>139.5</ele>
        <time>2019-08-08T10:27:23Z</time>
      </trkpt>
      <trkpt lat="48.5711" lon="7.72065">
        <ele>139.5</ele>
        <time>2019-08-08T10:27:24Z</time>
      </trkpt>
      <trkpt lat="48.57111" lon="7.72072">
        <ele>139.4</ele>
        <time>2019-08-08T10:27:25Z</time>
      </trkpt>
      <trkpt lat="48.57113" lon="7.72079">
        <ele>139.3</ele>
        <time>2019-08-08T10:27:26Z</time>
      </trkpt>
      <trkpt lat="48.57114" lon="7.72085">
        <ele>139.2</ele>
        <time>2019-08-08T10:27:27Z</time>
      </trkpt>
      <trkpt lat="48.57116" lon="7.72091">
        <ele>139.1</ele>
        <time>2019-08-08T10:27:28Z</time>
      </trkpt>
      <trkpt lat="48.57118" lon="7.72098">
        <ele>139</ele>
        <time>2019-08-08T10:27:29Z</time>
      </trkpt>
      <trkpt lat="48.5712" lon="7.72105">
        <ele>138.9</ele>
        <time>2019-08-08T10:27:30Z</time>
      </trkpt>
      <trkpt lat="48.57122" lon="7.72114">
        <ele>138.8</ele>
        <time>2019-08-08T10:27:31Z</time>
      </trkpt>
      <trkpt lat="48.57124" lon="7.72121">
        <ele>138.7</ele>
        <time>2019-08-08T10:27:32Z</time>
      </trkpt>
      <trkpt lat="48.57125" lon="7.72127">
        <ele>138.7</ele>
        <time>2019-08-08T10:27:33Z</time>
      </trkpt>
      <trkpt lat="48.57127" lon="7.72133">
        <ele>138.7</ele>
        <time>2019-08-08T10:27:34Z</time>
      </trkpt>
      <trkpt lat="48.57129" lon="7.72139">
        <ele>138.6</ele>
        <time>2019-08-08T10:27:35Z</time>
      </trkpt>
      <trkpt lat="48.57132" lon="7.72145">
        <ele>138.6</ele>
        <time>2019-08-08T10:27:36Z</time>
      </trkpt>
      <trkpt lat="48.57135" lon="7.72152">
        <ele>138.5</ele>
        <time>2019-08-08T10:27:37Z</time>
      </trkpt>
      <trkpt lat="48.57138" lon="7.72159">
        <ele>138.5</ele>
        <time>2019-08-08T10:27:38Z</time>
      </trkpt>
      <trkpt lat="48.5714" lon="7.72168">
        <ele>138.5</ele>
        <time>2019-08-08T10:27:39Z</time>
      </trkpt>
      <trkpt lat="48.57142" lon="7.72175">
        <ele>138.4</ele>
        <time>2019-08-08T10:27:40Z</time>
      </trkpt>
      <trkpt lat="48.57143" lon="7.7218">
        <ele>138.4</ele>
        <time>2019-08-08T10:27:41Z</time>
      </trkpt>
      <trkpt lat="48.57144" lon="7.72188">
        <ele>138.3</ele>
        <time>2019-08-08T10:27:42Z</time>
      </trkpt>
      <trkpt lat="48.57146" lon="7.72194">
        <ele>138.3</ele>
        <time>2019-08-08T10:27:43Z</time>
      </trkpt>
      <trkpt lat="48.57147" lon="7.722">
        <ele>138.3</ele>
        <time>2019-08-08T10:27:44Z</time>
      </trkpt>
      <trkpt lat="48.57148" lon="7.72206">
        <ele>138.2</ele>
        <time>2019-08-08T10:27:45Z</time>
      </trkpt>
      <trkpt lat="48.57151" lon="7.72213">
        <ele>138.2</ele>
        <time>2019-08-08T10:27:46Z</time>
      </trkpt>
      <trkpt lat="48.57154" lon="7.7222">
        <ele>138.2</ele>
        <time>2019-08-08T10:27:47Z</time>
      </trkpt>
      <trkpt lat="48.57157" lon="7.72229">
        <ele>138.3</ele>
        <time>2019-08-08T10:27:48Z</time>
      </trkpt>
      <trkpt lat="48.5716" lon="7.72236">
        <ele>138.3</ele>
        <time>2019-08-08T10:27:49Z</time>
      </trkpt>
      <trkpt lat="48.57161" lon="7.72241">
        <ele>138.3</ele>
        <time>2019-08-08T10:27:50Z</time>
      </trkpt>
      <trkpt lat="48.57163" lon="7.72246">
        <ele>138.3</ele>
        <time>2019-08-08T10:27:51Z</time>
      </trkpt>
      <trkpt lat="48.57165" lon="7.72251">
        <ele>138.3</ele>
        <time>2019-08-08T10:27:52Z</time>
      </trkpt>
      <trkpt lat="48.57167" lon="7.72258">
        <ele>138.3</ele>
        <time>2019-08-08T10:27:53Z</time>
      </trkpt>
      <trkpt lat="48.57169" lon="7.72265">
        <ele>138.3</ele>
        <time>2019-08-08T10:27:54Z</time>
      </trkpt>
      <trkpt lat="48.57172" lon="7.72272">
        <ele>138.2</ele>
        <time>2019-08-08T10:27:55Z</time>
      </trkpt>
      <trkpt lat="48.57174" lon="7.7228">
        <ele>138.2</ele>
        <time>2019-08-08T10:27:56Z</time>
      </trkpt>
      <trkpt lat="48.57174" lon="7.72288">
        <ele>138.1</ele>
        <time>2019-08-08T10:27:57Z</time>
      </trkpt>
      <trkpt lat="48.57176" lon="7.72294">
        <ele>138.1</ele>
        <time>2019-08-08T10:27:58Z</time>
      </trkpt>
      <trkpt lat="48.57177" lon="7.72301">
        <ele>137.9</ele>
        <time>2019-08-08T10:27:59Z</time>
      </trkpt>
      <trkpt lat="48.57178" lon="7.72308">
        <ele>137.9</ele>
        <time>2019-08-08T10:28:00Z</time>
      </trkpt>
      <trkpt lat="48.57178" lon="7.72314">
        <ele>137.8</ele>
        <time>2019-08-08T10:28:01Z</time>
      </trkpt>
      <trkpt lat="48.5718" lon="7.72319">
        <ele>137.8</ele>
        <time>2019-08-08T10:28:02Z</time>
      </trkpt>
      <trkpt lat="48.57183" lon="7.72325">
        <ele>137.7</ele>
        <time>2019-08-08T10:28:03Z</time>
      </trkpt>
      <trkpt lat="48.57185" lon="7.7233">
        <ele>137.7</ele>
        <time>2019-08-08T10:28:04Z</time>
      </trkpt>
      <trkpt lat="48.57186" lon="7.72334">
        <ele>137.6</ele>
        <time>2019-08-08T10:28:05Z</time>
      </trkpt>
      <trkpt lat="48.57186" lon="7.72339">
        <ele>137.6</ele>
        <time>2019-08-08T10:28:06Z</time>
      </trkpt>
      <trkpt lat="48.57185" lon="7.72347">
        <ele>137.5</ele>
        <time>2019-08-08T10:28:08Z</time>
      </trkpt>
      <trkpt lat="48.57184" lon="7.72352">
        <ele>137.5</ele>
        <time>2019-08-08T10:28:09Z</time>
      </trkpt>
      <trkpt lat="48.57182" lon="7.72356">
        <ele>137.5</ele>
        <time>2019-08-08T10:28:12Z</time>
      </trkpt>
      <trkpt lat="48.57178" lon="7.72358">
        <ele>137.4</ele>
        <time>2019-08-08T10:28:14Z</time>
      </trkpt>
      <trkpt lat="48.57174" lon="7.72363">
        <ele>137.4</ele>
        <time>2019-08-08T10:28:16Z</time>
      </trkpt>
      <trkpt lat="48.57173" lon="7.72368">
        <ele>137.4</ele>
        <time>2019-08-08T10:28:17Z</time>
      </trkpt>
      <trkpt lat="48.57173" lon="7.72372">
        <ele>137.3</ele>
        <time>2019-08-08T10:28:18Z</time>
      </trkpt>
      <trkpt lat="48.5717" lon="7.72379">
        <ele>137.4</ele>
        <time>2019-08-08T10:28:20Z</time>
      </trkpt>
      <trkpt lat="48.57169" lon="7.72385">
        <ele>137.5</ele>
        <time>2019-08-08T10:28:21Z</time>
      </trkpt>
      <trkpt lat="48.57169" lon="7.72391">
        <ele>137.5</ele>
        <time>2019-08-08T10:28:22Z</time>
      </trkpt>
      <trkpt lat="48.57168" lon="7.72398">
        <ele>137.6</ele>
        <time>2019-08-08T10:28:23Z</time>
      </trkpt>
      <trkpt lat="48.57167" lon="7.72405">
        <ele>137.7</ele>
        <time>2019-08-08T10:28:24Z</time>
      </trkpt>
      <trkpt lat="48.57166" lon="7.72414">
        <ele>137.8</ele>
        <time>2019-08-08T10:28:25Z</time>
      </trkpt>
      <trkpt lat="48.57167" lon="7.72421">
        <ele>137.8</ele>
        <time>2019-08-08T10:28:26Z</time>
      </trkpt>
      <trkpt lat="48.57167" lon="7.72426">
        <ele>137.9</ele>
        <time>2019-08-08T10:28:27Z</time>
      </trkpt>
      <trkpt lat="48.57167" lon="7.72431">
        <ele>137.9</ele>
        <time>2019-08-08T10:28:28Z</time>
      </trkpt>
      <trkpt lat="48.57166" lon="7.72436">
        <ele>137.9</ele>
        <time>2019-08-08T10:28:29Z</time>
      </trkpt>
      <trkpt lat="48.57166" lon="7.72443">
        <ele>138</ele>
        <time>2019-08-08T10:28:31Z</time>
      </trkpt>
      <trkpt lat="48.57166" lon="7.72448">
        <ele>138</ele>
        <time>2019-08-08T10:28:32Z</time>
      </trkpt>
      <trkpt lat="48.57166" lon="7.72453">
        <ele>138</ele>
        <time>2019-08-08T10:28:33Z</time>
      </trkpt>
      <trkpt lat="48.57169" lon="7.72459">
        <ele>138</ele>
        <time>2019-08-08T10:28:34Z</time>
      </trkpt>
      <trkpt lat="48.57171" lon="7.72463">
        <ele>138.1</ele>
        <time>2019-08-08T10:28:35Z</time>
      </trkpt>
      <trkpt lat="48.57174" lon="7.7247">
        <ele>138.1</ele>
        <time>2019-08-08T10:28:36Z</time>
      </trkpt>
      <trkpt lat="48.57177" lon="7.72476">
        <ele>138.2</ele>
        <time>2019-08-08T10:28:37Z</time>
      </trkpt>
      <trkpt lat="48.5718" lon="7.7248">
        <ele>138.2</ele>
        <time>2019-08-08T10:28:38Z</time>
      </trkpt>
      <trkpt lat="48.57185" lon="7.72485">
        <ele>138.3</ele>
        <time>2019-08-08T10:28:39Z</time>
      </trkpt>
      <trkpt lat="48.5719" lon="7.7249">
        <ele>138.4</ele>
        <time>2019-08-08T10:28:40Z</time>
      </trkpt>
      <trkpt lat="48.57193" lon="7.72493">
        <ele>138.4</ele>
        <time>2019-08-08T10:28:41Z</time>
      </trkpt>
      <trkpt lat="48.57196" lon="7.72495">
        <ele>138.5</ele>
        <time>2019-08-08T10:28:42Z</time>
      </trkpt>
      <trkpt lat="48.57198" lon="7.72497">
        <ele>138.5</ele>
        <time>2019-08-08T10:28:43Z</time>
      </trkpt>
      <trkpt lat="48.57202" lon="7.72502">
        <ele>138.6</ele>
        <time>2019-08-08T10:28:44Z</time>
      </trkpt>
      <trkpt lat="48.57205" lon="7.72505">
        <ele>138.6</ele>
        <time>2019-08-08T10:28:45Z</time>
      </trkpt>
      <trkpt lat="48.57209" lon="7.72512">
        <ele>138.8</ele>
        <time>2019-08-08T10:28:46Z</time>
      </trkpt>
      <trkpt lat="48.57213" lon="7.72519">
        <ele>139</ele>
        <time>2019-08-08T10:28:47Z</time>
      </trkpt>
      <trkpt lat="48.57216" lon="7.72524">
        <ele>139.1</ele>
        <time>2019-08-08T10:28:48Z</time>
      </trkpt>
      <trkpt lat="48.57217" lon="7.72528">
        <ele>139.2</ele>
        <time>2019-08-08T10:28:49Z</time>
      </trkpt>
      <trkpt lat="48.5722" lon="7.72531">
        <ele>139.3</ele>
        <time>2019-08-08T10:28:51Z</time>
      </trkpt>
      <trkpt lat="48.57221" lon="7.72537">
        <ele>139.6</ele>
        <time>2019-08-08T10:28:55Z</time>
      </trkpt>
      <trkpt lat="48.57222" lon="7.72541">
        <ele>139.5</ele>
        <time>2019-08-08T10:28:56Z</time>
      </trkpt>
      <trkpt lat="48.57224" lon="7.72547">
        <ele>139.4</ele>
        <time>2019-08-08T10:28:57Z</time>
      </trkpt>
      <trkpt lat="48.57226" lon="7.72552">
        <ele>139.3</ele>
        <time>2019-08-08T10:28:58Z</time>
      </trkpt>
      <trkpt lat="48.57227" lon="7.72557">
        <ele>139.2</ele>
        <time>2019-08-08T10:28:59Z</time>
      </trkpt>
      <trkpt lat="48.57227" lon="7.72562">
        <ele>139.1</ele>
        <time>2019-08-08T10:29:00Z</time>
      </trkpt>
      <trkpt lat="48.57227" lon="7.7257">
        <ele>139</ele>
        <time>2019-08-08T10:29:02Z</time>
      </trkpt>
      <trkpt lat="48.57226" lon="7.72574">
        <ele>138.9</ele>
        <time>2019-08-08T10:29:03Z</time>
      </trkpt>
      <trkpt lat="48.57225" lon="7.72579">
        <ele>138.9</ele>
        <time>2019-08-08T10:29:04Z</time>
      </trkpt>
      <trkpt lat="48.57222" lon="7.72588">
        <ele>138.7</ele>
        <time>2019-08-08T10:29:06Z</time>
      </trkpt>
      <trkpt lat="48.5722" lon="7.72592">
        <ele>138.6</ele>
        <time>2019-08-08T10:29:07Z</time>
      </trkpt>
      <trkpt lat="48.57218" lon="7.726">
        <ele>138.5</ele>
        <time>2019-08-08T10:29:08Z</time>
      </trkpt>
      <trkpt lat="48.57216" lon="7.72606">
        <ele>138.4</ele>
        <time>2019-08-08T10:29:09Z</time>
      </trkpt>
      <trkpt lat="48.57215" lon="7.72615">
        <ele>138.3</ele>
        <time>2019-08-08T10:29:10Z</time>
      </trkpt>
      <trkpt lat="48.57215" lon="7.72624">
        <ele>138.2</ele>
        <time>2019-08-08T10:29:11Z</time>
      </trkpt>
      <trkpt lat="48.57216" lon="7.72632">
        <ele>138</ele>
        <time>2019-08-08T10:29:12Z</time>
      </trkpt>
      <trkpt lat="48.57216" lon="7.72639">
        <ele>138</ele>
        <time>2019-08-08T10:29:13Z</time>
      </trkpt>
      <trkpt lat="48.57216" lon="7.72645">
        <ele>137.9</ele>
        <time>2019-08-08T10:29:14Z</time>
      </trkpt>
      <trkpt lat="48.57216" lon="7.72651">
        <ele>137.8</ele>
        <time>2019-08-08T10:29:15Z</time>
      </trkpt>
      <trkpt lat="48.57217" lon="7.72656">
        <ele>137.8</ele>
        <time>2019-08-08T10:29:16Z</time>
      </trkpt>
      <trkpt lat="48.57217" lon="7.72661">
        <ele>137.7</ele>
        <time>2019-08-08T10:29:17Z</time>
      </trkpt>
      <trkpt lat="48.57218" lon="7.72667">
        <ele>137.7</ele>
        <time>2019-08-08T10:29:18Z</time>
      </trkpt>
      <trkpt lat="48.57218" lon="7.72676">
        <ele>137.6</ele>
        <time>2019-08-08T10:29:19Z</time>
      </trkpt>
      <trkpt lat="48.57217" lon="7.72685">
        <ele>137.6</ele>
        <time>2019-08-08T10:29:20Z</time>
      </trkpt>
      <trkpt lat="48.57217" lon="7.72694">
        <ele>137.5</ele>
        <time>2019-08-08T10:29:21Z</time>
      </trkpt>
      <trkpt lat="48.57216" lon="7.72702">
        <ele>137.5</ele>
        <time>2019-08-08T10:29:22Z</time>
      </trkpt>
      <trkpt lat="48.57216" lon="7.72711">
        <ele>137.4</ele>
        <time>2019-08-08T10:29:23Z</time>
      </trkpt>
      <trkpt lat="48.57217" lon="7.7272">
        <ele>137.3</ele>
        <time>2019-08-08T10:29:24Z</time>
      </trkpt>
      <trkpt lat="48.57217" lon="7.72729">
        <ele>137.2</ele>
        <time>2019-08-08T10:29:25Z</time>
      </trkpt>
      <trkpt lat="48.57216" lon="7.72738">
        <ele>137.1</ele>
        <time>2019-08-08T10:29:26Z</time>
      </trkpt>
      <trkpt lat="48.57217" lon="7.72744">
        <ele>137.1</ele>
        <time>2019-08-08T10:29:27Z</time>
      </trkpt>
      <trkpt lat="48.57218" lon="7.72751">
        <ele>137</ele>
        <time>2019-08-08T10:29:28Z</time>
      </trkpt>
      <trkpt lat="48.57219" lon="7.72758">
        <ele>137</ele>
        <time>2019-08-08T10:29:29Z</time>
      </trkpt>
      <trkpt lat="48.57219" lon="7.72764">
        <ele>136.9</ele>
        <time>2019-08-08T10:29:30Z</time>
      </trkpt>
      <trkpt lat="48.5722" lon="7.7277">
        <ele>136.9</ele>
        <time>2019-08-08T10:29:31Z</time>
      </trkpt>
      <trkpt lat="48.5722" lon="7.72774">
        <ele>136.8</ele>
        <time>2019-08-08T10:29:32Z</time>
      </trkpt>
      <trkpt lat="48.57221" lon="7.72779">
        <ele>136.8</ele>
        <time>2019-08-08T10:29:33Z</time>
      </trkpt>
      <trkpt lat="48.57222" lon="7.72784">
        <ele>136.7</ele>
        <time>2019-08-08T10:29:34Z</time>
      </trkpt>
      <trkpt lat="48.57223" lon="7.7279">
        <ele>136.7</ele>
        <time>2019-08-08T10:29:35Z</time>
      </trkpt>
      <trkpt lat="48.57224" lon="7.72797">
        <ele>136.6</ele>
        <time>2019-08-08T10:29:36Z</time>
      </trkpt>
      <trkpt lat="48.57226" lon="7.72804">
        <ele>136.5</ele>
        <time>2019-08-08T10:29:37Z</time>
      </trkpt>
      <trkpt lat="48.57227" lon="7.72813">
        <ele>136.5</ele>
        <time>2019-08-08T10:29:38Z</time>
      </trkpt>
      <trkpt lat="48.57229" lon="7.72821">
        <ele>136.4</ele>
        <time>2019-08-08T10:29:39Z</time>
      </trkpt>
      <trkpt lat="48.57231" lon="7.72828">
        <ele>136.4</ele>
        <time>2019-08-08T10:29:40Z</time>
      </trkpt>
      <trkpt lat="48.57233" lon="7.72836">
        <ele>136.3</ele>
        <time>2019-08-08T10:29:41Z</time>
      </trkpt>
      <trkpt lat="48.57235" lon="7.72844">
        <ele>136.3</ele>
        <time>2019-08-08T10:29:42Z</time>
      </trkpt>
      <trkpt lat="48.57237" lon="7.72851">
        <ele>136.2</ele>
        <time>2019-08-08T10:29:43Z</time>
      </trkpt>
      <trkpt lat="48.57238" lon="7.7286">
        <ele>136.2</ele>
        <time>2019-08-08T10:29:44Z</time>
      </trkpt>
      <trkpt lat="48.5724" lon="7.72869">
        <ele>136.1</ele>
        <time>2019-08-08T10:29:45Z</time>
      </trkpt>
      <trkpt lat="48.57241" lon="7.72878">
        <ele>136</ele>
        <time>2019-08-08T10:29:46Z</time>
      </trkpt>
      <trkpt lat="48.57242" lon="7.72888">
        <ele>136</ele>
        <time>2019-08-08T10:29:47Z</time>
      </trkpt>
      <trkpt lat="48.57242" lon="7.72896">
        <ele>135.9</ele>
        <time>2019-08-08T10:29:48Z</time>
      </trkpt>
      <trkpt lat="48.57243" lon="7.72904">
        <ele>135.8</ele>
        <time>2019-08-08T10:29:49Z</time>
      </trkpt>
      <trkpt lat="48.57244" lon="7.72911">
        <ele>135.8</ele>
        <time>2019-08-08T10:29:50Z</time>
      </trkpt>
      <trkpt lat="48.57245" lon="7.72917">
        <ele>135.7</ele>
        <time>2019-08-08T10:29:51Z</time>
      </trkpt>
      <trkpt lat="48.57247" lon="7.72923">
        <ele>135.7</ele>
        <time>2019-08-08T10:29:52Z</time>
      </trkpt>
      <trkpt lat="48.57251" lon="7.72926">
        <ele>135.6</ele>
        <time>2019-08-08T10:29:53Z</time>
      </trkpt>
      <trkpt lat="48.57253" lon="7.72932">
        <ele>135.6</ele>
        <time>2019-08-08T10:29:54Z</time>
      </trkpt>
      <trkpt lat="48.57256" lon="7.72939">
        <ele>135.5</ele>
        <time>2019-08-08T10:29:55Z</time>
      </trkpt>
      <trkpt lat="48.57256" lon="7.72946">
        <ele>135.5</ele>
        <time>2019-08-08T10:29:56Z</time>
      </trkpt>
      <trkpt lat="48.57257" lon="7.72953">
        <ele>135.5</ele>
        <time>2019-08-08T10:29:57Z</time>
      </trkpt>
      <trkpt lat="48.57258" lon="7.72958">
        <ele>135.5</ele>
        <time>2019-08-08T10:29:58Z</time>
      </trkpt>
      <trkpt lat="48.57257" lon="7.72964">
        <ele>135.6</ele>
        <time>2019-08-08T10:29:59Z</time>
      </trkpt>
      <trkpt lat="48.57257" lon="7.72972">
        <ele>135.7</ele>
        <time>2019-08-08T10:30:00Z</time>
      </trkpt>
      <trkpt lat="48.57257" lon="7.72979">
        <ele>135.9</ele>
        <time>2019-08-08T10:30:01Z</time>
      </trkpt>
      <trkpt lat="48.57257" lon="7.72986">
        <ele>136.1</ele>
        <time>2019-08-08T10:30:02Z</time>
      </trkpt>
      <trkpt lat="48.57258" lon="7.72991">
        <ele>136.3</ele>
        <time>2019-08-08T10:30:03Z</time>
      </trkpt>
      <trkpt lat="48.57259" lon="7.72997">
        <ele>136.5</ele>
        <time>2019-08-08T10:30:04Z</time>
      </trkpt>
      <trkpt lat="48.5726" lon="7.73001">
        <ele>136.7</ele>
        <time>2019-08-08T10:30:05Z</time>
      </trkpt>
      <trkpt lat="48.5726" lon="7.73007">
        <ele>136.8</ele>
        <time>2019-08-08T10:30:07Z</time>
      </trkpt>
      <trkpt lat="48.57259" lon="7.73012">
        <ele>136.9</ele>
        <time>2019-08-08T10:30:09Z</time>
      </trkpt>
      <trkpt lat="48.57256" lon="7.73021">
        <ele>137</ele>
        <time>2019-08-08T10:30:12Z</time>
      </trkpt>
      <trkpt lat="48.57253" lon="7.73024">
        <ele>137</ele>
        <time>2019-08-08T10:30:13Z</time>
      </trkpt>
      <trkpt lat="48.57251" lon="7.7303">
        <ele>137</ele>
        <time>2019-08-08T10:30:14Z</time>
      </trkpt>
      <trkpt lat="48.5725" lon="7.73039">
        <ele>136.8</ele>
        <time>2019-08-08T10:30:15Z</time>
      </trkpt>
      <trkpt lat="48.57251" lon="7.73047">
        <ele>136.7</ele>
        <time>2019-08-08T10:30:16Z</time>
      </trkpt>
      <trkpt lat="48.57253" lon="7.73056">
        <ele>136.5</ele>
        <time>2019-08-08T10:30:17Z</time>
      </trkpt>
      <trkpt lat="48.57255" lon="7.73065">
        <ele>136.4</ele>
        <time>2019-08-08T10:30:18Z</time>
      </trkpt>
      <trkpt lat="48.57257" lon="7.73074">
        <ele>136.4</ele>
        <time>2019-08-08T10:30:19Z</time>
      </trkpt>
      <trkpt lat="48.57258" lon="7.73083">
        <ele>136.5</ele>
        <time>2019-08-08T10:30:20Z</time>
      </trkpt>
      <trkpt lat="48.5726" lon="7.73093">
        <ele>136.7</ele>
        <time>2019-08-08T10:30:21Z</time>
      </trkpt>
      <trkpt lat="48.57263" lon="7.73102">
        <ele>137</ele>
        <time>2019-08-08T10:30:22Z</time>
      </trkpt>
      <trkpt lat="48.57266" lon="7.73113">
        <ele>137.3</ele>
        <time>2019-08-08T10:30:23Z</time>
      </trkpt>
      <trkpt lat="48.57267" lon="7.73121">
        <ele>137.6</ele>
        <time>2019-08-08T10:30:24Z</time>
      </trkpt>
      <trkpt lat="48.57267" lon="7.73129">
        <ele>137.9</ele>
        <time>2019-08-08T10:30:25Z</time>
      </trkpt>
      <trkpt lat="48.57267" lon="7.73134">
        <ele>137.9</ele>
        <time>2019-08-08T10:30:26Z</time>
      </trkpt>
      <trkpt lat="48.57267" lon="7.73141">
        <ele>137.8</ele>
        <time>2019-08-08T10:30:27Z</time>
      </trkpt>
      <trkpt lat="48.57267" lon="7.73151">
        <ele>137.8</ele>
        <time>2019-08-08T10:30:28Z</time>
      </trkpt>
      <trkpt lat="48.57266" lon="7.73159">
        <ele>137.9</ele>
        <time>2019-08-08T10:30:29Z</time>
      </trkpt>
      <trkpt lat="48.57265" lon="7.73167">
        <ele>137.9</ele>
        <time>2019-08-08T10:30:30Z</time>
      </trkpt>
      <trkpt lat="48.57264" lon="7.73173">
        <ele>137.9</ele>
        <time>2019-08-08T10:30:31Z</time>
      </trkpt>
      <trkpt lat="48.57264" lon="7.73179">
        <ele>138</ele>
        <time>2019-08-08T10:30:32Z</time>
      </trkpt>
      <trkpt lat="48.57263" lon="7.73185">
        <ele>138.1</ele>
        <time>2019-08-08T10:30:33Z</time>
      </trkpt>
      <trkpt lat="48.57262" lon="7.7319">
        <ele>138.1</ele>
        <time>2019-08-08T10:30:34Z</time>
      </trkpt>
      <trkpt lat="48.57262" lon="7.73195">
        <ele>138.2</ele>
        <time>2019-08-08T10:30:35Z</time>
      </trkpt>
      <trkpt lat="48.57261" lon="7.73202">
        <ele>138.3</ele>
        <time>2019-08-08T10:30:36Z</time>
      </trkpt>
      <trkpt lat="48.57259" lon="7.7321">
        <ele>138.5</ele>
        <time>2019-08-08T10:30:37Z</time>
      </trkpt>
      <trkpt lat="48.57257" lon="7.73217">
        <ele>138.6</ele>
        <time>2019-08-08T10:30:38Z</time>
      </trkpt>
      <trkpt lat="48.57256" lon="7.73226">
        <ele>138.8</ele>
        <time>2019-08-08T10:30:39Z</time>
      </trkpt>
      <trkpt lat="48.57257" lon="7.73233">
        <ele>138.9</ele>
        <time>2019-08-08T10:30:40Z</time>
      </trkpt>
      <trkpt lat="48.57257" lon="7.73242">
        <ele>139</ele>
        <time>2019-08-08T10:30:41Z</time>
      </trkpt>
      <trkpt lat="48.57257" lon="7.73249">
        <ele>139.1</ele>
        <time>2019-08-08T10:30:42Z</time>
      </trkpt>
      <trkpt lat="48.57258" lon="7.73257">
        <ele>139.2</ele>
        <time>2019-08-08T10:30:43Z</time>
      </trkpt>
      <trkpt lat="48.57259" lon="7.73264">
        <ele>139.2</ele>
        <time>2019-08-08T10:30:44Z</time>
      </trkpt>
      <trkpt lat="48.57259" lon="7.73271">
        <ele>139.2</ele>
        <time>2019-08-08T10:30:45Z</time>
      </trkpt>
      <trkpt lat="48.5726" lon="7.73277">
        <ele>139.2</ele>
        <time>2019-08-08T10:30:46Z</time>
      </trkpt>
      <trkpt lat="48.5726" lon="7.73283">
        <ele>139.2</ele>
        <time>2019-08-08T10:30:47Z</time>
      </trkpt>
      <trkpt lat="48.57261" lon="7.73289">
        <ele>139.2</ele>
        <time>2019-08-08T10:30:48Z</time>
      </trkpt>
      <trkpt lat="48.57263" lon="7.73295">
        <ele>139.1</ele>
        <time>2019-08-08T10:30:49Z</time>
      </trkpt>
      <trkpt lat="48.57264" lon="7.73301">
        <ele>139.1</ele>
        <time>2019-08-08T10:30:50Z</time>
      </trkpt>
      <trkpt lat="48.57265" lon="7.73307">
        <ele>139.1</ele>
        <time>2019-08-08T10:30:51Z</time>
      </trkpt>
      <trkpt lat="48.57265" lon="7.73314">
        <ele>139</ele>
        <time>2019-08-08T10:30:52Z</time>
      </trkpt>
      <trkpt lat="48.57266" lon="7.7332">
        <ele>139</ele>
        <time>2019-08-08T10:30:53Z</time>
      </trkpt>
      <trkpt lat="48.57267" lon="7.73327">
        <ele>139</ele>
        <time>2019-08-08T10:30:54Z</time>
      </trkpt>
      <trkpt lat="48.57268" lon="7.73333">
        <ele>139</ele>
        <time>2019-08-08T10:30:55Z</time>
      </trkpt>
      <trkpt lat="48.57269" lon="7.73339">
        <ele>139</ele>
        <time>2019-08-08T10:30:56Z</time>
      </trkpt>
      <trkpt lat="48.57271" lon="7.73345">
        <ele>139.1</ele>
        <time>2019-08-08T10:30:57Z</time>
      </trkpt>
      <trkpt lat="48.57273" lon="7.73349">
        <ele>139.1</ele>
        <time>2019-08-08T10:30:58Z</time>
      </trkpt>
      <trkpt lat="48.57274" lon="7.73353">
        <ele>139.1</ele>
        <time>2019-08-08T10:30:59Z</time>
      </trkpt>
      <trkpt lat="48.57275" lon="7.73359">
        <ele>139.1</ele>
        <time>2019-08-08T10:31:00Z</time>
      </trkpt>
      <trkpt lat="48.57278" lon="7.73367">
        <ele>139.2</ele>
        <time>2019-08-08T10:31:01Z</time>
      </trkpt>
      <trkpt lat="48.57282" lon="7.73374">
        <ele>139.4</ele>
        <time>2019-08-08T10:31:02Z</time>
      </trkpt>
      <trkpt lat="48.57284" lon="7.73382">
        <ele>139.2</ele>
        <time>2019-08-08T10:31:03Z</time>
      </trkpt>
      <trkpt lat="48.57288" lon="7.7339">
        <ele>138.9</ele>
        <time>2019-08-08T10:31:04Z</time>
      </trkpt>
      <trkpt lat="48.57291" lon="7.73399">
        <ele>138.7</ele>
        <time>2019-08-08T10:31:05Z</time>
      </trkpt>
      <trkpt lat="48.57294" lon="7.73408">
        <ele>138.6</ele>
        <time>2019-08-08T10:31:06Z</time>
      </trkpt>
      <trkpt lat="48.57297" lon="7.73416">
        <ele>138.5</ele>
        <time>2019-08-08T10:31:07Z</time>
      </trkpt>
      <trkpt lat="48.573" lon="7.73425">
        <ele>138.4</ele>
        <time>2019-08-08T10:31:08Z</time>
      </trkpt>
      <trkpt lat="48.57303" lon="7.73433">
        <ele>138.3</ele>
        <time>2019-08-08T10:31:09Z</time>
      </trkpt>
      <trkpt lat="48.57305" lon="7.73441">
        <ele>138.2</ele>
        <time>2019-08-08T10:31:10Z</time>
      </trkpt>
      <trkpt lat="48.57308" lon="7.73446">
        <ele>138.2</ele>
        <time>2019-08-08T10:31:11Z</time>
      </trkpt>
      <trkpt lat="48.57311" lon="7.73451">
        <ele>138.2</ele>
        <time>2019-08-08T10:31:12Z</time>
      </trkpt>
      <trkpt lat="48.57312" lon="7.73456">
        <ele>138.2</ele>
        <time>2019-08-08T10:31:13Z</time>
      </trkpt>
      <trkpt lat="48.57315" lon="7.73462">
        <ele>138.3</ele>
        <time>2019-08-08T10:31:14Z</time>
      </trkpt>
      <trkpt lat="48.5732" lon="7.73469">
        <ele>138.4</ele>
        <time>2019-08-08T10:31:15Z</time>
      </trkpt>
      <trkpt lat="48.57323" lon="7.73475">
        <ele>138.5</ele>
        <time>2019-08-08T10:31:16Z</time>
      </trkpt>
      <trkpt lat="48.57326" lon="7.73481">
        <ele>138.6</ele>
        <time>2019-08-08T10:31:17Z</time>
      </trkpt>
      <trkpt lat="48.57329" lon="7.73486">
        <ele>140.6</ele>
        <time>2019-08-08T10:31:18Z</time>
      </trkpt>
      <trkpt lat="48.57332" lon="7.73492">
        <ele>140.3</ele>
        <time>2019-08-08T10:31:19Z</time>
      </trkpt>
      <trkpt lat="48.57334" lon="7.73499">
        <ele>140.1</ele>
        <time>2019-08-08T10:31:20Z</time>
      </trkpt>
      <trkpt lat="48.57338" lon="7.73503">
        <ele>139.8</ele>
        <time>2019-08-08T10:31:21Z</time>
      </trkpt>
      <trkpt lat="48.57343" lon="7.73508">
        <ele>139.6</ele>
        <time>2019-08-08T10:31:22Z</time>
      </trkpt>
      <trkpt lat="48.57347" lon="7.73514">
        <ele>139.3</ele>
        <time>2019-08-08T10:31:23Z</time>
      </trkpt>
      <trkpt lat="48.5735" lon="7.73521">
        <ele>139.4</ele>
        <time>2019-08-08T10:31:24Z</time>
      </trkpt>
      <trkpt lat="48.57354" lon="7.73528">
        <ele>139.3</ele>
        <time>2019-08-08T10:31:25Z</time>
      </trkpt>
      <trkpt lat="48.57357" lon="7.73535">
        <ele>139.2</ele>
        <time>2019-08-08T10:31:26Z</time>
      </trkpt>
      <trkpt lat="48.57362" lon="7.7354">
        <ele>139</ele>
        <time>2019-08-08T10:31:27Z</time>
      </trkpt>
      <trkpt lat="48.57366" lon="7.73544">
        <ele>138.8</ele>
        <time>2019-08-08T10:31:28Z</time>
      </trkpt>
      <trkpt lat="48.5737" lon="7.73549">
        <ele>138.7</ele>
        <time>2019-08-08T10:31:29Z</time>
      </trkpt>
      <trkpt lat="48.57375" lon="7.73554">
        <ele>138.5</ele>
        <time>2019-08-08T10:31:30Z</time>
      </trkpt>
      <trkpt lat="48.57378" lon="7.7356">
        <ele>138.3</ele>
        <time>2019-08-08T10:31:31Z</time>
      </trkpt>
      <trkpt lat="48.57381" lon="7.73563">
        <ele>138.2</ele>
        <time>2019-08-08T10:31:32Z</time>
      </trkpt>
      <trkpt lat="48.57385" lon="7.73566">
        <ele>137.9</ele>
        <time>2019-08-08T10:31:33Z</time>
      </trkpt>
      <trkpt lat="48.57388" lon="7.73568">
        <ele>137.7</ele>
        <time>2019-08-08T10:31:34Z</time>
      </trkpt>
      <trkpt lat="48.57392" lon="7.73571">
        <ele>137.5</ele>
        <time>2019-08-08T10:31:35Z</time>
      </trkpt>
      <trkpt lat="48.57396" lon="7.73574">
        <ele>137.2</ele>
        <time>2019-08-08T10:31:36Z</time>
      </trkpt>
      <trkpt lat="48.57402" lon="7.73577">
        <ele>137</ele>
        <time>2019-08-08T10:31:37Z</time>
      </trkpt>
      <trkpt lat="48.57408" lon="7.73579">
        <ele>136.9</ele>
        <time>2019-08-08T10:31:38Z</time>
      </trkpt>
      <trkpt lat="48.57413" lon="7.73582">
        <ele>136.7</ele>
        <time>2019-08-08T10:31:39Z</time>
      </trkpt>
      <trkpt lat="48.57419" lon="7.73585">
        <ele>136.7</ele>
        <time>2019-08-08T10:31:40Z</time>
      </trkpt>
      <trkpt lat="48.57423" lon="7.73589">
        <ele>136.7</ele>
        <time>2019-08-08T10:31:41Z</time>
      </trkpt>
      <trkpt lat="48.57427" lon="7.73594">
        <ele>136.7</ele>
        <time>2019-08-08T10:31:42Z</time>
      </trkpt>
      <trkpt lat="48.57431" lon="7.73598">
        <ele>136.7</ele>
        <time>2019-08-08T10:31:43Z</time>
      </trkpt>
      <trkpt lat="48.57436" lon="7.73603">
        <ele>136.8</ele>
        <time>2019-08-08T10:31:44Z</time>
      </trkpt>
      <trkpt lat="48.57441" lon="7.73607">
        <ele>136.8</ele>
        <time>2019-08-08T10:31:45Z</time>
      </trkpt>
      <trkpt lat="48.57448" lon="7.73613">
        <ele>136.9</ele>
        <time>2019-08-08T10:31:46Z</time>
      </trkpt>
      <trkpt lat="48.57452" lon="7.73617">
        <ele>137</ele>
        <time>2019-08-08T10:31:47Z</time>
      </trkpt>
      <trkpt lat="48.57456" lon="7.73621">
        <ele>137.1</ele>
        <time>2019-08-08T10:31:48Z</time>
      </trkpt>
      <trkpt lat="48.57459" lon="7.73626">
        <ele>137.1</ele>
        <time>2019-08-08T10:31:49Z</time>
      </trkpt>
      <trkpt lat="48.57462" lon="7.73629">
        <ele>137.2</ele>
        <time>2019-08-08T10:31:50Z</time>
      </trkpt>
      <trkpt lat="48.57466" lon="7.73632">
        <ele>137.2</ele>
        <time>2019-08-08T10:31:51Z</time>
      </trkpt>
      <trkpt lat="48.57469" lon="7.73634">
        <ele>137.2</ele>
        <time>2019-08-08T10:31:52Z</time>
      </trkpt>
      <trkpt lat="48.57474" lon="7.73636">
        <ele>137.2</ele>
        <time>2019-08-08T10:31:53Z</time>
      </trkpt>
      <trkpt lat="48.5748" lon="7.73641">
        <ele>137.3</ele>
        <time>2019-08-08T10:31:54Z</time>
      </trkpt>
      <trkpt lat="48.57487" lon="7.73645">
        <ele>137.3</ele>
        <time>2019-08-08T10:31:55Z</time>
      </trkpt>
      <trkpt lat="48.57492" lon="7.73646">
        <ele>137.3</ele>
        <time>2019-08-08T10:31:56Z</time>
      </trkpt>
      <trkpt lat="48.57499" lon="7.73647">
        <ele>137.4</ele>
        <time>2019-08-08T10:31:57Z</time>
      </trkpt>
      <trkpt lat="48.57504" lon="7.73649">
        <ele>137.4</ele>
        <time>2019-08-08T10:31:58Z</time>
      </trkpt>
      <trkpt lat="48.5751" lon="7.73651">
        <ele>137.4</ele>
        <time>2019-08-08T10:31:59Z</time>
      </trkpt>
      <trkpt lat="48.57515" lon="7.73653">
        <ele>137.4</ele>
        <time>2019-08-08T10:32:00Z</time>
      </trkpt>
      <trkpt lat="48.5752" lon="7.73656">
        <ele>137.4</ele>
        <time>2019-08-08T10:32:01Z</time>
      </trkpt>
      <trkpt lat="48.57525" lon="7.73659">
        <ele>137.4</ele>
        <time>2019-08-08T10:32:02Z</time>
      </trkpt>
      <trkpt lat="48.57529" lon="7.73662">
        <ele>137.4</ele>
        <time>2019-08-08T10:32:03Z</time>
      </trkpt>
      <trkpt lat="48.57533" lon="7.73665">
        <ele>137.4</ele>
        <time>2019-08-08T10:32:04Z</time>
      </trkpt>
      <trkpt lat="48.57537" lon="7.73665">
        <ele>137.4</ele>
        <time>2019-08-08T10:32:05Z</time>
      </trkpt>
      <trkpt lat="48.57542" lon="7.73665">
        <ele>137.4</ele>
        <time>2019-08-08T10:32:06Z</time>
      </trkpt>
      <trkpt lat="48.57548" lon="7.73668">
        <ele>137.4</ele>
        <time>2019-08-08T10:32:07Z</time>
      </trkpt>
      <trkpt lat="48.57554" lon="7.73671">
        <ele>137.4</ele>
        <time>2019-08-08T10:32:08Z</time>
      </trkpt>
      <trkpt lat="48.57558" lon="7.73673">
        <ele>137.5</ele>
        <time>2019-08-08T10:32:09Z</time>
      </trkpt>
      <trkpt lat="48.57563" lon="7.73674">
        <ele>137.5</ele>
        <time>2019-08-08T10:32:10Z</time>
      </trkpt>
      <trkpt lat="48.57567" lon="7.73674">
        <ele>137.6</ele>
        <time>2019-08-08T10:32:11Z</time>
      </trkpt>
      <trkpt lat="48.57574" lon="7.73674">
        <ele>137.7</ele>
        <time>2019-08-08T10:32:12Z</time>
      </trkpt>
      <trkpt lat="48.57581" lon="7.73674">
        <ele>137.8</ele>
        <time>2019-08-08T10:32:13Z</time>
      </trkpt>
      <trkpt lat="48.57587" lon="7.73675">
        <ele>138</ele>
        <time>2019-08-08T10:32:14Z</time>
      </trkpt>
      <trkpt lat="48.57592" lon="7.73677">
        <ele>138.1</ele>
        <time>2019-08-08T10:32:15Z</time>
      </trkpt>
      <trkpt lat="48.57596" lon="7.73678">
        <ele>138.2</ele>
        <time>2019-08-08T10:32:16Z</time>
      </trkpt>
      <trkpt lat="48.57601" lon="7.73679">
        <ele>138.4</ele>
        <time>2019-08-08T10:32:17Z</time>
      </trkpt>
      <trkpt lat="48.57606" lon="7.7368">
        <ele>138.6</ele>
        <time>2019-08-08T10:32:18Z</time>
      </trkpt>
      <trkpt lat="48.57609" lon="7.73681">
        <ele>138.7</ele>
        <time>2019-08-08T10:32:19Z</time>
      </trkpt>
      <trkpt lat="48.57614" lon="7.73681">
        <ele>138.9</ele>
        <time>2019-08-08T10:32:20Z</time>
      </trkpt>
      <trkpt lat="48.57617" lon="7.73679">
        <ele>139</ele>
        <time>2019-08-08T10:32:21Z</time>
      </trkpt>
      <trkpt lat="48.57621" lon="7.73679">
        <ele>139.1</ele>
        <time>2019-08-08T10:32:22Z</time>
      </trkpt>
      <trkpt lat="48.57626" lon="7.73678">
        <ele>139.3</ele>
        <time>2019-08-08T10:32:23Z</time>
      </trkpt>
      <trkpt lat="48.57631" lon="7.73677">
        <ele>139.5</ele>
        <time>2019-08-08T10:32:24Z</time>
      </trkpt>
      <trkpt lat="48.57635" lon="7.73675">
        <ele>139.7</ele>
        <time>2019-08-08T10:32:25Z</time>
      </trkpt>
      <trkpt lat="48.57639" lon="7.73674">
        <ele>139.8</ele>
        <time>2019-08-08T10:32:26Z</time>
      </trkpt>
      <trkpt lat="48.57642" lon="7.73673">
        <ele>140</ele>
        <time>2019-08-08T10:32:27Z</time>
      </trkpt>
      <trkpt lat="48.57648" lon="7.73666">
        <ele>140.5</ele>
        <time>2019-08-08T10:32:28Z</time>
      </trkpt>
      <trkpt lat="48.57655" lon="7.73661">
        <ele>140.8</ele>
        <time>2019-08-08T10:32:29Z</time>
      </trkpt>
      <trkpt lat="48.57661" lon="7.73658">
        <ele>140.8</ele>
        <time>2019-08-08T10:32:30Z</time>
      </trkpt>
      <trkpt lat="48.57665" lon="7.73656">
        <ele>140.7</ele>
        <time>2019-08-08T10:32:31Z</time>
      </trkpt>
      <trkpt lat="48.57668" lon="7.73655">
        <ele>140.7</ele>
        <time>2019-08-08T10:32:32Z</time>
      </trkpt>
      <trkpt lat="48.57672" lon="7.73654">
        <ele>140.7</ele>
        <time>2019-08-08T10:32:33Z</time>
      </trkpt>
      <trkpt lat="48.57675" lon="7.73653">
        <ele>140.7</ele>
        <time>2019-08-08T10:32:34Z</time>
      </trkpt>
      <trkpt lat="48.5768" lon="7.7365">
        <ele>140.7</ele>
        <time>2019-08-08T10:32:35Z</time>
      </trkpt>
      <trkpt lat="48.57687" lon="7.73648">
        <ele>140.6</ele>
        <time>2019-08-08T10:32:37Z</time>
      </trkpt>
      <trkpt lat="48.57689" lon="7.73648">
        <ele>140.6</ele>
        <time>2019-08-08T10:32:38Z</time>
      </trkpt>
      <trkpt lat="48.57692" lon="7.73647">
        <ele>140.6</ele>
        <time>2019-08-08T10:32:39Z</time>
      </trkpt>
      <trkpt lat="48.57697" lon="7.73645">
        <ele>140.6</ele>
        <time>2019-08-08T10:32:40Z</time>
      </trkpt>
      <trkpt lat="48.57701" lon="7.73644">
        <ele>140.6</ele>
        <time>2019-08-08T10:32:41Z</time>
      </trkpt>
      <trkpt lat="48.57705" lon="7.73641">
        <ele>140.5</ele>
        <time>2019-08-08T10:32:42Z</time>
      </trkpt>
      <trkpt lat="48.57708" lon="7.73639">
        <ele>140.5</ele>
        <time>2019-08-08T10:32:43Z</time>
      </trkpt>
      <trkpt lat="48.57713" lon="7.73638">
        <ele>140.5</ele>
        <time>2019-08-08T10:32:44Z</time>
      </trkpt>
      <trkpt lat="48.57716" lon="7.73637">
        <ele>140.5</ele>
        <time>2019-08-08T10:32:45Z</time>
      </trkpt>
      <trkpt lat="48.5772" lon="7.73634">
        <ele>140.5</ele>
        <time>2019-08-08T10:32:46Z</time>
      </trkpt>
      <trkpt lat="48.57724" lon="7.73632">
        <ele>140.4</ele>
        <time>2019-08-08T10:32:47Z</time>
      </trkpt>
      <trkpt lat="48.57728" lon="7.73631">
        <ele>140.4</ele>
        <time>2019-08-08T10:32:48Z</time>
      </trkpt>
      <trkpt lat="48.57732" lon="7.73629">
        <ele>140.4</ele>
        <time>2019-08-08T10:32:49Z</time>
      </trkpt>
      <trkpt lat="48.57736" lon="7.73628">
        <ele>140.4</ele>
        <time>2019-08-08T10:32:50Z</time>
      </trkpt>
      <trkpt lat="48.57738" lon="7.73627">
        <ele>140.4</ele>
        <time>2019-08-08T10:32:51Z</time>
      </trkpt>
      <trkpt lat="48.57742" lon="7.73625">
        <ele>140.4</ele>
        <time>2019-08-08T10:32:52Z</time>
      </trkpt>
      <trkpt lat="48.57746" lon="7.73624">
        <ele>140.3</ele>
        <time>2019-08-08T10:32:53Z</time>
      </trkpt>
      <trkpt lat="48.57751" lon="7.73622">
        <ele>140.3</ele>
        <time>2019-08-08T10:32:54Z</time>
      </trkpt>
      <trkpt lat="48.57755" lon="7.73621">
        <ele>140.3</ele>
        <time>2019-08-08T10:32:55Z</time>
      </trkpt>
      <trkpt lat="48.5776" lon="7.7362">
        <ele>140.3</ele>
        <time>2019-08-08T10:32:56Z</time>
      </trkpt>
      <trkpt lat="48.57764" lon="7.73619">
        <ele>140.3</ele>
        <time>2019-08-08T10:32:57Z</time>
      </trkpt>
      <trkpt lat="48.57768" lon="7.73619">
        <ele>140.3</ele>
        <time>2019-08-08T10:32:58Z</time>
      </trkpt>
      <trkpt lat="48.57772" lon="7.73618">
        <ele>140.3</ele>
        <time>2019-08-08T10:32:59Z</time>
      </trkpt>
      <trkpt lat="48.57776" lon="7.73617">
        <ele>140.3</ele>
        <time>2019-08-08T10:33:00Z</time>
      </trkpt>
      <trkpt lat="48.57779" lon="7.73617">
        <ele>140.3</ele>
        <time>2019-08-08T10:33:01Z</time>
      </trkpt>
      <trkpt lat="48.57782" lon="7.73617">
        <ele>140.3</ele>
        <time>2019-08-08T10:33:02Z</time>
      </trkpt>
      <trkpt lat="48.57786" lon="7.73616">
        <ele>140.3</ele>
        <time>2019-08-08T10:33:03Z</time>
      </trkpt>
      <trkpt lat="48.5779" lon="7.73616">
        <ele>140.3</ele>
        <time>2019-08-08T10:33:04Z</time>
      </trkpt>
      <trkpt lat="48.57793" lon="7.73615">
        <ele>140.4</ele>
        <time>2019-08-08T10:33:05Z</time>
      </trkpt>
      <trkpt lat="48.57796" lon="7.73613">
        <ele>140.4</ele>
        <time>2019-08-08T10:33:06Z</time>
      </trkpt>
      <trkpt lat="48.578" lon="7.73612">
        <ele>140.4</ele>
        <time>2019-08-08T10:33:07Z</time>
      </trkpt>
      <trkpt lat="48.57803" lon="7.73611">
        <ele>140.4</ele>
        <time>2019-08-08T10:33:08Z</time>
      </trkpt>
      <trkpt lat="48.57807" lon="7.7361">
        <ele>140.5</ele>
        <time>2019-08-08T10:33:09Z</time>
      </trkpt>
      <trkpt lat="48.5781" lon="7.7361">
        <ele>140.5</ele>
        <time>2019-08-08T10:33:10Z</time>
      </trkpt>
      <trkpt lat="48.57812" lon="7.73609">
        <ele>140.5</ele>
        <time>2019-08-08T10:33:11Z</time>
      </trkpt>
      <trkpt lat="48.57817" lon="7.73607">
        <ele>140.6</ele>
        <time>2019-08-08T10:33:13Z</time>
      </trkpt>
      <trkpt lat="48.5782" lon="7.73605">
        <ele>140.6</ele>
        <time>2019-08-08T10:33:14Z</time>
      </trkpt>
      <trkpt lat="48.57824" lon="7.73604">
        <ele>140.7</ele>
        <time>2019-08-08T10:33:15Z</time>
      </trkpt>
      <trkpt lat="48.57828" lon="7.73602">
        <ele>140.7</ele>
        <time>2019-08-08T10:33:16Z</time>
      </trkpt>
      <trkpt lat="48.57831" lon="7.73601">
        <ele>140.8</ele>
        <time>2019-08-08T10:33:17Z</time>
      </trkpt>
      <trkpt lat="48.57835" lon="7.736">
        <ele>140.8</ele>
        <time>2019-08-08T10:33:18Z</time>
      </trkpt>
      <trkpt lat="48.57839" lon="7.73599">
        <ele>140.6</ele>
        <time>2019-08-08T10:33:20Z</time>
      </trkpt>
      <trkpt lat="48.57842" lon="7.73602">
        <ele>140.3</ele>
        <time>2019-08-08T10:33:23Z</time>
      </trkpt>
      <trkpt lat="48.57844" lon="7.73604">
        <ele>140</ele>
        <time>2019-08-08T10:33:25Z</time>
      </trkpt>
      <trkpt lat="48.57847" lon="7.73607">
        <ele>139.7</ele>
        <time>2019-08-08T10:33:28Z</time>
      </trkpt>
      <trkpt lat="48.5785" lon="7.73607">
        <ele>139.5</ele>
        <time>2019-08-08T10:33:33Z</time>
      </trkpt>
      <trkpt lat="48.57856" lon="7.73613">
        <ele>139.5</ele>
        <time>2019-08-08T10:34:10Z</time>
      </trkpt>
      <trkpt lat="48.57858" lon="7.73617">
        <ele>139.4</ele>
        <time>2019-08-08T10:34:13Z</time>
      </trkpt>
      <trkpt lat="48.5786" lon="7.73621">
        <ele>139.4</ele>
        <time>2019-08-08T10:34:14Z</time>
      </trkpt>
      <trkpt lat="48.57861" lon="7.73625">
        <ele>139.4</ele>
        <time>2019-08-08T10:34:16Z</time>
      </trkpt>
      <trkpt lat="48.57863" lon="7.73629">
        <ele>139.5</ele>
        <time>2019-08-08T10:34:19Z</time>
      </trkpt>
      <trkpt lat="48.57865" lon="7.73634">
        <ele>139.8</ele>
        <time>2019-08-08T10:34:21Z</time>
      </trkpt>
      <trkpt lat="48.57868" lon="7.73637">
        <ele>139.8</ele>
        <time>2019-08-08T10:34:22Z</time>
      </trkpt>
      <trkpt lat="48.57872" lon="7.7364">
        <ele>139.8</ele>
        <time>2019-08-08T10:34:23Z</time>
      </trkpt>
      <trkpt lat="48.57875" lon="7.73643">
        <ele>139.8</ele>
        <time>2019-08-08T10:34:24Z</time>
      </trkpt>
      <trkpt lat="48.5788" lon="7.73648">
        <ele>139.5</ele>
        <time>2019-08-08T10:34:26Z</time>
      </trkpt>
      <trkpt lat="48.57883" lon="7.73651">
        <ele>139.6</ele>
        <time>2019-08-08T10:34:27Z</time>
      </trkpt>
      <trkpt lat="48.57886" lon="7.73658">
        <ele>139.7</ele>
        <time>2019-08-08T10:34:29Z</time>
      </trkpt>
      <trkpt lat="48.57888" lon="7.73661">
        <ele>139.8</ele>
        <time>2019-08-08T10:34:30Z</time>
      </trkpt>
      <trkpt lat="48.57891" lon="7.73666">
        <ele>140</ele>
        <time>2019-08-08T10:34:31Z</time>
      </trkpt>
      <trkpt lat="48.57893" lon="7.7367">
        <ele>140.1</ele>
        <time>2019-08-08T10:34:32Z</time>
      </trkpt>
      <trkpt lat="48.57897" lon="7.73674">
        <ele>140.1</ele>
        <time>2019-08-08T10:34:34Z</time>
      </trkpt>
      <trkpt lat="48.57899" lon="7.73676">
        <ele>140.2</ele>
        <time>2019-08-08T10:34:35Z</time>
      </trkpt>
      <trkpt lat="48.57902" lon="7.73678">
        <ele>140</ele>
        <time>2019-08-08T10:34:36Z</time>
      </trkpt>
      <trkpt lat="48.57906" lon="7.7368">
        <ele>139.9</ele>
        <time>2019-08-08T10:34:37Z</time>
      </trkpt>
      <trkpt lat="48.57909" lon="7.73683">
        <ele>139.8</ele>
        <time>2019-08-08T10:34:38Z</time>
      </trkpt>
      <trkpt lat="48.57913" lon="7.73686">
        <ele>139.9</ele>
        <time>2019-08-08T10:34:39Z</time>
      </trkpt>
      <trkpt lat="48.57917" lon="7.7369">
        <ele>140.1</ele>
        <time>2019-08-08T10:34:40Z</time>
      </trkpt>
      <trkpt lat="48.5792" lon="7.73693">
        <ele>140.4</ele>
        <time>2019-08-08T10:34:41Z</time>
      </trkpt>
      <trkpt lat="48.57923" lon="7.73694">
        <ele>140.5</ele>
        <time>2019-08-08T10:34:42Z</time>
      </trkpt>
      <trkpt lat="48.57928" lon="7.73697">
        <ele>140.7</ele>
        <time>2019-08-08T10:34:43Z</time>
      </trkpt>
      <trkpt lat="48.57933" lon="7.737">
        <ele>140.8</ele>
        <time>2019-08-08T10:34:44Z</time>
      </trkpt>
      <trkpt lat="48.57938" lon="7.73704">
        <ele>140.7</ele>
        <time>2019-08-08T10:34:45Z</time>
      </trkpt>
      <trkpt lat="48.57941" lon="7.73707">
        <ele>140.7</ele>
        <time>2019-08-08T10:34:46Z</time>
      </trkpt>
      <trkpt lat="48.57944" lon="7.73709">
        <ele>140.6</ele>
        <time>2019-08-08T10:34:47Z</time>
      </trkpt>
      <trkpt lat="48.57946" lon="7.73711">
        <ele>140.6</ele>
        <time>2019-08-08T10:34:48Z</time>
      </trkpt>
      <trkpt lat="48.57949" lon="7.73714">
        <ele>140.6</ele>
        <time>2019-08-08T10:34:49Z</time>
      </trkpt>
      <trkpt lat="48.57952" lon="7.73715">
        <ele>140.6</ele>
        <time>2019-08-08T10:34:50Z</time>
      </trkpt>
      <trkpt lat="48.57955" lon="7.73717">
        <ele>140.7</ele>
        <time>2019-08-08T10:34:51Z</time>
      </trkpt>
      <trkpt lat="48.5796" lon="7.73719">
        <ele>140.8</ele>
        <time>2019-08-08T10:34:53Z</time>
      </trkpt>
      <trkpt lat="48.57964" lon="7.7372">
        <ele>140.8</ele>
        <time>2019-08-08T10:34:54Z</time>
      </trkpt>
      <trkpt lat="48.57968" lon="7.73722">
        <ele>140.8</ele>
        <time>2019-08-08T10:34:55Z</time>
      </trkpt>
      <trkpt lat="48.57972" lon="7.73725">
        <ele>140.8</ele>
        <time>2019-08-08T10:34:56Z</time>
      </trkpt>
      <trkpt lat="48.57976" lon="7.73726">
        <ele>140.8</ele>
        <time>2019-08-08T10:34:57Z</time>
      </trkpt>
      <trkpt lat="48.57979" lon="7.73727">
        <ele>140.8</ele>
        <time>2019-08-08T10:34:58Z</time>
      </trkpt>
      <trkpt lat="48.57984" lon="7.73729">
        <ele>140.9</ele>
        <time>2019-08-08T10:35:00Z</time>
      </trkpt>
      <trkpt lat="48.57988" lon="7.73729">
        <ele>141.4</ele>
        <time>2019-08-08T10:35:02Z</time>
      </trkpt>
      <trkpt lat="48.57993" lon="7.73726">
        <ele>141.6</ele>
        <time>2019-08-08T10:35:04Z</time>
      </trkpt>
      <trkpt lat="48.57997" lon="7.73727">
        <ele>141.6</ele>
        <time>2019-08-08T10:35:06Z</time>
      </trkpt>
      <trkpt lat="48.58" lon="7.73727">
        <ele>141.6</ele>
        <time>2019-08-08T10:35:08Z</time>
      </trkpt>
      <trkpt lat="48.57999" lon="7.73731">
        <ele>141.6</ele>
        <time>2019-08-08T10:35:12Z</time>
      </trkpt>
      <trkpt lat="48.57998" lon="7.73736">
        <ele>141.7</ele>
        <time>2019-08-08T10:35:18Z</time>
      </trkpt>
      <trkpt lat="48.57999" lon="7.73741">
        <ele>141.9</ele>
        <time>2019-08-08T10:35:20Z</time>
      </trkpt>
      <trkpt lat="48.57999" lon="7.73746">
        <ele>142</ele>
        <time>2019-08-08T10:35:22Z</time>
      </trkpt>
      <trkpt lat="48.58" lon="7.7375">
        <ele>142.1</ele>
        <time>2019-08-08T10:35:25Z</time>
      </trkpt>
      <trkpt lat="48.58008" lon="7.73743">
        <ele>141.7</ele>
        <time>2019-08-08T10:36:12Z</time>
      </trkpt>
      <trkpt lat="48.58006" lon="7.7374">
        <ele>141.6</ele>
        <time>2019-08-08T10:36:14Z</time>
      </trkpt>
      <trkpt lat="48.58006" lon="7.73733">
        <ele>141.3</ele>
        <time>2019-08-08T10:36:21Z</time>
      </trkpt>
      <trkpt lat="48.58014" lon="7.73743">
        <ele>141.4</ele>
        <time>2019-08-08T10:37:00Z</time>
      </trkpt>
      <trkpt lat="48.58013" lon="7.73748">
        <ele>141.5</ele>
        <time>2019-08-08T10:37:15Z</time>
      </trkpt>
      <trkpt lat="48.5792" lon="7.73872">
        <ele>141</ele>
        <time>2019-08-08T10:38:14Z</time>
      </trkpt>
      <trkpt lat="48.57916" lon="7.73875">
        <ele>141</ele>
        <time>2019-08-08T10:38:17Z</time>
      </trkpt>
      <trkpt lat="48.57916" lon="7.7388">
        <ele>140.9</ele>
        <time>2019-08-08T10:38:20Z</time>
      </trkpt>
      <trkpt lat="48.57918" lon="7.73883">
        <ele>140.8</ele>
        <time>2019-08-08T10:38:24Z</time>
      </trkpt>
      <trkpt lat="48.57918" lon="7.73888">
        <ele>140.7</ele>
        <time>2019-08-08T10:38:27Z</time>
      </trkpt>
      <trkpt lat="48.5792" lon="7.73893">
        <ele>140.6</ele>
        <time>2019-08-08T10:38:32Z</time>
      </trkpt>
      <trkpt lat="48.5792" lon="7.73897">
        <ele>140.5</ele>
        <time>2019-08-08T10:38:36Z</time>
      </trkpt>
      <trkpt lat="48.57922" lon="7.73902">
        <ele>140.4</ele>
        <time>2019-08-08T10:38:40Z</time>
      </trkpt>
      <trkpt lat="48.57924" lon="7.73902">
        <ele>140.3</ele>
        <time>2019-08-08T10:38:44Z</time>
      </trkpt>
      <trkpt lat="48.57935" lon="7.73907">
        <ele>140.4</ele>
        <time>2019-08-08T10:42:34Z</time>
      </trkpt>
      <trkpt lat="48.57932" lon="7.7391">
        <ele>140.4</ele>
        <time>2019-08-08T10:42:37Z</time>
      </trkpt>
      <trkpt lat="48.5793" lon="7.73913">
        <ele>140.3</ele>
        <time>2019-08-08T10:42:40Z</time>
      </trkpt>
      <trkpt lat="48.57929" lon="7.73919">
        <ele>140.3</ele>
        <time>2019-08-08T10:42:44Z</time>
      </trkpt>
      <trkpt lat="48.57928" lon="7.73924">
        <ele>140.3</ele>
        <time>2019-08-08T10:42:46Z</time>
      </trkpt>
      <trkpt lat="48.57928" lon="7.73928">
        <ele>140.3</ele>
        <time>2019-08-08T10:42:49Z</time>
      </trkpt>
      <trkpt lat="48.57928" lon="7.73932">
        <ele>140.3</ele>
        <time>2019-08-08T10:42:51Z</time>
      </trkpt>
      <trkpt lat="48.57929" lon="7.73937">
        <ele>140.3</ele>
        <time>2019-08-08T10:42:57Z</time>
      </trkpt>
      <trkpt lat="48.57931" lon="7.73943">
        <ele>140.4</ele>
        <time>2019-08-08T10:43:00Z</time>
      </trkpt>
      <trkpt lat="48.57932" lon="7.73947">
        <ele>140.4</ele>
        <time>2019-08-08T10:43:03Z</time>
      </trkpt>
      <trkpt lat="48.57934" lon="7.73952">
        <ele>140.5</ele>
        <time>2019-08-08T10:43:06Z</time>
      </trkpt>
      <trkpt lat="48.57937" lon="7.73956">
        <ele>140.6</ele>
        <time>2019-08-08T10:43:08Z</time>
      </trkpt>
      <trkpt lat="48.57939" lon="7.73961">
        <ele>140.6</ele>
        <time>2019-08-08T10:43:09Z</time>
      </trkpt>
      <trkpt lat="48.5794" lon="7.73966">
        <ele>140.7</ele>
        <time>2019-08-08T10:43:11Z</time>
      </trkpt>
      <trkpt lat="48.57939" lon="7.73972">
        <ele>141.2</ele>
        <time>2019-08-08T10:43:15Z</time>
      </trkpt>
      <trkpt lat="48.57935" lon="7.73975">
        <ele>141.3</ele>
        <time>2019-08-08T10:43:17Z</time>
      </trkpt>
      <trkpt lat="48.57932" lon="7.73981">
        <ele>141.4</ele>
        <time>2019-08-08T10:43:19Z</time>
      </trkpt>
      <trkpt lat="48.5793" lon="7.73986">
        <ele>141.4</ele>
        <time>2019-08-08T10:43:21Z</time>
      </trkpt>
      <trkpt lat="48.57928" lon="7.73988">
        <ele>141.5</ele>
        <time>2019-08-08T10:43:24Z</time>
      </trkpt>
      <trkpt lat="48.57924" lon="7.73993">
        <ele>141.6</ele>
        <time>2019-08-08T10:43:26Z</time>
      </trkpt>
      <trkpt lat="48.57924" lon="7.73997">
        <ele>141.6</ele>
        <time>2019-08-08T10:43:28Z</time>
      </trkpt>
      <trkpt lat="48.57924" lon="7.73992">
        <ele>141.7</ele>
        <time>2019-08-08T10:43:32Z</time>
      </trkpt>
      <trkpt lat="48.57914" lon="7.74008">
        <ele>142.6</ele>
        <time>2019-08-08T10:45:04Z</time>
      </trkpt>
      <trkpt lat="48.57913" lon="7.74013">
        <ele>142.8</ele>
        <time>2019-08-08T10:45:07Z</time>
      </trkpt>
      <trkpt lat="48.5791" lon="7.74013">
        <ele>142.9</ele>
        <time>2019-08-08T10:45:11Z</time>
      </trkpt>
      <trkpt lat="48.57907" lon="7.74014">
        <ele>143.1</ele>
        <time>2019-08-08T10:45:14Z</time>
      </trkpt>
      <trkpt lat="48.57902" lon="7.74019">
        <ele>143.3</ele>
        <time>2019-08-08T10:45:16Z</time>
      </trkpt>
      <trkpt lat="48.579" lon="7.74023">
        <ele>143.7</ele>
        <time>2019-08-08T10:45:17Z</time>
      </trkpt>
      <trkpt lat="48.57899" lon="7.7403">
        <ele>143.6</ele>
        <time>2019-08-08T10:45:19Z</time>
      </trkpt>
      <trkpt lat="48.57899" lon="7.74036">
        <ele>143.6</ele>
        <time>2019-08-08T10:45:20Z</time>
      </trkpt>
      <trkpt lat="48.57899" lon="7.74043">
        <ele>143.5</ele>
        <time>2019-08-08T10:45:21Z</time>
      </trkpt>
      <trkpt lat="48.579" lon="7.7405">
        <ele>143.5</ele>
        <time>2019-08-08T10:45:22Z</time>
      </trkpt>
      <trkpt lat="48.57901" lon="7.74057">
        <ele>143.4</ele>
        <time>2019-08-08T10:45:23Z</time>
      </trkpt>
      <trkpt lat="48.57902" lon="7.74063">
        <ele>143.4</ele>
        <time>2019-08-08T10:45:24Z</time>
      </trkpt>
      <trkpt lat="48.57903" lon="7.7407">
        <ele>143.3</ele>
        <time>2019-08-08T10:45:25Z</time>
      </trkpt>
      <trkpt lat="48.57904" lon="7.74077">
        <ele>143.3</ele>
        <time>2019-08-08T10:45:26Z</time>
      </trkpt>
      <trkpt lat="48.57905" lon="7.74084">
        <ele>143.2</ele>
        <time>2019-08-08T10:45:27Z</time>
      </trkpt>
      <trkpt lat="48.57904" lon="7.74092">
        <ele>143.1</ele>
        <time>2019-08-08T10:45:28Z</time>
      </trkpt>
      <trkpt lat="48.57904" lon="7.74098">
        <ele>143</ele>
        <time>2019-08-08T10:45:29Z</time>
      </trkpt>
      <trkpt lat="48.57903" lon="7.74104">
        <ele>142.8</ele>
        <time>2019-08-08T10:45:30Z</time>
      </trkpt>
      <trkpt lat="48.57903" lon="7.7411">
        <ele>142.4</ele>
        <time>2019-08-08T10:45:31Z</time>
      </trkpt>
      <trkpt lat="48.57901" lon="7.74117">
        <ele>142.2</ele>
        <time>2019-08-08T10:45:32Z</time>
      </trkpt>
      <trkpt lat="48.579" lon="7.74121">
        <ele>142.1</ele>
        <time>2019-08-08T10:45:33Z</time>
      </trkpt>
      <trkpt lat="48.57899" lon="7.74127">
        <ele>142</ele>
        <time>2019-08-08T10:45:34Z</time>
      </trkpt>
      <trkpt lat="48.579" lon="7.74133">
        <ele>141.8</ele>
        <time>2019-08-08T10:45:35Z</time>
      </trkpt>
      <trkpt lat="48.57899" lon="7.74139">
        <ele>141.6</ele>
        <time>2019-08-08T10:45:36Z</time>
      </trkpt>
      <trkpt lat="48.57897" lon="7.74146">
        <ele>141.3</ele>
        <time>2019-08-08T10:45:37Z</time>
      </trkpt>
      <trkpt lat="48.57896" lon="7.74152">
        <ele>141.2</ele>
        <time>2019-08-08T10:45:38Z</time>
      </trkpt>
      <trkpt lat="48.57894" lon="7.74158">
        <ele>141.2</ele>
        <time>2019-08-08T10:45:39Z</time>
      </trkpt>
      <trkpt lat="48.57892" lon="7.74164">
        <ele>141.2</ele>
        <time>2019-08-08T10:45:40Z</time>
      </trkpt>
      <trkpt lat="48.5789" lon="7.7417">
        <ele>141.1</ele>
        <time>2019-08-08T10:45:41Z</time>
      </trkpt>
      <trkpt lat="48.57887" lon="7.74174">
        <ele>141.1</ele>
        <time>2019-08-08T10:45:42Z</time>
      </trkpt>
      <trkpt lat="48.57886" lon="7.74181">
        <ele>141.1</ele>
        <time>2019-08-08T10:45:43Z</time>
      </trkpt>
      <trkpt lat="48.57885" lon="7.74186">
        <ele>141</ele>
        <time>2019-08-08T10:45:44Z</time>
      </trkpt>
      <trkpt lat="48.57882" lon="7.74192">
        <ele>141</ele>
        <time>2019-08-08T10:45:46Z</time>
      </trkpt>
      <trkpt lat="48.57881" lon="7.74199">
        <ele>141</ele>
        <time>2019-08-08T10:45:47Z</time>
      </trkpt>
      <trkpt lat="48.57881" lon="7.74206">
        <ele>141</ele>
        <time>2019-08-08T10:45:48Z</time>
      </trkpt>
      <trkpt lat="48.57878" lon="7.74215">
        <ele>140.9</ele>
        <time>2019-08-08T10:45:49Z</time>
      </trkpt>
      <trkpt lat="48.57878" lon="7.74223">
        <ele>141.3</ele>
        <time>2019-08-08T10:45:50Z</time>
      </trkpt>
      <trkpt lat="48.57877" lon="7.74231">
        <ele>141.4</ele>
        <time>2019-08-08T10:45:51Z</time>
      </trkpt>
      <trkpt lat="48.57877" lon="7.7424">
        <ele>141.5</ele>
        <time>2019-08-08T10:45:52Z</time>
      </trkpt>
      <trkpt lat="48.57878" lon="7.74249">
        <ele>141.6</ele>
        <time>2019-08-08T10:45:53Z</time>
      </trkpt>
      <trkpt lat="48.57878" lon="7.74257">
        <ele>141.7</ele>
        <time>2019-08-08T10:45:54Z</time>
      </trkpt>
      <trkpt lat="48.57879" lon="7.74263">
        <ele>141.7</ele>
        <time>2019-08-08T10:45:55Z</time>
      </trkpt>
      <trkpt lat="48.5788" lon="7.74271">
        <ele>141.8</ele>
        <time>2019-08-08T10:45:56Z</time>
      </trkpt>
      <trkpt lat="48.5788" lon="7.74278">
        <ele>141.8</ele>
        <time>2019-08-08T10:45:57Z</time>
      </trkpt>
      <trkpt lat="48.57879" lon="7.74285">
        <ele>141.9</ele>
        <time>2019-08-08T10:45:58Z</time>
      </trkpt>
      <trkpt lat="48.57877" lon="7.74292">
        <ele>141.9</ele>
        <time>2019-08-08T10:45:59Z</time>
      </trkpt>
      <trkpt lat="48.57876" lon="7.74297">
        <ele>142</ele>
        <time>2019-08-08T10:46:00Z</time>
      </trkpt>
      <trkpt lat="48.57875" lon="7.74302">
        <ele>142</ele>
        <time>2019-08-08T10:46:01Z</time>
      </trkpt>
      <trkpt lat="48.57875" lon="7.74307">
        <ele>142</ele>
        <time>2019-08-08T10:46:03Z</time>
      </trkpt>
      <trkpt lat="48.57876" lon="7.74314">
        <ele>142.1</ele>
        <time>2019-08-08T10:46:06Z</time>
      </trkpt>
      <trkpt lat="48.57877" lon="7.74318">
        <ele>142.1</ele>
        <time>2019-08-08T10:46:07Z</time>
      </trkpt>
      <trkpt lat="48.57879" lon="7.74326">
        <ele>142.3</ele>
        <time>2019-08-08T10:46:09Z</time>
      </trkpt>
      <trkpt lat="48.57883" lon="7.74329">
        <ele>142.4</ele>
        <time>2019-08-08T10:46:10Z</time>
      </trkpt>
      <trkpt lat="48.57886" lon="7.74333">
        <ele>142.5</ele>
        <time>2019-08-08T10:46:11Z</time>
      </trkpt>
      <trkpt lat="48.57889" lon="7.74339">
        <ele>142.6</ele>
        <time>2019-08-08T10:46:12Z</time>
      </trkpt>
      <trkpt lat="48.57892" lon="7.74348">
        <ele>142.5</ele>
        <time>2019-08-08T10:46:13Z</time>
      </trkpt>
      <trkpt lat="48.57893" lon="7.74356">
        <ele>142.2</ele>
        <time>2019-08-08T10:46:14Z</time>
      </trkpt>
      <trkpt lat="48.57892" lon="7.74363">
        <ele>142.1</ele>
        <time>2019-08-08T10:46:15Z</time>
      </trkpt>
      <trkpt lat="48.57892" lon="7.74369">
        <ele>142</ele>
        <time>2019-08-08T10:46:16Z</time>
      </trkpt>
      <trkpt lat="48.57892" lon="7.74374">
        <ele>141.9</ele>
        <time>2019-08-08T10:46:17Z</time>
      </trkpt>
      <trkpt lat="48.57892" lon="7.74379">
        <ele>141.8</ele>
        <time>2019-08-08T10:46:18Z</time>
      </trkpt>
      <trkpt lat="48.57892" lon="7.74384">
        <ele>141.8</ele>
        <time>2019-08-08T10:46:19Z</time>
      </trkpt>
      <trkpt lat="48.57893" lon="7.74388">
        <ele>141.7</ele>
        <time>2019-08-08T10:46:20Z</time>
      </trkpt>
      <trkpt lat="48.57894" lon="7.74393">
        <ele>141.7</ele>
        <time>2019-08-08T10:46:21Z</time>
      </trkpt>
      <trkpt lat="48.57894" lon="7.74399">
        <ele>141.6</ele>
        <time>2019-08-08T10:46:22Z</time>
      </trkpt>
      <trkpt lat="48.57896" lon="7.74404">
        <ele>141.5</ele>
        <time>2019-08-08T10:46:23Z</time>
      </trkpt>
      <trkpt lat="48.57896" lon="7.74409">
        <ele>141.5</ele>
        <time>2019-08-08T10:46:24Z</time>
      </trkpt>
      <trkpt lat="48.57898" lon="7.74413">
        <ele>141.4</ele>
        <time>2019-08-08T10:46:25Z</time>
      </trkpt>
      <trkpt lat="48.57898" lon="7.74417">
        <ele>141.3</ele>
        <time>2019-08-08T10:46:26Z</time>
      </trkpt>
      <trkpt lat="48.57899" lon="7.74422">
        <ele>141.3</ele>
        <time>2019-08-08T10:46:27Z</time>
      </trkpt>
      <trkpt lat="48.57901" lon="7.74427">
        <ele>141.2</ele>
        <time>2019-08-08T10:46:28Z</time>
      </trkpt>
      <trkpt lat="48.57901" lon="7.74433">
        <ele>141.1</ele>
        <time>2019-08-08T10:46:29Z</time>
      </trkpt>
      <trkpt lat="48.57902" lon="7.74438">
        <ele>141</ele>
        <time>2019-08-08T10:46:31Z</time>
      </trkpt>
      <trkpt lat="48.57901" lon="7.74444">
        <ele>141</ele>
        <time>2019-08-08T10:46:33Z</time>
      </trkpt>
      <trkpt lat="48.57899" lon="7.74448">
        <ele>140.9</ele>
        <time>2019-08-08T10:46:34Z</time>
      </trkpt>
      <trkpt lat="48.57898" lon="7.74453">
        <ele>140.9</ele>
        <time>2019-08-08T10:46:35Z</time>
      </trkpt>
      <trkpt lat="48.57896" lon="7.74461">
        <ele>140.9</ele>
        <time>2019-08-08T10:46:37Z</time>
      </trkpt>
      <trkpt lat="48.57897" lon="7.74465">
        <ele>140.9</ele>
        <time>2019-08-08T10:46:40Z</time>
      </trkpt>
      <trkpt lat="48.57898" lon="7.74472">
        <ele>140.9</ele>
        <time>2019-08-08T10:46:43Z</time>
      </trkpt>
      <trkpt lat="48.57898" lon="7.74477">
        <ele>140.9</ele>
        <time>2019-08-08T10:46:44Z</time>
      </trkpt>
      <trkpt lat="48.57898" lon="7.74481">
        <ele>140.9</ele>
        <time>2019-08-08T10:46:45Z</time>
      </trkpt>
      <trkpt lat="48.57896" lon="7.74489">
        <ele>140.9</ele>
        <time>2019-08-08T10:46:47Z</time>
      </trkpt>
      <trkpt lat="48.57894" lon="7.74498">
        <ele>139.1</ele>
        <time>2019-08-08T10:46:49Z</time>
      </trkpt>
      <trkpt lat="48.57892" lon="7.74504">
        <ele>138.6</ele>
        <time>2019-08-08T10:46:51Z</time>
      </trkpt>
      <trkpt lat="48.57889" lon="7.74507">
        <ele>138.3</ele>
        <time>2019-08-08T10:46:52Z</time>
      </trkpt>
      <trkpt lat="48.57884" lon="7.7451">
        <ele>137.7</ele>
        <time>2019-08-08T10:46:53Z</time>
      </trkpt>
      <trkpt lat="48.57875" lon="7.74514">
        <ele>136.7</ele>
        <time>2019-08-08T10:46:54Z</time>
      </trkpt>
      <trkpt lat="48.57873" lon="7.74518">
        <ele>136.3</ele>
        <time>2019-08-08T10:46:55Z</time>
      </trkpt>
      <trkpt lat="48.57872" lon="7.74523">
        <ele>135.5</ele>
        <time>2019-08-08T10:46:56Z</time>
      </trkpt>
      <trkpt lat="48.57871" lon="7.74527">
        <ele>135.6</ele>
        <time>2019-08-08T10:46:57Z</time>
      </trkpt>
      <trkpt lat="48.57869" lon="7.74535">
        <ele>135.8</ele>
        <time>2019-08-08T10:46:59Z</time>
      </trkpt>
      <trkpt lat="48.57868" lon="7.7454">
        <ele>135.9</ele>
        <time>2019-08-08T10:47:00Z</time>
      </trkpt>
      <trkpt lat="48.57868" lon="7.74544">
        <ele>136</ele>
        <time>2019-08-08T10:47:01Z</time>
      </trkpt>
      <trkpt lat="48.57867" lon="7.74549">
        <ele>136.1</ele>
        <time>2019-08-08T10:47:02Z</time>
      </trkpt>
      <trkpt lat="48.57866" lon="7.74554">
        <ele>136.2</ele>
        <time>2019-08-08T10:47:03Z</time>
      </trkpt>
      <trkpt lat="48.57866" lon="7.74558">
        <ele>136.3</ele>
        <time>2019-08-08T10:47:04Z</time>
      </trkpt>
      <trkpt lat="48.57865" lon="7.74563">
        <ele>136.4</ele>
        <time>2019-08-08T10:47:05Z</time>
      </trkpt>
      <trkpt lat="48.57865" lon="7.74569">
        <ele>136.6</ele>
        <time>2019-08-08T10:47:06Z</time>
      </trkpt>
      <trkpt lat="48.57864" lon="7.74574">
        <ele>136.8</ele>
        <time>2019-08-08T10:47:07Z</time>
      </trkpt>
      <trkpt lat="48.57864" lon="7.74579">
        <ele>137</ele>
        <time>2019-08-08T10:47:08Z</time>
      </trkpt>
      <trkpt lat="48.57862" lon="7.74586">
        <ele>137.2</ele>
        <time>2019-08-08T10:47:09Z</time>
      </trkpt>
      <trkpt lat="48.57861" lon="7.74591">
        <ele>137.4</ele>
        <time>2019-08-08T10:47:10Z</time>
      </trkpt>
      <trkpt lat="48.57859" lon="7.74599">
        <ele>137.6</ele>
        <time>2019-08-08T10:47:11Z</time>
      </trkpt>
      <trkpt lat="48.57858" lon="7.74605">
        <ele>137.8</ele>
        <time>2019-08-08T10:47:12Z</time>
      </trkpt>
      <trkpt lat="48.57854" lon="7.74612">
        <ele>138</ele>
        <time>2019-08-08T10:47:13Z</time>
      </trkpt>
      <trkpt lat="48.57853" lon="7.74619">
        <ele>138.1</ele>
        <time>2019-08-08T10:47:14Z</time>
      </trkpt>
      <trkpt lat="48.57852" lon="7.74625">
        <ele>138.2</ele>
        <time>2019-08-08T10:47:15Z</time>
      </trkpt>
      <trkpt lat="48.57852" lon="7.74632">
        <ele>138.2</ele>
        <time>2019-08-08T10:47:16Z</time>
      </trkpt>
      <trkpt lat="48.57852" lon="7.74638">
        <ele>138.3</ele>
        <time>2019-08-08T10:47:17Z</time>
      </trkpt>
      <trkpt lat="48.5785" lon="7.74644">
        <ele>138.3</ele>
        <time>2019-08-08T10:47:18Z</time>
      </trkpt>
      <trkpt lat="48.57849" lon="7.74649">
        <ele>138.4</ele>
        <time>2019-08-08T10:47:19Z</time>
      </trkpt>
      <trkpt lat="48.57847" lon="7.74656">
        <ele>138.5</ele>
        <time>2019-08-08T10:47:20Z</time>
      </trkpt>
      <trkpt lat="48.57846" lon="7.74662">
        <ele>138.5</ele>
        <time>2019-08-08T10:47:21Z</time>
      </trkpt>
      <trkpt lat="48.57844" lon="7.74668">
        <ele>138.5</ele>
        <time>2019-08-08T10:47:22Z</time>
      </trkpt>
      <trkpt lat="48.57842" lon="7.74673">
        <ele>138.5</ele>
        <time>2019-08-08T10:47:23Z</time>
      </trkpt>
      <trkpt lat="48.57838" lon="7.74677">
        <ele>138.5</ele>
        <time>2019-08-08T10:47:24Z</time>
      </trkpt>
      <trkpt lat="48.57834" lon="7.7468">
        <ele>138.5</ele>
        <time>2019-08-08T10:47:25Z</time>
      </trkpt>
      <trkpt lat="48.57832" lon="7.74683">
        <ele>138.4</ele>
        <time>2019-08-08T10:47:26Z</time>
      </trkpt>
      <trkpt lat="48.5783" lon="7.74688">
        <ele>138.4</ele>
        <time>2019-08-08T10:47:27Z</time>
      </trkpt>
      <trkpt lat="48.57828" lon="7.74693">
        <ele>138.6</ele>
        <time>2019-08-08T10:47:28Z</time>
      </trkpt>
      <trkpt lat="48.57828" lon="7.74699">
        <ele>138.9</ele>
        <time>2019-08-08T10:47:29Z</time>
      </trkpt>
      <trkpt lat="48.57828" lon="7.74704">
        <ele>139.1</ele>
        <time>2019-08-08T10:47:30Z</time>
      </trkpt>
      <trkpt lat="48.57827" lon="7.74713">
        <ele>139.5</ele>
        <time>2019-08-08T10:47:31Z</time>
      </trkpt>
      <trkpt lat="48.57827" lon="7.74719">
        <ele>139.8</ele>
        <time>2019-08-08T10:47:32Z</time>
      </trkpt>
      <trkpt lat="48.57828" lon="7.74726">
        <ele>140.1</ele>
        <time>2019-08-08T10:47:33Z</time>
      </trkpt>
      <trkpt lat="48.57829" lon="7.74731">
        <ele>140.3</ele>
        <time>2019-08-08T10:47:34Z</time>
      </trkpt>
      <trkpt lat="48.57831" lon="7.74736">
        <ele>140.6</ele>
        <time>2019-08-08T10:47:35Z</time>
      </trkpt>
      <trkpt lat="48.57833" lon="7.74742">
        <ele>140.4</ele>
        <time>2019-08-08T10:47:36Z</time>
      </trkpt>
      <trkpt lat="48.57833" lon="7.74748">
        <ele>140.2</ele>
        <time>2019-08-08T10:47:37Z</time>
      </trkpt>
      <trkpt lat="48.57835" lon="7.74753">
        <ele>140</ele>
        <time>2019-08-08T10:47:38Z</time>
      </trkpt>
      <trkpt lat="48.57835" lon="7.74759">
        <ele>139.9</ele>
        <time>2019-08-08T10:47:39Z</time>
      </trkpt>
      <trkpt lat="48.57835" lon="7.74764">
        <ele>139.7</ele>
        <time>2019-08-08T10:47:40Z</time>
      </trkpt>
      <trkpt lat="48.57836" lon="7.74772">
        <ele>139.4</ele>
        <time>2019-08-08T10:47:41Z</time>
      </trkpt>
      <trkpt lat="48.57837" lon="7.7478">
        <ele>139</ele>
        <time>2019-08-08T10:47:42Z</time>
      </trkpt>
      <trkpt lat="48.57837" lon="7.74787">
        <ele>138.6</ele>
        <time>2019-08-08T10:47:43Z</time>
      </trkpt>
      <trkpt lat="48.57838" lon="7.74793">
        <ele>138.2</ele>
        <time>2019-08-08T10:47:44Z</time>
      </trkpt>
      <trkpt lat="48.57841" lon="7.74799">
        <ele>137.7</ele>
        <time>2019-08-08T10:47:45Z</time>
      </trkpt>
      <trkpt lat="48.5784" lon="7.74809">
        <ele>137.1</ele>
        <time>2019-08-08T10:47:46Z</time>
      </trkpt>
      <trkpt lat="48.57841" lon="7.74816">
        <ele>136.6</ele>
        <time>2019-08-08T10:47:47Z</time>
      </trkpt>
      <trkpt lat="48.57842" lon="7.74824">
        <ele>136.9</ele>
        <time>2019-08-08T10:47:48Z</time>
      </trkpt>
      <trkpt lat="48.57844" lon="7.7483">
        <ele>137.1</ele>
        <time>2019-08-08T10:47:49Z</time>
      </trkpt>
      <trkpt lat="48.57845" lon="7.74835">
        <ele>137.4</ele>
        <time>2019-08-08T10:47:50Z</time>
      </trkpt>
      <trkpt lat="48.57848" lon="7.74841">
        <ele>137.7</ele>
        <time>2019-08-08T10:47:51Z</time>
      </trkpt>
      <trkpt lat="48.57847" lon="7.74847">
        <ele>137.9</ele>
        <time>2019-08-08T10:47:52Z</time>
      </trkpt>
      <trkpt lat="48.57846" lon="7.74852">
        <ele>138.1</ele>
        <time>2019-08-08T10:47:53Z</time>
      </trkpt>
      <trkpt lat="48.57849" lon="7.74852">
        <ele>138.3</ele>
        <time>2019-08-08T10:47:55Z</time>
      </trkpt>
      <trkpt lat="48.57849" lon="7.74857">
        <ele>138.5</ele>
        <time>2019-08-08T10:47:59Z</time>
      </trkpt>
      <trkpt lat="48.57853" lon="7.74861">
        <ele>138.8</ele>
        <time>2019-08-08T10:48:02Z</time>
      </trkpt>
      <trkpt lat="48.57855" lon="7.74866">
        <ele>139</ele>
        <time>2019-08-08T10:48:04Z</time>
      </trkpt>
      <trkpt lat="48.57858" lon="7.7487">
        <ele>139.3</ele>
        <time>2019-08-08T10:48:07Z</time>
      </trkpt>
      <trkpt lat="48.57861" lon="7.74875">
        <ele>139.6</ele>
        <time>2019-08-08T10:48:10Z</time>
      </trkpt>
      <trkpt lat="48.57864" lon="7.74876">
        <ele>138.2</ele>
        <time>2019-08-08T10:48:12Z</time>
      </trkpt>
      <trkpt lat="48.57866" lon="7.74872">
        <ele>137.9</ele>
        <time>2019-08-08T10:48:14Z</time>
      </trkpt>
      <trkpt lat="48.57869" lon="7.74869">
        <ele>137.5</ele>
        <time>2019-08-08T10:48:16Z</time>
      </trkpt>
      <trkpt lat="48.57873" lon="7.74866">
        <ele>137.1</ele>
        <time>2019-08-08T10:48:19Z</time>
      </trkpt>
      <trkpt lat="48.57875" lon="7.74862">
        <ele>136.8</ele>
        <time>2019-08-08T10:48:22Z</time>
      </trkpt>
      <trkpt lat="48.57878" lon="7.74861">
        <ele>136.5</ele>
        <time>2019-08-08T10:48:23Z</time>
      </trkpt>
      <trkpt lat="48.57882" lon="7.74856">
        <ele>136</ele>
        <time>2019-08-08T10:48:25Z</time>
      </trkpt>
      <trkpt lat="48.57885" lon="7.74855">
        <ele>135.7</ele>
        <time>2019-08-08T10:48:26Z</time>
      </trkpt>
      <trkpt lat="48.57888" lon="7.74855">
        <ele>135.4</ele>
        <time>2019-08-08T10:48:27Z</time>
      </trkpt>
      <trkpt lat="48.57891" lon="7.74854">
        <ele>135.2</ele>
        <time>2019-08-08T10:48:28Z</time>
      </trkpt>
      <trkpt lat="48.57895" lon="7.74853">
        <ele>134.9</ele>
        <time>2019-08-08T10:48:29Z</time>
      </trkpt>
      <trkpt lat="48.57901" lon="7.74855">
        <ele>135.5</ele>
        <time>2019-08-08T10:48:31Z</time>
      </trkpt>
      <trkpt lat="48.57905" lon="7.74856">
        <ele>135.8</ele>
        <time>2019-08-08T10:48:32Z</time>
      </trkpt>
      <trkpt lat="48.57908" lon="7.74857">
        <ele>137.7</ele>
        <time>2019-08-08T10:48:33Z</time>
      </trkpt>
      <trkpt lat="48.57911" lon="7.74861">
        <ele>138.2</ele>
        <time>2019-08-08T10:48:35Z</time>
      </trkpt>
      <trkpt lat="48.57916" lon="7.74861">
        <ele>138.7</ele>
        <time>2019-08-08T10:48:37Z</time>
      </trkpt>
      <trkpt lat="48.57919" lon="7.74861">
        <ele>139.1</ele>
        <time>2019-08-08T10:48:38Z</time>
      </trkpt>
      <trkpt lat="48.57922" lon="7.74861">
        <ele>139.5</ele>
        <time>2019-08-08T10:48:39Z</time>
      </trkpt>
      <trkpt lat="48.57925" lon="7.74857">
        <ele>139.9</ele>
        <time>2019-08-08T10:48:40Z</time>
      </trkpt>
      <trkpt lat="48.57931" lon="7.74853">
        <ele>140.7</ele>
        <time>2019-08-08T10:48:42Z</time>
      </trkpt>
      <trkpt lat="48.57933" lon="7.74851">
        <ele>141</ele>
        <time>2019-08-08T10:48:43Z</time>
      </trkpt>
      <trkpt lat="48.57936" lon="7.74848">
        <ele>141.3</ele>
        <time>2019-08-08T10:48:44Z</time>
      </trkpt>
      <trkpt lat="48.57939" lon="7.74845">
        <ele>141.7</ele>
        <time>2019-08-08T10:48:45Z</time>
      </trkpt>
      <trkpt lat="48.57942" lon="7.74843">
        <ele>142</ele>
        <time>2019-08-08T10:48:46Z</time>
      </trkpt>
      <trkpt lat="48.57947" lon="7.74841">
        <ele>142.6</ele>
        <time>2019-08-08T10:48:47Z</time>
      </trkpt>
      <trkpt lat="48.57952" lon="7.74835">
        <ele>143.4</ele>
        <time>2019-08-08T10:48:49Z</time>
      </trkpt>
      <trkpt lat="48.57954" lon="7.74831">
        <ele>143.8</ele>
        <time>2019-08-08T10:48:50Z</time>
      </trkpt>
      <trkpt lat="48.57958" lon="7.74825">
        <ele>144.4</ele>
        <time>2019-08-08T10:48:51Z</time>
      </trkpt>
      <trkpt lat="48.5796" lon="7.74819">
        <ele>145.2</ele>
        <time>2019-08-08T10:48:52Z</time>
      </trkpt>
      <trkpt lat="48.57963" lon="7.74814">
        <ele>146.1</ele>
        <time>2019-08-08T10:48:53Z</time>
      </trkpt>
      <trkpt lat="48.57967" lon="7.74809">
        <ele>146.8</ele>
        <time>2019-08-08T10:48:54Z</time>
      </trkpt>
      <trkpt lat="48.57969" lon="7.74805">
        <ele>147.5</ele>
        <time>2019-08-08T10:48:55Z</time>
      </trkpt>
      <trkpt lat="48.57972" lon="7.74802">
        <ele>148</ele>
        <time>2019-08-08T10:48:56Z</time>
      </trkpt>
      <trkpt lat="48.57975" lon="7.74799">
        <ele>148.8</ele>
        <time>2019-08-08T10:48:57Z</time>
      </trkpt>
      <trkpt lat="48.57978" lon="7.74795">
        <ele>148.9</ele>
        <time>2019-08-08T10:48:58Z</time>
      </trkpt>
      <trkpt lat="48.57981" lon="7.74793">
        <ele>148.9</ele>
        <time>2019-08-08T10:48:59Z</time>
      </trkpt>
      <trkpt lat="48.57984" lon="7.74789">
        <ele>149</ele>
        <time>2019-08-08T10:49:00Z</time>
      </trkpt>
      <trkpt lat="48.57986" lon="7.74786">
        <ele>149.1</ele>
        <time>2019-08-08T10:49:01Z</time>
      </trkpt>
      <trkpt lat="48.5799" lon="7.7478">
        <ele>149.2</ele>
        <time>2019-08-08T10:49:03Z</time>
      </trkpt>
      <trkpt lat="48.57992" lon="7.74777">
        <ele>149.3</ele>
        <time>2019-08-08T10:49:04Z</time>
      </trkpt>
      <trkpt lat="48.57996" lon="7.74773">
        <ele>149.4</ele>
        <time>2019-08-08T10:49:06Z</time>
      </trkpt>
      <trkpt lat="48.57999" lon="7.74769">
        <ele>149.5</ele>
        <time>2019-08-08T10:49:08Z</time>
      </trkpt>
      <trkpt lat="48.58001" lon="7.74765">
        <ele>149.6</ele>
        <time>2019-08-08T10:49:09Z</time>
      </trkpt>
      <trkpt lat="48.58001" lon="7.74761">
        <ele>149.7</ele>
        <time>2019-08-08T10:49:13Z</time>
      </trkpt>
      <trkpt lat="48.58004" lon="7.74757">
        <ele>149.8</ele>
        <time>2019-08-08T10:49:17Z</time>
      </trkpt>
      <trkpt lat="48.58006" lon="7.74755">
        <ele>149.9</ele>
        <time>2019-08-08T10:49:23Z</time>
      </trkpt>
      <trkpt lat="48.58009" lon="7.74754">
        <ele>150</ele>
        <time>2019-08-08T10:49:29Z</time>
      </trkpt>
      <trkpt lat="48.58013" lon="7.74753">
        <ele>150.2</ele>
        <time>2019-08-08T10:49:33Z</time>
      </trkpt>
      <trkpt lat="48.58015" lon="7.7475">
        <ele>150.3</ele>
        <time>2019-08-08T10:49:35Z</time>
      </trkpt>
      <trkpt lat="48.58017" lon="7.74747">
        <ele>150.4</ele>
        <time>2019-08-08T10:49:36Z</time>
      </trkpt>
      <trkpt lat="48.58018" lon="7.74743">
        <ele>150.4</ele>
        <time>2019-08-08T10:49:39Z</time>
      </trkpt>
      <trkpt lat="48.58019" lon="7.74739">
        <ele>150.5</ele>
        <time>2019-08-08T10:49:41Z</time>
      </trkpt>
      <trkpt lat="48.58023" lon="7.74737">
        <ele>150.5</ele>
        <time>2019-08-08T10:49:48Z</time>
      </trkpt>
      <trkpt lat="48.58024" lon="7.74734">
        <ele>150.6</ele>
        <time>2019-08-08T10:49:52Z</time>
      </trkpt>
      <trkpt lat="48.58029" lon="7.74729">
        <ele>150.7</ele>
        <time>2019-08-08T10:49:54Z</time>
      </trkpt>
      <trkpt lat="48.58032" lon="7.74726">
        <ele>150.7</ele>
        <time>2019-08-08T10:49:56Z</time>
      </trkpt>
      <trkpt lat="48.58035" lon="7.7472">
        <ele>150.8</ele>
        <time>2019-08-08T10:50:01Z</time>
      </trkpt>
      <trkpt lat="48.58037" lon="7.74715">
        <ele>150.9</ele>
        <time>2019-08-08T10:50:03Z</time>
      </trkpt>
      <trkpt lat="48.58039" lon="7.74712">
        <ele>150.9</ele>
        <time>2019-08-08T10:50:05Z</time>
      </trkpt>
      <trkpt lat="48.58057" lon="7.74693">
        <ele>151.1</ele>
        <time>2019-08-08T10:50:51Z</time>
      </trkpt>
      <trkpt lat="48.58061" lon="7.74694">
        <ele>151.1</ele>
        <time>2019-08-08T10:50:53Z</time>
      </trkpt>
      <trkpt lat="48.58064" lon="7.74695">
        <ele>151.1</ele>
        <time>2019-08-08T10:50:54Z</time>
      </trkpt>
      <trkpt lat="48.58068" lon="7.74697">
        <ele>151.1</ele>
        <time>2019-08-08T10:50:56Z</time>
      </trkpt>
      <trkpt lat="48.58071" lon="7.74701">
        <ele>151.1</ele>
        <time>2019-08-08T10:50:59Z</time>
      </trkpt>
      <trkpt lat="48.58073" lon="7.7471">
        <ele>151.1</ele>
        <time>2019-08-08T10:51:01Z</time>
      </trkpt>
      <trkpt lat="48.58075" lon="7.74716">
        <ele>151.1</ele>
        <time>2019-08-08T10:51:03Z</time>
      </trkpt>
      <trkpt lat="48.58077" lon="7.74722">
        <ele>151.1</ele>
        <time>2019-08-08T10:51:05Z</time>
      </trkpt>
      <trkpt lat="48.5808" lon="7.74729">
        <ele>151.2</ele>
        <time>2019-08-08T10:51:07Z</time>
      </trkpt>
      <trkpt lat="48.58081" lon="7.74732">
        <ele>151.2</ele>
        <time>2019-08-08T10:51:08Z</time>
      </trkpt>
      <trkpt lat="48.58083" lon="7.74735">
        <ele>151.2</ele>
        <time>2019-08-08T10:51:09Z</time>
      </trkpt>
      <trkpt lat="48.58084" lon="7.74741">
        <ele>151.3</ele>
        <time>2019-08-08T10:51:12Z</time>
      </trkpt>
      <trkpt lat="48.58085" lon="7.74746">
        <ele>151.3</ele>
        <time>2019-08-08T10:51:15Z</time>
      </trkpt>
      <trkpt lat="48.58085" lon="7.74752">
        <ele>151.3</ele>
        <time>2019-08-08T10:51:18Z</time>
      </trkpt>
      <trkpt lat="48.58083" lon="7.74757">
        <ele>151.4</ele>
        <time>2019-08-08T10:51:20Z</time>
      </trkpt>
      <trkpt lat="48.58083" lon="7.74763">
        <ele>151.4</ele>
        <time>2019-08-08T10:51:22Z</time>
      </trkpt>
      <trkpt lat="48.58084" lon="7.74767">
        <ele>151.4</ele>
        <time>2019-08-08T10:51:24Z</time>
      </trkpt>
      <trkpt lat="48.58087" lon="7.74771">
        <ele>151.4</ele>
        <time>2019-08-08T10:51:26Z</time>
      </trkpt>
      <trkpt lat="48.58089" lon="7.7478">
        <ele>151.4</ele>
        <time>2019-08-08T10:51:28Z</time>
      </trkpt>
      <trkpt lat="48.58094" lon="7.74792">
        <ele>151.5</ele>
        <time>2019-08-08T10:51:29Z</time>
      </trkpt>
      <trkpt lat="48.58097" lon="7.74806">
        <ele>151.5</ele>
        <time>2019-08-08T10:51:30Z</time>
      </trkpt>
      <trkpt lat="48.58099" lon="7.74813">
        <ele>151.5</ele>
        <time>2019-08-08T10:51:31Z</time>
      </trkpt>
      <trkpt lat="48.581" lon="7.74816">
        <ele>151.5</ele>
        <time>2019-08-08T10:51:32Z</time>
      </trkpt>
      <trkpt lat="48.58103" lon="7.7482">
        <ele>151.5</ele>
        <time>2019-08-08T10:51:36Z</time>
      </trkpt>
      <trkpt lat="48.58109" lon="7.74832">
        <ele>151.5</ele>
        <time>2019-08-08T10:52:35Z</time>
      </trkpt>
      <trkpt lat="48.58107" lon="7.74836">
        <ele>151.5</ele>
        <time>2019-08-08T10:52:44Z</time>
      </trkpt>
      <trkpt lat="48.58106" lon="7.74842">
        <ele>151.5</ele>
        <time>2019-08-08T10:52:46Z</time>
      </trkpt>
      <trkpt lat="48.58107" lon="7.74848">
        <ele>151.5</ele>
        <time>2019-08-08T10:52:48Z</time>
      </trkpt>
      <trkpt lat="48.58108" lon="7.74853">
        <ele>151.5</ele>
        <time>2019-08-08T10:52:51Z</time>
      </trkpt>
      <trkpt lat="48.58108" lon="7.74858">
        <ele>151.5</ele>
        <time>2019-08-08T10:52:56Z</time>
      </trkpt>
      <trkpt lat="48.58108" lon="7.74863">
        <ele>151.5</ele>
        <time>2019-08-08T10:52:58Z</time>
      </trkpt>
      <trkpt lat="48.58108" lon="7.74868">
        <ele>151.5</ele>
        <time>2019-08-08T10:53:02Z</time>
      </trkpt>
      <trkpt lat="48.58107" lon="7.74873">
        <ele>151.2</ele>
        <time>2019-08-08T10:53:05Z</time>
      </trkpt>
      <trkpt lat="48.58107" lon="7.74882">
        <ele>151.2</ele>
        <time>2019-08-08T10:53:07Z</time>
      </trkpt>
      <trkpt lat="48.58107" lon="7.74888">
        <ele>150.7</ele>
        <time>2019-08-08T10:53:09Z</time>
      </trkpt>
      <trkpt lat="48.58107" lon="7.74893">
        <ele>150.7</ele>
        <time>2019-08-08T10:53:12Z</time>
      </trkpt>
      <trkpt lat="48.58107" lon="7.74898">
        <ele>150.6</ele>
        <time>2019-08-08T10:53:15Z</time>
      </trkpt>
      <trkpt lat="48.58109" lon="7.74905">
        <ele>150.6</ele>
        <time>2019-08-08T10:53:17Z</time>
      </trkpt>
      <trkpt lat="48.58111" lon="7.7491">
        <ele>150.7</ele>
        <time>2019-08-08T10:53:19Z</time>
      </trkpt>
      <trkpt lat="48.58112" lon="7.74915">
        <ele>150.8</ele>
        <time>2019-08-08T10:53:20Z</time>
      </trkpt>
      <trkpt lat="48.58114" lon="7.74919">
        <ele>150.9</ele>
        <time>2019-08-08T10:53:22Z</time>
      </trkpt>
      <trkpt lat="48.58116" lon="7.74922">
        <ele>151</ele>
        <time>2019-08-08T10:53:24Z</time>
      </trkpt>
      <trkpt lat="48.58119" lon="7.74926">
        <ele>151.1</ele>
        <time>2019-08-08T10:53:27Z</time>
      </trkpt>
      <trkpt lat="48.58121" lon="7.74929">
        <ele>151.3</ele>
        <time>2019-08-08T10:53:29Z</time>
      </trkpt>
      <trkpt lat="48.58123" lon="7.74933">
        <ele>151.4</ele>
        <time>2019-08-08T10:53:32Z</time>
      </trkpt>
      <trkpt lat="48.58127" lon="7.74938">
        <ele>151.5</ele>
        <time>2019-08-08T10:53:34Z</time>
      </trkpt>
      <trkpt lat="48.58129" lon="7.74941">
        <ele>151.7</ele>
        <time>2019-08-08T10:53:36Z</time>
      </trkpt>
      <trkpt lat="48.58129" lon="7.74948">
        <ele>151.9</ele>
        <time>2019-08-08T10:53:38Z</time>
      </trkpt>
      <trkpt lat="48.5813" lon="7.74953">
        <ele>152</ele>
        <time>2019-08-08T10:53:41Z</time>
      </trkpt>
      <trkpt lat="48.58133" lon="7.74957">
        <ele>152.2</ele>
        <time>2019-08-08T10:53:44Z</time>
      </trkpt>
      <trkpt lat="48.58136" lon="7.74958">
        <ele>152.3</ele>
        <time>2019-08-08T10:53:48Z</time>
      </trkpt>
      <trkpt lat="48.58137" lon="7.74962">
        <ele>152.4</ele>
        <time>2019-08-08T10:53:56Z</time>
      </trkpt>
      <trkpt lat="48.58139" lon="7.74966">
        <ele>152.5</ele>
        <time>2019-08-08T10:54:01Z</time>
      </trkpt>
      <trkpt lat="48.58141" lon="7.74969">
        <ele>152.7</ele>
        <time>2019-08-08T10:54:04Z</time>
      </trkpt>
      <trkpt lat="48.58142" lon="7.74973">
        <ele>152.8</ele>
        <time>2019-08-08T10:54:08Z</time>
      </trkpt>
      <trkpt lat="48.58145" lon="7.74977">
        <ele>152.9</ele>
        <time>2019-08-08T10:54:11Z</time>
      </trkpt>
      <trkpt lat="48.58147" lon="7.7498">
        <ele>153</ele>
        <time>2019-08-08T10:54:15Z</time>
      </trkpt>
      <trkpt lat="48.58148" lon="7.74983">
        <ele>153.1</ele>
        <time>2019-08-08T10:54:18Z</time>
      </trkpt>
      <trkpt lat="48.5815" lon="7.74987">
        <ele>153.2</ele>
        <time>2019-08-08T10:54:23Z</time>
      </trkpt>
      <trkpt lat="48.58151" lon="7.74991">
        <ele>153.3</ele>
        <time>2019-08-08T10:54:34Z</time>
      </trkpt>
      <trkpt lat="48.58149" lon="7.74997">
        <ele>153.5</ele>
        <time>2019-08-08T10:54:36Z</time>
      </trkpt>
      <trkpt lat="48.58147" lon="7.75003">
        <ele>153.6</ele>
        <time>2019-08-08T10:54:38Z</time>
      </trkpt>
      <trkpt lat="48.58147" lon="7.75008">
        <ele>153.6</ele>
        <time>2019-08-08T10:54:43Z</time>
      </trkpt>
      <trkpt lat="48.58147" lon="7.75012">
        <ele>153.6</ele>
        <time>2019-08-08T10:54:45Z</time>
      </trkpt>
      <trkpt lat="48.58151" lon="7.75014">
        <ele>153.7</ele>
        <time>2019-08-08T10:54:51Z</time>
      </trkpt>
      <trkpt lat="48.58154" lon="7.75014">
        <ele>153.7</ele>
        <time>2019-08-08T10:54:54Z</time>
      </trkpt>
      <trkpt lat="48.58157" lon="7.75013">
        <ele>153.8</ele>
        <time>2019-08-08T10:54:56Z</time>
      </trkpt>
      <trkpt lat="48.5816" lon="7.75012">
        <ele>153.8</ele>
        <time>2019-08-08T10:54:59Z</time>
      </trkpt>
      <trkpt lat="48.58163" lon="7.75008">
        <ele>153.9</ele>
        <time>2019-08-08T10:55:02Z</time>
      </trkpt>
      <trkpt lat="48.58166" lon="7.75008">
        <ele>153.9</ele>
        <time>2019-08-08T10:55:05Z</time>
      </trkpt>
      <trkpt lat="48.58169" lon="7.75008">
        <ele>153.9</ele>
        <time>2019-08-08T10:55:08Z</time>
      </trkpt>
      <trkpt lat="48.58172" lon="7.75008">
        <ele>154</ele>
        <time>2019-08-08T10:55:11Z</time>
      </trkpt>
      <trkpt lat="48.58174" lon="7.7501">
        <ele>154</ele>
        <time>2019-08-08T10:55:14Z</time>
      </trkpt>
      <trkpt lat="48.58177" lon="7.75013">
        <ele>153.9</ele>
        <time>2019-08-08T10:55:16Z</time>
      </trkpt>
      <trkpt lat="48.5818" lon="7.75013">
        <ele>153.9</ele>
        <time>2019-08-08T10:55:19Z</time>
      </trkpt>
      <trkpt lat="48.58183" lon="7.75016">
        <ele>153.9</ele>
        <time>2019-08-08T10:55:22Z</time>
      </trkpt>
      <trkpt lat="48.58186" lon="7.75019">
        <ele>153.9</ele>
        <time>2019-08-08T10:55:27Z</time>
      </trkpt>
      <trkpt lat="48.58188" lon="7.75022">
        <ele>153.9</ele>
        <time>2019-08-08T10:55:29Z</time>
      </trkpt>
      <trkpt lat="48.58189" lon="7.75027">
        <ele>153.9</ele>
        <time>2019-08-08T10:55:38Z</time>
      </trkpt>
      <trkpt lat="48.58192" lon="7.75029">
        <ele>153.9</ele>
        <time>2019-08-08T10:55:44Z</time>
      </trkpt>
      <trkpt lat="48.58192" lon="7.75031">
        <ele>153.9</ele>
        <time>2019-08-08T10:57:10Z</time>
      </trkpt>
      <trkpt lat="48.58189" lon="7.7503">
        <ele>153.9</ele>
        <time>2019-08-08T10:57:15Z</time>
      </trkpt>
      <trkpt lat="48.58187" lon="7.75033">
        <ele>153.9</ele>
        <time>2019-08-08T10:57:20Z</time>
      </trkpt>
      <trkpt lat="48.58184" lon="7.75031">
        <ele>153.9</ele>
        <time>2019-08-08T10:57:25Z</time>
      </trkpt>
      <trkpt lat="48.58177" lon="7.75036">
        <ele>153.9</ele>
        <time>2019-08-08T11:04:27Z</time>
      </trkpt>
      <trkpt lat="48.58181" lon="7.7503">
        <ele>153.9</ele>
        <time>2019-08-08T11:05:40Z</time>
      </trkpt>
      <trkpt lat="48.58182" lon="7.75027">
        <ele>153.9</ele>
        <time>2019-08-08T11:05:43Z</time>
      </trkpt>
      <trkpt lat="48.58182" lon="7.75023">
        <ele>153.8</ele>
        <time>2019-08-08T11:05:46Z</time>
      </trkpt>
      <trkpt lat="48.58182" lon="7.75017">
        <ele>153.8</ele>
        <time>2019-08-08T11:05:48Z</time>
      </trkpt>
      <trkpt lat="48.58183" lon="7.75013">
        <ele>153.8</ele>
        <time>2019-08-08T11:05:50Z</time>
      </trkpt>
      <trkpt lat="48.58183" lon="7.75008">
        <ele>154</ele>
        <time>2019-08-08T11:05:54Z</time>
      </trkpt>
      <trkpt lat="48.58184" lon="7.75003">
        <ele>154</ele>
        <time>2019-08-08T11:06:00Z</time>
      </trkpt>
      <trkpt lat="48.58185" lon="7.74998">
        <ele>154</ele>
        <time>2019-08-08T11:06:03Z</time>
      </trkpt>
      <trkpt lat="48.58184" lon="7.74993">
        <ele>154.1</ele>
        <time>2019-08-08T11:06:06Z</time>
      </trkpt>
      <trkpt lat="48.58185" lon="7.74989">
        <ele>154.1</ele>
        <time>2019-08-08T11:06:08Z</time>
      </trkpt>
      <trkpt lat="48.58186" lon="7.74983">
        <ele>154.1</ele>
        <time>2019-08-08T11:06:10Z</time>
      </trkpt>
      <trkpt lat="48.58186" lon="7.74979">
        <ele>154.1</ele>
        <time>2019-08-08T11:06:14Z</time>
      </trkpt>
      <trkpt lat="48.58183" lon="7.74979">
        <ele>154.2</ele>
        <time>2019-08-08T11:06:30Z</time>
      </trkpt>
      <trkpt lat="48.58181" lon="7.74977">
        <ele>154.2</ele>
        <time>2019-08-08T11:06:35Z</time>
      </trkpt>
      <trkpt lat="48.58178" lon="7.74979">
        <ele>154.2</ele>
        <time>2019-08-08T11:06:43Z</time>
      </trkpt>
      <trkpt lat="48.58179" lon="7.74984">
        <ele>154.3</ele>
        <time>2019-08-08T11:06:45Z</time>
      </trkpt>
      <trkpt lat="48.58177" lon="7.74987">
        <ele>154.3</ele>
        <time>2019-08-08T11:06:53Z</time>
      </trkpt>
      <trkpt lat="48.58174" lon="7.74988">
        <ele>154.2</ele>
        <time>2019-08-08T11:06:55Z</time>
      </trkpt>
      <trkpt lat="48.58173" lon="7.74997">
        <ele>154.1</ele>
        <time>2019-08-08T11:07:13Z</time>
      </trkpt>
      <trkpt lat="48.58176" lon="7.75005">
        <ele>154</ele>
        <time>2019-08-08T11:07:20Z</time>
      </trkpt>
      <trkpt lat="48.58178" lon="7.75007">
        <ele>154</ele>
        <time>2019-08-08T11:07:21Z</time>
      </trkpt>
      <trkpt lat="48.58181" lon="7.75013">
        <ele>153.9</ele>
        <time>2019-08-08T11:07:24Z</time>
      </trkpt>
      <trkpt lat="48.58183" lon="7.75016">
        <ele>153.9</ele>
        <time>2019-08-08T11:07:26Z</time>
      </trkpt>
      <trkpt lat="48.58186" lon="7.7502">
        <ele>153.8</ele>
        <time>2019-08-08T11:07:29Z</time>
      </trkpt>
      <trkpt lat="48.58188" lon="7.75023">
        <ele>153.7</ele>
        <time>2019-08-08T11:07:32Z</time>
      </trkpt>
      <trkpt lat="48.5819" lon="7.7503">
        <ele>153.7</ele>
        <time>2019-08-08T11:08:30Z</time>
      </trkpt>
      <trkpt lat="48.58192" lon="7.75034">
        <ele>153.6</ele>
        <time>2019-08-08T11:08:33Z</time>
      </trkpt>
      <trkpt lat="48.58192" lon="7.75039">
        <ele>153.6</ele>
        <time>2019-08-08T11:08:36Z</time>
      </trkpt>
      <trkpt lat="48.58193" lon="7.75045">
        <ele>153.3</ele>
        <time>2019-08-08T11:08:40Z</time>
      </trkpt>
      <trkpt lat="48.58194" lon="7.75049">
        <ele>153.1</ele>
        <time>2019-08-08T11:08:44Z</time>
      </trkpt>
      <trkpt lat="48.58197" lon="7.75052">
        <ele>153</ele>
        <time>2019-08-08T11:08:47Z</time>
      </trkpt>
      <trkpt lat="48.58199" lon="7.75057">
        <ele>152.8</ele>
        <time>2019-08-08T11:08:50Z</time>
      </trkpt>
      <trkpt lat="48.58201" lon="7.75061">
        <ele>152.7</ele>
        <time>2019-08-08T11:08:52Z</time>
      </trkpt>
      <trkpt lat="48.58203" lon="7.75065">
        <ele>152.6</ele>
        <time>2019-08-08T11:08:55Z</time>
      </trkpt>
      <trkpt lat="48.58206" lon="7.75067">
        <ele>152.5</ele>
        <time>2019-08-08T11:09:02Z</time>
      </trkpt>
      <trkpt lat="48.5821" lon="7.75064">
        <ele>152.5</ele>
        <time>2019-08-08T11:09:04Z</time>
      </trkpt>
      <trkpt lat="48.58213" lon="7.75069">
        <ele>152.6</ele>
        <time>2019-08-08T11:09:07Z</time>
      </trkpt>
      <trkpt lat="48.58216" lon="7.75073">
        <ele>152.6</ele>
        <time>2019-08-08T11:09:10Z</time>
      </trkpt>
      <trkpt lat="48.58218" lon="7.75077">
        <ele>152.6</ele>
        <time>2019-08-08T11:09:12Z</time>
      </trkpt>
      <trkpt lat="48.58221" lon="7.7508">
        <ele>152.7</ele>
        <time>2019-08-08T11:09:16Z</time>
      </trkpt>
      <trkpt lat="48.58223" lon="7.75083">
        <ele>152.6</ele>
        <time>2019-08-08T11:09:18Z</time>
      </trkpt>
      <trkpt lat="48.58226" lon="7.75084">
        <ele>152.6</ele>
        <time>2019-08-08T11:09:20Z</time>
      </trkpt>
      <trkpt lat="48.58229" lon="7.75087">
        <ele>152.6</ele>
        <time>2019-08-08T11:09:22Z</time>
      </trkpt>
      <trkpt lat="48.58231" lon="7.75089">
        <ele>152.5</ele>
        <time>2019-08-08T11:09:24Z</time>
      </trkpt>
      <trkpt lat="48.58235" lon="7.7509">
        <ele>152.5</ele>
        <time>2019-08-08T11:09:28Z</time>
      </trkpt>
      <trkpt lat="48.58237" lon="7.75093">
        <ele>152.4</ele>
        <time>2019-08-08T11:09:30Z</time>
      </trkpt>
      <trkpt lat="48.58238" lon="7.751">
        <ele>152.3</ele>
        <time>2019-08-08T11:09:32Z</time>
      </trkpt>
      <trkpt lat="48.5824" lon="7.75105">
        <ele>152.2</ele>
        <time>2019-08-08T11:09:34Z</time>
      </trkpt>
      <trkpt lat="48.58243" lon="7.75108">
        <ele>152.1</ele>
        <time>2019-08-08T11:09:36Z</time>
      </trkpt>
      <trkpt lat="48.58243" lon="7.75114">
        <ele>151.9</ele>
        <time>2019-08-08T11:09:38Z</time>
      </trkpt>
      <trkpt lat="48.58244" lon="7.75119">
        <ele>151.8</ele>
        <time>2019-08-08T11:09:42Z</time>
      </trkpt>
      <trkpt lat="48.58245" lon="7.75124">
        <ele>151.7</ele>
        <time>2019-08-08T11:09:44Z</time>
      </trkpt>
      <trkpt lat="48.58246" lon="7.75128">
        <ele>151.6</ele>
        <time>2019-08-08T11:09:45Z</time>
      </trkpt>
      <trkpt lat="48.58247" lon="7.75132">
        <ele>151.6</ele>
        <time>2019-08-08T11:09:47Z</time>
      </trkpt>
      <trkpt lat="48.58253" lon="7.75142">
        <ele>151.6</ele>
        <time>2019-08-08T11:10:55Z</time>
      </trkpt>
      <trkpt lat="48.58252" lon="7.75146">
        <ele>151.3</ele>
        <time>2019-08-08T11:11:03Z</time>
      </trkpt>
      <trkpt lat="48.58251" lon="7.7515">
        <ele>151.2</ele>
        <time>2019-08-08T11:11:07Z</time>
      </trkpt>
      <trkpt lat="48.58251" lon="7.75155">
        <ele>151.1</ele>
        <time>2019-08-08T11:11:09Z</time>
      </trkpt>
      <trkpt lat="48.58252" lon="7.75161">
        <ele>151</ele>
        <time>2019-08-08T11:11:12Z</time>
      </trkpt>
      <trkpt lat="48.58252" lon="7.75165">
        <ele>151</ele>
        <time>2019-08-08T11:11:17Z</time>
      </trkpt>
      <trkpt lat="48.58251" lon="7.7517">
        <ele>150.9</ele>
        <time>2019-08-08T11:11:20Z</time>
      </trkpt>
      <trkpt lat="48.58252" lon="7.75176">
        <ele>150.8</ele>
        <time>2019-08-08T11:11:23Z</time>
      </trkpt>
      <trkpt lat="48.58252" lon="7.75181">
        <ele>150.8</ele>
        <time>2019-08-08T11:11:26Z</time>
      </trkpt>
      <trkpt lat="48.58252" lon="7.75186">
        <ele>150.7</ele>
        <time>2019-08-08T11:11:29Z</time>
      </trkpt>
      <trkpt lat="48.58253" lon="7.7519">
        <ele>150.6</ele>
        <time>2019-08-08T11:11:32Z</time>
      </trkpt>
      <trkpt lat="48.58253" lon="7.75195">
        <ele>150.6</ele>
        <time>2019-08-08T11:11:36Z</time>
      </trkpt>
      <trkpt lat="48.58254" lon="7.752">
        <ele>150.5</ele>
        <time>2019-08-08T11:11:39Z</time>
      </trkpt>
      <trkpt lat="48.58254" lon="7.75206">
        <ele>150.5</ele>
        <time>2019-08-08T11:11:42Z</time>
      </trkpt>
      <trkpt lat="48.58254" lon="7.7521">
        <ele>150.4</ele>
        <time>2019-08-08T11:11:45Z</time>
      </trkpt>
      <trkpt lat="48.58254" lon="7.75214">
        <ele>150.4</ele>
        <time>2019-08-08T11:11:48Z</time>
      </trkpt>
      <trkpt lat="48.58255" lon="7.75219">
        <ele>150.4</ele>
        <time>2019-08-08T11:11:52Z</time>
      </trkpt>
      <trkpt lat="48.58257" lon="7.75223">
        <ele>150.3</ele>
        <time>2019-08-08T11:11:58Z</time>
      </trkpt>
      <trkpt lat="48.58258" lon="7.75227">
        <ele>150.3</ele>
        <time>2019-08-08T11:12:02Z</time>
      </trkpt>
      <trkpt lat="48.58259" lon="7.75233">
        <ele>150.2</ele>
        <time>2019-08-08T11:12:06Z</time>
      </trkpt>
      <trkpt lat="48.58259" lon="7.75237">
        <ele>150.2</ele>
        <time>2019-08-08T11:12:09Z</time>
      </trkpt>
      <trkpt lat="48.5826" lon="7.75243">
        <ele>150.1</ele>
        <time>2019-08-08T11:12:12Z</time>
      </trkpt>
      <trkpt lat="48.58261" lon="7.75247">
        <ele>150.1</ele>
        <time>2019-08-08T11:12:14Z</time>
      </trkpt>
      <trkpt lat="48.58262" lon="7.75251">
        <ele>150.1</ele>
        <time>2019-08-08T11:12:17Z</time>
      </trkpt>
      <trkpt lat="48.58263" lon="7.75256">
        <ele>150</ele>
        <time>2019-08-08T11:12:21Z</time>
      </trkpt>
      <trkpt lat="48.58266" lon="7.7526">
        <ele>150</ele>
        <time>2019-08-08T11:12:24Z</time>
      </trkpt>
      <trkpt lat="48.58268" lon="7.75263">
        <ele>149.9</ele>
        <time>2019-08-08T11:12:27Z</time>
      </trkpt>
      <trkpt lat="48.58271" lon="7.75267">
        <ele>149.9</ele>
        <time>2019-08-08T11:12:34Z</time>
      </trkpt>
      <trkpt lat="48.58273" lon="7.7527">
        <ele>149.9</ele>
        <time>2019-08-08T11:12:37Z</time>
      </trkpt>
      <trkpt lat="48.58276" lon="7.75274">
        <ele>149.9</ele>
        <time>2019-08-08T11:12:40Z</time>
      </trkpt>
      <trkpt lat="48.58277" lon="7.75279">
        <ele>149.9</ele>
        <time>2019-08-08T11:12:43Z</time>
      </trkpt>
      <trkpt lat="48.58279" lon="7.75284">
        <ele>149.8</ele>
        <time>2019-08-08T11:12:46Z</time>
      </trkpt>
      <trkpt lat="48.5828" lon="7.75287">
        <ele>149.7</ele>
        <time>2019-08-08T11:12:48Z</time>
      </trkpt>
      <trkpt lat="48.58282" lon="7.75291">
        <ele>149.6</ele>
        <time>2019-08-08T11:12:50Z</time>
      </trkpt>
      <trkpt lat="48.58284" lon="7.75294">
        <ele>149.5</ele>
        <time>2019-08-08T11:12:53Z</time>
      </trkpt>
      <trkpt lat="48.58285" lon="7.75298">
        <ele>149.5</ele>
        <time>2019-08-08T11:12:58Z</time>
      </trkpt>
      <trkpt lat="48.58285" lon="7.75302">
        <ele>149.4</ele>
        <time>2019-08-08T11:13:00Z</time>
      </trkpt>
      <trkpt lat="48.58281" lon="7.75305">
        <ele>149.3</ele>
        <time>2019-08-08T11:13:02Z</time>
      </trkpt>
      <trkpt lat="48.58284" lon="7.75308">
        <ele>149.3</ele>
        <time>2019-08-08T11:13:06Z</time>
      </trkpt>
      <trkpt lat="48.58286" lon="7.75311">
        <ele>149.2</ele>
        <time>2019-08-08T11:13:08Z</time>
      </trkpt>
      <trkpt lat="48.58289" lon="7.75315">
        <ele>149</ele>
        <time>2019-08-08T11:13:11Z</time>
      </trkpt>
      <trkpt lat="48.58292" lon="7.75316">
        <ele>149</ele>
        <time>2019-08-08T11:13:14Z</time>
      </trkpt>
      <trkpt lat="48.58295" lon="7.75319">
        <ele>148.8</ele>
        <time>2019-08-08T11:13:17Z</time>
      </trkpt>
      <trkpt lat="48.58298" lon="7.75322">
        <ele>148.8</ele>
        <time>2019-08-08T11:13:23Z</time>
      </trkpt>
      <trkpt lat="48.58299" lon="7.75326">
        <ele>148.7</ele>
        <time>2019-08-08T11:13:28Z</time>
      </trkpt>
      <trkpt lat="48.58299" lon="7.75331">
        <ele>148.5</ele>
        <time>2019-08-08T11:13:33Z</time>
      </trkpt>
      <trkpt lat="48.58298" lon="7.75335">
        <ele>148.5</ele>
        <time>2019-08-08T11:13:35Z</time>
      </trkpt>
      <trkpt lat="48.58297" lon="7.75339">
        <ele>148.4</ele>
        <time>2019-08-08T11:13:38Z</time>
      </trkpt>
      <trkpt lat="48.58297" lon="7.75344">
        <ele>148.4</ele>
        <time>2019-08-08T11:13:42Z</time>
      </trkpt>
      <trkpt lat="48.58299" lon="7.75348">
        <ele>148.3</ele>
        <time>2019-08-08T11:13:51Z</time>
      </trkpt>
      <trkpt lat="48.58298" lon="7.75352">
        <ele>148.3</ele>
        <time>2019-08-08T11:13:54Z</time>
      </trkpt>
      <trkpt lat="48.58298" lon="7.75356">
        <ele>148.2</ele>
        <time>2019-08-08T11:13:57Z</time>
      </trkpt>
      <trkpt lat="48.58299" lon="7.75361">
        <ele>148.2</ele>
        <time>2019-08-08T11:14:01Z</time>
      </trkpt>
      <trkpt lat="48.58302" lon="7.75365">
        <ele>148.2</ele>
        <time>2019-08-08T11:14:06Z</time>
      </trkpt>
      <trkpt lat="48.58303" lon="7.75371">
        <ele>148.2</ele>
        <time>2019-08-08T11:14:09Z</time>
      </trkpt>
      <trkpt lat="48.58304" lon="7.75376">
        <ele>148.2</ele>
        <time>2019-08-08T11:14:13Z</time>
      </trkpt>
      <trkpt lat="48.58305" lon="7.7538">
        <ele>148.2</ele>
        <time>2019-08-08T11:14:16Z</time>
      </trkpt>
      <trkpt lat="48.58306" lon="7.75384">
        <ele>148.2</ele>
        <time>2019-08-08T11:14:20Z</time>
      </trkpt>
      <trkpt lat="48.58306" lon="7.75389">
        <ele>148.2</ele>
        <time>2019-08-08T11:14:23Z</time>
      </trkpt>
      <trkpt lat="48.58306" lon="7.75393">
        <ele>148.2</ele>
        <time>2019-08-08T11:14:25Z</time>
      </trkpt>
      <trkpt lat="48.58307" lon="7.75398">
        <ele>148.2</ele>
        <time>2019-08-08T11:14:28Z</time>
      </trkpt>
      <trkpt lat="48.58307" lon="7.75404">
        <ele>148.2</ele>
        <time>2019-08-08T11:14:31Z</time>
      </trkpt>
      <trkpt lat="48.58306" lon="7.75408">
        <ele>148.2</ele>
        <time>2019-08-08T11:14:35Z</time>
      </trkpt>
      <trkpt lat="48.58305" lon="7.75414">
        <ele>148.1</ele>
        <time>2019-08-08T11:14:38Z</time>
      </trkpt>
      <trkpt lat="48.58304" lon="7.75419">
        <ele>148.1</ele>
        <time>2019-08-08T11:14:40Z</time>
      </trkpt>
      <trkpt lat="48.58305" lon="7.75425">
        <ele>148</ele>
        <time>2019-08-08T11:14:44Z</time>
      </trkpt>
      <trkpt lat="48.58306" lon="7.75431">
        <ele>147.8</ele>
        <time>2019-08-08T11:14:46Z</time>
      </trkpt>
      <trkpt lat="48.58307" lon="7.75435">
        <ele>147.7</ele>
        <time>2019-08-08T11:14:50Z</time>
      </trkpt>
      <trkpt lat="48.58309" lon="7.75441">
        <ele>147.6</ele>
        <time>2019-08-08T11:14:54Z</time>
      </trkpt>
      <trkpt lat="48.58309" lon="7.75445">
        <ele>147.5</ele>
        <time>2019-08-08T11:14:57Z</time>
      </trkpt>
      <trkpt lat="48.58308" lon="7.75451">
        <ele>147.4</ele>
        <time>2019-08-08T11:15:01Z</time>
      </trkpt>
      <trkpt lat="48.58308" lon="7.75455">
        <ele>147.3</ele>
        <time>2019-08-08T11:15:03Z</time>
      </trkpt>
      <trkpt lat="48.58308" lon="7.7546">
        <ele>147.2</ele>
        <time>2019-08-08T11:15:06Z</time>
      </trkpt>
      <trkpt lat="48.5831" lon="7.75465">
        <ele>147.2</ele>
        <time>2019-08-08T11:15:09Z</time>
      </trkpt>
      <trkpt lat="48.5831" lon="7.75469">
        <ele>147.1</ele>
        <time>2019-08-08T11:15:14Z</time>
      </trkpt>
      <trkpt lat="48.58308" lon="7.75474">
        <ele>147.1</ele>
        <time>2019-08-08T11:15:21Z</time>
      </trkpt>
      <trkpt lat="48.58309" lon="7.75478">
        <ele>147.1</ele>
        <time>2019-08-08T11:15:24Z</time>
      </trkpt>
      <trkpt lat="48.58311" lon="7.75481">
        <ele>147</ele>
        <time>2019-08-08T11:15:28Z</time>
      </trkpt>
      <trkpt lat="48.58314" lon="7.75483">
        <ele>146.9</ele>
        <time>2019-08-08T11:15:31Z</time>
      </trkpt>
      <trkpt lat="48.58317" lon="7.75482">
        <ele>146.9</ele>
        <time>2019-08-08T11:15:34Z</time>
      </trkpt>
      <trkpt lat="48.58319" lon="7.75486">
        <ele>146.9</ele>
        <time>2019-08-08T11:15:36Z</time>
      </trkpt>
      <trkpt lat="48.58322" lon="7.75488">
        <ele>146.7</ele>
        <time>2019-08-08T11:15:39Z</time>
      </trkpt>
      <trkpt lat="48.58324" lon="7.75486">
        <ele>146.7</ele>
        <time>2019-08-08T11:15:41Z</time>
      </trkpt>
      <trkpt lat="48.58325" lon="7.7549">
        <ele>146.6</ele>
        <time>2019-08-08T11:15:44Z</time>
      </trkpt>
      <trkpt lat="48.58326" lon="7.75495">
        <ele>146.6</ele>
        <time>2019-08-08T11:15:48Z</time>
      </trkpt>
      <trkpt lat="48.58327" lon="7.75499">
        <ele>146.6</ele>
        <time>2019-08-08T11:15:56Z</time>
      </trkpt>
      <trkpt lat="48.58332" lon="7.75494">
        <ele>146.6</ele>
        <time>2019-08-08T11:16:42Z</time>
      </trkpt>
      <trkpt lat="48.58333" lon="7.75491">
        <ele>146.5</ele>
        <time>2019-08-08T11:16:45Z</time>
      </trkpt>
      <trkpt lat="48.58336" lon="7.75486">
        <ele>146.5</ele>
        <time>2019-08-08T11:16:47Z</time>
      </trkpt>
      <trkpt lat="48.58337" lon="7.75482">
        <ele>146.5</ele>
        <time>2019-08-08T11:16:50Z</time>
      </trkpt>
      <trkpt lat="48.58339" lon="7.75478">
        <ele>146.5</ele>
        <time>2019-08-08T11:16:54Z</time>
      </trkpt>
      <trkpt lat="48.58341" lon="7.75475">
        <ele>146.5</ele>
        <time>2019-08-08T11:16:59Z</time>
      </trkpt>
      <trkpt lat="48.58344" lon="7.75474">
        <ele>146.4</ele>
        <time>2019-08-08T11:17:04Z</time>
      </trkpt>
      <trkpt lat="48.58347" lon="7.75474">
        <ele>146.4</ele>
        <time>2019-08-08T11:17:06Z</time>
      </trkpt>
      <trkpt lat="48.5835" lon="7.75472">
        <ele>146.4</ele>
        <time>2019-08-08T11:17:09Z</time>
      </trkpt>
      <trkpt lat="48.58353" lon="7.75471">
        <ele>146.4</ele>
        <time>2019-08-08T11:17:12Z</time>
      </trkpt>
      <trkpt lat="48.58356" lon="7.75469">
        <ele>146.4</ele>
        <time>2019-08-08T11:17:16Z</time>
      </trkpt>
      <trkpt lat="48.58359" lon="7.75468">
        <ele>146.3</ele>
        <time>2019-08-08T11:17:18Z</time>
      </trkpt>
      <trkpt lat="48.58362" lon="7.75465">
        <ele>146.3</ele>
        <time>2019-08-08T11:17:20Z</time>
      </trkpt>
      <trkpt lat="48.58363" lon="7.75461">
        <ele>146.3</ele>
        <time>2019-08-08T11:17:23Z</time>
      </trkpt>
      <trkpt lat="48.58366" lon="7.75458">
        <ele>146.3</ele>
        <time>2019-08-08T11:17:26Z</time>
      </trkpt>
      <trkpt lat="48.58369" lon="7.75456">
        <ele>146.2</ele>
        <time>2019-08-08T11:17:31Z</time>
      </trkpt>
      <trkpt lat="48.58372" lon="7.75454">
        <ele>146.2</ele>
        <time>2019-08-08T11:17:33Z</time>
      </trkpt>
      <trkpt lat="48.58375" lon="7.75455">
        <ele>146.2</ele>
        <time>2019-08-08T11:17:36Z</time>
      </trkpt>
      <trkpt lat="48.58379" lon="7.75455">
        <ele>146.1</ele>
        <time>2019-08-08T11:17:40Z</time>
      </trkpt>
      <trkpt lat="48.58383" lon="7.75457">
        <ele>146.1</ele>
        <time>2019-08-08T11:17:43Z</time>
      </trkpt>
      <trkpt lat="48.58386" lon="7.75457">
        <ele>146.1</ele>
        <time>2019-08-08T11:17:45Z</time>
      </trkpt>
      <trkpt lat="48.5839" lon="7.75457">
        <ele>146</ele>
        <time>2019-08-08T11:17:47Z</time>
      </trkpt>
      <trkpt lat="48.58394" lon="7.75457">
        <ele>146</ele>
        <time>2019-08-08T11:17:49Z</time>
      </trkpt>
      <trkpt lat="48.58397" lon="7.75457">
        <ele>146</ele>
        <time>2019-08-08T11:17:52Z</time>
      </trkpt>
      <trkpt lat="48.584" lon="7.75457">
        <ele>145.9</ele>
        <time>2019-08-08T11:17:55Z</time>
      </trkpt>
      <trkpt lat="48.58404" lon="7.75459">
        <ele>145.9</ele>
        <time>2019-08-08T11:17:57Z</time>
      </trkpt>
      <trkpt lat="48.58407" lon="7.75462">
        <ele>145.9</ele>
        <time>2019-08-08T11:17:59Z</time>
      </trkpt>
      <trkpt lat="48.5841" lon="7.75464">
        <ele>145.8</ele>
        <time>2019-08-08T11:18:01Z</time>
      </trkpt>
      <trkpt lat="48.58414" lon="7.75464">
        <ele>145.7</ele>
        <time>2019-08-08T11:18:06Z</time>
      </trkpt>
      <trkpt lat="48.58417" lon="7.75465">
        <ele>145.7</ele>
        <time>2019-08-08T11:18:08Z</time>
      </trkpt>
      <trkpt lat="48.5842" lon="7.75468">
        <ele>145.6</ele>
        <time>2019-08-08T11:18:10Z</time>
      </trkpt>
      <trkpt lat="48.58423" lon="7.7547">
        <ele>145.6</ele>
        <time>2019-08-08T11:18:15Z</time>
      </trkpt>
      <trkpt lat="48.58426" lon="7.75468">
        <ele>145.5</ele>
        <time>2019-08-08T11:18:18Z</time>
      </trkpt>
      <trkpt lat="48.58428" lon="7.75464">
        <ele>145.5</ele>
        <time>2019-08-08T11:18:21Z</time>
      </trkpt>
      <trkpt lat="48.5843" lon="7.75458">
        <ele>145.4</ele>
        <time>2019-08-08T11:18:23Z</time>
      </trkpt>
      <trkpt lat="48.58432" lon="7.75454">
        <ele>145.3</ele>
        <time>2019-08-08T11:18:25Z</time>
      </trkpt>
      <trkpt lat="48.58434" lon="7.7545">
        <ele>145.3</ele>
        <time>2019-08-08T11:18:27Z</time>
      </trkpt>
      <trkpt lat="48.58438" lon="7.75446">
        <ele>145.2</ele>
        <time>2019-08-08T11:18:29Z</time>
      </trkpt>
      <trkpt lat="48.58441" lon="7.75444">
        <ele>145.2</ele>
        <time>2019-08-08T11:18:31Z</time>
      </trkpt>
      <trkpt lat="48.58444" lon="7.75445">
        <ele>145.1</ele>
        <time>2019-08-08T11:18:34Z</time>
      </trkpt>
      <trkpt lat="48.58447" lon="7.75444">
        <ele>145.1</ele>
        <time>2019-08-08T11:18:37Z</time>
      </trkpt>
      <trkpt lat="48.58453" lon="7.75441">
        <ele>145</ele>
        <time>2019-08-08T11:18:40Z</time>
      </trkpt>
      <trkpt lat="48.58456" lon="7.75439">
        <ele>144.9</ele>
        <time>2019-08-08T11:18:42Z</time>
      </trkpt>
      <trkpt lat="48.58459" lon="7.75434">
        <ele>144.9</ele>
        <time>2019-08-08T11:18:44Z</time>
      </trkpt>
      <trkpt lat="48.58461" lon="7.75431">
        <ele>144.8</ele>
        <time>2019-08-08T11:18:46Z</time>
      </trkpt>
      <trkpt lat="48.58464" lon="7.75428">
        <ele>144.8</ele>
        <time>2019-08-08T11:18:48Z</time>
      </trkpt>
      <trkpt lat="48.58467" lon="7.75426">
        <ele>144.7</ele>
        <time>2019-08-08T11:18:51Z</time>
      </trkpt>
      <trkpt lat="48.5847" lon="7.75425">
        <ele>144.7</ele>
        <time>2019-08-08T11:18:54Z</time>
      </trkpt>
      <trkpt lat="48.58473" lon="7.75423">
        <ele>144.6</ele>
        <time>2019-08-08T11:18:56Z</time>
      </trkpt>
      <trkpt lat="48.58476" lon="7.7542">
        <ele>144.6</ele>
        <time>2019-08-08T11:19:02Z</time>
      </trkpt>
      <trkpt lat="48.58496" lon="7.75419">
        <ele>141.9</ele>
        <time>2019-08-08T11:20:58Z</time>
      </trkpt>
      <trkpt lat="48.58496" lon="7.75415">
        <ele>141.8</ele>
        <time>2019-08-08T11:21:02Z</time>
      </trkpt>
      <trkpt lat="48.58498" lon="7.75411">
        <ele>141.6</ele>
        <time>2019-08-08T11:21:07Z</time>
      </trkpt>
      <trkpt lat="48.58497" lon="7.75408">
        <ele>141.4</ele>
        <time>2019-08-08T11:21:11Z</time>
      </trkpt>
      <trkpt lat="48.58499" lon="7.7541">
        <ele>141.3</ele>
        <time>2019-08-08T11:21:26Z</time>
      </trkpt>
      <trkpt lat="48.58502" lon="7.75406">
        <ele>141.1</ele>
        <time>2019-08-08T11:22:31Z</time>
      </trkpt>
      <trkpt lat="48.58488" lon="7.75434">
        <ele>139.8</ele>
        <time>2019-08-08T11:29:21Z</time>
      </trkpt>
      <trkpt lat="48.58491" lon="7.75437">
        <ele>139.6</ele>
        <time>2019-08-08T11:29:25Z</time>
      </trkpt>
      <trkpt lat="48.58493" lon="7.7544">
        <ele>139.5</ele>
        <time>2019-08-08T11:29:29Z</time>
      </trkpt>
      <trkpt lat="48.58495" lon="7.75441">
        <ele>139.3</ele>
        <time>2019-08-08T11:29:31Z</time>
      </trkpt>
      <trkpt lat="48.58498" lon="7.75443">
        <ele>139.1</ele>
        <time>2019-08-08T11:29:35Z</time>
      </trkpt>
      <trkpt lat="48.58501" lon="7.75449">
        <ele>138.9</ele>
        <time>2019-08-08T11:29:38Z</time>
      </trkpt>
      <trkpt lat="48.58503" lon="7.75451">
        <ele>138.7</ele>
        <time>2019-08-08T11:29:43Z</time>
      </trkpt>
      <trkpt lat="48.58506" lon="7.75447">
        <ele>138.5</ele>
        <time>2019-08-08T11:29:46Z</time>
      </trkpt>
      <trkpt lat="48.58511" lon="7.75449">
        <ele>138.2</ele>
        <time>2019-08-08T11:30:05Z</time>
      </trkpt>
      <trkpt lat="48.58514" lon="7.75452">
        <ele>138</ele>
        <time>2019-08-08T11:30:07Z</time>
      </trkpt>
      <trkpt lat="48.58514" lon="7.75456">
        <ele>137.9</ele>
        <time>2019-08-08T11:30:10Z</time>
      </trkpt>
      <trkpt lat="48.58514" lon="7.75461">
        <ele>137.7</ele>
        <time>2019-08-08T11:30:13Z</time>
      </trkpt>
      <trkpt lat="48.58514" lon="7.75466">
        <ele>137.5</ele>
        <time>2019-08-08T11:30:18Z</time>
      </trkpt>
      <trkpt lat="48.58516" lon="7.75468">
        <ele>137.3</ele>
        <time>2019-08-08T11:31:13Z</time>
      </trkpt>
      <trkpt lat="48.58519" lon="7.75464">
        <ele>137.1</ele>
        <time>2019-08-08T11:31:16Z</time>
      </trkpt>
      <trkpt lat="48.58521" lon="7.75461">
        <ele>136.6</ele>
        <time>2019-08-08T11:31:18Z</time>
      </trkpt>
      <trkpt lat="48.58524" lon="7.75459">
        <ele>136.5</ele>
        <time>2019-08-08T11:31:21Z</time>
      </trkpt>
      <trkpt lat="48.58527" lon="7.75457">
        <ele>136.3</ele>
        <time>2019-08-08T11:31:24Z</time>
      </trkpt>
      <trkpt lat="48.5853" lon="7.75455">
        <ele>136.3</ele>
        <time>2019-08-08T11:31:26Z</time>
      </trkpt>
      <trkpt lat="48.58532" lon="7.75452">
        <ele>136.3</ele>
        <time>2019-08-08T11:31:30Z</time>
      </trkpt>
      <trkpt lat="48.58535" lon="7.75449">
        <ele>136.3</ele>
        <time>2019-08-08T11:31:34Z</time>
      </trkpt>
      <trkpt lat="48.58537" lon="7.75445">
        <ele>136.4</ele>
        <time>2019-08-08T11:31:37Z</time>
      </trkpt>
      <trkpt lat="48.5854" lon="7.75438">
        <ele>136.5</ele>
        <time>2019-08-08T11:31:40Z</time>
      </trkpt>
      <trkpt lat="48.58543" lon="7.75435">
        <ele>136.6</ele>
        <time>2019-08-08T11:31:42Z</time>
      </trkpt>
      <trkpt lat="48.58546" lon="7.75431">
        <ele>136.7</ele>
        <time>2019-08-08T11:31:44Z</time>
      </trkpt>
      <trkpt lat="48.58548" lon="7.75428">
        <ele>136.7</ele>
        <time>2019-08-08T11:31:46Z</time>
      </trkpt>
      <trkpt lat="48.58551" lon="7.75425">
        <ele>136.7</ele>
        <time>2019-08-08T11:31:48Z</time>
      </trkpt>
      <trkpt lat="48.58555" lon="7.75423">
        <ele>136.6</ele>
        <time>2019-08-08T11:31:51Z</time>
      </trkpt>
      <trkpt lat="48.58557" lon="7.75419">
        <ele>136.5</ele>
        <time>2019-08-08T11:31:53Z</time>
      </trkpt>
      <trkpt lat="48.58561" lon="7.75416">
        <ele>136.2</ele>
        <time>2019-08-08T11:31:56Z</time>
      </trkpt>
      <trkpt lat="48.58563" lon="7.75414">
        <ele>136.1</ele>
        <time>2019-08-08T11:31:59Z</time>
      </trkpt>
      <trkpt lat="48.58567" lon="7.7541">
        <ele>135.8</ele>
        <time>2019-08-08T11:32:02Z</time>
      </trkpt>
      <trkpt lat="48.58569" lon="7.75407">
        <ele>135.6</ele>
        <time>2019-08-08T11:32:05Z</time>
      </trkpt>
      <trkpt lat="48.58571" lon="7.75411">
        <ele>136</ele>
        <time>2019-08-08T11:32:14Z</time>
      </trkpt>
      <trkpt lat="48.58574" lon="7.75413">
        <ele>136.1</ele>
        <time>2019-08-08T11:32:17Z</time>
      </trkpt>
      <trkpt lat="48.58576" lon="7.75416">
        <ele>136.2</ele>
        <time>2019-08-08T11:32:20Z</time>
      </trkpt>
      <trkpt lat="48.58578" lon="7.75421">
        <ele>136.3</ele>
        <time>2019-08-08T11:32:24Z</time>
      </trkpt>
      <trkpt lat="48.5858" lon="7.75426">
        <ele>136.4</ele>
        <time>2019-08-08T11:32:28Z</time>
      </trkpt>
      <trkpt lat="48.58581" lon="7.7543">
        <ele>136.4</ele>
        <time>2019-08-08T11:32:31Z</time>
      </trkpt>
      <trkpt lat="48.58583" lon="7.75435">
        <ele>136.5</ele>
        <time>2019-08-08T11:32:34Z</time>
      </trkpt>
      <trkpt lat="48.58585" lon="7.75439">
        <ele>136.9</ele>
        <time>2019-08-08T11:32:37Z</time>
      </trkpt>
      <trkpt lat="48.58587" lon="7.75444">
        <ele>137.8</ele>
        <time>2019-08-08T11:32:40Z</time>
      </trkpt>
      <trkpt lat="48.58589" lon="7.75448">
        <ele>138.6</ele>
        <time>2019-08-08T11:32:43Z</time>
      </trkpt>
      <trkpt lat="48.58591" lon="7.75452">
        <ele>139.4</ele>
        <time>2019-08-08T11:32:47Z</time>
      </trkpt>
      <trkpt lat="48.58594" lon="7.75454">
        <ele>140</ele>
        <time>2019-08-08T11:32:50Z</time>
      </trkpt>
      <trkpt lat="48.58603" lon="7.75459">
        <ele>142.1</ele>
        <time>2019-08-08T11:34:21Z</time>
      </trkpt>
      <trkpt lat="48.58606" lon="7.75456">
        <ele>142.1</ele>
        <time>2019-08-08T11:34:23Z</time>
      </trkpt>
      <trkpt lat="48.58609" lon="7.75458">
        <ele>142.1</ele>
        <time>2019-08-08T11:34:26Z</time>
      </trkpt>
      <trkpt lat="48.58613" lon="7.7546">
        <ele>142.2</ele>
        <time>2019-08-08T11:34:28Z</time>
      </trkpt>
      <trkpt lat="48.58616" lon="7.75462">
        <ele>142.2</ele>
        <time>2019-08-08T11:34:30Z</time>
      </trkpt>
      <trkpt lat="48.58619" lon="7.75462">
        <ele>142.2</ele>
        <time>2019-08-08T11:34:32Z</time>
      </trkpt>
      <trkpt lat="48.58622" lon="7.75461">
        <ele>142</ele>
        <time>2019-08-08T11:34:34Z</time>
      </trkpt>
      <trkpt lat="48.58625" lon="7.75459">
        <ele>141.5</ele>
        <time>2019-08-08T11:34:39Z</time>
      </trkpt>
      <trkpt lat="48.58626" lon="7.75455">
        <ele>141.4</ele>
        <time>2019-08-08T11:34:41Z</time>
      </trkpt>
      <trkpt lat="48.58628" lon="7.75451">
        <ele>141.2</ele>
        <time>2019-08-08T11:34:44Z</time>
      </trkpt>
      <trkpt lat="48.5863" lon="7.75447">
        <ele>141</ele>
        <time>2019-08-08T11:34:47Z</time>
      </trkpt>
      <trkpt lat="48.58633" lon="7.75448">
        <ele>140.9</ele>
        <time>2019-08-08T11:34:50Z</time>
      </trkpt>
      <trkpt lat="48.58637" lon="7.75447">
        <ele>140.9</ele>
        <time>2019-08-08T11:34:53Z</time>
      </trkpt>
      <trkpt lat="48.5864" lon="7.75451">
        <ele>141.1</ele>
        <time>2019-08-08T11:34:56Z</time>
      </trkpt>
      <trkpt lat="48.58643" lon="7.75455">
        <ele>141.5</ele>
        <time>2019-08-08T11:34:59Z</time>
      </trkpt>
      <trkpt lat="48.58646" lon="7.75455">
        <ele>141.6</ele>
        <time>2019-08-08T11:35:01Z</time>
      </trkpt>
      <trkpt lat="48.58649" lon="7.75452">
        <ele>141.2</ele>
        <time>2019-08-08T11:35:04Z</time>
      </trkpt>
      <trkpt lat="48.58652" lon="7.7545">
        <ele>140.8</ele>
        <time>2019-08-08T11:35:07Z</time>
      </trkpt>
      <trkpt lat="48.58655" lon="7.75447">
        <ele>140.8</ele>
        <time>2019-08-08T11:35:09Z</time>
      </trkpt>
      <trkpt lat="48.58657" lon="7.75444">
        <ele>140.3</ele>
        <time>2019-08-08T11:35:12Z</time>
      </trkpt>
      <trkpt lat="48.5866" lon="7.75443">
        <ele>140.4</ele>
        <time>2019-08-08T11:35:16Z</time>
      </trkpt>
      <trkpt lat="48.58663" lon="7.75448">
        <ele>140.8</ele>
        <time>2019-08-08T11:35:19Z</time>
      </trkpt>
      <trkpt lat="48.58666" lon="7.7545">
        <ele>140.9</ele>
        <time>2019-08-08T11:35:22Z</time>
      </trkpt>
      <trkpt lat="48.58668" lon="7.75454">
        <ele>141.3</ele>
        <time>2019-08-08T11:35:25Z</time>
      </trkpt>
      <trkpt lat="48.5867" lon="7.7546">
        <ele>141.9</ele>
        <time>2019-08-08T11:35:29Z</time>
      </trkpt>
      <trkpt lat="48.58671" lon="7.75464">
        <ele>142.1</ele>
        <time>2019-08-08T11:35:31Z</time>
      </trkpt>
      <trkpt lat="48.58673" lon="7.75467">
        <ele>142.1</ele>
        <time>2019-08-08T11:35:33Z</time>
      </trkpt>
      <trkpt lat="48.58675" lon="7.7547">
        <ele>142.2</ele>
        <time>2019-08-08T11:35:36Z</time>
      </trkpt>
      <trkpt lat="48.58677" lon="7.75474">
        <ele>142.3</ele>
        <time>2019-08-08T11:35:39Z</time>
      </trkpt>
      <trkpt lat="48.5868" lon="7.75477">
        <ele>142.3</ele>
        <time>2019-08-08T11:35:45Z</time>
      </trkpt>
      <trkpt lat="48.58687" lon="7.75483">
        <ele>142.3</ele>
        <time>2019-08-08T11:36:02Z</time>
      </trkpt>
      <trkpt lat="48.5869" lon="7.75479">
        <ele>142.1</ele>
        <time>2019-08-08T11:36:04Z</time>
      </trkpt>
      <trkpt lat="48.58693" lon="7.75476">
        <ele>142.1</ele>
        <time>2019-08-08T11:36:07Z</time>
      </trkpt>
      <trkpt lat="48.58696" lon="7.75475">
        <ele>142</ele>
        <time>2019-08-08T11:36:11Z</time>
      </trkpt>
      <trkpt lat="48.58699" lon="7.75472">
        <ele>142</ele>
        <time>2019-08-08T11:36:17Z</time>
      </trkpt>
      <trkpt lat="48.58702" lon="7.75471">
        <ele>141.8</ele>
        <time>2019-08-08T11:36:29Z</time>
      </trkpt>
      <trkpt lat="48.58705" lon="7.75472">
        <ele>142</ele>
        <time>2019-08-08T11:36:33Z</time>
      </trkpt>
      <trkpt lat="48.58708" lon="7.7547">
        <ele>141.8</ele>
        <time>2019-08-08T11:36:35Z</time>
      </trkpt>
      <trkpt lat="48.58712" lon="7.75469">
        <ele>141.9</ele>
        <time>2019-08-08T11:36:38Z</time>
      </trkpt>
      <trkpt lat="48.58715" lon="7.75467">
        <ele>141.8</ele>
        <time>2019-08-08T11:36:42Z</time>
      </trkpt>
      <trkpt lat="48.58725" lon="7.75471">
        <ele>142.2</ele>
        <time>2019-08-08T11:44:49Z</time>
      </trkpt>
      <trkpt lat="48.58722" lon="7.75471">
        <ele>142.1</ele>
        <time>2019-08-08T11:44:52Z</time>
      </trkpt>
      <trkpt lat="48.58717" lon="7.75465">
        <ele>141.8</ele>
        <time>2019-08-08T11:45:17Z</time>
      </trkpt>
      <trkpt lat="48.58714" lon="7.75463">
        <ele>141.5</ele>
        <time>2019-08-08T11:45:20Z</time>
      </trkpt>
      <trkpt lat="48.5871" lon="7.75459">
        <ele>141.3</ele>
        <time>2019-08-08T11:45:23Z</time>
      </trkpt>
      <trkpt lat="48.58708" lon="7.75457">
        <ele>141.2</ele>
        <time>2019-08-08T11:45:26Z</time>
      </trkpt>
      <trkpt lat="48.58705" lon="7.75455">
        <ele>141.2</ele>
        <time>2019-08-08T11:45:28Z</time>
      </trkpt>
      <trkpt lat="48.58702" lon="7.75451">
        <ele>141</ele>
        <time>2019-08-08T11:45:31Z</time>
      </trkpt>
      <trkpt lat="48.587" lon="7.75448">
        <ele>140.9</ele>
        <time>2019-08-08T11:45:34Z</time>
      </trkpt>
      <trkpt lat="48.58698" lon="7.75445">
        <ele>140.7</ele>
        <time>2019-08-08T11:45:37Z</time>
      </trkpt>
      <trkpt lat="48.58687" lon="7.7543">
        <ele>140</ele>
        <time>2019-08-08T12:23:03Z</time>
      </trkpt>
      <trkpt lat="48.58686" lon="7.75424">
        <ele>139.7</ele>
        <time>2019-08-08T12:23:05Z</time>
      </trkpt>
      <trkpt lat="48.58687" lon="7.75419">
        <ele>139.6</ele>
        <time>2019-08-08T12:23:07Z</time>
      </trkpt>
      <trkpt lat="48.58686" lon="7.75413">
        <ele>139.5</ele>
        <time>2019-08-08T12:23:10Z</time>
      </trkpt>
      <trkpt lat="48.58686" lon="7.75407">
        <ele>139.3</ele>
        <time>2019-08-08T12:23:14Z</time>
      </trkpt>
      <trkpt lat="48.58684" lon="7.75403">
        <ele>139.1</ele>
        <time>2019-08-08T12:23:18Z</time>
      </trkpt>
      <trkpt lat="48.58682" lon="7.754">
        <ele>139</ele>
        <time>2019-08-08T12:23:24Z</time>
      </trkpt>
      <trkpt lat="48.58685" lon="7.75387">
        <ele>138.9</ele>
        <time>2019-08-08T12:24:13Z</time>
      </trkpt>
      <trkpt lat="48.58684" lon="7.75382">
        <ele>138.9</ele>
        <time>2019-08-08T12:24:15Z</time>
      </trkpt>
      <trkpt lat="48.58683" lon="7.75376">
        <ele>138.8</ele>
        <time>2019-08-08T12:24:17Z</time>
      </trkpt>
      <trkpt lat="48.58683" lon="7.75371">
        <ele>138.8</ele>
        <time>2019-08-08T12:24:19Z</time>
      </trkpt>
      <trkpt lat="48.58681" lon="7.75367">
        <ele>138.8</ele>
        <time>2019-08-08T12:24:20Z</time>
      </trkpt>
      <trkpt lat="48.5868" lon="7.7536">
        <ele>138.9</ele>
        <time>2019-08-08T12:24:22Z</time>
      </trkpt>
      <trkpt lat="48.58678" lon="7.75356">
        <ele>138.9</ele>
        <time>2019-08-08T12:24:28Z</time>
      </trkpt>
      <trkpt lat="48.58676" lon="7.75353">
        <ele>139</ele>
        <time>2019-08-08T12:24:30Z</time>
      </trkpt>
      <trkpt lat="48.58672" lon="7.7535">
        <ele>139</ele>
        <time>2019-08-08T12:24:32Z</time>
      </trkpt>
      <trkpt lat="48.58667" lon="7.75347">
        <ele>138.8</ele>
        <time>2019-08-08T12:24:34Z</time>
      </trkpt>
      <trkpt lat="48.58662" lon="7.75346">
        <ele>138.6</ele>
        <time>2019-08-08T12:24:36Z</time>
      </trkpt>
      <trkpt lat="48.58659" lon="7.75346">
        <ele>138.4</ele>
        <time>2019-08-08T12:24:38Z</time>
      </trkpt>
      <trkpt lat="48.58656" lon="7.75346">
        <ele>138.2</ele>
        <time>2019-08-08T12:24:41Z</time>
      </trkpt>
      <trkpt lat="48.58653" lon="7.75343">
        <ele>138</ele>
        <time>2019-08-08T12:24:45Z</time>
      </trkpt>
      <trkpt lat="48.5865" lon="7.75344">
        <ele>137.7</ele>
        <time>2019-08-08T12:24:49Z</time>
      </trkpt>
      <trkpt lat="48.58648" lon="7.75349">
        <ele>137.7</ele>
        <time>2019-08-08T12:24:51Z</time>
      </trkpt>
      <trkpt lat="48.58647" lon="7.75354">
        <ele>137.9</ele>
        <time>2019-08-08T12:24:53Z</time>
      </trkpt>
      <trkpt lat="48.58646" lon="7.75361">
        <ele>137.9</ele>
        <time>2019-08-08T12:24:55Z</time>
      </trkpt>
      <trkpt lat="48.58644" lon="7.75366">
        <ele>137.6</ele>
        <time>2019-08-08T12:24:57Z</time>
      </trkpt>
      <trkpt lat="48.58642" lon="7.75369">
        <ele>137.3</ele>
        <time>2019-08-08T12:24:58Z</time>
      </trkpt>
      <trkpt lat="48.5864" lon="7.75373">
        <ele>137.1</ele>
        <time>2019-08-08T12:24:59Z</time>
      </trkpt>
      <trkpt lat="48.58638" lon="7.75376">
        <ele>136.9</ele>
        <time>2019-08-08T12:25:00Z</time>
      </trkpt>
      <trkpt lat="48.58636" lon="7.75387">
        <ele>136.4</ele>
        <time>2019-08-08T12:25:02Z</time>
      </trkpt>
      <trkpt lat="48.5863" lon="7.75397">
        <ele>136</ele>
        <time>2019-08-08T12:25:04Z</time>
      </trkpt>
      <trkpt lat="48.58627" lon="7.75401">
        <ele>136</ele>
        <time>2019-08-08T12:25:05Z</time>
      </trkpt>
      <trkpt lat="48.58624" lon="7.75405">
        <ele>136.3</ele>
        <time>2019-08-08T12:25:06Z</time>
      </trkpt>
      <trkpt lat="48.58623" lon="7.75408">
        <ele>136.5</ele>
        <time>2019-08-08T12:25:07Z</time>
      </trkpt>
      <trkpt lat="48.58619" lon="7.75413">
        <ele>136.9</ele>
        <time>2019-08-08T12:25:09Z</time>
      </trkpt>
      <trkpt lat="48.58616" lon="7.75418">
        <ele>137.3</ele>
        <time>2019-08-08T12:25:11Z</time>
      </trkpt>
      <trkpt lat="48.58612" lon="7.75425">
        <ele>137.6</ele>
        <time>2019-08-08T12:25:13Z</time>
      </trkpt>
      <trkpt lat="48.5861" lon="7.75429">
        <ele>137.6</ele>
        <time>2019-08-08T12:25:14Z</time>
      </trkpt>
      <trkpt lat="48.58606" lon="7.75435">
        <ele>138.2</ele>
        <time>2019-08-08T12:25:15Z</time>
      </trkpt>
      <trkpt lat="48.58603" lon="7.75441">
        <ele>139.1</ele>
        <time>2019-08-08T12:25:16Z</time>
      </trkpt>
      <trkpt lat="48.586" lon="7.75445">
        <ele>139.7</ele>
        <time>2019-08-08T12:25:17Z</time>
      </trkpt>
      <trkpt lat="48.58599" lon="7.75449">
        <ele>140.3</ele>
        <time>2019-08-08T12:25:18Z</time>
      </trkpt>
      <trkpt lat="48.58596" lon="7.75455">
        <ele>141</ele>
        <time>2019-08-08T12:25:20Z</time>
      </trkpt>
      <trkpt lat="48.58595" lon="7.75459">
        <ele>141.5</ele>
        <time>2019-08-08T12:25:21Z</time>
      </trkpt>
      <trkpt lat="48.58595" lon="7.75464">
        <ele>142.1</ele>
        <time>2019-08-08T12:25:22Z</time>
      </trkpt>
      <trkpt lat="48.58594" lon="7.75468">
        <ele>142.4</ele>
        <time>2019-08-08T12:25:23Z</time>
      </trkpt>
      <trkpt lat="48.58592" lon="7.75474">
        <ele>142.1</ele>
        <time>2019-08-08T12:25:24Z</time>
      </trkpt>
      <trkpt lat="48.58587" lon="7.75479">
        <ele>141.1</ele>
        <time>2019-08-08T12:25:25Z</time>
      </trkpt>
      <trkpt lat="48.58584" lon="7.75484">
        <ele>140.9</ele>
        <time>2019-08-08T12:25:26Z</time>
      </trkpt>
      <trkpt lat="48.58581" lon="7.75489">
        <ele>140.7</ele>
        <time>2019-08-08T12:25:27Z</time>
      </trkpt>
      <trkpt lat="48.58578" lon="7.75493">
        <ele>141.3</ele>
        <time>2019-08-08T12:25:28Z</time>
      </trkpt>
      <trkpt lat="48.58576" lon="7.75497">
        <ele>141.8</ele>
        <time>2019-08-08T12:25:29Z</time>
      </trkpt>
      <trkpt lat="48.58573" lon="7.75499">
        <ele>142.3</ele>
        <time>2019-08-08T12:25:30Z</time>
      </trkpt>
      <trkpt lat="48.58571" lon="7.75502">
        <ele>142.9</ele>
        <time>2019-08-08T12:25:31Z</time>
      </trkpt>
      <trkpt lat="48.58567" lon="7.75507">
        <ele>143.8</ele>
        <time>2019-08-08T12:25:33Z</time>
      </trkpt>
      <trkpt lat="48.58563" lon="7.75512">
        <ele>143.9</ele>
        <time>2019-08-08T12:25:35Z</time>
      </trkpt>
      <trkpt lat="48.58561" lon="7.7552">
        <ele>143.9</ele>
        <time>2019-08-08T12:25:37Z</time>
      </trkpt>
      <trkpt lat="48.5856" lon="7.75524">
        <ele>143.9</ele>
        <time>2019-08-08T12:25:38Z</time>
      </trkpt>
      <trkpt lat="48.5856" lon="7.75529">
        <ele>143.9</ele>
        <time>2019-08-08T12:25:39Z</time>
      </trkpt>
      <trkpt lat="48.58559" lon="7.75534">
        <ele>144</ele>
        <time>2019-08-08T12:25:40Z</time>
      </trkpt>
      <trkpt lat="48.58559" lon="7.7554">
        <ele>144.1</ele>
        <time>2019-08-08T12:25:42Z</time>
      </trkpt>
      <trkpt lat="48.58556" lon="7.75543">
        <ele>144.2</ele>
        <time>2019-08-08T12:25:45Z</time>
      </trkpt>
      <trkpt lat="48.58555" lon="7.75548">
        <ele>144.3</ele>
        <time>2019-08-08T12:25:47Z</time>
      </trkpt>
      <trkpt lat="48.58552" lon="7.75553">
        <ele>144.4</ele>
        <time>2019-08-08T12:25:50Z</time>
      </trkpt>
      <trkpt lat="48.58553" lon="7.75559">
        <ele>144.5</ele>
        <time>2019-08-08T12:25:53Z</time>
      </trkpt>
      <trkpt lat="48.58552" lon="7.75565">
        <ele>144.5</ele>
        <time>2019-08-08T12:25:56Z</time>
      </trkpt>
      <trkpt lat="48.58551" lon="7.75571">
        <ele>144.5</ele>
        <time>2019-08-08T12:25:59Z</time>
      </trkpt>
      <trkpt lat="48.5855" lon="7.75577">
        <ele>144.6</ele>
        <time>2019-08-08T12:26:01Z</time>
      </trkpt>
      <trkpt lat="48.5855" lon="7.75583">
        <ele>144.7</ele>
        <time>2019-08-08T12:26:03Z</time>
      </trkpt>
      <trkpt lat="48.58547" lon="7.75589">
        <ele>144.8</ele>
        <time>2019-08-08T12:26:05Z</time>
      </trkpt>
      <trkpt lat="48.58544" lon="7.75595">
        <ele>144.9</ele>
        <time>2019-08-08T12:26:07Z</time>
      </trkpt>
      <trkpt lat="48.5854" lon="7.75598">
        <ele>145</ele>
        <time>2019-08-08T12:26:10Z</time>
      </trkpt>
      <trkpt lat="48.58537" lon="7.75601">
        <ele>145</ele>
        <time>2019-08-08T12:26:12Z</time>
      </trkpt>
      <trkpt lat="48.58537" lon="7.75605">
        <ele>145.1</ele>
        <time>2019-08-08T12:26:14Z</time>
      </trkpt>
      <trkpt lat="48.58535" lon="7.75612">
        <ele>145.1</ele>
        <time>2019-08-08T12:26:16Z</time>
      </trkpt>
      <trkpt lat="48.58535" lon="7.75618">
        <ele>145.2</ele>
        <time>2019-08-08T12:26:18Z</time>
      </trkpt>
      <trkpt lat="48.58534" lon="7.75622">
        <ele>145.2</ele>
        <time>2019-08-08T12:26:19Z</time>
      </trkpt>
      <trkpt lat="48.58533" lon="7.75628">
        <ele>145.1</ele>
        <time>2019-08-08T12:26:20Z</time>
      </trkpt>
      <trkpt lat="48.58532" lon="7.75634">
        <ele>145</ele>
        <time>2019-08-08T12:26:21Z</time>
      </trkpt>
      <trkpt lat="48.5853" lon="7.7564">
        <ele>144.9</ele>
        <time>2019-08-08T12:26:22Z</time>
      </trkpt>
      <trkpt lat="48.58529" lon="7.75646">
        <ele>144.8</ele>
        <time>2019-08-08T12:26:23Z</time>
      </trkpt>
      <trkpt lat="48.58526" lon="7.75653">
        <ele>144.8</ele>
        <time>2019-08-08T12:26:24Z</time>
      </trkpt>
      <trkpt lat="48.58525" lon="7.75659">
        <ele>144.7</ele>
        <time>2019-08-08T12:26:25Z</time>
      </trkpt>
      <trkpt lat="48.58523" lon="7.75666">
        <ele>144.6</ele>
        <time>2019-08-08T12:26:26Z</time>
      </trkpt>
      <trkpt lat="48.58519" lon="7.75671">
        <ele>144.6</ele>
        <time>2019-08-08T12:26:27Z</time>
      </trkpt>
      <trkpt lat="48.58517" lon="7.75676">
        <ele>144.5</ele>
        <time>2019-08-08T12:26:28Z</time>
      </trkpt>
      <trkpt lat="48.58515" lon="7.75681">
        <ele>144.5</ele>
        <time>2019-08-08T12:26:29Z</time>
      </trkpt>
      <trkpt lat="48.58513" lon="7.75688">
        <ele>144.4</ele>
        <time>2019-08-08T12:26:31Z</time>
      </trkpt>
      <trkpt lat="48.5851" lon="7.75696">
        <ele>144.4</ele>
        <time>2019-08-08T12:26:33Z</time>
      </trkpt>
      <trkpt lat="48.58508" lon="7.75699">
        <ele>144.3</ele>
        <time>2019-08-08T12:26:34Z</time>
      </trkpt>
      <trkpt lat="48.58507" lon="7.75704">
        <ele>144.3</ele>
        <time>2019-08-08T12:26:35Z</time>
      </trkpt>
      <trkpt lat="48.58505" lon="7.75708">
        <ele>144.3</ele>
        <time>2019-08-08T12:26:36Z</time>
      </trkpt>
      <trkpt lat="48.58504" lon="7.75713">
        <ele>144.3</ele>
        <time>2019-08-08T12:26:38Z</time>
      </trkpt>
      <trkpt lat="48.585" lon="7.75718">
        <ele>144.2</ele>
        <time>2019-08-08T12:26:40Z</time>
      </trkpt>
      <trkpt lat="48.58497" lon="7.75721">
        <ele>144.2</ele>
        <time>2019-08-08T12:26:42Z</time>
      </trkpt>
      <trkpt lat="48.58494" lon="7.75723">
        <ele>144.2</ele>
        <time>2019-08-08T12:26:46Z</time>
      </trkpt>
      <trkpt lat="48.58481" lon="7.75732">
        <ele>144.1</ele>
        <time>2019-08-08T12:27:22Z</time>
      </trkpt>
      <trkpt lat="48.58478" lon="7.75735">
        <ele>144.1</ele>
        <time>2019-08-08T12:27:24Z</time>
      </trkpt>
      <trkpt lat="48.58477" lon="7.7574">
        <ele>144.1</ele>
        <time>2019-08-08T12:27:26Z</time>
      </trkpt>
      <trkpt lat="48.58474" lon="7.75743">
        <ele>144.1</ele>
        <time>2019-08-08T12:27:27Z</time>
      </trkpt>
      <trkpt lat="48.58471" lon="7.75744">
        <ele>144.1</ele>
        <time>2019-08-08T12:27:28Z</time>
      </trkpt>
      <trkpt lat="48.58468" lon="7.75745">
        <ele>144.1</ele>
        <time>2019-08-08T12:27:29Z</time>
      </trkpt>
      <trkpt lat="48.58465" lon="7.75746">
        <ele>144.1</ele>
        <time>2019-08-08T12:27:30Z</time>
      </trkpt>
      <trkpt lat="48.58462" lon="7.75748">
        <ele>144.2</ele>
        <time>2019-08-08T12:27:32Z</time>
      </trkpt>
      <trkpt lat="48.5846" lon="7.75751">
        <ele>144.2</ele>
        <time>2019-08-08T12:27:34Z</time>
      </trkpt>
      <trkpt lat="48.58457" lon="7.75754">
        <ele>144.2</ele>
        <time>2019-08-08T12:27:35Z</time>
      </trkpt>
      <trkpt lat="48.58454" lon="7.75755">
        <ele>144.2</ele>
        <time>2019-08-08T12:27:38Z</time>
      </trkpt>
      <trkpt lat="48.58453" lon="7.75763">
        <ele>142.6</ele>
        <time>2019-08-08T12:27:40Z</time>
      </trkpt>
      <trkpt lat="48.58451" lon="7.75767">
        <ele>141.9</ele>
        <time>2019-08-08T12:27:41Z</time>
      </trkpt>
      <trkpt lat="48.5845" lon="7.75771">
        <ele>141.2</ele>
        <time>2019-08-08T12:27:42Z</time>
      </trkpt>
      <trkpt lat="48.58448" lon="7.75775">
        <ele>140.6</ele>
        <time>2019-08-08T12:27:43Z</time>
      </trkpt>
      <trkpt lat="48.58447" lon="7.7578">
        <ele>139.6</ele>
        <time>2019-08-08T12:27:45Z</time>
      </trkpt>
      <trkpt lat="48.58444" lon="7.75786">
        <ele>138.6</ele>
        <time>2019-08-08T12:27:47Z</time>
      </trkpt>
      <trkpt lat="48.58442" lon="7.75792">
        <ele>137.5</ele>
        <time>2019-08-08T12:27:49Z</time>
      </trkpt>
      <trkpt lat="48.5844" lon="7.75797">
        <ele>136.5</ele>
        <time>2019-08-08T12:27:51Z</time>
      </trkpt>
      <trkpt lat="48.58437" lon="7.75801">
        <ele>136.4</ele>
        <time>2019-08-08T12:27:53Z</time>
      </trkpt>
      <trkpt lat="48.58435" lon="7.75805">
        <ele>136.4</ele>
        <time>2019-08-08T12:27:56Z</time>
      </trkpt>
      <trkpt lat="48.58431" lon="7.75806">
        <ele>136.4</ele>
        <time>2019-08-08T12:28:36Z</time>
      </trkpt>
      <trkpt lat="48.58429" lon="7.75809">
        <ele>136.4</ele>
        <time>2019-08-08T12:28:40Z</time>
      </trkpt>
      <trkpt lat="48.5843" lon="7.75815">
        <ele>136.4</ele>
        <time>2019-08-08T12:30:11Z</time>
      </trkpt>
      <trkpt lat="48.5843" lon="7.75821">
        <ele>136.3</ele>
        <time>2019-08-08T12:30:14Z</time>
      </trkpt>
      <trkpt lat="48.58427" lon="7.75825">
        <ele>136.3</ele>
        <time>2019-08-08T12:30:16Z</time>
      </trkpt>
      <trkpt lat="48.58424" lon="7.75827">
        <ele>136.3</ele>
        <time>2019-08-08T12:30:18Z</time>
      </trkpt>
      <trkpt lat="48.58423" lon="7.75831">
        <ele>136.3</ele>
        <time>2019-08-08T12:30:19Z</time>
      </trkpt>
      <trkpt lat="48.58423" lon="7.75836">
        <ele>136.2</ele>
        <time>2019-08-08T12:30:20Z</time>
      </trkpt>
      <trkpt lat="48.58421" lon="7.75842">
        <ele>136.2</ele>
        <time>2019-08-08T12:30:22Z</time>
      </trkpt>
      <trkpt lat="48.58421" lon="7.75847">
        <ele>136.2</ele>
        <time>2019-08-08T12:30:24Z</time>
      </trkpt>
      <trkpt lat="48.5842" lon="7.75851">
        <ele>136.1</ele>
        <time>2019-08-08T12:30:26Z</time>
      </trkpt>
      <trkpt lat="48.58418" lon="7.75855">
        <ele>136</ele>
        <time>2019-08-08T12:30:31Z</time>
      </trkpt>
      <trkpt lat="48.58415" lon="7.75857">
        <ele>136.1</ele>
        <time>2019-08-08T12:30:34Z</time>
      </trkpt>
      <trkpt lat="48.58413" lon="7.7586">
        <ele>136.1</ele>
        <time>2019-08-08T12:30:38Z</time>
      </trkpt>
      <trkpt lat="48.58409" lon="7.75867">
        <ele>137.9</ele>
        <time>2019-08-08T12:30:56Z</time>
      </trkpt>
      <trkpt lat="48.58408" lon="7.75872">
        <ele>137.9</ele>
        <time>2019-08-08T12:30:58Z</time>
      </trkpt>
      <trkpt lat="48.58406" lon="7.75882">
        <ele>138.7</ele>
        <time>2019-08-08T12:31:00Z</time>
      </trkpt>
      <trkpt lat="48.58405" lon="7.75887">
        <ele>139.1</ele>
        <time>2019-08-08T12:31:01Z</time>
      </trkpt>
      <trkpt lat="48.58402" lon="7.75894">
        <ele>140</ele>
        <time>2019-08-08T12:31:02Z</time>
      </trkpt>
      <trkpt lat="48.584" lon="7.75901">
        <ele>140.2</ele>
        <time>2019-08-08T12:31:03Z</time>
      </trkpt>
      <trkpt lat="48.58398" lon="7.75907">
        <ele>140.5</ele>
        <time>2019-08-08T12:31:04Z</time>
      </trkpt>
      <trkpt lat="48.58394" lon="7.75914">
        <ele>140.8</ele>
        <time>2019-08-08T12:31:05Z</time>
      </trkpt>
      <trkpt lat="48.58391" lon="7.75921">
        <ele>141.2</ele>
        <time>2019-08-08T12:31:06Z</time>
      </trkpt>
      <trkpt lat="48.58388" lon="7.75928">
        <ele>141.5</ele>
        <time>2019-08-08T12:31:07Z</time>
      </trkpt>
      <trkpt lat="48.58386" lon="7.75935">
        <ele>142</ele>
        <time>2019-08-08T12:31:08Z</time>
      </trkpt>
      <trkpt lat="48.58383" lon="7.75941">
        <ele>142.2</ele>
        <time>2019-08-08T12:31:09Z</time>
      </trkpt>
      <trkpt lat="48.58381" lon="7.75946">
        <ele>142.4</ele>
        <time>2019-08-08T12:31:10Z</time>
      </trkpt>
      <trkpt lat="48.58378" lon="7.75952">
        <ele>142.5</ele>
        <time>2019-08-08T12:31:11Z</time>
      </trkpt>
      <trkpt lat="48.58377" lon="7.75956">
        <ele>142.7</ele>
        <time>2019-08-08T12:31:12Z</time>
      </trkpt>
      <trkpt lat="48.58374" lon="7.7596">
        <ele>142.8</ele>
        <time>2019-08-08T12:31:13Z</time>
      </trkpt>
      <trkpt lat="48.58373" lon="7.75964">
        <ele>142.9</ele>
        <time>2019-08-08T12:31:14Z</time>
      </trkpt>
      <trkpt lat="48.58371" lon="7.75971">
        <ele>143</ele>
        <time>2019-08-08T12:31:16Z</time>
      </trkpt>
      <trkpt lat="48.58369" lon="7.75979">
        <ele>143.1</ele>
        <time>2019-08-08T12:31:18Z</time>
      </trkpt>
      <trkpt lat="48.58367" lon="7.75985">
        <ele>143.2</ele>
        <time>2019-08-08T12:31:19Z</time>
      </trkpt>
      <trkpt lat="48.58366" lon="7.75989">
        <ele>143.3</ele>
        <time>2019-08-08T12:31:20Z</time>
      </trkpt>
      <trkpt lat="48.58363" lon="7.75993">
        <ele>143.4</ele>
        <time>2019-08-08T12:31:21Z</time>
      </trkpt>
      <trkpt lat="48.58361" lon="7.75998">
        <ele>143.5</ele>
        <time>2019-08-08T12:31:22Z</time>
      </trkpt>
      <trkpt lat="48.5836" lon="7.76003">
        <ele>143.7</ele>
        <time>2019-08-08T12:31:23Z</time>
      </trkpt>
      <trkpt lat="48.5836" lon="7.76009">
        <ele>143.8</ele>
        <time>2019-08-08T12:31:24Z</time>
      </trkpt>
      <trkpt lat="48.58359" lon="7.76017">
        <ele>143.9</ele>
        <time>2019-08-08T12:31:25Z</time>
      </trkpt>
      <trkpt lat="48.58358" lon="7.76024">
        <ele>144.1</ele>
        <time>2019-08-08T12:31:26Z</time>
      </trkpt>
      <trkpt lat="48.58357" lon="7.76031">
        <ele>144.2</ele>
        <time>2019-08-08T12:31:27Z</time>
      </trkpt>
      <trkpt lat="48.58356" lon="7.76037">
        <ele>144.4</ele>
        <time>2019-08-08T12:31:28Z</time>
      </trkpt>
      <trkpt lat="48.58356" lon="7.76042">
        <ele>144.6</ele>
        <time>2019-08-08T12:31:29Z</time>
      </trkpt>
      <trkpt lat="48.58356" lon="7.76048">
        <ele>144.7</ele>
        <time>2019-08-08T12:31:30Z</time>
      </trkpt>
      <trkpt lat="48.58356" lon="7.76054">
        <ele>144.8</ele>
        <time>2019-08-08T12:31:31Z</time>
      </trkpt>
      <trkpt lat="48.58355" lon="7.76059">
        <ele>144.8</ele>
        <time>2019-08-08T12:31:32Z</time>
      </trkpt>
      <trkpt lat="48.58353" lon="7.76068">
        <ele>145</ele>
        <time>2019-08-08T12:31:34Z</time>
      </trkpt>
      <trkpt lat="48.5835" lon="7.76073">
        <ele>145.1</ele>
        <time>2019-08-08T12:31:35Z</time>
      </trkpt>
      <trkpt lat="48.58348" lon="7.76077">
        <ele>145.2</ele>
        <time>2019-08-08T12:31:36Z</time>
      </trkpt>
      <trkpt lat="48.58344" lon="7.76084">
        <ele>145.4</ele>
        <time>2019-08-08T12:31:38Z</time>
      </trkpt>
      <trkpt lat="48.58342" lon="7.76087">
        <ele>145.5</ele>
        <time>2019-08-08T12:31:39Z</time>
      </trkpt>
      <trkpt lat="48.58339" lon="7.76091">
        <ele>145.7</ele>
        <time>2019-08-08T12:31:41Z</time>
      </trkpt>
      <trkpt lat="48.58336" lon="7.76093">
        <ele>145.7</ele>
        <time>2019-08-08T12:31:43Z</time>
      </trkpt>
      <trkpt lat="48.58335" lon="7.761">
        <ele>145.7</ele>
        <time>2019-08-08T12:31:45Z</time>
      </trkpt>
      <trkpt lat="48.58333" lon="7.76104">
        <ele>145.7</ele>
        <time>2019-08-08T12:31:46Z</time>
      </trkpt>
      <trkpt lat="48.58331" lon="7.76109">
        <ele>145.8</ele>
        <time>2019-08-08T12:31:47Z</time>
      </trkpt>
      <trkpt lat="48.58329" lon="7.76113">
        <ele>145.8</ele>
        <time>2019-08-08T12:31:48Z</time>
      </trkpt>
      <trkpt lat="48.58327" lon="7.76118">
        <ele>145.6</ele>
        <time>2019-08-08T12:31:49Z</time>
      </trkpt>
      <trkpt lat="48.58326" lon="7.76123">
        <ele>145.4</ele>
        <time>2019-08-08T12:31:50Z</time>
      </trkpt>
      <trkpt lat="48.58324" lon="7.76127">
        <ele>145.3</ele>
        <time>2019-08-08T12:31:51Z</time>
      </trkpt>
      <trkpt lat="48.58322" lon="7.76131">
        <ele>145.3</ele>
        <time>2019-08-08T12:31:52Z</time>
      </trkpt>
      <trkpt lat="48.5832" lon="7.76137">
        <ele>145.1</ele>
        <time>2019-08-08T12:31:54Z</time>
      </trkpt>
      <trkpt lat="48.58317" lon="7.76144">
        <ele>145</ele>
        <time>2019-08-08T12:31:56Z</time>
      </trkpt>
      <trkpt lat="48.58317" lon="7.7615">
        <ele>144.8</ele>
        <time>2019-08-08T12:31:58Z</time>
      </trkpt>
      <trkpt lat="48.58317" lon="7.76159">
        <ele>144.8</ele>
        <time>2019-08-08T12:32:00Z</time>
      </trkpt>
      <trkpt lat="48.58317" lon="7.76164">
        <ele>144.7</ele>
        <time>2019-08-08T12:32:01Z</time>
      </trkpt>
      <trkpt lat="48.58316" lon="7.76169">
        <ele>144.7</ele>
        <time>2019-08-08T12:32:02Z</time>
      </trkpt>
      <trkpt lat="48.58318" lon="7.76178">
        <ele>144.7</ele>
        <time>2019-08-08T12:32:03Z</time>
      </trkpt>
      <trkpt lat="48.58318" lon="7.76183">
        <ele>144.7</ele>
        <time>2019-08-08T12:32:04Z</time>
      </trkpt>
      <trkpt lat="48.58317" lon="7.76187">
        <ele>144.6</ele>
        <time>2019-08-08T12:32:05Z</time>
      </trkpt>
      <trkpt lat="48.58316" lon="7.76193">
        <ele>144.6</ele>
        <time>2019-08-08T12:32:06Z</time>
      </trkpt>
      <trkpt lat="48.58314" lon="7.76197">
        <ele>144.6</ele>
        <time>2019-08-08T12:32:07Z</time>
      </trkpt>
      <trkpt lat="48.58313" lon="7.76202">
        <ele>144.6</ele>
        <time>2019-08-08T12:32:08Z</time>
      </trkpt>
      <trkpt lat="48.58312" lon="7.76207">
        <ele>144.6</ele>
        <time>2019-08-08T12:32:09Z</time>
      </trkpt>
      <trkpt lat="48.5831" lon="7.7621">
        <ele>144.6</ele>
        <time>2019-08-08T12:32:10Z</time>
      </trkpt>
      <trkpt lat="48.58308" lon="7.76215">
        <ele>144.6</ele>
        <time>2019-08-08T12:32:11Z</time>
      </trkpt>
      <trkpt lat="48.58306" lon="7.76221">
        <ele>144.6</ele>
        <time>2019-08-08T12:32:12Z</time>
      </trkpt>
      <trkpt lat="48.58304" lon="7.76224">
        <ele>144.5</ele>
        <time>2019-08-08T12:32:13Z</time>
      </trkpt>
      <trkpt lat="48.58302" lon="7.76229">
        <ele>144.5</ele>
        <time>2019-08-08T12:32:14Z</time>
      </trkpt>
      <trkpt lat="48.583" lon="7.76234">
        <ele>144.5</ele>
        <time>2019-08-08T12:32:15Z</time>
      </trkpt>
      <trkpt lat="48.58298" lon="7.7624">
        <ele>144.5</ele>
        <time>2019-08-08T12:32:16Z</time>
      </trkpt>
      <trkpt lat="48.58296" lon="7.76247">
        <ele>144.5</ele>
        <time>2019-08-08T12:32:17Z</time>
      </trkpt>
      <trkpt lat="48.58294" lon="7.76251">
        <ele>144.5</ele>
        <time>2019-08-08T12:32:18Z</time>
      </trkpt>
      <trkpt lat="48.58294" lon="7.76255">
        <ele>144.5</ele>
        <time>2019-08-08T12:32:19Z</time>
      </trkpt>
      <trkpt lat="48.58293" lon="7.76259">
        <ele>144.5</ele>
        <time>2019-08-08T12:32:20Z</time>
      </trkpt>
      <trkpt lat="48.58293" lon="7.76263">
        <ele>144.5</ele>
        <time>2019-08-08T12:32:21Z</time>
      </trkpt>
      <trkpt lat="48.58291" lon="7.76269">
        <ele>144.4</ele>
        <time>2019-08-08T12:32:22Z</time>
      </trkpt>
      <trkpt lat="48.58293" lon="7.76277">
        <ele>144.4</ele>
        <time>2019-08-08T12:32:23Z</time>
      </trkpt>
      <trkpt lat="48.58295" lon="7.76285">
        <ele>144.4</ele>
        <time>2019-08-08T12:32:24Z</time>
      </trkpt>
      <trkpt lat="48.58294" lon="7.76295">
        <ele>144.4</ele>
        <time>2019-08-08T12:32:25Z</time>
      </trkpt>
      <trkpt lat="48.58295" lon="7.76302">
        <ele>144.4</ele>
        <time>2019-08-08T12:32:26Z</time>
      </trkpt>
      <trkpt lat="48.58294" lon="7.76309">
        <ele>144.3</ele>
        <time>2019-08-08T12:32:27Z</time>
      </trkpt>
      <trkpt lat="48.58294" lon="7.76313">
        <ele>144.3</ele>
        <time>2019-08-08T12:32:28Z</time>
      </trkpt>
      <trkpt lat="48.58294" lon="7.76318">
        <ele>144.3</ele>
        <time>2019-08-08T12:32:29Z</time>
      </trkpt>
      <trkpt lat="48.58292" lon="7.76323">
        <ele>144.3</ele>
        <time>2019-08-08T12:32:30Z</time>
      </trkpt>
      <trkpt lat="48.5829" lon="7.76327">
        <ele>144.3</ele>
        <time>2019-08-08T12:32:31Z</time>
      </trkpt>
      <trkpt lat="48.5829" lon="7.76332">
        <ele>144.3</ele>
        <time>2019-08-08T12:32:32Z</time>
      </trkpt>
      <trkpt lat="48.58287" lon="7.76339">
        <ele>144.2</ele>
        <time>2019-08-08T12:32:34Z</time>
      </trkpt>
      <trkpt lat="48.58285" lon="7.76342">
        <ele>144.2</ele>
        <time>2019-08-08T12:32:35Z</time>
      </trkpt>
      <trkpt lat="48.58283" lon="7.76346">
        <ele>144.1</ele>
        <time>2019-08-08T12:32:36Z</time>
      </trkpt>
      <trkpt lat="48.58278" lon="7.7635">
        <ele>144.1</ele>
        <time>2019-08-08T12:32:37Z</time>
      </trkpt>
      <trkpt lat="48.58278" lon="7.76357">
        <ele>143.6</ele>
        <time>2019-08-08T12:32:39Z</time>
      </trkpt>
      <trkpt lat="48.58278" lon="7.76363">
        <ele>143.5</ele>
        <time>2019-08-08T12:32:40Z</time>
      </trkpt>
      <trkpt lat="48.58277" lon="7.76367">
        <ele>143.4</ele>
        <time>2019-08-08T12:32:41Z</time>
      </trkpt>
      <trkpt lat="48.58275" lon="7.76373">
        <ele>143.3</ele>
        <time>2019-08-08T12:32:42Z</time>
      </trkpt>
      <trkpt lat="48.58274" lon="7.76378">
        <ele>143.2</ele>
        <time>2019-08-08T12:32:43Z</time>
      </trkpt>
      <trkpt lat="48.58272" lon="7.76386">
        <ele>143.1</ele>
        <time>2019-08-08T12:32:45Z</time>
      </trkpt>
      <trkpt lat="48.5827" lon="7.76389">
        <ele>143.1</ele>
        <time>2019-08-08T12:32:46Z</time>
      </trkpt>
      <trkpt lat="48.58268" lon="7.76394">
        <ele>143.1</ele>
        <time>2019-08-08T12:32:47Z</time>
      </trkpt>
      <trkpt lat="48.58267" lon="7.76398">
        <ele>143.1</ele>
        <time>2019-08-08T12:32:48Z</time>
      </trkpt>
      <trkpt lat="48.58265" lon="7.76402">
        <ele>143</ele>
        <time>2019-08-08T12:32:49Z</time>
      </trkpt>
      <trkpt lat="48.58263" lon="7.76407">
        <ele>143</ele>
        <time>2019-08-08T12:32:50Z</time>
      </trkpt>
      <trkpt lat="48.58261" lon="7.76414">
        <ele>143</ele>
        <time>2019-08-08T12:32:51Z</time>
      </trkpt>
      <trkpt lat="48.58258" lon="7.76419">
        <ele>143</ele>
        <time>2019-08-08T12:32:52Z</time>
      </trkpt>
      <trkpt lat="48.58255" lon="7.76426">
        <ele>143</ele>
        <time>2019-08-08T12:32:53Z</time>
      </trkpt>
      <trkpt lat="48.58251" lon="7.76432">
        <ele>143</ele>
        <time>2019-08-08T12:32:54Z</time>
      </trkpt>
      <trkpt lat="48.58249" lon="7.76438">
        <ele>143</ele>
        <time>2019-08-08T12:32:55Z</time>
      </trkpt>
      <trkpt lat="48.58247" lon="7.76445">
        <ele>143</ele>
        <time>2019-08-08T12:32:56Z</time>
      </trkpt>
      <trkpt lat="48.58245" lon="7.76452">
        <ele>143</ele>
        <time>2019-08-08T12:32:57Z</time>
      </trkpt>
      <trkpt lat="48.58244" lon="7.76457">
        <ele>143</ele>
        <time>2019-08-08T12:32:58Z</time>
      </trkpt>
      <trkpt lat="48.58242" lon="7.76461">
        <ele>143</ele>
        <time>2019-08-08T12:32:59Z</time>
      </trkpt>
      <trkpt lat="48.58241" lon="7.76468">
        <ele>143</ele>
        <time>2019-08-08T12:33:01Z</time>
      </trkpt>
      <trkpt lat="48.5824" lon="7.76472">
        <ele>143</ele>
        <time>2019-08-08T12:33:02Z</time>
      </trkpt>
      <trkpt lat="48.58239" lon="7.76478">
        <ele>143</ele>
        <time>2019-08-08T12:33:04Z</time>
      </trkpt>
      <trkpt lat="48.58238" lon="7.76482">
        <ele>143</ele>
        <time>2019-08-08T12:33:05Z</time>
      </trkpt>
      <trkpt lat="48.58237" lon="7.76489">
        <ele>143</ele>
        <time>2019-08-08T12:33:07Z</time>
      </trkpt>
      <trkpt lat="48.58236" lon="7.76494">
        <ele>143</ele>
        <time>2019-08-08T12:33:08Z</time>
      </trkpt>
      <trkpt lat="48.58233" lon="7.765">
        <ele>143</ele>
        <time>2019-08-08T12:33:09Z</time>
      </trkpt>
      <trkpt lat="48.58231" lon="7.76505">
        <ele>143</ele>
        <time>2019-08-08T12:33:10Z</time>
      </trkpt>
      <trkpt lat="48.58229" lon="7.76508">
        <ele>143.1</ele>
        <time>2019-08-08T12:33:11Z</time>
      </trkpt>
      <trkpt lat="48.58229" lon="7.76512">
        <ele>143.1</ele>
        <time>2019-08-08T12:33:12Z</time>
      </trkpt>
      <trkpt lat="48.58228" lon="7.76518">
        <ele>143.1</ele>
        <time>2019-08-08T12:33:13Z</time>
      </trkpt>
      <trkpt lat="48.58225" lon="7.76522">
        <ele>143</ele>
        <time>2019-08-08T12:33:14Z</time>
      </trkpt>
      <trkpt lat="48.58224" lon="7.76529">
        <ele>143</ele>
        <time>2019-08-08T12:33:15Z</time>
      </trkpt>
      <trkpt lat="48.58221" lon="7.76535">
        <ele>143</ele>
        <time>2019-08-08T12:33:16Z</time>
      </trkpt>
      <trkpt lat="48.58218" lon="7.7654">
        <ele>142.9</ele>
        <time>2019-08-08T12:33:17Z</time>
      </trkpt>
      <trkpt lat="48.58215" lon="7.76546">
        <ele>142.9</ele>
        <time>2019-08-08T12:33:18Z</time>
      </trkpt>
      <trkpt lat="48.58212" lon="7.76551">
        <ele>142.9</ele>
        <time>2019-08-08T12:33:19Z</time>
      </trkpt>
      <trkpt lat="48.58211" lon="7.76555">
        <ele>142.9</ele>
        <time>2019-08-08T12:33:20Z</time>
      </trkpt>
      <trkpt lat="48.5821" lon="7.7656">
        <ele>142.9</ele>
        <time>2019-08-08T12:33:21Z</time>
      </trkpt>
      <trkpt lat="48.58208" lon="7.76564">
        <ele>142.8</ele>
        <time>2019-08-08T12:33:22Z</time>
      </trkpt>
      <trkpt lat="48.58207" lon="7.76568">
        <ele>142.8</ele>
        <time>2019-08-08T12:33:23Z</time>
      </trkpt>
      <trkpt lat="48.58206" lon="7.76572">
        <ele>142.8</ele>
        <time>2019-08-08T12:33:24Z</time>
      </trkpt>
      <trkpt lat="48.58205" lon="7.76577">
        <ele>142.8</ele>
        <time>2019-08-08T12:33:25Z</time>
      </trkpt>
      <trkpt lat="48.58204" lon="7.76581">
        <ele>143</ele>
        <time>2019-08-08T12:33:26Z</time>
      </trkpt>
      <trkpt lat="48.58202" lon="7.76587">
        <ele>143</ele>
        <time>2019-08-08T12:33:27Z</time>
      </trkpt>
      <trkpt lat="48.582" lon="7.76593">
        <ele>143.1</ele>
        <time>2019-08-08T12:33:28Z</time>
      </trkpt>
      <trkpt lat="48.58199" lon="7.76598">
        <ele>143.1</ele>
        <time>2019-08-08T12:33:29Z</time>
      </trkpt>
      <trkpt lat="48.58197" lon="7.76604">
        <ele>143.2</ele>
        <time>2019-08-08T12:33:30Z</time>
      </trkpt>
      <trkpt lat="48.58196" lon="7.76612">
        <ele>143.1</ele>
        <time>2019-08-08T12:33:31Z</time>
      </trkpt>
      <trkpt lat="48.58194" lon="7.7662">
        <ele>143.1</ele>
        <time>2019-08-08T12:33:32Z</time>
      </trkpt>
      <trkpt lat="48.58192" lon="7.76628">
        <ele>142.9</ele>
        <time>2019-08-08T12:33:34Z</time>
      </trkpt>
      <trkpt lat="48.58191" lon="7.76633">
        <ele>142.9</ele>
        <time>2019-08-08T12:33:35Z</time>
      </trkpt>
      <trkpt lat="48.5819" lon="7.76637">
        <ele>142.8</ele>
        <time>2019-08-08T12:33:36Z</time>
      </trkpt>
      <trkpt lat="48.58189" lon="7.76641">
        <ele>142.8</ele>
        <time>2019-08-08T12:33:37Z</time>
      </trkpt>
      <trkpt lat="48.5819" lon="7.76647">
        <ele>142.6</ele>
        <time>2019-08-08T12:33:38Z</time>
      </trkpt>
      <trkpt lat="48.58188" lon="7.76654">
        <ele>142.5</ele>
        <time>2019-08-08T12:33:39Z</time>
      </trkpt>
      <trkpt lat="48.58188" lon="7.76661">
        <ele>142.3</ele>
        <time>2019-08-08T12:33:40Z</time>
      </trkpt>
      <trkpt lat="48.58187" lon="7.76666">
        <ele>142.2</ele>
        <time>2019-08-08T12:33:41Z</time>
      </trkpt>
      <trkpt lat="48.58185" lon="7.7667">
        <ele>142.1</ele>
        <time>2019-08-08T12:33:42Z</time>
      </trkpt>
      <trkpt lat="48.58183" lon="7.76673">
        <ele>142</ele>
        <time>2019-08-08T12:33:43Z</time>
      </trkpt>
      <trkpt lat="48.58181" lon="7.76677">
        <ele>142</ele>
        <time>2019-08-08T12:33:44Z</time>
      </trkpt>
      <trkpt lat="48.58179" lon="7.76681">
        <ele>142</ele>
        <time>2019-08-08T12:33:45Z</time>
      </trkpt>
      <trkpt lat="48.58177" lon="7.76686">
        <ele>142</ele>
        <time>2019-08-08T12:33:46Z</time>
      </trkpt>
      <trkpt lat="48.58175" lon="7.76691">
        <ele>141.9</ele>
        <time>2019-08-08T12:33:47Z</time>
      </trkpt>
      <trkpt lat="48.58172" lon="7.76697">
        <ele>141.7</ele>
        <time>2019-08-08T12:33:49Z</time>
      </trkpt>
      <trkpt lat="48.58169" lon="7.767">
        <ele>141.6</ele>
        <time>2019-08-08T12:33:50Z</time>
      </trkpt>
      <trkpt lat="48.58167" lon="7.76703">
        <ele>141.5</ele>
        <time>2019-08-08T12:33:51Z</time>
      </trkpt>
      <trkpt lat="48.58166" lon="7.76707">
        <ele>141.4</ele>
        <time>2019-08-08T12:33:52Z</time>
      </trkpt>
      <trkpt lat="48.58165" lon="7.76712">
        <ele>141.3</ele>
        <time>2019-08-08T12:33:53Z</time>
      </trkpt>
      <trkpt lat="48.58164" lon="7.76716">
        <ele>141.2</ele>
        <time>2019-08-08T12:33:54Z</time>
      </trkpt>
      <trkpt lat="48.58162" lon="7.76721">
        <ele>141</ele>
        <time>2019-08-08T12:33:55Z</time>
      </trkpt>
      <trkpt lat="48.58161" lon="7.76726">
        <ele>140.9</ele>
        <time>2019-08-08T12:33:56Z</time>
      </trkpt>
      <trkpt lat="48.58159" lon="7.76732">
        <ele>140.8</ele>
        <time>2019-08-08T12:33:57Z</time>
      </trkpt>
      <trkpt lat="48.58157" lon="7.76736">
        <ele>140.7</ele>
        <time>2019-08-08T12:33:58Z</time>
      </trkpt>
      <trkpt lat="48.58156" lon="7.76741">
        <ele>140.6</ele>
        <time>2019-08-08T12:33:59Z</time>
      </trkpt>
      <trkpt lat="48.58156" lon="7.76746">
        <ele>140.5</ele>
        <time>2019-08-08T12:34:00Z</time>
      </trkpt>
      <trkpt lat="48.58155" lon="7.76751">
        <ele>140.5</ele>
        <time>2019-08-08T12:34:01Z</time>
      </trkpt>
      <trkpt lat="48.58154" lon="7.76756">
        <ele>140.4</ele>
        <time>2019-08-08T12:34:02Z</time>
      </trkpt>
      <trkpt lat="48.58153" lon="7.76761">
        <ele>140.3</ele>
        <time>2019-08-08T12:34:03Z</time>
      </trkpt>
      <trkpt lat="48.58153" lon="7.76766">
        <ele>140.2</ele>
        <time>2019-08-08T12:34:04Z</time>
      </trkpt>
      <trkpt lat="48.58151" lon="7.76772">
        <ele>140.2</ele>
        <time>2019-08-08T12:34:05Z</time>
      </trkpt>
      <trkpt lat="48.58148" lon="7.7678">
        <ele>140.1</ele>
        <time>2019-08-08T12:34:06Z</time>
      </trkpt>
      <trkpt lat="48.58143" lon="7.76783">
        <ele>140.1</ele>
        <time>2019-08-08T12:34:07Z</time>
      </trkpt>
      <trkpt lat="48.58142" lon="7.7679">
        <ele>140.1</ele>
        <time>2019-08-08T12:34:08Z</time>
      </trkpt>
      <trkpt lat="48.58142" lon="7.76796">
        <ele>140.1</ele>
        <time>2019-08-08T12:34:09Z</time>
      </trkpt>
      <trkpt lat="48.58141" lon="7.76802">
        <ele>140.1</ele>
        <time>2019-08-08T12:34:10Z</time>
      </trkpt>
      <trkpt lat="48.58141" lon="7.76809">
        <ele>140.1</ele>
        <time>2019-08-08T12:34:11Z</time>
      </trkpt>
      <trkpt lat="48.5814" lon="7.76816">
        <ele>140</ele>
        <time>2019-08-08T12:34:12Z</time>
      </trkpt>
      <trkpt lat="48.58139" lon="7.76822">
        <ele>140</ele>
        <time>2019-08-08T12:34:13Z</time>
      </trkpt>
      <trkpt lat="48.58138" lon="7.76827">
        <ele>140</ele>
        <time>2019-08-08T12:34:14Z</time>
      </trkpt>
      <trkpt lat="48.58137" lon="7.76834">
        <ele>140</ele>
        <time>2019-08-08T12:34:15Z</time>
      </trkpt>
      <trkpt lat="48.58137" lon="7.76842">
        <ele>140</ele>
        <time>2019-08-08T12:34:17Z</time>
      </trkpt>
      <trkpt lat="48.58137" lon="7.76849">
        <ele>140</ele>
        <time>2019-08-08T12:34:18Z</time>
      </trkpt>
      <trkpt lat="48.58136" lon="7.76854">
        <ele>140</ele>
        <time>2019-08-08T12:34:19Z</time>
      </trkpt>
      <trkpt lat="48.58135" lon="7.76858">
        <ele>140</ele>
        <time>2019-08-08T12:34:20Z</time>
      </trkpt>
      <trkpt lat="48.58133" lon="7.76865">
        <ele>140</ele>
        <time>2019-08-08T12:34:22Z</time>
      </trkpt>
      <trkpt lat="48.58133" lon="7.76872">
        <ele>140</ele>
        <time>2019-08-08T12:34:23Z</time>
      </trkpt>
      <trkpt lat="48.58133" lon="7.7688">
        <ele>140</ele>
        <time>2019-08-08T12:34:25Z</time>
      </trkpt>
      <trkpt lat="48.58134" lon="7.76887">
        <ele>139.9</ele>
        <time>2019-08-08T12:34:27Z</time>
      </trkpt>
      <trkpt lat="48.58133" lon="7.76893">
        <ele>139.9</ele>
        <time>2019-08-08T12:34:28Z</time>
      </trkpt>
      <trkpt lat="48.58131" lon="7.76898">
        <ele>139.9</ele>
        <time>2019-08-08T12:34:30Z</time>
      </trkpt>
      <trkpt lat="48.58129" lon="7.76902">
        <ele>139.9</ele>
        <time>2019-08-08T12:34:31Z</time>
      </trkpt>
      <trkpt lat="48.58126" lon="7.76907">
        <ele>139.9</ele>
        <time>2019-08-08T12:34:33Z</time>
      </trkpt>
      <trkpt lat="48.58123" lon="7.76913">
        <ele>139.9</ele>
        <time>2019-08-08T12:34:35Z</time>
      </trkpt>
      <trkpt lat="48.5812" lon="7.76918">
        <ele>140</ele>
        <time>2019-08-08T12:34:37Z</time>
      </trkpt>
      <trkpt lat="48.58118" lon="7.76923">
        <ele>140.2</ele>
        <time>2019-08-08T12:34:38Z</time>
      </trkpt>
      <trkpt lat="48.58117" lon="7.7693">
        <ele>140.3</ele>
        <time>2019-08-08T12:34:39Z</time>
      </trkpt>
      <trkpt lat="48.58115" lon="7.76935">
        <ele>140.5</ele>
        <time>2019-08-08T12:34:40Z</time>
      </trkpt>
      <trkpt lat="48.58114" lon="7.76939">
        <ele>140.6</ele>
        <time>2019-08-08T12:34:41Z</time>
      </trkpt>
      <trkpt lat="48.58113" lon="7.76943">
        <ele>140.8</ele>
        <time>2019-08-08T12:34:42Z</time>
      </trkpt>
      <trkpt lat="48.58111" lon="7.7695">
        <ele>141</ele>
        <time>2019-08-08T12:34:44Z</time>
      </trkpt>
      <trkpt lat="48.5811" lon="7.76961">
        <ele>141.2</ele>
        <time>2019-08-08T12:34:47Z</time>
      </trkpt>
      <trkpt lat="48.58109" lon="7.76966">
        <ele>141.3</ele>
        <time>2019-08-08T12:34:50Z</time>
      </trkpt>
      <trkpt lat="48.58108" lon="7.76971">
        <ele>141.4</ele>
        <time>2019-08-08T12:34:55Z</time>
      </trkpt>
      <trkpt lat="48.58107" lon="7.76976">
        <ele>141.5</ele>
        <time>2019-08-08T12:34:58Z</time>
      </trkpt>
      <trkpt lat="48.58106" lon="7.76982">
        <ele>141.6</ele>
        <time>2019-08-08T12:36:02Z</time>
      </trkpt>
      <trkpt lat="48.58105" lon="7.76987">
        <ele>141.7</ele>
        <time>2019-08-08T12:36:03Z</time>
      </trkpt>
      <trkpt lat="48.58103" lon="7.76995">
        <ele>141.8</ele>
        <time>2019-08-08T12:36:05Z</time>
      </trkpt>
      <trkpt lat="48.58099" lon="7.77002">
        <ele>141.8</ele>
        <time>2019-08-08T12:36:07Z</time>
      </trkpt>
      <trkpt lat="48.58097" lon="7.77006">
        <ele>141.8</ele>
        <time>2019-08-08T12:36:08Z</time>
      </trkpt>
      <trkpt lat="48.58096" lon="7.77009">
        <ele>141.9</ele>
        <time>2019-08-08T12:36:09Z</time>
      </trkpt>
      <trkpt lat="48.58092" lon="7.77013">
        <ele>141.9</ele>
        <time>2019-08-08T12:36:11Z</time>
      </trkpt>
      <trkpt lat="48.58089" lon="7.7702">
        <ele>142</ele>
        <time>2019-08-08T12:36:13Z</time>
      </trkpt>
      <trkpt lat="48.58086" lon="7.77026">
        <ele>142</ele>
        <time>2019-08-08T12:36:14Z</time>
      </trkpt>
      <trkpt lat="48.58084" lon="7.7703">
        <ele>142</ele>
        <time>2019-08-08T12:36:15Z</time>
      </trkpt>
      <trkpt lat="48.58082" lon="7.77036">
        <ele>142.1</ele>
        <time>2019-08-08T12:36:16Z</time>
      </trkpt>
      <trkpt lat="48.58079" lon="7.77043">
        <ele>142.1</ele>
        <time>2019-08-08T12:36:17Z</time>
      </trkpt>
      <trkpt lat="48.58077" lon="7.77049">
        <ele>142.2</ele>
        <time>2019-08-08T12:36:18Z</time>
      </trkpt>
      <trkpt lat="48.58075" lon="7.77056">
        <ele>142.2</ele>
        <time>2019-08-08T12:36:19Z</time>
      </trkpt>
      <trkpt lat="48.58073" lon="7.77062">
        <ele>142.2</ele>
        <time>2019-08-08T12:36:20Z</time>
      </trkpt>
      <trkpt lat="48.58072" lon="7.77067">
        <ele>142.3</ele>
        <time>2019-08-08T12:36:21Z</time>
      </trkpt>
      <trkpt lat="48.5807" lon="7.77073">
        <ele>142.4</ele>
        <time>2019-08-08T12:36:22Z</time>
      </trkpt>
      <trkpt lat="48.5807" lon="7.77078">
        <ele>142.4</ele>
        <time>2019-08-08T12:36:23Z</time>
      </trkpt>
      <trkpt lat="48.58069" lon="7.77084">
        <ele>142.5</ele>
        <time>2019-08-08T12:36:25Z</time>
      </trkpt>
      <trkpt lat="48.5807" lon="7.77088">
        <ele>142.5</ele>
        <time>2019-08-08T12:36:26Z</time>
      </trkpt>
      <trkpt lat="48.58069" lon="7.77093">
        <ele>142.5</ele>
        <time>2019-08-08T12:36:27Z</time>
      </trkpt>
      <trkpt lat="48.58069" lon="7.771">
        <ele>142.6</ele>
        <time>2019-08-08T12:36:29Z</time>
      </trkpt>
      <trkpt lat="48.58068" lon="7.77106">
        <ele>142.6</ele>
        <time>2019-08-08T12:36:30Z</time>
      </trkpt>
      <trkpt lat="48.58066" lon="7.77111">
        <ele>142.7</ele>
        <time>2019-08-08T12:36:31Z</time>
      </trkpt>
      <trkpt lat="48.58065" lon="7.77114">
        <ele>142.7</ele>
        <time>2019-08-08T12:36:32Z</time>
      </trkpt>
      <trkpt lat="48.58064" lon="7.77118">
        <ele>142.7</ele>
        <time>2019-08-08T12:36:33Z</time>
      </trkpt>
      <trkpt lat="48.58063" lon="7.77124">
        <ele>142.7</ele>
        <time>2019-08-08T12:36:34Z</time>
      </trkpt>
      <trkpt lat="48.58062" lon="7.7713">
        <ele>142.7</ele>
        <time>2019-08-08T12:36:35Z</time>
      </trkpt>
      <trkpt lat="48.58062" lon="7.77137">
        <ele>142.8</ele>
        <time>2019-08-08T12:36:36Z</time>
      </trkpt>
      <trkpt lat="48.58063" lon="7.77143">
        <ele>142.8</ele>
        <time>2019-08-08T12:36:37Z</time>
      </trkpt>
      <trkpt lat="48.58063" lon="7.77147">
        <ele>142.8</ele>
        <time>2019-08-08T12:36:38Z</time>
      </trkpt>
      <trkpt lat="48.58063" lon="7.77154">
        <ele>142.8</ele>
        <time>2019-08-08T12:36:39Z</time>
      </trkpt>
      <trkpt lat="48.58062" lon="7.77159">
        <ele>142.8</ele>
        <time>2019-08-08T12:36:40Z</time>
      </trkpt>
      <trkpt lat="48.58062" lon="7.77164">
        <ele>142.8</ele>
        <time>2019-08-08T12:36:41Z</time>
      </trkpt>
      <trkpt lat="48.58061" lon="7.77169">
        <ele>142.9</ele>
        <time>2019-08-08T12:36:42Z</time>
      </trkpt>
      <trkpt lat="48.5806" lon="7.77175">
        <ele>142.9</ele>
        <time>2019-08-08T12:36:43Z</time>
      </trkpt>
      <trkpt lat="48.58059" lon="7.77179">
        <ele>142.9</ele>
        <time>2019-08-08T12:36:44Z</time>
      </trkpt>
      <trkpt lat="48.58057" lon="7.77188">
        <ele>143</ele>
        <time>2019-08-08T12:36:46Z</time>
      </trkpt>
      <trkpt lat="48.58057" lon="7.77193">
        <ele>143</ele>
        <time>2019-08-08T12:36:47Z</time>
      </trkpt>
      <trkpt lat="48.58056" lon="7.77199">
        <ele>143.1</ele>
        <time>2019-08-08T12:36:48Z</time>
      </trkpt>
      <trkpt lat="48.58056" lon="7.77205">
        <ele>143.1</ele>
        <time>2019-08-08T12:36:49Z</time>
      </trkpt>
      <trkpt lat="48.58054" lon="7.77212">
        <ele>143.1</ele>
        <time>2019-08-08T12:36:50Z</time>
      </trkpt>
      <trkpt lat="48.58054" lon="7.77218">
        <ele>143.1</ele>
        <time>2019-08-08T12:36:51Z</time>
      </trkpt>
      <trkpt lat="48.58055" lon="7.77223">
        <ele>143.1</ele>
        <time>2019-08-08T12:36:52Z</time>
      </trkpt>
      <trkpt lat="48.58055" lon="7.77228">
        <ele>143.1</ele>
        <time>2019-08-08T12:36:53Z</time>
      </trkpt>
      <trkpt lat="48.58054" lon="7.77234">
        <ele>143.1</ele>
        <time>2019-08-08T12:36:54Z</time>
      </trkpt>
      <trkpt lat="48.58053" lon="7.7724">
        <ele>143.1</ele>
        <time>2019-08-08T12:36:55Z</time>
      </trkpt>
      <trkpt lat="48.58053" lon="7.77247">
        <ele>143</ele>
        <time>2019-08-08T12:36:56Z</time>
      </trkpt>
      <trkpt lat="48.58052" lon="7.77254">
        <ele>143</ele>
        <time>2019-08-08T12:36:57Z</time>
      </trkpt>
      <trkpt lat="48.58051" lon="7.7726">
        <ele>143</ele>
        <time>2019-08-08T12:36:58Z</time>
      </trkpt>
      <trkpt lat="48.5805" lon="7.77268">
        <ele>143</ele>
        <time>2019-08-08T12:36:59Z</time>
      </trkpt>
      <trkpt lat="48.58049" lon="7.77275">
        <ele>142.9</ele>
        <time>2019-08-08T12:37:00Z</time>
      </trkpt>
      <trkpt lat="48.5805" lon="7.77282">
        <ele>142.9</ele>
        <time>2019-08-08T12:37:01Z</time>
      </trkpt>
      <trkpt lat="48.58051" lon="7.77287">
        <ele>142.9</ele>
        <time>2019-08-08T12:37:02Z</time>
      </trkpt>
      <trkpt lat="48.58054" lon="7.77293">
        <ele>142.9</ele>
        <time>2019-08-08T12:37:03Z</time>
      </trkpt>
      <trkpt lat="48.58055" lon="7.77299">
        <ele>142.8</ele>
        <time>2019-08-08T12:37:04Z</time>
      </trkpt>
      <trkpt lat="48.58054" lon="7.77304">
        <ele>142.8</ele>
        <time>2019-08-08T12:37:05Z</time>
      </trkpt>
      <trkpt lat="48.58055" lon="7.77309">
        <ele>142.8</ele>
        <time>2019-08-08T12:37:06Z</time>
      </trkpt>
      <trkpt lat="48.58054" lon="7.77315">
        <ele>142.8</ele>
        <time>2019-08-08T12:37:07Z</time>
      </trkpt>
      <trkpt lat="48.58054" lon="7.77321">
        <ele>142.8</ele>
        <time>2019-08-08T12:37:08Z</time>
      </trkpt>
      <trkpt lat="48.58054" lon="7.77326">
        <ele>142.7</ele>
        <time>2019-08-08T12:37:09Z</time>
      </trkpt>
      <trkpt lat="48.58053" lon="7.77333">
        <ele>142.7</ele>
        <time>2019-08-08T12:37:11Z</time>
      </trkpt>
      <trkpt lat="48.58051" lon="7.77337">
        <ele>142.7</ele>
        <time>2019-08-08T12:37:13Z</time>
      </trkpt>
      <trkpt lat="48.5805" lon="7.77343">
        <ele>142.6</ele>
        <time>2019-08-08T12:37:14Z</time>
      </trkpt>
      <trkpt lat="48.5805" lon="7.77352">
        <ele>142.6</ele>
        <time>2019-08-08T12:37:16Z</time>
      </trkpt>
      <trkpt lat="48.5805" lon="7.77356">
        <ele>142.6</ele>
        <time>2019-08-08T12:37:17Z</time>
      </trkpt>
      <trkpt lat="48.58051" lon="7.77363">
        <ele>142.5</ele>
        <time>2019-08-08T12:37:18Z</time>
      </trkpt>
      <trkpt lat="48.58054" lon="7.77365">
        <ele>142.5</ele>
        <time>2019-08-08T12:37:19Z</time>
      </trkpt>
      <trkpt lat="48.58051" lon="7.7737">
        <ele>142.4</ele>
        <time>2019-08-08T12:37:20Z</time>
      </trkpt>
      <trkpt lat="48.58052" lon="7.77374">
        <ele>142.4</ele>
        <time>2019-08-08T12:37:21Z</time>
      </trkpt>
      <trkpt lat="48.58051" lon="7.7738">
        <ele>142.4</ele>
        <time>2019-08-08T12:37:22Z</time>
      </trkpt>
      <trkpt lat="48.58048" lon="7.77385">
        <ele>142.4</ele>
        <time>2019-08-08T12:37:24Z</time>
      </trkpt>
      <trkpt lat="48.58047" lon="7.77393">
        <ele>142.3</ele>
        <time>2019-08-08T12:37:25Z</time>
      </trkpt>
      <trkpt lat="48.58044" lon="7.774">
        <ele>142.3</ele>
        <time>2019-08-08T12:37:26Z</time>
      </trkpt>
      <trkpt lat="48.58042" lon="7.77407">
        <ele>142.2</ele>
        <time>2019-08-08T12:37:27Z</time>
      </trkpt>
      <trkpt lat="48.5804" lon="7.7741">
        <ele>142.2</ele>
        <time>2019-08-08T12:37:28Z</time>
      </trkpt>
      <trkpt lat="48.58037" lon="7.77416">
        <ele>142.2</ele>
        <time>2019-08-08T12:37:29Z</time>
      </trkpt>
      <trkpt lat="48.58034" lon="7.77421">
        <ele>142.2</ele>
        <time>2019-08-08T12:37:30Z</time>
      </trkpt>
      <trkpt lat="48.58033" lon="7.77427">
        <ele>142.1</ele>
        <time>2019-08-08T12:37:31Z</time>
      </trkpt>
      <trkpt lat="48.58031" lon="7.77432">
        <ele>142.1</ele>
        <time>2019-08-08T12:37:32Z</time>
      </trkpt>
      <trkpt lat="48.5803" lon="7.77437">
        <ele>142.1</ele>
        <time>2019-08-08T12:37:33Z</time>
      </trkpt>
      <trkpt lat="48.58029" lon="7.77441">
        <ele>142.1</ele>
        <time>2019-08-08T12:37:34Z</time>
      </trkpt>
      <trkpt lat="48.58027" lon="7.77447">
        <ele>142</ele>
        <time>2019-08-08T12:37:35Z</time>
      </trkpt>
      <trkpt lat="48.58026" lon="7.77452">
        <ele>142</ele>
        <time>2019-08-08T12:37:36Z</time>
      </trkpt>
      <trkpt lat="48.58026" lon="7.77461">
        <ele>142</ele>
        <time>2019-08-08T12:37:37Z</time>
      </trkpt>
      <trkpt lat="48.58027" lon="7.77467">
        <ele>142</ele>
        <time>2019-08-08T12:37:38Z</time>
      </trkpt>
      <trkpt lat="48.58026" lon="7.77474">
        <ele>142</ele>
        <time>2019-08-08T12:37:39Z</time>
      </trkpt>
      <trkpt lat="48.58026" lon="7.7748">
        <ele>141.9</ele>
        <time>2019-08-08T12:37:40Z</time>
      </trkpt>
      <trkpt lat="48.58027" lon="7.77487">
        <ele>141.9</ele>
        <time>2019-08-08T12:37:41Z</time>
      </trkpt>
      <trkpt lat="48.58029" lon="7.77492">
        <ele>141.9</ele>
        <time>2019-08-08T12:37:42Z</time>
      </trkpt>
      <trkpt lat="48.5803" lon="7.77496">
        <ele>141.9</ele>
        <time>2019-08-08T12:37:44Z</time>
      </trkpt>
      <trkpt lat="48.58034" lon="7.77499">
        <ele>141.9</ele>
        <time>2019-08-08T12:37:46Z</time>
      </trkpt>
      <trkpt lat="48.58036" lon="7.77503">
        <ele>141.9</ele>
        <time>2019-08-08T12:37:48Z</time>
      </trkpt>
      <trkpt lat="48.58038" lon="7.77504">
        <ele>141.8</ele>
        <time>2019-08-08T12:37:50Z</time>
      </trkpt>
      <trkpt lat="48.58044" lon="7.7751">
        <ele>141.8</ele>
        <time>2019-08-08T12:40:08Z</time>
      </trkpt>
      <trkpt lat="48.58043" lon="7.77518">
        <ele>141.8</ele>
        <time>2019-08-08T12:40:10Z</time>
      </trkpt>
      <trkpt lat="48.58043" lon="7.77522">
        <ele>141.7</ele>
        <time>2019-08-08T12:40:11Z</time>
      </trkpt>
      <trkpt lat="48.58042" lon="7.77527">
        <ele>141.7</ele>
        <time>2019-08-08T12:40:12Z</time>
      </trkpt>
      <trkpt lat="48.58042" lon="7.77533">
        <ele>141.7</ele>
        <time>2019-08-08T12:40:13Z</time>
      </trkpt>
      <trkpt lat="48.58041" lon="7.77539">
        <ele>141.6</ele>
        <time>2019-08-08T12:40:14Z</time>
      </trkpt>
      <trkpt lat="48.58041" lon="7.77545">
        <ele>141.6</ele>
        <time>2019-08-08T12:40:15Z</time>
      </trkpt>
      <trkpt lat="48.5804" lon="7.7755">
        <ele>141.7</ele>
        <time>2019-08-08T12:40:16Z</time>
      </trkpt>
      <trkpt lat="48.58039" lon="7.77554">
        <ele>141.7</ele>
        <time>2019-08-08T12:40:17Z</time>
      </trkpt>
      <trkpt lat="48.58038" lon="7.77559">
        <ele>141.8</ele>
        <time>2019-08-08T12:40:19Z</time>
      </trkpt>
      <trkpt lat="48.58037" lon="7.77566">
        <ele>141.9</ele>
        <time>2019-08-08T12:40:21Z</time>
      </trkpt>
      <trkpt lat="48.58037" lon="7.7757">
        <ele>141.9</ele>
        <time>2019-08-08T12:40:22Z</time>
      </trkpt>
      <trkpt lat="48.58036" lon="7.77577">
        <ele>142.1</ele>
        <time>2019-08-08T12:40:24Z</time>
      </trkpt>
      <trkpt lat="48.58035" lon="7.77582">
        <ele>142.1</ele>
        <time>2019-08-08T12:40:25Z</time>
      </trkpt>
      <trkpt lat="48.58034" lon="7.77589">
        <ele>142.2</ele>
        <time>2019-08-08T12:40:27Z</time>
      </trkpt>
      <trkpt lat="48.58034" lon="7.77593">
        <ele>142.2</ele>
        <time>2019-08-08T12:40:28Z</time>
      </trkpt>
      <trkpt lat="48.58032" lon="7.77597">
        <ele>142.3</ele>
        <time>2019-08-08T12:40:29Z</time>
      </trkpt>
      <trkpt lat="48.58032" lon="7.77601">
        <ele>142.4</ele>
        <time>2019-08-08T12:40:30Z</time>
      </trkpt>
      <trkpt lat="48.58031" lon="7.77605">
        <ele>142.4</ele>
        <time>2019-08-08T12:40:31Z</time>
      </trkpt>
      <trkpt lat="48.58031" lon="7.7761">
        <ele>142.5</ele>
        <time>2019-08-08T12:40:32Z</time>
      </trkpt>
      <trkpt lat="48.58031" lon="7.77614">
        <ele>142.5</ele>
        <time>2019-08-08T12:40:33Z</time>
      </trkpt>
      <trkpt lat="48.5803" lon="7.77621">
        <ele>142.7</ele>
        <time>2019-08-08T12:40:35Z</time>
      </trkpt>
      <trkpt lat="48.58029" lon="7.77628">
        <ele>142.8</ele>
        <time>2019-08-08T12:40:37Z</time>
      </trkpt>
      <trkpt lat="48.58028" lon="7.77632">
        <ele>142.9</ele>
        <time>2019-08-08T12:40:38Z</time>
      </trkpt>
      <trkpt lat="48.58028" lon="7.77636">
        <ele>142.9</ele>
        <time>2019-08-08T12:40:39Z</time>
      </trkpt>
      <trkpt lat="48.58027" lon="7.77641">
        <ele>143</ele>
        <time>2019-08-08T12:40:40Z</time>
      </trkpt>
      <trkpt lat="48.58027" lon="7.77645">
        <ele>143.1</ele>
        <time>2019-08-08T12:40:41Z</time>
      </trkpt>
      <trkpt lat="48.58026" lon="7.77649">
        <ele>143.1</ele>
        <time>2019-08-08T12:40:42Z</time>
      </trkpt>
      <trkpt lat="48.58026" lon="7.77654">
        <ele>143.2</ele>
        <time>2019-08-08T12:40:43Z</time>
      </trkpt>
      <trkpt lat="48.58025" lon="7.77659">
        <ele>143.3</ele>
        <time>2019-08-08T12:40:44Z</time>
      </trkpt>
      <trkpt lat="48.58025" lon="7.77664">
        <ele>143.4</ele>
        <time>2019-08-08T12:40:45Z</time>
      </trkpt>
      <trkpt lat="48.58025" lon="7.77669">
        <ele>143.4</ele>
        <time>2019-08-08T12:40:46Z</time>
      </trkpt>
      <trkpt lat="48.58024" lon="7.77677">
        <ele>143.3</ele>
        <time>2019-08-08T12:40:48Z</time>
      </trkpt>
      <trkpt lat="48.58023" lon="7.77681">
        <ele>143.2</ele>
        <time>2019-08-08T12:40:49Z</time>
      </trkpt>
      <trkpt lat="48.58022" lon="7.77685">
        <ele>143.2</ele>
        <time>2019-08-08T12:40:50Z</time>
      </trkpt>
      <trkpt lat="48.58021" lon="7.77692">
        <ele>143</ele>
        <time>2019-08-08T12:40:52Z</time>
      </trkpt>
      <trkpt lat="48.58021" lon="7.77699">
        <ele>142.9</ele>
        <time>2019-08-08T12:40:54Z</time>
      </trkpt>
      <trkpt lat="48.58019" lon="7.77706">
        <ele>142.8</ele>
        <time>2019-08-08T12:40:56Z</time>
      </trkpt>
      <trkpt lat="48.58019" lon="7.77713">
        <ele>142.7</ele>
        <time>2019-08-08T12:40:58Z</time>
      </trkpt>
      <trkpt lat="48.58018" lon="7.77719">
        <ele>142.6</ele>
        <time>2019-08-08T12:41:01Z</time>
      </trkpt>
      <trkpt lat="48.58017" lon="7.77725">
        <ele>142.5</ele>
        <time>2019-08-08T12:41:03Z</time>
      </trkpt>
      <trkpt lat="48.58017" lon="7.77729">
        <ele>142.5</ele>
        <time>2019-08-08T12:41:04Z</time>
      </trkpt>
      <trkpt lat="48.58017" lon="7.77735">
        <ele>142.4</ele>
        <time>2019-08-08T12:41:05Z</time>
      </trkpt>
      <trkpt lat="48.58017" lon="7.7774">
        <ele>142.3</ele>
        <time>2019-08-08T12:41:06Z</time>
      </trkpt>
      <trkpt lat="48.58017" lon="7.77744">
        <ele>142.2</ele>
        <time>2019-08-08T12:41:07Z</time>
      </trkpt>
      <trkpt lat="48.58015" lon="7.7775">
        <ele>142.1</ele>
        <time>2019-08-08T12:41:08Z</time>
      </trkpt>
      <trkpt lat="48.58014" lon="7.77755">
        <ele>142</ele>
        <time>2019-08-08T12:41:10Z</time>
      </trkpt>
      <trkpt lat="48.58014" lon="7.7776">
        <ele>141.9</ele>
        <time>2019-08-08T12:41:12Z</time>
      </trkpt>
      <trkpt lat="48.58018" lon="7.77764">
        <ele>141.8</ele>
        <time>2019-08-08T12:41:15Z</time>
      </trkpt>
      <trkpt lat="48.58013" lon="7.77766">
        <ele>141.6</ele>
        <time>2019-08-08T12:41:21Z</time>
      </trkpt>
      <trkpt lat="48.5801" lon="7.77769">
        <ele>141.4</ele>
        <time>2019-08-08T12:41:23Z</time>
      </trkpt>
      <trkpt lat="48.58007" lon="7.77774">
        <ele>141.3</ele>
        <time>2019-08-08T12:41:25Z</time>
      </trkpt>
      <trkpt lat="48.58004" lon="7.77781">
        <ele>140.9</ele>
        <time>2019-08-08T12:41:27Z</time>
      </trkpt>
      <trkpt lat="48.58003" lon="7.77786">
        <ele>140.7</ele>
        <time>2019-08-08T12:41:28Z</time>
      </trkpt>
      <trkpt lat="48.58003" lon="7.77791">
        <ele>140.7</ele>
        <time>2019-08-08T12:41:29Z</time>
      </trkpt>
      <trkpt lat="48.58007" lon="7.77793">
        <ele>140.7</ele>
        <time>2019-08-08T12:41:34Z</time>
      </trkpt>
      <trkpt lat="48.5801" lon="7.77793">
        <ele>140.7</ele>
        <time>2019-08-08T12:41:36Z</time>
      </trkpt>
      <trkpt lat="48.58013" lon="7.77797">
        <ele>140.7</ele>
        <time>2019-08-08T12:41:40Z</time>
      </trkpt>
      <trkpt lat="48.58018" lon="7.778">
        <ele>140.7</ele>
        <time>2019-08-08T12:41:42Z</time>
      </trkpt>
      <trkpt lat="48.58023" lon="7.778">
        <ele>140.6</ele>
        <time>2019-08-08T12:41:44Z</time>
      </trkpt>
      <trkpt lat="48.58027" lon="7.77802">
        <ele>140.3</ele>
        <time>2019-08-08T12:41:45Z</time>
      </trkpt>
      <trkpt lat="48.58033" lon="7.77803">
        <ele>140</ele>
        <time>2019-08-08T12:41:47Z</time>
      </trkpt>
      <trkpt lat="48.58036" lon="7.77804">
        <ele>139.8</ele>
        <time>2019-08-08T12:41:49Z</time>
      </trkpt>
      <trkpt lat="48.58036" lon="7.77808">
        <ele>139.6</ele>
        <time>2019-08-08T12:41:51Z</time>
      </trkpt>
      <trkpt lat="48.58038" lon="7.77818">
        <ele>139.2</ele>
        <time>2019-08-08T12:41:53Z</time>
      </trkpt>
      <trkpt lat="48.58039" lon="7.77824">
        <ele>138.9</ele>
        <time>2019-08-08T12:41:54Z</time>
      </trkpt>
      <trkpt lat="48.58039" lon="7.77828">
        <ele>138.8</ele>
        <time>2019-08-08T12:41:55Z</time>
      </trkpt>
      <trkpt lat="48.5804" lon="7.77833">
        <ele>138.6</ele>
        <time>2019-08-08T12:41:56Z</time>
      </trkpt>
      <trkpt lat="48.58041" lon="7.77838">
        <ele>138.4</ele>
        <time>2019-08-08T12:41:57Z</time>
      </trkpt>
      <trkpt lat="48.58041" lon="7.77846">
        <ele>138</ele>
        <time>2019-08-08T12:41:58Z</time>
      </trkpt>
      <trkpt lat="48.58041" lon="7.7785">
        <ele>137.9</ele>
        <time>2019-08-08T12:41:59Z</time>
      </trkpt>
      <trkpt lat="48.58041" lon="7.77855">
        <ele>137.7</ele>
        <time>2019-08-08T12:42:00Z</time>
      </trkpt>
      <trkpt lat="48.58041" lon="7.77859">
        <ele>137.5</ele>
        <time>2019-08-08T12:42:01Z</time>
      </trkpt>
      <trkpt lat="48.58042" lon="7.77867">
        <ele>137.2</ele>
        <time>2019-08-08T12:42:03Z</time>
      </trkpt>
      <trkpt lat="48.58042" lon="7.77875">
        <ele>136.9</ele>
        <time>2019-08-08T12:42:05Z</time>
      </trkpt>
      <trkpt lat="48.58042" lon="7.77882">
        <ele>136.6</ele>
        <time>2019-08-08T12:42:07Z</time>
      </trkpt>
      <trkpt lat="48.58043" lon="7.7789">
        <ele>136.3</ele>
        <time>2019-08-08T12:42:09Z</time>
      </trkpt>
      <trkpt lat="48.58043" lon="7.77896">
        <ele>136</ele>
        <time>2019-08-08T12:42:11Z</time>
      </trkpt>
      <trkpt lat="48.58043" lon="7.77901">
        <ele>135.8</ele>
        <time>2019-08-08T12:42:12Z</time>
      </trkpt>
      <trkpt lat="48.58043" lon="7.77906">
        <ele>135.6</ele>
        <time>2019-08-08T12:42:13Z</time>
      </trkpt>
      <trkpt lat="48.58043" lon="7.77911">
        <ele>135.5</ele>
        <time>2019-08-08T12:42:14Z</time>
      </trkpt>
      <trkpt lat="48.58043" lon="7.77915">
        <ele>135.3</ele>
        <time>2019-08-08T12:42:15Z</time>
      </trkpt>
      <trkpt lat="48.58049" lon="7.77919">
        <ele>135.1</ele>
        <time>2019-08-08T12:42:17Z</time>
      </trkpt>
      <trkpt lat="48.58051" lon="7.77923">
        <ele>134.8</ele>
        <time>2019-08-08T12:42:19Z</time>
      </trkpt>
      <trkpt lat="48.58055" lon="7.77925">
        <ele>134.8</ele>
        <time>2019-08-08T12:42:21Z</time>
      </trkpt>
      <trkpt lat="48.58065" lon="7.77932">
        <ele>134.7</ele>
        <time>2019-08-08T12:43:18Z</time>
      </trkpt>
      <trkpt lat="48.58064" lon="7.77937">
        <ele>134.8</ele>
        <time>2019-08-08T12:43:20Z</time>
      </trkpt>
      <trkpt lat="48.58061" lon="7.77939">
        <ele>134.8</ele>
        <time>2019-08-08T12:43:22Z</time>
      </trkpt>
      <trkpt lat="48.58057" lon="7.7794">
        <ele>134.8</ele>
        <time>2019-08-08T12:43:24Z</time>
      </trkpt>
      <trkpt lat="48.58052" lon="7.77939">
        <ele>134.9</ele>
        <time>2019-08-08T12:43:26Z</time>
      </trkpt>
      <trkpt lat="48.58047" lon="7.77939">
        <ele>135</ele>
        <time>2019-08-08T12:43:28Z</time>
      </trkpt>
      <trkpt lat="48.58045" lon="7.77942">
        <ele>135</ele>
        <time>2019-08-08T12:43:29Z</time>
      </trkpt>
      <trkpt lat="48.58042" lon="7.77944">
        <ele>135</ele>
        <time>2019-08-08T12:43:30Z</time>
      </trkpt>
      <trkpt lat="48.5804" lon="7.77947">
        <ele>135</ele>
        <time>2019-08-08T12:43:31Z</time>
      </trkpt>
      <trkpt lat="48.58037" lon="7.7795">
        <ele>135.1</ele>
        <time>2019-08-08T12:43:32Z</time>
      </trkpt>
      <trkpt lat="48.58034" lon="7.77957">
        <ele>135.1</ele>
        <time>2019-08-08T12:43:33Z</time>
      </trkpt>
      <trkpt lat="48.58033" lon="7.77961">
        <ele>135.2</ele>
        <time>2019-08-08T12:43:34Z</time>
      </trkpt>
      <trkpt lat="48.58031" lon="7.77965">
        <ele>135.2</ele>
        <time>2019-08-08T12:43:35Z</time>
      </trkpt>
      <trkpt lat="48.58027" lon="7.77972">
        <ele>135.3</ele>
        <time>2019-08-08T12:43:37Z</time>
      </trkpt>
      <trkpt lat="48.58025" lon="7.77976">
        <ele>135.3</ele>
        <time>2019-08-08T12:43:38Z</time>
      </trkpt>
      <trkpt lat="48.58022" lon="7.77981">
        <ele>135.4</ele>
        <time>2019-08-08T12:43:39Z</time>
      </trkpt>
      <trkpt lat="48.5802" lon="7.77985">
        <ele>135.4</ele>
        <time>2019-08-08T12:43:40Z</time>
      </trkpt>
      <trkpt lat="48.58017" lon="7.7799">
        <ele>135.5</ele>
        <time>2019-08-08T12:43:41Z</time>
      </trkpt>
      <trkpt lat="48.58014" lon="7.77995">
        <ele>135.5</ele>
        <time>2019-08-08T12:43:42Z</time>
      </trkpt>
      <trkpt lat="48.58012" lon="7.78">
        <ele>135.5</ele>
        <time>2019-08-08T12:43:43Z</time>
      </trkpt>
      <trkpt lat="48.5801" lon="7.78005">
        <ele>135.6</ele>
        <time>2019-08-08T12:43:44Z</time>
      </trkpt>
      <trkpt lat="48.58008" lon="7.78009">
        <ele>135.6</ele>
        <time>2019-08-08T12:43:45Z</time>
      </trkpt>
      <trkpt lat="48.58005" lon="7.78013">
        <ele>135.6</ele>
        <time>2019-08-08T12:43:46Z</time>
      </trkpt>
      <trkpt lat="48.58002" lon="7.78017">
        <ele>135.7</ele>
        <time>2019-08-08T12:43:47Z</time>
      </trkpt>
      <trkpt lat="48.57998" lon="7.78022">
        <ele>135.7</ele>
        <time>2019-08-08T12:43:48Z</time>
      </trkpt>
      <trkpt lat="48.57995" lon="7.78026">
        <ele>135.7</ele>
        <time>2019-08-08T12:43:49Z</time>
      </trkpt>
      <trkpt lat="48.57993" lon="7.7803">
        <ele>135.7</ele>
        <time>2019-08-08T12:43:50Z</time>
      </trkpt>
      <trkpt lat="48.5799" lon="7.78033">
        <ele>135.7</ele>
        <time>2019-08-08T12:43:51Z</time>
      </trkpt>
      <trkpt lat="48.57988" lon="7.78037">
        <ele>135.7</ele>
        <time>2019-08-08T12:43:52Z</time>
      </trkpt>
      <trkpt lat="48.57985" lon="7.78042">
        <ele>135.6</ele>
        <time>2019-08-08T12:43:53Z</time>
      </trkpt>
      <trkpt lat="48.57983" lon="7.78045">
        <ele>135.5</ele>
        <time>2019-08-08T12:43:54Z</time>
      </trkpt>
      <trkpt lat="48.57981" lon="7.78049">
        <ele>135.4</ele>
        <time>2019-08-08T12:43:55Z</time>
      </trkpt>
      <trkpt lat="48.57978" lon="7.78053">
        <ele>135.3</ele>
        <time>2019-08-08T12:43:56Z</time>
      </trkpt>
      <trkpt lat="48.57976" lon="7.78058">
        <ele>135.1</ele>
        <time>2019-08-08T12:43:57Z</time>
      </trkpt>
      <trkpt lat="48.57973" lon="7.78063">
        <ele>135</ele>
        <time>2019-08-08T12:43:58Z</time>
      </trkpt>
      <trkpt lat="48.57971" lon="7.78067">
        <ele>134.9</ele>
        <time>2019-08-08T12:43:59Z</time>
      </trkpt>
      <trkpt lat="48.57968" lon="7.78072">
        <ele>134.8</ele>
        <time>2019-08-08T12:44:00Z</time>
      </trkpt>
      <trkpt lat="48.57967" lon="7.78077">
        <ele>134.7</ele>
        <time>2019-08-08T12:44:01Z</time>
      </trkpt>
      <trkpt lat="48.57966" lon="7.78083">
        <ele>134.6</ele>
        <time>2019-08-08T12:44:02Z</time>
      </trkpt>
      <trkpt lat="48.57964" lon="7.78087">
        <ele>134.6</ele>
        <time>2019-08-08T12:44:03Z</time>
      </trkpt>
      <trkpt lat="48.57962" lon="7.78091">
        <ele>134.5</ele>
        <time>2019-08-08T12:44:04Z</time>
      </trkpt>
      <trkpt lat="48.57959" lon="7.78095">
        <ele>134.5</ele>
        <time>2019-08-08T12:44:05Z</time>
      </trkpt>
      <trkpt lat="48.57957" lon="7.78101">
        <ele>134.5</ele>
        <time>2019-08-08T12:44:06Z</time>
      </trkpt>
      <trkpt lat="48.57955" lon="7.78106">
        <ele>134.6</ele>
        <time>2019-08-08T12:44:07Z</time>
      </trkpt>
      <trkpt lat="48.57953" lon="7.78111">
        <ele>134.6</ele>
        <time>2019-08-08T12:44:08Z</time>
      </trkpt>
      <trkpt lat="48.57951" lon="7.78115">
        <ele>134.6</ele>
        <time>2019-08-08T12:44:09Z</time>
      </trkpt>
      <trkpt lat="48.57948" lon="7.78118">
        <ele>134.6</ele>
        <time>2019-08-08T12:44:10Z</time>
      </trkpt>
      <trkpt lat="48.57946" lon="7.78123">
        <ele>134.3</ele>
        <time>2019-08-08T12:44:11Z</time>
      </trkpt>
      <trkpt lat="48.57944" lon="7.78127">
        <ele>134.1</ele>
        <time>2019-08-08T12:44:12Z</time>
      </trkpt>
      <trkpt lat="48.57941" lon="7.78131">
        <ele>133.6</ele>
        <time>2019-08-08T12:44:13Z</time>
      </trkpt>
      <trkpt lat="48.57938" lon="7.78134">
        <ele>133.7</ele>
        <time>2019-08-08T12:44:14Z</time>
      </trkpt>
      <trkpt lat="48.57936" lon="7.78138">
        <ele>133.8</ele>
        <time>2019-08-08T12:44:15Z</time>
      </trkpt>
      <trkpt lat="48.57933" lon="7.78143">
        <ele>133.8</ele>
        <time>2019-08-08T12:44:16Z</time>
      </trkpt>
      <trkpt lat="48.57931" lon="7.78148">
        <ele>133.9</ele>
        <time>2019-08-08T12:44:17Z</time>
      </trkpt>
      <trkpt lat="48.57929" lon="7.78152">
        <ele>133.9</ele>
        <time>2019-08-08T12:44:18Z</time>
      </trkpt>
      <trkpt lat="48.57927" lon="7.78156">
        <ele>134</ele>
        <time>2019-08-08T12:44:19Z</time>
      </trkpt>
      <trkpt lat="48.57924" lon="7.78161">
        <ele>134</ele>
        <time>2019-08-08T12:44:20Z</time>
      </trkpt>
      <trkpt lat="48.57922" lon="7.78165">
        <ele>134</ele>
        <time>2019-08-08T12:44:21Z</time>
      </trkpt>
      <trkpt lat="48.5792" lon="7.78168">
        <ele>134.1</ele>
        <time>2019-08-08T12:44:22Z</time>
      </trkpt>
      <trkpt lat="48.57917" lon="7.78172">
        <ele>134.1</ele>
        <time>2019-08-08T12:44:23Z</time>
      </trkpt>
      <trkpt lat="48.57915" lon="7.78177">
        <ele>134.1</ele>
        <time>2019-08-08T12:44:24Z</time>
      </trkpt>
      <trkpt lat="48.57912" lon="7.7818">
        <ele>134.1</ele>
        <time>2019-08-08T12:44:25Z</time>
      </trkpt>
      <trkpt lat="48.5791" lon="7.78184">
        <ele>134.1</ele>
        <time>2019-08-08T12:44:26Z</time>
      </trkpt>
      <trkpt lat="48.57908" lon="7.78188">
        <ele>134.1</ele>
        <time>2019-08-08T12:44:27Z</time>
      </trkpt>
      <trkpt lat="48.57905" lon="7.78193">
        <ele>134.1</ele>
        <time>2019-08-08T12:44:28Z</time>
      </trkpt>
      <trkpt lat="48.57902" lon="7.78198">
        <ele>134.1</ele>
        <time>2019-08-08T12:44:29Z</time>
      </trkpt>
      <trkpt lat="48.579" lon="7.78203">
        <ele>134.1</ele>
        <time>2019-08-08T12:44:30Z</time>
      </trkpt>
      <trkpt lat="48.57897" lon="7.78207">
        <ele>134.1</ele>
        <time>2019-08-08T12:44:31Z</time>
      </trkpt>
      <trkpt lat="48.57895" lon="7.78212">
        <ele>134.1</ele>
        <time>2019-08-08T12:44:32Z</time>
      </trkpt>
      <trkpt lat="48.57892" lon="7.78216">
        <ele>134</ele>
        <time>2019-08-08T12:44:33Z</time>
      </trkpt>
      <trkpt lat="48.57889" lon="7.7822">
        <ele>134</ele>
        <time>2019-08-08T12:44:34Z</time>
      </trkpt>
      <trkpt lat="48.57887" lon="7.78225">
        <ele>133.9</ele>
        <time>2019-08-08T12:44:35Z</time>
      </trkpt>
      <trkpt lat="48.57884" lon="7.78229">
        <ele>133.9</ele>
        <time>2019-08-08T12:44:36Z</time>
      </trkpt>
      <trkpt lat="48.57881" lon="7.78234">
        <ele>133.8</ele>
        <time>2019-08-08T12:44:37Z</time>
      </trkpt>
      <trkpt lat="48.57879" lon="7.78238">
        <ele>133.8</ele>
        <time>2019-08-08T12:44:38Z</time>
      </trkpt>
      <trkpt lat="48.57877" lon="7.78242">
        <ele>133.7</ele>
        <time>2019-08-08T12:44:39Z</time>
      </trkpt>
      <trkpt lat="48.57875" lon="7.78247">
        <ele>133.6</ele>
        <time>2019-08-08T12:44:40Z</time>
      </trkpt>
      <trkpt lat="48.57873" lon="7.78251">
        <ele>133.6</ele>
        <time>2019-08-08T12:44:41Z</time>
      </trkpt>
      <trkpt lat="48.57871" lon="7.78255">
        <ele>133.5</ele>
        <time>2019-08-08T12:44:42Z</time>
      </trkpt>
      <trkpt lat="48.57868" lon="7.78259">
        <ele>133.4</ele>
        <time>2019-08-08T12:44:43Z</time>
      </trkpt>
      <trkpt lat="48.57867" lon="7.78263">
        <ele>133.4</ele>
        <time>2019-08-08T12:44:44Z</time>
      </trkpt>
      <trkpt lat="48.57864" lon="7.78268">
        <ele>133.3</ele>
        <time>2019-08-08T12:44:45Z</time>
      </trkpt>
      <trkpt lat="48.57862" lon="7.78272">
        <ele>133.7</ele>
        <time>2019-08-08T12:44:46Z</time>
      </trkpt>
      <trkpt lat="48.57861" lon="7.78276">
        <ele>134</ele>
        <time>2019-08-08T12:44:47Z</time>
      </trkpt>
      <trkpt lat="48.57858" lon="7.78279">
        <ele>134.5</ele>
        <time>2019-08-08T12:44:48Z</time>
      </trkpt>
      <trkpt lat="48.57855" lon="7.78283">
        <ele>134.8</ele>
        <time>2019-08-08T12:44:49Z</time>
      </trkpt>
      <trkpt lat="48.57853" lon="7.78286">
        <ele>135.1</ele>
        <time>2019-08-08T12:44:50Z</time>
      </trkpt>
      <trkpt lat="48.57851" lon="7.78292">
        <ele>135.4</ele>
        <time>2019-08-08T12:44:51Z</time>
      </trkpt>
      <trkpt lat="48.57849" lon="7.78297">
        <ele>135.8</ele>
        <time>2019-08-08T12:44:52Z</time>
      </trkpt>
      <trkpt lat="48.57847" lon="7.78302">
        <ele>136.1</ele>
        <time>2019-08-08T12:44:53Z</time>
      </trkpt>
      <trkpt lat="48.57845" lon="7.78306">
        <ele>136.4</ele>
        <time>2019-08-08T12:44:54Z</time>
      </trkpt>
      <trkpt lat="48.57843" lon="7.7831">
        <ele>136.7</ele>
        <time>2019-08-08T12:44:55Z</time>
      </trkpt>
      <trkpt lat="48.5784" lon="7.78313">
        <ele>136.9</ele>
        <time>2019-08-08T12:44:56Z</time>
      </trkpt>
      <trkpt lat="48.57838" lon="7.78317">
        <ele>137.2</ele>
        <time>2019-08-08T12:44:57Z</time>
      </trkpt>
      <trkpt lat="48.57835" lon="7.7832">
        <ele>137.5</ele>
        <time>2019-08-08T12:44:58Z</time>
      </trkpt>
      <trkpt lat="48.57833" lon="7.78324">
        <ele>137.7</ele>
        <time>2019-08-08T12:44:59Z</time>
      </trkpt>
      <trkpt lat="48.57831" lon="7.7833">
        <ele>138.1</ele>
        <time>2019-08-08T12:45:00Z</time>
      </trkpt>
      <trkpt lat="48.5783" lon="7.78334">
        <ele>138.3</ele>
        <time>2019-08-08T12:45:01Z</time>
      </trkpt>
      <trkpt lat="48.57828" lon="7.78338">
        <ele>138.6</ele>
        <time>2019-08-08T12:45:02Z</time>
      </trkpt>
      <trkpt lat="48.57826" lon="7.78343">
        <ele>138.8</ele>
        <time>2019-08-08T12:45:03Z</time>
      </trkpt>
      <trkpt lat="48.57824" lon="7.78346">
        <ele>139.1</ele>
        <time>2019-08-08T12:45:04Z</time>
      </trkpt>
      <trkpt lat="48.57821" lon="7.7835">
        <ele>139.4</ele>
        <time>2019-08-08T12:45:05Z</time>
      </trkpt>
      <trkpt lat="48.57819" lon="7.78356">
        <ele>139.7</ele>
        <time>2019-08-08T12:45:06Z</time>
      </trkpt>
      <trkpt lat="48.57817" lon="7.7836">
        <ele>140.1</ele>
        <time>2019-08-08T12:45:07Z</time>
      </trkpt>
      <trkpt lat="48.57815" lon="7.78365">
        <ele>140.4</ele>
        <time>2019-08-08T12:45:08Z</time>
      </trkpt>
      <trkpt lat="48.57813" lon="7.78369">
        <ele>140.6</ele>
        <time>2019-08-08T12:45:09Z</time>
      </trkpt>
      <trkpt lat="48.57812" lon="7.78374">
        <ele>140.8</ele>
        <time>2019-08-08T12:45:10Z</time>
      </trkpt>
      <trkpt lat="48.5781" lon="7.78378">
        <ele>141.1</ele>
        <time>2019-08-08T12:45:11Z</time>
      </trkpt>
      <trkpt lat="48.57809" lon="7.78382">
        <ele>141.1</ele>
        <time>2019-08-08T12:45:13Z</time>
      </trkpt>
      <trkpt lat="48.57814" lon="7.78389">
        <ele>141.1</ele>
        <time>2019-08-08T12:47:10Z</time>
      </trkpt>
      <trkpt lat="48.57818" lon="7.78383">
        <ele>141</ele>
        <time>2019-08-08T12:49:34Z</time>
      </trkpt>
      <trkpt lat="48.57817" lon="7.78387">
        <ele>141.1</ele>
        <time>2019-08-08T12:49:36Z</time>
      </trkpt>
      <trkpt lat="48.57814" lon="7.78391">
        <ele>141.1</ele>
        <time>2019-08-08T12:49:38Z</time>
      </trkpt>
      <trkpt lat="48.57812" lon="7.78397">
        <ele>141.1</ele>
        <time>2019-08-08T12:49:40Z</time>
      </trkpt>
      <trkpt lat="48.5781" lon="7.78398">
        <ele>141.2</ele>
        <time>2019-08-08T12:49:42Z</time>
      </trkpt>
      <trkpt lat="48.57806" lon="7.78399">
        <ele>141.2</ele>
        <time>2019-08-08T12:49:44Z</time>
      </trkpt>
      <trkpt lat="48.57802" lon="7.78401">
        <ele>141.2</ele>
        <time>2019-08-08T12:49:46Z</time>
      </trkpt>
      <trkpt lat="48.57797" lon="7.78401">
        <ele>141.2</ele>
        <time>2019-08-08T12:49:48Z</time>
      </trkpt>
      <trkpt lat="48.57792" lon="7.784">
        <ele>141.2</ele>
        <time>2019-08-08T12:49:50Z</time>
      </trkpt>
      <trkpt lat="48.57789" lon="7.784">
        <ele>141.2</ele>
        <time>2019-08-08T12:49:51Z</time>
      </trkpt>
      <trkpt lat="48.57786" lon="7.78401">
        <ele>141.1</ele>
        <time>2019-08-08T12:49:53Z</time>
      </trkpt>
      <trkpt lat="48.57784" lon="7.78406">
        <ele>141.1</ele>
        <time>2019-08-08T12:49:55Z</time>
      </trkpt>
      <trkpt lat="48.57781" lon="7.78412">
        <ele>141</ele>
        <time>2019-08-08T12:49:57Z</time>
      </trkpt>
      <trkpt lat="48.57779" lon="7.78415">
        <ele>141</ele>
        <time>2019-08-08T12:49:58Z</time>
      </trkpt>
      <trkpt lat="48.57778" lon="7.7842">
        <ele>140.9</ele>
        <time>2019-08-08T12:49:59Z</time>
      </trkpt>
      <trkpt lat="48.57776" lon="7.78426">
        <ele>140.9</ele>
        <time>2019-08-08T12:50:00Z</time>
      </trkpt>
      <trkpt lat="48.57775" lon="7.78433">
        <ele>140.8</ele>
        <time>2019-08-08T12:50:01Z</time>
      </trkpt>
      <trkpt lat="48.57772" lon="7.78438">
        <ele>140.7</ele>
        <time>2019-08-08T12:50:02Z</time>
      </trkpt>
      <trkpt lat="48.5777" lon="7.78446">
        <ele>140.6</ele>
        <time>2019-08-08T12:50:03Z</time>
      </trkpt>
      <trkpt lat="48.57767" lon="7.78453">
        <ele>140.5</ele>
        <time>2019-08-08T12:50:04Z</time>
      </trkpt>
      <trkpt lat="48.57765" lon="7.78461">
        <ele>140.4</ele>
        <time>2019-08-08T12:50:05Z</time>
      </trkpt>
      <trkpt lat="48.57762" lon="7.78469">
        <ele>140.3</ele>
        <time>2019-08-08T12:50:06Z</time>
      </trkpt>
      <trkpt lat="48.5776" lon="7.78475">
        <ele>140.1</ele>
        <time>2019-08-08T12:50:07Z</time>
      </trkpt>
      <trkpt lat="48.57758" lon="7.78482">
        <ele>140</ele>
        <time>2019-08-08T12:50:08Z</time>
      </trkpt>
      <trkpt lat="48.57755" lon="7.78488">
        <ele>139.9</ele>
        <time>2019-08-08T12:50:09Z</time>
      </trkpt>
      <trkpt lat="48.57753" lon="7.78494">
        <ele>139.7</ele>
        <time>2019-08-08T12:50:10Z</time>
      </trkpt>
      <trkpt lat="48.57751" lon="7.78501">
        <ele>139.6</ele>
        <time>2019-08-08T12:50:11Z</time>
      </trkpt>
      <trkpt lat="48.57748" lon="7.78507">
        <ele>139.3</ele>
        <time>2019-08-08T12:50:12Z</time>
      </trkpt>
      <trkpt lat="48.57746" lon="7.78513">
        <ele>139.1</ele>
        <time>2019-08-08T12:50:13Z</time>
      </trkpt>
      <trkpt lat="48.57744" lon="7.78519">
        <ele>138.9</ele>
        <time>2019-08-08T12:50:14Z</time>
      </trkpt>
      <trkpt lat="48.57742" lon="7.78524">
        <ele>138.7</ele>
        <time>2019-08-08T12:50:15Z</time>
      </trkpt>
      <trkpt lat="48.5774" lon="7.78531">
        <ele>138.6</ele>
        <time>2019-08-08T12:50:16Z</time>
      </trkpt>
      <trkpt lat="48.57739" lon="7.78537">
        <ele>138.4</ele>
        <time>2019-08-08T12:50:17Z</time>
      </trkpt>
      <trkpt lat="48.57737" lon="7.78544">
        <ele>138.3</ele>
        <time>2019-08-08T12:50:18Z</time>
      </trkpt>
      <trkpt lat="48.57734" lon="7.78549">
        <ele>138.2</ele>
        <time>2019-08-08T12:50:19Z</time>
      </trkpt>
      <trkpt lat="48.57732" lon="7.78555">
        <ele>138</ele>
        <time>2019-08-08T12:50:20Z</time>
      </trkpt>
      <trkpt lat="48.5773" lon="7.78559">
        <ele>138</ele>
        <time>2019-08-08T12:50:21Z</time>
      </trkpt>
      <trkpt lat="48.57727" lon="7.78563">
        <ele>138</ele>
        <time>2019-08-08T12:50:22Z</time>
      </trkpt>
      <trkpt lat="48.57724" lon="7.78569">
        <ele>138</ele>
        <time>2019-08-08T12:50:23Z</time>
      </trkpt>
      <trkpt lat="48.57722" lon="7.78572">
        <ele>137.9</ele>
        <time>2019-08-08T12:50:24Z</time>
      </trkpt>
      <trkpt lat="48.5772" lon="7.78577">
        <ele>137.9</ele>
        <time>2019-08-08T12:50:25Z</time>
      </trkpt>
      <trkpt lat="48.57717" lon="7.78581">
        <ele>137.8</ele>
        <time>2019-08-08T12:50:26Z</time>
      </trkpt>
      <trkpt lat="48.57714" lon="7.78586">
        <ele>137.7</ele>
        <time>2019-08-08T12:50:27Z</time>
      </trkpt>
      <trkpt lat="48.57713" lon="7.78591">
        <ele>137.7</ele>
        <time>2019-08-08T12:50:28Z</time>
      </trkpt>
      <trkpt lat="48.57711" lon="7.78596">
        <ele>137.7</ele>
        <time>2019-08-08T12:50:29Z</time>
      </trkpt>
      <trkpt lat="48.57709" lon="7.78601">
        <ele>137.8</ele>
        <time>2019-08-08T12:50:30Z</time>
      </trkpt>
      <trkpt lat="48.57707" lon="7.78606">
        <ele>137.8</ele>
        <time>2019-08-08T12:50:31Z</time>
      </trkpt>
      <trkpt lat="48.57706" lon="7.78612">
        <ele>137.9</ele>
        <time>2019-08-08T12:50:32Z</time>
      </trkpt>
      <trkpt lat="48.57705" lon="7.78619">
        <ele>138</ele>
        <time>2019-08-08T12:50:33Z</time>
      </trkpt>
      <trkpt lat="48.57704" lon="7.78624">
        <ele>138</ele>
        <time>2019-08-08T12:50:34Z</time>
      </trkpt>
      <trkpt lat="48.57702" lon="7.78628">
        <ele>138.2</ele>
        <time>2019-08-08T12:50:35Z</time>
      </trkpt>
      <trkpt lat="48.577" lon="7.78632">
        <ele>138.3</ele>
        <time>2019-08-08T12:50:36Z</time>
      </trkpt>
      <trkpt lat="48.57699" lon="7.78636">
        <ele>138.3</ele>
        <time>2019-08-08T12:50:37Z</time>
      </trkpt>
      <trkpt lat="48.57697" lon="7.78641">
        <ele>138.4</ele>
        <time>2019-08-08T12:50:38Z</time>
      </trkpt>
      <trkpt lat="48.57696" lon="7.78646">
        <ele>138.5</ele>
        <time>2019-08-08T12:50:39Z</time>
      </trkpt>
      <trkpt lat="48.57694" lon="7.7865">
        <ele>138.6</ele>
        <time>2019-08-08T12:50:40Z</time>
      </trkpt>
      <trkpt lat="48.57692" lon="7.78656">
        <ele>138.7</ele>
        <time>2019-08-08T12:50:41Z</time>
      </trkpt>
      <trkpt lat="48.57689" lon="7.78662">
        <ele>138.8</ele>
        <time>2019-08-08T12:50:42Z</time>
      </trkpt>
      <trkpt lat="48.57686" lon="7.78667">
        <ele>138.9</ele>
        <time>2019-08-08T12:50:43Z</time>
      </trkpt>
      <trkpt lat="48.57683" lon="7.78672">
        <ele>138.9</ele>
        <time>2019-08-08T12:50:44Z</time>
      </trkpt>
      <trkpt lat="48.57682" lon="7.78676">
        <ele>138.9</ele>
        <time>2019-08-08T12:50:45Z</time>
      </trkpt>
      <trkpt lat="48.5768" lon="7.7868">
        <ele>139</ele>
        <time>2019-08-08T12:50:46Z</time>
      </trkpt>
      <trkpt lat="48.57677" lon="7.78685">
        <ele>139</ele>
        <time>2019-08-08T12:50:47Z</time>
      </trkpt>
      <trkpt lat="48.57675" lon="7.7869">
        <ele>139</ele>
        <time>2019-08-08T12:50:48Z</time>
      </trkpt>
      <trkpt lat="48.57672" lon="7.78697">
        <ele>139.1</ele>
        <time>2019-08-08T12:50:49Z</time>
      </trkpt>
      <trkpt lat="48.57669" lon="7.78703">
        <ele>139.1</ele>
        <time>2019-08-08T12:50:50Z</time>
      </trkpt>
      <trkpt lat="48.57668" lon="7.78709">
        <ele>139.1</ele>
        <time>2019-08-08T12:50:51Z</time>
      </trkpt>
      <trkpt lat="48.57666" lon="7.78715">
        <ele>139.2</ele>
        <time>2019-08-08T12:50:52Z</time>
      </trkpt>
      <trkpt lat="48.57664" lon="7.78721">
        <ele>139.2</ele>
        <time>2019-08-08T12:50:53Z</time>
      </trkpt>
      <trkpt lat="48.57662" lon="7.78725">
        <ele>139.2</ele>
        <time>2019-08-08T12:50:54Z</time>
      </trkpt>
      <trkpt lat="48.5766" lon="7.7873">
        <ele>139.3</ele>
        <time>2019-08-08T12:50:55Z</time>
      </trkpt>
      <trkpt lat="48.57659" lon="7.78735">
        <ele>139.3</ele>
        <time>2019-08-08T12:50:56Z</time>
      </trkpt>
      <trkpt lat="48.57657" lon="7.7874">
        <ele>139.3</ele>
        <time>2019-08-08T12:50:57Z</time>
      </trkpt>
      <trkpt lat="48.57656" lon="7.78744">
        <ele>139.4</ele>
        <time>2019-08-08T12:50:58Z</time>
      </trkpt>
      <trkpt lat="48.57655" lon="7.7875">
        <ele>139.4</ele>
        <time>2019-08-08T12:50:59Z</time>
      </trkpt>
      <trkpt lat="48.57654" lon="7.78754">
        <ele>139.5</ele>
        <time>2019-08-08T12:51:00Z</time>
      </trkpt>
      <trkpt lat="48.57651" lon="7.7876">
        <ele>139.6</ele>
        <time>2019-08-08T12:51:01Z</time>
      </trkpt>
      <trkpt lat="48.57649" lon="7.78765">
        <ele>139.7</ele>
        <time>2019-08-08T12:51:02Z</time>
      </trkpt>
      <trkpt lat="48.57647" lon="7.78769">
        <ele>139.8</ele>
        <time>2019-08-08T12:51:03Z</time>
      </trkpt>
      <trkpt lat="48.57645" lon="7.78774">
        <ele>140</ele>
        <time>2019-08-08T12:51:04Z</time>
      </trkpt>
      <trkpt lat="48.57644" lon="7.78779">
        <ele>140.2</ele>
        <time>2019-08-08T12:51:05Z</time>
      </trkpt>
      <trkpt lat="48.57642" lon="7.78784">
        <ele>140.5</ele>
        <time>2019-08-08T12:51:06Z</time>
      </trkpt>
      <trkpt lat="48.5764" lon="7.78789">
        <ele>140.8</ele>
        <time>2019-08-08T12:51:07Z</time>
      </trkpt>
      <trkpt lat="48.57638" lon="7.78793">
        <ele>141.5</ele>
        <time>2019-08-08T12:51:08Z</time>
      </trkpt>
      <trkpt lat="48.57635" lon="7.78802">
        <ele>141.6</ele>
        <time>2019-08-08T12:51:10Z</time>
      </trkpt>
      <trkpt lat="48.57633" lon="7.78805">
        <ele>141.6</ele>
        <time>2019-08-08T12:51:11Z</time>
      </trkpt>
      <trkpt lat="48.5763" lon="7.78811">
        <ele>141.6</ele>
        <time>2019-08-08T12:51:13Z</time>
      </trkpt>
      <trkpt lat="48.57628" lon="7.78815">
        <ele>141.6</ele>
        <time>2019-08-08T12:51:14Z</time>
      </trkpt>
      <trkpt lat="48.57626" lon="7.7882">
        <ele>141.6</ele>
        <time>2019-08-08T12:51:15Z</time>
      </trkpt>
      <trkpt lat="48.57625" lon="7.78825">
        <ele>141.7</ele>
        <time>2019-08-08T12:51:16Z</time>
      </trkpt>
      <trkpt lat="48.57624" lon="7.7883">
        <ele>141.7</ele>
        <time>2019-08-08T12:51:17Z</time>
      </trkpt>
      <trkpt lat="48.5762" lon="7.78838">
        <ele>141.7</ele>
        <time>2019-08-08T12:51:19Z</time>
      </trkpt>
      <trkpt lat="48.57618" lon="7.78844">
        <ele>141.7</ele>
        <time>2019-08-08T12:51:20Z</time>
      </trkpt>
      <trkpt lat="48.57616" lon="7.78849">
        <ele>141.7</ele>
        <time>2019-08-08T12:51:21Z</time>
      </trkpt>
      <trkpt lat="48.57616" lon="7.78855">
        <ele>141.7</ele>
        <time>2019-08-08T12:51:22Z</time>
      </trkpt>
      <trkpt lat="48.57613" lon="7.78859">
        <ele>141.8</ele>
        <time>2019-08-08T12:51:23Z</time>
      </trkpt>
      <trkpt lat="48.57611" lon="7.78863">
        <ele>141.8</ele>
        <time>2019-08-08T12:51:24Z</time>
      </trkpt>
      <trkpt lat="48.57609" lon="7.78868">
        <ele>141.8</ele>
        <time>2019-08-08T12:51:25Z</time>
      </trkpt>
      <trkpt lat="48.57606" lon="7.78875">
        <ele>141.8</ele>
        <time>2019-08-08T12:51:26Z</time>
      </trkpt>
      <trkpt lat="48.57603" lon="7.78881">
        <ele>141.8</ele>
        <time>2019-08-08T12:51:27Z</time>
      </trkpt>
      <trkpt lat="48.57602" lon="7.78885">
        <ele>141.9</ele>
        <time>2019-08-08T12:51:28Z</time>
      </trkpt>
      <trkpt lat="48.57602" lon="7.78891">
        <ele>141.9</ele>
        <time>2019-08-08T12:51:29Z</time>
      </trkpt>
      <trkpt lat="48.57599" lon="7.78896">
        <ele>141.9</ele>
        <time>2019-08-08T12:51:31Z</time>
      </trkpt>
      <trkpt lat="48.57598" lon="7.78901">
        <ele>141.9</ele>
        <time>2019-08-08T12:51:32Z</time>
      </trkpt>
      <trkpt lat="48.57596" lon="7.78905">
        <ele>141.9</ele>
        <time>2019-08-08T12:51:33Z</time>
      </trkpt>
      <trkpt lat="48.57594" lon="7.78911">
        <ele>142</ele>
        <time>2019-08-08T12:51:34Z</time>
      </trkpt>
      <trkpt lat="48.57592" lon="7.78916">
        <ele>142</ele>
        <time>2019-08-08T12:51:35Z</time>
      </trkpt>
      <trkpt lat="48.5759" lon="7.78921">
        <ele>142</ele>
        <time>2019-08-08T12:51:36Z</time>
      </trkpt>
      <trkpt lat="48.57588" lon="7.78926">
        <ele>142</ele>
        <time>2019-08-08T12:51:37Z</time>
      </trkpt>
      <trkpt lat="48.57586" lon="7.78932">
        <ele>142</ele>
        <time>2019-08-08T12:51:38Z</time>
      </trkpt>
      <trkpt lat="48.57584" lon="7.78937">
        <ele>142.1</ele>
        <time>2019-08-08T12:51:39Z</time>
      </trkpt>
      <trkpt lat="48.57582" lon="7.78942">
        <ele>142.1</ele>
        <time>2019-08-08T12:51:40Z</time>
      </trkpt>
      <trkpt lat="48.57581" lon="7.78947">
        <ele>142.1</ele>
        <time>2019-08-08T12:51:41Z</time>
      </trkpt>
      <trkpt lat="48.5758" lon="7.78952">
        <ele>142.1</ele>
        <time>2019-08-08T12:51:42Z</time>
      </trkpt>
      <trkpt lat="48.57579" lon="7.78956">
        <ele>142.1</ele>
        <time>2019-08-08T12:51:43Z</time>
      </trkpt>
      <trkpt lat="48.57578" lon="7.7896">
        <ele>142.1</ele>
        <time>2019-08-08T12:51:44Z</time>
      </trkpt>
      <trkpt lat="48.57577" lon="7.78965">
        <ele>142.1</ele>
        <time>2019-08-08T12:51:45Z</time>
      </trkpt>
      <trkpt lat="48.57574" lon="7.7897">
        <ele>142.1</ele>
        <time>2019-08-08T12:51:46Z</time>
      </trkpt>
      <trkpt lat="48.57571" lon="7.78975">
        <ele>142.1</ele>
        <time>2019-08-08T12:51:47Z</time>
      </trkpt>
      <trkpt lat="48.5757" lon="7.78981">
        <ele>142.1</ele>
        <time>2019-08-08T12:51:48Z</time>
      </trkpt>
      <trkpt lat="48.57568" lon="7.78987">
        <ele>142.1</ele>
        <time>2019-08-08T12:51:49Z</time>
      </trkpt>
      <trkpt lat="48.57566" lon="7.78992">
        <ele>142.1</ele>
        <time>2019-08-08T12:51:50Z</time>
      </trkpt>
      <trkpt lat="48.57564" lon="7.78996">
        <ele>142.1</ele>
        <time>2019-08-08T12:51:51Z</time>
      </trkpt>
      <trkpt lat="48.57561" lon="7.79001">
        <ele>142.1</ele>
        <time>2019-08-08T12:51:52Z</time>
      </trkpt>
      <trkpt lat="48.5756" lon="7.79005">
        <ele>142.1</ele>
        <time>2019-08-08T12:51:53Z</time>
      </trkpt>
      <trkpt lat="48.57558" lon="7.79007">
        <ele>142.1</ele>
        <time>2019-08-08T12:51:54Z</time>
      </trkpt>
      <trkpt lat="48.57556" lon="7.79011">
        <ele>142</ele>
        <time>2019-08-08T12:51:55Z</time>
      </trkpt>
      <trkpt lat="48.57553" lon="7.79015">
        <ele>142</ele>
        <time>2019-08-08T12:51:56Z</time>
      </trkpt>
      <trkpt lat="48.57551" lon="7.79021">
        <ele>142</ele>
        <time>2019-08-08T12:51:57Z</time>
      </trkpt>
      <trkpt lat="48.57549" lon="7.79027">
        <ele>142</ele>
        <time>2019-08-08T12:51:58Z</time>
      </trkpt>
      <trkpt lat="48.57547" lon="7.79033">
        <ele>142</ele>
        <time>2019-08-08T12:51:59Z</time>
      </trkpt>
      <trkpt lat="48.57546" lon="7.79038">
        <ele>142.1</ele>
        <time>2019-08-08T12:52:00Z</time>
      </trkpt>
      <trkpt lat="48.57545" lon="7.79044">
        <ele>142.1</ele>
        <time>2019-08-08T12:52:02Z</time>
      </trkpt>
      <trkpt lat="48.57543" lon="7.79048">
        <ele>142.1</ele>
        <time>2019-08-08T12:52:03Z</time>
      </trkpt>
      <trkpt lat="48.57541" lon="7.7905">
        <ele>142.1</ele>
        <time>2019-08-08T12:52:04Z</time>
      </trkpt>
      <trkpt lat="48.57538" lon="7.79059">
        <ele>142.2</ele>
        <time>2019-08-08T12:52:06Z</time>
      </trkpt>
      <trkpt lat="48.57536" lon="7.79064">
        <ele>142.2</ele>
        <time>2019-08-08T12:52:07Z</time>
      </trkpt>
      <trkpt lat="48.57535" lon="7.7907">
        <ele>142.1</ele>
        <time>2019-08-08T12:52:08Z</time>
      </trkpt>
      <trkpt lat="48.57534" lon="7.79075">
        <ele>142.1</ele>
        <time>2019-08-08T12:52:09Z</time>
      </trkpt>
      <trkpt lat="48.57532" lon="7.7908">
        <ele>142</ele>
        <time>2019-08-08T12:52:10Z</time>
      </trkpt>
      <trkpt lat="48.5753" lon="7.79086">
        <ele>142</ele>
        <time>2019-08-08T12:52:11Z</time>
      </trkpt>
      <trkpt lat="48.57528" lon="7.7909">
        <ele>141.9</ele>
        <time>2019-08-08T12:52:12Z</time>
      </trkpt>
      <trkpt lat="48.57525" lon="7.79095">
        <ele>141.9</ele>
        <time>2019-08-08T12:52:13Z</time>
      </trkpt>
      <trkpt lat="48.57523" lon="7.79098">
        <ele>141.8</ele>
        <time>2019-08-08T12:52:14Z</time>
      </trkpt>
      <trkpt lat="48.57521" lon="7.79101">
        <ele>141.8</ele>
        <time>2019-08-08T12:52:15Z</time>
      </trkpt>
      <trkpt lat="48.57519" lon="7.79107">
        <ele>141.7</ele>
        <time>2019-08-08T12:52:16Z</time>
      </trkpt>
      <trkpt lat="48.57516" lon="7.79113">
        <ele>141.5</ele>
        <time>2019-08-08T12:52:17Z</time>
      </trkpt>
      <trkpt lat="48.57514" lon="7.79119">
        <ele>141.4</ele>
        <time>2019-08-08T12:52:18Z</time>
      </trkpt>
      <trkpt lat="48.57511" lon="7.79125">
        <ele>141.2</ele>
        <time>2019-08-08T12:52:19Z</time>
      </trkpt>
      <trkpt lat="48.57508" lon="7.7913">
        <ele>141</ele>
        <time>2019-08-08T12:52:20Z</time>
      </trkpt>
      <trkpt lat="48.57506" lon="7.79134">
        <ele>140.9</ele>
        <time>2019-08-08T12:52:21Z</time>
      </trkpt>
      <trkpt lat="48.57505" lon="7.79139">
        <ele>140.7</ele>
        <time>2019-08-08T12:52:22Z</time>
      </trkpt>
      <trkpt lat="48.57503" lon="7.79143">
        <ele>140.5</ele>
        <time>2019-08-08T12:52:23Z</time>
      </trkpt>
      <trkpt lat="48.57501" lon="7.79148">
        <ele>140.3</ele>
        <time>2019-08-08T12:52:24Z</time>
      </trkpt>
      <trkpt lat="48.575" lon="7.79153">
        <ele>140.1</ele>
        <time>2019-08-08T12:52:25Z</time>
      </trkpt>
      <trkpt lat="48.57499" lon="7.79159">
        <ele>140</ele>
        <time>2019-08-08T12:52:26Z</time>
      </trkpt>
      <trkpt lat="48.57496" lon="7.79167">
        <ele>139.7</ele>
        <time>2019-08-08T12:52:28Z</time>
      </trkpt>
      <trkpt lat="48.57495" lon="7.79172">
        <ele>139.6</ele>
        <time>2019-08-08T12:52:29Z</time>
      </trkpt>
      <trkpt lat="48.57494" lon="7.79177">
        <ele>139.4</ele>
        <time>2019-08-08T12:52:30Z</time>
      </trkpt>
      <trkpt lat="48.57492" lon="7.79183">
        <ele>139</ele>
        <time>2019-08-08T12:52:31Z</time>
      </trkpt>
      <trkpt lat="48.57489" lon="7.79189">
        <ele>138.9</ele>
        <time>2019-08-08T12:52:32Z</time>
      </trkpt>
      <trkpt lat="48.57487" lon="7.79196">
        <ele>138.9</ele>
        <time>2019-08-08T12:52:33Z</time>
      </trkpt>
      <trkpt lat="48.57485" lon="7.79201">
        <ele>138.8</ele>
        <time>2019-08-08T12:52:34Z</time>
      </trkpt>
      <trkpt lat="48.57484" lon="7.79205">
        <ele>138.8</ele>
        <time>2019-08-08T12:52:35Z</time>
      </trkpt>
      <trkpt lat="48.57482" lon="7.7921">
        <ele>138.7</ele>
        <time>2019-08-08T12:52:36Z</time>
      </trkpt>
      <trkpt lat="48.57479" lon="7.79216">
        <ele>138.6</ele>
        <time>2019-08-08T12:52:37Z</time>
      </trkpt>
      <trkpt lat="48.57477" lon="7.79221">
        <ele>138.7</ele>
        <time>2019-08-08T12:52:38Z</time>
      </trkpt>
      <trkpt lat="48.57475" lon="7.79224">
        <ele>138.9</ele>
        <time>2019-08-08T12:52:39Z</time>
      </trkpt>
      <trkpt lat="48.57473" lon="7.79229">
        <ele>139</ele>
        <time>2019-08-08T12:52:40Z</time>
      </trkpt>
      <trkpt lat="48.57472" lon="7.79233">
        <ele>139.1</ele>
        <time>2019-08-08T12:52:41Z</time>
      </trkpt>
      <trkpt lat="48.5747" lon="7.79238">
        <ele>139.2</ele>
        <time>2019-08-08T12:52:43Z</time>
      </trkpt>
      <trkpt lat="48.57468" lon="7.79244">
        <ele>139.3</ele>
        <time>2019-08-08T12:52:46Z</time>
      </trkpt>
      <trkpt lat="48.57467" lon="7.79248">
        <ele>139.3</ele>
        <time>2019-08-08T12:52:47Z</time>
      </trkpt>
      <trkpt lat="48.57464" lon="7.79252">
        <ele>139.4</ele>
        <time>2019-08-08T12:52:48Z</time>
      </trkpt>
      <trkpt lat="48.57462" lon="7.79256">
        <ele>139.4</ele>
        <time>2019-08-08T12:52:49Z</time>
      </trkpt>
      <trkpt lat="48.57461" lon="7.7926">
        <ele>139.4</ele>
        <time>2019-08-08T12:52:50Z</time>
      </trkpt>
      <trkpt lat="48.57459" lon="7.79267">
        <ele>139.4</ele>
        <time>2019-08-08T12:52:52Z</time>
      </trkpt>
      <trkpt lat="48.57457" lon="7.79272">
        <ele>139.4</ele>
        <time>2019-08-08T12:52:54Z</time>
      </trkpt>
      <trkpt lat="48.57454" lon="7.79274">
        <ele>139.4</ele>
        <time>2019-08-08T12:52:57Z</time>
      </trkpt>
      <trkpt lat="48.57452" lon="7.79277">
        <ele>139.4</ele>
        <time>2019-08-08T12:52:59Z</time>
      </trkpt>
      <trkpt lat="48.5745" lon="7.79282">
        <ele>139.4</ele>
        <time>2019-08-08T12:53:01Z</time>
      </trkpt>
      <trkpt lat="48.57448" lon="7.79287">
        <ele>139.4</ele>
        <time>2019-08-08T12:53:03Z</time>
      </trkpt>
      <trkpt lat="48.57447" lon="7.79293">
        <ele>139.3</ele>
        <time>2019-08-08T12:53:04Z</time>
      </trkpt>
      <trkpt lat="48.57446" lon="7.79298">
        <ele>139.3</ele>
        <time>2019-08-08T12:53:05Z</time>
      </trkpt>
      <trkpt lat="48.57445" lon="7.79302">
        <ele>139.3</ele>
        <time>2019-08-08T12:53:06Z</time>
      </trkpt>
      <trkpt lat="48.57443" lon="7.79306">
        <ele>139.3</ele>
        <time>2019-08-08T12:53:07Z</time>
      </trkpt>
      <trkpt lat="48.57441" lon="7.79311">
        <ele>139.4</ele>
        <time>2019-08-08T12:53:08Z</time>
      </trkpt>
      <trkpt lat="48.57439" lon="7.79315">
        <ele>139.5</ele>
        <time>2019-08-08T12:53:09Z</time>
      </trkpt>
      <trkpt lat="48.57438" lon="7.79319">
        <ele>139.5</ele>
        <time>2019-08-08T12:53:10Z</time>
      </trkpt>
      <trkpt lat="48.57436" lon="7.79323">
        <ele>139.6</ele>
        <time>2019-08-08T12:53:11Z</time>
      </trkpt>
      <trkpt lat="48.57435" lon="7.79327">
        <ele>139.7</ele>
        <time>2019-08-08T12:53:12Z</time>
      </trkpt>
      <trkpt lat="48.57433" lon="7.79333">
        <ele>139.7</ele>
        <time>2019-08-08T12:53:14Z</time>
      </trkpt>
      <trkpt lat="48.57434" lon="7.79338">
        <ele>139.7</ele>
        <time>2019-08-08T12:53:18Z</time>
      </trkpt>
      <trkpt lat="48.57436" lon="7.79343">
        <ele>139.7</ele>
        <time>2019-08-08T12:53:20Z</time>
      </trkpt>
      <trkpt lat="48.57437" lon="7.79348">
        <ele>139.7</ele>
        <time>2019-08-08T12:53:22Z</time>
      </trkpt>
      <trkpt lat="48.5744" lon="7.79351">
        <ele>139.7</ele>
        <time>2019-08-08T12:53:24Z</time>
      </trkpt>
      <trkpt lat="48.57439" lon="7.79355">
        <ele>139.7</ele>
        <time>2019-08-08T12:53:30Z</time>
      </trkpt>
      <trkpt lat="48.57435" lon="7.79357">
        <ele>139.7</ele>
        <time>2019-08-08T12:53:32Z</time>
      </trkpt>
      <trkpt lat="48.57431" lon="7.79359">
        <ele>139.7</ele>
        <time>2019-08-08T12:53:34Z</time>
      </trkpt>
      <trkpt lat="48.57428" lon="7.79361">
        <ele>139.7</ele>
        <time>2019-08-08T12:53:36Z</time>
      </trkpt>
      <trkpt lat="48.57426" lon="7.79363">
        <ele>139.7</ele>
        <time>2019-08-08T12:53:38Z</time>
      </trkpt>
      <trkpt lat="48.57423" lon="7.79368">
        <ele>139.8</ele>
        <time>2019-08-08T12:53:39Z</time>
      </trkpt>
      <trkpt lat="48.57419" lon="7.79369">
        <ele>139.8</ele>
        <time>2019-08-08T12:53:41Z</time>
      </trkpt>
      <trkpt lat="48.57416" lon="7.7937">
        <ele>139.8</ele>
        <time>2019-08-08T12:53:43Z</time>
      </trkpt>
      <trkpt lat="48.57413" lon="7.79373">
        <ele>139.8</ele>
        <time>2019-08-08T12:53:44Z</time>
      </trkpt>
      <trkpt lat="48.5741" lon="7.79376">
        <ele>139.8</ele>
        <time>2019-08-08T12:53:45Z</time>
      </trkpt>
      <trkpt lat="48.57407" lon="7.7938">
        <ele>139.9</ele>
        <time>2019-08-08T12:53:46Z</time>
      </trkpt>
      <trkpt lat="48.57403" lon="7.79383">
        <ele>139.9</ele>
        <time>2019-08-08T12:53:47Z</time>
      </trkpt>
      <trkpt lat="48.574" lon="7.79384">
        <ele>139.9</ele>
        <time>2019-08-08T12:53:48Z</time>
      </trkpt>
      <trkpt lat="48.57397" lon="7.79386">
        <ele>140.1</ele>
        <time>2019-08-08T12:53:50Z</time>
      </trkpt>
      <trkpt lat="48.57393" lon="7.79387">
        <ele>140.2</ele>
        <time>2019-08-08T12:53:52Z</time>
      </trkpt>
      <trkpt lat="48.57389" lon="7.79389">
        <ele>140.2</ele>
        <time>2019-08-08T12:53:54Z</time>
      </trkpt>
      <trkpt lat="48.57386" lon="7.79388">
        <ele>140.3</ele>
        <time>2019-08-08T12:53:55Z</time>
      </trkpt>
      <trkpt lat="48.57382" lon="7.79389">
        <ele>140.4</ele>
        <time>2019-08-08T12:53:57Z</time>
      </trkpt>
      <trkpt lat="48.57379" lon="7.79393">
        <ele>140.5</ele>
        <time>2019-08-08T12:53:59Z</time>
      </trkpt>
      <trkpt lat="48.5738" lon="7.79398">
        <ele>140.6</ele>
        <time>2019-08-08T12:54:00Z</time>
      </trkpt>
      <trkpt lat="48.57374" lon="7.79409">
        <ele>140.8</ele>
        <time>2019-08-08T12:54:13Z</time>
      </trkpt>
      <trkpt lat="48.57373" lon="7.79413">
        <ele>140.9</ele>
        <time>2019-08-08T12:54:15Z</time>
      </trkpt>
      <trkpt lat="48.57374" lon="7.79418">
        <ele>140.9</ele>
        <time>2019-08-08T12:54:17Z</time>
      </trkpt>
      <trkpt lat="48.57375" lon="7.79426">
        <ele>140.9</ele>
        <time>2019-08-08T12:54:19Z</time>
      </trkpt>
      <trkpt lat="48.57377" lon="7.79436">
        <ele>141</ele>
        <time>2019-08-08T12:54:20Z</time>
      </trkpt>
      <trkpt lat="48.57379" lon="7.79442">
        <ele>141</ele>
        <time>2019-08-08T12:54:21Z</time>
      </trkpt>
      <trkpt lat="48.5738" lon="7.79448">
        <ele>141.1</ele>
        <time>2019-08-08T12:54:22Z</time>
      </trkpt>
      <trkpt lat="48.57381" lon="7.79455">
        <ele>141.1</ele>
        <time>2019-08-08T12:54:23Z</time>
      </trkpt>
      <trkpt lat="48.57382" lon="7.79463">
        <ele>141.1</ele>
        <time>2019-08-08T12:54:24Z</time>
      </trkpt>
      <trkpt lat="48.57383" lon="7.7947">
        <ele>141.1</ele>
        <time>2019-08-08T12:54:25Z</time>
      </trkpt>
      <trkpt lat="48.57383" lon="7.79477">
        <ele>141.2</ele>
        <time>2019-08-08T12:54:26Z</time>
      </trkpt>
      <trkpt lat="48.57384" lon="7.79481">
        <ele>141.2</ele>
        <time>2019-08-08T12:54:27Z</time>
      </trkpt>
      <trkpt lat="48.57387" lon="7.79484">
        <ele>141.2</ele>
        <time>2019-08-08T12:54:29Z</time>
      </trkpt>
      <trkpt lat="48.57389" lon="7.79491">
        <ele>141.3</ele>
        <time>2019-08-08T12:54:31Z</time>
      </trkpt>
      <trkpt lat="48.57386" lon="7.79491">
        <ele>141.3</ele>
        <time>2019-08-08T12:54:41Z</time>
      </trkpt>
      <trkpt lat="48.57382" lon="7.79494">
        <ele>141.4</ele>
        <time>2019-08-08T12:54:43Z</time>
      </trkpt>
      <trkpt lat="48.57378" lon="7.79493">
        <ele>141.4</ele>
        <time>2019-08-08T12:54:44Z</time>
      </trkpt>
      <trkpt lat="48.57373" lon="7.79494">
        <ele>141.5</ele>
        <time>2019-08-08T12:54:45Z</time>
      </trkpt>
      <trkpt lat="48.57369" lon="7.79494">
        <ele>141.5</ele>
        <time>2019-08-08T12:54:47Z</time>
      </trkpt>
      <trkpt lat="48.57366" lon="7.795">
        <ele>141.6</ele>
        <time>2019-08-08T12:54:49Z</time>
      </trkpt>
      <trkpt lat="48.57364" lon="7.79504">
        <ele>141.6</ele>
        <time>2019-08-08T12:54:50Z</time>
      </trkpt>
      <trkpt lat="48.57361" lon="7.79508">
        <ele>141.6</ele>
        <time>2019-08-08T12:54:51Z</time>
      </trkpt>
      <trkpt lat="48.57359" lon="7.79512">
        <ele>141.7</ele>
        <time>2019-08-08T12:54:52Z</time>
      </trkpt>
      <trkpt lat="48.57356" lon="7.79515">
        <ele>141.7</ele>
        <time>2019-08-08T12:54:53Z</time>
      </trkpt>
      <trkpt lat="48.57354" lon="7.79518">
        <ele>141.8</ele>
        <time>2019-08-08T12:54:54Z</time>
      </trkpt>
      <trkpt lat="48.57351" lon="7.79522">
        <ele>141.8</ele>
        <time>2019-08-08T12:54:55Z</time>
      </trkpt>
      <trkpt lat="48.5735" lon="7.79525">
        <ele>141.8</ele>
        <time>2019-08-08T12:54:56Z</time>
      </trkpt>
      <trkpt lat="48.57348" lon="7.79528">
        <ele>141.9</ele>
        <time>2019-08-08T12:54:57Z</time>
      </trkpt>
      <trkpt lat="48.57345" lon="7.79532">
        <ele>141.9</ele>
        <time>2019-08-08T12:54:58Z</time>
      </trkpt>
      <trkpt lat="48.57342" lon="7.79536">
        <ele>142</ele>
        <time>2019-08-08T12:54:59Z</time>
      </trkpt>
      <trkpt lat="48.57339" lon="7.79535">
        <ele>142</ele>
        <time>2019-08-08T12:55:01Z</time>
      </trkpt>
      <trkpt lat="48.57334" lon="7.79539">
        <ele>142.1</ele>
        <time>2019-08-08T12:55:03Z</time>
      </trkpt>
      <trkpt lat="48.57331" lon="7.79541">
        <ele>142.1</ele>
        <time>2019-08-08T12:55:04Z</time>
      </trkpt>
      <trkpt lat="48.57329" lon="7.79545">
        <ele>142.1</ele>
        <time>2019-08-08T12:55:05Z</time>
      </trkpt>
      <trkpt lat="48.57326" lon="7.79547">
        <ele>142.1</ele>
        <time>2019-08-08T12:55:06Z</time>
      </trkpt>
      <trkpt lat="48.57322" lon="7.79548">
        <ele>142.1</ele>
        <time>2019-08-08T12:55:07Z</time>
      </trkpt>
      <trkpt lat="48.57316" lon="7.79546">
        <ele>142.1</ele>
        <time>2019-08-08T12:55:08Z</time>
      </trkpt>
      <trkpt lat="48.57308" lon="7.79545">
        <ele>142.1</ele>
        <time>2019-08-08T12:55:10Z</time>
      </trkpt>
      <trkpt lat="48.57304" lon="7.79542">
        <ele>142.1</ele>
        <time>2019-08-08T12:55:11Z</time>
      </trkpt>
      <trkpt lat="48.57301" lon="7.79542">
        <ele>142.1</ele>
        <time>2019-08-08T12:55:12Z</time>
      </trkpt>
      <trkpt lat="48.57298" lon="7.79538">
        <ele>142.1</ele>
        <time>2019-08-08T12:55:14Z</time>
      </trkpt>
      <trkpt lat="48.57294" lon="7.79538">
        <ele>142.1</ele>
        <time>2019-08-08T12:55:16Z</time>
      </trkpt>
      <trkpt lat="48.57291" lon="7.79537">
        <ele>142</ele>
        <time>2019-08-08T12:55:17Z</time>
      </trkpt>
      <trkpt lat="48.57287" lon="7.79538">
        <ele>141.9</ele>
        <time>2019-08-08T12:55:19Z</time>
      </trkpt>
      <trkpt lat="48.57283" lon="7.7954">
        <ele>141.9</ele>
        <time>2019-08-08T12:55:20Z</time>
      </trkpt>
      <trkpt lat="48.57282" lon="7.79549">
        <ele>141.9</ele>
        <time>2019-08-08T12:55:54Z</time>
      </trkpt>
      <trkpt lat="48.57282" lon="7.79553">
        <ele>141.8</ele>
        <time>2019-08-08T12:55:56Z</time>
      </trkpt>
      <trkpt lat="48.57284" lon="7.79561">
        <ele>141.8</ele>
        <time>2019-08-08T12:55:58Z</time>
      </trkpt>
      <trkpt lat="48.57283" lon="7.79565">
        <ele>141.8</ele>
        <time>2019-08-08T12:55:59Z</time>
      </trkpt>
      <trkpt lat="48.57284" lon="7.7957">
        <ele>141.9</ele>
        <time>2019-08-08T12:56:00Z</time>
      </trkpt>
      <trkpt lat="48.57284" lon="7.79575">
        <ele>141.9</ele>
        <time>2019-08-08T12:56:01Z</time>
      </trkpt>
      <trkpt lat="48.57285" lon="7.79582">
        <ele>142</ele>
        <time>2019-08-08T12:56:02Z</time>
      </trkpt>
      <trkpt lat="48.57287" lon="7.79589">
        <ele>142</ele>
        <time>2019-08-08T12:56:03Z</time>
      </trkpt>
      <trkpt lat="48.57287" lon="7.79595">
        <ele>142.1</ele>
        <time>2019-08-08T12:56:04Z</time>
      </trkpt>
      <trkpt lat="48.57287" lon="7.79602">
        <ele>142.1</ele>
        <time>2019-08-08T12:56:06Z</time>
      </trkpt>
      <trkpt lat="48.57288" lon="7.7961">
        <ele>142.2</ele>
        <time>2019-08-08T12:56:07Z</time>
      </trkpt>
      <trkpt lat="48.57288" lon="7.79616">
        <ele>142.3</ele>
        <time>2019-08-08T12:56:08Z</time>
      </trkpt>
      <trkpt lat="48.57289" lon="7.79622">
        <ele>142.3</ele>
        <time>2019-08-08T12:56:09Z</time>
      </trkpt>
      <trkpt lat="48.5729" lon="7.79629">
        <ele>142.4</ele>
        <time>2019-08-08T12:56:10Z</time>
      </trkpt>
      <trkpt lat="48.57291" lon="7.79635">
        <ele>142.4</ele>
        <time>2019-08-08T12:56:11Z</time>
      </trkpt>
      <trkpt lat="48.57291" lon="7.79641">
        <ele>142.5</ele>
        <time>2019-08-08T12:56:12Z</time>
      </trkpt>
      <trkpt lat="48.57292" lon="7.79646">
        <ele>142.6</ele>
        <time>2019-08-08T12:56:13Z</time>
      </trkpt>
      <trkpt lat="48.57293" lon="7.7965">
        <ele>142.6</ele>
        <time>2019-08-08T12:56:14Z</time>
      </trkpt>
      <trkpt lat="48.57294" lon="7.79654">
        <ele>142.7</ele>
        <time>2019-08-08T12:56:15Z</time>
      </trkpt>
      <trkpt lat="48.57295" lon="7.79661">
        <ele>142.8</ele>
        <time>2019-08-08T12:56:17Z</time>
      </trkpt>
      <trkpt lat="48.573" lon="7.79665">
        <ele>142.9</ele>
        <time>2019-08-08T12:56:19Z</time>
      </trkpt>
      <trkpt lat="48.57302" lon="7.79669">
        <ele>143.1</ele>
        <time>2019-08-08T12:56:20Z</time>
      </trkpt>
      <trkpt lat="48.57303" lon="7.79673">
        <ele>143.2</ele>
        <time>2019-08-08T12:56:21Z</time>
      </trkpt>
      <trkpt lat="48.57305" lon="7.7968">
        <ele>143.5</ele>
        <time>2019-08-08T12:56:23Z</time>
      </trkpt>
      <trkpt lat="48.57306" lon="7.79685">
        <ele>143.6</ele>
        <time>2019-08-08T12:56:24Z</time>
      </trkpt>
      <trkpt lat="48.57309" lon="7.7969">
        <ele>143.8</ele>
        <time>2019-08-08T12:56:25Z</time>
      </trkpt>
      <trkpt lat="48.5731" lon="7.79694">
        <ele>143.9</ele>
        <time>2019-08-08T12:56:26Z</time>
      </trkpt>
      <trkpt lat="48.57311" lon="7.79698">
        <ele>144.1</ele>
        <time>2019-08-08T12:56:27Z</time>
      </trkpt>
      <trkpt lat="48.57314" lon="7.79702">
        <ele>144.2</ele>
        <time>2019-08-08T12:56:28Z</time>
      </trkpt>
      <trkpt lat="48.57314" lon="7.79707">
        <ele>144.3</ele>
        <time>2019-08-08T12:56:29Z</time>
      </trkpt>
      <trkpt lat="48.57315" lon="7.79712">
        <ele>144.5</ele>
        <time>2019-08-08T12:56:30Z</time>
      </trkpt>
      <trkpt lat="48.57317" lon="7.79717">
        <ele>144.6</ele>
        <time>2019-08-08T12:56:31Z</time>
      </trkpt>
      <trkpt lat="48.57318" lon="7.79723">
        <ele>144.8</ele>
        <time>2019-08-08T12:56:32Z</time>
      </trkpt>
      <trkpt lat="48.57319" lon="7.7973">
        <ele>145</ele>
        <time>2019-08-08T12:56:34Z</time>
      </trkpt>
      <trkpt lat="48.57322" lon="7.79736">
        <ele>145.1</ele>
        <time>2019-08-08T12:56:35Z</time>
      </trkpt>
      <trkpt lat="48.57322" lon="7.79742">
        <ele>145.2</ele>
        <time>2019-08-08T12:56:36Z</time>
      </trkpt>
      <trkpt lat="48.57325" lon="7.79746">
        <ele>145.4</ele>
        <time>2019-08-08T12:56:37Z</time>
      </trkpt>
      <trkpt lat="48.57327" lon="7.7975">
        <ele>145.5</ele>
        <time>2019-08-08T12:56:38Z</time>
      </trkpt>
      <trkpt lat="48.57328" lon="7.79754">
        <ele>145.5</ele>
        <time>2019-08-08T12:56:39Z</time>
      </trkpt>
      <trkpt lat="48.5733" lon="7.79759">
        <ele>145.6</ele>
        <time>2019-08-08T12:56:40Z</time>
      </trkpt>
      <trkpt lat="48.57331" lon="7.79763">
        <ele>145.7</ele>
        <time>2019-08-08T12:56:41Z</time>
      </trkpt>
      <trkpt lat="48.57332" lon="7.79767">
        <ele>145.8</ele>
        <time>2019-08-08T12:56:42Z</time>
      </trkpt>
      <trkpt lat="48.57333" lon="7.79773">
        <ele>145.8</ele>
        <time>2019-08-08T12:56:44Z</time>
      </trkpt>
      <trkpt lat="48.57335" lon="7.79776">
        <ele>145.9</ele>
        <time>2019-08-08T12:56:45Z</time>
      </trkpt>
      <trkpt lat="48.57338" lon="7.79779">
        <ele>145.9</ele>
        <time>2019-08-08T12:56:48Z</time>
      </trkpt>
      <trkpt lat="48.57339" lon="7.79784">
        <ele>145.9</ele>
        <time>2019-08-08T12:56:50Z</time>
      </trkpt>
      <trkpt lat="48.57339" lon="7.79791">
        <ele>145.8</ele>
        <time>2019-08-08T12:56:51Z</time>
      </trkpt>
      <trkpt lat="48.5734" lon="7.79796">
        <ele>145.7</ele>
        <time>2019-08-08T12:56:52Z</time>
      </trkpt>
      <trkpt lat="48.5734" lon="7.79801">
        <ele>145.6</ele>
        <time>2019-08-08T12:56:53Z</time>
      </trkpt>
      <trkpt lat="48.57342" lon="7.79808">
        <ele>145.6</ele>
        <time>2019-08-08T12:56:55Z</time>
      </trkpt>
      <trkpt lat="48.57342" lon="7.79812">
        <ele>145.1</ele>
        <time>2019-08-08T12:56:56Z</time>
      </trkpt>
      <trkpt lat="48.57342" lon="7.79818">
        <ele>145.1</ele>
        <time>2019-08-08T12:56:57Z</time>
      </trkpt>
      <trkpt lat="48.57342" lon="7.79823">
        <ele>145.1</ele>
        <time>2019-08-08T12:56:58Z</time>
      </trkpt>
      <trkpt lat="48.57344" lon="7.7983">
        <ele>145.1</ele>
        <time>2019-08-08T12:56:59Z</time>
      </trkpt>
      <trkpt lat="48.57345" lon="7.79835">
        <ele>144.7</ele>
        <time>2019-08-08T12:57:00Z</time>
      </trkpt>
      <trkpt lat="48.57347" lon="7.79839">
        <ele>144.6</ele>
        <time>2019-08-08T12:57:01Z</time>
      </trkpt>
      <trkpt lat="48.57348" lon="7.79845">
        <ele>144.3</ele>
        <time>2019-08-08T12:57:02Z</time>
      </trkpt>
      <trkpt lat="48.57349" lon="7.7985">
        <ele>144.2</ele>
        <time>2019-08-08T12:57:03Z</time>
      </trkpt>
      <trkpt lat="48.5735" lon="7.79855">
        <ele>144</ele>
        <time>2019-08-08T12:57:04Z</time>
      </trkpt>
      <trkpt lat="48.57352" lon="7.79861">
        <ele>143.8</ele>
        <time>2019-08-08T12:57:05Z</time>
      </trkpt>
      <trkpt lat="48.57354" lon="7.79865">
        <ele>143.6</ele>
        <time>2019-08-08T12:57:06Z</time>
      </trkpt>
      <trkpt lat="48.57357" lon="7.79873">
        <ele>143.3</ele>
        <time>2019-08-08T12:57:08Z</time>
      </trkpt>
      <trkpt lat="48.5736" lon="7.79878">
        <ele>143.1</ele>
        <time>2019-08-08T12:57:09Z</time>
      </trkpt>
      <trkpt lat="48.57362" lon="7.79882">
        <ele>142.9</ele>
        <time>2019-08-08T12:57:10Z</time>
      </trkpt>
      <trkpt lat="48.57363" lon="7.79888">
        <ele>142.7</ele>
        <time>2019-08-08T12:57:11Z</time>
      </trkpt>
      <trkpt lat="48.57364" lon="7.79893">
        <ele>142.5</ele>
        <time>2019-08-08T12:57:12Z</time>
      </trkpt>
      <trkpt lat="48.57365" lon="7.79897">
        <ele>142.4</ele>
        <time>2019-08-08T12:57:13Z</time>
      </trkpt>
      <trkpt lat="48.57366" lon="7.79902">
        <ele>142.2</ele>
        <time>2019-08-08T12:57:14Z</time>
      </trkpt>
      <trkpt lat="48.57367" lon="7.79907">
        <ele>142</ele>
        <time>2019-08-08T12:57:15Z</time>
      </trkpt>
      <trkpt lat="48.57369" lon="7.79912">
        <ele>141.8</ele>
        <time>2019-08-08T12:57:16Z</time>
      </trkpt>
      <trkpt lat="48.57371" lon="7.79916">
        <ele>141.7</ele>
        <time>2019-08-08T12:57:17Z</time>
      </trkpt>
      <trkpt lat="48.57372" lon="7.7992">
        <ele>141.6</ele>
        <time>2019-08-08T12:57:18Z</time>
      </trkpt>
      <trkpt lat="48.57373" lon="7.79925">
        <ele>141.5</ele>
        <time>2019-08-08T12:57:19Z</time>
      </trkpt>
      <trkpt lat="48.57374" lon="7.7993">
        <ele>141.3</ele>
        <time>2019-08-08T12:57:20Z</time>
      </trkpt>
      <trkpt lat="48.57376" lon="7.79934">
        <ele>141.2</ele>
        <time>2019-08-08T12:57:21Z</time>
      </trkpt>
      <trkpt lat="48.57377" lon="7.79939">
        <ele>141</ele>
        <time>2019-08-08T12:57:22Z</time>
      </trkpt>
      <trkpt lat="48.57379" lon="7.79947">
        <ele>140.8</ele>
        <time>2019-08-08T12:57:24Z</time>
      </trkpt>
      <trkpt lat="48.57383" lon="7.79953">
        <ele>140.6</ele>
        <time>2019-08-08T12:57:26Z</time>
      </trkpt>
      <trkpt lat="48.57384" lon="7.79959">
        <ele>140.4</ele>
        <time>2019-08-08T12:57:27Z</time>
      </trkpt>
      <trkpt lat="48.57384" lon="7.79963">
        <ele>140.4</ele>
        <time>2019-08-08T12:57:28Z</time>
      </trkpt>
      <trkpt lat="48.57386" lon="7.79967">
        <ele>140.5</ele>
        <time>2019-08-08T12:57:29Z</time>
      </trkpt>
      <trkpt lat="48.57386" lon="7.79973">
        <ele>140.5</ele>
        <time>2019-08-08T12:57:30Z</time>
      </trkpt>
      <trkpt lat="48.57388" lon="7.79977">
        <ele>140.5</ele>
        <time>2019-08-08T12:57:31Z</time>
      </trkpt>
      <trkpt lat="48.5739" lon="7.79982">
        <ele>140.6</ele>
        <time>2019-08-08T12:57:32Z</time>
      </trkpt>
      <trkpt lat="48.5739" lon="7.79987">
        <ele>140.6</ele>
        <time>2019-08-08T12:57:33Z</time>
      </trkpt>
      <trkpt lat="48.57392" lon="7.79992">
        <ele>140.7</ele>
        <time>2019-08-08T12:57:34Z</time>
      </trkpt>
      <trkpt lat="48.57393" lon="7.79997">
        <ele>140.8</ele>
        <time>2019-08-08T12:57:35Z</time>
      </trkpt>
      <trkpt lat="48.57393" lon="7.80002">
        <ele>140.8</ele>
        <time>2019-08-08T12:57:36Z</time>
      </trkpt>
      <trkpt lat="48.57393" lon="7.80009">
        <ele>140.9</ele>
        <time>2019-08-08T12:57:38Z</time>
      </trkpt>
      <trkpt lat="48.57394" lon="7.80016">
        <ele>141.1</ele>
        <time>2019-08-08T12:57:40Z</time>
      </trkpt>
      <trkpt lat="48.57394" lon="7.80022">
        <ele>141.2</ele>
        <time>2019-08-08T12:57:41Z</time>
      </trkpt>
      <trkpt lat="48.57395" lon="7.80026">
        <ele>141.3</ele>
        <time>2019-08-08T12:57:42Z</time>
      </trkpt>
      <trkpt lat="48.57396" lon="7.8003">
        <ele>141.3</ele>
        <time>2019-08-08T12:57:43Z</time>
      </trkpt>
      <trkpt lat="48.57398" lon="7.80035">
        <ele>141.5</ele>
        <time>2019-08-08T12:57:44Z</time>
      </trkpt>
      <trkpt lat="48.57399" lon="7.8004">
        <ele>141.6</ele>
        <time>2019-08-08T12:57:45Z</time>
      </trkpt>
      <trkpt lat="48.574" lon="7.80044">
        <ele>141.6</ele>
        <time>2019-08-08T12:57:46Z</time>
      </trkpt>
      <trkpt lat="48.574" lon="7.8005">
        <ele>141.7</ele>
        <time>2019-08-08T12:57:47Z</time>
      </trkpt>
      <trkpt lat="48.57402" lon="7.80056">
        <ele>141.8</ele>
        <time>2019-08-08T12:57:48Z</time>
      </trkpt>
      <trkpt lat="48.57403" lon="7.8006">
        <ele>141.9</ele>
        <time>2019-08-08T12:57:49Z</time>
      </trkpt>
      <trkpt lat="48.57404" lon="7.80068">
        <ele>142</ele>
        <time>2019-08-08T12:57:51Z</time>
      </trkpt>
      <trkpt lat="48.57405" lon="7.80072">
        <ele>142.1</ele>
        <time>2019-08-08T12:57:52Z</time>
      </trkpt>
      <trkpt lat="48.57406" lon="7.80078">
        <ele>142.2</ele>
        <time>2019-08-08T12:57:53Z</time>
      </trkpt>
      <trkpt lat="48.57407" lon="7.80084">
        <ele>142.3</ele>
        <time>2019-08-08T12:57:54Z</time>
      </trkpt>
      <trkpt lat="48.57408" lon="7.80089">
        <ele>142.3</ele>
        <time>2019-08-08T12:57:55Z</time>
      </trkpt>
      <trkpt lat="48.57409" lon="7.80095">
        <ele>142.4</ele>
        <time>2019-08-08T12:57:56Z</time>
      </trkpt>
      <trkpt lat="48.5741" lon="7.80099">
        <ele>142.4</ele>
        <time>2019-08-08T12:57:57Z</time>
      </trkpt>
      <trkpt lat="48.57411" lon="7.80102">
        <ele>142.5</ele>
        <time>2019-08-08T12:57:58Z</time>
      </trkpt>
      <trkpt lat="48.57412" lon="7.80107">
        <ele>142.5</ele>
        <time>2019-08-08T12:57:59Z</time>
      </trkpt>
      <trkpt lat="48.57412" lon="7.80112">
        <ele>142.5</ele>
        <time>2019-08-08T12:58:00Z</time>
      </trkpt>
      <trkpt lat="48.57412" lon="7.80117">
        <ele>142.5</ele>
        <time>2019-08-08T12:58:01Z</time>
      </trkpt>
      <trkpt lat="48.57413" lon="7.80122">
        <ele>142.5</ele>
        <time>2019-08-08T12:58:02Z</time>
      </trkpt>
      <trkpt lat="48.57414" lon="7.80127">
        <ele>142.5</ele>
        <time>2019-08-08T12:58:03Z</time>
      </trkpt>
      <trkpt lat="48.57415" lon="7.80132">
        <ele>142.4</ele>
        <time>2019-08-08T12:58:04Z</time>
      </trkpt>
      <trkpt lat="48.57416" lon="7.80138">
        <ele>142.4</ele>
        <time>2019-08-08T12:58:05Z</time>
      </trkpt>
      <trkpt lat="48.57418" lon="7.80142">
        <ele>142.4</ele>
        <time>2019-08-08T12:58:06Z</time>
      </trkpt>
      <trkpt lat="48.5742" lon="7.80149">
        <ele>142.4</ele>
        <time>2019-08-08T12:58:08Z</time>
      </trkpt>
      <trkpt lat="48.57422" lon="7.80155">
        <ele>142.4</ele>
        <time>2019-08-08T12:58:09Z</time>
      </trkpt>
      <trkpt lat="48.57423" lon="7.80162">
        <ele>142.4</ele>
        <time>2019-08-08T12:58:10Z</time>
      </trkpt>
      <trkpt lat="48.57424" lon="7.80167">
        <ele>142.4</ele>
        <time>2019-08-08T12:58:11Z</time>
      </trkpt>
      <trkpt lat="48.57424" lon="7.80172">
        <ele>142.4</ele>
        <time>2019-08-08T12:58:12Z</time>
      </trkpt>
      <trkpt lat="48.57427" lon="7.80179">
        <ele>142.4</ele>
        <time>2019-08-08T12:58:13Z</time>
      </trkpt>
      <trkpt lat="48.57428" lon="7.80184">
        <ele>142.4</ele>
        <time>2019-08-08T12:58:14Z</time>
      </trkpt>
      <trkpt lat="48.57429" lon="7.80188">
        <ele>142.4</ele>
        <time>2019-08-08T12:58:15Z</time>
      </trkpt>
      <trkpt lat="48.57429" lon="7.80194">
        <ele>142.3</ele>
        <time>2019-08-08T12:58:16Z</time>
      </trkpt>
      <trkpt lat="48.5743" lon="7.80198">
        <ele>142.2</ele>
        <time>2019-08-08T12:58:17Z</time>
      </trkpt>
      <trkpt lat="48.57431" lon="7.80203">
        <ele>142.1</ele>
        <time>2019-08-08T12:58:18Z</time>
      </trkpt>
      <trkpt lat="48.57433" lon="7.80208">
        <ele>142</ele>
        <time>2019-08-08T12:58:19Z</time>
      </trkpt>
      <trkpt lat="48.57434" lon="7.80214">
        <ele>141.8</ele>
        <time>2019-08-08T12:58:20Z</time>
      </trkpt>
      <trkpt lat="48.57435" lon="7.8022">
        <ele>141.7</ele>
        <time>2019-08-08T12:58:21Z</time>
      </trkpt>
      <trkpt lat="48.57435" lon="7.80225">
        <ele>141.5</ele>
        <time>2019-08-08T12:58:22Z</time>
      </trkpt>
      <trkpt lat="48.57436" lon="7.80231">
        <ele>141.4</ele>
        <time>2019-08-08T12:58:23Z</time>
      </trkpt>
      <trkpt lat="48.57437" lon="7.80237">
        <ele>141.2</ele>
        <time>2019-08-08T12:58:24Z</time>
      </trkpt>
      <trkpt lat="48.57439" lon="7.80243">
        <ele>141</ele>
        <time>2019-08-08T12:58:25Z</time>
      </trkpt>
      <trkpt lat="48.5744" lon="7.80249">
        <ele>140.8</ele>
        <time>2019-08-08T12:58:26Z</time>
      </trkpt>
      <trkpt lat="48.57441" lon="7.80255">
        <ele>140.6</ele>
        <time>2019-08-08T12:58:27Z</time>
      </trkpt>
      <trkpt lat="48.57442" lon="7.80261">
        <ele>140.4</ele>
        <time>2019-08-08T12:58:28Z</time>
      </trkpt>
      <trkpt lat="48.57442" lon="7.80267">
        <ele>140.2</ele>
        <time>2019-08-08T12:58:29Z</time>
      </trkpt>
      <trkpt lat="48.57443" lon="7.80272">
        <ele>140</ele>
        <time>2019-08-08T12:58:30Z</time>
      </trkpt>
      <trkpt lat="48.57444" lon="7.8028">
        <ele>139.7</ele>
        <time>2019-08-08T12:58:31Z</time>
      </trkpt>
      <trkpt lat="48.57445" lon="7.80287">
        <ele>139.6</ele>
        <time>2019-08-08T12:58:32Z</time>
      </trkpt>
      <trkpt lat="48.57446" lon="7.80292">
        <ele>139.4</ele>
        <time>2019-08-08T12:58:33Z</time>
      </trkpt>
      <trkpt lat="48.57448" lon="7.80296">
        <ele>139.2</ele>
        <time>2019-08-08T12:58:34Z</time>
      </trkpt>
      <trkpt lat="48.57449" lon="7.80301">
        <ele>139.1</ele>
        <time>2019-08-08T12:58:35Z</time>
      </trkpt>
      <trkpt lat="48.5745" lon="7.80307">
        <ele>138.9</ele>
        <time>2019-08-08T12:58:36Z</time>
      </trkpt>
      <trkpt lat="48.57451" lon="7.80314">
        <ele>138.7</ele>
        <time>2019-08-08T12:58:38Z</time>
      </trkpt>
      <trkpt lat="48.57453" lon="7.80318">
        <ele>138.5</ele>
        <time>2019-08-08T12:58:39Z</time>
      </trkpt>
      <trkpt lat="48.57455" lon="7.80324">
        <ele>138.2</ele>
        <time>2019-08-08T12:58:40Z</time>
      </trkpt>
      <trkpt lat="48.57457" lon="7.80332">
        <ele>137.9</ele>
        <time>2019-08-08T12:58:41Z</time>
      </trkpt>
      <trkpt lat="48.57458" lon="7.80341">
        <ele>137.5</ele>
        <time>2019-08-08T12:58:42Z</time>
      </trkpt>
      <trkpt lat="48.57459" lon="7.80349">
        <ele>137.2</ele>
        <time>2019-08-08T12:58:43Z</time>
      </trkpt>
      <trkpt lat="48.57461" lon="7.80356">
        <ele>136.7</ele>
        <time>2019-08-08T12:58:44Z</time>
      </trkpt>
      <trkpt lat="48.57462" lon="7.80363">
        <ele>136.8</ele>
        <time>2019-08-08T12:58:45Z</time>
      </trkpt>
      <trkpt lat="48.57463" lon="7.80369">
        <ele>136.9</ele>
        <time>2019-08-08T12:58:46Z</time>
      </trkpt>
      <trkpt lat="48.57465" lon="7.80375">
        <ele>137.1</ele>
        <time>2019-08-08T12:58:47Z</time>
      </trkpt>
      <trkpt lat="48.57467" lon="7.80381">
        <ele>137.2</ele>
        <time>2019-08-08T12:58:48Z</time>
      </trkpt>
      <trkpt lat="48.57469" lon="7.80386">
        <ele>137.3</ele>
        <time>2019-08-08T12:58:49Z</time>
      </trkpt>
      <trkpt lat="48.57472" lon="7.80392">
        <ele>137.3</ele>
        <time>2019-08-08T12:58:50Z</time>
      </trkpt>
      <trkpt lat="48.57474" lon="7.80397">
        <ele>137.3</ele>
        <time>2019-08-08T12:58:51Z</time>
      </trkpt>
      <trkpt lat="48.57475" lon="7.80402">
        <ele>137.3</ele>
        <time>2019-08-08T12:58:52Z</time>
      </trkpt>
      <trkpt lat="48.57476" lon="7.80406">
        <ele>137.3</ele>
        <time>2019-08-08T12:58:53Z</time>
      </trkpt>
      <trkpt lat="48.57479" lon="7.80411">
        <ele>137.3</ele>
        <time>2019-08-08T12:58:54Z</time>
      </trkpt>
      <trkpt lat="48.57481" lon="7.80414">
        <ele>137.3</ele>
        <time>2019-08-08T12:58:55Z</time>
      </trkpt>
      <trkpt lat="48.57485" lon="7.80421">
        <ele>137.3</ele>
        <time>2019-08-08T12:58:56Z</time>
      </trkpt>
      <trkpt lat="48.57487" lon="7.80428">
        <ele>137.3</ele>
        <time>2019-08-08T12:58:57Z</time>
      </trkpt>
      <trkpt lat="48.5749" lon="7.80434">
        <ele>137.3</ele>
        <time>2019-08-08T12:58:58Z</time>
      </trkpt>
      <trkpt lat="48.57494" lon="7.8044">
        <ele>137.4</ele>
        <time>2019-08-08T12:58:59Z</time>
      </trkpt>
      <trkpt lat="48.57497" lon="7.80446">
        <ele>137.5</ele>
        <time>2019-08-08T12:59:00Z</time>
      </trkpt>
      <trkpt lat="48.575" lon="7.80451">
        <ele>137.7</ele>
        <time>2019-08-08T12:59:01Z</time>
      </trkpt>
      <trkpt lat="48.57504" lon="7.80456">
        <ele>137.8</ele>
        <time>2019-08-08T12:59:02Z</time>
      </trkpt>
      <trkpt lat="48.57506" lon="7.80462">
        <ele>137.9</ele>
        <time>2019-08-08T12:59:03Z</time>
      </trkpt>
      <trkpt lat="48.57509" lon="7.80468">
        <ele>138.1</ele>
        <time>2019-08-08T12:59:04Z</time>
      </trkpt>
      <trkpt lat="48.5751" lon="7.80476">
        <ele>138.3</ele>
        <time>2019-08-08T12:59:05Z</time>
      </trkpt>
      <trkpt lat="48.57512" lon="7.80483">
        <ele>138.5</ele>
        <time>2019-08-08T12:59:06Z</time>
      </trkpt>
      <trkpt lat="48.57514" lon="7.80489">
        <ele>138.6</ele>
        <time>2019-08-08T12:59:07Z</time>
      </trkpt>
      <trkpt lat="48.57516" lon="7.80497">
        <ele>138.8</ele>
        <time>2019-08-08T12:59:08Z</time>
      </trkpt>
      <trkpt lat="48.57519" lon="7.80504">
        <ele>139</ele>
        <time>2019-08-08T12:59:09Z</time>
      </trkpt>
      <trkpt lat="48.57521" lon="7.80508">
        <ele>139.1</ele>
        <time>2019-08-08T12:59:10Z</time>
      </trkpt>
      <trkpt lat="48.57522" lon="7.80514">
        <ele>139.2</ele>
        <time>2019-08-08T12:59:11Z</time>
      </trkpt>
      <trkpt lat="48.57524" lon="7.80518">
        <ele>139.4</ele>
        <time>2019-08-08T12:59:12Z</time>
      </trkpt>
      <trkpt lat="48.57525" lon="7.80523">
        <ele>139.5</ele>
        <time>2019-08-08T12:59:13Z</time>
      </trkpt>
      <trkpt lat="48.57527" lon="7.80527">
        <ele>139.6</ele>
        <time>2019-08-08T12:59:14Z</time>
      </trkpt>
      <trkpt lat="48.57528" lon="7.80531">
        <ele>139.7</ele>
        <time>2019-08-08T12:59:15Z</time>
      </trkpt>
      <trkpt lat="48.57531" lon="7.80538">
        <ele>139.9</ele>
        <time>2019-08-08T12:59:17Z</time>
      </trkpt>
      <trkpt lat="48.57534" lon="7.80541">
        <ele>140</ele>
        <time>2019-08-08T12:59:18Z</time>
      </trkpt>
      <trkpt lat="48.57536" lon="7.80545">
        <ele>140.2</ele>
        <time>2019-08-08T12:59:19Z</time>
      </trkpt>
      <trkpt lat="48.57538" lon="7.80549">
        <ele>140.3</ele>
        <time>2019-08-08T12:59:20Z</time>
      </trkpt>
      <trkpt lat="48.57539" lon="7.80553">
        <ele>140.4</ele>
        <time>2019-08-08T12:59:21Z</time>
      </trkpt>
      <trkpt lat="48.57542" lon="7.80559">
        <ele>140.7</ele>
        <time>2019-08-08T12:59:23Z</time>
      </trkpt>
      <trkpt lat="48.57545" lon="7.80566">
        <ele>140.9</ele>
        <time>2019-08-08T12:59:25Z</time>
      </trkpt>
      <trkpt lat="48.57546" lon="7.8057">
        <ele>141</ele>
        <time>2019-08-08T12:59:26Z</time>
      </trkpt>
      <trkpt lat="48.57549" lon="7.80574">
        <ele>141.2</ele>
        <time>2019-08-08T12:59:28Z</time>
      </trkpt>
      <trkpt lat="48.57553" lon="7.80578">
        <ele>141.1</ele>
        <time>2019-08-08T12:59:30Z</time>
      </trkpt>
      <trkpt lat="48.57555" lon="7.80583">
        <ele>141</ele>
        <time>2019-08-08T12:59:32Z</time>
      </trkpt>
      <trkpt lat="48.57556" lon="7.80589">
        <ele>140.9</ele>
        <time>2019-08-08T12:59:34Z</time>
      </trkpt>
      <trkpt lat="48.57558" lon="7.80595">
        <ele>140.8</ele>
        <time>2019-08-08T12:59:36Z</time>
      </trkpt>
      <trkpt lat="48.5756" lon="7.80601">
        <ele>140.7</ele>
        <time>2019-08-08T12:59:38Z</time>
      </trkpt>
      <trkpt lat="48.57561" lon="7.80608">
        <ele>140.6</ele>
        <time>2019-08-08T12:59:40Z</time>
      </trkpt>
      <trkpt lat="48.57563" lon="7.80615">
        <ele>140.4</ele>
        <time>2019-08-08T12:59:42Z</time>
      </trkpt>
      <trkpt lat="48.57565" lon="7.80622">
        <ele>140.3</ele>
        <time>2019-08-08T12:59:44Z</time>
      </trkpt>
      <trkpt lat="48.57568" lon="7.80628">
        <ele>140.2</ele>
        <time>2019-08-08T12:59:46Z</time>
      </trkpt>
      <trkpt lat="48.5757" lon="7.80632">
        <ele>140.1</ele>
        <time>2019-08-08T12:59:47Z</time>
      </trkpt>
      <trkpt lat="48.57571" lon="7.80636">
        <ele>140</ele>
        <time>2019-08-08T12:59:48Z</time>
      </trkpt>
      <trkpt lat="48.57572" lon="7.80639">
        <ele>139.9</ele>
        <time>2019-08-08T12:59:49Z</time>
      </trkpt>
      <trkpt lat="48.57573" lon="7.80644">
        <ele>139.8</ele>
        <time>2019-08-08T12:59:50Z</time>
      </trkpt>
      <trkpt lat="48.57574" lon="7.80648">
        <ele>139.7</ele>
        <time>2019-08-08T12:59:51Z</time>
      </trkpt>
      <trkpt lat="48.57576" lon="7.80652">
        <ele>139.7</ele>
        <time>2019-08-08T12:59:52Z</time>
      </trkpt>
      <trkpt lat="48.57578" lon="7.80658">
        <ele>139.5</ele>
        <time>2019-08-08T12:59:54Z</time>
      </trkpt>
      <trkpt lat="48.57581" lon="7.80663">
        <ele>139.4</ele>
        <time>2019-08-08T12:59:56Z</time>
      </trkpt>
      <trkpt lat="48.57584" lon="7.80667">
        <ele>139.3</ele>
        <time>2019-08-08T12:59:58Z</time>
      </trkpt>
      <trkpt lat="48.57587" lon="7.80669">
        <ele>139.3</ele>
        <time>2019-08-08T13:00:00Z</time>
      </trkpt>
      <trkpt lat="48.57593" lon="7.80669">
        <ele>139.2</ele>
        <time>2019-08-08T13:00:02Z</time>
      </trkpt>
      <trkpt lat="48.57596" lon="7.80668">
        <ele>139.3</ele>
        <time>2019-08-08T13:00:04Z</time>
      </trkpt>
      <trkpt lat="48.576" lon="7.80668">
        <ele>139.3</ele>
        <time>2019-08-08T13:01:04Z</time>
      </trkpt>
      <trkpt lat="48.57599" lon="7.80672">
        <ele>139.2</ele>
        <time>2019-08-08T13:01:05Z</time>
      </trkpt>
      <trkpt lat="48.57602" lon="7.8067">
        <ele>139.2</ele>
        <time>2019-08-08T13:04:41Z</time>
      </trkpt>
      <trkpt lat="48.57605" lon="7.80671">
        <ele>139.1</ele>
        <time>2019-08-08T13:04:43Z</time>
      </trkpt>
      <trkpt lat="48.57609" lon="7.80669">
        <ele>139.1</ele>
        <time>2019-08-08T13:04:45Z</time>
      </trkpt>
      <trkpt lat="48.57612" lon="7.8067">
        <ele>139.1</ele>
        <time>2019-08-08T13:04:47Z</time>
      </trkpt>
      <trkpt lat="48.57615" lon="7.80672">
        <ele>139.1</ele>
        <time>2019-08-08T13:04:49Z</time>
      </trkpt>
      <trkpt lat="48.57618" lon="7.80671">
        <ele>139</ele>
        <time>2019-08-08T13:04:51Z</time>
      </trkpt>
      <trkpt lat="48.57621" lon="7.80669">
        <ele>139.1</ele>
        <time>2019-08-08T13:04:54Z</time>
      </trkpt>
      <trkpt lat="48.57624" lon="7.80668">
        <ele>139</ele>
        <time>2019-08-08T13:05:01Z</time>
      </trkpt>
      <trkpt lat="48.57627" lon="7.80669">
        <ele>139</ele>
        <time>2019-08-08T13:05:11Z</time>
      </trkpt>
      <trkpt lat="48.57633" lon="7.80629">
        <ele>138.9</ele>
        <time>2019-08-08T13:05:45Z</time>
      </trkpt>
      <trkpt lat="48.57637" lon="7.80623">
        <ele>138.8</ele>
        <time>2019-08-08T13:05:47Z</time>
      </trkpt>
      <trkpt lat="48.57642" lon="7.80619">
        <ele>138.6</ele>
        <time>2019-08-08T13:05:50Z</time>
      </trkpt>
      <trkpt lat="48.57646" lon="7.80619">
        <ele>138.5</ele>
        <time>2019-08-08T13:05:52Z</time>
      </trkpt>
      <trkpt lat="48.5765" lon="7.80616">
        <ele>138.2</ele>
        <time>2019-08-08T13:05:53Z</time>
      </trkpt>
      <trkpt lat="48.57653" lon="7.80616">
        <ele>138.2</ele>
        <time>2019-08-08T13:05:54Z</time>
      </trkpt>
      <trkpt lat="48.57658" lon="7.80618">
        <ele>138.1</ele>
        <time>2019-08-08T13:05:55Z</time>
      </trkpt>
      <trkpt lat="48.57669" lon="7.80619">
        <ele>137.7</ele>
        <time>2019-08-08T13:05:56Z</time>
      </trkpt>
      <trkpt lat="48.57677" lon="7.80624">
        <ele>137.5</ele>
        <time>2019-08-08T13:05:57Z</time>
      </trkpt>
      <trkpt lat="48.5768" lon="7.80625">
        <ele>137.4</ele>
        <time>2019-08-08T13:05:59Z</time>
      </trkpt>
      <trkpt lat="48.57677" lon="7.8062">
        <ele>137.4</ele>
        <time>2019-08-08T13:06:11Z</time>
      </trkpt>
      <trkpt lat="48.57675" lon="7.80617">
        <ele>137.5</ele>
        <time>2019-08-08T13:06:15Z</time>
      </trkpt>
      <trkpt lat="48.57671" lon="7.8061">
        <ele>137.5</ele>
        <time>2019-08-08T13:06:23Z</time>
      </trkpt>
      <trkpt lat="48.57668" lon="7.80606">
        <ele>137.6</ele>
        <time>2019-08-08T13:06:25Z</time>
      </trkpt>
      <trkpt lat="48.57629" lon="7.80605">
        <ele>139</ele>
        <time>2019-08-08T13:06:38Z</time>
      </trkpt>
      <trkpt lat="48.57614" lon="7.80607">
        <ele>139.6</ele>
        <time>2019-08-08T13:06:44Z</time>
      </trkpt>
      <trkpt lat="48.57609" lon="7.80609">
        <ele>139.8</ele>
        <time>2019-08-08T13:06:45Z</time>
      </trkpt>
      <trkpt lat="48.57606" lon="7.80613">
        <ele>139.9</ele>
        <time>2019-08-08T13:06:46Z</time>
      </trkpt>
      <trkpt lat="48.57603" lon="7.80616">
        <ele>140</ele>
        <time>2019-08-08T13:06:48Z</time>
      </trkpt>
      <trkpt lat="48.57604" lon="7.80621">
        <ele>139.9</ele>
        <time>2019-08-08T13:06:49Z</time>
      </trkpt>
      <trkpt lat="48.57603" lon="7.80628">
        <ele>139.8</ele>
        <time>2019-08-08T13:06:51Z</time>
      </trkpt>
      <trkpt lat="48.57603" lon="7.80632">
        <ele>139.7</ele>
        <time>2019-08-08T13:06:52Z</time>
      </trkpt>
      <trkpt lat="48.57599" lon="7.80633">
        <ele>139.8</ele>
        <time>2019-08-08T13:06:54Z</time>
      </trkpt>
      <trkpt lat="48.57597" lon="7.80638">
        <ele>139.7</ele>
        <time>2019-08-08T13:06:56Z</time>
      </trkpt>
      <trkpt lat="48.57605" lon="7.80644">
        <ele>139.4</ele>
        <time>2019-08-08T13:07:01Z</time>
      </trkpt>
      <trkpt lat="48.57608" lon="7.80645">
        <ele>139.3</ele>
        <time>2019-08-08T13:07:02Z</time>
      </trkpt>
      <trkpt lat="48.57609" lon="7.80641">
        <ele>139.4</ele>
        <time>2019-08-08T13:07:04Z</time>
      </trkpt>
      <trkpt lat="48.5761" lon="7.80645">
        <ele>139.3</ele>
        <time>2019-08-08T13:07:06Z</time>
      </trkpt>
      <trkpt lat="48.57608" lon="7.80648">
        <ele>139.3</ele>
        <time>2019-08-08T13:07:09Z</time>
      </trkpt>
      <trkpt lat="48.57608" lon="7.80653">
        <ele>139.2</ele>
        <time>2019-08-08T13:07:13Z</time>
      </trkpt>
      <trkpt lat="48.57605" lon="7.80654">
        <ele>139.2</ele>
        <time>2019-08-08T13:07:16Z</time>
      </trkpt>
      <trkpt lat="48.57603" lon="7.80657">
        <ele>139.2</ele>
        <time>2019-08-08T13:07:19Z</time>
      </trkpt>
      <trkpt lat="48.57603" lon="7.80661">
        <ele>139.1</ele>
        <time>2019-08-08T13:07:24Z</time>
      </trkpt>
      <trkpt lat="48.57599" lon="7.80665">
        <ele>139</ele>
        <time>2019-08-08T13:07:28Z</time>
      </trkpt>
      <trkpt lat="48.57598" lon="7.8066">
        <ele>139.2</ele>
        <time>2019-08-08T13:08:20Z</time>
      </trkpt>
      <trkpt lat="48.57598" lon="7.80656">
        <ele>139.3</ele>
        <time>2019-08-08T13:08:22Z</time>
      </trkpt>
      <trkpt lat="48.57601" lon="7.80649">
        <ele>139.4</ele>
        <time>2019-08-08T13:08:24Z</time>
      </trkpt>
      <trkpt lat="48.57601" lon="7.80643">
        <ele>139.4</ele>
        <time>2019-08-08T13:08:25Z</time>
      </trkpt>
      <trkpt lat="48.576" lon="7.80639">
        <ele>139.5</ele>
        <time>2019-08-08T13:08:26Z</time>
      </trkpt>
      <trkpt lat="48.57599" lon="7.80633">
        <ele>139.6</ele>
        <time>2019-08-08T13:08:27Z</time>
      </trkpt>
      <trkpt lat="48.57597" lon="7.80625">
        <ele>139.8</ele>
        <time>2019-08-08T13:08:29Z</time>
      </trkpt>
      <trkpt lat="48.57595" lon="7.80618">
        <ele>139.9</ele>
        <time>2019-08-08T13:08:31Z</time>
      </trkpt>
      <trkpt lat="48.57594" lon="7.80613">
        <ele>140</ele>
        <time>2019-08-08T13:08:33Z</time>
      </trkpt>
      <trkpt lat="48.57593" lon="7.80607">
        <ele>140.1</ele>
        <time>2019-08-08T13:08:35Z</time>
      </trkpt>
      <trkpt lat="48.5759" lon="7.80604">
        <ele>140.2</ele>
        <time>2019-08-08T13:08:38Z</time>
      </trkpt>
      <trkpt lat="48.57588" lon="7.806">
        <ele>140.3</ele>
        <time>2019-08-08T13:08:40Z</time>
      </trkpt>
      <trkpt lat="48.57586" lon="7.80597">
        <ele>140.4</ele>
        <time>2019-08-08T13:08:41Z</time>
      </trkpt>
      <trkpt lat="48.57585" lon="7.80593">
        <ele>140.4</ele>
        <time>2019-08-08T13:08:42Z</time>
      </trkpt>
      <trkpt lat="48.57584" lon="7.80589">
        <ele>140.5</ele>
        <time>2019-08-08T13:08:43Z</time>
      </trkpt>
      <trkpt lat="48.57583" lon="7.80581">
        <ele>140.6</ele>
        <time>2019-08-08T13:08:45Z</time>
      </trkpt>
      <trkpt lat="48.57583" lon="7.80576">
        <ele>140.7</ele>
        <time>2019-08-08T13:08:46Z</time>
      </trkpt>
      <trkpt lat="48.57581" lon="7.80571">
        <ele>140.8</ele>
        <time>2019-08-08T13:08:48Z</time>
      </trkpt>
      <trkpt lat="48.57577" lon="7.80569">
        <ele>140.9</ele>
        <time>2019-08-08T13:08:49Z</time>
      </trkpt>
      <trkpt lat="48.57573" lon="7.80566">
        <ele>141</ele>
        <time>2019-08-08T13:08:50Z</time>
      </trkpt>
      <trkpt lat="48.57569" lon="7.80561">
        <ele>141.1</ele>
        <time>2019-08-08T13:08:52Z</time>
      </trkpt>
      <trkpt lat="48.57566" lon="7.80558">
        <ele>141.1</ele>
        <time>2019-08-08T13:08:53Z</time>
      </trkpt>
      <trkpt lat="48.57563" lon="7.80554">
        <ele>141.2</ele>
        <time>2019-08-08T13:08:54Z</time>
      </trkpt>
      <trkpt lat="48.57561" lon="7.8055">
        <ele>141</ele>
        <time>2019-08-08T13:08:55Z</time>
      </trkpt>
      <trkpt lat="48.5756" lon="7.80545">
        <ele>140.9</ele>
        <time>2019-08-08T13:08:56Z</time>
      </trkpt>
      <trkpt lat="48.57558" lon="7.8054">
        <ele>140.7</ele>
        <time>2019-08-08T13:08:57Z</time>
      </trkpt>
      <trkpt lat="48.57555" lon="7.80533">
        <ele>140.5</ele>
        <time>2019-08-08T13:08:59Z</time>
      </trkpt>
      <trkpt lat="48.57553" lon="7.80528">
        <ele>140.3</ele>
        <time>2019-08-08T13:09:00Z</time>
      </trkpt>
      <trkpt lat="48.57551" lon="7.80525">
        <ele>140.2</ele>
        <time>2019-08-08T13:09:01Z</time>
      </trkpt>
      <trkpt lat="48.57547" lon="7.80519">
        <ele>139.9</ele>
        <time>2019-08-08T13:09:03Z</time>
      </trkpt>
      <trkpt lat="48.57545" lon="7.80515">
        <ele>139.8</ele>
        <time>2019-08-08T13:09:04Z</time>
      </trkpt>
      <trkpt lat="48.57545" lon="7.80511">
        <ele>139.7</ele>
        <time>2019-08-08T13:09:05Z</time>
      </trkpt>
      <trkpt lat="48.57543" lon="7.80507">
        <ele>139.6</ele>
        <time>2019-08-08T13:09:06Z</time>
      </trkpt>
      <trkpt lat="48.57541" lon="7.80503">
        <ele>139.5</ele>
        <time>2019-08-08T13:09:07Z</time>
      </trkpt>
      <trkpt lat="48.57537" lon="7.805">
        <ele>139.3</ele>
        <time>2019-08-08T13:09:09Z</time>
      </trkpt>
      <trkpt lat="48.57535" lon="7.80495">
        <ele>139.2</ele>
        <time>2019-08-08T13:09:12Z</time>
      </trkpt>
      <trkpt lat="48.57533" lon="7.80495">
        <ele>139.1</ele>
        <time>2019-08-08T13:09:26Z</time>
      </trkpt>
      <trkpt lat="48.57528" lon="7.80489">
        <ele>138.9</ele>
        <time>2019-08-08T13:09:42Z</time>
      </trkpt>
      <trkpt lat="48.57526" lon="7.80483">
        <ele>138.8</ele>
        <time>2019-08-08T13:09:44Z</time>
      </trkpt>
      <trkpt lat="48.57524" lon="7.80479">
        <ele>138.7</ele>
        <time>2019-08-08T13:09:45Z</time>
      </trkpt>
      <trkpt lat="48.57522" lon="7.80475">
        <ele>138.5</ele>
        <time>2019-08-08T13:09:46Z</time>
      </trkpt>
      <trkpt lat="48.57521" lon="7.80472">
        <ele>138.5</ele>
        <time>2019-08-08T13:09:47Z</time>
      </trkpt>
      <trkpt lat="48.57518" lon="7.80465">
        <ele>138.3</ele>
        <time>2019-08-08T13:09:49Z</time>
      </trkpt>
      <trkpt lat="48.57516" lon="7.80461">
        <ele>138.2</ele>
        <time>2019-08-08T13:09:50Z</time>
      </trkpt>
      <trkpt lat="48.57513" lon="7.80459">
        <ele>138.1</ele>
        <time>2019-08-08T13:09:51Z</time>
      </trkpt>
      <trkpt lat="48.57513" lon="7.80453">
        <ele>137.9</ele>
        <time>2019-08-08T13:09:53Z</time>
      </trkpt>
      <trkpt lat="48.57512" lon="7.80448">
        <ele>137.8</ele>
        <time>2019-08-08T13:09:54Z</time>
      </trkpt>
      <trkpt lat="48.5751" lon="7.80443">
        <ele>137.7</ele>
        <time>2019-08-08T13:09:55Z</time>
      </trkpt>
      <trkpt lat="48.57507" lon="7.80437">
        <ele>137.6</ele>
        <time>2019-08-08T13:09:56Z</time>
      </trkpt>
      <trkpt lat="48.57505" lon="7.80433">
        <ele>137.5</ele>
        <time>2019-08-08T13:09:57Z</time>
      </trkpt>
      <trkpt lat="48.57501" lon="7.80429">
        <ele>137.4</ele>
        <time>2019-08-08T13:09:59Z</time>
      </trkpt>
      <trkpt lat="48.575" lon="7.80424">
        <ele>137.4</ele>
        <time>2019-08-08T13:10:00Z</time>
      </trkpt>
      <trkpt lat="48.57497" lon="7.80418">
        <ele>137.3</ele>
        <time>2019-08-08T13:10:02Z</time>
      </trkpt>
      <trkpt lat="48.57495" lon="7.80414">
        <ele>137.3</ele>
        <time>2019-08-08T13:10:03Z</time>
      </trkpt>
      <trkpt lat="48.57493" lon="7.8041">
        <ele>137.3</ele>
        <time>2019-08-08T13:10:05Z</time>
      </trkpt>
      <trkpt lat="48.57492" lon="7.80405">
        <ele>137.3</ele>
        <time>2019-08-08T13:10:07Z</time>
      </trkpt>
      <trkpt lat="48.57489" lon="7.804">
        <ele>137.3</ele>
        <time>2019-08-08T13:10:09Z</time>
      </trkpt>
      <trkpt lat="48.57486" lon="7.80396">
        <ele>137.3</ele>
        <time>2019-08-08T13:10:11Z</time>
      </trkpt>
      <trkpt lat="48.57482" lon="7.80393">
        <ele>137.3</ele>
        <time>2019-08-08T13:10:13Z</time>
      </trkpt>
      <trkpt lat="48.5748" lon="7.8039">
        <ele>137.3</ele>
        <time>2019-08-08T13:10:30Z</time>
      </trkpt>
      <trkpt lat="48.57478" lon="7.80385">
        <ele>137.3</ele>
        <time>2019-08-08T13:10:32Z</time>
      </trkpt>
      <trkpt lat="48.57476" lon="7.80379">
        <ele>137.3</ele>
        <time>2019-08-08T13:10:34Z</time>
      </trkpt>
      <trkpt lat="48.57474" lon="7.80373">
        <ele>137.1</ele>
        <time>2019-08-08T13:10:36Z</time>
      </trkpt>
      <trkpt lat="48.57473" lon="7.80367">
        <ele>137</ele>
        <time>2019-08-08T13:10:39Z</time>
      </trkpt>
      <trkpt lat="48.57471" lon="7.80362">
        <ele>136.9</ele>
        <time>2019-08-08T13:10:41Z</time>
      </trkpt>
      <trkpt lat="48.57469" lon="7.80359">
        <ele>136.8</ele>
        <time>2019-08-08T13:10:43Z</time>
      </trkpt>
      <trkpt lat="48.57467" lon="7.80355">
        <ele>136.7</ele>
        <time>2019-08-08T13:10:46Z</time>
      </trkpt>
      <trkpt lat="48.57464" lon="7.80351">
        <ele>137</ele>
        <time>2019-08-08T13:10:49Z</time>
      </trkpt>
      <trkpt lat="48.57462" lon="7.80348">
        <ele>137.2</ele>
        <time>2019-08-08T13:10:51Z</time>
      </trkpt>
      <trkpt lat="48.57461" lon="7.80343">
        <ele>137.4</ele>
        <time>2019-08-08T13:12:29Z</time>
      </trkpt>
      <trkpt lat="48.5746" lon="7.80336">
        <ele>137.6</ele>
        <time>2019-08-08T13:12:31Z</time>
      </trkpt>
      <trkpt lat="48.57459" lon="7.80332">
        <ele>137.8</ele>
        <time>2019-08-08T13:12:33Z</time>
      </trkpt>
      <trkpt lat="48.57457" lon="7.80329">
        <ele>138</ele>
        <time>2019-08-08T13:12:37Z</time>
      </trkpt>
      <trkpt lat="48.57456" lon="7.80325">
        <ele>138.2</ele>
        <time>2019-08-08T13:12:51Z</time>
      </trkpt>
      <trkpt lat="48.57454" lon="7.80319">
        <ele>138.5</ele>
        <time>2019-08-08T13:12:53Z</time>
      </trkpt>
      <trkpt lat="48.57453" lon="7.80315">
        <ele>138.6</ele>
        <time>2019-08-08T13:12:54Z</time>
      </trkpt>
      <trkpt lat="48.57452" lon="7.8031">
        <ele>138.8</ele>
        <time>2019-08-08T13:12:55Z</time>
      </trkpt>
      <trkpt lat="48.57453" lon="7.80304">
        <ele>139</ele>
        <time>2019-08-08T13:12:57Z</time>
      </trkpt>
      <trkpt lat="48.57453" lon="7.80295">
        <ele>139.3</ele>
        <time>2019-08-08T13:12:59Z</time>
      </trkpt>
      <trkpt lat="48.57453" lon="7.8029">
        <ele>139.4</ele>
        <time>2019-08-08T13:13:01Z</time>
      </trkpt>
      <trkpt lat="48.57453" lon="7.80283">
        <ele>139.6</ele>
        <time>2019-08-08T13:13:03Z</time>
      </trkpt>
      <trkpt lat="48.57452" lon="7.80276">
        <ele>139.8</ele>
        <time>2019-08-08T13:13:05Z</time>
      </trkpt>
      <trkpt lat="48.57452" lon="7.80272">
        <ele>140</ele>
        <time>2019-08-08T13:13:06Z</time>
      </trkpt>
      <trkpt lat="48.5745" lon="7.80264">
        <ele>140.2</ele>
        <time>2019-08-08T13:13:08Z</time>
      </trkpt>
      <trkpt lat="48.57449" lon="7.8026">
        <ele>140.4</ele>
        <time>2019-08-08T13:13:09Z</time>
      </trkpt>
      <trkpt lat="48.57449" lon="7.80252">
        <ele>140.6</ele>
        <time>2019-08-08T13:13:10Z</time>
      </trkpt>
      <trkpt lat="48.57448" lon="7.80247">
        <ele>140.8</ele>
        <time>2019-08-08T13:13:11Z</time>
      </trkpt>
      <trkpt lat="48.57447" lon="7.80243">
        <ele>141</ele>
        <time>2019-08-08T13:13:12Z</time>
      </trkpt>
      <trkpt lat="48.57445" lon="7.80236">
        <ele>141.2</ele>
        <time>2019-08-08T13:13:14Z</time>
      </trkpt>
      <trkpt lat="48.57446" lon="7.8023">
        <ele>141.3</ele>
        <time>2019-08-08T13:13:16Z</time>
      </trkpt>
      <trkpt lat="48.57444" lon="7.80225">
        <ele>141.5</ele>
        <time>2019-08-08T13:13:19Z</time>
      </trkpt>
      <trkpt lat="48.57444" lon="7.80218">
        <ele>141.7</ele>
        <time>2019-08-08T13:13:22Z</time>
      </trkpt>
      <trkpt lat="48.57444" lon="7.80214">
        <ele>141.8</ele>
        <time>2019-08-08T13:13:23Z</time>
      </trkpt>
      <trkpt lat="48.57444" lon="7.80209">
        <ele>141.9</ele>
        <time>2019-08-08T13:13:24Z</time>
      </trkpt>
      <trkpt lat="48.57444" lon="7.80205">
        <ele>142</ele>
        <time>2019-08-08T13:13:25Z</time>
      </trkpt>
      <trkpt lat="48.57443" lon="7.80201">
        <ele>142.1</ele>
        <time>2019-08-08T13:13:26Z</time>
      </trkpt>
      <trkpt lat="48.57443" lon="7.80196">
        <ele>142.2</ele>
        <time>2019-08-08T13:13:27Z</time>
      </trkpt>
      <trkpt lat="48.57443" lon="7.80191">
        <ele>142.3</ele>
        <time>2019-08-08T13:13:28Z</time>
      </trkpt>
      <trkpt lat="48.5744" lon="7.80184">
        <ele>142.4</ele>
        <time>2019-08-08T13:13:29Z</time>
      </trkpt>
      <trkpt lat="48.5744" lon="7.80179">
        <ele>142.4</ele>
        <time>2019-08-08T13:13:30Z</time>
      </trkpt>
      <trkpt lat="48.57439" lon="7.80173">
        <ele>142.4</ele>
        <time>2019-08-08T13:13:31Z</time>
      </trkpt>
      <trkpt lat="48.57437" lon="7.80169">
        <ele>142.4</ele>
        <time>2019-08-08T13:13:32Z</time>
      </trkpt>
      <trkpt lat="48.57436" lon="7.80164">
        <ele>142.4</ele>
        <time>2019-08-08T13:13:33Z</time>
      </trkpt>
      <trkpt lat="48.57435" lon="7.80159">
        <ele>142.4</ele>
        <time>2019-08-08T13:13:34Z</time>
      </trkpt>
      <trkpt lat="48.57433" lon="7.80155">
        <ele>142.4</ele>
        <time>2019-08-08T13:13:35Z</time>
      </trkpt>
      <trkpt lat="48.57431" lon="7.8015">
        <ele>142.4</ele>
        <time>2019-08-08T13:13:36Z</time>
      </trkpt>
      <trkpt lat="48.5743" lon="7.80145">
        <ele>142.4</ele>
        <time>2019-08-08T13:13:37Z</time>
      </trkpt>
      <trkpt lat="48.57429" lon="7.80138">
        <ele>142.4</ele>
        <time>2019-08-08T13:13:38Z</time>
      </trkpt>
      <trkpt lat="48.57428" lon="7.80133">
        <ele>142.4</ele>
        <time>2019-08-08T13:13:39Z</time>
      </trkpt>
      <trkpt lat="48.57426" lon="7.80127">
        <ele>142.4</ele>
        <time>2019-08-08T13:13:40Z</time>
      </trkpt>
      <trkpt lat="48.57425" lon="7.80122">
        <ele>142.5</ele>
        <time>2019-08-08T13:13:41Z</time>
      </trkpt>
      <trkpt lat="48.57424" lon="7.80119">
        <ele>142.5</ele>
        <time>2019-08-08T13:13:42Z</time>
      </trkpt>
      <trkpt lat="48.57422" lon="7.80114">
        <ele>142.5</ele>
        <time>2019-08-08T13:13:43Z</time>
      </trkpt>
      <trkpt lat="48.57421" lon="7.8011">
        <ele>142.5</ele>
        <time>2019-08-08T13:13:44Z</time>
      </trkpt>
      <trkpt lat="48.57419" lon="7.80102">
        <ele>142.5</ele>
        <time>2019-08-08T13:13:46Z</time>
      </trkpt>
      <trkpt lat="48.57418" lon="7.80098">
        <ele>142.4</ele>
        <time>2019-08-08T13:13:47Z</time>
      </trkpt>
      <trkpt lat="48.57416" lon="7.80094">
        <ele>142.4</ele>
        <time>2019-08-08T13:13:48Z</time>
      </trkpt>
      <trkpt lat="48.57415" lon="7.80088">
        <ele>142.3</ele>
        <time>2019-08-08T13:13:49Z</time>
      </trkpt>
      <trkpt lat="48.57414" lon="7.80081">
        <ele>142.2</ele>
        <time>2019-08-08T13:13:50Z</time>
      </trkpt>
      <trkpt lat="48.57414" lon="7.80074">
        <ele>142.1</ele>
        <time>2019-08-08T13:13:51Z</time>
      </trkpt>
      <trkpt lat="48.57413" lon="7.80067">
        <ele>142.1</ele>
        <time>2019-08-08T13:13:52Z</time>
      </trkpt>
      <trkpt lat="48.57413" lon="7.80061">
        <ele>142</ele>
        <time>2019-08-08T13:13:53Z</time>
      </trkpt>
      <trkpt lat="48.57412" lon="7.80054">
        <ele>141.9</ele>
        <time>2019-08-08T13:13:54Z</time>
      </trkpt>
      <trkpt lat="48.5741" lon="7.80046">
        <ele>141.7</ele>
        <time>2019-08-08T13:13:55Z</time>
      </trkpt>
      <trkpt lat="48.57409" lon="7.80039">
        <ele>141.6</ele>
        <time>2019-08-08T13:13:56Z</time>
      </trkpt>
      <trkpt lat="48.57406" lon="7.80031">
        <ele>141.4</ele>
        <time>2019-08-08T13:13:57Z</time>
      </trkpt>
      <trkpt lat="48.57406" lon="7.80022">
        <ele>141.3</ele>
        <time>2019-08-08T13:13:58Z</time>
      </trkpt>
      <trkpt lat="48.57405" lon="7.80014">
        <ele>141.1</ele>
        <time>2019-08-08T13:13:59Z</time>
      </trkpt>
      <trkpt lat="48.57403" lon="7.80007">
        <ele>141</ele>
        <time>2019-08-08T13:14:00Z</time>
      </trkpt>
      <trkpt lat="48.57402" lon="7.8">
        <ele>140.8</ele>
        <time>2019-08-08T13:14:01Z</time>
      </trkpt>
      <trkpt lat="48.574" lon="7.79992">
        <ele>140.7</ele>
        <time>2019-08-08T13:14:02Z</time>
      </trkpt>
      <trkpt lat="48.57398" lon="7.79986">
        <ele>140.6</ele>
        <time>2019-08-08T13:14:03Z</time>
      </trkpt>
      <trkpt lat="48.57397" lon="7.79979">
        <ele>140.6</ele>
        <time>2019-08-08T13:14:04Z</time>
      </trkpt>
      <trkpt lat="48.57395" lon="7.7997">
        <ele>140.5</ele>
        <time>2019-08-08T13:14:05Z</time>
      </trkpt>
      <trkpt lat="48.57393" lon="7.79963">
        <ele>140.5</ele>
        <time>2019-08-08T13:14:06Z</time>
      </trkpt>
      <trkpt lat="48.57391" lon="7.79956">
        <ele>140.4</ele>
        <time>2019-08-08T13:14:07Z</time>
      </trkpt>
      <trkpt lat="48.57389" lon="7.79949">
        <ele>140.6</ele>
        <time>2019-08-08T13:14:08Z</time>
      </trkpt>
      <trkpt lat="48.57387" lon="7.79943">
        <ele>140.8</ele>
        <time>2019-08-08T13:14:09Z</time>
      </trkpt>
      <trkpt lat="48.57385" lon="7.79937">
        <ele>141</ele>
        <time>2019-08-08T13:14:10Z</time>
      </trkpt>
      <trkpt lat="48.57383" lon="7.79931">
        <ele>141.1</ele>
        <time>2019-08-08T13:14:11Z</time>
      </trkpt>
      <trkpt lat="48.57381" lon="7.79924">
        <ele>141.3</ele>
        <time>2019-08-08T13:14:12Z</time>
      </trkpt>
      <trkpt lat="48.57378" lon="7.79917">
        <ele>141.6</ele>
        <time>2019-08-08T13:14:13Z</time>
      </trkpt>
      <trkpt lat="48.57376" lon="7.79909">
        <ele>141.8</ele>
        <time>2019-08-08T13:14:14Z</time>
      </trkpt>
      <trkpt lat="48.57373" lon="7.79901">
        <ele>142</ele>
        <time>2019-08-08T13:14:15Z</time>
      </trkpt>
      <trkpt lat="48.5737" lon="7.79894">
        <ele>142.3</ele>
        <time>2019-08-08T13:14:16Z</time>
      </trkpt>
      <trkpt lat="48.57368" lon="7.79885">
        <ele>142.6</ele>
        <time>2019-08-08T13:14:17Z</time>
      </trkpt>
      <trkpt lat="48.57367" lon="7.79877">
        <ele>142.9</ele>
        <time>2019-08-08T13:14:18Z</time>
      </trkpt>
      <trkpt lat="48.57365" lon="7.79869">
        <ele>143.2</ele>
        <time>2019-08-08T13:14:19Z</time>
      </trkpt>
      <trkpt lat="48.57364" lon="7.79861">
        <ele>143.5</ele>
        <time>2019-08-08T13:14:20Z</time>
      </trkpt>
      <trkpt lat="48.57363" lon="7.79852">
        <ele>143.8</ele>
        <time>2019-08-08T13:14:21Z</time>
      </trkpt>
      <trkpt lat="48.57361" lon="7.79845">
        <ele>144.1</ele>
        <time>2019-08-08T13:14:22Z</time>
      </trkpt>
      <trkpt lat="48.57359" lon="7.79839">
        <ele>144.3</ele>
        <time>2019-08-08T13:14:23Z</time>
      </trkpt>
      <trkpt lat="48.57358" lon="7.79833">
        <ele>144.5</ele>
        <time>2019-08-08T13:14:24Z</time>
      </trkpt>
      <trkpt lat="48.57357" lon="7.79828">
        <ele>144.7</ele>
        <time>2019-08-08T13:14:25Z</time>
      </trkpt>
      <trkpt lat="48.57355" lon="7.79822">
        <ele>145.1</ele>
        <time>2019-08-08T13:14:27Z</time>
      </trkpt>
      <trkpt lat="48.57354" lon="7.79817">
        <ele>145.1</ele>
        <time>2019-08-08T13:14:30Z</time>
      </trkpt>
      <trkpt lat="48.57353" lon="7.79812">
        <ele>145.2</ele>
        <time>2019-08-08T13:14:32Z</time>
      </trkpt>
      <trkpt lat="48.57352" lon="7.79805">
        <ele>145.2</ele>
        <time>2019-08-08T13:14:34Z</time>
      </trkpt>
      <trkpt lat="48.57352" lon="7.798">
        <ele>145.3</ele>
        <time>2019-08-08T13:14:36Z</time>
      </trkpt>
      <trkpt lat="48.57352" lon="7.79796">
        <ele>145.4</ele>
        <time>2019-08-08T13:14:38Z</time>
      </trkpt>
      <trkpt lat="48.57353" lon="7.79792">
        <ele>145.4</ele>
        <time>2019-08-08T13:14:40Z</time>
      </trkpt>
      <trkpt lat="48.57353" lon="7.79785">
        <ele>145.6</ele>
        <time>2019-08-08T13:14:42Z</time>
      </trkpt>
      <trkpt lat="48.57351" lon="7.79778">
        <ele>145.7</ele>
        <time>2019-08-08T13:14:44Z</time>
      </trkpt>
      <trkpt lat="48.57349" lon="7.79771">
        <ele>145.8</ele>
        <time>2019-08-08T13:14:45Z</time>
      </trkpt>
      <trkpt lat="48.57347" lon="7.79765">
        <ele>145.6</ele>
        <time>2019-08-08T13:14:46Z</time>
      </trkpt>
      <trkpt lat="48.57346" lon="7.79759">
        <ele>145.5</ele>
        <time>2019-08-08T13:14:47Z</time>
      </trkpt>
      <trkpt lat="48.57345" lon="7.79754">
        <ele>145.4</ele>
        <time>2019-08-08T13:14:48Z</time>
      </trkpt>
      <trkpt lat="48.57344" lon="7.79748">
        <ele>145.3</ele>
        <time>2019-08-08T13:14:49Z</time>
      </trkpt>
      <trkpt lat="48.57343" lon="7.79744">
        <ele>145.2</ele>
        <time>2019-08-08T13:14:50Z</time>
      </trkpt>
      <trkpt lat="48.57342" lon="7.79739">
        <ele>145.1</ele>
        <time>2019-08-08T13:14:51Z</time>
      </trkpt>
      <trkpt lat="48.5734" lon="7.79734">
        <ele>145</ele>
        <time>2019-08-08T13:14:53Z</time>
      </trkpt>
      <trkpt lat="48.57339" lon="7.7973">
        <ele>144.8</ele>
        <time>2019-08-08T13:14:54Z</time>
      </trkpt>
      <trkpt lat="48.57338" lon="7.79725">
        <ele>144.7</ele>
        <time>2019-08-08T13:14:55Z</time>
      </trkpt>
      <trkpt lat="48.57336" lon="7.7972">
        <ele>144.5</ele>
        <time>2019-08-08T13:14:56Z</time>
      </trkpt>
      <trkpt lat="48.57333" lon="7.79715">
        <ele>144.3</ele>
        <time>2019-08-08T13:14:57Z</time>
      </trkpt>
      <trkpt lat="48.57331" lon="7.7971">
        <ele>144.1</ele>
        <time>2019-08-08T13:14:58Z</time>
      </trkpt>
      <trkpt lat="48.57329" lon="7.79705">
        <ele>144</ele>
        <time>2019-08-08T13:14:59Z</time>
      </trkpt>
      <trkpt lat="48.57328" lon="7.79701">
        <ele>143.8</ele>
        <time>2019-08-08T13:15:00Z</time>
      </trkpt>
      <trkpt lat="48.57326" lon="7.79697">
        <ele>143.7</ele>
        <time>2019-08-08T13:15:01Z</time>
      </trkpt>
      <trkpt lat="48.57324" lon="7.79692">
        <ele>143.5</ele>
        <time>2019-08-08T13:15:02Z</time>
      </trkpt>
      <trkpt lat="48.57322" lon="7.79688">
        <ele>143.4</ele>
        <time>2019-08-08T13:15:03Z</time>
      </trkpt>
      <trkpt lat="48.5732" lon="7.79682">
        <ele>143.3</ele>
        <time>2019-08-08T13:15:05Z</time>
      </trkpt>
      <trkpt lat="48.5732" lon="7.79676">
        <ele>143.2</ele>
        <time>2019-08-08T13:15:06Z</time>
      </trkpt>
      <trkpt lat="48.57318" lon="7.79669">
        <ele>143.1</ele>
        <time>2019-08-08T13:15:08Z</time>
      </trkpt>
      <trkpt lat="48.57317" lon="7.79665">
        <ele>143</ele>
        <time>2019-08-08T13:15:10Z</time>
      </trkpt>
      <trkpt lat="48.57315" lon="7.7966">
        <ele>142.8</ele>
        <time>2019-08-08T13:15:12Z</time>
      </trkpt>
      <trkpt lat="48.57312" lon="7.79654">
        <ele>142.8</ele>
        <time>2019-08-08T13:15:14Z</time>
      </trkpt>
      <trkpt lat="48.57309" lon="7.79652">
        <ele>142.8</ele>
        <time>2019-08-08T13:15:15Z</time>
      </trkpt>
      <trkpt lat="48.57306" lon="7.79648">
        <ele>142.7</ele>
        <time>2019-08-08T13:15:16Z</time>
      </trkpt>
      <trkpt lat="48.57303" lon="7.79645">
        <ele>142.7</ele>
        <time>2019-08-08T13:15:17Z</time>
      </trkpt>
      <trkpt lat="48.573" lon="7.79644">
        <ele>142.6</ele>
        <time>2019-08-08T13:15:18Z</time>
      </trkpt>
      <trkpt lat="48.57296" lon="7.79644">
        <ele>142.6</ele>
        <time>2019-08-08T13:15:20Z</time>
      </trkpt>
      <trkpt lat="48.57293" lon="7.79642">
        <ele>142.5</ele>
        <time>2019-08-08T13:15:22Z</time>
      </trkpt>
      <trkpt lat="48.57289" lon="7.79639">
        <ele>142.4</ele>
        <time>2019-08-08T13:15:24Z</time>
      </trkpt>
      <trkpt lat="48.57285" lon="7.79632">
        <ele>142.4</ele>
        <time>2019-08-08T13:15:26Z</time>
      </trkpt>
      <trkpt lat="48.57283" lon="7.79626">
        <ele>142.3</ele>
        <time>2019-08-08T13:15:27Z</time>
      </trkpt>
      <trkpt lat="48.5728" lon="7.7962">
        <ele>142.3</ele>
        <time>2019-08-08T13:15:28Z</time>
      </trkpt>
      <trkpt lat="48.57278" lon="7.79615">
        <ele>142.2</ele>
        <time>2019-08-08T13:15:29Z</time>
      </trkpt>
      <trkpt lat="48.57276" lon="7.7961">
        <ele>142.2</ele>
        <time>2019-08-08T13:15:30Z</time>
      </trkpt>
      <trkpt lat="48.57274" lon="7.79602">
        <ele>142.1</ele>
        <time>2019-08-08T13:15:31Z</time>
      </trkpt>
      <trkpt lat="48.57277" lon="7.7959">
        <ele>142</ele>
        <time>2019-08-08T13:15:32Z</time>
      </trkpt>
      <trkpt lat="48.57277" lon="7.79584">
        <ele>142</ele>
        <time>2019-08-08T13:15:33Z</time>
      </trkpt>
      <trkpt lat="48.57277" lon="7.79579">
        <ele>141.9</ele>
        <time>2019-08-08T13:15:34Z</time>
      </trkpt>
      <trkpt lat="48.57278" lon="7.79573">
        <ele>141.9</ele>
        <time>2019-08-08T13:15:36Z</time>
      </trkpt>
      <trkpt lat="48.57278" lon="7.79567">
        <ele>142</ele>
        <time>2019-08-08T13:15:38Z</time>
      </trkpt>
      <trkpt lat="48.57275" lon="7.79568">
        <ele>142</ele>
        <time>2019-08-08T13:15:39Z</time>
      </trkpt>
      <trkpt lat="48.57275" lon="7.79573">
        <ele>142</ele>
        <time>2019-08-08T13:15:43Z</time>
      </trkpt>
      <trkpt lat="48.57275" lon="7.79568">
        <ele>142</ele>
        <time>2019-08-08T13:15:48Z</time>
      </trkpt>
      <trkpt lat="48.57276" lon="7.79572">
        <ele>142</ele>
        <time>2019-08-08T13:15:50Z</time>
      </trkpt>
      <trkpt lat="48.57279" lon="7.7957">
        <ele>142</ele>
        <time>2019-08-08T13:15:52Z</time>
      </trkpt>
      <trkpt lat="48.57282" lon="7.79568">
        <ele>142</ele>
        <time>2019-08-08T13:15:55Z</time>
      </trkpt>
      <trkpt lat="48.57286" lon="7.79569">
        <ele>142</ele>
        <time>2019-08-08T13:15:56Z</time>
      </trkpt>
      <trkpt lat="48.57291" lon="7.79564">
        <ele>142</ele>
        <time>2019-08-08T13:15:58Z</time>
      </trkpt>
      <trkpt lat="48.57293" lon="7.79559">
        <ele>142.1</ele>
        <time>2019-08-08T13:15:59Z</time>
      </trkpt>
      <trkpt lat="48.57296" lon="7.79556">
        <ele>142.1</ele>
        <time>2019-08-08T13:16:01Z</time>
      </trkpt>
      <trkpt lat="48.57296" lon="7.79551">
        <ele>142.1</ele>
        <time>2019-08-08T13:16:02Z</time>
      </trkpt>
      <trkpt lat="48.57301" lon="7.79549">
        <ele>142.1</ele>
        <time>2019-08-08T13:16:04Z</time>
      </trkpt>
      <trkpt lat="48.57305" lon="7.79547">
        <ele>142.1</ele>
        <time>2019-08-08T13:16:05Z</time>
      </trkpt>
      <trkpt lat="48.5731" lon="7.79546">
        <ele>142.1</ele>
        <time>2019-08-08T13:16:07Z</time>
      </trkpt>
      <trkpt lat="48.57317" lon="7.79549">
        <ele>142.1</ele>
        <time>2019-08-08T13:16:09Z</time>
      </trkpt>
      <trkpt lat="48.57321" lon="7.79551">
        <ele>142.1</ele>
        <time>2019-08-08T13:16:10Z</time>
      </trkpt>
      <trkpt lat="48.57326" lon="7.79548">
        <ele>142.1</ele>
        <time>2019-08-08T13:16:12Z</time>
      </trkpt>
      <trkpt lat="48.5733" lon="7.79542">
        <ele>142.1</ele>
        <time>2019-08-08T13:16:14Z</time>
      </trkpt>
      <trkpt lat="48.57332" lon="7.79538">
        <ele>142.1</ele>
        <time>2019-08-08T13:16:15Z</time>
      </trkpt>
      <trkpt lat="48.57335" lon="7.79534">
        <ele>142.1</ele>
        <time>2019-08-08T13:16:16Z</time>
      </trkpt>
      <trkpt lat="48.57339" lon="7.79531">
        <ele>142</ele>
        <time>2019-08-08T13:16:17Z</time>
      </trkpt>
      <trkpt lat="48.57342" lon="7.79526">
        <ele>142</ele>
        <time>2019-08-08T13:16:18Z</time>
      </trkpt>
      <trkpt lat="48.57346" lon="7.79522">
        <ele>141.9</ele>
        <time>2019-08-08T13:16:19Z</time>
      </trkpt>
      <trkpt lat="48.5735" lon="7.79519">
        <ele>141.9</ele>
        <time>2019-08-08T13:16:20Z</time>
      </trkpt>
      <trkpt lat="48.57353" lon="7.79516">
        <ele>141.8</ele>
        <time>2019-08-08T13:16:21Z</time>
      </trkpt>
      <trkpt lat="48.57356" lon="7.79514">
        <ele>141.8</ele>
        <time>2019-08-08T13:16:22Z</time>
      </trkpt>
      <trkpt lat="48.5736" lon="7.7951">
        <ele>141.7</ele>
        <time>2019-08-08T13:16:24Z</time>
      </trkpt>
      <trkpt lat="48.57367" lon="7.79512">
        <ele>141.6</ele>
        <time>2019-08-08T13:16:26Z</time>
      </trkpt>
      <trkpt lat="48.5737" lon="7.79512">
        <ele>141.6</ele>
        <time>2019-08-08T13:16:27Z</time>
      </trkpt>
      <trkpt lat="48.57373" lon="7.79511">
        <ele>141.6</ele>
        <time>2019-08-08T13:16:28Z</time>
      </trkpt>
      <trkpt lat="48.57378" lon="7.79513">
        <ele>141.5</ele>
        <time>2019-08-08T13:16:29Z</time>
      </trkpt>
      <trkpt lat="48.57382" lon="7.79511">
        <ele>141.5</ele>
        <time>2019-08-08T13:16:30Z</time>
      </trkpt>
      <trkpt lat="48.57385" lon="7.79511">
        <ele>141.5</ele>
        <time>2019-08-08T13:16:31Z</time>
      </trkpt>
      <trkpt lat="48.57387" lon="7.79507">
        <ele>141.4</ele>
        <time>2019-08-08T13:16:32Z</time>
      </trkpt>
      <trkpt lat="48.57388" lon="7.79499">
        <ele>141.4</ele>
        <time>2019-08-08T13:16:33Z</time>
      </trkpt>
      <trkpt lat="48.57389" lon="7.79493">
        <ele>141.3</ele>
        <time>2019-08-08T13:16:34Z</time>
      </trkpt>
      <trkpt lat="48.57389" lon="7.79487">
        <ele>141.3</ele>
        <time>2019-08-08T13:16:35Z</time>
      </trkpt>
      <trkpt lat="48.57389" lon="7.79479">
        <ele>141.2</ele>
        <time>2019-08-08T13:16:36Z</time>
      </trkpt>
      <trkpt lat="48.57389" lon="7.79473">
        <ele>141.2</ele>
        <time>2019-08-08T13:16:37Z</time>
      </trkpt>
      <trkpt lat="48.5739" lon="7.79468">
        <ele>141.2</ele>
        <time>2019-08-08T13:16:38Z</time>
      </trkpt>
      <trkpt lat="48.57391" lon="7.79461">
        <ele>141.1</ele>
        <time>2019-08-08T13:16:39Z</time>
      </trkpt>
      <trkpt lat="48.57391" lon="7.79454">
        <ele>141.1</ele>
        <time>2019-08-08T13:16:40Z</time>
      </trkpt>
      <trkpt lat="48.5739" lon="7.79449">
        <ele>141.1</ele>
        <time>2019-08-08T13:16:41Z</time>
      </trkpt>
      <trkpt lat="48.57388" lon="7.79444">
        <ele>141.1</ele>
        <time>2019-08-08T13:16:42Z</time>
      </trkpt>
      <trkpt lat="48.57387" lon="7.79439">
        <ele>141</ele>
        <time>2019-08-08T13:16:43Z</time>
      </trkpt>
      <trkpt lat="48.57385" lon="7.79433">
        <ele>141</ele>
        <time>2019-08-08T13:16:44Z</time>
      </trkpt>
      <trkpt lat="48.57383" lon="7.79427">
        <ele>140.9</ele>
        <time>2019-08-08T13:16:45Z</time>
      </trkpt>
      <trkpt lat="48.57382" lon="7.79422">
        <ele>140.9</ele>
        <time>2019-08-08T13:16:46Z</time>
      </trkpt>
      <trkpt lat="48.57381" lon="7.79418">
        <ele>140.9</ele>
        <time>2019-08-08T13:16:47Z</time>
      </trkpt>
      <trkpt lat="48.57382" lon="7.79412">
        <ele>140.9</ele>
        <time>2019-08-08T13:16:48Z</time>
      </trkpt>
      <trkpt lat="48.57384" lon="7.79406">
        <ele>140.5</ele>
        <time>2019-08-08T13:16:51Z</time>
      </trkpt>
      <trkpt lat="48.57386" lon="7.79402">
        <ele>140.4</ele>
        <time>2019-08-08T13:16:53Z</time>
      </trkpt>
      <trkpt lat="48.5739" lon="7.79395">
        <ele>140.3</ele>
        <time>2019-08-08T13:16:55Z</time>
      </trkpt>
      <trkpt lat="48.57389" lon="7.7939">
        <ele>140.3</ele>
        <time>2019-08-08T13:17:00Z</time>
      </trkpt>
      <trkpt lat="48.57392" lon="7.79386">
        <ele>140.2</ele>
        <time>2019-08-08T13:17:03Z</time>
      </trkpt>
      <trkpt lat="48.57394" lon="7.79382">
        <ele>140.1</ele>
        <time>2019-08-08T13:17:04Z</time>
      </trkpt>
      <trkpt lat="48.57397" lon="7.79377">
        <ele>140</ele>
        <time>2019-08-08T13:17:05Z</time>
      </trkpt>
      <trkpt lat="48.57399" lon="7.79375">
        <ele>139.9</ele>
        <time>2019-08-08T13:17:06Z</time>
      </trkpt>
      <trkpt lat="48.57403" lon="7.79371">
        <ele>139.9</ele>
        <time>2019-08-08T13:17:07Z</time>
      </trkpt>
      <trkpt lat="48.57407" lon="7.79373">
        <ele>139.9</ele>
        <time>2019-08-08T13:17:08Z</time>
      </trkpt>
      <trkpt lat="48.57413" lon="7.79372">
        <ele>139.8</ele>
        <time>2019-08-08T13:17:09Z</time>
      </trkpt>
      <trkpt lat="48.57418" lon="7.79373">
        <ele>139.8</ele>
        <time>2019-08-08T13:17:10Z</time>
      </trkpt>
      <trkpt lat="48.57421" lon="7.79375">
        <ele>139.8</ele>
        <time>2019-08-08T13:17:12Z</time>
      </trkpt>
      <trkpt lat="48.57424" lon="7.79371">
        <ele>139.8</ele>
        <time>2019-08-08T13:17:14Z</time>
      </trkpt>
      <trkpt lat="48.57429" lon="7.79372">
        <ele>139.7</ele>
        <time>2019-08-08T13:17:15Z</time>
      </trkpt>
      <trkpt lat="48.57432" lon="7.79371">
        <ele>139.7</ele>
        <time>2019-08-08T13:17:16Z</time>
      </trkpt>
      <trkpt lat="48.57437" lon="7.79371">
        <ele>139.7</ele>
        <time>2019-08-08T13:17:17Z</time>
      </trkpt>
      <trkpt lat="48.57443" lon="7.79369">
        <ele>139.7</ele>
        <time>2019-08-08T13:17:19Z</time>
      </trkpt>
      <trkpt lat="48.57446" lon="7.79371">
        <ele>139.7</ele>
        <time>2019-08-08T13:17:21Z</time>
      </trkpt>
      <trkpt lat="48.5745" lon="7.79371">
        <ele>139.7</ele>
        <time>2019-08-08T13:17:23Z</time>
      </trkpt>
      <trkpt lat="48.57453" lon="7.79375">
        <ele>139.7</ele>
        <time>2019-08-08T13:17:25Z</time>
      </trkpt>
      <trkpt lat="48.57457" lon="7.79379">
        <ele>139.7</ele>
        <time>2019-08-08T13:17:27Z</time>
      </trkpt>
      <trkpt lat="48.57459" lon="7.79382">
        <ele>139.7</ele>
        <time>2019-08-08T13:17:28Z</time>
      </trkpt>
      <trkpt lat="48.57462" lon="7.79385">
        <ele>139.7</ele>
        <time>2019-08-08T13:17:29Z</time>
      </trkpt>
      <trkpt lat="48.57466" lon="7.79386">
        <ele>139.7</ele>
        <time>2019-08-08T13:17:30Z</time>
      </trkpt>
      <trkpt lat="48.57469" lon="7.79387">
        <ele>139.8</ele>
        <time>2019-08-08T13:17:31Z</time>
      </trkpt>
      <trkpt lat="48.57472" lon="7.79385">
        <ele>139.7</ele>
        <time>2019-08-08T13:17:32Z</time>
      </trkpt>
      <trkpt lat="48.57476" lon="7.7938">
        <ele>139.7</ele>
        <time>2019-08-08T13:17:34Z</time>
      </trkpt>
      <trkpt lat="48.57478" lon="7.79375">
        <ele>139.7</ele>
        <time>2019-08-08T13:17:35Z</time>
      </trkpt>
      <trkpt lat="48.5748" lon="7.79369">
        <ele>139.7</ele>
        <time>2019-08-08T13:17:36Z</time>
      </trkpt>
      <trkpt lat="48.5748" lon="7.79363">
        <ele>139.6</ele>
        <time>2019-08-08T13:17:37Z</time>
      </trkpt>
      <trkpt lat="48.57479" lon="7.79357">
        <ele>139.6</ele>
        <time>2019-08-08T13:17:38Z</time>
      </trkpt>
      <trkpt lat="48.57478" lon="7.79352">
        <ele>139.6</ele>
        <time>2019-08-08T13:17:39Z</time>
      </trkpt>
      <trkpt lat="48.57478" lon="7.79347">
        <ele>139.6</ele>
        <time>2019-08-08T13:17:40Z</time>
      </trkpt>
      <trkpt lat="48.57477" lon="7.79344">
        <ele>139.5</ele>
        <time>2019-08-08T13:17:41Z</time>
      </trkpt>
      <trkpt lat="48.57477" lon="7.79337">
        <ele>139.5</ele>
        <time>2019-08-08T13:17:42Z</time>
      </trkpt>
      <trkpt lat="48.57476" lon="7.7933">
        <ele>139.5</ele>
        <time>2019-08-08T13:17:44Z</time>
      </trkpt>
      <trkpt lat="48.57475" lon="7.79324">
        <ele>139.5</ele>
        <time>2019-08-08T13:17:45Z</time>
      </trkpt>
      <trkpt lat="48.57476" lon="7.79318">
        <ele>139.3</ele>
        <time>2019-08-08T13:17:46Z</time>
      </trkpt>
      <trkpt lat="48.57477" lon="7.79311">
        <ele>139.3</ele>
        <time>2019-08-08T13:17:47Z</time>
      </trkpt>
      <trkpt lat="48.57478" lon="7.79305">
        <ele>139.3</ele>
        <time>2019-08-08T13:17:48Z</time>
      </trkpt>
      <trkpt lat="48.57478" lon="7.79299">
        <ele>139.4</ele>
        <time>2019-08-08T13:17:49Z</time>
      </trkpt>
      <trkpt lat="48.57478" lon="7.79294">
        <ele>139.4</ele>
        <time>2019-08-08T13:17:50Z</time>
      </trkpt>
      <trkpt lat="48.57478" lon="7.79288">
        <ele>139.4</ele>
        <time>2019-08-08T13:17:51Z</time>
      </trkpt>
      <trkpt lat="48.57479" lon="7.79284">
        <ele>139.4</ele>
        <time>2019-08-08T13:17:52Z</time>
      </trkpt>
      <trkpt lat="48.57479" lon="7.79276">
        <ele>139.4</ele>
        <time>2019-08-08T13:17:54Z</time>
      </trkpt>
      <trkpt lat="48.57478" lon="7.79268">
        <ele>139.4</ele>
        <time>2019-08-08T13:17:56Z</time>
      </trkpt>
      <trkpt lat="48.57478" lon="7.79263">
        <ele>139.4</ele>
        <time>2019-08-08T13:17:58Z</time>
      </trkpt>
      <trkpt lat="48.57481" lon="7.79257">
        <ele>139.3</ele>
        <time>2019-08-08T13:18:00Z</time>
      </trkpt>
      <trkpt lat="48.57483" lon="7.79253">
        <ele>139.3</ele>
        <time>2019-08-08T13:18:01Z</time>
      </trkpt>
      <trkpt lat="48.57485" lon="7.79249">
        <ele>139.2</ele>
        <time>2019-08-08T13:18:02Z</time>
      </trkpt>
      <trkpt lat="48.57487" lon="7.79245">
        <ele>139.1</ele>
        <time>2019-08-08T13:18:03Z</time>
      </trkpt>
      <trkpt lat="48.57488" lon="7.79239">
        <ele>138.9</ele>
        <time>2019-08-08T13:18:04Z</time>
      </trkpt>
      <trkpt lat="48.5749" lon="7.79235">
        <ele>138.6</ele>
        <time>2019-08-08T13:18:05Z</time>
      </trkpt>
      <trkpt lat="48.57491" lon="7.7923">
        <ele>138.6</ele>
        <time>2019-08-08T13:18:06Z</time>
      </trkpt>
      <trkpt lat="48.57493" lon="7.79225">
        <ele>138.7</ele>
        <time>2019-08-08T13:18:07Z</time>
      </trkpt>
      <trkpt lat="48.57496" lon="7.7922">
        <ele>138.7</ele>
        <time>2019-08-08T13:18:08Z</time>
      </trkpt>
      <trkpt lat="48.57498" lon="7.79216">
        <ele>138.8</ele>
        <time>2019-08-08T13:18:09Z</time>
      </trkpt>
      <trkpt lat="48.575" lon="7.79212">
        <ele>138.8</ele>
        <time>2019-08-08T13:18:10Z</time>
      </trkpt>
      <trkpt lat="48.57503" lon="7.79206">
        <ele>139</ele>
        <time>2019-08-08T13:18:11Z</time>
      </trkpt>
      <trkpt lat="48.57506" lon="7.792">
        <ele>139.2</ele>
        <time>2019-08-08T13:18:12Z</time>
      </trkpt>
      <trkpt lat="48.57508" lon="7.79196">
        <ele>139.4</ele>
        <time>2019-08-08T13:18:13Z</time>
      </trkpt>
      <trkpt lat="48.57511" lon="7.7919">
        <ele>139.7</ele>
        <time>2019-08-08T13:18:14Z</time>
      </trkpt>
      <trkpt lat="48.57512" lon="7.79184">
        <ele>139.8</ele>
        <time>2019-08-08T13:18:15Z</time>
      </trkpt>
      <trkpt lat="48.57515" lon="7.79177">
        <ele>140</ele>
        <time>2019-08-08T13:18:16Z</time>
      </trkpt>
      <trkpt lat="48.57516" lon="7.79171">
        <ele>140.2</ele>
        <time>2019-08-08T13:18:17Z</time>
      </trkpt>
      <trkpt lat="48.57518" lon="7.79168">
        <ele>140.3</ele>
        <time>2019-08-08T13:18:18Z</time>
      </trkpt>
      <trkpt lat="48.57519" lon="7.79161">
        <ele>140.5</ele>
        <time>2019-08-08T13:18:19Z</time>
      </trkpt>
      <trkpt lat="48.5752" lon="7.79156">
        <ele>140.7</ele>
        <time>2019-08-08T13:18:20Z</time>
      </trkpt>
      <trkpt lat="48.57521" lon="7.79151">
        <ele>140.9</ele>
        <time>2019-08-08T13:18:21Z</time>
      </trkpt>
      <trkpt lat="48.57523" lon="7.79146">
        <ele>141.1</ele>
        <time>2019-08-08T13:18:22Z</time>
      </trkpt>
      <trkpt lat="48.57525" lon="7.79141">
        <ele>141.2</ele>
        <time>2019-08-08T13:18:23Z</time>
      </trkpt>
      <trkpt lat="48.57528" lon="7.79136">
        <ele>141.4</ele>
        <time>2019-08-08T13:18:24Z</time>
      </trkpt>
      <trkpt lat="48.57529" lon="7.7913">
        <ele>141.5</ele>
        <time>2019-08-08T13:18:25Z</time>
      </trkpt>
      <trkpt lat="48.57531" lon="7.79125">
        <ele>141.6</ele>
        <time>2019-08-08T13:18:26Z</time>
      </trkpt>
      <trkpt lat="48.57533" lon="7.7912">
        <ele>141.7</ele>
        <time>2019-08-08T13:18:27Z</time>
      </trkpt>
      <trkpt lat="48.57534" lon="7.79114">
        <ele>141.8</ele>
        <time>2019-08-08T13:18:28Z</time>
      </trkpt>
      <trkpt lat="48.57536" lon="7.79111">
        <ele>141.9</ele>
        <time>2019-08-08T13:18:29Z</time>
      </trkpt>
      <trkpt lat="48.57538" lon="7.79105">
        <ele>141.9</ele>
        <time>2019-08-08T13:18:30Z</time>
      </trkpt>
      <trkpt lat="48.5754" lon="7.791">
        <ele>142</ele>
        <time>2019-08-08T13:18:31Z</time>
      </trkpt>
      <trkpt lat="48.57543" lon="7.79094">
        <ele>142</ele>
        <time>2019-08-08T13:18:32Z</time>
      </trkpt>
      <trkpt lat="48.57545" lon="7.79087">
        <ele>142.1</ele>
        <time>2019-08-08T13:18:33Z</time>
      </trkpt>
      <trkpt lat="48.57548" lon="7.79082">
        <ele>142.1</ele>
        <time>2019-08-08T13:18:34Z</time>
      </trkpt>
      <trkpt lat="48.57551" lon="7.79078">
        <ele>142.2</ele>
        <time>2019-08-08T13:18:35Z</time>
      </trkpt>
      <trkpt lat="48.57553" lon="7.79074">
        <ele>142.2</ele>
        <time>2019-08-08T13:18:36Z</time>
      </trkpt>
      <trkpt lat="48.57554" lon="7.79069">
        <ele>142.2</ele>
        <time>2019-08-08T13:18:37Z</time>
      </trkpt>
      <trkpt lat="48.57556" lon="7.79063">
        <ele>142.1</ele>
        <time>2019-08-08T13:18:38Z</time>
      </trkpt>
      <trkpt lat="48.57558" lon="7.79058">
        <ele>142.1</ele>
        <time>2019-08-08T13:18:39Z</time>
      </trkpt>
      <trkpt lat="48.5756" lon="7.79054">
        <ele>142.1</ele>
        <time>2019-08-08T13:18:40Z</time>
      </trkpt>
      <trkpt lat="48.57562" lon="7.79049">
        <ele>142.1</ele>
        <time>2019-08-08T13:18:41Z</time>
      </trkpt>
      <trkpt lat="48.57564" lon="7.79043">
        <ele>142</ele>
        <time>2019-08-08T13:18:42Z</time>
      </trkpt>
      <trkpt lat="48.57566" lon="7.79038">
        <ele>142</ele>
        <time>2019-08-08T13:18:43Z</time>
      </trkpt>
      <trkpt lat="48.57568" lon="7.79032">
        <ele>142</ele>
        <time>2019-08-08T13:18:44Z</time>
      </trkpt>
      <trkpt lat="48.57569" lon="7.79028">
        <ele>142</ele>
        <time>2019-08-08T13:18:45Z</time>
      </trkpt>
      <trkpt lat="48.57572" lon="7.79023">
        <ele>142</ele>
        <time>2019-08-08T13:18:46Z</time>
      </trkpt>
      <trkpt lat="48.57574" lon="7.79018">
        <ele>142.1</ele>
        <time>2019-08-08T13:18:47Z</time>
      </trkpt>
      <trkpt lat="48.57576" lon="7.79013">
        <ele>142.1</ele>
        <time>2019-08-08T13:18:48Z</time>
      </trkpt>
      <trkpt lat="48.57578" lon="7.79008">
        <ele>142.1</ele>
        <time>2019-08-08T13:18:49Z</time>
      </trkpt>
      <trkpt lat="48.57579" lon="7.79003">
        <ele>142.1</ele>
        <time>2019-08-08T13:18:50Z</time>
      </trkpt>
      <trkpt lat="48.5758" lon="7.78997">
        <ele>142.1</ele>
        <time>2019-08-08T13:18:51Z</time>
      </trkpt>
      <trkpt lat="48.57582" lon="7.78991">
        <ele>142.1</ele>
        <time>2019-08-08T13:18:52Z</time>
      </trkpt>
      <trkpt lat="48.57584" lon="7.78986">
        <ele>142.1</ele>
        <time>2019-08-08T13:18:53Z</time>
      </trkpt>
      <trkpt lat="48.57587" lon="7.78982">
        <ele>142.1</ele>
        <time>2019-08-08T13:18:54Z</time>
      </trkpt>
      <trkpt lat="48.57589" lon="7.78978">
        <ele>142.1</ele>
        <time>2019-08-08T13:18:55Z</time>
      </trkpt>
      <trkpt lat="48.57591" lon="7.78972">
        <ele>142.1</ele>
        <time>2019-08-08T13:18:56Z</time>
      </trkpt>
      <trkpt lat="48.57593" lon="7.78967">
        <ele>142.1</ele>
        <time>2019-08-08T13:18:57Z</time>
      </trkpt>
      <trkpt lat="48.57595" lon="7.78961">
        <ele>142.1</ele>
        <time>2019-08-08T13:18:58Z</time>
      </trkpt>
      <trkpt lat="48.57597" lon="7.78955">
        <ele>142.1</ele>
        <time>2019-08-08T13:18:59Z</time>
      </trkpt>
      <trkpt lat="48.576" lon="7.78951">
        <ele>142</ele>
        <time>2019-08-08T13:19:00Z</time>
      </trkpt>
      <trkpt lat="48.57602" lon="7.78946">
        <ele>142</ele>
        <time>2019-08-08T13:19:01Z</time>
      </trkpt>
      <trkpt lat="48.57605" lon="7.78941">
        <ele>142</ele>
        <time>2019-08-08T13:19:02Z</time>
      </trkpt>
      <trkpt lat="48.57607" lon="7.78935">
        <ele>142</ele>
        <time>2019-08-08T13:19:03Z</time>
      </trkpt>
      <trkpt lat="48.57608" lon="7.78929">
        <ele>142</ele>
        <time>2019-08-08T13:19:04Z</time>
      </trkpt>
      <trkpt lat="48.57611" lon="7.78922">
        <ele>141.9</ele>
        <time>2019-08-08T13:19:05Z</time>
      </trkpt>
      <trkpt lat="48.57613" lon="7.78917">
        <ele>141.9</ele>
        <time>2019-08-08T13:19:06Z</time>
      </trkpt>
      <trkpt lat="48.57615" lon="7.78911">
        <ele>141.9</ele>
        <time>2019-08-08T13:19:07Z</time>
      </trkpt>
      <trkpt lat="48.57617" lon="7.78906">
        <ele>141.9</ele>
        <time>2019-08-08T13:19:08Z</time>
      </trkpt>
      <trkpt lat="48.57619" lon="7.78901">
        <ele>141.8</ele>
        <time>2019-08-08T13:19:09Z</time>
      </trkpt>
      <trkpt lat="48.5762" lon="7.78896">
        <ele>141.8</ele>
        <time>2019-08-08T13:19:10Z</time>
      </trkpt>
      <trkpt lat="48.57621" lon="7.78891">
        <ele>141.8</ele>
        <time>2019-08-08T13:19:11Z</time>
      </trkpt>
      <trkpt lat="48.57623" lon="7.78885">
        <ele>141.8</ele>
        <time>2019-08-08T13:19:12Z</time>
      </trkpt>
      <trkpt lat="48.57626" lon="7.7888">
        <ele>141.8</ele>
        <time>2019-08-08T13:19:13Z</time>
      </trkpt>
      <trkpt lat="48.57628" lon="7.78875">
        <ele>141.7</ele>
        <time>2019-08-08T13:19:14Z</time>
      </trkpt>
      <trkpt lat="48.5763" lon="7.7887">
        <ele>141.7</ele>
        <time>2019-08-08T13:19:15Z</time>
      </trkpt>
      <trkpt lat="48.57632" lon="7.78864">
        <ele>141.7</ele>
        <time>2019-08-08T13:19:16Z</time>
      </trkpt>
      <trkpt lat="48.57635" lon="7.78858">
        <ele>141.7</ele>
        <time>2019-08-08T13:19:17Z</time>
      </trkpt>
      <trkpt lat="48.57638" lon="7.78852">
        <ele>141.7</ele>
        <time>2019-08-08T13:19:18Z</time>
      </trkpt>
      <trkpt lat="48.5764" lon="7.78846">
        <ele>141.7</ele>
        <time>2019-08-08T13:19:19Z</time>
      </trkpt>
      <trkpt lat="48.57641" lon="7.78841">
        <ele>141.6</ele>
        <time>2019-08-08T13:19:20Z</time>
      </trkpt>
      <trkpt lat="48.57643" lon="7.78837">
        <ele>141.6</ele>
        <time>2019-08-08T13:19:21Z</time>
      </trkpt>
      <trkpt lat="48.57646" lon="7.78831">
        <ele>141.6</ele>
        <time>2019-08-08T13:19:22Z</time>
      </trkpt>
      <trkpt lat="48.57648" lon="7.78826">
        <ele>141.6</ele>
        <time>2019-08-08T13:19:23Z</time>
      </trkpt>
      <trkpt lat="48.57649" lon="7.78821">
        <ele>141.6</ele>
        <time>2019-08-08T13:19:24Z</time>
      </trkpt>
      <trkpt lat="48.57651" lon="7.78816">
        <ele>141.5</ele>
        <time>2019-08-08T13:19:25Z</time>
      </trkpt>
      <trkpt lat="48.57653" lon="7.78812">
        <ele>141.4</ele>
        <time>2019-08-08T13:19:26Z</time>
      </trkpt>
      <trkpt lat="48.57656" lon="7.78812">
        <ele>141.2</ele>
        <time>2019-08-08T13:19:27Z</time>
      </trkpt>
      <trkpt lat="48.57659" lon="7.78807">
        <ele>141.1</ele>
        <time>2019-08-08T13:19:28Z</time>
      </trkpt>
      <trkpt lat="48.5766" lon="7.78804">
        <ele>140.7</ele>
        <time>2019-08-08T13:19:29Z</time>
      </trkpt>
      <trkpt lat="48.57662" lon="7.78799">
        <ele>140.4</ele>
        <time>2019-08-08T13:19:30Z</time>
      </trkpt>
      <trkpt lat="48.57664" lon="7.78792">
        <ele>140.1</ele>
        <time>2019-08-08T13:19:31Z</time>
      </trkpt>
      <trkpt lat="48.57666" lon="7.78784">
        <ele>139.8</ele>
        <time>2019-08-08T13:19:32Z</time>
      </trkpt>
      <trkpt lat="48.57667" lon="7.78779">
        <ele>139.7</ele>
        <time>2019-08-08T13:19:33Z</time>
      </trkpt>
      <trkpt lat="48.57668" lon="7.78773">
        <ele>139.6</ele>
        <time>2019-08-08T13:19:34Z</time>
      </trkpt>
      <trkpt lat="48.5767" lon="7.78767">
        <ele>139.5</ele>
        <time>2019-08-08T13:19:35Z</time>
      </trkpt>
      <trkpt lat="48.57671" lon="7.78762">
        <ele>139.4</ele>
        <time>2019-08-08T13:19:36Z</time>
      </trkpt>
      <trkpt lat="48.57672" lon="7.78758">
        <ele>139.4</ele>
        <time>2019-08-08T13:19:37Z</time>
      </trkpt>
      <trkpt lat="48.57674" lon="7.78754">
        <ele>139.3</ele>
        <time>2019-08-08T13:19:38Z</time>
      </trkpt>
      <trkpt lat="48.57674" lon="7.78745">
        <ele>139.3</ele>
        <time>2019-08-08T13:19:39Z</time>
      </trkpt>
      <trkpt lat="48.57676" lon="7.7874">
        <ele>139.3</ele>
        <time>2019-08-08T13:19:40Z</time>
      </trkpt>
      <trkpt lat="48.57678" lon="7.78736">
        <ele>139.2</ele>
        <time>2019-08-08T13:19:41Z</time>
      </trkpt>
      <trkpt lat="48.5768" lon="7.78732">
        <ele>139.2</ele>
        <time>2019-08-08T13:19:42Z</time>
      </trkpt>
      <trkpt lat="48.57681" lon="7.78728">
        <ele>139.2</ele>
        <time>2019-08-08T13:19:43Z</time>
      </trkpt>
      <trkpt lat="48.57682" lon="7.78724">
        <ele>139.2</ele>
        <time>2019-08-08T13:19:44Z</time>
      </trkpt>
      <trkpt lat="48.57685" lon="7.78717">
        <ele>139.1</ele>
        <time>2019-08-08T13:19:46Z</time>
      </trkpt>
      <trkpt lat="48.57688" lon="7.78711">
        <ele>139.1</ele>
        <time>2019-08-08T13:19:48Z</time>
      </trkpt>
      <trkpt lat="48.57691" lon="7.7871">
        <ele>139.1</ele>
        <time>2019-08-08T13:19:49Z</time>
      </trkpt>
      <trkpt lat="48.57692" lon="7.78703">
        <ele>139</ele>
        <time>2019-08-08T13:19:51Z</time>
      </trkpt>
      <trkpt lat="48.57695" lon="7.78701">
        <ele>139</ele>
        <time>2019-08-08T13:19:52Z</time>
      </trkpt>
      <trkpt lat="48.57696" lon="7.78698">
        <ele>139</ele>
        <time>2019-08-08T13:19:54Z</time>
      </trkpt>
      <trkpt lat="48.57698" lon="7.78692">
        <ele>139</ele>
        <time>2019-08-08T13:19:56Z</time>
      </trkpt>
      <trkpt lat="48.577" lon="7.78687">
        <ele>138.9</ele>
        <time>2019-08-08T13:19:58Z</time>
      </trkpt>
      <trkpt lat="48.57697" lon="7.78682">
        <ele>138.9</ele>
        <time>2019-08-08T13:20:13Z</time>
      </trkpt>
      <trkpt lat="48.57695" lon="7.78674">
        <ele>138.9</ele>
        <time>2019-08-08T13:20:15Z</time>
      </trkpt>
      <trkpt lat="48.57694" lon="7.78669">
        <ele>138.8</ele>
        <time>2019-08-08T13:20:17Z</time>
      </trkpt>
      <trkpt lat="48.57694" lon="7.78662">
        <ele>138.7</ele>
        <time>2019-08-08T13:20:19Z</time>
      </trkpt>
      <trkpt lat="48.57699" lon="7.78657">
        <ele>138.6</ele>
        <time>2019-08-08T13:20:21Z</time>
      </trkpt>
      <trkpt lat="48.57701" lon="7.78654">
        <ele>138.5</ele>
        <time>2019-08-08T13:20:22Z</time>
      </trkpt>
      <trkpt lat="48.57703" lon="7.78649">
        <ele>138.4</ele>
        <time>2019-08-08T13:20:23Z</time>
      </trkpt>
      <trkpt lat="48.57706" lon="7.78644">
        <ele>138.3</ele>
        <time>2019-08-08T13:20:25Z</time>
      </trkpt>
      <trkpt lat="48.57708" lon="7.7864">
        <ele>138.2</ele>
        <time>2019-08-08T13:20:26Z</time>
      </trkpt>
      <trkpt lat="48.5771" lon="7.78636">
        <ele>138.1</ele>
        <time>2019-08-08T13:20:27Z</time>
      </trkpt>
      <trkpt lat="48.57711" lon="7.78628">
        <ele>138</ele>
        <time>2019-08-08T13:20:29Z</time>
      </trkpt>
      <trkpt lat="48.57711" lon="7.78623">
        <ele>137.9</ele>
        <time>2019-08-08T13:20:30Z</time>
      </trkpt>
      <trkpt lat="48.57713" lon="7.78617">
        <ele>137.9</ele>
        <time>2019-08-08T13:20:31Z</time>
      </trkpt>
      <trkpt lat="48.57715" lon="7.78613">
        <ele>137.8</ele>
        <time>2019-08-08T13:20:32Z</time>
      </trkpt>
      <trkpt lat="48.57717" lon="7.78605">
        <ele>137.7</ele>
        <time>2019-08-08T13:20:34Z</time>
      </trkpt>
      <trkpt lat="48.57718" lon="7.786">
        <ele>137.7</ele>
        <time>2019-08-08T13:20:35Z</time>
      </trkpt>
      <trkpt lat="48.57718" lon="7.78596">
        <ele>137.7</ele>
        <time>2019-08-08T13:20:36Z</time>
      </trkpt>
      <trkpt lat="48.57721" lon="7.78587">
        <ele>137.8</ele>
        <time>2019-08-08T13:20:38Z</time>
      </trkpt>
      <trkpt lat="48.57724" lon="7.78582">
        <ele>137.9</ele>
        <time>2019-08-08T13:20:40Z</time>
      </trkpt>
      <trkpt lat="48.57727" lon="7.78574">
        <ele>138</ele>
        <time>2019-08-08T13:20:42Z</time>
      </trkpt>
      <trkpt lat="48.5773" lon="7.78571">
        <ele>138</ele>
        <time>2019-08-08T13:20:43Z</time>
      </trkpt>
      <trkpt lat="48.57733" lon="7.78568">
        <ele>138</ele>
        <time>2019-08-08T13:20:44Z</time>
      </trkpt>
      <trkpt lat="48.57735" lon="7.78565">
        <ele>138</ele>
        <time>2019-08-08T13:20:45Z</time>
      </trkpt>
      <trkpt lat="48.57738" lon="7.78559">
        <ele>138.1</ele>
        <time>2019-08-08T13:20:47Z</time>
      </trkpt>
      <trkpt lat="48.5774" lon="7.78553">
        <ele>138.2</ele>
        <time>2019-08-08T13:20:48Z</time>
      </trkpt>
      <trkpt lat="48.57742" lon="7.78544">
        <ele>138.4</ele>
        <time>2019-08-08T13:20:50Z</time>
      </trkpt>
      <trkpt lat="48.57744" lon="7.78539">
        <ele>138.5</ele>
        <time>2019-08-08T13:20:52Z</time>
      </trkpt>
      <trkpt lat="48.57747" lon="7.78533">
        <ele>138.7</ele>
        <time>2019-08-08T13:20:54Z</time>
      </trkpt>
      <trkpt lat="48.57747" lon="7.78528">
        <ele>138.8</ele>
        <time>2019-08-08T13:20:55Z</time>
      </trkpt>
      <trkpt lat="48.57748" lon="7.78523">
        <ele>139</ele>
        <time>2019-08-08T13:20:57Z</time>
      </trkpt>
      <trkpt lat="48.5775" lon="7.78518">
        <ele>139.1</ele>
        <time>2019-08-08T13:20:59Z</time>
      </trkpt>
      <trkpt lat="48.57753" lon="7.78511">
        <ele>139.4</ele>
        <time>2019-08-08T13:21:01Z</time>
      </trkpt>
      <trkpt lat="48.57756" lon="7.78504">
        <ele>139.6</ele>
        <time>2019-08-08T13:21:03Z</time>
      </trkpt>
      <trkpt lat="48.57759" lon="7.78499">
        <ele>139.8</ele>
        <time>2019-08-08T13:21:04Z</time>
      </trkpt>
      <trkpt lat="48.5776" lon="7.78495">
        <ele>139.9</ele>
        <time>2019-08-08T13:21:05Z</time>
      </trkpt>
      <trkpt lat="48.57761" lon="7.78491">
        <ele>139.9</ele>
        <time>2019-08-08T13:21:07Z</time>
      </trkpt>
      <trkpt lat="48.57763" lon="7.78486">
        <ele>140</ele>
        <time>2019-08-08T13:21:09Z</time>
      </trkpt>
      <trkpt lat="48.57764" lon="7.78482">
        <ele>140.1</ele>
        <time>2019-08-08T13:21:11Z</time>
      </trkpt>
      <trkpt lat="48.57765" lon="7.78478">
        <ele>140.2</ele>
        <time>2019-08-08T13:21:12Z</time>
      </trkpt>
      <trkpt lat="48.57768" lon="7.78472">
        <ele>140.3</ele>
        <time>2019-08-08T13:21:14Z</time>
      </trkpt>
      <trkpt lat="48.5777" lon="7.78467">
        <ele>140.3</ele>
        <time>2019-08-08T13:21:16Z</time>
      </trkpt>
      <trkpt lat="48.57771" lon="7.78463">
        <ele>140.4</ele>
        <time>2019-08-08T13:21:17Z</time>
      </trkpt>
      <trkpt lat="48.57772" lon="7.78458">
        <ele>140.5</ele>
        <time>2019-08-08T13:21:19Z</time>
      </trkpt>
      <trkpt lat="48.57774" lon="7.78452">
        <ele>140.5</ele>
        <time>2019-08-08T13:21:21Z</time>
      </trkpt>
      <trkpt lat="48.57776" lon="7.78448">
        <ele>140.6</ele>
        <time>2019-08-08T13:21:23Z</time>
      </trkpt>
      <trkpt lat="48.57778" lon="7.78444">
        <ele>140.6</ele>
        <time>2019-08-08T13:21:24Z</time>
      </trkpt>
      <trkpt lat="48.57779" lon="7.7844">
        <ele>140.7</ele>
        <time>2019-08-08T13:21:25Z</time>
      </trkpt>
      <trkpt lat="48.57781" lon="7.78434">
        <ele>140.8</ele>
        <time>2019-08-08T13:21:27Z</time>
      </trkpt>
      <trkpt lat="48.57782" lon="7.78429">
        <ele>140.8</ele>
        <time>2019-08-08T13:21:29Z</time>
      </trkpt>
      <trkpt lat="48.57784" lon="7.78424">
        <ele>140.9</ele>
        <time>2019-08-08T13:21:31Z</time>
      </trkpt>
      <trkpt lat="48.57786" lon="7.78418">
        <ele>141</ele>
        <time>2019-08-08T13:21:33Z</time>
      </trkpt>
      <trkpt lat="48.57789" lon="7.78416">
        <ele>141</ele>
        <time>2019-08-08T13:21:34Z</time>
      </trkpt>
      <trkpt lat="48.5779" lon="7.78412">
        <ele>141.1</ele>
        <time>2019-08-08T13:21:35Z</time>
      </trkpt>
      <trkpt lat="48.57791" lon="7.78407">
        <ele>141.1</ele>
        <time>2019-08-08T13:21:37Z</time>
      </trkpt>
      <trkpt lat="48.57793" lon="7.78403">
        <ele>141.1</ele>
        <time>2019-08-08T13:21:39Z</time>
      </trkpt>
      <trkpt lat="48.57796" lon="7.78405">
        <ele>141.2</ele>
        <time>2019-08-08T13:21:42Z</time>
      </trkpt>
      <trkpt lat="48.578" lon="7.78405">
        <ele>141.2</ele>
        <time>2019-08-08T13:21:44Z</time>
      </trkpt>
      <trkpt lat="48.57803" lon="7.78404">
        <ele>141.2</ele>
        <time>2019-08-08T13:21:45Z</time>
      </trkpt>
      <trkpt lat="48.57807" lon="7.78402">
        <ele>141.2</ele>
        <time>2019-08-08T13:21:47Z</time>
      </trkpt>
      <trkpt lat="48.57809" lon="7.78399">
        <ele>141.1</ele>
        <time>2019-08-08T13:21:48Z</time>
      </trkpt>
      <trkpt lat="48.57811" lon="7.78396">
        <ele>141.1</ele>
        <time>2019-08-08T13:21:49Z</time>
      </trkpt>
      <trkpt lat="48.57814" lon="7.7839">
        <ele>141.1</ele>
        <time>2019-08-08T13:21:51Z</time>
      </trkpt>
      <trkpt lat="48.57815" lon="7.78386">
        <ele>141.1</ele>
        <time>2019-08-08T13:21:52Z</time>
      </trkpt>
      <trkpt lat="48.57817" lon="7.78381">
        <ele>140.8</ele>
        <time>2019-08-08T13:21:53Z</time>
      </trkpt>
      <trkpt lat="48.57819" lon="7.78377">
        <ele>140.6</ele>
        <time>2019-08-08T13:21:54Z</time>
      </trkpt>
      <trkpt lat="48.5782" lon="7.78372">
        <ele>140.3</ele>
        <time>2019-08-08T13:21:55Z</time>
      </trkpt>
      <trkpt lat="48.57821" lon="7.78367">
        <ele>140.1</ele>
        <time>2019-08-08T13:21:56Z</time>
      </trkpt>
      <trkpt lat="48.57824" lon="7.78362">
        <ele>139.7</ele>
        <time>2019-08-08T13:21:57Z</time>
      </trkpt>
      <trkpt lat="48.57826" lon="7.78356">
        <ele>139.3</ele>
        <time>2019-08-08T13:21:58Z</time>
      </trkpt>
      <trkpt lat="48.57827" lon="7.78351">
        <ele>139</ele>
        <time>2019-08-08T13:21:59Z</time>
      </trkpt>
      <trkpt lat="48.57829" lon="7.78346">
        <ele>138.8</ele>
        <time>2019-08-08T13:22:00Z</time>
      </trkpt>
      <trkpt lat="48.57832" lon="7.7834">
        <ele>138.4</ele>
        <time>2019-08-08T13:22:02Z</time>
      </trkpt>
      <trkpt lat="48.57833" lon="7.78335">
        <ele>138.1</ele>
        <time>2019-08-08T13:22:03Z</time>
      </trkpt>
      <trkpt lat="48.57837" lon="7.78327">
        <ele>137.6</ele>
        <time>2019-08-08T13:22:05Z</time>
      </trkpt>
      <trkpt lat="48.57839" lon="7.78324">
        <ele>137.4</ele>
        <time>2019-08-08T13:22:06Z</time>
      </trkpt>
      <trkpt lat="48.57842" lon="7.7832">
        <ele>137.1</ele>
        <time>2019-08-08T13:22:07Z</time>
      </trkpt>
      <trkpt lat="48.57844" lon="7.78317">
        <ele>136.9</ele>
        <time>2019-08-08T13:22:08Z</time>
      </trkpt>
      <trkpt lat="48.57846" lon="7.78312">
        <ele>136.6</ele>
        <time>2019-08-08T13:22:09Z</time>
      </trkpt>
      <trkpt lat="48.57848" lon="7.78307">
        <ele>136.2</ele>
        <time>2019-08-08T13:22:10Z</time>
      </trkpt>
      <trkpt lat="48.57851" lon="7.78302">
        <ele>135.9</ele>
        <time>2019-08-08T13:22:11Z</time>
      </trkpt>
      <trkpt lat="48.57855" lon="7.78298">
        <ele>135.5</ele>
        <time>2019-08-08T13:22:12Z</time>
      </trkpt>
      <trkpt lat="48.57856" lon="7.78294">
        <ele>135.2</ele>
        <time>2019-08-08T13:22:13Z</time>
      </trkpt>
      <trkpt lat="48.57858" lon="7.78289">
        <ele>134.9</ele>
        <time>2019-08-08T13:22:14Z</time>
      </trkpt>
      <trkpt lat="48.57861" lon="7.78283">
        <ele>134.4</ele>
        <time>2019-08-08T13:22:15Z</time>
      </trkpt>
      <trkpt lat="48.57864" lon="7.7828">
        <ele>134</ele>
        <time>2019-08-08T13:22:16Z</time>
      </trkpt>
      <trkpt lat="48.57866" lon="7.78275">
        <ele>133.3</ele>
        <time>2019-08-08T13:22:17Z</time>
      </trkpt>
      <trkpt lat="48.57868" lon="7.78271">
        <ele>133.3</ele>
        <time>2019-08-08T13:22:18Z</time>
      </trkpt>
      <trkpt lat="48.57871" lon="7.78266">
        <ele>133.4</ele>
        <time>2019-08-08T13:22:19Z</time>
      </trkpt>
      <trkpt lat="48.57873" lon="7.78261">
        <ele>133.5</ele>
        <time>2019-08-08T13:22:20Z</time>
      </trkpt>
      <trkpt lat="48.57876" lon="7.78256">
        <ele>133.6</ele>
        <time>2019-08-08T13:22:21Z</time>
      </trkpt>
      <trkpt lat="48.57879" lon="7.78252">
        <ele>133.7</ele>
        <time>2019-08-08T13:22:22Z</time>
      </trkpt>
      <trkpt lat="48.57882" lon="7.7825">
        <ele>133.7</ele>
        <time>2019-08-08T13:22:23Z</time>
      </trkpt>
      <trkpt lat="48.57885" lon="7.78246">
        <ele>133.8</ele>
        <time>2019-08-08T13:22:24Z</time>
      </trkpt>
      <trkpt lat="48.57888" lon="7.78243">
        <ele>133.9</ele>
        <time>2019-08-08T13:22:25Z</time>
      </trkpt>
      <trkpt lat="48.57891" lon="7.78238">
        <ele>133.9</ele>
        <time>2019-08-08T13:22:26Z</time>
      </trkpt>
      <trkpt lat="48.57895" lon="7.78232">
        <ele>134</ele>
        <time>2019-08-08T13:22:27Z</time>
      </trkpt>
      <trkpt lat="48.57898" lon="7.78227">
        <ele>134</ele>
        <time>2019-08-08T13:22:28Z</time>
      </trkpt>
      <trkpt lat="48.57901" lon="7.7822">
        <ele>134.1</ele>
        <time>2019-08-08T13:22:29Z</time>
      </trkpt>
      <trkpt lat="48.57903" lon="7.78215">
        <ele>134.1</ele>
        <time>2019-08-08T13:22:30Z</time>
      </trkpt>
      <trkpt lat="48.57906" lon="7.78209">
        <ele>134.1</ele>
        <time>2019-08-08T13:22:31Z</time>
      </trkpt>
      <trkpt lat="48.57908" lon="7.78203">
        <ele>134.1</ele>
        <time>2019-08-08T13:22:32Z</time>
      </trkpt>
      <trkpt lat="48.5791" lon="7.78198">
        <ele>134.1</ele>
        <time>2019-08-08T13:22:33Z</time>
      </trkpt>
      <trkpt lat="48.57911" lon="7.78193">
        <ele>134.1</ele>
        <time>2019-08-08T13:22:34Z</time>
      </trkpt>
      <trkpt lat="48.57914" lon="7.78188">
        <ele>134.1</ele>
        <time>2019-08-08T13:22:35Z</time>
      </trkpt>
      <trkpt lat="48.57916" lon="7.78183">
        <ele>134.1</ele>
        <time>2019-08-08T13:22:36Z</time>
      </trkpt>
      <trkpt lat="48.57919" lon="7.7818">
        <ele>134.1</ele>
        <time>2019-08-08T13:22:37Z</time>
      </trkpt>
      <trkpt lat="48.57922" lon="7.78175">
        <ele>134.1</ele>
        <time>2019-08-08T13:22:38Z</time>
      </trkpt>
      <trkpt lat="48.57925" lon="7.78169">
        <ele>134</ele>
        <time>2019-08-08T13:22:39Z</time>
      </trkpt>
      <trkpt lat="48.57927" lon="7.78164">
        <ele>134</ele>
        <time>2019-08-08T13:22:40Z</time>
      </trkpt>
      <trkpt lat="48.5793" lon="7.7816">
        <ele>133.9</ele>
        <time>2019-08-08T13:22:41Z</time>
      </trkpt>
      <trkpt lat="48.57932" lon="7.78155">
        <ele>133.9</ele>
        <time>2019-08-08T13:22:42Z</time>
      </trkpt>
      <trkpt lat="48.57934" lon="7.7815">
        <ele>133.8</ele>
        <time>2019-08-08T13:22:43Z</time>
      </trkpt>
      <trkpt lat="48.57937" lon="7.78146">
        <ele>133.8</ele>
        <time>2019-08-08T13:22:44Z</time>
      </trkpt>
      <trkpt lat="48.57939" lon="7.7814">
        <ele>133.7</ele>
        <time>2019-08-08T13:22:45Z</time>
      </trkpt>
      <trkpt lat="48.57942" lon="7.78135">
        <ele>133.7</ele>
        <time>2019-08-08T13:22:46Z</time>
      </trkpt>
      <trkpt lat="48.57945" lon="7.78129">
        <ele>134</ele>
        <time>2019-08-08T13:22:47Z</time>
      </trkpt>
      <trkpt lat="48.57949" lon="7.78123">
        <ele>134.4</ele>
        <time>2019-08-08T13:22:48Z</time>
      </trkpt>
      <trkpt lat="48.57953" lon="7.78119">
        <ele>134.6</ele>
        <time>2019-08-08T13:22:49Z</time>
      </trkpt>
      <trkpt lat="48.57956" lon="7.78114">
        <ele>134.6</ele>
        <time>2019-08-08T13:22:50Z</time>
      </trkpt>
      <trkpt lat="48.5796" lon="7.78109">
        <ele>134.6</ele>
        <time>2019-08-08T13:22:51Z</time>
      </trkpt>
      <trkpt lat="48.57963" lon="7.78104">
        <ele>134.5</ele>
        <time>2019-08-08T13:22:52Z</time>
      </trkpt>
      <trkpt lat="48.57966" lon="7.78098">
        <ele>134.6</ele>
        <time>2019-08-08T13:22:53Z</time>
      </trkpt>
      <trkpt lat="48.5797" lon="7.78091">
        <ele>134.6</ele>
        <time>2019-08-08T13:22:54Z</time>
      </trkpt>
      <trkpt lat="48.57973" lon="7.78084">
        <ele>134.7</ele>
        <time>2019-08-08T13:22:55Z</time>
      </trkpt>
      <trkpt lat="48.57977" lon="7.78077">
        <ele>134.9</ele>
        <time>2019-08-08T13:22:56Z</time>
      </trkpt>
      <trkpt lat="48.5798" lon="7.7807">
        <ele>135.1</ele>
        <time>2019-08-08T13:22:57Z</time>
      </trkpt>
      <trkpt lat="48.57984" lon="7.78063">
        <ele>135.3</ele>
        <time>2019-08-08T13:22:58Z</time>
      </trkpt>
      <trkpt lat="48.57988" lon="7.78056">
        <ele>135.5</ele>
        <time>2019-08-08T13:22:59Z</time>
      </trkpt>
      <trkpt lat="48.57991" lon="7.7805">
        <ele>135.7</ele>
        <time>2019-08-08T13:23:00Z</time>
      </trkpt>
      <trkpt lat="48.57996" lon="7.78043">
        <ele>135.7</ele>
        <time>2019-08-08T13:23:01Z</time>
      </trkpt>
      <trkpt lat="48.58" lon="7.78037">
        <ele>135.7</ele>
        <time>2019-08-08T13:23:02Z</time>
      </trkpt>
      <trkpt lat="48.58004" lon="7.78031">
        <ele>135.7</ele>
        <time>2019-08-08T13:23:03Z</time>
      </trkpt>
      <trkpt lat="48.58008" lon="7.78024">
        <ele>135.6</ele>
        <time>2019-08-08T13:23:04Z</time>
      </trkpt>
      <trkpt lat="48.58011" lon="7.78017">
        <ele>135.6</ele>
        <time>2019-08-08T13:23:05Z</time>
      </trkpt>
      <trkpt lat="48.58015" lon="7.78012">
        <ele>135.5</ele>
        <time>2019-08-08T13:23:06Z</time>
      </trkpt>
      <trkpt lat="48.58018" lon="7.78006">
        <ele>135.5</ele>
        <time>2019-08-08T13:23:07Z</time>
      </trkpt>
      <trkpt lat="48.58022" lon="7.77998">
        <ele>135.4</ele>
        <time>2019-08-08T13:23:08Z</time>
      </trkpt>
      <trkpt lat="48.58025" lon="7.77992">
        <ele>135.3</ele>
        <time>2019-08-08T13:23:09Z</time>
      </trkpt>
      <trkpt lat="48.58029" lon="7.77986">
        <ele>135.3</ele>
        <time>2019-08-08T13:23:10Z</time>
      </trkpt>
      <trkpt lat="48.58032" lon="7.77979">
        <ele>135.2</ele>
        <time>2019-08-08T13:23:11Z</time>
      </trkpt>
      <trkpt lat="48.58036" lon="7.77973">
        <ele>135.2</ele>
        <time>2019-08-08T13:23:12Z</time>
      </trkpt>
      <trkpt lat="48.58039" lon="7.77967">
        <ele>135.1</ele>
        <time>2019-08-08T13:23:13Z</time>
      </trkpt>
      <trkpt lat="48.58042" lon="7.77961">
        <ele>135</ele>
        <time>2019-08-08T13:23:14Z</time>
      </trkpt>
      <trkpt lat="48.58046" lon="7.77956">
        <ele>135</ele>
        <time>2019-08-08T13:23:15Z</time>
      </trkpt>
      <trkpt lat="48.5805" lon="7.7795">
        <ele>134.9</ele>
        <time>2019-08-08T13:23:16Z</time>
      </trkpt>
      <trkpt lat="48.58054" lon="7.77947">
        <ele>134.9</ele>
        <time>2019-08-08T13:23:17Z</time>
      </trkpt>
      <trkpt lat="48.5806" lon="7.77946">
        <ele>134.8</ele>
        <time>2019-08-08T13:23:18Z</time>
      </trkpt>
      <trkpt lat="48.58065" lon="7.77947">
        <ele>134.7</ele>
        <time>2019-08-08T13:23:19Z</time>
      </trkpt>
      <trkpt lat="48.5807" lon="7.77947">
        <ele>134.8</ele>
        <time>2019-08-08T13:23:20Z</time>
      </trkpt>
      <trkpt lat="48.58076" lon="7.77945">
        <ele>134.9</ele>
        <time>2019-08-08T13:23:21Z</time>
      </trkpt>
      <trkpt lat="48.58081" lon="7.77944">
        <ele>135</ele>
        <time>2019-08-08T13:23:22Z</time>
      </trkpt>
      <trkpt lat="48.58087" lon="7.77943">
        <ele>135.3</ele>
        <time>2019-08-08T13:23:23Z</time>
      </trkpt>
      <trkpt lat="48.58092" lon="7.77942">
        <ele>135.4</ele>
        <time>2019-08-08T13:23:24Z</time>
      </trkpt>
      <trkpt lat="48.58098" lon="7.77942">
        <ele>135.6</ele>
        <time>2019-08-08T13:23:25Z</time>
      </trkpt>
      <trkpt lat="48.58103" lon="7.77942">
        <ele>135.7</ele>
        <time>2019-08-08T13:23:26Z</time>
      </trkpt>
      <trkpt lat="48.58108" lon="7.77942">
        <ele>135.8</ele>
        <time>2019-08-08T13:23:27Z</time>
      </trkpt>
      <trkpt lat="48.58112" lon="7.77944">
        <ele>135.9</ele>
        <time>2019-08-08T13:23:28Z</time>
      </trkpt>
      <trkpt lat="48.58115" lon="7.77944">
        <ele>136</ele>
        <time>2019-08-08T13:23:29Z</time>
      </trkpt>
      <trkpt lat="48.58119" lon="7.77943">
        <ele>136.1</ele>
        <time>2019-08-08T13:23:30Z</time>
      </trkpt>
      <trkpt lat="48.58122" lon="7.77942">
        <ele>136.1</ele>
        <time>2019-08-08T13:23:31Z</time>
      </trkpt>
      <trkpt lat="48.58124" lon="7.77942">
        <ele>136.2</ele>
        <time>2019-08-08T13:23:32Z</time>
      </trkpt>
      <trkpt lat="48.58128" lon="7.77941">
        <ele>136.2</ele>
        <time>2019-08-08T13:23:33Z</time>
      </trkpt>
      <trkpt lat="48.58131" lon="7.7794">
        <ele>136.3</ele>
        <time>2019-08-08T13:23:34Z</time>
      </trkpt>
      <trkpt lat="48.58133" lon="7.77939">
        <ele>136.3</ele>
        <time>2019-08-08T13:23:35Z</time>
      </trkpt>
      <trkpt lat="48.58137" lon="7.77939">
        <ele>136.4</ele>
        <time>2019-08-08T13:23:37Z</time>
      </trkpt>
      <trkpt lat="48.58139" lon="7.77944">
        <ele>136.7</ele>
        <time>2019-08-08T13:23:39Z</time>
      </trkpt>
      <trkpt lat="48.5814" lon="7.77949">
        <ele>136.8</ele>
        <time>2019-08-08T13:23:42Z</time>
      </trkpt>
      <trkpt lat="48.58142" lon="7.77954">
        <ele>136.8</ele>
        <time>2019-08-08T13:23:44Z</time>
      </trkpt>
      <trkpt lat="48.58142" lon="7.77959">
        <ele>136.9</ele>
        <time>2019-08-08T13:23:46Z</time>
      </trkpt>
      <trkpt lat="48.58143" lon="7.77964">
        <ele>137</ele>
        <time>2019-08-08T13:23:48Z</time>
      </trkpt>
      <trkpt lat="48.58147" lon="7.77968">
        <ele>137.1</ele>
        <time>2019-08-08T13:23:50Z</time>
      </trkpt>
      <trkpt lat="48.58149" lon="7.77971">
        <ele>137.1</ele>
        <time>2019-08-08T13:23:51Z</time>
      </trkpt>
      <trkpt lat="48.58152" lon="7.77971">
        <ele>137.2</ele>
        <time>2019-08-08T13:23:53Z</time>
      </trkpt>
      <trkpt lat="48.58155" lon="7.77967">
        <ele>137.3</ele>
        <time>2019-08-08T13:23:56Z</time>
      </trkpt>
      <trkpt lat="48.58161" lon="7.77967">
        <ele>137.5</ele>
        <time>2019-08-08T13:24:24Z</time>
      </trkpt>
      <trkpt lat="48.58166" lon="7.77969">
        <ele>137.7</ele>
        <time>2019-08-08T13:24:26Z</time>
      </trkpt>
      <trkpt lat="48.58169" lon="7.77968">
        <ele>138.2</ele>
        <time>2019-08-08T13:24:27Z</time>
      </trkpt>
      <trkpt lat="48.58173" lon="7.77964">
        <ele>138.2</ele>
        <time>2019-08-08T13:24:29Z</time>
      </trkpt>
      <trkpt lat="48.58174" lon="7.77959">
        <ele>138.3</ele>
        <time>2019-08-08T13:24:30Z</time>
      </trkpt>
      <trkpt lat="48.58175" lon="7.77952">
        <ele>138.3</ele>
        <time>2019-08-08T13:24:31Z</time>
      </trkpt>
      <trkpt lat="48.58176" lon="7.77945">
        <ele>138.4</ele>
        <time>2019-08-08T13:24:32Z</time>
      </trkpt>
      <trkpt lat="48.58178" lon="7.77941">
        <ele>138.4</ele>
        <time>2019-08-08T13:24:33Z</time>
      </trkpt>
      <trkpt lat="48.5818" lon="7.77937">
        <ele>138.5</ele>
        <time>2019-08-08T13:24:34Z</time>
      </trkpt>
      <trkpt lat="48.58181" lon="7.77933">
        <ele>138.5</ele>
        <time>2019-08-08T13:24:35Z</time>
      </trkpt>
      <trkpt lat="48.58183" lon="7.7793">
        <ele>138.6</ele>
        <time>2019-08-08T13:24:40Z</time>
      </trkpt>
      <trkpt lat="48.58184" lon="7.77925">
        <ele>138.8</ele>
        <time>2019-08-08T13:24:44Z</time>
      </trkpt>
      <trkpt lat="48.58186" lon="7.7792">
        <ele>139.1</ele>
        <time>2019-08-08T13:24:46Z</time>
      </trkpt>
      <trkpt lat="48.58188" lon="7.77914">
        <ele>139.3</ele>
        <time>2019-08-08T13:24:48Z</time>
      </trkpt>
      <trkpt lat="48.58191" lon="7.77911">
        <ele>139.6</ele>
        <time>2019-08-08T13:24:49Z</time>
      </trkpt>
      <trkpt lat="48.58194" lon="7.77905">
        <ele>140</ele>
        <time>2019-08-08T13:24:51Z</time>
      </trkpt>
      <trkpt lat="48.58197" lon="7.77901">
        <ele>140.3</ele>
        <time>2019-08-08T13:24:53Z</time>
      </trkpt>
      <trkpt lat="48.58199" lon="7.77896">
        <ele>140.6</ele>
        <time>2019-08-08T13:24:55Z</time>
      </trkpt>
      <trkpt lat="48.58202" lon="7.77888">
        <ele>141.1</ele>
        <time>2019-08-08T13:24:57Z</time>
      </trkpt>
      <trkpt lat="48.58204" lon="7.77885">
        <ele>141.3</ele>
        <time>2019-08-08T13:24:58Z</time>
      </trkpt>
      <trkpt lat="48.58206" lon="7.77882">
        <ele>141.5</ele>
        <time>2019-08-08T13:24:59Z</time>
      </trkpt>
      <trkpt lat="48.58207" lon="7.77877">
        <ele>141.8</ele>
        <time>2019-08-08T13:25:00Z</time>
      </trkpt>
      <trkpt lat="48.58208" lon="7.77872">
        <ele>142.1</ele>
        <time>2019-08-08T13:25:01Z</time>
      </trkpt>
      <trkpt lat="48.5821" lon="7.77867">
        <ele>142.4</ele>
        <time>2019-08-08T13:25:02Z</time>
      </trkpt>
      <trkpt lat="48.58211" lon="7.77863">
        <ele>142.5</ele>
        <time>2019-08-08T13:25:03Z</time>
      </trkpt>
      <trkpt lat="48.58213" lon="7.77858">
        <ele>142.7</ele>
        <time>2019-08-08T13:25:05Z</time>
      </trkpt>
      <trkpt lat="48.58214" lon="7.77852">
        <ele>142.6</ele>
        <time>2019-08-08T13:25:07Z</time>
      </trkpt>
      <trkpt lat="48.58217" lon="7.77845">
        <ele>142.5</ele>
        <time>2019-08-08T13:25:09Z</time>
      </trkpt>
      <trkpt lat="48.58219" lon="7.77839">
        <ele>142.5</ele>
        <time>2019-08-08T13:25:11Z</time>
      </trkpt>
      <trkpt lat="48.58221" lon="7.77835">
        <ele>142.4</ele>
        <time>2019-08-08T13:25:12Z</time>
      </trkpt>
      <trkpt lat="48.58222" lon="7.77831">
        <ele>142.4</ele>
        <time>2019-08-08T13:25:13Z</time>
      </trkpt>
      <trkpt lat="48.58224" lon="7.77827">
        <ele>142.3</ele>
        <time>2019-08-08T13:25:14Z</time>
      </trkpt>
      <trkpt lat="48.58226" lon="7.77823">
        <ele>142.3</ele>
        <time>2019-08-08T13:25:15Z</time>
      </trkpt>
      <trkpt lat="48.58228" lon="7.77819">
        <ele>142.2</ele>
        <time>2019-08-08T13:25:16Z</time>
      </trkpt>
      <trkpt lat="48.5823" lon="7.77815">
        <ele>142.2</ele>
        <time>2019-08-08T13:25:17Z</time>
      </trkpt>
      <trkpt lat="48.58231" lon="7.7781">
        <ele>142.1</ele>
        <time>2019-08-08T13:25:18Z</time>
      </trkpt>
      <trkpt lat="48.58233" lon="7.77805">
        <ele>142.1</ele>
        <time>2019-08-08T13:25:19Z</time>
      </trkpt>
      <trkpt lat="48.58236" lon="7.778">
        <ele>142</ele>
        <time>2019-08-08T13:25:20Z</time>
      </trkpt>
      <trkpt lat="48.58239" lon="7.77796">
        <ele>142</ele>
        <time>2019-08-08T13:25:21Z</time>
      </trkpt>
      <trkpt lat="48.58242" lon="7.77792">
        <ele>141.9</ele>
        <time>2019-08-08T13:25:22Z</time>
      </trkpt>
      <trkpt lat="48.58246" lon="7.77789">
        <ele>141.9</ele>
        <time>2019-08-08T13:25:23Z</time>
      </trkpt>
      <trkpt lat="48.58248" lon="7.77784">
        <ele>141.9</ele>
        <time>2019-08-08T13:25:24Z</time>
      </trkpt>
      <trkpt lat="48.5825" lon="7.77779">
        <ele>141.8</ele>
        <time>2019-08-08T13:25:25Z</time>
      </trkpt>
      <trkpt lat="48.58251" lon="7.77772">
        <ele>141.8</ele>
        <time>2019-08-08T13:25:26Z</time>
      </trkpt>
      <trkpt lat="48.58253" lon="7.77767">
        <ele>141.8</ele>
        <time>2019-08-08T13:25:27Z</time>
      </trkpt>
      <trkpt lat="48.58255" lon="7.77763">
        <ele>141.8</ele>
        <time>2019-08-08T13:25:28Z</time>
      </trkpt>
      <trkpt lat="48.58258" lon="7.77758">
        <ele>141.8</ele>
        <time>2019-08-08T13:25:29Z</time>
      </trkpt>
      <trkpt lat="48.5826" lon="7.77752">
        <ele>141.8</ele>
        <time>2019-08-08T13:25:30Z</time>
      </trkpt>
      <trkpt lat="48.58263" lon="7.77747">
        <ele>141.8</ele>
        <time>2019-08-08T13:25:31Z</time>
      </trkpt>
      <trkpt lat="48.58264" lon="7.77742">
        <ele>141.8</ele>
        <time>2019-08-08T13:25:32Z</time>
      </trkpt>
      <trkpt lat="48.58266" lon="7.77737">
        <ele>141.8</ele>
        <time>2019-08-08T13:25:33Z</time>
      </trkpt>
      <trkpt lat="48.58269" lon="7.77732">
        <ele>141.8</ele>
        <time>2019-08-08T13:25:34Z</time>
      </trkpt>
      <trkpt lat="48.58272" lon="7.77728">
        <ele>141.8</ele>
        <time>2019-08-08T13:25:35Z</time>
      </trkpt>
      <trkpt lat="48.58274" lon="7.77723">
        <ele>141.9</ele>
        <time>2019-08-08T13:25:36Z</time>
      </trkpt>
      <trkpt lat="48.58276" lon="7.77719">
        <ele>141.9</ele>
        <time>2019-08-08T13:25:37Z</time>
      </trkpt>
      <trkpt lat="48.58278" lon="7.77716">
        <ele>141.9</ele>
        <time>2019-08-08T13:25:38Z</time>
      </trkpt>
      <trkpt lat="48.58282" lon="7.7771">
        <ele>141.9</ele>
        <time>2019-08-08T13:25:40Z</time>
      </trkpt>
      <trkpt lat="48.58284" lon="7.77705">
        <ele>141.9</ele>
        <time>2019-08-08T13:25:41Z</time>
      </trkpt>
      <trkpt lat="48.58287" lon="7.77701">
        <ele>141.9</ele>
        <time>2019-08-08T13:25:42Z</time>
      </trkpt>
      <trkpt lat="48.5829" lon="7.77697">
        <ele>141.9</ele>
        <time>2019-08-08T13:25:43Z</time>
      </trkpt>
      <trkpt lat="48.58293" lon="7.77693">
        <ele>141.9</ele>
        <time>2019-08-08T13:25:44Z</time>
      </trkpt>
      <trkpt lat="48.58295" lon="7.77689">
        <ele>141.9</ele>
        <time>2019-08-08T13:25:45Z</time>
      </trkpt>
      <trkpt lat="48.58298" lon="7.77685">
        <ele>141.9</ele>
        <time>2019-08-08T13:25:46Z</time>
      </trkpt>
      <trkpt lat="48.58301" lon="7.77679">
        <ele>141.9</ele>
        <time>2019-08-08T13:25:47Z</time>
      </trkpt>
      <trkpt lat="48.58304" lon="7.77675">
        <ele>141.9</ele>
        <time>2019-08-08T13:25:48Z</time>
      </trkpt>
      <trkpt lat="48.58306" lon="7.77671">
        <ele>141.9</ele>
        <time>2019-08-08T13:25:49Z</time>
      </trkpt>
      <trkpt lat="48.58307" lon="7.77666">
        <ele>141.9</ele>
        <time>2019-08-08T13:25:50Z</time>
      </trkpt>
      <trkpt lat="48.5831" lon="7.77661">
        <ele>141.9</ele>
        <time>2019-08-08T13:25:51Z</time>
      </trkpt>
      <trkpt lat="48.58311" lon="7.77656">
        <ele>141.9</ele>
        <time>2019-08-08T13:25:52Z</time>
      </trkpt>
      <trkpt lat="48.58313" lon="7.77653">
        <ele>141.9</ele>
        <time>2019-08-08T13:25:53Z</time>
      </trkpt>
      <trkpt lat="48.58316" lon="7.7765">
        <ele>141.9</ele>
        <time>2019-08-08T13:25:56Z</time>
      </trkpt>
      <trkpt lat="48.58318" lon="7.77649">
        <ele>141.9</ele>
        <time>2019-08-08T13:25:58Z</time>
      </trkpt>
      <trkpt lat="48.58319" lon="7.77643">
        <ele>141.9</ele>
        <time>2019-08-08T13:26:00Z</time>
      </trkpt>
      <trkpt lat="48.58319" lon="7.77636">
        <ele>142</ele>
        <time>2019-08-08T13:26:02Z</time>
      </trkpt>
      <trkpt lat="48.5832" lon="7.77632">
        <ele>142</ele>
        <time>2019-08-08T13:26:03Z</time>
      </trkpt>
      <trkpt lat="48.58322" lon="7.77626">
        <ele>142.1</ele>
        <time>2019-08-08T13:26:04Z</time>
      </trkpt>
      <trkpt lat="48.58323" lon="7.77621">
        <ele>142.1</ele>
        <time>2019-08-08T13:26:05Z</time>
      </trkpt>
      <trkpt lat="48.58325" lon="7.77616">
        <ele>142.2</ele>
        <time>2019-08-08T13:26:06Z</time>
      </trkpt>
      <trkpt lat="48.58327" lon="7.77611">
        <ele>142.2</ele>
        <time>2019-08-08T13:26:07Z</time>
      </trkpt>
      <trkpt lat="48.58329" lon="7.77606">
        <ele>142.2</ele>
        <time>2019-08-08T13:26:08Z</time>
      </trkpt>
      <trkpt lat="48.58331" lon="7.77602">
        <ele>142.3</ele>
        <time>2019-08-08T13:26:09Z</time>
      </trkpt>
      <trkpt lat="48.58335" lon="7.77595">
        <ele>142.3</ele>
        <time>2019-08-08T13:26:11Z</time>
      </trkpt>
      <trkpt lat="48.58337" lon="7.7759">
        <ele>142.3</ele>
        <time>2019-08-08T13:26:12Z</time>
      </trkpt>
      <trkpt lat="48.58338" lon="7.77586">
        <ele>142.3</ele>
        <time>2019-08-08T13:26:13Z</time>
      </trkpt>
      <trkpt lat="48.5834" lon="7.77582">
        <ele>142.3</ele>
        <time>2019-08-08T13:26:14Z</time>
      </trkpt>
      <trkpt lat="48.58342" lon="7.77578">
        <ele>142.3</ele>
        <time>2019-08-08T13:26:15Z</time>
      </trkpt>
      <trkpt lat="48.58346" lon="7.7757">
        <ele>142.3</ele>
        <time>2019-08-08T13:26:17Z</time>
      </trkpt>
      <trkpt lat="48.58348" lon="7.77566">
        <ele>142.3</ele>
        <time>2019-08-08T13:26:18Z</time>
      </trkpt>
      <trkpt lat="48.58352" lon="7.77557">
        <ele>142.3</ele>
        <time>2019-08-08T13:26:20Z</time>
      </trkpt>
      <trkpt lat="48.58355" lon="7.77552">
        <ele>142.3</ele>
        <time>2019-08-08T13:26:21Z</time>
      </trkpt>
      <trkpt lat="48.58357" lon="7.77548">
        <ele>142.3</ele>
        <time>2019-08-08T13:26:22Z</time>
      </trkpt>
      <trkpt lat="48.58359" lon="7.77545">
        <ele>142.3</ele>
        <time>2019-08-08T13:26:23Z</time>
      </trkpt>
      <trkpt lat="48.58361" lon="7.7754">
        <ele>142.3</ele>
        <time>2019-08-08T13:26:24Z</time>
      </trkpt>
      <trkpt lat="48.58363" lon="7.77536">
        <ele>142.3</ele>
        <time>2019-08-08T13:26:25Z</time>
      </trkpt>
      <trkpt lat="48.58366" lon="7.77527">
        <ele>142.3</ele>
        <time>2019-08-08T13:26:27Z</time>
      </trkpt>
      <trkpt lat="48.58368" lon="7.77523">
        <ele>142.3</ele>
        <time>2019-08-08T13:26:28Z</time>
      </trkpt>
      <trkpt lat="48.58371" lon="7.7752">
        <ele>142.3</ele>
        <time>2019-08-08T13:26:29Z</time>
      </trkpt>
      <trkpt lat="48.58376" lon="7.77517">
        <ele>142.3</ele>
        <time>2019-08-08T13:26:31Z</time>
      </trkpt>
      <trkpt lat="48.58383" lon="7.7752">
        <ele>142.4</ele>
        <time>2019-08-08T13:26:32Z</time>
      </trkpt>
      <trkpt lat="48.58388" lon="7.77522">
        <ele>142.4</ele>
        <time>2019-08-08T13:26:33Z</time>
      </trkpt>
      <trkpt lat="48.58392" lon="7.77519">
        <ele>142.4</ele>
        <time>2019-08-08T13:26:35Z</time>
      </trkpt>
      <trkpt lat="48.58395" lon="7.77518">
        <ele>142.4</ele>
        <time>2019-08-08T13:26:36Z</time>
      </trkpt>
      <trkpt lat="48.58397" lon="7.77512">
        <ele>142.5</ele>
        <time>2019-08-08T13:26:38Z</time>
      </trkpt>
      <trkpt lat="48.58398" lon="7.77508">
        <ele>142.5</ele>
        <time>2019-08-08T13:26:39Z</time>
      </trkpt>
      <trkpt lat="48.58401" lon="7.77505">
        <ele>142.5</ele>
        <time>2019-08-08T13:26:40Z</time>
      </trkpt>
      <trkpt lat="48.58404" lon="7.77498">
        <ele>142.6</ele>
        <time>2019-08-08T13:26:42Z</time>
      </trkpt>
      <trkpt lat="48.58406" lon="7.77491">
        <ele>142.7</ele>
        <time>2019-08-08T13:26:43Z</time>
      </trkpt>
      <trkpt lat="48.58408" lon="7.77485">
        <ele>143.1</ele>
        <time>2019-08-08T13:26:44Z</time>
      </trkpt>
      <trkpt lat="48.58409" lon="7.7748">
        <ele>143.3</ele>
        <time>2019-08-08T13:26:45Z</time>
      </trkpt>
      <trkpt lat="48.58412" lon="7.77474">
        <ele>143.5</ele>
        <time>2019-08-08T13:26:46Z</time>
      </trkpt>
      <trkpt lat="48.58414" lon="7.77468">
        <ele>143.7</ele>
        <time>2019-08-08T13:26:47Z</time>
      </trkpt>
      <trkpt lat="48.58417" lon="7.77463">
        <ele>143.9</ele>
        <time>2019-08-08T13:26:48Z</time>
      </trkpt>
      <trkpt lat="48.58419" lon="7.77458">
        <ele>144</ele>
        <time>2019-08-08T13:26:49Z</time>
      </trkpt>
      <trkpt lat="48.58421" lon="7.77453">
        <ele>144.1</ele>
        <time>2019-08-08T13:26:50Z</time>
      </trkpt>
      <trkpt lat="48.58423" lon="7.77447">
        <ele>144.2</ele>
        <time>2019-08-08T13:26:51Z</time>
      </trkpt>
      <trkpt lat="48.58425" lon="7.77442">
        <ele>144.2</ele>
        <time>2019-08-08T13:26:52Z</time>
      </trkpt>
      <trkpt lat="48.58427" lon="7.77438">
        <ele>144.2</ele>
        <time>2019-08-08T13:26:53Z</time>
      </trkpt>
      <trkpt lat="48.58428" lon="7.77433">
        <ele>144.3</ele>
        <time>2019-08-08T13:26:54Z</time>
      </trkpt>
      <trkpt lat="48.58429" lon="7.7743">
        <ele>144.3</ele>
        <time>2019-08-08T13:26:55Z</time>
      </trkpt>
      <trkpt lat="48.58432" lon="7.77425">
        <ele>144.3</ele>
        <time>2019-08-08T13:26:56Z</time>
      </trkpt>
      <trkpt lat="48.58433" lon="7.77422">
        <ele>144.3</ele>
        <time>2019-08-08T13:26:57Z</time>
      </trkpt>
      <trkpt lat="48.58437" lon="7.77419">
        <ele>144.3</ele>
        <time>2019-08-08T13:26:59Z</time>
      </trkpt>
      <trkpt lat="48.5844" lon="7.77415">
        <ele>144.3</ele>
        <time>2019-08-08T13:27:01Z</time>
      </trkpt>
      <trkpt lat="48.58444" lon="7.77415">
        <ele>144.3</ele>
        <time>2019-08-08T13:27:02Z</time>
      </trkpt>
      <trkpt lat="48.58448" lon="7.77414">
        <ele>144.3</ele>
        <time>2019-08-08T13:27:03Z</time>
      </trkpt>
      <trkpt lat="48.5845" lon="7.77411">
        <ele>144.5</ele>
        <time>2019-08-08T13:27:04Z</time>
      </trkpt>
      <trkpt lat="48.58454" lon="7.77408">
        <ele>144.6</ele>
        <time>2019-08-08T13:27:06Z</time>
      </trkpt>
      <trkpt lat="48.58458" lon="7.77406">
        <ele>144.8</ele>
        <time>2019-08-08T13:27:07Z</time>
      </trkpt>
      <trkpt lat="48.5846" lon="7.77403">
        <ele>145</ele>
        <time>2019-08-08T13:27:08Z</time>
      </trkpt>
      <trkpt lat="48.58462" lon="7.77399">
        <ele>145.2</ele>
        <time>2019-08-08T13:27:09Z</time>
      </trkpt>
      <trkpt lat="48.58465" lon="7.77393">
        <ele>145.5</ele>
        <time>2019-08-08T13:27:10Z</time>
      </trkpt>
      <trkpt lat="48.58467" lon="7.77389">
        <ele>145.6</ele>
        <time>2019-08-08T13:27:11Z</time>
      </trkpt>
      <trkpt lat="48.58469" lon="7.77384">
        <ele>145.7</ele>
        <time>2019-08-08T13:27:12Z</time>
      </trkpt>
      <trkpt lat="48.58471" lon="7.77379">
        <ele>145.8</ele>
        <time>2019-08-08T13:27:13Z</time>
      </trkpt>
      <trkpt lat="48.58473" lon="7.77376">
        <ele>145.8</ele>
        <time>2019-08-08T13:27:14Z</time>
      </trkpt>
      <trkpt lat="48.58477" lon="7.77368">
        <ele>145.9</ele>
        <time>2019-08-08T13:27:16Z</time>
      </trkpt>
      <trkpt lat="48.58479" lon="7.77364">
        <ele>145.9</ele>
        <time>2019-08-08T13:27:17Z</time>
      </trkpt>
      <trkpt lat="48.58482" lon="7.77361">
        <ele>146</ele>
        <time>2019-08-08T13:27:18Z</time>
      </trkpt>
      <trkpt lat="48.58485" lon="7.77357">
        <ele>146</ele>
        <time>2019-08-08T13:27:19Z</time>
      </trkpt>
      <trkpt lat="48.5849" lon="7.77351">
        <ele>146.2</ele>
        <time>2019-08-08T13:27:21Z</time>
      </trkpt>
      <trkpt lat="48.58492" lon="7.77346">
        <ele>146.2</ele>
        <time>2019-08-08T13:27:22Z</time>
      </trkpt>
      <trkpt lat="48.58494" lon="7.77342">
        <ele>146.3</ele>
        <time>2019-08-08T13:27:23Z</time>
      </trkpt>
      <trkpt lat="48.58494" lon="7.77338">
        <ele>146.4</ele>
        <time>2019-08-08T13:27:24Z</time>
      </trkpt>
      <trkpt lat="48.58495" lon="7.77333">
        <ele>146.4</ele>
        <time>2019-08-08T13:27:25Z</time>
      </trkpt>
      <trkpt lat="48.58497" lon="7.77328">
        <ele>146.5</ele>
        <time>2019-08-08T13:27:26Z</time>
      </trkpt>
      <trkpt lat="48.58499" lon="7.77323">
        <ele>146.6</ele>
        <time>2019-08-08T13:27:27Z</time>
      </trkpt>
      <trkpt lat="48.58501" lon="7.77319">
        <ele>146.6</ele>
        <time>2019-08-08T13:27:28Z</time>
      </trkpt>
      <trkpt lat="48.58503" lon="7.77315">
        <ele>146.6</ele>
        <time>2019-08-08T13:27:29Z</time>
      </trkpt>
      <trkpt lat="48.58507" lon="7.77308">
        <ele>146.7</ele>
        <time>2019-08-08T13:27:31Z</time>
      </trkpt>
      <trkpt lat="48.58511" lon="7.77304">
        <ele>146.7</ele>
        <time>2019-08-08T13:27:32Z</time>
      </trkpt>
      <trkpt lat="48.58514" lon="7.77299">
        <ele>146.7</ele>
        <time>2019-08-08T13:27:33Z</time>
      </trkpt>
      <trkpt lat="48.58516" lon="7.77295">
        <ele>146.7</ele>
        <time>2019-08-08T13:27:34Z</time>
      </trkpt>
      <trkpt lat="48.58519" lon="7.77291">
        <ele>146.8</ele>
        <time>2019-08-08T13:27:35Z</time>
      </trkpt>
      <trkpt lat="48.58522" lon="7.77287">
        <ele>146.8</ele>
        <time>2019-08-08T13:27:36Z</time>
      </trkpt>
      <trkpt lat="48.58524" lon="7.77283">
        <ele>146.8</ele>
        <time>2019-08-08T13:27:37Z</time>
      </trkpt>
      <trkpt lat="48.58528" lon="7.77278">
        <ele>146.8</ele>
        <time>2019-08-08T13:27:39Z</time>
      </trkpt>
      <trkpt lat="48.5853" lon="7.77273">
        <ele>146.8</ele>
        <time>2019-08-08T13:27:41Z</time>
      </trkpt>
      <trkpt lat="48.58534" lon="7.77269">
        <ele>146.9</ele>
        <time>2019-08-08T13:27:44Z</time>
      </trkpt>
      <trkpt lat="48.58539" lon="7.7727">
        <ele>147</ele>
        <time>2019-08-08T13:27:46Z</time>
      </trkpt>
      <trkpt lat="48.58542" lon="7.77269">
        <ele>147.1</ele>
        <time>2019-08-08T13:27:47Z</time>
      </trkpt>
      <trkpt lat="48.58546" lon="7.77268">
        <ele>147.2</ele>
        <time>2019-08-08T13:27:48Z</time>
      </trkpt>
      <trkpt lat="48.58549" lon="7.77266">
        <ele>147.3</ele>
        <time>2019-08-08T13:27:49Z</time>
      </trkpt>
      <trkpt lat="48.58555" lon="7.77261">
        <ele>147.6</ele>
        <time>2019-08-08T13:27:51Z</time>
      </trkpt>
      <trkpt lat="48.58557" lon="7.77257">
        <ele>147.8</ele>
        <time>2019-08-08T13:27:52Z</time>
      </trkpt>
      <trkpt lat="48.58558" lon="7.77252">
        <ele>147.8</ele>
        <time>2019-08-08T13:27:53Z</time>
      </trkpt>
      <trkpt lat="48.5856" lon="7.77247">
        <ele>147.8</ele>
        <time>2019-08-08T13:27:54Z</time>
      </trkpt>
      <trkpt lat="48.58563" lon="7.77241">
        <ele>147.8</ele>
        <time>2019-08-08T13:27:55Z</time>
      </trkpt>
      <trkpt lat="48.58564" lon="7.77236">
        <ele>147.8</ele>
        <time>2019-08-08T13:27:56Z</time>
      </trkpt>
      <trkpt lat="48.58567" lon="7.7723">
        <ele>147.9</ele>
        <time>2019-08-08T13:27:57Z</time>
      </trkpt>
      <trkpt lat="48.58569" lon="7.77226">
        <ele>147.9</ele>
        <time>2019-08-08T13:27:58Z</time>
      </trkpt>
      <trkpt lat="48.58571" lon="7.77223">
        <ele>147.9</ele>
        <time>2019-08-08T13:27:59Z</time>
      </trkpt>
      <trkpt lat="48.58574" lon="7.77219">
        <ele>147.9</ele>
        <time>2019-08-08T13:28:00Z</time>
      </trkpt>
      <trkpt lat="48.58576" lon="7.77215">
        <ele>147.9</ele>
        <time>2019-08-08T13:28:01Z</time>
      </trkpt>
      <trkpt lat="48.58579" lon="7.7721">
        <ele>148</ele>
        <time>2019-08-08T13:28:02Z</time>
      </trkpt>
      <trkpt lat="48.58582" lon="7.77205">
        <ele>148</ele>
        <time>2019-08-08T13:28:03Z</time>
      </trkpt>
      <trkpt lat="48.58584" lon="7.77201">
        <ele>148.1</ele>
        <time>2019-08-08T13:28:04Z</time>
      </trkpt>
      <trkpt lat="48.58587" lon="7.77197">
        <ele>148.1</ele>
        <time>2019-08-08T13:28:05Z</time>
      </trkpt>
      <trkpt lat="48.58591" lon="7.77191">
        <ele>148.1</ele>
        <time>2019-08-08T13:28:06Z</time>
      </trkpt>
      <trkpt lat="48.58594" lon="7.77185">
        <ele>148.2</ele>
        <time>2019-08-08T13:28:07Z</time>
      </trkpt>
      <trkpt lat="48.58596" lon="7.77177">
        <ele>148.3</ele>
        <time>2019-08-08T13:28:08Z</time>
      </trkpt>
      <trkpt lat="48.58598" lon="7.77171">
        <ele>148.3</ele>
        <time>2019-08-08T13:28:09Z</time>
      </trkpt>
      <trkpt lat="48.586" lon="7.77166">
        <ele>148.4</ele>
        <time>2019-08-08T13:28:10Z</time>
      </trkpt>
      <trkpt lat="48.58602" lon="7.77162">
        <ele>148.4</ele>
        <time>2019-08-08T13:28:11Z</time>
      </trkpt>
      <trkpt lat="48.58604" lon="7.77159">
        <ele>148.4</ele>
        <time>2019-08-08T13:28:12Z</time>
      </trkpt>
      <trkpt lat="48.58606" lon="7.77156">
        <ele>148.4</ele>
        <time>2019-08-08T13:28:13Z</time>
      </trkpt>
      <trkpt lat="48.58608" lon="7.77152">
        <ele>148.4</ele>
        <time>2019-08-08T13:28:14Z</time>
      </trkpt>
      <trkpt lat="48.5861" lon="7.77149">
        <ele>148.5</ele>
        <time>2019-08-08T13:28:15Z</time>
      </trkpt>
      <trkpt lat="48.58613" lon="7.77145">
        <ele>148.5</ele>
        <time>2019-08-08T13:28:17Z</time>
      </trkpt>
      <trkpt lat="48.58617" lon="7.77146">
        <ele>148.5</ele>
        <time>2019-08-08T13:28:20Z</time>
      </trkpt>
      <trkpt lat="48.5862" lon="7.77146">
        <ele>148.5</ele>
        <time>2019-08-08T13:28:21Z</time>
      </trkpt>
      <trkpt lat="48.58623" lon="7.77147">
        <ele>148.5</ele>
        <time>2019-08-08T13:28:22Z</time>
      </trkpt>
      <trkpt lat="48.58626" lon="7.77144">
        <ele>148.6</ele>
        <time>2019-08-08T13:28:24Z</time>
      </trkpt>
      <trkpt lat="48.58628" lon="7.7714">
        <ele>148.6</ele>
        <time>2019-08-08T13:28:27Z</time>
      </trkpt>
      <trkpt lat="48.5863" lon="7.77134">
        <ele>148.5</ele>
        <time>2019-08-08T13:28:30Z</time>
      </trkpt>
      <trkpt lat="48.58632" lon="7.77129">
        <ele>148.4</ele>
        <time>2019-08-08T13:28:31Z</time>
      </trkpt>
      <trkpt lat="48.58635" lon="7.77125">
        <ele>148.3</ele>
        <time>2019-08-08T13:28:32Z</time>
      </trkpt>
      <trkpt lat="48.58637" lon="7.77121">
        <ele>148.2</ele>
        <time>2019-08-08T13:28:33Z</time>
      </trkpt>
      <trkpt lat="48.58639" lon="7.77114">
        <ele>148.1</ele>
        <time>2019-08-08T13:28:34Z</time>
      </trkpt>
      <trkpt lat="48.58641" lon="7.7711">
        <ele>147.9</ele>
        <time>2019-08-08T13:28:35Z</time>
      </trkpt>
      <trkpt lat="48.58643" lon="7.77104">
        <ele>147.8</ele>
        <time>2019-08-08T13:28:37Z</time>
      </trkpt>
      <trkpt lat="48.58646" lon="7.771">
        <ele>147.6</ele>
        <time>2019-08-08T13:28:40Z</time>
      </trkpt>
      <trkpt lat="48.58649" lon="7.77097">
        <ele>147.5</ele>
        <time>2019-08-08T13:28:41Z</time>
      </trkpt>
      <trkpt lat="48.58653" lon="7.7709">
        <ele>147.2</ele>
        <time>2019-08-08T13:28:43Z</time>
      </trkpt>
      <trkpt lat="48.58656" lon="7.77086">
        <ele>147.1</ele>
        <time>2019-08-08T13:28:44Z</time>
      </trkpt>
      <trkpt lat="48.58658" lon="7.77083">
        <ele>147</ele>
        <time>2019-08-08T13:28:45Z</time>
      </trkpt>
      <trkpt lat="48.5866" lon="7.7708">
        <ele>146.9</ele>
        <time>2019-08-08T13:28:46Z</time>
      </trkpt>
      <trkpt lat="48.58662" lon="7.77077">
        <ele>146.9</ele>
        <time>2019-08-08T13:28:47Z</time>
      </trkpt>
      <trkpt lat="48.58667" lon="7.77073">
        <ele>146.8</ele>
        <time>2019-08-08T13:28:48Z</time>
      </trkpt>
      <trkpt lat="48.58669" lon="7.7707">
        <ele>146.7</ele>
        <time>2019-08-08T13:28:49Z</time>
      </trkpt>
      <trkpt lat="48.58671" lon="7.77067">
        <ele>146.6</ele>
        <time>2019-08-08T13:28:50Z</time>
      </trkpt>
      <trkpt lat="48.58675" lon="7.7706">
        <ele>146.5</ele>
        <time>2019-08-08T13:28:52Z</time>
      </trkpt>
      <trkpt lat="48.58677" lon="7.77053">
        <ele>146.4</ele>
        <time>2019-08-08T13:28:54Z</time>
      </trkpt>
      <trkpt lat="48.58679" lon="7.77049">
        <ele>146.2</ele>
        <time>2019-08-08T13:28:55Z</time>
      </trkpt>
      <trkpt lat="48.58681" lon="7.77044">
        <ele>146.1</ele>
        <time>2019-08-08T13:28:56Z</time>
      </trkpt>
      <trkpt lat="48.58683" lon="7.77039">
        <ele>145.9</ele>
        <time>2019-08-08T13:28:57Z</time>
      </trkpt>
      <trkpt lat="48.58688" lon="7.77036">
        <ele>145.7</ele>
        <time>2019-08-08T13:28:59Z</time>
      </trkpt>
      <trkpt lat="48.5869" lon="7.77034">
        <ele>145.6</ele>
        <time>2019-08-08T13:29:00Z</time>
      </trkpt>
      <trkpt lat="48.58693" lon="7.7703">
        <ele>145.4</ele>
        <time>2019-08-08T13:29:01Z</time>
      </trkpt>
      <trkpt lat="48.58696" lon="7.77027">
        <ele>145.2</ele>
        <time>2019-08-08T13:29:02Z</time>
      </trkpt>
      <trkpt lat="48.587" lon="7.77027">
        <ele>145.1</ele>
        <time>2019-08-08T13:29:03Z</time>
      </trkpt>
      <trkpt lat="48.58705" lon="7.77028">
        <ele>144.9</ele>
        <time>2019-08-08T13:29:04Z</time>
      </trkpt>
      <trkpt lat="48.5871" lon="7.77028">
        <ele>144.8</ele>
        <time>2019-08-08T13:29:05Z</time>
      </trkpt>
      <trkpt lat="48.58716" lon="7.77022">
        <ele>144.6</ele>
        <time>2019-08-08T13:29:06Z</time>
      </trkpt>
      <trkpt lat="48.5872" lon="7.77017">
        <ele>144.5</ele>
        <time>2019-08-08T13:29:07Z</time>
      </trkpt>
      <trkpt lat="48.58724" lon="7.77013">
        <ele>144.4</ele>
        <time>2019-08-08T13:29:08Z</time>
      </trkpt>
      <trkpt lat="48.58726" lon="7.77009">
        <ele>144.3</ele>
        <time>2019-08-08T13:29:09Z</time>
      </trkpt>
      <trkpt lat="48.5873" lon="7.77004">
        <ele>144.1</ele>
        <time>2019-08-08T13:29:10Z</time>
      </trkpt>
      <trkpt lat="48.58734" lon="7.77">
        <ele>144</ele>
        <time>2019-08-08T13:29:11Z</time>
      </trkpt>
      <trkpt lat="48.58739" lon="7.76995">
        <ele>144</ele>
        <time>2019-08-08T13:29:12Z</time>
      </trkpt>
      <trkpt lat="48.58742" lon="7.76993">
        <ele>144</ele>
        <time>2019-08-08T13:29:13Z</time>
      </trkpt>
      <trkpt lat="48.58745" lon="7.7699">
        <ele>143.9</ele>
        <time>2019-08-08T13:29:14Z</time>
      </trkpt>
      <trkpt lat="48.58748" lon="7.76987">
        <ele>143.9</ele>
        <time>2019-08-08T13:29:15Z</time>
      </trkpt>
      <trkpt lat="48.58752" lon="7.76984">
        <ele>143.8</ele>
        <time>2019-08-08T13:29:16Z</time>
      </trkpt>
      <trkpt lat="48.58755" lon="7.76982">
        <ele>143.8</ele>
        <time>2019-08-08T13:29:17Z</time>
      </trkpt>
      <trkpt lat="48.58759" lon="7.76979">
        <ele>143.8</ele>
        <time>2019-08-08T13:29:18Z</time>
      </trkpt>
      <trkpt lat="48.58763" lon="7.76978">
        <ele>143.7</ele>
        <time>2019-08-08T13:29:19Z</time>
      </trkpt>
      <trkpt lat="48.58766" lon="7.76977">
        <ele>143.7</ele>
        <time>2019-08-08T13:29:20Z</time>
      </trkpt>
      <trkpt lat="48.5877" lon="7.76977">
        <ele>143.7</ele>
        <time>2019-08-08T13:29:21Z</time>
      </trkpt>
      <trkpt lat="48.58774" lon="7.76977">
        <ele>143.6</ele>
        <time>2019-08-08T13:29:22Z</time>
      </trkpt>
      <trkpt lat="48.58779" lon="7.76977">
        <ele>143.6</ele>
        <time>2019-08-08T13:29:23Z</time>
      </trkpt>
      <trkpt lat="48.58782" lon="7.76977">
        <ele>143.6</ele>
        <time>2019-08-08T13:29:24Z</time>
      </trkpt>
      <trkpt lat="48.58785" lon="7.76979">
        <ele>143.5</ele>
        <time>2019-08-08T13:29:25Z</time>
      </trkpt>
      <trkpt lat="48.58789" lon="7.76983">
        <ele>143.5</ele>
        <time>2019-08-08T13:29:26Z</time>
      </trkpt>
      <trkpt lat="48.58792" lon="7.76987">
        <ele>143.5</ele>
        <time>2019-08-08T13:29:27Z</time>
      </trkpt>
      <trkpt lat="48.58796" lon="7.76989">
        <ele>143.5</ele>
        <time>2019-08-08T13:29:28Z</time>
      </trkpt>
      <trkpt lat="48.58799" lon="7.76993">
        <ele>143.5</ele>
        <time>2019-08-08T13:29:29Z</time>
      </trkpt>
      <trkpt lat="48.58802" lon="7.76995">
        <ele>143.5</ele>
        <time>2019-08-08T13:29:30Z</time>
      </trkpt>
      <trkpt lat="48.58804" lon="7.76999">
        <ele>143.4</ele>
        <time>2019-08-08T13:29:31Z</time>
      </trkpt>
      <trkpt lat="48.58807" lon="7.77002">
        <ele>143.4</ele>
        <time>2019-08-08T13:29:33Z</time>
      </trkpt>
      <trkpt lat="48.58808" lon="7.77006">
        <ele>143.4</ele>
        <time>2019-08-08T13:29:34Z</time>
      </trkpt>
      <trkpt lat="48.58808" lon="7.77014">
        <ele>143.4</ele>
        <time>2019-08-08T13:29:35Z</time>
      </trkpt>
      <trkpt lat="48.58811" lon="7.77018">
        <ele>143.4</ele>
        <time>2019-08-08T13:29:37Z</time>
      </trkpt>
      <trkpt lat="48.58814" lon="7.77024">
        <ele>143.4</ele>
        <time>2019-08-08T13:29:38Z</time>
      </trkpt>
      <trkpt lat="48.58816" lon="7.77027">
        <ele>143.4</ele>
        <time>2019-08-08T13:29:39Z</time>
      </trkpt>
      <trkpt lat="48.58818" lon="7.77031">
        <ele>143.4</ele>
        <time>2019-08-08T13:29:40Z</time>
      </trkpt>
      <trkpt lat="48.58822" lon="7.77031">
        <ele>143.3</ele>
        <time>2019-08-08T13:29:41Z</time>
      </trkpt>
      <trkpt lat="48.58825" lon="7.77029">
        <ele>143.3</ele>
        <time>2019-08-08T13:29:42Z</time>
      </trkpt>
      <trkpt lat="48.58829" lon="7.7703">
        <ele>143.3</ele>
        <time>2019-08-08T13:29:43Z</time>
      </trkpt>
      <trkpt lat="48.58832" lon="7.77029">
        <ele>143.2</ele>
        <time>2019-08-08T13:29:45Z</time>
      </trkpt>
      <trkpt lat="48.58835" lon="7.77021">
        <ele>143.2</ele>
        <time>2019-08-08T13:29:48Z</time>
      </trkpt>
      <trkpt lat="48.58836" lon="7.77017">
        <ele>143.2</ele>
        <time>2019-08-08T13:29:49Z</time>
      </trkpt>
      <trkpt lat="48.58836" lon="7.77011">
        <ele>143.2</ele>
        <time>2019-08-08T13:29:50Z</time>
      </trkpt>
      <trkpt lat="48.58837" lon="7.77002">
        <ele>143.3</ele>
        <time>2019-08-08T13:29:52Z</time>
      </trkpt>
      <trkpt lat="48.58837" lon="7.76997">
        <ele>143.3</ele>
        <time>2019-08-08T13:29:54Z</time>
      </trkpt>
      <trkpt lat="48.58838" lon="7.76991">
        <ele>143.5</ele>
        <time>2019-08-08T13:29:55Z</time>
      </trkpt>
      <trkpt lat="48.58839" lon="7.76987">
        <ele>143.5</ele>
        <time>2019-08-08T13:29:56Z</time>
      </trkpt>
      <trkpt lat="48.5884" lon="7.76981">
        <ele>143.5</ele>
        <time>2019-08-08T13:29:57Z</time>
      </trkpt>
      <trkpt lat="48.58843" lon="7.76974">
        <ele>143.6</ele>
        <time>2019-08-08T13:29:58Z</time>
      </trkpt>
      <trkpt lat="48.58845" lon="7.76968">
        <ele>143.7</ele>
        <time>2019-08-08T13:29:59Z</time>
      </trkpt>
      <trkpt lat="48.58846" lon="7.76964">
        <ele>143.8</ele>
        <time>2019-08-08T13:30:00Z</time>
      </trkpt>
      <trkpt lat="48.58848" lon="7.7696">
        <ele>143.8</ele>
        <time>2019-08-08T13:30:01Z</time>
      </trkpt>
      <trkpt lat="48.58851" lon="7.76956">
        <ele>143.9</ele>
        <time>2019-08-08T13:30:02Z</time>
      </trkpt>
      <trkpt lat="48.58853" lon="7.76953">
        <ele>143.9</ele>
        <time>2019-08-08T13:30:03Z</time>
      </trkpt>
      <trkpt lat="48.58857" lon="7.76948">
        <ele>143.9</ele>
        <time>2019-08-08T13:30:04Z</time>
      </trkpt>
      <trkpt lat="48.58859" lon="7.76945">
        <ele>143.9</ele>
        <time>2019-08-08T13:30:05Z</time>
      </trkpt>
      <trkpt lat="48.58861" lon="7.7694">
        <ele>143.9</ele>
        <time>2019-08-08T13:30:06Z</time>
      </trkpt>
      <trkpt lat="48.58865" lon="7.76933">
        <ele>143.8</ele>
        <time>2019-08-08T13:30:07Z</time>
      </trkpt>
      <trkpt lat="48.58868" lon="7.76926">
        <ele>143.8</ele>
        <time>2019-08-08T13:30:08Z</time>
      </trkpt>
      <trkpt lat="48.5887" lon="7.7692">
        <ele>143.8</ele>
        <time>2019-08-08T13:30:09Z</time>
      </trkpt>
      <trkpt lat="48.58872" lon="7.76914">
        <ele>143.8</ele>
        <time>2019-08-08T13:30:10Z</time>
      </trkpt>
      <trkpt lat="48.58873" lon="7.76909">
        <ele>143.8</ele>
        <time>2019-08-08T13:30:11Z</time>
      </trkpt>
      <trkpt lat="48.58874" lon="7.76905">
        <ele>143.8</ele>
        <time>2019-08-08T13:30:12Z</time>
      </trkpt>
      <trkpt lat="48.58876" lon="7.76902">
        <ele>143.8</ele>
        <time>2019-08-08T13:30:13Z</time>
      </trkpt>
      <trkpt lat="48.58879" lon="7.76898">
        <ele>143.8</ele>
        <time>2019-08-08T13:30:14Z</time>
      </trkpt>
      <trkpt lat="48.58882" lon="7.76894">
        <ele>143.8</ele>
        <time>2019-08-08T13:30:15Z</time>
      </trkpt>
      <trkpt lat="48.58885" lon="7.76889">
        <ele>143.8</ele>
        <time>2019-08-08T13:30:16Z</time>
      </trkpt>
      <trkpt lat="48.58889" lon="7.76884">
        <ele>143.8</ele>
        <time>2019-08-08T13:30:17Z</time>
      </trkpt>
      <trkpt lat="48.58891" lon="7.76881">
        <ele>143.8</ele>
        <time>2019-08-08T13:30:18Z</time>
      </trkpt>
      <trkpt lat="48.58894" lon="7.76877">
        <ele>143.8</ele>
        <time>2019-08-08T13:30:19Z</time>
      </trkpt>
      <trkpt lat="48.58897" lon="7.76872">
        <ele>143.8</ele>
        <time>2019-08-08T13:30:20Z</time>
      </trkpt>
      <trkpt lat="48.589" lon="7.76869">
        <ele>143.8</ele>
        <time>2019-08-08T13:30:21Z</time>
      </trkpt>
      <trkpt lat="48.58902" lon="7.76865">
        <ele>143.8</ele>
        <time>2019-08-08T13:30:22Z</time>
      </trkpt>
      <trkpt lat="48.58905" lon="7.76862">
        <ele>143.8</ele>
        <time>2019-08-08T13:30:23Z</time>
      </trkpt>
      <trkpt lat="48.58907" lon="7.76859">
        <ele>143.8</ele>
        <time>2019-08-08T13:30:24Z</time>
      </trkpt>
      <trkpt lat="48.58909" lon="7.76855">
        <ele>143.7</ele>
        <time>2019-08-08T13:30:25Z</time>
      </trkpt>
      <trkpt lat="48.58911" lon="7.76852">
        <ele>143.7</ele>
        <time>2019-08-08T13:30:27Z</time>
      </trkpt>
      <trkpt lat="48.58914" lon="7.76849">
        <ele>143.7</ele>
        <time>2019-08-08T13:30:28Z</time>
      </trkpt>
      <trkpt lat="48.58917" lon="7.76847">
        <ele>143.7</ele>
        <time>2019-08-08T13:30:29Z</time>
      </trkpt>
      <trkpt lat="48.58921" lon="7.76844">
        <ele>143.6</ele>
        <time>2019-08-08T13:30:30Z</time>
      </trkpt>
      <trkpt lat="48.58923" lon="7.7684">
        <ele>143.7</ele>
        <time>2019-08-08T13:30:31Z</time>
      </trkpt>
      <trkpt lat="48.58925" lon="7.76835">
        <ele>143.7</ele>
        <time>2019-08-08T13:30:32Z</time>
      </trkpt>
      <trkpt lat="48.58927" lon="7.76829">
        <ele>143.8</ele>
        <time>2019-08-08T13:30:33Z</time>
      </trkpt>
      <trkpt lat="48.5893" lon="7.76824">
        <ele>143.9</ele>
        <time>2019-08-08T13:30:34Z</time>
      </trkpt>
      <trkpt lat="48.58933" lon="7.76821">
        <ele>143.9</ele>
        <time>2019-08-08T13:30:35Z</time>
      </trkpt>
      <trkpt lat="48.58936" lon="7.76815">
        <ele>144</ele>
        <time>2019-08-08T13:30:36Z</time>
      </trkpt>
      <trkpt lat="48.58938" lon="7.76808">
        <ele>144.1</ele>
        <time>2019-08-08T13:30:37Z</time>
      </trkpt>
      <trkpt lat="48.5894" lon="7.76802">
        <ele>144.2</ele>
        <time>2019-08-08T13:30:38Z</time>
      </trkpt>
      <trkpt lat="48.58942" lon="7.76796">
        <ele>144.3</ele>
        <time>2019-08-08T13:30:39Z</time>
      </trkpt>
      <trkpt lat="48.58944" lon="7.76791">
        <ele>144.4</ele>
        <time>2019-08-08T13:30:40Z</time>
      </trkpt>
      <trkpt lat="48.58945" lon="7.76787">
        <ele>144.5</ele>
        <time>2019-08-08T13:30:41Z</time>
      </trkpt>
      <trkpt lat="48.58947" lon="7.76782">
        <ele>144.5</ele>
        <time>2019-08-08T13:30:42Z</time>
      </trkpt>
      <trkpt lat="48.5895" lon="7.76777">
        <ele>144.6</ele>
        <time>2019-08-08T13:30:44Z</time>
      </trkpt>
      <trkpt lat="48.58952" lon="7.76772">
        <ele>144.6</ele>
        <time>2019-08-08T13:30:45Z</time>
      </trkpt>
      <trkpt lat="48.58954" lon="7.76767">
        <ele>144.7</ele>
        <time>2019-08-08T13:30:46Z</time>
      </trkpt>
      <trkpt lat="48.58956" lon="7.76763">
        <ele>144.8</ele>
        <time>2019-08-08T13:30:47Z</time>
      </trkpt>
      <trkpt lat="48.58959" lon="7.76759">
        <ele>144.9</ele>
        <time>2019-08-08T13:30:49Z</time>
      </trkpt>
      <trkpt lat="48.58962" lon="7.76754">
        <ele>145.1</ele>
        <time>2019-08-08T13:30:51Z</time>
      </trkpt>
      <trkpt lat="48.58965" lon="7.76751">
        <ele>145.3</ele>
        <time>2019-08-08T13:30:52Z</time>
      </trkpt>
      <trkpt lat="48.58971" lon="7.76752">
        <ele>145.7</ele>
        <time>2019-08-08T13:30:54Z</time>
      </trkpt>
      <trkpt lat="48.58974" lon="7.76754">
        <ele>146.6</ele>
        <time>2019-08-08T13:30:55Z</time>
      </trkpt>
      <trkpt lat="48.58978" lon="7.76755">
        <ele>146.6</ele>
        <time>2019-08-08T13:30:56Z</time>
      </trkpt>
      <trkpt lat="48.58981" lon="7.76756">
        <ele>146.4</ele>
        <time>2019-08-08T13:30:57Z</time>
      </trkpt>
      <trkpt lat="48.58985" lon="7.76759">
        <ele>146.4</ele>
        <time>2019-08-08T13:30:58Z</time>
      </trkpt>
      <trkpt lat="48.58989" lon="7.76762">
        <ele>146.3</ele>
        <time>2019-08-08T13:30:59Z</time>
      </trkpt>
      <trkpt lat="48.58992" lon="7.76765">
        <ele>146.2</ele>
        <time>2019-08-08T13:31:00Z</time>
      </trkpt>
      <trkpt lat="48.58994" lon="7.76774">
        <ele>145.9</ele>
        <time>2019-08-08T13:31:01Z</time>
      </trkpt>
      <trkpt lat="48.58996" lon="7.76781">
        <ele>145.8</ele>
        <time>2019-08-08T13:31:02Z</time>
      </trkpt>
      <trkpt lat="48.58999" lon="7.76786">
        <ele>145.6</ele>
        <time>2019-08-08T13:31:03Z</time>
      </trkpt>
      <trkpt lat="48.59002" lon="7.76789">
        <ele>145.5</ele>
        <time>2019-08-08T13:31:04Z</time>
      </trkpt>
      <trkpt lat="48.59006" lon="7.76792">
        <ele>145.3</ele>
        <time>2019-08-08T13:31:05Z</time>
      </trkpt>
      <trkpt lat="48.5901" lon="7.76793">
        <ele>145.1</ele>
        <time>2019-08-08T13:31:06Z</time>
      </trkpt>
      <trkpt lat="48.59013" lon="7.76796">
        <ele>144.9</ele>
        <time>2019-08-08T13:31:07Z</time>
      </trkpt>
      <trkpt lat="48.59016" lon="7.76798">
        <ele>144.8</ele>
        <time>2019-08-08T13:31:08Z</time>
      </trkpt>
      <trkpt lat="48.59019" lon="7.768">
        <ele>144.7</ele>
        <time>2019-08-08T13:31:09Z</time>
      </trkpt>
      <trkpt lat="48.59022" lon="7.768">
        <ele>144.7</ele>
        <time>2019-08-08T13:31:10Z</time>
      </trkpt>
      <trkpt lat="48.59028" lon="7.76804">
        <ele>144.6</ele>
        <time>2019-08-08T13:31:12Z</time>
      </trkpt>
      <trkpt lat="48.59031" lon="7.76805">
        <ele>144.5</ele>
        <time>2019-08-08T13:31:13Z</time>
      </trkpt>
      <trkpt lat="48.59034" lon="7.76807">
        <ele>144.5</ele>
        <time>2019-08-08T13:31:14Z</time>
      </trkpt>
      <trkpt lat="48.59038" lon="7.76811">
        <ele>144.4</ele>
        <time>2019-08-08T13:31:16Z</time>
      </trkpt>
      <trkpt lat="48.59041" lon="7.76813">
        <ele>144.4</ele>
        <time>2019-08-08T13:31:17Z</time>
      </trkpt>
      <trkpt lat="48.59044" lon="7.76815">
        <ele>144.4</ele>
        <time>2019-08-08T13:31:18Z</time>
      </trkpt>
      <trkpt lat="48.59047" lon="7.76818">
        <ele>144.3</ele>
        <time>2019-08-08T13:31:20Z</time>
      </trkpt>
      <trkpt lat="48.59049" lon="7.76822">
        <ele>144.2</ele>
        <time>2019-08-08T13:31:21Z</time>
      </trkpt>
      <trkpt lat="48.59052" lon="7.76825">
        <ele>144.2</ele>
        <time>2019-08-08T13:31:22Z</time>
      </trkpt>
      <trkpt lat="48.59055" lon="7.76831">
        <ele>144.1</ele>
        <time>2019-08-08T13:31:23Z</time>
      </trkpt>
      <trkpt lat="48.59057" lon="7.76834">
        <ele>144.1</ele>
        <time>2019-08-08T13:31:24Z</time>
      </trkpt>
      <trkpt lat="48.5906" lon="7.7684">
        <ele>144</ele>
        <time>2019-08-08T13:31:25Z</time>
      </trkpt>
      <trkpt lat="48.59062" lon="7.76844">
        <ele>143.9</ele>
        <time>2019-08-08T13:31:26Z</time>
      </trkpt>
      <trkpt lat="48.59065" lon="7.76848">
        <ele>143.9</ele>
        <time>2019-08-08T13:31:28Z</time>
      </trkpt>
      <trkpt lat="48.59069" lon="7.76847">
        <ele>143.8</ele>
        <time>2019-08-08T13:31:29Z</time>
      </trkpt>
      <trkpt lat="48.59072" lon="7.76848">
        <ele>143.8</ele>
        <time>2019-08-08T13:31:30Z</time>
      </trkpt>
      <trkpt lat="48.59077" lon="7.76853">
        <ele>143.7</ele>
        <time>2019-08-08T13:31:31Z</time>
      </trkpt>
      <trkpt lat="48.5908" lon="7.7686">
        <ele>143.6</ele>
        <time>2019-08-08T13:31:32Z</time>
      </trkpt>
      <trkpt lat="48.59084" lon="7.76875">
        <ele>143.5</ele>
        <time>2019-08-08T13:31:33Z</time>
      </trkpt>
      <trkpt lat="48.59088" lon="7.76885">
        <ele>143.3</ele>
        <time>2019-08-08T13:31:34Z</time>
      </trkpt>
      <trkpt lat="48.59091" lon="7.76891">
        <ele>143.3</ele>
        <time>2019-08-08T13:31:35Z</time>
      </trkpt>
      <trkpt lat="48.59094" lon="7.76893">
        <ele>143.2</ele>
        <time>2019-08-08T13:31:36Z</time>
      </trkpt>
      <trkpt lat="48.59099" lon="7.76895">
        <ele>143.1</ele>
        <time>2019-08-08T13:31:37Z</time>
      </trkpt>
      <trkpt lat="48.59104" lon="7.76897">
        <ele>143.2</ele>
        <time>2019-08-08T13:31:38Z</time>
      </trkpt>
      <trkpt lat="48.59108" lon="7.76901">
        <ele>143.1</ele>
        <time>2019-08-08T13:31:39Z</time>
      </trkpt>
      <trkpt lat="48.59111" lon="7.76904">
        <ele>143</ele>
        <time>2019-08-08T13:31:40Z</time>
      </trkpt>
      <trkpt lat="48.59114" lon="7.7691">
        <ele>142.9</ele>
        <time>2019-08-08T13:31:41Z</time>
      </trkpt>
      <trkpt lat="48.59118" lon="7.76914">
        <ele>142.8</ele>
        <time>2019-08-08T13:31:42Z</time>
      </trkpt>
      <trkpt lat="48.59121" lon="7.76918">
        <ele>142.8</ele>
        <time>2019-08-08T13:31:43Z</time>
      </trkpt>
      <trkpt lat="48.59127" lon="7.76921">
        <ele>142.8</ele>
        <time>2019-08-08T13:31:44Z</time>
      </trkpt>
      <trkpt lat="48.5913" lon="7.76924">
        <ele>142.8</ele>
        <time>2019-08-08T13:31:45Z</time>
      </trkpt>
      <trkpt lat="48.59135" lon="7.76927">
        <ele>142.8</ele>
        <time>2019-08-08T13:31:46Z</time>
      </trkpt>
      <trkpt lat="48.59139" lon="7.7693">
        <ele>142.8</ele>
        <time>2019-08-08T13:31:47Z</time>
      </trkpt>
      <trkpt lat="48.59143" lon="7.76934">
        <ele>142.8</ele>
        <time>2019-08-08T13:31:48Z</time>
      </trkpt>
      <trkpt lat="48.59149" lon="7.76942">
        <ele>142.8</ele>
        <time>2019-08-08T13:31:49Z</time>
      </trkpt>
      <trkpt lat="48.59153" lon="7.76947">
        <ele>142.8</ele>
        <time>2019-08-08T13:31:50Z</time>
      </trkpt>
      <trkpt lat="48.59157" lon="7.7695">
        <ele>142.8</ele>
        <time>2019-08-08T13:31:51Z</time>
      </trkpt>
      <trkpt lat="48.5916" lon="7.76952">
        <ele>142.8</ele>
        <time>2019-08-08T13:31:52Z</time>
      </trkpt>
      <trkpt lat="48.59164" lon="7.76957">
        <ele>142.9</ele>
        <time>2019-08-08T13:31:53Z</time>
      </trkpt>
      <trkpt lat="48.59168" lon="7.76961">
        <ele>142.9</ele>
        <time>2019-08-08T13:31:54Z</time>
      </trkpt>
      <trkpt lat="48.59172" lon="7.76967">
        <ele>142.9</ele>
        <time>2019-08-08T13:31:55Z</time>
      </trkpt>
      <trkpt lat="48.59176" lon="7.76969">
        <ele>142.9</ele>
        <time>2019-08-08T13:31:56Z</time>
      </trkpt>
      <trkpt lat="48.59181" lon="7.76974">
        <ele>142.9</ele>
        <time>2019-08-08T13:31:57Z</time>
      </trkpt>
      <trkpt lat="48.59186" lon="7.76978">
        <ele>142.9</ele>
        <time>2019-08-08T13:31:58Z</time>
      </trkpt>
      <trkpt lat="48.59191" lon="7.76981">
        <ele>142.9</ele>
        <time>2019-08-08T13:31:59Z</time>
      </trkpt>
      <trkpt lat="48.59196" lon="7.76985">
        <ele>143</ele>
        <time>2019-08-08T13:32:00Z</time>
      </trkpt>
      <trkpt lat="48.59201" lon="7.76988">
        <ele>143</ele>
        <time>2019-08-08T13:32:01Z</time>
      </trkpt>
      <trkpt lat="48.59205" lon="7.76992">
        <ele>143</ele>
        <time>2019-08-08T13:32:02Z</time>
      </trkpt>
      <trkpt lat="48.59209" lon="7.76995">
        <ele>143</ele>
        <time>2019-08-08T13:32:03Z</time>
      </trkpt>
      <trkpt lat="48.59213" lon="7.76998">
        <ele>143</ele>
        <time>2019-08-08T13:32:04Z</time>
      </trkpt>
      <trkpt lat="48.59216" lon="7.77003">
        <ele>143.1</ele>
        <time>2019-08-08T13:32:05Z</time>
      </trkpt>
      <trkpt lat="48.59219" lon="7.7701">
        <ele>143.1</ele>
        <time>2019-08-08T13:32:06Z</time>
      </trkpt>
      <trkpt lat="48.59223" lon="7.77016">
        <ele>143.1</ele>
        <time>2019-08-08T13:32:07Z</time>
      </trkpt>
      <trkpt lat="48.59227" lon="7.77022">
        <ele>143.2</ele>
        <time>2019-08-08T13:32:08Z</time>
      </trkpt>
      <trkpt lat="48.5923" lon="7.7703">
        <ele>143.3</ele>
        <time>2019-08-08T13:32:09Z</time>
      </trkpt>
      <trkpt lat="48.59233" lon="7.77035">
        <ele>143.5</ele>
        <time>2019-08-08T13:32:10Z</time>
      </trkpt>
      <trkpt lat="48.59236" lon="7.7704">
        <ele>143.7</ele>
        <time>2019-08-08T13:32:11Z</time>
      </trkpt>
      <trkpt lat="48.5924" lon="7.77043">
        <ele>143.9</ele>
        <time>2019-08-08T13:32:12Z</time>
      </trkpt>
      <trkpt lat="48.59244" lon="7.77043">
        <ele>144.1</ele>
        <time>2019-08-08T13:32:13Z</time>
      </trkpt>
      <trkpt lat="48.59246" lon="7.77045">
        <ele>143.9</ele>
        <time>2019-08-08T13:32:14Z</time>
      </trkpt>
      <trkpt lat="48.59249" lon="7.77048">
        <ele>143.5</ele>
        <time>2019-08-08T13:32:16Z</time>
      </trkpt>
      <trkpt lat="48.59252" lon="7.77053">
        <ele>143.4</ele>
        <time>2019-08-08T13:32:18Z</time>
      </trkpt>
      <trkpt lat="48.59255" lon="7.77057">
        <ele>143.4</ele>
        <time>2019-08-08T13:32:19Z</time>
      </trkpt>
      <trkpt lat="48.59257" lon="7.77059">
        <ele>143.7</ele>
        <time>2019-08-08T13:32:20Z</time>
      </trkpt>
      <trkpt lat="48.5926" lon="7.77063">
        <ele>143.8</ele>
        <time>2019-08-08T13:32:22Z</time>
      </trkpt>
      <trkpt lat="48.59263" lon="7.77067">
        <ele>143.8</ele>
        <time>2019-08-08T13:32:25Z</time>
      </trkpt>
      <trkpt lat="48.59266" lon="7.77071">
        <ele>143.9</ele>
        <time>2019-08-08T13:32:28Z</time>
      </trkpt>
      <trkpt lat="48.59267" lon="7.77076">
        <ele>143.9</ele>
        <time>2019-08-08T13:32:30Z</time>
      </trkpt>
      <trkpt lat="48.59271" lon="7.77067">
        <ele>143.9</ele>
        <time>2019-08-08T13:33:00Z</time>
      </trkpt>
      <trkpt lat="48.59271" lon="7.77062">
        <ele>143.9</ele>
        <time>2019-08-08T13:33:03Z</time>
      </trkpt>
      <trkpt lat="48.59271" lon="7.77057">
        <ele>143.9</ele>
        <time>2019-08-08T13:33:05Z</time>
      </trkpt>
      <trkpt lat="48.59271" lon="7.77053">
        <ele>143.9</ele>
        <time>2019-08-08T13:33:06Z</time>
      </trkpt>
      <trkpt lat="48.5927" lon="7.77048">
        <ele>143.9</ele>
        <time>2019-08-08T13:33:07Z</time>
      </trkpt>
      <trkpt lat="48.5927" lon="7.77044">
        <ele>143.9</ele>
        <time>2019-08-08T13:33:08Z</time>
      </trkpt>
      <trkpt lat="48.59268" lon="7.77041">
        <ele>143.8</ele>
        <time>2019-08-08T13:33:11Z</time>
      </trkpt>
      <trkpt lat="48.59268" lon="7.77035">
        <ele>143.8</ele>
        <time>2019-08-08T13:33:13Z</time>
      </trkpt>
      <trkpt lat="48.59267" lon="7.77031">
        <ele>143.7</ele>
        <time>2019-08-08T13:33:20Z</time>
      </trkpt>
      <trkpt lat="48.59268" lon="7.77035">
        <ele>143.7</ele>
        <time>2019-08-08T13:33:23Z</time>
      </trkpt>
      <trkpt lat="48.59265" lon="7.77037">
        <ele>143.7</ele>
        <time>2019-08-08T13:33:25Z</time>
      </trkpt>
      <trkpt lat="48.59264" lon="7.77032">
        <ele>143.6</ele>
        <time>2019-08-08T13:33:31Z</time>
      </trkpt>
      <trkpt lat="48.59266" lon="7.77027">
        <ele>143.6</ele>
        <time>2019-08-08T13:33:47Z</time>
      </trkpt>
      <trkpt lat="48.59269" lon="7.77023">
        <ele>143.6</ele>
        <time>2019-08-08T13:33:49Z</time>
      </trkpt>
      <trkpt lat="48.59271" lon="7.77027">
        <ele>143.6</ele>
        <time>2019-08-08T13:33:53Z</time>
      </trkpt>
      <trkpt lat="48.59273" lon="7.77028">
        <ele>143.5</ele>
        <time>2019-08-08T13:33:56Z</time>
      </trkpt>
      <trkpt lat="48.59277" lon="7.77026">
        <ele>143.5</ele>
        <time>2019-08-08T13:34:00Z</time>
      </trkpt>
      <trkpt lat="48.59279" lon="7.77029">
        <ele>143.5</ele>
        <time>2019-08-08T13:35:15Z</time>
      </trkpt>
      <trkpt lat="48.59282" lon="7.77027">
        <ele>143.6</ele>
        <time>2019-08-08T13:35:19Z</time>
      </trkpt>
      <trkpt lat="48.59282" lon="7.77023">
        <ele>143.6</ele>
        <time>2019-08-08T13:35:24Z</time>
      </trkpt>
      <trkpt lat="48.59277" lon="7.77021">
        <ele>143.6</ele>
        <time>2019-08-08T13:36:02Z</time>
      </trkpt>
      <trkpt lat="48.59279" lon="7.77026">
        <ele>143.7</ele>
        <time>2019-08-08T13:36:04Z</time>
      </trkpt>
      <trkpt lat="48.5928" lon="7.7703">
        <ele>143.7</ele>
        <time>2019-08-08T13:36:22Z</time>
      </trkpt>
      <trkpt lat="48.59282" lon="7.77032">
        <ele>143.8</ele>
        <time>2019-08-08T13:36:25Z</time>
      </trkpt>
      <trkpt lat="48.59285" lon="7.77033">
        <ele>143.8</ele>
        <time>2019-08-08T13:36:33Z</time>
      </trkpt>
      <trkpt lat="48.59289" lon="7.77046">
        <ele>144</ele>
        <time>2019-08-08T13:37:05Z</time>
      </trkpt>
      <trkpt lat="48.59291" lon="7.7705">
        <ele>144.1</ele>
        <time>2019-08-08T13:37:07Z</time>
      </trkpt>
      <trkpt lat="48.59292" lon="7.77054">
        <ele>144.2</ele>
        <time>2019-08-08T13:37:09Z</time>
      </trkpt>
      <trkpt lat="48.59294" lon="7.77058">
        <ele>144.2</ele>
        <time>2019-08-08T13:37:33Z</time>
      </trkpt>
      <trkpt lat="48.59296" lon="7.77063">
        <ele>144.3</ele>
        <time>2019-08-08T13:37:35Z</time>
      </trkpt>
      <trkpt lat="48.59299" lon="7.77066">
        <ele>144.4</ele>
        <time>2019-08-08T13:37:38Z</time>
      </trkpt>
      <trkpt lat="48.59303" lon="7.77069">
        <ele>144.5</ele>
        <time>2019-08-08T13:39:24Z</time>
      </trkpt>
      <trkpt lat="48.59305" lon="7.77073">
        <ele>144.5</ele>
        <time>2019-08-08T13:39:25Z</time>
      </trkpt>
      <trkpt lat="48.59309" lon="7.77079">
        <ele>144.6</ele>
        <time>2019-08-08T13:39:27Z</time>
      </trkpt>
      <trkpt lat="48.59312" lon="7.77082">
        <ele>144.6</ele>
        <time>2019-08-08T13:39:28Z</time>
      </trkpt>
      <trkpt lat="48.59314" lon="7.77084">
        <ele>144.7</ele>
        <time>2019-08-08T13:39:29Z</time>
      </trkpt>
      <trkpt lat="48.59318" lon="7.77091">
        <ele>144.7</ele>
        <time>2019-08-08T13:39:31Z</time>
      </trkpt>
      <trkpt lat="48.5932" lon="7.77093">
        <ele>144.8</ele>
        <time>2019-08-08T13:39:32Z</time>
      </trkpt>
      <trkpt lat="48.59325" lon="7.77099">
        <ele>144.8</ele>
        <time>2019-08-08T13:39:34Z</time>
      </trkpt>
      <trkpt lat="48.59328" lon="7.77102">
        <ele>144.8</ele>
        <time>2019-08-08T13:39:35Z</time>
      </trkpt>
      <trkpt lat="48.5933" lon="7.77105">
        <ele>144.8</ele>
        <time>2019-08-08T13:39:36Z</time>
      </trkpt>
      <trkpt lat="48.59333" lon="7.77111">
        <ele>144.8</ele>
        <time>2019-08-08T13:39:37Z</time>
      </trkpt>
      <trkpt lat="48.59337" lon="7.77116">
        <ele>144.8</ele>
        <time>2019-08-08T13:39:38Z</time>
      </trkpt>
      <trkpt lat="48.5934" lon="7.7712">
        <ele>144.8</ele>
        <time>2019-08-08T13:39:39Z</time>
      </trkpt>
      <trkpt lat="48.59343" lon="7.77123">
        <ele>144.8</ele>
        <time>2019-08-08T13:39:40Z</time>
      </trkpt>
      <trkpt lat="48.59347" lon="7.77129">
        <ele>144.8</ele>
        <time>2019-08-08T13:39:41Z</time>
      </trkpt>
      <trkpt lat="48.59349" lon="7.77132">
        <ele>144.8</ele>
        <time>2019-08-08T13:39:42Z</time>
      </trkpt>
      <trkpt lat="48.59351" lon="7.77136">
        <ele>144.9</ele>
        <time>2019-08-08T13:39:43Z</time>
      </trkpt>
      <trkpt lat="48.59353" lon="7.77139">
        <ele>144.9</ele>
        <time>2019-08-08T13:39:44Z</time>
      </trkpt>
      <trkpt lat="48.59357" lon="7.77146">
        <ele>144.9</ele>
        <time>2019-08-08T13:39:45Z</time>
      </trkpt>
      <trkpt lat="48.59361" lon="7.77151">
        <ele>145</ele>
        <time>2019-08-08T13:39:46Z</time>
      </trkpt>
      <trkpt lat="48.59363" lon="7.77155">
        <ele>145</ele>
        <time>2019-08-08T13:39:47Z</time>
      </trkpt>
      <trkpt lat="48.59365" lon="7.7716">
        <ele>145.3</ele>
        <time>2019-08-08T13:39:48Z</time>
      </trkpt>
      <trkpt lat="48.59367" lon="7.77167">
        <ele>145.6</ele>
        <time>2019-08-08T13:39:49Z</time>
      </trkpt>
      <trkpt lat="48.5937" lon="7.7717">
        <ele>145.8</ele>
        <time>2019-08-08T13:39:50Z</time>
      </trkpt>
      <trkpt lat="48.59372" lon="7.77174">
        <ele>146.1</ele>
        <time>2019-08-08T13:39:51Z</time>
      </trkpt>
      <trkpt lat="48.59374" lon="7.77178">
        <ele>146.3</ele>
        <time>2019-08-08T13:39:52Z</time>
      </trkpt>
      <trkpt lat="48.59377" lon="7.77182">
        <ele>146.5</ele>
        <time>2019-08-08T13:39:54Z</time>
      </trkpt>
      <trkpt lat="48.59382" lon="7.77188">
        <ele>147</ele>
        <time>2019-08-08T13:39:56Z</time>
      </trkpt>
      <trkpt lat="48.59384" lon="7.77192">
        <ele>147.2</ele>
        <time>2019-08-08T13:39:57Z</time>
      </trkpt>
      <trkpt lat="48.59388" lon="7.77196">
        <ele>147.6</ele>
        <time>2019-08-08T13:39:58Z</time>
      </trkpt>
      <trkpt lat="48.59393" lon="7.77201">
        <ele>147.6</ele>
        <time>2019-08-08T13:40:00Z</time>
      </trkpt>
      <trkpt lat="48.59395" lon="7.77204">
        <ele>147.6</ele>
        <time>2019-08-08T13:40:01Z</time>
      </trkpt>
      <trkpt lat="48.59397" lon="7.77208">
        <ele>147.6</ele>
        <time>2019-08-08T13:40:02Z</time>
      </trkpt>
      <trkpt lat="48.59399" lon="7.77211">
        <ele>147.6</ele>
        <time>2019-08-08T13:40:03Z</time>
      </trkpt>
      <trkpt lat="48.59402" lon="7.77216">
        <ele>147.6</ele>
        <time>2019-08-08T13:40:04Z</time>
      </trkpt>
      <trkpt lat="48.59405" lon="7.77221">
        <ele>147.6</ele>
        <time>2019-08-08T13:40:05Z</time>
      </trkpt>
      <trkpt lat="48.59407" lon="7.77225">
        <ele>147.6</ele>
        <time>2019-08-08T13:40:06Z</time>
      </trkpt>
      <trkpt lat="48.59411" lon="7.77229">
        <ele>147.6</ele>
        <time>2019-08-08T13:40:07Z</time>
      </trkpt>
      <trkpt lat="48.59416" lon="7.77233">
        <ele>147.6</ele>
        <time>2019-08-08T13:40:08Z</time>
      </trkpt>
      <trkpt lat="48.59419" lon="7.77238">
        <ele>147.6</ele>
        <time>2019-08-08T13:40:09Z</time>
      </trkpt>
      <trkpt lat="48.59422" lon="7.77244">
        <ele>147.6</ele>
        <time>2019-08-08T13:40:10Z</time>
      </trkpt>
      <trkpt lat="48.59424" lon="7.77248">
        <ele>147.6</ele>
        <time>2019-08-08T13:40:11Z</time>
      </trkpt>
      <trkpt lat="48.59427" lon="7.77253">
        <ele>147.6</ele>
        <time>2019-08-08T13:40:12Z</time>
      </trkpt>
      <trkpt lat="48.5943" lon="7.77258">
        <ele>147.6</ele>
        <time>2019-08-08T13:40:13Z</time>
      </trkpt>
      <trkpt lat="48.59432" lon="7.77261">
        <ele>147.6</ele>
        <time>2019-08-08T13:40:14Z</time>
      </trkpt>
      <trkpt lat="48.59434" lon="7.77265">
        <ele>147.6</ele>
        <time>2019-08-08T13:40:15Z</time>
      </trkpt>
      <trkpt lat="48.59436" lon="7.77268">
        <ele>147.7</ele>
        <time>2019-08-08T13:40:16Z</time>
      </trkpt>
      <trkpt lat="48.59438" lon="7.77273">
        <ele>147.7</ele>
        <time>2019-08-08T13:40:17Z</time>
      </trkpt>
      <trkpt lat="48.5944" lon="7.77276">
        <ele>147.7</ele>
        <time>2019-08-08T13:40:18Z</time>
      </trkpt>
      <trkpt lat="48.59443" lon="7.77279">
        <ele>147.7</ele>
        <time>2019-08-08T13:40:19Z</time>
      </trkpt>
      <trkpt lat="48.59446" lon="7.77283">
        <ele>147.8</ele>
        <time>2019-08-08T13:40:20Z</time>
      </trkpt>
      <trkpt lat="48.59449" lon="7.77288">
        <ele>147.9</ele>
        <time>2019-08-08T13:40:21Z</time>
      </trkpt>
      <trkpt lat="48.59453" lon="7.77292">
        <ele>148</ele>
        <time>2019-08-08T13:40:22Z</time>
      </trkpt>
      <trkpt lat="48.59456" lon="7.77296">
        <ele>148.2</ele>
        <time>2019-08-08T13:40:23Z</time>
      </trkpt>
      <trkpt lat="48.59459" lon="7.773">
        <ele>148.4</ele>
        <time>2019-08-08T13:40:24Z</time>
      </trkpt>
      <trkpt lat="48.59462" lon="7.77305">
        <ele>148.7</ele>
        <time>2019-08-08T13:40:25Z</time>
      </trkpt>
      <trkpt lat="48.59464" lon="7.77308">
        <ele>148.9</ele>
        <time>2019-08-08T13:40:26Z</time>
      </trkpt>
      <trkpt lat="48.59467" lon="7.77312">
        <ele>149.3</ele>
        <time>2019-08-08T13:40:27Z</time>
      </trkpt>
      <trkpt lat="48.59469" lon="7.77315">
        <ele>149.6</ele>
        <time>2019-08-08T13:40:28Z</time>
      </trkpt>
      <trkpt lat="48.59471" lon="7.7732">
        <ele>149.4</ele>
        <time>2019-08-08T13:40:29Z</time>
      </trkpt>
      <trkpt lat="48.59473" lon="7.77324">
        <ele>149.1</ele>
        <time>2019-08-08T13:40:30Z</time>
      </trkpt>
      <trkpt lat="48.59476" lon="7.7733">
        <ele>148.6</ele>
        <time>2019-08-08T13:40:31Z</time>
      </trkpt>
      <trkpt lat="48.59479" lon="7.77334">
        <ele>148.3</ele>
        <time>2019-08-08T13:40:32Z</time>
      </trkpt>
      <trkpt lat="48.59482" lon="7.77337">
        <ele>148.1</ele>
        <time>2019-08-08T13:40:33Z</time>
      </trkpt>
      <trkpt lat="48.59484" lon="7.77341">
        <ele>147.9</ele>
        <time>2019-08-08T13:40:34Z</time>
      </trkpt>
      <trkpt lat="48.59487" lon="7.77342">
        <ele>147.7</ele>
        <time>2019-08-08T13:40:36Z</time>
      </trkpt>
      <trkpt lat="48.59492" lon="7.77346">
        <ele>146.5</ele>
        <time>2019-08-08T13:40:38Z</time>
      </trkpt>
      <trkpt lat="48.59495" lon="7.77349">
        <ele>146.1</ele>
        <time>2019-08-08T13:40:40Z</time>
      </trkpt>
      <trkpt lat="48.59498" lon="7.77352">
        <ele>145.8</ele>
        <time>2019-08-08T13:40:41Z</time>
      </trkpt>
      <trkpt lat="48.59502" lon="7.77357">
        <ele>145.3</ele>
        <time>2019-08-08T13:40:43Z</time>
      </trkpt>
      <trkpt lat="48.59506" lon="7.77363">
        <ele>144.8</ele>
        <time>2019-08-08T13:40:45Z</time>
      </trkpt>
      <trkpt lat="48.59509" lon="7.77366">
        <ele>144.6</ele>
        <time>2019-08-08T13:40:46Z</time>
      </trkpt>
      <trkpt lat="48.59512" lon="7.77372">
        <ele>144.1</ele>
        <time>2019-08-08T13:40:47Z</time>
      </trkpt>
      <trkpt lat="48.59515" lon="7.77376">
        <ele>143.8</ele>
        <time>2019-08-08T13:40:48Z</time>
      </trkpt>
      <trkpt lat="48.59517" lon="7.7738">
        <ele>143.6</ele>
        <time>2019-08-08T13:40:49Z</time>
      </trkpt>
      <trkpt lat="48.59519" lon="7.77384">
        <ele>143.3</ele>
        <time>2019-08-08T13:40:50Z</time>
      </trkpt>
      <trkpt lat="48.59521" lon="7.77387">
        <ele>143.1</ele>
        <time>2019-08-08T13:40:51Z</time>
      </trkpt>
      <trkpt lat="48.59523" lon="7.77389">
        <ele>142.8</ele>
        <time>2019-08-08T13:40:52Z</time>
      </trkpt>
      <trkpt lat="48.59526" lon="7.77392">
        <ele>142.5</ele>
        <time>2019-08-08T13:40:53Z</time>
      </trkpt>
      <trkpt lat="48.59528" lon="7.77395">
        <ele>142.2</ele>
        <time>2019-08-08T13:40:54Z</time>
      </trkpt>
      <trkpt lat="48.5953" lon="7.774">
        <ele>141.8</ele>
        <time>2019-08-08T13:40:55Z</time>
      </trkpt>
      <trkpt lat="48.59532" lon="7.77403">
        <ele>141.5</ele>
        <time>2019-08-08T13:40:56Z</time>
      </trkpt>
      <trkpt lat="48.59536" lon="7.77406">
        <ele>141.2</ele>
        <time>2019-08-08T13:40:57Z</time>
      </trkpt>
      <trkpt lat="48.59538" lon="7.77409">
        <ele>140.9</ele>
        <time>2019-08-08T13:40:58Z</time>
      </trkpt>
      <trkpt lat="48.59541" lon="7.77412">
        <ele>140.6</ele>
        <time>2019-08-08T13:40:59Z</time>
      </trkpt>
      <trkpt lat="48.59544" lon="7.7742">
        <ele>140.1</ele>
        <time>2019-08-08T13:41:01Z</time>
      </trkpt>
      <trkpt lat="48.59545" lon="7.77415">
        <ele>139.8</ele>
        <time>2019-08-08T13:41:03Z</time>
      </trkpt>
      <trkpt lat="48.59548" lon="7.77414">
        <ele>139.5</ele>
        <time>2019-08-08T13:41:06Z</time>
      </trkpt>
      <trkpt lat="48.5955" lon="7.7741">
        <ele>139.2</ele>
        <time>2019-08-08T13:41:10Z</time>
      </trkpt>
      <trkpt lat="48.59559" lon="7.77391">
        <ele>138.9</ele>
        <time>2019-08-08T13:42:12Z</time>
      </trkpt>
      <trkpt lat="48.59564" lon="7.77389">
        <ele>138.8</ele>
        <time>2019-08-08T13:42:14Z</time>
      </trkpt>
      <trkpt lat="48.59567" lon="7.77387">
        <ele>138.7</ele>
        <time>2019-08-08T13:42:15Z</time>
      </trkpt>
      <trkpt lat="48.5957" lon="7.77385">
        <ele>138.6</ele>
        <time>2019-08-08T13:42:16Z</time>
      </trkpt>
      <trkpt lat="48.59573" lon="7.77382">
        <ele>138.5</ele>
        <time>2019-08-08T13:42:17Z</time>
      </trkpt>
      <trkpt lat="48.59575" lon="7.77377">
        <ele>138.4</ele>
        <time>2019-08-08T13:42:18Z</time>
      </trkpt>
      <trkpt lat="48.59578" lon="7.77374">
        <ele>138.5</ele>
        <time>2019-08-08T13:42:19Z</time>
      </trkpt>
      <trkpt lat="48.59582" lon="7.77371">
        <ele>138.6</ele>
        <time>2019-08-08T13:42:20Z</time>
      </trkpt>
      <trkpt lat="48.59585" lon="7.77367">
        <ele>138.7</ele>
        <time>2019-08-08T13:42:21Z</time>
      </trkpt>
      <trkpt lat="48.59589" lon="7.77363">
        <ele>138.7</ele>
        <time>2019-08-08T13:42:22Z</time>
      </trkpt>
      <trkpt lat="48.59591" lon="7.7736">
        <ele>138.6</ele>
        <time>2019-08-08T13:42:23Z</time>
      </trkpt>
      <trkpt lat="48.59594" lon="7.77356">
        <ele>138.5</ele>
        <time>2019-08-08T13:42:24Z</time>
      </trkpt>
      <trkpt lat="48.59595" lon="7.77352">
        <ele>138.5</ele>
        <time>2019-08-08T13:42:25Z</time>
      </trkpt>
      <trkpt lat="48.59596" lon="7.77348">
        <ele>138.4</ele>
        <time>2019-08-08T13:42:26Z</time>
      </trkpt>
      <trkpt lat="48.59595" lon="7.77342">
        <ele>138.3</ele>
        <time>2019-08-08T13:42:27Z</time>
      </trkpt>
      <trkpt lat="48.59596" lon="7.77336">
        <ele>138.1</ele>
        <time>2019-08-08T13:42:28Z</time>
      </trkpt>
      <trkpt lat="48.59597" lon="7.77332">
        <ele>138</ele>
        <time>2019-08-08T13:42:29Z</time>
      </trkpt>
      <trkpt lat="48.59599" lon="7.77326">
        <ele>137.9</ele>
        <time>2019-08-08T13:42:30Z</time>
      </trkpt>
      <trkpt lat="48.59601" lon="7.77323">
        <ele>137.7</ele>
        <time>2019-08-08T13:42:31Z</time>
      </trkpt>
      <trkpt lat="48.59602" lon="7.77319">
        <ele>137.6</ele>
        <time>2019-08-08T13:42:32Z</time>
      </trkpt>
      <trkpt lat="48.59603" lon="7.77314">
        <ele>137.4</ele>
        <time>2019-08-08T13:42:33Z</time>
      </trkpt>
      <trkpt lat="48.59604" lon="7.7731">
        <ele>137.2</ele>
        <time>2019-08-08T13:42:34Z</time>
      </trkpt>
      <trkpt lat="48.59604" lon="7.77305">
        <ele>137</ele>
        <time>2019-08-08T13:42:35Z</time>
      </trkpt>
      <trkpt lat="48.59606" lon="7.77299">
        <ele>136.7</ele>
        <time>2019-08-08T13:42:37Z</time>
      </trkpt>
      <trkpt lat="48.59609" lon="7.77292">
        <ele>136.3</ele>
        <time>2019-08-08T13:42:39Z</time>
      </trkpt>
      <trkpt lat="48.5961" lon="7.77288">
        <ele>136.2</ele>
        <time>2019-08-08T13:42:40Z</time>
      </trkpt>
      <trkpt lat="48.59611" lon="7.77284">
        <ele>135.8</ele>
        <time>2019-08-08T13:42:41Z</time>
      </trkpt>
      <trkpt lat="48.59612" lon="7.77279">
        <ele>136</ele>
        <time>2019-08-08T13:42:42Z</time>
      </trkpt>
      <trkpt lat="48.59613" lon="7.77275">
        <ele>136.3</ele>
        <time>2019-08-08T13:42:43Z</time>
      </trkpt>
      <trkpt lat="48.59615" lon="7.77269">
        <ele>136.5</ele>
        <time>2019-08-08T13:42:45Z</time>
      </trkpt>
      <trkpt lat="48.59616" lon="7.77264">
        <ele>136.7</ele>
        <time>2019-08-08T13:42:47Z</time>
      </trkpt>
      <trkpt lat="48.59618" lon="7.77258">
        <ele>136.8</ele>
        <time>2019-08-08T13:42:49Z</time>
      </trkpt>
      <trkpt lat="48.59619" lon="7.77251">
        <ele>136.8</ele>
        <time>2019-08-08T13:42:51Z</time>
      </trkpt>
      <trkpt lat="48.59619" lon="7.77245">
        <ele>136.7</ele>
        <time>2019-08-08T13:42:53Z</time>
      </trkpt>
      <trkpt lat="48.5962" lon="7.77238">
        <ele>136.5</ele>
        <time>2019-08-08T13:42:55Z</time>
      </trkpt>
      <trkpt lat="48.59622" lon="7.77232">
        <ele>136.3</ele>
        <time>2019-08-08T13:42:57Z</time>
      </trkpt>
      <trkpt lat="48.59622" lon="7.77228">
        <ele>136.2</ele>
        <time>2019-08-08T13:42:58Z</time>
      </trkpt>
      <trkpt lat="48.59622" lon="7.77222">
        <ele>136</ele>
        <time>2019-08-08T13:43:00Z</time>
      </trkpt>
      <trkpt lat="48.59622" lon="7.77216">
        <ele>135.8</ele>
        <time>2019-08-08T13:43:03Z</time>
      </trkpt>
      <trkpt lat="48.59621" lon="7.77212">
        <ele>135.7</ele>
        <time>2019-08-08T13:43:04Z</time>
      </trkpt>
      <trkpt lat="48.59621" lon="7.77207">
        <ele>135.7</ele>
        <time>2019-08-08T13:43:05Z</time>
      </trkpt>
      <trkpt lat="48.59622" lon="7.77201">
        <ele>135.6</ele>
        <time>2019-08-08T13:43:06Z</time>
      </trkpt>
      <trkpt lat="48.59623" lon="7.77195">
        <ele>135.7</ele>
        <time>2019-08-08T13:43:07Z</time>
      </trkpt>
      <trkpt lat="48.59622" lon="7.7719">
        <ele>135.7</ele>
        <time>2019-08-08T13:43:08Z</time>
      </trkpt>
      <trkpt lat="48.59623" lon="7.77182">
        <ele>135.8</ele>
        <time>2019-08-08T13:43:09Z</time>
      </trkpt>
      <trkpt lat="48.59624" lon="7.77176">
        <ele>136</ele>
        <time>2019-08-08T13:43:10Z</time>
      </trkpt>
      <trkpt lat="48.59624" lon="7.77172">
        <ele>136.1</ele>
        <time>2019-08-08T13:43:11Z</time>
      </trkpt>
      <trkpt lat="48.59623" lon="7.77167">
        <ele>136.2</ele>
        <time>2019-08-08T13:43:12Z</time>
      </trkpt>
      <trkpt lat="48.59622" lon="7.77162">
        <ele>136.2</ele>
        <time>2019-08-08T13:43:13Z</time>
      </trkpt>
      <trkpt lat="48.59622" lon="7.77155">
        <ele>136.2</ele>
        <time>2019-08-08T13:43:15Z</time>
      </trkpt>
      <trkpt lat="48.59623" lon="7.7715">
        <ele>136.2</ele>
        <time>2019-08-08T13:43:16Z</time>
      </trkpt>
      <trkpt lat="48.59625" lon="7.77141">
        <ele>136</ele>
        <time>2019-08-08T13:43:17Z</time>
      </trkpt>
      <trkpt lat="48.59625" lon="7.77134">
        <ele>135.9</ele>
        <time>2019-08-08T13:43:18Z</time>
      </trkpt>
      <trkpt lat="48.59625" lon="7.77129">
        <ele>135.9</ele>
        <time>2019-08-08T13:43:19Z</time>
      </trkpt>
      <trkpt lat="48.59624" lon="7.77122">
        <ele>135.9</ele>
        <time>2019-08-08T13:43:20Z</time>
      </trkpt>
      <trkpt lat="48.59623" lon="7.77115">
        <ele>136</ele>
        <time>2019-08-08T13:43:21Z</time>
      </trkpt>
      <trkpt lat="48.59621" lon="7.77104">
        <ele>136.5</ele>
        <time>2019-08-08T13:43:22Z</time>
      </trkpt>
      <trkpt lat="48.5962" lon="7.77097">
        <ele>136.8</ele>
        <time>2019-08-08T13:43:23Z</time>
      </trkpt>
      <trkpt lat="48.59619" lon="7.77088">
        <ele>136.8</ele>
        <time>2019-08-08T13:43:24Z</time>
      </trkpt>
      <trkpt lat="48.59617" lon="7.7708">
        <ele>136.8</ele>
        <time>2019-08-08T13:43:25Z</time>
      </trkpt>
      <trkpt lat="48.59615" lon="7.77069">
        <ele>136.8</ele>
        <time>2019-08-08T13:43:26Z</time>
      </trkpt>
      <trkpt lat="48.59613" lon="7.77057">
        <ele>136.8</ele>
        <time>2019-08-08T13:43:27Z</time>
      </trkpt>
      <trkpt lat="48.59611" lon="7.77047">
        <ele>136.7</ele>
        <time>2019-08-08T13:43:28Z</time>
      </trkpt>
      <trkpt lat="48.59608" lon="7.77034">
        <ele>136.7</ele>
        <time>2019-08-08T13:43:29Z</time>
      </trkpt>
      <trkpt lat="48.59606" lon="7.77023">
        <ele>136.7</ele>
        <time>2019-08-08T13:43:30Z</time>
      </trkpt>
      <trkpt lat="48.59604" lon="7.77016">
        <ele>136.7</ele>
        <time>2019-08-08T13:43:31Z</time>
      </trkpt>
      <trkpt lat="48.59603" lon="7.77004">
        <ele>136.7</ele>
        <time>2019-08-08T13:43:32Z</time>
      </trkpt>
      <trkpt lat="48.59602" lon="7.76996">
        <ele>136.7</ele>
        <time>2019-08-08T13:43:33Z</time>
      </trkpt>
      <trkpt lat="48.59601" lon="7.76988">
        <ele>136.6</ele>
        <time>2019-08-08T13:43:34Z</time>
      </trkpt>
      <trkpt lat="48.59599" lon="7.76981">
        <ele>136.6</ele>
        <time>2019-08-08T13:43:35Z</time>
      </trkpt>
      <trkpt lat="48.59598" lon="7.76976">
        <ele>136.6</ele>
        <time>2019-08-08T13:43:36Z</time>
      </trkpt>
      <trkpt lat="48.59597" lon="7.76969">
        <ele>136.6</ele>
        <time>2019-08-08T13:43:37Z</time>
      </trkpt>
      <trkpt lat="48.59596" lon="7.76963">
        <ele>136.6</ele>
        <time>2019-08-08T13:43:38Z</time>
      </trkpt>
      <trkpt lat="48.59594" lon="7.76959">
        <ele>136.6</ele>
        <time>2019-08-08T13:43:39Z</time>
      </trkpt>
      <trkpt lat="48.59592" lon="7.76953">
        <ele>136.6</ele>
        <time>2019-08-08T13:43:40Z</time>
      </trkpt>
      <trkpt lat="48.59591" lon="7.76947">
        <ele>136.6</ele>
        <time>2019-08-08T13:43:41Z</time>
      </trkpt>
      <trkpt lat="48.59591" lon="7.76941">
        <ele>136.6</ele>
        <time>2019-08-08T13:43:42Z</time>
      </trkpt>
      <trkpt lat="48.59589" lon="7.76934">
        <ele>136.6</ele>
        <time>2019-08-08T13:43:43Z</time>
      </trkpt>
      <trkpt lat="48.59588" lon="7.76928">
        <ele>136.5</ele>
        <time>2019-08-08T13:43:44Z</time>
      </trkpt>
      <trkpt lat="48.59586" lon="7.76923">
        <ele>136.5</ele>
        <time>2019-08-08T13:43:45Z</time>
      </trkpt>
      <trkpt lat="48.59585" lon="7.76919">
        <ele>136.5</ele>
        <time>2019-08-08T13:43:46Z</time>
      </trkpt>
      <trkpt lat="48.59583" lon="7.76914">
        <ele>136.4</ele>
        <time>2019-08-08T13:43:47Z</time>
      </trkpt>
      <trkpt lat="48.59582" lon="7.76908">
        <ele>136.4</ele>
        <time>2019-08-08T13:43:48Z</time>
      </trkpt>
      <trkpt lat="48.59581" lon="7.76904">
        <ele>136.4</ele>
        <time>2019-08-08T13:43:49Z</time>
      </trkpt>
      <trkpt lat="48.5958" lon="7.76898">
        <ele>136.4</ele>
        <time>2019-08-08T13:43:50Z</time>
      </trkpt>
      <trkpt lat="48.59577" lon="7.76893">
        <ele>136.3</ele>
        <time>2019-08-08T13:43:51Z</time>
      </trkpt>
      <trkpt lat="48.59576" lon="7.76888">
        <ele>136.3</ele>
        <time>2019-08-08T13:43:52Z</time>
      </trkpt>
      <trkpt lat="48.59574" lon="7.76883">
        <ele>136.3</ele>
        <time>2019-08-08T13:43:53Z</time>
      </trkpt>
      <trkpt lat="48.59573" lon="7.76879">
        <ele>136.2</ele>
        <time>2019-08-08T13:43:54Z</time>
      </trkpt>
      <trkpt lat="48.59573" lon="7.76873">
        <ele>136.2</ele>
        <time>2019-08-08T13:43:55Z</time>
      </trkpt>
      <trkpt lat="48.59571" lon="7.76868">
        <ele>136.2</ele>
        <time>2019-08-08T13:43:56Z</time>
      </trkpt>
      <trkpt lat="48.59569" lon="7.76862">
        <ele>136.2</ele>
        <time>2019-08-08T13:43:57Z</time>
      </trkpt>
      <trkpt lat="48.59567" lon="7.76856">
        <ele>136.1</ele>
        <time>2019-08-08T13:43:58Z</time>
      </trkpt>
      <trkpt lat="48.59565" lon="7.76851">
        <ele>136.1</ele>
        <time>2019-08-08T13:43:59Z</time>
      </trkpt>
      <trkpt lat="48.59563" lon="7.76846">
        <ele>136.1</ele>
        <time>2019-08-08T13:44:00Z</time>
      </trkpt>
      <trkpt lat="48.59561" lon="7.76842">
        <ele>136</ele>
        <time>2019-08-08T13:44:01Z</time>
      </trkpt>
      <trkpt lat="48.59558" lon="7.76836">
        <ele>136</ele>
        <time>2019-08-08T13:44:02Z</time>
      </trkpt>
      <trkpt lat="48.59556" lon="7.76832">
        <ele>136</ele>
        <time>2019-08-08T13:44:03Z</time>
      </trkpt>
      <trkpt lat="48.59554" lon="7.76827">
        <ele>136</ele>
        <time>2019-08-08T13:44:04Z</time>
      </trkpt>
      <trkpt lat="48.59552" lon="7.76823">
        <ele>136</ele>
        <time>2019-08-08T13:44:05Z</time>
      </trkpt>
      <trkpt lat="48.5955" lon="7.7682">
        <ele>136</ele>
        <time>2019-08-08T13:44:06Z</time>
      </trkpt>
      <trkpt lat="48.59548" lon="7.76816">
        <ele>136</ele>
        <time>2019-08-08T13:44:07Z</time>
      </trkpt>
      <trkpt lat="48.59546" lon="7.76813">
        <ele>136</ele>
        <time>2019-08-08T13:44:08Z</time>
      </trkpt>
      <trkpt lat="48.59543" lon="7.76811">
        <ele>135.9</ele>
        <time>2019-08-08T13:44:09Z</time>
      </trkpt>
      <trkpt lat="48.59541" lon="7.76808">
        <ele>135.9</ele>
        <time>2019-08-08T13:44:10Z</time>
      </trkpt>
      <trkpt lat="48.59537" lon="7.76806">
        <ele>135.9</ele>
        <time>2019-08-08T13:44:11Z</time>
      </trkpt>
      <trkpt lat="48.59534" lon="7.76804">
        <ele>135.9</ele>
        <time>2019-08-08T13:44:12Z</time>
      </trkpt>
      <trkpt lat="48.59531" lon="7.76797">
        <ele>135.9</ele>
        <time>2019-08-08T13:44:14Z</time>
      </trkpt>
      <trkpt lat="48.59529" lon="7.76793">
        <ele>135.9</ele>
        <time>2019-08-08T13:44:15Z</time>
      </trkpt>
      <trkpt lat="48.59526" lon="7.7679">
        <ele>135.9</ele>
        <time>2019-08-08T13:44:16Z</time>
      </trkpt>
      <trkpt lat="48.59522" lon="7.76785">
        <ele>135.8</ele>
        <time>2019-08-08T13:44:17Z</time>
      </trkpt>
      <trkpt lat="48.59518" lon="7.76781">
        <ele>135.8</ele>
        <time>2019-08-08T13:44:18Z</time>
      </trkpt>
      <trkpt lat="48.59516" lon="7.76778">
        <ele>135.8</ele>
        <time>2019-08-08T13:44:19Z</time>
      </trkpt>
      <trkpt lat="48.59513" lon="7.76774">
        <ele>135.8</ele>
        <time>2019-08-08T13:44:20Z</time>
      </trkpt>
      <trkpt lat="48.59509" lon="7.76771">
        <ele>135.7</ele>
        <time>2019-08-08T13:44:21Z</time>
      </trkpt>
      <trkpt lat="48.59507" lon="7.76767">
        <ele>135.7</ele>
        <time>2019-08-08T13:44:22Z</time>
      </trkpt>
      <trkpt lat="48.59504" lon="7.76764">
        <ele>135.7</ele>
        <time>2019-08-08T13:44:23Z</time>
      </trkpt>
      <trkpt lat="48.59501" lon="7.7676">
        <ele>135.7</ele>
        <time>2019-08-08T13:44:24Z</time>
      </trkpt>
      <trkpt lat="48.59498" lon="7.76755">
        <ele>135.6</ele>
        <time>2019-08-08T13:44:25Z</time>
      </trkpt>
      <trkpt lat="48.59495" lon="7.76752">
        <ele>135.6</ele>
        <time>2019-08-08T13:44:26Z</time>
      </trkpt>
      <trkpt lat="48.59491" lon="7.76749">
        <ele>135.6</ele>
        <time>2019-08-08T13:44:27Z</time>
      </trkpt>
      <trkpt lat="48.59487" lon="7.76746">
        <ele>135.5</ele>
        <time>2019-08-08T13:44:28Z</time>
      </trkpt>
      <trkpt lat="48.59484" lon="7.76742">
        <ele>135.5</ele>
        <time>2019-08-08T13:44:29Z</time>
      </trkpt>
      <trkpt lat="48.5948" lon="7.7674">
        <ele>135.5</ele>
        <time>2019-08-08T13:44:30Z</time>
      </trkpt>
      <trkpt lat="48.59476" lon="7.76737">
        <ele>135.4</ele>
        <time>2019-08-08T13:44:31Z</time>
      </trkpt>
      <trkpt lat="48.59473" lon="7.76735">
        <ele>135.4</ele>
        <time>2019-08-08T13:44:32Z</time>
      </trkpt>
      <trkpt lat="48.59469" lon="7.76734">
        <ele>135.4</ele>
        <time>2019-08-08T13:44:33Z</time>
      </trkpt>
      <trkpt lat="48.59464" lon="7.76732">
        <ele>135.4</ele>
        <time>2019-08-08T13:44:35Z</time>
      </trkpt>
      <trkpt lat="48.59462" lon="7.76729">
        <ele>135.4</ele>
        <time>2019-08-08T13:44:39Z</time>
      </trkpt>
      <trkpt lat="48.59462" lon="7.76723">
        <ele>135.4</ele>
        <time>2019-08-08T13:44:41Z</time>
      </trkpt>
      <trkpt lat="48.59457" lon="7.76721">
        <ele>135.4</ele>
        <time>2019-08-08T13:44:43Z</time>
      </trkpt>
      <trkpt lat="48.59454" lon="7.76719">
        <ele>135.4</ele>
        <time>2019-08-08T13:44:44Z</time>
      </trkpt>
      <trkpt lat="48.5945" lon="7.76718">
        <ele>135.4</ele>
        <time>2019-08-08T13:44:46Z</time>
      </trkpt>
      <trkpt lat="48.59446" lon="7.76719">
        <ele>135.4</ele>
        <time>2019-08-08T13:44:48Z</time>
      </trkpt>
      <trkpt lat="48.59443" lon="7.76718">
        <ele>135.4</ele>
        <time>2019-08-08T13:44:49Z</time>
      </trkpt>
      <trkpt lat="48.5944" lon="7.76718">
        <ele>135.4</ele>
        <time>2019-08-08T13:44:50Z</time>
      </trkpt>
      <trkpt lat="48.59435" lon="7.76714">
        <ele>135.4</ele>
        <time>2019-08-08T13:44:52Z</time>
      </trkpt>
      <trkpt lat="48.59432" lon="7.76712">
        <ele>135.4</ele>
        <time>2019-08-08T13:44:53Z</time>
      </trkpt>
      <trkpt lat="48.59426" lon="7.76709">
        <ele>135.4</ele>
        <time>2019-08-08T13:44:55Z</time>
      </trkpt>
      <trkpt lat="48.59423" lon="7.76713">
        <ele>135.4</ele>
        <time>2019-08-08T13:44:57Z</time>
      </trkpt>
      <trkpt lat="48.59417" lon="7.76711">
        <ele>135.4</ele>
        <time>2019-08-08T13:44:59Z</time>
      </trkpt>
      <trkpt lat="48.59414" lon="7.76709">
        <ele>135.4</ele>
        <time>2019-08-08T13:45:00Z</time>
      </trkpt>
      <trkpt lat="48.59412" lon="7.76707">
        <ele>135.4</ele>
        <time>2019-08-08T13:45:01Z</time>
      </trkpt>
      <trkpt lat="48.59409" lon="7.76705">
        <ele>135.4</ele>
        <time>2019-08-08T13:45:02Z</time>
      </trkpt>
      <trkpt lat="48.59406" lon="7.76704">
        <ele>135.4</ele>
        <time>2019-08-08T13:45:03Z</time>
      </trkpt>
      <trkpt lat="48.59404" lon="7.767">
        <ele>135.4</ele>
        <time>2019-08-08T13:45:04Z</time>
      </trkpt>
      <trkpt lat="48.59398" lon="7.76696">
        <ele>135.4</ele>
        <time>2019-08-08T13:45:05Z</time>
      </trkpt>
      <trkpt lat="48.59393" lon="7.76689">
        <ele>135.5</ele>
        <time>2019-08-08T13:45:06Z</time>
      </trkpt>
      <trkpt lat="48.59389" lon="7.76689">
        <ele>135.5</ele>
        <time>2019-08-08T13:45:07Z</time>
      </trkpt>
      <trkpt lat="48.59384" lon="7.76688">
        <ele>135.5</ele>
        <time>2019-08-08T13:45:08Z</time>
      </trkpt>
      <trkpt lat="48.59379" lon="7.76688">
        <ele>135.5</ele>
        <time>2019-08-08T13:45:09Z</time>
      </trkpt>
      <trkpt lat="48.59375" lon="7.76688">
        <ele>135.6</ele>
        <time>2019-08-08T13:45:10Z</time>
      </trkpt>
      <trkpt lat="48.59371" lon="7.76688">
        <ele>135.6</ele>
        <time>2019-08-08T13:45:11Z</time>
      </trkpt>
      <trkpt lat="48.59367" lon="7.76687">
        <ele>135.6</ele>
        <time>2019-08-08T13:45:12Z</time>
      </trkpt>
      <trkpt lat="48.59362" lon="7.76687">
        <ele>135.6</ele>
        <time>2019-08-08T13:45:13Z</time>
      </trkpt>
      <trkpt lat="48.59356" lon="7.76685">
        <ele>135.6</ele>
        <time>2019-08-08T13:45:14Z</time>
      </trkpt>
      <trkpt lat="48.5935" lon="7.76684">
        <ele>135.6</ele>
        <time>2019-08-08T13:45:15Z</time>
      </trkpt>
      <trkpt lat="48.59345" lon="7.76684">
        <ele>135.6</ele>
        <time>2019-08-08T13:45:16Z</time>
      </trkpt>
      <trkpt lat="48.59342" lon="7.76687">
        <ele>135.6</ele>
        <time>2019-08-08T13:45:17Z</time>
      </trkpt>
      <trkpt lat="48.59337" lon="7.76687">
        <ele>135.6</ele>
        <time>2019-08-08T13:45:18Z</time>
      </trkpt>
      <trkpt lat="48.59333" lon="7.76687">
        <ele>135.6</ele>
        <time>2019-08-08T13:45:19Z</time>
      </trkpt>
      <trkpt lat="48.5933" lon="7.76688">
        <ele>135.6</ele>
        <time>2019-08-08T13:45:20Z</time>
      </trkpt>
      <trkpt lat="48.59327" lon="7.76689">
        <ele>135.6</ele>
        <time>2019-08-08T13:45:21Z</time>
      </trkpt>
      <trkpt lat="48.59324" lon="7.76691">
        <ele>135.6</ele>
        <time>2019-08-08T13:45:22Z</time>
      </trkpt>
      <trkpt lat="48.5932" lon="7.76691">
        <ele>135.7</ele>
        <time>2019-08-08T13:45:23Z</time>
      </trkpt>
      <trkpt lat="48.59316" lon="7.76691">
        <ele>135.7</ele>
        <time>2019-08-08T13:45:24Z</time>
      </trkpt>
      <trkpt lat="48.59313" lon="7.76691">
        <ele>135.7</ele>
        <time>2019-08-08T13:45:25Z</time>
      </trkpt>
      <trkpt lat="48.59307" lon="7.76691">
        <ele>135.7</ele>
        <time>2019-08-08T13:45:26Z</time>
      </trkpt>
      <trkpt lat="48.59303" lon="7.76691">
        <ele>135.8</ele>
        <time>2019-08-08T13:45:27Z</time>
      </trkpt>
      <trkpt lat="48.59299" lon="7.76692">
        <ele>135.8</ele>
        <time>2019-08-08T13:45:28Z</time>
      </trkpt>
      <trkpt lat="48.59295" lon="7.76691">
        <ele>135.8</ele>
        <time>2019-08-08T13:45:29Z</time>
      </trkpt>
      <trkpt lat="48.59292" lon="7.76692">
        <ele>135.8</ele>
        <time>2019-08-08T13:45:30Z</time>
      </trkpt>
      <trkpt lat="48.59288" lon="7.76692">
        <ele>135.9</ele>
        <time>2019-08-08T13:45:31Z</time>
      </trkpt>
      <trkpt lat="48.59285" lon="7.76692">
        <ele>135.9</ele>
        <time>2019-08-08T13:45:32Z</time>
      </trkpt>
      <trkpt lat="48.59282" lon="7.76691">
        <ele>135.9</ele>
        <time>2019-08-08T13:45:33Z</time>
      </trkpt>
      <trkpt lat="48.59278" lon="7.7669">
        <ele>136</ele>
        <time>2019-08-08T13:45:34Z</time>
      </trkpt>
      <trkpt lat="48.59274" lon="7.76689">
        <ele>136.1</ele>
        <time>2019-08-08T13:45:35Z</time>
      </trkpt>
      <trkpt lat="48.59268" lon="7.76689">
        <ele>136.2</ele>
        <time>2019-08-08T13:45:37Z</time>
      </trkpt>
      <trkpt lat="48.59264" lon="7.7669">
        <ele>136.2</ele>
        <time>2019-08-08T13:45:38Z</time>
      </trkpt>
      <trkpt lat="48.59261" lon="7.7669">
        <ele>136.3</ele>
        <time>2019-08-08T13:45:39Z</time>
      </trkpt>
      <trkpt lat="48.59257" lon="7.76689">
        <ele>136.4</ele>
        <time>2019-08-08T13:45:41Z</time>
      </trkpt>
      <trkpt lat="48.59254" lon="7.76689">
        <ele>136.5</ele>
        <time>2019-08-08T13:45:42Z</time>
      </trkpt>
      <trkpt lat="48.5925" lon="7.7669">
        <ele>136.7</ele>
        <time>2019-08-08T13:45:44Z</time>
      </trkpt>
      <trkpt lat="48.5925" lon="7.76695">
        <ele>136.8</ele>
        <time>2019-08-08T13:45:51Z</time>
      </trkpt>
      <trkpt lat="48.59251" lon="7.76691">
        <ele>137</ele>
        <time>2019-08-08T13:45:56Z</time>
      </trkpt>
      <trkpt lat="48.59253" lon="7.76684">
        <ele>137.2</ele>
        <time>2019-08-08T13:45:59Z</time>
      </trkpt>
      <trkpt lat="48.59254" lon="7.76677">
        <ele>136.1</ele>
        <time>2019-08-08T13:46:01Z</time>
      </trkpt>
      <trkpt lat="48.59255" lon="7.7667">
        <ele>136</ele>
        <time>2019-08-08T13:46:03Z</time>
      </trkpt>
      <trkpt lat="48.59256" lon="7.76663">
        <ele>135.9</ele>
        <time>2019-08-08T13:46:05Z</time>
      </trkpt>
      <trkpt lat="48.59257" lon="7.76657">
        <ele>135.9</ele>
        <time>2019-08-08T13:46:07Z</time>
      </trkpt>
      <trkpt lat="48.59258" lon="7.76651">
        <ele>135.8</ele>
        <time>2019-08-08T13:46:09Z</time>
      </trkpt>
      <trkpt lat="48.59259" lon="7.76645">
        <ele>135.8</ele>
        <time>2019-08-08T13:46:11Z</time>
      </trkpt>
      <trkpt lat="48.5926" lon="7.7664">
        <ele>135.7</ele>
        <time>2019-08-08T13:46:13Z</time>
      </trkpt>
      <trkpt lat="48.59261" lon="7.76634">
        <ele>135.7</ele>
        <time>2019-08-08T13:46:15Z</time>
      </trkpt>
      <trkpt lat="48.59262" lon="7.7663">
        <ele>136.1</ele>
        <time>2019-08-08T13:46:16Z</time>
      </trkpt>
      <trkpt lat="48.59262" lon="7.76624">
        <ele>136.1</ele>
        <time>2019-08-08T13:46:18Z</time>
      </trkpt>
      <trkpt lat="48.5926" lon="7.76619">
        <ele>136.2</ele>
        <time>2019-08-08T13:46:20Z</time>
      </trkpt>
      <trkpt lat="48.59259" lon="7.76624">
        <ele>136.2</ele>
        <time>2019-08-08T13:46:24Z</time>
      </trkpt>
      <trkpt lat="48.59258" lon="7.76619">
        <ele>136.2</ele>
        <time>2019-08-08T13:46:31Z</time>
      </trkpt>
      <trkpt lat="48.59254" lon="7.7662">
        <ele>136.4</ele>
        <time>2019-08-08T13:46:55Z</time>
      </trkpt>
      <trkpt lat="48.59249" lon="7.76618">
        <ele>136.7</ele>
        <time>2019-08-08T13:46:57Z</time>
      </trkpt>
      <trkpt lat="48.59245" lon="7.76616">
        <ele>136.9</ele>
        <time>2019-08-08T13:46:58Z</time>
      </trkpt>
      <trkpt lat="48.59241" lon="7.76613">
        <ele>137</ele>
        <time>2019-08-08T13:46:59Z</time>
      </trkpt>
      <trkpt lat="48.59237" lon="7.76613">
        <ele>137</ele>
        <time>2019-08-08T13:47:01Z</time>
      </trkpt>
      <trkpt lat="48.59234" lon="7.76612">
        <ele>137.1</ele>
        <time>2019-08-08T13:47:02Z</time>
      </trkpt>
      <trkpt lat="48.59229" lon="7.7661">
        <ele>137</ele>
        <time>2019-08-08T13:47:03Z</time>
      </trkpt>
      <trkpt lat="48.59223" lon="7.76607">
        <ele>136.9</ele>
        <time>2019-08-08T13:47:04Z</time>
      </trkpt>
      <trkpt lat="48.59218" lon="7.76604">
        <ele>136.8</ele>
        <time>2019-08-08T13:47:05Z</time>
      </trkpt>
      <trkpt lat="48.59213" lon="7.76603">
        <ele>136.6</ele>
        <time>2019-08-08T13:47:06Z</time>
      </trkpt>
      <trkpt lat="48.59208" lon="7.76601">
        <ele>136.5</ele>
        <time>2019-08-08T13:47:07Z</time>
      </trkpt>
      <trkpt lat="48.59204" lon="7.766">
        <ele>136.3</ele>
        <time>2019-08-08T13:47:08Z</time>
      </trkpt>
      <trkpt lat="48.59199" lon="7.76598">
        <ele>136.1</ele>
        <time>2019-08-08T13:47:09Z</time>
      </trkpt>
      <trkpt lat="48.59193" lon="7.76594">
        <ele>135.9</ele>
        <time>2019-08-08T13:47:10Z</time>
      </trkpt>
      <trkpt lat="48.59189" lon="7.76591">
        <ele>135.8</ele>
        <time>2019-08-08T13:47:11Z</time>
      </trkpt>
      <trkpt lat="48.59184" lon="7.76587">
        <ele>135.6</ele>
        <time>2019-08-08T13:47:12Z</time>
      </trkpt>
      <trkpt lat="48.59178" lon="7.76583">
        <ele>135.5</ele>
        <time>2019-08-08T13:47:13Z</time>
      </trkpt>
      <trkpt lat="48.59173" lon="7.76579">
        <ele>135.4</ele>
        <time>2019-08-08T13:47:14Z</time>
      </trkpt>
      <trkpt lat="48.59168" lon="7.76576">
        <ele>135.4</ele>
        <time>2019-08-08T13:47:15Z</time>
      </trkpt>
      <trkpt lat="48.59165" lon="7.76571">
        <ele>135.4</ele>
        <time>2019-08-08T13:47:16Z</time>
      </trkpt>
      <trkpt lat="48.5916" lon="7.76567">
        <ele>135.4</ele>
        <time>2019-08-08T13:47:17Z</time>
      </trkpt>
      <trkpt lat="48.59156" lon="7.76563">
        <ele>135.4</ele>
        <time>2019-08-08T13:47:18Z</time>
      </trkpt>
      <trkpt lat="48.59151" lon="7.76559">
        <ele>135.4</ele>
        <time>2019-08-08T13:47:19Z</time>
      </trkpt>
      <trkpt lat="48.59147" lon="7.76554">
        <ele>135.4</ele>
        <time>2019-08-08T13:47:20Z</time>
      </trkpt>
      <trkpt lat="48.59143" lon="7.76549">
        <ele>135.4</ele>
        <time>2019-08-08T13:47:21Z</time>
      </trkpt>
      <trkpt lat="48.5914" lon="7.76546">
        <ele>135.4</ele>
        <time>2019-08-08T13:47:22Z</time>
      </trkpt>
      <trkpt lat="48.59137" lon="7.76542">
        <ele>135.4</ele>
        <time>2019-08-08T13:47:23Z</time>
      </trkpt>
      <trkpt lat="48.59134" lon="7.76537">
        <ele>135.4</ele>
        <time>2019-08-08T13:47:24Z</time>
      </trkpt>
      <trkpt lat="48.5913" lon="7.76534">
        <ele>135.4</ele>
        <time>2019-08-08T13:47:25Z</time>
      </trkpt>
      <trkpt lat="48.59128" lon="7.7653">
        <ele>135.4</ele>
        <time>2019-08-08T13:47:26Z</time>
      </trkpt>
      <trkpt lat="48.59126" lon="7.76526">
        <ele>135.4</ele>
        <time>2019-08-08T13:47:27Z</time>
      </trkpt>
      <trkpt lat="48.59123" lon="7.76521">
        <ele>135.4</ele>
        <time>2019-08-08T13:47:28Z</time>
      </trkpt>
      <trkpt lat="48.5912" lon="7.76516">
        <ele>135.4</ele>
        <time>2019-08-08T13:47:29Z</time>
      </trkpt>
      <trkpt lat="48.59116" lon="7.76511">
        <ele>135.4</ele>
        <time>2019-08-08T13:47:30Z</time>
      </trkpt>
      <trkpt lat="48.59114" lon="7.76508">
        <ele>135.4</ele>
        <time>2019-08-08T13:47:31Z</time>
      </trkpt>
      <trkpt lat="48.59111" lon="7.76506">
        <ele>135.5</ele>
        <time>2019-08-08T13:47:32Z</time>
      </trkpt>
      <trkpt lat="48.59108" lon="7.76502">
        <ele>135.5</ele>
        <time>2019-08-08T13:47:33Z</time>
      </trkpt>
      <trkpt lat="48.59105" lon="7.76499">
        <ele>135.5</ele>
        <time>2019-08-08T13:47:34Z</time>
      </trkpt>
      <trkpt lat="48.59103" lon="7.76495">
        <ele>135.5</ele>
        <time>2019-08-08T13:47:35Z</time>
      </trkpt>
      <trkpt lat="48.59098" lon="7.76492">
        <ele>135.6</ele>
        <time>2019-08-08T13:47:36Z</time>
      </trkpt>
      <trkpt lat="48.59091" lon="7.76489">
        <ele>135.7</ele>
        <time>2019-08-08T13:47:37Z</time>
      </trkpt>
      <trkpt lat="48.59089" lon="7.76483">
        <ele>135.8</ele>
        <time>2019-08-08T13:47:38Z</time>
      </trkpt>
      <trkpt lat="48.59085" lon="7.76477">
        <ele>135.8</ele>
        <time>2019-08-08T13:47:39Z</time>
      </trkpt>
      <trkpt lat="48.59082" lon="7.76471">
        <ele>135.9</ele>
        <time>2019-08-08T13:47:40Z</time>
      </trkpt>
      <trkpt lat="48.59078" lon="7.76466">
        <ele>136.1</ele>
        <time>2019-08-08T13:47:41Z</time>
      </trkpt>
      <trkpt lat="48.59075" lon="7.76462">
        <ele>136.2</ele>
        <time>2019-08-08T13:47:42Z</time>
      </trkpt>
      <trkpt lat="48.59073" lon="7.76458">
        <ele>136.3</ele>
        <time>2019-08-08T13:47:43Z</time>
      </trkpt>
      <trkpt lat="48.59071" lon="7.76453">
        <ele>136.3</ele>
        <time>2019-08-08T13:47:44Z</time>
      </trkpt>
      <trkpt lat="48.59069" lon="7.76448">
        <ele>136.4</ele>
        <time>2019-08-08T13:47:45Z</time>
      </trkpt>
      <trkpt lat="48.59065" lon="7.76443">
        <ele>136.5</ele>
        <time>2019-08-08T13:47:46Z</time>
      </trkpt>
      <trkpt lat="48.59062" lon="7.76438">
        <ele>136.7</ele>
        <time>2019-08-08T13:47:47Z</time>
      </trkpt>
      <trkpt lat="48.59059" lon="7.76435">
        <ele>136.8</ele>
        <time>2019-08-08T13:47:48Z</time>
      </trkpt>
      <trkpt lat="48.59056" lon="7.76431">
        <ele>137</ele>
        <time>2019-08-08T13:47:49Z</time>
      </trkpt>
      <trkpt lat="48.59053" lon="7.76428">
        <ele>137.1</ele>
        <time>2019-08-08T13:47:50Z</time>
      </trkpt>
      <trkpt lat="48.5905" lon="7.76425">
        <ele>137.3</ele>
        <time>2019-08-08T13:47:51Z</time>
      </trkpt>
      <trkpt lat="48.59047" lon="7.76421">
        <ele>137.4</ele>
        <time>2019-08-08T13:47:52Z</time>
      </trkpt>
      <trkpt lat="48.59044" lon="7.76417">
        <ele>137.5</ele>
        <time>2019-08-08T13:47:53Z</time>
      </trkpt>
      <trkpt lat="48.59042" lon="7.76413">
        <ele>137.6</ele>
        <time>2019-08-08T13:47:54Z</time>
      </trkpt>
      <trkpt lat="48.59039" lon="7.7641">
        <ele>137.7</ele>
        <time>2019-08-08T13:47:55Z</time>
      </trkpt>
      <trkpt lat="48.59035" lon="7.76407">
        <ele>137.8</ele>
        <time>2019-08-08T13:47:56Z</time>
      </trkpt>
      <trkpt lat="48.59033" lon="7.76404">
        <ele>137.9</ele>
        <time>2019-08-08T13:47:57Z</time>
      </trkpt>
      <trkpt lat="48.59029" lon="7.76401">
        <ele>138</ele>
        <time>2019-08-08T13:47:58Z</time>
      </trkpt>
      <trkpt lat="48.59025" lon="7.76398">
        <ele>138</ele>
        <time>2019-08-08T13:47:59Z</time>
      </trkpt>
      <trkpt lat="48.59022" lon="7.76396">
        <ele>138.1</ele>
        <time>2019-08-08T13:48:00Z</time>
      </trkpt>
      <trkpt lat="48.5902" lon="7.76392">
        <ele>138.1</ele>
        <time>2019-08-08T13:48:01Z</time>
      </trkpt>
      <trkpt lat="48.59018" lon="7.76387">
        <ele>138.1</ele>
        <time>2019-08-08T13:48:02Z</time>
      </trkpt>
      <trkpt lat="48.59015" lon="7.76382">
        <ele>138.3</ele>
        <time>2019-08-08T13:48:03Z</time>
      </trkpt>
      <trkpt lat="48.59011" lon="7.76377">
        <ele>138.2</ele>
        <time>2019-08-08T13:48:04Z</time>
      </trkpt>
      <trkpt lat="48.59006" lon="7.76373">
        <ele>138.1</ele>
        <time>2019-08-08T13:48:05Z</time>
      </trkpt>
      <trkpt lat="48.59002" lon="7.76369">
        <ele>138</ele>
        <time>2019-08-08T13:48:06Z</time>
      </trkpt>
      <trkpt lat="48.59" lon="7.76368">
        <ele>137.9</ele>
        <time>2019-08-08T13:48:07Z</time>
      </trkpt>
      <trkpt lat="48.58996" lon="7.76364">
        <ele>137.8</ele>
        <time>2019-08-08T13:48:08Z</time>
      </trkpt>
      <trkpt lat="48.58992" lon="7.76361">
        <ele>137.6</ele>
        <time>2019-08-08T13:48:09Z</time>
      </trkpt>
      <trkpt lat="48.58989" lon="7.76358">
        <ele>137.5</ele>
        <time>2019-08-08T13:48:10Z</time>
      </trkpt>
      <trkpt lat="48.58986" lon="7.76355">
        <ele>137.5</ele>
        <time>2019-08-08T13:48:11Z</time>
      </trkpt>
      <trkpt lat="48.58982" lon="7.76353">
        <ele>137.4</ele>
        <time>2019-08-08T13:48:12Z</time>
      </trkpt>
      <trkpt lat="48.58978" lon="7.76351">
        <ele>137.3</ele>
        <time>2019-08-08T13:48:13Z</time>
      </trkpt>
      <trkpt lat="48.58974" lon="7.76349">
        <ele>137.3</ele>
        <time>2019-08-08T13:48:14Z</time>
      </trkpt>
      <trkpt lat="48.5897" lon="7.76347">
        <ele>137.3</ele>
        <time>2019-08-08T13:48:15Z</time>
      </trkpt>
      <trkpt lat="48.58967" lon="7.76345">
        <ele>137.3</ele>
        <time>2019-08-08T13:48:16Z</time>
      </trkpt>
      <trkpt lat="48.58964" lon="7.76343">
        <ele>137.3</ele>
        <time>2019-08-08T13:48:17Z</time>
      </trkpt>
      <trkpt lat="48.5896" lon="7.7634">
        <ele>137.2</ele>
        <time>2019-08-08T13:48:18Z</time>
      </trkpt>
      <trkpt lat="48.58956" lon="7.76339">
        <ele>137.2</ele>
        <time>2019-08-08T13:48:19Z</time>
      </trkpt>
      <trkpt lat="48.58952" lon="7.76338">
        <ele>137.2</ele>
        <time>2019-08-08T13:48:20Z</time>
      </trkpt>
      <trkpt lat="48.58948" lon="7.76338">
        <ele>137.2</ele>
        <time>2019-08-08T13:48:21Z</time>
      </trkpt>
      <trkpt lat="48.58945" lon="7.76339">
        <ele>137.2</ele>
        <time>2019-08-08T13:48:22Z</time>
      </trkpt>
      <trkpt lat="48.58941" lon="7.76338">
        <ele>137.2</ele>
        <time>2019-08-08T13:48:23Z</time>
      </trkpt>
      <trkpt lat="48.58936" lon="7.76336">
        <ele>137.2</ele>
        <time>2019-08-08T13:48:24Z</time>
      </trkpt>
      <trkpt lat="48.58932" lon="7.76335">
        <ele>137.2</ele>
        <time>2019-08-08T13:48:25Z</time>
      </trkpt>
      <trkpt lat="48.58928" lon="7.76335">
        <ele>137.2</ele>
        <time>2019-08-08T13:48:26Z</time>
      </trkpt>
      <trkpt lat="48.58924" lon="7.76336">
        <ele>137.2</ele>
        <time>2019-08-08T13:48:27Z</time>
      </trkpt>
      <trkpt lat="48.5892" lon="7.76335">
        <ele>137.2</ele>
        <time>2019-08-08T13:48:28Z</time>
      </trkpt>
      <trkpt lat="48.58917" lon="7.76335">
        <ele>137.2</ele>
        <time>2019-08-08T13:48:29Z</time>
      </trkpt>
      <trkpt lat="48.58913" lon="7.76334">
        <ele>137.2</ele>
        <time>2019-08-08T13:48:30Z</time>
      </trkpt>
      <trkpt lat="48.58909" lon="7.76334">
        <ele>137.2</ele>
        <time>2019-08-08T13:48:31Z</time>
      </trkpt>
      <trkpt lat="48.58906" lon="7.76333">
        <ele>137.2</ele>
        <time>2019-08-08T13:48:32Z</time>
      </trkpt>
      <trkpt lat="48.58902" lon="7.76333">
        <ele>137.2</ele>
        <time>2019-08-08T13:48:33Z</time>
      </trkpt>
      <trkpt lat="48.58898" lon="7.76334">
        <ele>137.2</ele>
        <time>2019-08-08T13:48:34Z</time>
      </trkpt>
      <trkpt lat="48.58895" lon="7.76333">
        <ele>137.2</ele>
        <time>2019-08-08T13:48:35Z</time>
      </trkpt>
      <trkpt lat="48.5889" lon="7.76333">
        <ele>137.2</ele>
        <time>2019-08-08T13:48:37Z</time>
      </trkpt>
      <trkpt lat="48.58884" lon="7.76333">
        <ele>137.2</ele>
        <time>2019-08-08T13:48:39Z</time>
      </trkpt>
      <trkpt lat="48.58882" lon="7.76333">
        <ele>137.2</ele>
        <time>2019-08-08T13:48:40Z</time>
      </trkpt>
      <trkpt lat="48.58878" lon="7.76334">
        <ele>137.2</ele>
        <time>2019-08-08T13:48:41Z</time>
      </trkpt>
      <trkpt lat="48.58874" lon="7.76334">
        <ele>137.2</ele>
        <time>2019-08-08T13:48:43Z</time>
      </trkpt>
      <trkpt lat="48.58869" lon="7.76333">
        <ele>137.2</ele>
        <time>2019-08-08T13:48:45Z</time>
      </trkpt>
      <trkpt lat="48.58863" lon="7.76332">
        <ele>137.2</ele>
        <time>2019-08-08T13:48:47Z</time>
      </trkpt>
      <trkpt lat="48.58859" lon="7.76331">
        <ele>137.2</ele>
        <time>2019-08-08T13:48:49Z</time>
      </trkpt>
      <trkpt lat="48.58856" lon="7.76329">
        <ele>137.2</ele>
        <time>2019-08-08T13:48:50Z</time>
      </trkpt>
      <trkpt lat="48.58853" lon="7.76329">
        <ele>137.2</ele>
        <time>2019-08-08T13:48:51Z</time>
      </trkpt>
      <trkpt lat="48.58849" lon="7.76328">
        <ele>137.2</ele>
        <time>2019-08-08T13:48:53Z</time>
      </trkpt>
      <trkpt lat="48.58846" lon="7.76327">
        <ele>137.2</ele>
        <time>2019-08-08T13:48:54Z</time>
      </trkpt>
      <trkpt lat="48.5884" lon="7.76325">
        <ele>137.2</ele>
        <time>2019-08-08T13:48:56Z</time>
      </trkpt>
      <trkpt lat="48.58837" lon="7.76323">
        <ele>137.2</ele>
        <time>2019-08-08T13:48:57Z</time>
      </trkpt>
      <trkpt lat="48.58834" lon="7.7632">
        <ele>137.2</ele>
        <time>2019-08-08T13:48:58Z</time>
      </trkpt>
      <trkpt lat="48.58831" lon="7.76317">
        <ele>137.2</ele>
        <time>2019-08-08T13:48:59Z</time>
      </trkpt>
      <trkpt lat="48.58829" lon="7.76315">
        <ele>137.2</ele>
        <time>2019-08-08T13:49:00Z</time>
      </trkpt>
      <trkpt lat="48.58824" lon="7.76311">
        <ele>137.2</ele>
        <time>2019-08-08T13:49:02Z</time>
      </trkpt>
      <trkpt lat="48.58821" lon="7.76309">
        <ele>137.2</ele>
        <time>2019-08-08T13:49:03Z</time>
      </trkpt>
      <trkpt lat="48.58818" lon="7.76307">
        <ele>137.2</ele>
        <time>2019-08-08T13:49:04Z</time>
      </trkpt>
      <trkpt lat="48.58815" lon="7.76305">
        <ele>137.2</ele>
        <time>2019-08-08T13:49:05Z</time>
      </trkpt>
      <trkpt lat="48.58812" lon="7.76304">
        <ele>137.2</ele>
        <time>2019-08-08T13:49:06Z</time>
      </trkpt>
      <trkpt lat="48.5881" lon="7.76302">
        <ele>137.2</ele>
        <time>2019-08-08T13:49:07Z</time>
      </trkpt>
      <trkpt lat="48.58807" lon="7.76301">
        <ele>137.2</ele>
        <time>2019-08-08T13:49:08Z</time>
      </trkpt>
      <trkpt lat="48.58804" lon="7.763">
        <ele>137.2</ele>
        <time>2019-08-08T13:49:09Z</time>
      </trkpt>
      <trkpt lat="48.588" lon="7.76297">
        <ele>137.2</ele>
        <time>2019-08-08T13:49:10Z</time>
      </trkpt>
      <trkpt lat="48.58796" lon="7.76296">
        <ele>137.2</ele>
        <time>2019-08-08T13:49:11Z</time>
      </trkpt>
      <trkpt lat="48.58792" lon="7.76293">
        <ele>137.2</ele>
        <time>2019-08-08T13:49:12Z</time>
      </trkpt>
      <trkpt lat="48.58789" lon="7.7629">
        <ele>137.2</ele>
        <time>2019-08-08T13:49:13Z</time>
      </trkpt>
      <trkpt lat="48.58787" lon="7.76288">
        <ele>137.2</ele>
        <time>2019-08-08T13:49:14Z</time>
      </trkpt>
      <trkpt lat="48.58781" lon="7.76283">
        <ele>137.2</ele>
        <time>2019-08-08T13:49:16Z</time>
      </trkpt>
      <trkpt lat="48.58778" lon="7.7628">
        <ele>137.2</ele>
        <time>2019-08-08T13:49:17Z</time>
      </trkpt>
      <trkpt lat="48.58776" lon="7.76278">
        <ele>137.2</ele>
        <time>2019-08-08T13:49:18Z</time>
      </trkpt>
      <trkpt lat="48.58773" lon="7.76273">
        <ele>137.2</ele>
        <time>2019-08-08T13:49:19Z</time>
      </trkpt>
      <trkpt lat="48.58771" lon="7.76269">
        <ele>137.2</ele>
        <time>2019-08-08T13:49:20Z</time>
      </trkpt>
      <trkpt lat="48.58768" lon="7.76265">
        <ele>137.2</ele>
        <time>2019-08-08T13:49:21Z</time>
      </trkpt>
      <trkpt lat="48.58766" lon="7.76263">
        <ele>137.2</ele>
        <time>2019-08-08T13:49:22Z</time>
      </trkpt>
      <trkpt lat="48.58764" lon="7.7626">
        <ele>137.2</ele>
        <time>2019-08-08T13:49:23Z</time>
      </trkpt>
      <trkpt lat="48.58761" lon="7.76252">
        <ele>137.2</ele>
        <time>2019-08-08T13:49:25Z</time>
      </trkpt>
      <trkpt lat="48.58758" lon="7.76247">
        <ele>137.2</ele>
        <time>2019-08-08T13:49:26Z</time>
      </trkpt>
      <trkpt lat="48.58756" lon="7.76241">
        <ele>137.2</ele>
        <time>2019-08-08T13:49:27Z</time>
      </trkpt>
      <trkpt lat="48.58753" lon="7.76236">
        <ele>137.2</ele>
        <time>2019-08-08T13:49:28Z</time>
      </trkpt>
      <trkpt lat="48.58751" lon="7.76231">
        <ele>137.2</ele>
        <time>2019-08-08T13:49:29Z</time>
      </trkpt>
      <trkpt lat="48.58749" lon="7.76228">
        <ele>137.3</ele>
        <time>2019-08-08T13:49:30Z</time>
      </trkpt>
      <trkpt lat="48.58747" lon="7.76224">
        <ele>137.3</ele>
        <time>2019-08-08T13:49:31Z</time>
      </trkpt>
      <trkpt lat="48.58745" lon="7.7622">
        <ele>137.3</ele>
        <time>2019-08-08T13:49:32Z</time>
      </trkpt>
      <trkpt lat="48.58743" lon="7.76217">
        <ele>137.3</ele>
        <time>2019-08-08T13:49:33Z</time>
      </trkpt>
      <trkpt lat="48.5874" lon="7.76212">
        <ele>137.3</ele>
        <time>2019-08-08T13:49:34Z</time>
      </trkpt>
      <trkpt lat="48.58738" lon="7.7621">
        <ele>137.4</ele>
        <time>2019-08-08T13:49:35Z</time>
      </trkpt>
      <trkpt lat="48.58736" lon="7.76205">
        <ele>137.4</ele>
        <time>2019-08-08T13:49:36Z</time>
      </trkpt>
      <trkpt lat="48.58734" lon="7.76202">
        <ele>137.4</ele>
        <time>2019-08-08T13:49:37Z</time>
      </trkpt>
      <trkpt lat="48.58731" lon="7.762">
        <ele>137.4</ele>
        <time>2019-08-08T13:49:38Z</time>
      </trkpt>
      <trkpt lat="48.58728" lon="7.76197">
        <ele>137.5</ele>
        <time>2019-08-08T13:49:39Z</time>
      </trkpt>
      <trkpt lat="48.58725" lon="7.76194">
        <ele>137.5</ele>
        <time>2019-08-08T13:49:40Z</time>
      </trkpt>
      <trkpt lat="48.58723" lon="7.76191">
        <ele>137.5</ele>
        <time>2019-08-08T13:49:41Z</time>
      </trkpt>
      <trkpt lat="48.5872" lon="7.76187">
        <ele>137.6</ele>
        <time>2019-08-08T13:49:42Z</time>
      </trkpt>
      <trkpt lat="48.58716" lon="7.76183">
        <ele>137.6</ele>
        <time>2019-08-08T13:49:43Z</time>
      </trkpt>
      <trkpt lat="48.58714" lon="7.76179">
        <ele>137.6</ele>
        <time>2019-08-08T13:49:44Z</time>
      </trkpt>
      <trkpt lat="48.58711" lon="7.76175">
        <ele>137.7</ele>
        <time>2019-08-08T13:49:45Z</time>
      </trkpt>
      <trkpt lat="48.58709" lon="7.7617">
        <ele>137.7</ele>
        <time>2019-08-08T13:49:46Z</time>
      </trkpt>
      <trkpt lat="48.58706" lon="7.76167">
        <ele>137.7</ele>
        <time>2019-08-08T13:49:47Z</time>
      </trkpt>
      <trkpt lat="48.58704" lon="7.76163">
        <ele>137.8</ele>
        <time>2019-08-08T13:49:48Z</time>
      </trkpt>
      <trkpt lat="48.58702" lon="7.76161">
        <ele>137.8</ele>
        <time>2019-08-08T13:49:49Z</time>
      </trkpt>
      <trkpt lat="48.58698" lon="7.76156">
        <ele>137.8</ele>
        <time>2019-08-08T13:49:51Z</time>
      </trkpt>
      <trkpt lat="48.58695" lon="7.76152">
        <ele>137.8</ele>
        <time>2019-08-08T13:49:53Z</time>
      </trkpt>
      <trkpt lat="48.58692" lon="7.76148">
        <ele>137.9</ele>
        <time>2019-08-08T13:49:55Z</time>
      </trkpt>
      <trkpt lat="48.5869" lon="7.76144">
        <ele>137.9</ele>
        <time>2019-08-08T13:49:58Z</time>
      </trkpt>
      <trkpt lat="48.58688" lon="7.76139">
        <ele>137.9</ele>
        <time>2019-08-08T13:50:13Z</time>
      </trkpt>
      <trkpt lat="48.58686" lon="7.76134">
        <ele>137.9</ele>
        <time>2019-08-08T13:50:15Z</time>
      </trkpt>
      <trkpt lat="48.58682" lon="7.76132">
        <ele>137.9</ele>
        <time>2019-08-08T13:50:16Z</time>
      </trkpt>
      <trkpt lat="48.58678" lon="7.76131">
        <ele>137.9</ele>
        <time>2019-08-08T13:50:17Z</time>
      </trkpt>
      <trkpt lat="48.58674" lon="7.76126">
        <ele>137.8</ele>
        <time>2019-08-08T13:50:18Z</time>
      </trkpt>
      <trkpt lat="48.58671" lon="7.76123">
        <ele>137.8</ele>
        <time>2019-08-08T13:50:19Z</time>
      </trkpt>
      <trkpt lat="48.58668" lon="7.76118">
        <ele>137.7</ele>
        <time>2019-08-08T13:50:20Z</time>
      </trkpt>
      <trkpt lat="48.58665" lon="7.76114">
        <ele>137.6</ele>
        <time>2019-08-08T13:50:21Z</time>
      </trkpt>
      <trkpt lat="48.58663" lon="7.7611">
        <ele>137.5</ele>
        <time>2019-08-08T13:50:22Z</time>
      </trkpt>
      <trkpt lat="48.5866" lon="7.76107">
        <ele>137.3</ele>
        <time>2019-08-08T13:50:23Z</time>
      </trkpt>
      <trkpt lat="48.58657" lon="7.76103">
        <ele>137.2</ele>
        <time>2019-08-08T13:50:24Z</time>
      </trkpt>
      <trkpt lat="48.58655" lon="7.761">
        <ele>137.1</ele>
        <time>2019-08-08T13:50:25Z</time>
      </trkpt>
      <trkpt lat="48.58651" lon="7.76095">
        <ele>136.9</ele>
        <time>2019-08-08T13:50:26Z</time>
      </trkpt>
      <trkpt lat="48.5865" lon="7.76086">
        <ele>136.7</ele>
        <time>2019-08-08T13:50:27Z</time>
      </trkpt>
      <trkpt lat="48.58647" lon="7.76082">
        <ele>136.6</ele>
        <time>2019-08-08T13:50:28Z</time>
      </trkpt>
      <trkpt lat="48.58644" lon="7.76078">
        <ele>136.5</ele>
        <time>2019-08-08T13:50:29Z</time>
      </trkpt>
      <trkpt lat="48.58641" lon="7.76073">
        <ele>136.4</ele>
        <time>2019-08-08T13:50:30Z</time>
      </trkpt>
      <trkpt lat="48.58639" lon="7.76068">
        <ele>136.3</ele>
        <time>2019-08-08T13:50:31Z</time>
      </trkpt>
      <trkpt lat="48.58637" lon="7.76063">
        <ele>136.1</ele>
        <time>2019-08-08T13:50:32Z</time>
      </trkpt>
      <trkpt lat="48.58635" lon="7.76058">
        <ele>136</ele>
        <time>2019-08-08T13:50:33Z</time>
      </trkpt>
      <trkpt lat="48.58633" lon="7.76051">
        <ele>135.9</ele>
        <time>2019-08-08T13:50:34Z</time>
      </trkpt>
      <trkpt lat="48.58631" lon="7.76044">
        <ele>135.8</ele>
        <time>2019-08-08T13:50:35Z</time>
      </trkpt>
      <trkpt lat="48.5863" lon="7.76038">
        <ele>135.7</ele>
        <time>2019-08-08T13:50:36Z</time>
      </trkpt>
      <trkpt lat="48.58629" lon="7.76032">
        <ele>135.7</ele>
        <time>2019-08-08T13:50:37Z</time>
      </trkpt>
      <trkpt lat="48.58627" lon="7.76026">
        <ele>135.8</ele>
        <time>2019-08-08T13:50:38Z</time>
      </trkpt>
      <trkpt lat="48.58624" lon="7.76021">
        <ele>135.9</ele>
        <time>2019-08-08T13:50:39Z</time>
      </trkpt>
      <trkpt lat="48.58622" lon="7.76018">
        <ele>136</ele>
        <time>2019-08-08T13:50:40Z</time>
      </trkpt>
      <trkpt lat="48.5862" lon="7.76012">
        <ele>136.1</ele>
        <time>2019-08-08T13:50:41Z</time>
      </trkpt>
      <trkpt lat="48.58618" lon="7.76006">
        <ele>136.2</ele>
        <time>2019-08-08T13:50:42Z</time>
      </trkpt>
      <trkpt lat="48.58616" lon="7.76002">
        <ele>136.3</ele>
        <time>2019-08-08T13:50:43Z</time>
      </trkpt>
      <trkpt lat="48.58613" lon="7.75998">
        <ele>136.4</ele>
        <time>2019-08-08T13:50:44Z</time>
      </trkpt>
      <trkpt lat="48.5861" lon="7.75994">
        <ele>136.6</ele>
        <time>2019-08-08T13:50:45Z</time>
      </trkpt>
      <trkpt lat="48.58608" lon="7.75989">
        <ele>136.7</ele>
        <time>2019-08-08T13:50:46Z</time>
      </trkpt>
      <trkpt lat="48.58605" lon="7.75984">
        <ele>136.8</ele>
        <time>2019-08-08T13:50:47Z</time>
      </trkpt>
      <trkpt lat="48.58604" lon="7.75979">
        <ele>137</ele>
        <time>2019-08-08T13:50:48Z</time>
      </trkpt>
      <trkpt lat="48.58602" lon="7.75972">
        <ele>137.2</ele>
        <time>2019-08-08T13:50:49Z</time>
      </trkpt>
      <trkpt lat="48.586" lon="7.75968">
        <ele>137.4</ele>
        <time>2019-08-08T13:50:50Z</time>
      </trkpt>
      <trkpt lat="48.58597" lon="7.75964">
        <ele>137.6</ele>
        <time>2019-08-08T13:50:51Z</time>
      </trkpt>
      <trkpt lat="48.58596" lon="7.75958">
        <ele>137.8</ele>
        <time>2019-08-08T13:50:52Z</time>
      </trkpt>
      <trkpt lat="48.58594" lon="7.75953">
        <ele>138</ele>
        <time>2019-08-08T13:50:53Z</time>
      </trkpt>
      <trkpt lat="48.58592" lon="7.75949">
        <ele>138.2</ele>
        <time>2019-08-08T13:50:54Z</time>
      </trkpt>
      <trkpt lat="48.58591" lon="7.75945">
        <ele>138.9</ele>
        <time>2019-08-08T13:50:55Z</time>
      </trkpt>
      <trkpt lat="48.58588" lon="7.75941">
        <ele>138.9</ele>
        <time>2019-08-08T13:50:56Z</time>
      </trkpt>
      <trkpt lat="48.58586" lon="7.75937">
        <ele>138.9</ele>
        <time>2019-08-08T13:50:57Z</time>
      </trkpt>
      <trkpt lat="48.58585" lon="7.75934">
        <ele>139.7</ele>
        <time>2019-08-08T13:50:58Z</time>
      </trkpt>
      <trkpt lat="48.58583" lon="7.75927">
        <ele>140</ele>
        <time>2019-08-08T13:51:00Z</time>
      </trkpt>
      <trkpt lat="48.58583" lon="7.75921">
        <ele>140.3</ele>
        <time>2019-08-08T13:51:02Z</time>
      </trkpt>
      <trkpt lat="48.58586" lon="7.75915">
        <ele>140.7</ele>
        <time>2019-08-08T13:51:04Z</time>
      </trkpt>
      <trkpt lat="48.58589" lon="7.75912">
        <ele>140.9</ele>
        <time>2019-08-08T13:51:05Z</time>
      </trkpt>
      <trkpt lat="48.58591" lon="7.75908">
        <ele>141.1</ele>
        <time>2019-08-08T13:51:06Z</time>
      </trkpt>
      <trkpt lat="48.58592" lon="7.75902">
        <ele>141.4</ele>
        <time>2019-08-08T13:51:08Z</time>
      </trkpt>
      <trkpt lat="48.58593" lon="7.75894">
        <ele>141.8</ele>
        <time>2019-08-08T13:51:10Z</time>
      </trkpt>
      <trkpt lat="48.58596" lon="7.75888">
        <ele>141.9</ele>
        <time>2019-08-08T13:51:12Z</time>
      </trkpt>
      <trkpt lat="48.58598" lon="7.75884">
        <ele>141.9</ele>
        <time>2019-08-08T13:51:15Z</time>
      </trkpt>
      <trkpt lat="48.58598" lon="7.7588">
        <ele>141.9</ele>
        <time>2019-08-08T13:51:22Z</time>
      </trkpt>
      <trkpt lat="48.58597" lon="7.75864">
        <ele>142.5</ele>
        <time>2019-08-08T13:52:45Z</time>
      </trkpt>
      <trkpt lat="48.58597" lon="7.75859">
        <ele>142.6</ele>
        <time>2019-08-08T13:52:46Z</time>
      </trkpt>
      <trkpt lat="48.58598" lon="7.75854">
        <ele>142.8</ele>
        <time>2019-08-08T13:52:47Z</time>
      </trkpt>
      <trkpt lat="48.586" lon="7.75849">
        <ele>142.9</ele>
        <time>2019-08-08T13:52:48Z</time>
      </trkpt>
      <trkpt lat="48.58601" lon="7.75845">
        <ele>143.1</ele>
        <time>2019-08-08T13:52:49Z</time>
      </trkpt>
      <trkpt lat="48.58603" lon="7.75841">
        <ele>143.2</ele>
        <time>2019-08-08T13:52:50Z</time>
      </trkpt>
      <trkpt lat="48.58604" lon="7.75836">
        <ele>143.4</ele>
        <time>2019-08-08T13:52:51Z</time>
      </trkpt>
      <trkpt lat="48.58605" lon="7.75832">
        <ele>143.5</ele>
        <time>2019-08-08T13:52:52Z</time>
      </trkpt>
      <trkpt lat="48.58607" lon="7.75828">
        <ele>143.7</ele>
        <time>2019-08-08T13:52:53Z</time>
      </trkpt>
      <trkpt lat="48.58609" lon="7.75824">
        <ele>143.9</ele>
        <time>2019-08-08T13:52:54Z</time>
      </trkpt>
      <trkpt lat="48.58611" lon="7.75821">
        <ele>144.1</ele>
        <time>2019-08-08T13:52:55Z</time>
      </trkpt>
      <trkpt lat="48.58613" lon="7.75816">
        <ele>144.3</ele>
        <time>2019-08-08T13:52:56Z</time>
      </trkpt>
      <trkpt lat="48.58614" lon="7.75811">
        <ele>144.6</ele>
        <time>2019-08-08T13:52:57Z</time>
      </trkpt>
      <trkpt lat="48.58615" lon="7.75806">
        <ele>144.8</ele>
        <time>2019-08-08T13:52:58Z</time>
      </trkpt>
      <trkpt lat="48.58616" lon="7.75801">
        <ele>145.1</ele>
        <time>2019-08-08T13:52:59Z</time>
      </trkpt>
      <trkpt lat="48.58617" lon="7.75796">
        <ele>145.4</ele>
        <time>2019-08-08T13:53:00Z</time>
      </trkpt>
      <trkpt lat="48.58618" lon="7.75792">
        <ele>145.7</ele>
        <time>2019-08-08T13:53:01Z</time>
      </trkpt>
      <trkpt lat="48.58619" lon="7.75788">
        <ele>145.9</ele>
        <time>2019-08-08T13:53:02Z</time>
      </trkpt>
      <trkpt lat="48.58621" lon="7.7578">
        <ele>146</ele>
        <time>2019-08-08T13:53:04Z</time>
      </trkpt>
      <trkpt lat="48.58623" lon="7.75772">
        <ele>146.2</ele>
        <time>2019-08-08T13:53:06Z</time>
      </trkpt>
      <trkpt lat="48.58624" lon="7.75768">
        <ele>146.2</ele>
        <time>2019-08-08T13:53:07Z</time>
      </trkpt>
      <trkpt lat="48.58625" lon="7.75764">
        <ele>146.4</ele>
        <time>2019-08-08T13:53:08Z</time>
      </trkpt>
      <trkpt lat="48.58627" lon="7.7576">
        <ele>146.5</ele>
        <time>2019-08-08T13:53:09Z</time>
      </trkpt>
      <trkpt lat="48.58629" lon="7.75755">
        <ele>146.6</ele>
        <time>2019-08-08T13:53:10Z</time>
      </trkpt>
      <trkpt lat="48.58631" lon="7.75751">
        <ele>146.8</ele>
        <time>2019-08-08T13:53:11Z</time>
      </trkpt>
      <trkpt lat="48.58633" lon="7.75745">
        <ele>147.1</ele>
        <time>2019-08-08T13:53:12Z</time>
      </trkpt>
      <trkpt lat="48.58634" lon="7.75739">
        <ele>147.3</ele>
        <time>2019-08-08T13:53:13Z</time>
      </trkpt>
      <trkpt lat="48.58635" lon="7.75733">
        <ele>147.5</ele>
        <time>2019-08-08T13:53:14Z</time>
      </trkpt>
      <trkpt lat="48.58637" lon="7.75726">
        <ele>147.5</ele>
        <time>2019-08-08T13:53:15Z</time>
      </trkpt>
      <trkpt lat="48.58639" lon="7.75721">
        <ele>147.7</ele>
        <time>2019-08-08T13:53:16Z</time>
      </trkpt>
      <trkpt lat="48.5864" lon="7.75715">
        <ele>147.8</ele>
        <time>2019-08-08T13:53:17Z</time>
      </trkpt>
      <trkpt lat="48.58641" lon="7.75709">
        <ele>147.8</ele>
        <time>2019-08-08T13:53:18Z</time>
      </trkpt>
      <trkpt lat="48.58643" lon="7.75701">
        <ele>147.9</ele>
        <time>2019-08-08T13:53:19Z</time>
      </trkpt>
      <trkpt lat="48.58643" lon="7.75696">
        <ele>148</ele>
        <time>2019-08-08T13:53:20Z</time>
      </trkpt>
      <trkpt lat="48.58644" lon="7.75692">
        <ele>148.1</ele>
        <time>2019-08-08T13:53:21Z</time>
      </trkpt>
      <trkpt lat="48.58646" lon="7.75687">
        <ele>148.1</ele>
        <time>2019-08-08T13:53:22Z</time>
      </trkpt>
      <trkpt lat="48.58647" lon="7.75683">
        <ele>148.3</ele>
        <time>2019-08-08T13:53:23Z</time>
      </trkpt>
      <trkpt lat="48.58648" lon="7.75677">
        <ele>148.4</ele>
        <time>2019-08-08T13:53:24Z</time>
      </trkpt>
      <trkpt lat="48.58649" lon="7.75673">
        <ele>148.5</ele>
        <time>2019-08-08T13:53:25Z</time>
      </trkpt>
      <trkpt lat="48.5865" lon="7.75668">
        <ele>148.5</ele>
        <time>2019-08-08T13:53:26Z</time>
      </trkpt>
      <trkpt lat="48.58652" lon="7.75663">
        <ele>148.5</ele>
        <time>2019-08-08T13:53:27Z</time>
      </trkpt>
      <trkpt lat="48.58653" lon="7.75657">
        <ele>148.6</ele>
        <time>2019-08-08T13:53:28Z</time>
      </trkpt>
      <trkpt lat="48.58656" lon="7.75652">
        <ele>148.6</ele>
        <time>2019-08-08T13:53:29Z</time>
      </trkpt>
      <trkpt lat="48.58658" lon="7.75647">
        <ele>148.6</ele>
        <time>2019-08-08T13:53:30Z</time>
      </trkpt>
      <trkpt lat="48.58659" lon="7.75641">
        <ele>148.6</ele>
        <time>2019-08-08T13:53:31Z</time>
      </trkpt>
      <trkpt lat="48.58662" lon="7.75635">
        <ele>148.7</ele>
        <time>2019-08-08T13:53:32Z</time>
      </trkpt>
      <trkpt lat="48.58664" lon="7.7563">
        <ele>148.7</ele>
        <time>2019-08-08T13:53:33Z</time>
      </trkpt>
      <trkpt lat="48.58665" lon="7.75626">
        <ele>148.6</ele>
        <time>2019-08-08T13:53:34Z</time>
      </trkpt>
      <trkpt lat="48.58667" lon="7.7562">
        <ele>148.5</ele>
        <time>2019-08-08T13:53:35Z</time>
      </trkpt>
      <trkpt lat="48.58669" lon="7.75613">
        <ele>148.4</ele>
        <time>2019-08-08T13:53:37Z</time>
      </trkpt>
      <trkpt lat="48.5867" lon="7.75608">
        <ele>148.3</ele>
        <time>2019-08-08T13:53:38Z</time>
      </trkpt>
      <trkpt lat="48.5867" lon="7.75602">
        <ele>148.2</ele>
        <time>2019-08-08T13:53:39Z</time>
      </trkpt>
      <trkpt lat="48.58672" lon="7.75596">
        <ele>148.1</ele>
        <time>2019-08-08T13:53:40Z</time>
      </trkpt>
      <trkpt lat="48.58673" lon="7.75589">
        <ele>148</ele>
        <time>2019-08-08T13:53:41Z</time>
      </trkpt>
      <trkpt lat="48.58674" lon="7.75583">
        <ele>147.8</ele>
        <time>2019-08-08T13:53:42Z</time>
      </trkpt>
      <trkpt lat="48.58677" lon="7.75577">
        <ele>147.5</ele>
        <time>2019-08-08T13:53:43Z</time>
      </trkpt>
      <trkpt lat="48.58678" lon="7.75572">
        <ele>147.3</ele>
        <time>2019-08-08T13:53:44Z</time>
      </trkpt>
      <trkpt lat="48.58679" lon="7.75568">
        <ele>147</ele>
        <time>2019-08-08T13:53:45Z</time>
      </trkpt>
      <trkpt lat="48.58681" lon="7.75564">
        <ele>146.8</ele>
        <time>2019-08-08T13:53:46Z</time>
      </trkpt>
      <trkpt lat="48.58682" lon="7.75558">
        <ele>146.4</ele>
        <time>2019-08-08T13:53:47Z</time>
      </trkpt>
      <trkpt lat="48.58684" lon="7.75553">
        <ele>146.1</ele>
        <time>2019-08-08T13:53:48Z</time>
      </trkpt>
      <trkpt lat="48.58685" lon="7.75548">
        <ele>145.8</ele>
        <time>2019-08-08T13:53:49Z</time>
      </trkpt>
      <trkpt lat="48.58687" lon="7.75543">
        <ele>145.4</ele>
        <time>2019-08-08T13:53:50Z</time>
      </trkpt>
      <trkpt lat="48.58689" lon="7.75536">
        <ele>145</ele>
        <time>2019-08-08T13:53:52Z</time>
      </trkpt>
      <trkpt lat="48.58692" lon="7.75532">
        <ele>144.6</ele>
        <time>2019-08-08T13:53:55Z</time>
      </trkpt>
      <trkpt lat="48.58696" lon="7.75527">
        <ele>144.2</ele>
        <time>2019-08-08T13:53:57Z</time>
      </trkpt>
      <trkpt lat="48.58697" lon="7.75523">
        <ele>144</ele>
        <time>2019-08-08T13:53:58Z</time>
      </trkpt>
      <trkpt lat="48.587" lon="7.7552">
        <ele>143.3</ele>
        <time>2019-08-08T13:54:00Z</time>
      </trkpt>
      <trkpt lat="48.58704" lon="7.7552">
        <ele>143.8</ele>
        <time>2019-08-08T13:54:02Z</time>
      </trkpt>
      <trkpt lat="48.58707" lon="7.75524">
        <ele>143.9</ele>
        <time>2019-08-08T13:54:04Z</time>
      </trkpt>
      <trkpt lat="48.58712" lon="7.75527">
        <ele>144</ele>
        <time>2019-08-08T13:54:06Z</time>
      </trkpt>
      <trkpt lat="48.58715" lon="7.75528">
        <ele>144.1</ele>
        <time>2019-08-08T13:54:07Z</time>
      </trkpt>
      <trkpt lat="48.58718" lon="7.75528">
        <ele>144.2</ele>
        <time>2019-08-08T13:54:08Z</time>
      </trkpt>
      <trkpt lat="48.58723" lon="7.75527">
        <ele>144.2</ele>
        <time>2019-08-08T13:54:10Z</time>
      </trkpt>
      <trkpt lat="48.58728" lon="7.75527">
        <ele>144.3</ele>
        <time>2019-08-08T13:54:12Z</time>
      </trkpt>
      <trkpt lat="48.58733" lon="7.75527">
        <ele>144.3</ele>
        <time>2019-08-08T13:54:14Z</time>
      </trkpt>
      <trkpt lat="48.58735" lon="7.75527">
        <ele>144.3</ele>
        <time>2019-08-08T13:54:15Z</time>
      </trkpt>
      <trkpt lat="48.58738" lon="7.75525">
        <ele>144.3</ele>
        <time>2019-08-08T13:54:16Z</time>
      </trkpt>
      <trkpt lat="48.58741" lon="7.75522">
        <ele>144.2</ele>
        <time>2019-08-08T13:54:17Z</time>
      </trkpt>
      <trkpt lat="48.58745" lon="7.7552">
        <ele>144.2</ele>
        <time>2019-08-08T13:54:18Z</time>
      </trkpt>
      <trkpt lat="48.58748" lon="7.75516">
        <ele>144.2</ele>
        <time>2019-08-08T13:54:19Z</time>
      </trkpt>
      <trkpt lat="48.58751" lon="7.75514">
        <ele>144.2</ele>
        <time>2019-08-08T13:54:20Z</time>
      </trkpt>
      <trkpt lat="48.58755" lon="7.75513">
        <ele>144.2</ele>
        <time>2019-08-08T13:54:21Z</time>
      </trkpt>
      <trkpt lat="48.58758" lon="7.75513">
        <ele>144.3</ele>
        <time>2019-08-08T13:54:22Z</time>
      </trkpt>
      <trkpt lat="48.58761" lon="7.75511">
        <ele>144.3</ele>
        <time>2019-08-08T13:54:23Z</time>
      </trkpt>
      <trkpt lat="48.58763" lon="7.75509">
        <ele>144.4</ele>
        <time>2019-08-08T13:54:24Z</time>
      </trkpt>
      <trkpt lat="48.58766" lon="7.75507">
        <ele>144.5</ele>
        <time>2019-08-08T13:54:25Z</time>
      </trkpt>
      <trkpt lat="48.58769" lon="7.75503">
        <ele>144.6</ele>
        <time>2019-08-08T13:54:27Z</time>
      </trkpt>
      <trkpt lat="48.58772" lon="7.75499">
        <ele>144.7</ele>
        <time>2019-08-08T13:54:28Z</time>
      </trkpt>
      <trkpt lat="48.58774" lon="7.75496">
        <ele>144.7</ele>
        <time>2019-08-08T13:54:29Z</time>
      </trkpt>
      <trkpt lat="48.58776" lon="7.75492">
        <ele>144.7</ele>
        <time>2019-08-08T13:54:30Z</time>
      </trkpt>
      <trkpt lat="48.58778" lon="7.75488">
        <ele>144.7</ele>
        <time>2019-08-08T13:54:31Z</time>
      </trkpt>
      <trkpt lat="48.58779" lon="7.75484">
        <ele>144.7</ele>
        <time>2019-08-08T13:54:32Z</time>
      </trkpt>
      <trkpt lat="48.58781" lon="7.75477">
        <ele>144.7</ele>
        <time>2019-08-08T13:54:34Z</time>
      </trkpt>
      <trkpt lat="48.58783" lon="7.75472">
        <ele>144.7</ele>
        <time>2019-08-08T13:54:36Z</time>
      </trkpt>
      <trkpt lat="48.58785" lon="7.75468">
        <ele>144.7</ele>
        <time>2019-08-08T13:54:38Z</time>
      </trkpt>
      <trkpt lat="48.58788" lon="7.75462">
        <ele>144.7</ele>
        <time>2019-08-08T13:54:40Z</time>
      </trkpt>
      <trkpt lat="48.5879" lon="7.75458">
        <ele>144.8</ele>
        <time>2019-08-08T13:54:42Z</time>
      </trkpt>
      <trkpt lat="48.58786" lon="7.75453">
        <ele>144.7</ele>
        <time>2019-08-08T13:54:46Z</time>
      </trkpt>
      <trkpt lat="48.58787" lon="7.75449">
        <ele>144.7</ele>
        <time>2019-08-08T13:54:49Z</time>
      </trkpt>
      <trkpt lat="48.5879" lon="7.7545">
        <ele>144.7</ele>
        <time>2019-08-08T13:55:00Z</time>
      </trkpt>
      <trkpt lat="48.58794" lon="7.75456">
        <ele>144.7</ele>
        <time>2019-08-08T13:55:30Z</time>
      </trkpt>
      <trkpt lat="48.58796" lon="7.7546">
        <ele>144.7</ele>
        <time>2019-08-08T13:55:38Z</time>
      </trkpt>
      <trkpt lat="48.58794" lon="7.75456">
        <ele>144.7</ele>
        <time>2019-08-08T13:55:45Z</time>
      </trkpt>
      <trkpt lat="48.58793" lon="7.75452">
        <ele>144.7</ele>
        <time>2019-08-08T13:55:47Z</time>
      </trkpt>
      <trkpt lat="48.58794" lon="7.75447">
        <ele>144.7</ele>
        <time>2019-08-08T13:55:50Z</time>
      </trkpt>
      <trkpt lat="48.58795" lon="7.75441">
        <ele>144.7</ele>
        <time>2019-08-08T13:55:53Z</time>
      </trkpt>
      <trkpt lat="48.58797" lon="7.75435">
        <ele>144.7</ele>
        <time>2019-08-08T13:55:55Z</time>
      </trkpt>
      <trkpt lat="48.58798" lon="7.75428">
        <ele>144.7</ele>
        <time>2019-08-08T13:55:57Z</time>
      </trkpt>
      <trkpt lat="48.58799" lon="7.75424">
        <ele>144.6</ele>
        <time>2019-08-08T13:55:59Z</time>
      </trkpt>
      <trkpt lat="48.588" lon="7.75417">
        <ele>144.6</ele>
        <time>2019-08-08T13:56:01Z</time>
      </trkpt>
      <trkpt lat="48.58801" lon="7.75413">
        <ele>144.6</ele>
        <time>2019-08-08T13:56:02Z</time>
      </trkpt>
      <trkpt lat="48.58802" lon="7.75408">
        <ele>144.7</ele>
        <time>2019-08-08T13:56:03Z</time>
      </trkpt>
      <trkpt lat="48.58803" lon="7.75401">
        <ele>144.7</ele>
        <time>2019-08-08T13:56:04Z</time>
      </trkpt>
      <trkpt lat="48.58803" lon="7.75396">
        <ele>144.7</ele>
        <time>2019-08-08T13:56:05Z</time>
      </trkpt>
      <trkpt lat="48.58804" lon="7.75389">
        <ele>144.7</ele>
        <time>2019-08-08T13:56:06Z</time>
      </trkpt>
      <trkpt lat="48.58804" lon="7.75384">
        <ele>144.7</ele>
        <time>2019-08-08T13:56:07Z</time>
      </trkpt>
      <trkpt lat="48.58804" lon="7.75378">
        <ele>144.6</ele>
        <time>2019-08-08T13:56:08Z</time>
      </trkpt>
      <trkpt lat="48.58805" lon="7.75373">
        <ele>144.6</ele>
        <time>2019-08-08T13:56:10Z</time>
      </trkpt>
      <trkpt lat="48.58806" lon="7.75369">
        <ele>144.6</ele>
        <time>2019-08-08T13:56:11Z</time>
      </trkpt>
      <trkpt lat="48.58807" lon="7.75361">
        <ele>144.5</ele>
        <time>2019-08-08T13:56:13Z</time>
      </trkpt>
      <trkpt lat="48.58808" lon="7.75354">
        <ele>144.5</ele>
        <time>2019-08-08T13:56:15Z</time>
      </trkpt>
      <trkpt lat="48.58809" lon="7.7535">
        <ele>144.5</ele>
        <time>2019-08-08T13:56:17Z</time>
      </trkpt>
      <trkpt lat="48.58805" lon="7.75344">
        <ele>144.5</ele>
        <time>2019-08-08T13:56:19Z</time>
      </trkpt>
      <trkpt lat="48.58803" lon="7.75341">
        <ele>144.4</ele>
        <time>2019-08-08T13:56:20Z</time>
      </trkpt>
      <trkpt lat="48.58799" lon="7.75337">
        <ele>144.4</ele>
        <time>2019-08-08T13:56:22Z</time>
      </trkpt>
      <trkpt lat="48.58794" lon="7.75332">
        <ele>144.4</ele>
        <time>2019-08-08T13:56:24Z</time>
      </trkpt>
      <trkpt lat="48.58792" lon="7.75329">
        <ele>144.7</ele>
        <time>2019-08-08T13:56:25Z</time>
      </trkpt>
      <trkpt lat="48.58789" lon="7.75322">
        <ele>144.7</ele>
        <time>2019-08-08T13:56:26Z</time>
      </trkpt>
      <trkpt lat="48.58786" lon="7.75317">
        <ele>144.7</ele>
        <time>2019-08-08T13:56:27Z</time>
      </trkpt>
      <trkpt lat="48.58783" lon="7.75312">
        <ele>144.7</ele>
        <time>2019-08-08T13:56:28Z</time>
      </trkpt>
      <trkpt lat="48.5878" lon="7.75308">
        <ele>145</ele>
        <time>2019-08-08T13:56:29Z</time>
      </trkpt>
      <trkpt lat="48.58775" lon="7.75301">
        <ele>145.1</ele>
        <time>2019-08-08T13:56:30Z</time>
      </trkpt>
      <trkpt lat="48.5877" lon="7.75295">
        <ele>145.2</ele>
        <time>2019-08-08T13:56:31Z</time>
      </trkpt>
      <trkpt lat="48.58765" lon="7.75292">
        <ele>145.3</ele>
        <time>2019-08-08T13:56:32Z</time>
      </trkpt>
      <trkpt lat="48.58762" lon="7.75289">
        <ele>145.4</ele>
        <time>2019-08-08T13:56:33Z</time>
      </trkpt>
      <trkpt lat="48.58758" lon="7.75284">
        <ele>145.2</ele>
        <time>2019-08-08T13:56:34Z</time>
      </trkpt>
      <trkpt lat="48.58755" lon="7.75281">
        <ele>145</ele>
        <time>2019-08-08T13:56:35Z</time>
      </trkpt>
      <trkpt lat="48.58752" lon="7.75278">
        <ele>144.9</ele>
        <time>2019-08-08T13:56:36Z</time>
      </trkpt>
      <trkpt lat="48.58749" lon="7.75277">
        <ele>144.8</ele>
        <time>2019-08-08T13:56:37Z</time>
      </trkpt>
      <trkpt lat="48.58745" lon="7.75276">
        <ele>144.5</ele>
        <time>2019-08-08T13:56:38Z</time>
      </trkpt>
      <trkpt lat="48.5874" lon="7.75273">
        <ele>144.2</ele>
        <time>2019-08-08T13:56:40Z</time>
      </trkpt>
      <trkpt lat="48.58736" lon="7.75271">
        <ele>143.9</ele>
        <time>2019-08-08T13:56:42Z</time>
      </trkpt>
      <trkpt lat="48.58732" lon="7.75269">
        <ele>143.6</ele>
        <time>2019-08-08T13:56:44Z</time>
      </trkpt>
      <trkpt lat="48.58729" lon="7.75269">
        <ele>143.4</ele>
        <time>2019-08-08T13:56:45Z</time>
      </trkpt>
      <trkpt lat="48.58726" lon="7.75268">
        <ele>143.2</ele>
        <time>2019-08-08T13:56:46Z</time>
      </trkpt>
      <trkpt lat="48.58722" lon="7.75272">
        <ele>142.9</ele>
        <time>2019-08-08T13:56:47Z</time>
      </trkpt>
      <trkpt lat="48.5872" lon="7.75276">
        <ele>142.2</ele>
        <time>2019-08-08T13:56:48Z</time>
      </trkpt>
      <trkpt lat="48.58717" lon="7.75279">
        <ele>142.1</ele>
        <time>2019-08-08T13:56:49Z</time>
      </trkpt>
      <trkpt lat="48.58715" lon="7.75281">
        <ele>142</ele>
        <time>2019-08-08T13:56:51Z</time>
      </trkpt>
      <trkpt lat="48.5871" lon="7.75284">
        <ele>141.9</ele>
        <time>2019-08-08T13:56:53Z</time>
      </trkpt>
      <trkpt lat="48.58708" lon="7.75287">
        <ele>141.5</ele>
        <time>2019-08-08T13:56:54Z</time>
      </trkpt>
      <trkpt lat="48.58704" lon="7.75288">
        <ele>141.4</ele>
        <time>2019-08-08T13:56:55Z</time>
      </trkpt>
      <trkpt lat="48.587" lon="7.75289">
        <ele>141.3</ele>
        <time>2019-08-08T13:56:56Z</time>
      </trkpt>
      <trkpt lat="48.58695" lon="7.7529">
        <ele>141.1</ele>
        <time>2019-08-08T13:56:57Z</time>
      </trkpt>
      <trkpt lat="48.5869" lon="7.75292">
        <ele>141</ele>
        <time>2019-08-08T13:56:58Z</time>
      </trkpt>
      <trkpt lat="48.58686" lon="7.75293">
        <ele>140.9</ele>
        <time>2019-08-08T13:56:59Z</time>
      </trkpt>
      <trkpt lat="48.58683" lon="7.75294">
        <ele>140.8</ele>
        <time>2019-08-08T13:57:00Z</time>
      </trkpt>
      <trkpt lat="48.58679" lon="7.75291">
        <ele>138.4</ele>
        <time>2019-08-08T13:57:02Z</time>
      </trkpt>
      <trkpt lat="48.58678" lon="7.75299">
        <ele>138.4</ele>
        <time>2019-08-08T13:57:06Z</time>
      </trkpt>
      <trkpt lat="48.58677" lon="7.75294">
        <ele>138.4</ele>
        <time>2019-08-08T13:57:09Z</time>
      </trkpt>
      <trkpt lat="48.58676" lon="7.75289">
        <ele>138.4</ele>
        <time>2019-08-08T13:57:14Z</time>
      </trkpt>
      <trkpt lat="48.58672" lon="7.7529">
        <ele>138.4</ele>
        <time>2019-08-08T13:57:15Z</time>
      </trkpt>
      <trkpt lat="48.58669" lon="7.75292">
        <ele>138.4</ele>
        <time>2019-08-08T13:57:16Z</time>
      </trkpt>
      <trkpt lat="48.58666" lon="7.75294">
        <ele>138.4</ele>
        <time>2019-08-08T13:57:17Z</time>
      </trkpt>
      <trkpt lat="48.58663" lon="7.75296">
        <ele>136.6</ele>
        <time>2019-08-08T13:57:18Z</time>
      </trkpt>
      <trkpt lat="48.58658" lon="7.75295">
        <ele>136.6</ele>
        <time>2019-08-08T13:57:20Z</time>
      </trkpt>
      <trkpt lat="48.58656" lon="7.75292">
        <ele>136.6</ele>
        <time>2019-08-08T13:57:21Z</time>
      </trkpt>
      <trkpt lat="48.58654" lon="7.75287">
        <ele>135.4</ele>
        <time>2019-08-08T13:57:22Z</time>
      </trkpt>
      <trkpt lat="48.58652" lon="7.75284">
        <ele>135.4</ele>
        <time>2019-08-08T13:57:23Z</time>
      </trkpt>
      <trkpt lat="48.58648" lon="7.75278">
        <ele>135.5</ele>
        <time>2019-08-08T13:57:25Z</time>
      </trkpt>
      <trkpt lat="48.58647" lon="7.75274">
        <ele>135.5</ele>
        <time>2019-08-08T13:57:26Z</time>
      </trkpt>
      <trkpt lat="48.58644" lon="7.7527">
        <ele>135.6</ele>
        <time>2019-08-08T13:57:27Z</time>
      </trkpt>
      <trkpt lat="48.58642" lon="7.75264">
        <ele>135.6</ele>
        <time>2019-08-08T13:57:29Z</time>
      </trkpt>
      <trkpt lat="48.5864" lon="7.75257">
        <ele>135.6</ele>
        <time>2019-08-08T13:57:31Z</time>
      </trkpt>
      <trkpt lat="48.58639" lon="7.75253">
        <ele>135.6</ele>
        <time>2019-08-08T13:57:32Z</time>
      </trkpt>
      <trkpt lat="48.58639" lon="7.75247">
        <ele>135.7</ele>
        <time>2019-08-08T13:57:33Z</time>
      </trkpt>
      <trkpt lat="48.58639" lon="7.75243">
        <ele>135.8</ele>
        <time>2019-08-08T13:57:34Z</time>
      </trkpt>
      <trkpt lat="48.58637" lon="7.75237">
        <ele>135.9</ele>
        <time>2019-08-08T13:57:36Z</time>
      </trkpt>
      <trkpt lat="48.58635" lon="7.75232">
        <ele>136.1</ele>
        <time>2019-08-08T13:57:38Z</time>
      </trkpt>
      <trkpt lat="48.58632" lon="7.75229">
        <ele>136.2</ele>
        <time>2019-08-08T13:57:40Z</time>
      </trkpt>
      <trkpt lat="48.5863" lon="7.75225">
        <ele>136.3</ele>
        <time>2019-08-08T13:57:42Z</time>
      </trkpt>
      <trkpt lat="48.58629" lon="7.75221">
        <ele>136.4</ele>
        <time>2019-08-08T13:57:43Z</time>
      </trkpt>
      <trkpt lat="48.58624" lon="7.75216">
        <ele>136.6</ele>
        <time>2019-08-08T13:57:45Z</time>
      </trkpt>
      <trkpt lat="48.58623" lon="7.75212">
        <ele>136.8</ele>
        <time>2019-08-08T13:57:46Z</time>
      </trkpt>
      <trkpt lat="48.58621" lon="7.75206">
        <ele>136.9</ele>
        <time>2019-08-08T13:57:47Z</time>
      </trkpt>
      <trkpt lat="48.58619" lon="7.75201">
        <ele>137.1</ele>
        <time>2019-08-08T13:57:48Z</time>
      </trkpt>
      <trkpt lat="48.58617" lon="7.75197">
        <ele>137.2</ele>
        <time>2019-08-08T13:57:49Z</time>
      </trkpt>
      <trkpt lat="48.58614" lon="7.75192">
        <ele>137.4</ele>
        <time>2019-08-08T13:57:50Z</time>
      </trkpt>
      <trkpt lat="48.58611" lon="7.75186">
        <ele>137.6</ele>
        <time>2019-08-08T13:57:51Z</time>
      </trkpt>
      <trkpt lat="48.58608" lon="7.75182">
        <ele>137.7</ele>
        <time>2019-08-08T13:57:52Z</time>
      </trkpt>
      <trkpt lat="48.58605" lon="7.75177">
        <ele>137.9</ele>
        <time>2019-08-08T13:57:53Z</time>
      </trkpt>
      <trkpt lat="48.58603" lon="7.75173">
        <ele>138</ele>
        <time>2019-08-08T13:57:54Z</time>
      </trkpt>
      <trkpt lat="48.58601" lon="7.75168">
        <ele>138.1</ele>
        <time>2019-08-08T13:57:55Z</time>
      </trkpt>
      <trkpt lat="48.58599" lon="7.75162">
        <ele>138.3</ele>
        <time>2019-08-08T13:57:56Z</time>
      </trkpt>
      <trkpt lat="48.58597" lon="7.75157">
        <ele>138.5</ele>
        <time>2019-08-08T13:57:57Z</time>
      </trkpt>
      <trkpt lat="48.58594" lon="7.75153">
        <ele>138.6</ele>
        <time>2019-08-08T13:57:58Z</time>
      </trkpt>
      <trkpt lat="48.58591" lon="7.75149">
        <ele>138.8</ele>
        <time>2019-08-08T13:57:59Z</time>
      </trkpt>
      <trkpt lat="48.58589" lon="7.75147">
        <ele>138.9</ele>
        <time>2019-08-08T13:58:00Z</time>
      </trkpt>
      <trkpt lat="48.58587" lon="7.75143">
        <ele>139</ele>
        <time>2019-08-08T13:58:01Z</time>
      </trkpt>
      <trkpt lat="48.58585" lon="7.7514">
        <ele>139.2</ele>
        <time>2019-08-08T13:58:02Z</time>
      </trkpt>
      <trkpt lat="48.58582" lon="7.75138">
        <ele>139.3</ele>
        <time>2019-08-08T13:58:03Z</time>
      </trkpt>
      <trkpt lat="48.5858" lon="7.75135">
        <ele>139.4</ele>
        <time>2019-08-08T13:58:04Z</time>
      </trkpt>
      <trkpt lat="48.58577" lon="7.75133">
        <ele>139.6</ele>
        <time>2019-08-08T13:58:05Z</time>
      </trkpt>
      <trkpt lat="48.58575" lon="7.75129">
        <ele>139.7</ele>
        <time>2019-08-08T13:58:06Z</time>
      </trkpt>
      <trkpt lat="48.58573" lon="7.75126">
        <ele>139.9</ele>
        <time>2019-08-08T13:58:07Z</time>
      </trkpt>
      <trkpt lat="48.58572" lon="7.75122">
        <ele>140.1</ele>
        <time>2019-08-08T13:58:08Z</time>
      </trkpt>
      <trkpt lat="48.5857" lon="7.75118">
        <ele>140.3</ele>
        <time>2019-08-08T13:58:09Z</time>
      </trkpt>
      <trkpt lat="48.58568" lon="7.75114">
        <ele>140.5</ele>
        <time>2019-08-08T13:58:10Z</time>
      </trkpt>
      <trkpt lat="48.58567" lon="7.75111">
        <ele>140.6</ele>
        <time>2019-08-08T13:58:11Z</time>
      </trkpt>
      <trkpt lat="48.58565" lon="7.75107">
        <ele>140.8</ele>
        <time>2019-08-08T13:58:12Z</time>
      </trkpt>
      <trkpt lat="48.58562" lon="7.75105">
        <ele>141</ele>
        <time>2019-08-08T13:58:13Z</time>
      </trkpt>
      <trkpt lat="48.58561" lon="7.75101">
        <ele>141.2</ele>
        <time>2019-08-08T13:58:14Z</time>
      </trkpt>
      <trkpt lat="48.5856" lon="7.75096">
        <ele>141.4</ele>
        <time>2019-08-08T13:58:15Z</time>
      </trkpt>
      <trkpt lat="48.58561" lon="7.75084">
        <ele>141.8</ele>
        <time>2019-08-08T13:58:17Z</time>
      </trkpt>
      <trkpt lat="48.58553" lon="7.7508">
        <ele>142.1</ele>
        <time>2019-08-08T13:58:31Z</time>
      </trkpt>
      <trkpt lat="48.5855" lon="7.75082">
        <ele>142.8</ele>
        <time>2019-08-08T13:58:32Z</time>
      </trkpt>
      <trkpt lat="48.58548" lon="7.75083">
        <ele>142.8</ele>
        <time>2019-08-08T13:58:33Z</time>
      </trkpt>
      <trkpt lat="48.58541" lon="7.75087">
        <ele>143</ele>
        <time>2019-08-08T13:58:34Z</time>
      </trkpt>
      <trkpt lat="48.58536" lon="7.75088">
        <ele>143.1</ele>
        <time>2019-08-08T13:58:35Z</time>
      </trkpt>
      <trkpt lat="48.58531" lon="7.75089">
        <ele>143.4</ele>
        <time>2019-08-08T13:58:36Z</time>
      </trkpt>
      <trkpt lat="48.58527" lon="7.75091">
        <ele>143.5</ele>
        <time>2019-08-08T13:58:37Z</time>
      </trkpt>
      <trkpt lat="48.58522" lon="7.75092">
        <ele>143.7</ele>
        <time>2019-08-08T13:58:38Z</time>
      </trkpt>
      <trkpt lat="48.58518" lon="7.75094">
        <ele>143.9</ele>
        <time>2019-08-08T13:58:39Z</time>
      </trkpt>
      <trkpt lat="48.58514" lon="7.75098">
        <ele>144.2</ele>
        <time>2019-08-08T13:58:40Z</time>
      </trkpt>
      <trkpt lat="48.5851" lon="7.75101">
        <ele>144.3</ele>
        <time>2019-08-08T13:58:41Z</time>
      </trkpt>
      <trkpt lat="48.58507" lon="7.75103">
        <ele>144.5</ele>
        <time>2019-08-08T13:58:42Z</time>
      </trkpt>
      <trkpt lat="48.58504" lon="7.75105">
        <ele>144.5</ele>
        <time>2019-08-08T13:58:43Z</time>
      </trkpt>
      <trkpt lat="48.58502" lon="7.75107">
        <ele>144.6</ele>
        <time>2019-08-08T13:58:44Z</time>
      </trkpt>
      <trkpt lat="48.58499" lon="7.7511">
        <ele>144.7</ele>
        <time>2019-08-08T13:58:45Z</time>
      </trkpt>
      <trkpt lat="48.58496" lon="7.75112">
        <ele>144.8</ele>
        <time>2019-08-08T13:58:46Z</time>
      </trkpt>
      <trkpt lat="48.58494" lon="7.75115">
        <ele>144.9</ele>
        <time>2019-08-08T13:58:47Z</time>
      </trkpt>
      <trkpt lat="48.58491" lon="7.75117">
        <ele>145</ele>
        <time>2019-08-08T13:58:48Z</time>
      </trkpt>
      <trkpt lat="48.58487" lon="7.7512">
        <ele>145.1</ele>
        <time>2019-08-08T13:58:49Z</time>
      </trkpt>
      <trkpt lat="48.58484" lon="7.75123">
        <ele>145.2</ele>
        <time>2019-08-08T13:58:50Z</time>
      </trkpt>
      <trkpt lat="48.58481" lon="7.75126">
        <ele>145.3</ele>
        <time>2019-08-08T13:58:51Z</time>
      </trkpt>
      <trkpt lat="48.58478" lon="7.75129">
        <ele>145.4</ele>
        <time>2019-08-08T13:58:52Z</time>
      </trkpt>
      <trkpt lat="48.58475" lon="7.75133">
        <ele>145.5</ele>
        <time>2019-08-08T13:58:53Z</time>
      </trkpt>
      <trkpt lat="48.58469" lon="7.75137">
        <ele>145.7</ele>
        <time>2019-08-08T13:58:54Z</time>
      </trkpt>
      <trkpt lat="48.58466" lon="7.75139">
        <ele>145.9</ele>
        <time>2019-08-08T13:58:55Z</time>
      </trkpt>
      <trkpt lat="48.58461" lon="7.75139">
        <ele>146</ele>
        <time>2019-08-08T13:58:56Z</time>
      </trkpt>
      <trkpt lat="48.58458" lon="7.75139">
        <ele>146.2</ele>
        <time>2019-08-08T13:58:58Z</time>
      </trkpt>
      <trkpt lat="48.58454" lon="7.75138">
        <ele>146.2</ele>
        <time>2019-08-08T13:59:00Z</time>
      </trkpt>
      <trkpt lat="48.5845" lon="7.75137">
        <ele>146.3</ele>
        <time>2019-08-08T13:59:02Z</time>
      </trkpt>
      <trkpt lat="48.58446" lon="7.75136">
        <ele>146.3</ele>
        <time>2019-08-08T13:59:04Z</time>
      </trkpt>
      <trkpt lat="48.58443" lon="7.75138">
        <ele>146.4</ele>
        <time>2019-08-08T13:59:07Z</time>
      </trkpt>
      <trkpt lat="48.58442" lon="7.75142">
        <ele>146.4</ele>
        <time>2019-08-08T13:59:09Z</time>
      </trkpt>
      <trkpt lat="48.58439" lon="7.75145">
        <ele>146.5</ele>
        <time>2019-08-08T13:59:11Z</time>
      </trkpt>
      <trkpt lat="48.58434" lon="7.75145">
        <ele>146.6</ele>
        <time>2019-08-08T13:59:13Z</time>
      </trkpt>
      <trkpt lat="48.58431" lon="7.75147">
        <ele>146.7</ele>
        <time>2019-08-08T13:59:14Z</time>
      </trkpt>
      <trkpt lat="48.58429" lon="7.75151">
        <ele>146.8</ele>
        <time>2019-08-08T13:59:15Z</time>
      </trkpt>
      <trkpt lat="48.58428" lon="7.75158">
        <ele>146.9</ele>
        <time>2019-08-08T13:59:16Z</time>
      </trkpt>
      <trkpt lat="48.58425" lon="7.75164">
        <ele>147</ele>
        <time>2019-08-08T13:59:17Z</time>
      </trkpt>
      <trkpt lat="48.58422" lon="7.75168">
        <ele>147.1</ele>
        <time>2019-08-08T13:59:18Z</time>
      </trkpt>
      <trkpt lat="48.5842" lon="7.75174">
        <ele>147.2</ele>
        <time>2019-08-08T13:59:19Z</time>
      </trkpt>
      <trkpt lat="48.58417" lon="7.7518">
        <ele>147.3</ele>
        <time>2019-08-08T13:59:20Z</time>
      </trkpt>
      <trkpt lat="48.58414" lon="7.75191">
        <ele>147.4</ele>
        <time>2019-08-08T13:59:21Z</time>
      </trkpt>
      <trkpt lat="48.58411" lon="7.75201">
        <ele>147.5</ele>
        <time>2019-08-08T13:59:22Z</time>
      </trkpt>
      <trkpt lat="48.58411" lon="7.75208">
        <ele>147.6</ele>
        <time>2019-08-08T13:59:23Z</time>
      </trkpt>
      <trkpt lat="48.5841" lon="7.75214">
        <ele>147.7</ele>
        <time>2019-08-08T13:59:24Z</time>
      </trkpt>
      <trkpt lat="48.58408" lon="7.75219">
        <ele>147.8</ele>
        <time>2019-08-08T13:59:25Z</time>
      </trkpt>
      <trkpt lat="48.58407" lon="7.75223">
        <ele>147.8</ele>
        <time>2019-08-08T13:59:26Z</time>
      </trkpt>
      <trkpt lat="48.58403" lon="7.75225">
        <ele>147.9</ele>
        <time>2019-08-08T13:59:28Z</time>
      </trkpt>
      <trkpt lat="48.58397" lon="7.7523">
        <ele>148.2</ele>
        <time>2019-08-08T13:59:31Z</time>
      </trkpt>
      <trkpt lat="48.58393" lon="7.75232">
        <ele>148.3</ele>
        <time>2019-08-08T13:59:33Z</time>
      </trkpt>
      <trkpt lat="48.58387" lon="7.75235">
        <ele>148.5</ele>
        <time>2019-08-08T13:59:35Z</time>
      </trkpt>
      <trkpt lat="48.58385" lon="7.75238">
        <ele>148.5</ele>
        <time>2019-08-08T13:59:36Z</time>
      </trkpt>
      <trkpt lat="48.58383" lon="7.75241">
        <ele>148.6</ele>
        <time>2019-08-08T13:59:37Z</time>
      </trkpt>
      <trkpt lat="48.5838" lon="7.75246">
        <ele>148.7</ele>
        <time>2019-08-08T13:59:38Z</time>
      </trkpt>
      <trkpt lat="48.58375" lon="7.75249">
        <ele>148.9</ele>
        <time>2019-08-08T13:59:39Z</time>
      </trkpt>
      <trkpt lat="48.58373" lon="7.75253">
        <ele>149</ele>
        <time>2019-08-08T13:59:40Z</time>
      </trkpt>
      <trkpt lat="48.58372" lon="7.75258">
        <ele>149.1</ele>
        <time>2019-08-08T13:59:42Z</time>
      </trkpt>
      <trkpt lat="48.5837" lon="7.75264">
        <ele>149.2</ele>
        <time>2019-08-08T13:59:47Z</time>
      </trkpt>
      <trkpt lat="48.58369" lon="7.75268">
        <ele>149.2</ele>
        <time>2019-08-08T13:59:48Z</time>
      </trkpt>
      <trkpt lat="48.5837" lon="7.75277">
        <ele>149.4</ele>
        <time>2019-08-08T13:59:54Z</time>
      </trkpt>
      <trkpt lat="48.58372" lon="7.75282">
        <ele>149.4</ele>
        <time>2019-08-08T13:59:56Z</time>
      </trkpt>
      <trkpt lat="48.58374" lon="7.75285">
        <ele>149.3</ele>
        <time>2019-08-08T13:59:58Z</time>
      </trkpt>
      <trkpt lat="48.58377" lon="7.7529">
        <ele>149.3</ele>
        <time>2019-08-08T14:00:00Z</time>
      </trkpt>
      <trkpt lat="48.5838" lon="7.75292">
        <ele>149.3</ele>
        <time>2019-08-08T14:00:01Z</time>
      </trkpt>
      <trkpt lat="48.58384" lon="7.75296">
        <ele>149.3</ele>
        <time>2019-08-08T14:00:03Z</time>
      </trkpt>
      <trkpt lat="48.58387" lon="7.75303">
        <ele>149.2</ele>
        <time>2019-08-08T14:00:05Z</time>
      </trkpt>
      <trkpt lat="48.58388" lon="7.75306">
        <ele>149.2</ele>
        <time>2019-08-08T14:00:06Z</time>
      </trkpt>
      <trkpt lat="48.5839" lon="7.7531">
        <ele>149.2</ele>
        <time>2019-08-08T14:00:07Z</time>
      </trkpt>
      <trkpt lat="48.58393" lon="7.75315">
        <ele>149.2</ele>
        <time>2019-08-08T14:00:10Z</time>
      </trkpt>
      <trkpt lat="48.58396" lon="7.75318">
        <ele>149.1</ele>
        <time>2019-08-08T14:00:11Z</time>
      </trkpt>
      <trkpt lat="48.58398" lon="7.75322">
        <ele>149.1</ele>
        <time>2019-08-08T14:00:12Z</time>
      </trkpt>
      <trkpt lat="48.58402" lon="7.75326">
        <ele>149.1</ele>
        <time>2019-08-08T14:00:13Z</time>
      </trkpt>
      <trkpt lat="48.58405" lon="7.75329">
        <ele>149.1</ele>
        <time>2019-08-08T14:00:14Z</time>
      </trkpt>
      <trkpt lat="48.58409" lon="7.75332">
        <ele>149.1</ele>
        <time>2019-08-08T14:00:16Z</time>
      </trkpt>
      <trkpt lat="48.58413" lon="7.75335">
        <ele>149.1</ele>
        <time>2019-08-08T14:00:18Z</time>
      </trkpt>
      <trkpt lat="48.58416" lon="7.75336">
        <ele>149.1</ele>
        <time>2019-08-08T14:00:19Z</time>
      </trkpt>
      <trkpt lat="48.5842" lon="7.75337">
        <ele>149.1</ele>
        <time>2019-08-08T14:00:20Z</time>
      </trkpt>
      <trkpt lat="48.58423" lon="7.75339">
        <ele>149.2</ele>
        <time>2019-08-08T14:00:21Z</time>
      </trkpt>
      <trkpt lat="48.58425" lon="7.75342">
        <ele>149.2</ele>
        <time>2019-08-08T14:00:22Z</time>
      </trkpt>
      <trkpt lat="48.58427" lon="7.75346">
        <ele>149.2</ele>
        <time>2019-08-08T14:00:23Z</time>
      </trkpt>
      <trkpt lat="48.58429" lon="7.75349">
        <ele>149.2</ele>
        <time>2019-08-08T14:00:24Z</time>
      </trkpt>
      <trkpt lat="48.58431" lon="7.75354">
        <ele>149.2</ele>
        <time>2019-08-08T14:00:25Z</time>
      </trkpt>
      <trkpt lat="48.58432" lon="7.75358">
        <ele>149</ele>
        <time>2019-08-08T14:00:26Z</time>
      </trkpt>
      <trkpt lat="48.58434" lon="7.75366">
        <ele>148.7</ele>
        <time>2019-08-08T14:00:27Z</time>
      </trkpt>
      <trkpt lat="48.58436" lon="7.75372">
        <ele>148.4</ele>
        <time>2019-08-08T14:00:28Z</time>
      </trkpt>
      <trkpt lat="48.58438" lon="7.75389">
        <ele>147.9</ele>
        <time>2019-08-08T14:00:29Z</time>
      </trkpt>
      <trkpt lat="48.58439" lon="7.75396">
        <ele>147.6</ele>
        <time>2019-08-08T14:00:30Z</time>
      </trkpt>
      <trkpt lat="48.58442" lon="7.754">
        <ele>147.4</ele>
        <time>2019-08-08T14:00:32Z</time>
      </trkpt>
      <trkpt lat="48.58439" lon="7.75398">
        <ele>147.6</ele>
        <time>2019-08-08T14:01:40Z</time>
      </trkpt>
      <trkpt lat="48.58445" lon="7.75396">
        <ele>147.3</ele>
        <time>2019-08-08T14:02:24Z</time>
      </trkpt>
      <trkpt lat="48.58445" lon="7.754">
        <ele>147.4</ele>
        <time>2019-08-08T14:02:38Z</time>
      </trkpt>
      <trkpt lat="48.58445" lon="7.75394">
        <ele>147.5</ele>
        <time>2019-08-08T14:03:02Z</time>
      </trkpt>
      <trkpt lat="48.58452" lon="7.75372">
        <ele>147.9</ele>
        <time>2019-08-08T14:08:30Z</time>
      </trkpt>
      <trkpt lat="48.5845" lon="7.75369">
        <ele>148</ele>
        <time>2019-08-08T14:08:32Z</time>
      </trkpt>
      <trkpt lat="48.58448" lon="7.75366">
        <ele>148</ele>
        <time>2019-08-08T14:08:34Z</time>
      </trkpt>
      <trkpt lat="48.58445" lon="7.75363">
        <ele>148.1</ele>
        <time>2019-08-08T14:08:36Z</time>
      </trkpt>
      <trkpt lat="48.58441" lon="7.7536">
        <ele>148.2</ele>
        <time>2019-08-08T14:08:39Z</time>
      </trkpt>
      <trkpt lat="48.58438" lon="7.75357">
        <ele>148.3</ele>
        <time>2019-08-08T14:08:41Z</time>
      </trkpt>
      <trkpt lat="48.58435" lon="7.75355">
        <ele>148.4</ele>
        <time>2019-08-08T14:08:45Z</time>
      </trkpt>
      <trkpt lat="48.58433" lon="7.75358">
        <ele>148.5</ele>
        <time>2019-08-08T14:08:52Z</time>
      </trkpt>
      <trkpt lat="48.58428" lon="7.75358">
        <ele>148.6</ele>
        <time>2019-08-08T14:09:12Z</time>
      </trkpt>
      <trkpt lat="48.58432" lon="7.75354">
        <ele>148.8</ele>
        <time>2019-08-08T14:25:19Z</time>
      </trkpt>
      <trkpt lat="48.58432" lon="7.7535">
        <ele>148.8</ele>
        <time>2019-08-08T14:25:23Z</time>
      </trkpt>
      <trkpt lat="48.58433" lon="7.75354">
        <ele>148.9</ele>
        <time>2019-08-08T14:25:32Z</time>
      </trkpt>
      <trkpt lat="48.58433" lon="7.75348">
        <ele>149.1</ele>
        <time>2019-08-08T14:36:21Z</time>
      </trkpt>
      <trkpt lat="48.5843" lon="7.75347">
        <ele>149.1</ele>
        <time>2019-08-08T14:36:25Z</time>
      </trkpt>
      <trkpt lat="48.58431" lon="7.75351">
        <ele>149.2</ele>
        <time>2019-08-08T14:36:29Z</time>
      </trkpt>
      <trkpt lat="48.58423" lon="7.7534">
        <ele>149.2</ele>
        <time>2019-08-08T14:39:24Z</time>
      </trkpt>
      <trkpt lat="48.5842" lon="7.75339">
        <ele>149.1</ele>
        <time>2019-08-08T14:39:26Z</time>
      </trkpt>
      <trkpt lat="48.58418" lon="7.75334">
        <ele>149.1</ele>
        <time>2019-08-08T14:39:28Z</time>
      </trkpt>
      <trkpt lat="48.58416" lon="7.75332">
        <ele>149.1</ele>
        <time>2019-08-08T14:39:29Z</time>
      </trkpt>
      <trkpt lat="48.58414" lon="7.75329">
        <ele>149.1</ele>
        <time>2019-08-08T14:39:30Z</time>
      </trkpt>
      <trkpt lat="48.58411" lon="7.75327">
        <ele>149.1</ele>
        <time>2019-08-08T14:39:32Z</time>
      </trkpt>
      <trkpt lat="48.58407" lon="7.75326">
        <ele>149.1</ele>
        <time>2019-08-08T14:39:34Z</time>
      </trkpt>
      <trkpt lat="48.58404" lon="7.75324">
        <ele>149.1</ele>
        <time>2019-08-08T14:39:36Z</time>
      </trkpt>
      <trkpt lat="48.58402" lon="7.75321">
        <ele>149.1</ele>
        <time>2019-08-08T14:39:38Z</time>
      </trkpt>
      <trkpt lat="48.58399" lon="7.75317">
        <ele>149.1</ele>
        <time>2019-08-08T14:39:41Z</time>
      </trkpt>
      <trkpt lat="48.58401" lon="7.75312">
        <ele>149.1</ele>
        <time>2019-08-08T14:39:43Z</time>
      </trkpt>
      <trkpt lat="48.584" lon="7.75307">
        <ele>149.2</ele>
        <time>2019-08-08T14:39:44Z</time>
      </trkpt>
      <trkpt lat="48.58397" lon="7.753">
        <ele>149.2</ele>
        <time>2019-08-08T14:39:47Z</time>
      </trkpt>
      <trkpt lat="48.58396" lon="7.75296">
        <ele>149.2</ele>
        <time>2019-08-08T14:39:48Z</time>
      </trkpt>
      <trkpt lat="48.58394" lon="7.75291">
        <ele>149.3</ele>
        <time>2019-08-08T14:39:50Z</time>
      </trkpt>
      <trkpt lat="48.58391" lon="7.75286">
        <ele>149.3</ele>
        <time>2019-08-08T14:39:52Z</time>
      </trkpt>
      <trkpt lat="48.58388" lon="7.75281">
        <ele>149.3</ele>
        <time>2019-08-08T14:39:54Z</time>
      </trkpt>
      <trkpt lat="48.58385" lon="7.75276">
        <ele>149.4</ele>
        <time>2019-08-08T14:39:56Z</time>
      </trkpt>
      <trkpt lat="48.58383" lon="7.7527">
        <ele>149.4</ele>
        <time>2019-08-08T14:39:58Z</time>
      </trkpt>
      <trkpt lat="48.5838" lon="7.75271">
        <ele>149.4</ele>
        <time>2019-08-08T14:40:03Z</time>
      </trkpt>
      <trkpt lat="48.58377" lon="7.75273">
        <ele>149.5</ele>
        <time>2019-08-08T14:40:07Z</time>
      </trkpt>
      <trkpt lat="48.58374" lon="7.75274">
        <ele>149.5</ele>
        <time>2019-08-08T14:40:14Z</time>
      </trkpt>
      <trkpt lat="48.58376" lon="7.75271">
        <ele>149.5</ele>
        <time>2019-08-08T14:40:19Z</time>
      </trkpt>
      <trkpt lat="48.58375" lon="7.75267">
        <ele>149.6</ele>
        <time>2019-08-08T14:40:26Z</time>
      </trkpt>
      <trkpt lat="48.58378" lon="7.75263">
        <ele>149.6</ele>
        <time>2019-08-08T14:40:38Z</time>
      </trkpt>
      <trkpt lat="48.58373" lon="7.75265">
        <ele>149.6</ele>
        <time>2019-08-08T14:42:08Z</time>
      </trkpt>
      <trkpt lat="48.58375" lon="7.75264">
        <ele>149.7</ele>
        <time>2019-08-08T14:42:17Z</time>
      </trkpt>
      <trkpt lat="48.58372" lon="7.75262">
        <ele>149.7</ele>
        <time>2019-08-08T14:42:48Z</time>
      </trkpt>
      <trkpt lat="48.58367" lon="7.75255">
        <ele>149.8</ele>
        <time>2019-08-08T14:42:50Z</time>
      </trkpt>
      <trkpt lat="48.58364" lon="7.7525">
        <ele>149.8</ele>
        <time>2019-08-08T14:42:51Z</time>
      </trkpt>
      <trkpt lat="48.58361" lon="7.75247">
        <ele>149.9</ele>
        <time>2019-08-08T14:42:52Z</time>
      </trkpt>
      <trkpt lat="48.58359" lon="7.75242">
        <ele>149.9</ele>
        <time>2019-08-08T14:42:54Z</time>
      </trkpt>
      <trkpt lat="48.58358" lon="7.75238">
        <ele>149.9</ele>
        <time>2019-08-08T14:42:56Z</time>
      </trkpt>
      <trkpt lat="48.58355" lon="7.75236">
        <ele>149.9</ele>
        <time>2019-08-08T14:42:58Z</time>
      </trkpt>
      <trkpt lat="48.58352" lon="7.75231">
        <ele>149.9</ele>
        <time>2019-08-08T14:43:00Z</time>
      </trkpt>
      <trkpt lat="48.58349" lon="7.75228">
        <ele>149.9</ele>
        <time>2019-08-08T14:43:02Z</time>
      </trkpt>
      <trkpt lat="48.58347" lon="7.75222">
        <ele>150</ele>
        <time>2019-08-08T14:43:04Z</time>
      </trkpt>
      <trkpt lat="48.58344" lon="7.75217">
        <ele>150.1</ele>
        <time>2019-08-08T14:43:06Z</time>
      </trkpt>
      <trkpt lat="48.58342" lon="7.75214">
        <ele>150.2</ele>
        <time>2019-08-08T14:43:07Z</time>
      </trkpt>
      <trkpt lat="48.58339" lon="7.7521">
        <ele>150.3</ele>
        <time>2019-08-08T14:43:08Z</time>
      </trkpt>
      <trkpt lat="48.58337" lon="7.75205">
        <ele>150.4</ele>
        <time>2019-08-08T14:43:10Z</time>
      </trkpt>
      <trkpt lat="48.58336" lon="7.752">
        <ele>150.4</ele>
        <time>2019-08-08T14:43:12Z</time>
      </trkpt>
      <trkpt lat="48.58334" lon="7.75196">
        <ele>150.5</ele>
        <time>2019-08-08T14:43:14Z</time>
      </trkpt>
      <trkpt lat="48.58333" lon="7.75192">
        <ele>150.5</ele>
        <time>2019-08-08T14:43:16Z</time>
      </trkpt>
      <trkpt lat="48.58332" lon="7.75187">
        <ele>150.5</ele>
        <time>2019-08-08T14:43:18Z</time>
      </trkpt>
      <trkpt lat="48.58331" lon="7.75183">
        <ele>150.5</ele>
        <time>2019-08-08T14:43:23Z</time>
      </trkpt>
      <trkpt lat="48.5833" lon="7.75179">
        <ele>150.5</ele>
        <time>2019-08-08T14:43:25Z</time>
      </trkpt>
      <trkpt lat="48.58329" lon="7.75175">
        <ele>150.6</ele>
        <time>2019-08-08T14:43:27Z</time>
      </trkpt>
      <trkpt lat="48.58326" lon="7.75169">
        <ele>150.6</ele>
        <time>2019-08-08T14:43:29Z</time>
      </trkpt>
      <trkpt lat="48.58325" lon="7.75161">
        <ele>150.6</ele>
        <time>2019-08-08T14:43:31Z</time>
      </trkpt>
      <trkpt lat="48.58323" lon="7.75158">
        <ele>150.6</ele>
        <time>2019-08-08T14:43:33Z</time>
      </trkpt>
      <trkpt lat="48.58319" lon="7.7515">
        <ele>150.6</ele>
        <time>2019-08-08T14:43:35Z</time>
      </trkpt>
      <trkpt lat="48.58318" lon="7.75147">
        <ele>150.6</ele>
        <time>2019-08-08T14:43:36Z</time>
      </trkpt>
      <trkpt lat="48.58316" lon="7.75142">
        <ele>150.5</ele>
        <time>2019-08-08T14:43:37Z</time>
      </trkpt>
      <trkpt lat="48.58314" lon="7.75138">
        <ele>150.5</ele>
        <time>2019-08-08T14:43:38Z</time>
      </trkpt>
      <trkpt lat="48.58311" lon="7.75132">
        <ele>150.4</ele>
        <time>2019-08-08T14:43:40Z</time>
      </trkpt>
      <trkpt lat="48.58308" lon="7.75129">
        <ele>150.4</ele>
        <time>2019-08-08T14:43:42Z</time>
      </trkpt>
      <trkpt lat="48.58306" lon="7.75124">
        <ele>150.6</ele>
        <time>2019-08-08T14:43:45Z</time>
      </trkpt>
      <trkpt lat="48.58304" lon="7.75119">
        <ele>150.7</ele>
        <time>2019-08-08T14:43:47Z</time>
      </trkpt>
      <trkpt lat="48.58301" lon="7.75114">
        <ele>150.8</ele>
        <time>2019-08-08T14:43:49Z</time>
      </trkpt>
      <trkpt lat="48.58299" lon="7.75107">
        <ele>151</ele>
        <time>2019-08-08T14:43:52Z</time>
      </trkpt>
      <trkpt lat="48.58296" lon="7.75104">
        <ele>151.1</ele>
        <time>2019-08-08T14:43:54Z</time>
      </trkpt>
      <trkpt lat="48.58293" lon="7.75098">
        <ele>151.3</ele>
        <time>2019-08-08T14:43:56Z</time>
      </trkpt>
      <trkpt lat="48.58291" lon="7.75095">
        <ele>151.4</ele>
        <time>2019-08-08T14:43:58Z</time>
      </trkpt>
      <trkpt lat="48.58289" lon="7.75091">
        <ele>151.5</ele>
        <time>2019-08-08T14:44:01Z</time>
      </trkpt>
      <trkpt lat="48.58287" lon="7.75087">
        <ele>151.6</ele>
        <time>2019-08-08T14:44:04Z</time>
      </trkpt>
      <trkpt lat="48.58283" lon="7.75083">
        <ele>151.7</ele>
        <time>2019-08-08T14:44:06Z</time>
      </trkpt>
      <trkpt lat="48.5828" lon="7.7508">
        <ele>151.8</ele>
        <time>2019-08-08T14:44:08Z</time>
      </trkpt>
      <trkpt lat="48.58277" lon="7.75078">
        <ele>151.9</ele>
        <time>2019-08-08T14:44:11Z</time>
      </trkpt>
      <trkpt lat="48.58275" lon="7.75074">
        <ele>152</ele>
        <time>2019-08-08T14:44:14Z</time>
      </trkpt>
      <trkpt lat="48.58273" lon="7.75071">
        <ele>152.1</ele>
        <time>2019-08-08T14:44:15Z</time>
      </trkpt>
      <trkpt lat="48.5827" lon="7.75068">
        <ele>152.2</ele>
        <time>2019-08-08T14:44:16Z</time>
      </trkpt>
      <trkpt lat="48.58269" lon="7.75064">
        <ele>152.3</ele>
        <time>2019-08-08T14:44:17Z</time>
      </trkpt>
      <trkpt lat="48.58268" lon="7.75059">
        <ele>152.4</ele>
        <time>2019-08-08T14:44:18Z</time>
      </trkpt>
      <trkpt lat="48.58266" lon="7.75055">
        <ele>152.4</ele>
        <time>2019-08-08T14:44:19Z</time>
      </trkpt>
      <trkpt lat="48.58264" lon="7.75051">
        <ele>152.5</ele>
        <time>2019-08-08T14:44:21Z</time>
      </trkpt>
      <trkpt lat="48.5826" lon="7.75045">
        <ele>152.6</ele>
        <time>2019-08-08T14:44:23Z</time>
      </trkpt>
      <trkpt lat="48.58257" lon="7.7504">
        <ele>152.6</ele>
        <time>2019-08-08T14:44:25Z</time>
      </trkpt>
      <trkpt lat="48.58254" lon="7.75034">
        <ele>152.7</ele>
        <time>2019-08-08T14:44:27Z</time>
      </trkpt>
      <trkpt lat="48.58251" lon="7.75027">
        <ele>152.7</ele>
        <time>2019-08-08T14:44:29Z</time>
      </trkpt>
      <trkpt lat="48.58248" lon="7.75021">
        <ele>152.8</ele>
        <time>2019-08-08T14:44:31Z</time>
      </trkpt>
      <trkpt lat="48.58246" lon="7.75016">
        <ele>152.9</ele>
        <time>2019-08-08T14:44:33Z</time>
      </trkpt>
      <trkpt lat="48.58244" lon="7.7501">
        <ele>152.9</ele>
        <time>2019-08-08T14:44:35Z</time>
      </trkpt>
      <trkpt lat="48.58242" lon="7.75006">
        <ele>152.9</ele>
        <time>2019-08-08T14:44:36Z</time>
      </trkpt>
      <trkpt lat="48.58239" lon="7.75">
        <ele>153</ele>
        <time>2019-08-08T14:44:38Z</time>
      </trkpt>
      <trkpt lat="48.58238" lon="7.74993">
        <ele>153.1</ele>
        <time>2019-08-08T14:44:40Z</time>
      </trkpt>
      <trkpt lat="48.58237" lon="7.74989">
        <ele>153.2</ele>
        <time>2019-08-08T14:44:41Z</time>
      </trkpt>
      <trkpt lat="48.58234" lon="7.74983">
        <ele>153.3</ele>
        <time>2019-08-08T14:44:43Z</time>
      </trkpt>
      <trkpt lat="48.58231" lon="7.74979">
        <ele>153.5</ele>
        <time>2019-08-08T14:44:45Z</time>
      </trkpt>
      <trkpt lat="48.58229" lon="7.74976">
        <ele>153.5</ele>
        <time>2019-08-08T14:44:46Z</time>
      </trkpt>
      <trkpt lat="48.58227" lon="7.7497">
        <ele>153.6</ele>
        <time>2019-08-08T14:44:47Z</time>
      </trkpt>
      <trkpt lat="48.58226" lon="7.74966">
        <ele>153.7</ele>
        <time>2019-08-08T14:44:48Z</time>
      </trkpt>
      <trkpt lat="48.58224" lon="7.74961">
        <ele>153.9</ele>
        <time>2019-08-08T14:44:50Z</time>
      </trkpt>
      <trkpt lat="48.58221" lon="7.74957">
        <ele>154</ele>
        <time>2019-08-08T14:44:52Z</time>
      </trkpt>
      <trkpt lat="48.58219" lon="7.74953">
        <ele>154.1</ele>
        <time>2019-08-08T14:44:54Z</time>
      </trkpt>
      <trkpt lat="48.58217" lon="7.74944">
        <ele>154.2</ele>
        <time>2019-08-08T14:44:57Z</time>
      </trkpt>
      <trkpt lat="48.58216" lon="7.7494">
        <ele>154.3</ele>
        <time>2019-08-08T14:44:58Z</time>
      </trkpt>
      <trkpt lat="48.58213" lon="7.74935">
        <ele>154.4</ele>
        <time>2019-08-08T14:45:00Z</time>
      </trkpt>
      <trkpt lat="48.5821" lon="7.7493">
        <ele>154.5</ele>
        <time>2019-08-08T14:45:02Z</time>
      </trkpt>
      <trkpt lat="48.58208" lon="7.74927">
        <ele>154.5</ele>
        <time>2019-08-08T14:45:04Z</time>
      </trkpt>
      <trkpt lat="48.58206" lon="7.74923">
        <ele>154.4</ele>
        <time>2019-08-08T14:45:06Z</time>
      </trkpt>
      <trkpt lat="48.58204" lon="7.74919">
        <ele>154.3</ele>
        <time>2019-08-08T14:45:07Z</time>
      </trkpt>
      <trkpt lat="48.58201" lon="7.74914">
        <ele>154.2</ele>
        <time>2019-08-08T14:45:08Z</time>
      </trkpt>
      <trkpt lat="48.58199" lon="7.74909">
        <ele>154.2</ele>
        <time>2019-08-08T14:45:09Z</time>
      </trkpt>
      <trkpt lat="48.58191" lon="7.749">
        <ele>154</ele>
        <time>2019-08-08T14:45:10Z</time>
      </trkpt>
      <trkpt lat="48.58188" lon="7.74897">
        <ele>153.9</ele>
        <time>2019-08-08T14:45:11Z</time>
      </trkpt>
      <trkpt lat="48.58185" lon="7.74892">
        <ele>153.8</ele>
        <time>2019-08-08T14:45:13Z</time>
      </trkpt>
      <trkpt lat="48.58184" lon="7.74887">
        <ele>153.7</ele>
        <time>2019-08-08T14:45:15Z</time>
      </trkpt>
      <trkpt lat="48.58182" lon="7.74882">
        <ele>153.7</ele>
        <time>2019-08-08T14:45:17Z</time>
      </trkpt>
      <trkpt lat="48.58183" lon="7.74875">
        <ele>153.4</ele>
        <time>2019-08-08T14:45:19Z</time>
      </trkpt>
      <trkpt lat="48.58181" lon="7.7487">
        <ele>153.3</ele>
        <time>2019-08-08T14:45:21Z</time>
      </trkpt>
      <trkpt lat="48.58179" lon="7.74867">
        <ele>153.2</ele>
        <time>2019-08-08T14:45:24Z</time>
      </trkpt>
      <trkpt lat="48.58176" lon="7.74866">
        <ele>153.1</ele>
        <time>2019-08-08T14:45:28Z</time>
      </trkpt>
      <trkpt lat="48.58174" lon="7.74861">
        <ele>152.9</ele>
        <time>2019-08-08T14:45:31Z</time>
      </trkpt>
      <trkpt lat="48.58171" lon="7.74858">
        <ele>152.8</ele>
        <time>2019-08-08T14:45:33Z</time>
      </trkpt>
      <trkpt lat="48.58169" lon="7.74854">
        <ele>152.5</ele>
        <time>2019-08-08T14:45:35Z</time>
      </trkpt>
      <trkpt lat="48.58169" lon="7.74849">
        <ele>152.5</ele>
        <time>2019-08-08T14:45:36Z</time>
      </trkpt>
      <trkpt lat="48.58167" lon="7.74845">
        <ele>152.3</ele>
        <time>2019-08-08T14:45:38Z</time>
      </trkpt>
      <trkpt lat="48.58168" lon="7.7484">
        <ele>152.3</ele>
        <time>2019-08-08T14:45:40Z</time>
      </trkpt>
      <trkpt lat="48.58167" lon="7.74836">
        <ele>152.3</ele>
        <time>2019-08-08T14:45:48Z</time>
      </trkpt>
      <trkpt lat="48.58167" lon="7.74831">
        <ele>152.3</ele>
        <time>2019-08-08T14:45:51Z</time>
      </trkpt>
      <trkpt lat="48.58167" lon="7.74826">
        <ele>152.3</ele>
        <time>2019-08-08T14:45:56Z</time>
      </trkpt>
      <trkpt lat="48.58168" lon="7.74821">
        <ele>152.2</ele>
        <time>2019-08-08T14:45:58Z</time>
      </trkpt>
      <trkpt lat="48.58169" lon="7.74816">
        <ele>152.2</ele>
        <time>2019-08-08T14:46:00Z</time>
      </trkpt>
      <trkpt lat="48.5817" lon="7.74811">
        <ele>152.2</ele>
        <time>2019-08-08T14:46:01Z</time>
      </trkpt>
      <trkpt lat="48.58172" lon="7.74802">
        <ele>152.2</ele>
        <time>2019-08-08T14:46:02Z</time>
      </trkpt>
      <trkpt lat="48.58173" lon="7.74796">
        <ele>152.1</ele>
        <time>2019-08-08T14:46:03Z</time>
      </trkpt>
      <trkpt lat="48.58174" lon="7.74792">
        <ele>152.1</ele>
        <time>2019-08-08T14:46:04Z</time>
      </trkpt>
      <trkpt lat="48.58174" lon="7.74787">
        <ele>152.1</ele>
        <time>2019-08-08T14:46:06Z</time>
      </trkpt>
      <trkpt lat="48.58175" lon="7.7478">
        <ele>152.1</ele>
        <time>2019-08-08T14:46:08Z</time>
      </trkpt>
      <trkpt lat="48.58175" lon="7.74775">
        <ele>152</ele>
        <time>2019-08-08T14:46:09Z</time>
      </trkpt>
      <trkpt lat="48.58175" lon="7.7477">
        <ele>152</ele>
        <time>2019-08-08T14:46:10Z</time>
      </trkpt>
      <trkpt lat="48.58174" lon="7.74764">
        <ele>152</ele>
        <time>2019-08-08T14:46:12Z</time>
      </trkpt>
      <trkpt lat="48.58172" lon="7.74759">
        <ele>151.9</ele>
        <time>2019-08-08T14:46:13Z</time>
      </trkpt>
      <trkpt lat="48.5817" lon="7.74754">
        <ele>151.9</ele>
        <time>2019-08-08T14:46:14Z</time>
      </trkpt>
      <trkpt lat="48.58168" lon="7.74749">
        <ele>151.9</ele>
        <time>2019-08-08T14:46:15Z</time>
      </trkpt>
      <trkpt lat="48.58165" lon="7.74743">
        <ele>151.8</ele>
        <time>2019-08-08T14:46:17Z</time>
      </trkpt>
      <trkpt lat="48.58164" lon="7.74738">
        <ele>151.8</ele>
        <time>2019-08-08T14:46:18Z</time>
      </trkpt>
      <trkpt lat="48.58163" lon="7.74733">
        <ele>151.8</ele>
        <time>2019-08-08T14:46:19Z</time>
      </trkpt>
      <trkpt lat="48.58162" lon="7.74729">
        <ele>151.8</ele>
        <time>2019-08-08T14:46:20Z</time>
      </trkpt>
      <trkpt lat="48.5816" lon="7.74722">
        <ele>151.7</ele>
        <time>2019-08-08T14:46:22Z</time>
      </trkpt>
      <trkpt lat="48.58159" lon="7.74718">
        <ele>151.7</ele>
        <time>2019-08-08T14:46:23Z</time>
      </trkpt>
      <trkpt lat="48.58157" lon="7.74713">
        <ele>151.7</ele>
        <time>2019-08-08T14:46:24Z</time>
      </trkpt>
      <trkpt lat="48.58154" lon="7.74705">
        <ele>151.8</ele>
        <time>2019-08-08T14:46:25Z</time>
      </trkpt>
      <trkpt lat="48.58153" lon="7.747">
        <ele>151.9</ele>
        <time>2019-08-08T14:46:26Z</time>
      </trkpt>
      <trkpt lat="48.58152" lon="7.74696">
        <ele>151.9</ele>
        <time>2019-08-08T14:46:27Z</time>
      </trkpt>
      <trkpt lat="48.58151" lon="7.74691">
        <ele>152</ele>
        <time>2019-08-08T14:46:28Z</time>
      </trkpt>
      <trkpt lat="48.58149" lon="7.74686">
        <ele>152</ele>
        <time>2019-08-08T14:46:29Z</time>
      </trkpt>
      <trkpt lat="48.58147" lon="7.74681">
        <ele>152</ele>
        <time>2019-08-08T14:46:31Z</time>
      </trkpt>
      <trkpt lat="48.58146" lon="7.74674">
        <ele>152</ele>
        <time>2019-08-08T14:46:33Z</time>
      </trkpt>
      <trkpt lat="48.58145" lon="7.74667">
        <ele>151.9</ele>
        <time>2019-08-08T14:46:35Z</time>
      </trkpt>
      <trkpt lat="48.58143" lon="7.74663">
        <ele>151.9</ele>
        <time>2019-08-08T14:46:36Z</time>
      </trkpt>
      <trkpt lat="48.5814" lon="7.74655">
        <ele>151.8</ele>
        <time>2019-08-08T14:46:38Z</time>
      </trkpt>
      <trkpt lat="48.58138" lon="7.74653">
        <ele>151.8</ele>
        <time>2019-08-08T14:46:39Z</time>
      </trkpt>
      <trkpt lat="48.58135" lon="7.74648">
        <ele>151.7</ele>
        <time>2019-08-08T14:46:41Z</time>
      </trkpt>
      <trkpt lat="48.58134" lon="7.74644">
        <ele>151.6</ele>
        <time>2019-08-08T14:46:43Z</time>
      </trkpt>
      <trkpt lat="48.58131" lon="7.7464">
        <ele>151.5</ele>
        <time>2019-08-08T14:46:45Z</time>
      </trkpt>
      <trkpt lat="48.58128" lon="7.74635">
        <ele>151.5</ele>
        <time>2019-08-08T14:46:48Z</time>
      </trkpt>
      <trkpt lat="48.58126" lon="7.74632">
        <ele>151.5</ele>
        <time>2019-08-08T14:46:50Z</time>
      </trkpt>
      <trkpt lat="48.58124" lon="7.74627">
        <ele>151.5</ele>
        <time>2019-08-08T14:46:53Z</time>
      </trkpt>
      <trkpt lat="48.58124" lon="7.74622">
        <ele>151.5</ele>
        <time>2019-08-08T14:46:54Z</time>
      </trkpt>
      <trkpt lat="48.58125" lon="7.74617">
        <ele>151.6</ele>
        <time>2019-08-08T14:46:55Z</time>
      </trkpt>
      <trkpt lat="48.58125" lon="7.74611">
        <ele>151.6</ele>
        <time>2019-08-08T14:46:57Z</time>
      </trkpt>
      <trkpt lat="48.58126" lon="7.74605">
        <ele>151.6</ele>
        <time>2019-08-08T14:46:59Z</time>
      </trkpt>
      <trkpt lat="48.58127" lon="7.74601">
        <ele>151.5</ele>
        <time>2019-08-08T14:47:06Z</time>
      </trkpt>
      <trkpt lat="48.58126" lon="7.74595">
        <ele>151.5</ele>
        <time>2019-08-08T14:47:09Z</time>
      </trkpt>
      <trkpt lat="48.58125" lon="7.74591">
        <ele>151.5</ele>
        <time>2019-08-08T14:47:12Z</time>
      </trkpt>
      <trkpt lat="48.58122" lon="7.74587">
        <ele>151.4</ele>
        <time>2019-08-08T14:47:15Z</time>
      </trkpt>
      <trkpt lat="48.58118" lon="7.74582">
        <ele>151.4</ele>
        <time>2019-08-08T14:47:17Z</time>
      </trkpt>
      <trkpt lat="48.58121" lon="7.74578">
        <ele>151.4</ele>
        <time>2019-08-08T14:47:19Z</time>
      </trkpt>
      <trkpt lat="48.58123" lon="7.74572">
        <ele>151.3</ele>
        <time>2019-08-08T14:47:21Z</time>
      </trkpt>
      <trkpt lat="48.58125" lon="7.74569">
        <ele>151.3</ele>
        <time>2019-08-08T14:47:22Z</time>
      </trkpt>
      <trkpt lat="48.58127" lon="7.74563">
        <ele>151.2</ele>
        <time>2019-08-08T14:47:24Z</time>
      </trkpt>
      <trkpt lat="48.58128" lon="7.74558">
        <ele>151.1</ele>
        <time>2019-08-08T14:47:25Z</time>
      </trkpt>
      <trkpt lat="48.58129" lon="7.74553">
        <ele>151.1</ele>
        <time>2019-08-08T14:47:26Z</time>
      </trkpt>
      <trkpt lat="48.5813" lon="7.74549">
        <ele>151</ele>
        <time>2019-08-08T14:47:27Z</time>
      </trkpt>
      <trkpt lat="48.58132" lon="7.74545">
        <ele>150.9</ele>
        <time>2019-08-08T14:47:28Z</time>
      </trkpt>
      <trkpt lat="48.58134" lon="7.74538">
        <ele>150.8</ele>
        <time>2019-08-08T14:47:30Z</time>
      </trkpt>
      <trkpt lat="48.58136" lon="7.74533">
        <ele>150.7</ele>
        <time>2019-08-08T14:47:31Z</time>
      </trkpt>
      <trkpt lat="48.58138" lon="7.74526">
        <ele>150.6</ele>
        <time>2019-08-08T14:47:33Z</time>
      </trkpt>
      <trkpt lat="48.58139" lon="7.74519">
        <ele>150.5</ele>
        <time>2019-08-08T14:47:35Z</time>
      </trkpt>
      <trkpt lat="48.5814" lon="7.74515">
        <ele>150.5</ele>
        <time>2019-08-08T14:47:37Z</time>
      </trkpt>
      <trkpt lat="48.5814" lon="7.74509">
        <ele>150.5</ele>
        <time>2019-08-08T14:47:40Z</time>
      </trkpt>
      <trkpt lat="48.58141" lon="7.74504">
        <ele>150.4</ele>
        <time>2019-08-08T14:47:43Z</time>
      </trkpt>
      <trkpt lat="48.58142" lon="7.74498">
        <ele>150.4</ele>
        <time>2019-08-08T14:47:46Z</time>
      </trkpt>
      <trkpt lat="48.58143" lon="7.74493">
        <ele>150.4</ele>
        <time>2019-08-08T14:47:48Z</time>
      </trkpt>
      <trkpt lat="48.58143" lon="7.74486">
        <ele>150.3</ele>
        <time>2019-08-08T14:47:50Z</time>
      </trkpt>
      <trkpt lat="48.58144" lon="7.7448">
        <ele>150.3</ele>
        <time>2019-08-08T14:47:52Z</time>
      </trkpt>
      <trkpt lat="48.58144" lon="7.74474">
        <ele>150.3</ele>
        <time>2019-08-08T14:47:54Z</time>
      </trkpt>
      <trkpt lat="48.58144" lon="7.74466">
        <ele>150.3</ele>
        <time>2019-08-08T14:47:56Z</time>
      </trkpt>
      <trkpt lat="48.5814" lon="7.74462">
        <ele>150.3</ele>
        <time>2019-08-08T14:47:57Z</time>
      </trkpt>
      <trkpt lat="48.58137" lon="7.74457">
        <ele>150.3</ele>
        <time>2019-08-08T14:47:58Z</time>
      </trkpt>
      <trkpt lat="48.58136" lon="7.74451">
        <ele>150.2</ele>
        <time>2019-08-08T14:48:00Z</time>
      </trkpt>
      <trkpt lat="48.58136" lon="7.74446">
        <ele>150.2</ele>
        <time>2019-08-08T14:48:02Z</time>
      </trkpt>
      <trkpt lat="48.58137" lon="7.74441">
        <ele>150.2</ele>
        <time>2019-08-08T14:48:03Z</time>
      </trkpt>
      <trkpt lat="48.58139" lon="7.74435">
        <ele>150.2</ele>
        <time>2019-08-08T14:48:05Z</time>
      </trkpt>
      <trkpt lat="48.58141" lon="7.74431">
        <ele>150.2</ele>
        <time>2019-08-08T14:48:06Z</time>
      </trkpt>
      <trkpt lat="48.58142" lon="7.74425">
        <ele>150.2</ele>
        <time>2019-08-08T14:48:08Z</time>
      </trkpt>
      <trkpt lat="48.58144" lon="7.7442">
        <ele>150.2</ele>
        <time>2019-08-08T14:48:10Z</time>
      </trkpt>
      <trkpt lat="48.58145" lon="7.74414">
        <ele>150.2</ele>
        <time>2019-08-08T14:48:12Z</time>
      </trkpt>
      <trkpt lat="48.58147" lon="7.74409">
        <ele>150.2</ele>
        <time>2019-08-08T14:48:13Z</time>
      </trkpt>
      <trkpt lat="48.58148" lon="7.74406">
        <ele>150.2</ele>
        <time>2019-08-08T14:48:14Z</time>
      </trkpt>
      <trkpt lat="48.58149" lon="7.74401">
        <ele>150.2</ele>
        <time>2019-08-08T14:48:16Z</time>
      </trkpt>
      <trkpt lat="48.58151" lon="7.74397">
        <ele>150.3</ele>
        <time>2019-08-08T14:48:18Z</time>
      </trkpt>
      <trkpt lat="48.58152" lon="7.7439">
        <ele>150.3</ele>
        <time>2019-08-08T14:48:20Z</time>
      </trkpt>
      <trkpt lat="48.58153" lon="7.74386">
        <ele>150.3</ele>
        <time>2019-08-08T14:48:22Z</time>
      </trkpt>
      <trkpt lat="48.58155" lon="7.74382">
        <ele>150.3</ele>
        <time>2019-08-08T14:48:25Z</time>
      </trkpt>
      <trkpt lat="48.58156" lon="7.74377">
        <ele>150.4</ele>
        <time>2019-08-08T14:48:27Z</time>
      </trkpt>
      <trkpt lat="48.58157" lon="7.74372">
        <ele>150.4</ele>
        <time>2019-08-08T14:48:30Z</time>
      </trkpt>
      <trkpt lat="48.58158" lon="7.74368">
        <ele>150.4</ele>
        <time>2019-08-08T14:48:32Z</time>
      </trkpt>
      <trkpt lat="48.5816" lon="7.74364">
        <ele>150.4</ele>
        <time>2019-08-08T14:48:35Z</time>
      </trkpt>
      <trkpt lat="48.58162" lon="7.74359">
        <ele>150.4</ele>
        <time>2019-08-08T14:48:37Z</time>
      </trkpt>
      <trkpt lat="48.58165" lon="7.74355">
        <ele>150.4</ele>
        <time>2019-08-08T14:48:39Z</time>
      </trkpt>
      <trkpt lat="48.58168" lon="7.74351">
        <ele>150.4</ele>
        <time>2019-08-08T14:48:41Z</time>
      </trkpt>
      <trkpt lat="48.58173" lon="7.74348">
        <ele>150.4</ele>
        <time>2019-08-08T14:48:43Z</time>
      </trkpt>
      <trkpt lat="48.58178" lon="7.74344">
        <ele>150.4</ele>
        <time>2019-08-08T14:48:45Z</time>
      </trkpt>
      <trkpt lat="48.5818" lon="7.7434">
        <ele>150.4</ele>
        <time>2019-08-08T14:48:47Z</time>
      </trkpt>
      <trkpt lat="48.58181" lon="7.74331">
        <ele>150.5</ele>
        <time>2019-08-08T14:48:49Z</time>
      </trkpt>
      <trkpt lat="48.58182" lon="7.74325">
        <ele>150.5</ele>
        <time>2019-08-08T14:48:50Z</time>
      </trkpt>
      <trkpt lat="48.58182" lon="7.7432">
        <ele>150.5</ele>
        <time>2019-08-08T14:48:52Z</time>
      </trkpt>
      <trkpt lat="48.58182" lon="7.74315">
        <ele>150.5</ele>
        <time>2019-08-08T14:48:53Z</time>
      </trkpt>
      <trkpt lat="48.58183" lon="7.7431">
        <ele>150.5</ele>
        <time>2019-08-08T14:48:55Z</time>
      </trkpt>
      <trkpt lat="48.58184" lon="7.74305">
        <ele>150.6</ele>
        <time>2019-08-08T14:48:57Z</time>
      </trkpt>
      <trkpt lat="48.58184" lon="7.74301">
        <ele>150.7</ele>
        <time>2019-08-08T14:48:59Z</time>
      </trkpt>
      <trkpt lat="48.58185" lon="7.74293">
        <ele>150.8</ele>
        <time>2019-08-08T14:49:01Z</time>
      </trkpt>
      <trkpt lat="48.58185" lon="7.74288">
        <ele>150.9</ele>
        <time>2019-08-08T14:49:03Z</time>
      </trkpt>
      <trkpt lat="48.58186" lon="7.74281">
        <ele>151</ele>
        <time>2019-08-08T14:49:05Z</time>
      </trkpt>
      <trkpt lat="48.58187" lon="7.74274">
        <ele>151</ele>
        <time>2019-08-08T14:49:06Z</time>
      </trkpt>
      <trkpt lat="48.5819" lon="7.74268">
        <ele>151.1</ele>
        <time>2019-08-08T14:49:07Z</time>
      </trkpt>
      <trkpt lat="48.58193" lon="7.74257">
        <ele>151.2</ele>
        <time>2019-08-08T14:49:08Z</time>
      </trkpt>
      <trkpt lat="48.58196" lon="7.74249">
        <ele>151.2</ele>
        <time>2019-08-08T14:49:09Z</time>
      </trkpt>
      <trkpt lat="48.58196" lon="7.74244">
        <ele>151.2</ele>
        <time>2019-08-08T14:49:10Z</time>
      </trkpt>
      <trkpt lat="48.58195" lon="7.74236">
        <ele>151.2</ele>
        <time>2019-08-08T14:49:11Z</time>
      </trkpt>
      <trkpt lat="48.58198" lon="7.74229">
        <ele>151.2</ele>
        <time>2019-08-08T14:49:12Z</time>
      </trkpt>
      <trkpt lat="48.58201" lon="7.7422">
        <ele>151.2</ele>
        <time>2019-08-08T14:49:13Z</time>
      </trkpt>
      <trkpt lat="48.58203" lon="7.74215">
        <ele>151.2</ele>
        <time>2019-08-08T14:49:14Z</time>
      </trkpt>
      <trkpt lat="48.58205" lon="7.74211">
        <ele>151.2</ele>
        <time>2019-08-08T14:49:15Z</time>
      </trkpt>
      <trkpt lat="48.58207" lon="7.74207">
        <ele>151.2</ele>
        <time>2019-08-08T14:49:16Z</time>
      </trkpt>
      <trkpt lat="48.58208" lon="7.74203">
        <ele>151.1</ele>
        <time>2019-08-08T14:49:18Z</time>
      </trkpt>
      <trkpt lat="48.58211" lon="7.74196">
        <ele>151</ele>
        <time>2019-08-08T14:49:20Z</time>
      </trkpt>
      <trkpt lat="48.58213" lon="7.74193">
        <ele>150.9</ele>
        <time>2019-08-08T14:49:21Z</time>
      </trkpt>
      <trkpt lat="48.58214" lon="7.74189">
        <ele>150.9</ele>
        <time>2019-08-08T14:49:22Z</time>
      </trkpt>
      <trkpt lat="48.58216" lon="7.74184">
        <ele>150.8</ele>
        <time>2019-08-08T14:49:24Z</time>
      </trkpt>
      <trkpt lat="48.58217" lon="7.74179">
        <ele>150.7</ele>
        <time>2019-08-08T14:49:25Z</time>
      </trkpt>
      <trkpt lat="48.58217" lon="7.74174">
        <ele>150.6</ele>
        <time>2019-08-08T14:49:26Z</time>
      </trkpt>
      <trkpt lat="48.58213" lon="7.74169">
        <ele>150.5</ele>
        <time>2019-08-08T14:49:27Z</time>
      </trkpt>
      <trkpt lat="48.5821" lon="7.74165">
        <ele>150.4</ele>
        <time>2019-08-08T14:49:28Z</time>
      </trkpt>
      <trkpt lat="48.58212" lon="7.74154">
        <ele>150.2</ele>
        <time>2019-08-08T14:49:30Z</time>
      </trkpt>
      <trkpt lat="48.58213" lon="7.7415">
        <ele>150.1</ele>
        <time>2019-08-08T14:49:31Z</time>
      </trkpt>
      <trkpt lat="48.58216" lon="7.74143">
        <ele>150</ele>
        <time>2019-08-08T14:49:32Z</time>
      </trkpt>
      <trkpt lat="48.58216" lon="7.74139">
        <ele>149.9</ele>
        <time>2019-08-08T14:49:33Z</time>
      </trkpt>
      <trkpt lat="48.58218" lon="7.74132">
        <ele>149.8</ele>
        <time>2019-08-08T14:49:35Z</time>
      </trkpt>
      <trkpt lat="48.58219" lon="7.74125">
        <ele>149.7</ele>
        <time>2019-08-08T14:49:37Z</time>
      </trkpt>
      <trkpt lat="48.5822" lon="7.74117">
        <ele>149.6</ele>
        <time>2019-08-08T14:49:39Z</time>
      </trkpt>
      <trkpt lat="48.58219" lon="7.74113">
        <ele>149.5</ele>
        <time>2019-08-08T14:49:40Z</time>
      </trkpt>
      <trkpt lat="48.58219" lon="7.74108">
        <ele>149.4</ele>
        <time>2019-08-08T14:49:41Z</time>
      </trkpt>
      <trkpt lat="48.5822" lon="7.74104">
        <ele>149.4</ele>
        <time>2019-08-08T14:49:42Z</time>
      </trkpt>
      <trkpt lat="48.58221" lon="7.74099">
        <ele>149.3</ele>
        <time>2019-08-08T14:49:43Z</time>
      </trkpt>
      <trkpt lat="48.58223" lon="7.74093">
        <ele>149.2</ele>
        <time>2019-08-08T14:49:44Z</time>
      </trkpt>
      <trkpt lat="48.58224" lon="7.74089">
        <ele>149.2</ele>
        <time>2019-08-08T14:49:45Z</time>
      </trkpt>
      <trkpt lat="48.58226" lon="7.74085">
        <ele>149.1</ele>
        <time>2019-08-08T14:49:46Z</time>
      </trkpt>
      <trkpt lat="48.58227" lon="7.7408">
        <ele>149</ele>
        <time>2019-08-08T14:49:47Z</time>
      </trkpt>
      <trkpt lat="48.5823" lon="7.74073">
        <ele>148.9</ele>
        <time>2019-08-08T14:49:49Z</time>
      </trkpt>
      <trkpt lat="48.58232" lon="7.74067">
        <ele>148.8</ele>
        <time>2019-08-08T14:49:50Z</time>
      </trkpt>
      <trkpt lat="48.58235" lon="7.7406">
        <ele>148.3</ele>
        <time>2019-08-08T14:49:51Z</time>
      </trkpt>
      <trkpt lat="48.58237" lon="7.74054">
        <ele>148</ele>
        <time>2019-08-08T14:49:52Z</time>
      </trkpt>
      <trkpt lat="48.58239" lon="7.74047">
        <ele>147.7</ele>
        <time>2019-08-08T14:49:53Z</time>
      </trkpt>
      <trkpt lat="48.58241" lon="7.74041">
        <ele>147.5</ele>
        <time>2019-08-08T14:49:54Z</time>
      </trkpt>
      <trkpt lat="48.58242" lon="7.74037">
        <ele>147.3</ele>
        <time>2019-08-08T14:49:55Z</time>
      </trkpt>
      <trkpt lat="48.58245" lon="7.74035">
        <ele>147.2</ele>
        <time>2019-08-08T14:49:56Z</time>
      </trkpt>
      <trkpt lat="48.58246" lon="7.7403">
        <ele>147</ele>
        <time>2019-08-08T14:49:58Z</time>
      </trkpt>
      <trkpt lat="48.58246" lon="7.74024">
        <ele>146.8</ele>
        <time>2019-08-08T14:50:00Z</time>
      </trkpt>
      <trkpt lat="48.58247" lon="7.74019">
        <ele>146.6</ele>
        <time>2019-08-08T14:50:01Z</time>
      </trkpt>
      <trkpt lat="48.58249" lon="7.74017">
        <ele>146.4</ele>
        <time>2019-08-08T14:50:02Z</time>
      </trkpt>
      <trkpt lat="48.58251" lon="7.74012">
        <ele>146.2</ele>
        <time>2019-08-08T14:50:03Z</time>
      </trkpt>
      <trkpt lat="48.58252" lon="7.74008">
        <ele>145.9</ele>
        <time>2019-08-08T14:50:04Z</time>
      </trkpt>
      <trkpt lat="48.58252" lon="7.74">
        <ele>145.6</ele>
        <time>2019-08-08T14:50:06Z</time>
      </trkpt>
      <trkpt lat="48.58253" lon="7.73994">
        <ele>145.4</ele>
        <time>2019-08-08T14:50:07Z</time>
      </trkpt>
      <trkpt lat="48.58254" lon="7.73987">
        <ele>145.2</ele>
        <time>2019-08-08T14:50:08Z</time>
      </trkpt>
      <trkpt lat="48.58254" lon="7.73982">
        <ele>145.1</ele>
        <time>2019-08-08T14:50:09Z</time>
      </trkpt>
      <trkpt lat="48.58255" lon="7.73976">
        <ele>144.9</ele>
        <time>2019-08-08T14:50:11Z</time>
      </trkpt>
      <trkpt lat="48.58254" lon="7.7397">
        <ele>144.8</ele>
        <time>2019-08-08T14:50:13Z</time>
      </trkpt>
      <trkpt lat="48.58255" lon="7.73961">
        <ele>144.5</ele>
        <time>2019-08-08T14:50:15Z</time>
      </trkpt>
      <trkpt lat="48.58255" lon="7.73956">
        <ele>144.4</ele>
        <time>2019-08-08T14:50:19Z</time>
      </trkpt>
      <trkpt lat="48.58256" lon="7.73951">
        <ele>144.2</ele>
        <time>2019-08-08T14:50:20Z</time>
      </trkpt>
      <trkpt lat="48.58257" lon="7.73943">
        <ele>143.9</ele>
        <time>2019-08-08T14:50:21Z</time>
      </trkpt>
      <trkpt lat="48.58259" lon="7.73929">
        <ele>142.9</ele>
        <time>2019-08-08T14:50:23Z</time>
      </trkpt>
      <trkpt lat="48.58259" lon="7.73923">
        <ele>141.7</ele>
        <time>2019-08-08T14:50:24Z</time>
      </trkpt>
      <trkpt lat="48.58262" lon="7.73917">
        <ele>140.4</ele>
        <time>2019-08-08T14:50:26Z</time>
      </trkpt>
      <trkpt lat="48.58262" lon="7.73911">
        <ele>138.8</ele>
        <time>2019-08-08T14:50:27Z</time>
      </trkpt>
      <trkpt lat="48.58265" lon="7.73908">
        <ele>138.2</ele>
        <time>2019-08-08T14:50:29Z</time>
      </trkpt>
      <trkpt lat="48.58268" lon="7.73904">
        <ele>137.5</ele>
        <time>2019-08-08T14:50:31Z</time>
      </trkpt>
      <trkpt lat="48.58272" lon="7.73898">
        <ele>136.6</ele>
        <time>2019-08-08T14:50:32Z</time>
      </trkpt>
      <trkpt lat="48.58275" lon="7.73894">
        <ele>135.9</ele>
        <time>2019-08-08T14:50:33Z</time>
      </trkpt>
      <trkpt lat="48.58277" lon="7.73891">
        <ele>135.9</ele>
        <time>2019-08-08T14:50:34Z</time>
      </trkpt>
      <trkpt lat="48.58278" lon="7.73886">
        <ele>135.9</ele>
        <time>2019-08-08T14:50:38Z</time>
      </trkpt>
      <trkpt lat="48.58274" lon="7.73885">
        <ele>136</ele>
        <time>2019-08-08T14:51:22Z</time>
      </trkpt>
      <trkpt lat="48.58276" lon="7.73889">
        <ele>136</ele>
        <time>2019-08-08T14:51:24Z</time>
      </trkpt>
      <trkpt lat="48.58278" lon="7.73894">
        <ele>136</ele>
        <time>2019-08-08T14:51:26Z</time>
      </trkpt>
      <trkpt lat="48.5828" lon="7.73897">
        <ele>136</ele>
        <time>2019-08-08T14:51:28Z</time>
      </trkpt>
      <trkpt lat="48.58282" lon="7.739">
        <ele>136</ele>
        <time>2019-08-08T14:51:30Z</time>
      </trkpt>
      <trkpt lat="48.58285" lon="7.739">
        <ele>136</ele>
        <time>2019-08-08T14:51:35Z</time>
      </trkpt>
      <trkpt lat="48.58291" lon="7.73908">
        <ele>135.9</ele>
        <time>2019-08-08T14:52:21Z</time>
      </trkpt>
      <trkpt lat="48.58294" lon="7.73912">
        <ele>135.9</ele>
        <time>2019-08-08T14:52:22Z</time>
      </trkpt>
      <trkpt lat="48.58295" lon="7.73918">
        <ele>135.9</ele>
        <time>2019-08-08T14:52:23Z</time>
      </trkpt>
      <trkpt lat="48.58298" lon="7.73923">
        <ele>135.8</ele>
        <time>2019-08-08T14:52:24Z</time>
      </trkpt>
      <trkpt lat="48.58301" lon="7.73927">
        <ele>135.8</ele>
        <time>2019-08-08T14:52:25Z</time>
      </trkpt>
      <trkpt lat="48.58304" lon="7.73932">
        <ele>135.7</ele>
        <time>2019-08-08T14:52:26Z</time>
      </trkpt>
      <trkpt lat="48.58307" lon="7.73936">
        <ele>135.7</ele>
        <time>2019-08-08T14:52:27Z</time>
      </trkpt>
      <trkpt lat="48.58312" lon="7.73944">
        <ele>135.6</ele>
        <time>2019-08-08T14:52:28Z</time>
      </trkpt>
      <trkpt lat="48.58315" lon="7.73945">
        <ele>135.5</ele>
        <time>2019-08-08T14:52:29Z</time>
      </trkpt>
      <trkpt lat="48.58319" lon="7.73942">
        <ele>135.5</ele>
        <time>2019-08-08T14:52:32Z</time>
      </trkpt>
      <trkpt lat="48.58321" lon="7.73938">
        <ele>135.4</ele>
        <time>2019-08-08T14:52:35Z</time>
      </trkpt>
      <trkpt lat="48.58324" lon="7.73932">
        <ele>135.8</ele>
        <time>2019-08-08T14:52:37Z</time>
      </trkpt>
      <trkpt lat="48.58325" lon="7.73927">
        <ele>135.8</ele>
        <time>2019-08-08T14:52:38Z</time>
      </trkpt>
      <trkpt lat="48.58327" lon="7.73923">
        <ele>135.7</ele>
        <time>2019-08-08T14:52:39Z</time>
      </trkpt>
      <trkpt lat="48.58329" lon="7.73919">
        <ele>135.7</ele>
        <time>2019-08-08T14:52:40Z</time>
      </trkpt>
      <trkpt lat="48.5833" lon="7.73914">
        <ele>135.7</ele>
        <time>2019-08-08T14:52:42Z</time>
      </trkpt>
      <trkpt lat="48.58331" lon="7.73909">
        <ele>135.6</ele>
        <time>2019-08-08T14:52:45Z</time>
      </trkpt>
      <trkpt lat="48.58333" lon="7.73906">
        <ele>135.6</ele>
        <time>2019-08-08T14:52:48Z</time>
      </trkpt>
      <trkpt lat="48.58335" lon="7.73901">
        <ele>135.6</ele>
        <time>2019-08-08T14:52:52Z</time>
      </trkpt>
      <trkpt lat="48.58337" lon="7.73897">
        <ele>135.6</ele>
        <time>2019-08-08T14:52:55Z</time>
      </trkpt>
      <trkpt lat="48.5834" lon="7.73885">
        <ele>135.5</ele>
        <time>2019-08-08T14:53:12Z</time>
      </trkpt>
      <trkpt lat="48.58341" lon="7.73882">
        <ele>135.5</ele>
        <time>2019-08-08T14:53:17Z</time>
      </trkpt>
      <trkpt lat="48.58344" lon="7.7388">
        <ele>135.4</ele>
        <time>2019-08-08T14:53:23Z</time>
      </trkpt>
      <trkpt lat="48.5835" lon="7.7387">
        <ele>136.2</ele>
        <time>2019-08-08T14:54:54Z</time>
      </trkpt>
      <trkpt lat="48.58351" lon="7.73865">
        <ele>140.6</ele>
        <time>2019-08-08T14:54:56Z</time>
      </trkpt>
      <trkpt lat="48.58351" lon="7.73861">
        <ele>140.9</ele>
        <time>2019-08-08T14:54:58Z</time>
      </trkpt>
      <trkpt lat="48.58351" lon="7.73856">
        <ele>141.3</ele>
        <time>2019-08-08T14:55:04Z</time>
      </trkpt>
      <trkpt lat="48.58348" lon="7.73851">
        <ele>141.8</ele>
        <time>2019-08-08T14:55:07Z</time>
      </trkpt>
      <trkpt lat="48.58348" lon="7.73846">
        <ele>142.2</ele>
        <time>2019-08-08T14:55:09Z</time>
      </trkpt>
      <trkpt lat="48.58347" lon="7.7384">
        <ele>142.6</ele>
        <time>2019-08-08T14:55:11Z</time>
      </trkpt>
      <trkpt lat="48.58347" lon="7.73834">
        <ele>142.9</ele>
        <time>2019-08-08T14:55:13Z</time>
      </trkpt>
      <trkpt lat="48.58346" lon="7.73826">
        <ele>143.1</ele>
        <time>2019-08-08T14:55:14Z</time>
      </trkpt>
      <trkpt lat="48.58346" lon="7.73821">
        <ele>143.3</ele>
        <time>2019-08-08T14:55:15Z</time>
      </trkpt>
      <trkpt lat="48.58345" lon="7.73817">
        <ele>143.5</ele>
        <time>2019-08-08T14:55:16Z</time>
      </trkpt>
      <trkpt lat="48.58344" lon="7.73813">
        <ele>143.6</ele>
        <time>2019-08-08T14:55:17Z</time>
      </trkpt>
      <trkpt lat="48.58344" lon="7.73807">
        <ele>143.8</ele>
        <time>2019-08-08T14:55:18Z</time>
      </trkpt>
      <trkpt lat="48.58343" lon="7.73801">
        <ele>144</ele>
        <time>2019-08-08T14:55:19Z</time>
      </trkpt>
      <trkpt lat="48.58341" lon="7.73796">
        <ele>144.3</ele>
        <time>2019-08-08T14:55:20Z</time>
      </trkpt>
      <trkpt lat="48.58341" lon="7.73791">
        <ele>144.6</ele>
        <time>2019-08-08T14:55:21Z</time>
      </trkpt>
      <trkpt lat="48.5834" lon="7.73784">
        <ele>144.9</ele>
        <time>2019-08-08T14:55:23Z</time>
      </trkpt>
      <trkpt lat="48.58339" lon="7.73779">
        <ele>145.1</ele>
        <time>2019-08-08T14:55:24Z</time>
      </trkpt>
      <trkpt lat="48.58339" lon="7.73774">
        <ele>145.3</ele>
        <time>2019-08-08T14:55:25Z</time>
      </trkpt>
      <trkpt lat="48.5834" lon="7.73768">
        <ele>145.4</ele>
        <time>2019-08-08T14:55:26Z</time>
      </trkpt>
      <trkpt lat="48.5834" lon="7.73763">
        <ele>145.6</ele>
        <time>2019-08-08T14:55:27Z</time>
      </trkpt>
      <trkpt lat="48.58341" lon="7.73757">
        <ele>145.8</ele>
        <time>2019-08-08T14:55:28Z</time>
      </trkpt>
      <trkpt lat="48.58341" lon="7.73753">
        <ele>145.9</ele>
        <time>2019-08-08T14:55:29Z</time>
      </trkpt>
      <trkpt lat="48.58342" lon="7.73745">
        <ele>146.1</ele>
        <time>2019-08-08T14:55:31Z</time>
      </trkpt>
      <trkpt lat="48.58342" lon="7.73739">
        <ele>146.2</ele>
        <time>2019-08-08T14:55:32Z</time>
      </trkpt>
      <trkpt lat="48.58342" lon="7.73735">
        <ele>146.3</ele>
        <time>2019-08-08T14:55:33Z</time>
      </trkpt>
      <trkpt lat="48.58341" lon="7.73731">
        <ele>146.4</ele>
        <time>2019-08-08T14:55:34Z</time>
      </trkpt>
      <trkpt lat="48.58341" lon="7.73725">
        <ele>146.5</ele>
        <time>2019-08-08T14:55:35Z</time>
      </trkpt>
      <trkpt lat="48.5834" lon="7.73717">
        <ele>146.7</ele>
        <time>2019-08-08T14:55:36Z</time>
      </trkpt>
      <trkpt lat="48.58339" lon="7.73711">
        <ele>146.7</ele>
        <time>2019-08-08T14:55:37Z</time>
      </trkpt>
      <trkpt lat="48.58338" lon="7.73706">
        <ele>146.8</ele>
        <time>2019-08-08T14:55:38Z</time>
      </trkpt>
      <trkpt lat="48.58337" lon="7.737">
        <ele>146.8</ele>
        <time>2019-08-08T14:55:39Z</time>
      </trkpt>
      <trkpt lat="48.58335" lon="7.73695">
        <ele>146.8</ele>
        <time>2019-08-08T14:55:40Z</time>
      </trkpt>
      <trkpt lat="48.58334" lon="7.73689">
        <ele>146.8</ele>
        <time>2019-08-08T14:55:41Z</time>
      </trkpt>
      <trkpt lat="48.58332" lon="7.73684">
        <ele>146.8</ele>
        <time>2019-08-08T14:55:42Z</time>
      </trkpt>
      <trkpt lat="48.58331" lon="7.73679">
        <ele>146.8</ele>
        <time>2019-08-08T14:55:43Z</time>
      </trkpt>
      <trkpt lat="48.5833" lon="7.73673">
        <ele>146.7</ele>
        <time>2019-08-08T14:55:44Z</time>
      </trkpt>
      <trkpt lat="48.58328" lon="7.73669">
        <ele>146.7</ele>
        <time>2019-08-08T14:55:45Z</time>
      </trkpt>
      <trkpt lat="48.58325" lon="7.73664">
        <ele>146.7</ele>
        <time>2019-08-08T14:55:46Z</time>
      </trkpt>
      <trkpt lat="48.58323" lon="7.73659">
        <ele>146.6</ele>
        <time>2019-08-08T14:55:47Z</time>
      </trkpt>
      <trkpt lat="48.58321" lon="7.73654">
        <ele>146.6</ele>
        <time>2019-08-08T14:55:48Z</time>
      </trkpt>
      <trkpt lat="48.5832" lon="7.73648">
        <ele>146.6</ele>
        <time>2019-08-08T14:55:49Z</time>
      </trkpt>
      <trkpt lat="48.58318" lon="7.73643">
        <ele>146.4</ele>
        <time>2019-08-08T14:55:51Z</time>
      </trkpt>
      <trkpt lat="48.58316" lon="7.73639">
        <ele>146.4</ele>
        <time>2019-08-08T14:55:52Z</time>
      </trkpt>
      <trkpt lat="48.58314" lon="7.73634">
        <ele>146.3</ele>
        <time>2019-08-08T14:55:54Z</time>
      </trkpt>
      <trkpt lat="48.58311" lon="7.73628">
        <ele>146.3</ele>
        <time>2019-08-08T14:55:56Z</time>
      </trkpt>
      <trkpt lat="48.58311" lon="7.73624">
        <ele>146.3</ele>
        <time>2019-08-08T14:55:58Z</time>
      </trkpt>
      <trkpt lat="48.5831" lon="7.73619">
        <ele>146.3</ele>
        <time>2019-08-08T14:56:00Z</time>
      </trkpt>
      <trkpt lat="48.58306" lon="7.73615">
        <ele>146.3</ele>
        <time>2019-08-08T14:56:02Z</time>
      </trkpt>
      <trkpt lat="48.58303" lon="7.73609">
        <ele>146.3</ele>
        <time>2019-08-08T14:56:04Z</time>
      </trkpt>
      <trkpt lat="48.58301" lon="7.73603">
        <ele>146.4</ele>
        <time>2019-08-08T14:56:06Z</time>
      </trkpt>
      <trkpt lat="48.583" lon="7.73597">
        <ele>146.4</ele>
        <time>2019-08-08T14:56:08Z</time>
      </trkpt>
      <trkpt lat="48.58298" lon="7.73592">
        <ele>146.5</ele>
        <time>2019-08-08T14:56:10Z</time>
      </trkpt>
      <trkpt lat="48.58298" lon="7.73584">
        <ele>146.5</ele>
        <time>2019-08-08T14:56:12Z</time>
      </trkpt>
      <trkpt lat="48.583" lon="7.7358">
        <ele>146.5</ele>
        <time>2019-08-08T14:56:14Z</time>
      </trkpt>
      <trkpt lat="48.58301" lon="7.73574">
        <ele>146.5</ele>
        <time>2019-08-08T14:56:17Z</time>
      </trkpt>
      <trkpt lat="48.58302" lon="7.7357">
        <ele>146.4</ele>
        <time>2019-08-08T14:56:22Z</time>
      </trkpt>
      <trkpt lat="48.58301" lon="7.73556">
        <ele>146.1</ele>
        <time>2019-08-08T14:56:47Z</time>
      </trkpt>
      <trkpt lat="48.58299" lon="7.73559">
        <ele>146</ele>
        <time>2019-08-08T14:56:51Z</time>
      </trkpt>
      <trkpt lat="48.58302" lon="7.73558">
        <ele>145.9</ele>
        <time>2019-08-08T14:56:53Z</time>
      </trkpt>
      <trkpt lat="48.58308" lon="7.73557">
        <ele>145.7</ele>
        <time>2019-08-08T14:56:55Z</time>
      </trkpt>
      <trkpt lat="48.58312" lon="7.73557">
        <ele>145.6</ele>
        <time>2019-08-08T14:56:56Z</time>
      </trkpt>
      <trkpt lat="48.58317" lon="7.73558">
        <ele>145.4</ele>
        <time>2019-08-08T14:56:57Z</time>
      </trkpt>
      <trkpt lat="48.58321" lon="7.73559">
        <ele>145.2</ele>
        <time>2019-08-08T14:56:58Z</time>
      </trkpt>
      <trkpt lat="48.58325" lon="7.73559">
        <ele>145.1</ele>
        <time>2019-08-08T14:57:00Z</time>
      </trkpt>
      <trkpt lat="48.58329" lon="7.73559">
        <ele>145</ele>
        <time>2019-08-08T14:57:01Z</time>
      </trkpt>
      <trkpt lat="48.58333" lon="7.73558">
        <ele>144.8</ele>
        <time>2019-08-08T14:57:02Z</time>
      </trkpt>
      <trkpt lat="48.58337" lon="7.73561">
        <ele>144.5</ele>
        <time>2019-08-08T14:57:03Z</time>
      </trkpt>
      <trkpt lat="48.58341" lon="7.73564">
        <ele>144.5</ele>
        <time>2019-08-08T14:57:04Z</time>
      </trkpt>
      <trkpt lat="48.58347" lon="7.73563">
        <ele>144.5</ele>
        <time>2019-08-08T14:57:06Z</time>
      </trkpt>
      <trkpt lat="48.58351" lon="7.73561">
        <ele>144.5</ele>
        <time>2019-08-08T14:57:08Z</time>
      </trkpt>
      <trkpt lat="48.58356" lon="7.7356">
        <ele>144.5</ele>
        <time>2019-08-08T14:57:10Z</time>
      </trkpt>
      <trkpt lat="48.58359" lon="7.73559">
        <ele>144.6</ele>
        <time>2019-08-08T14:57:11Z</time>
      </trkpt>
      <trkpt lat="48.58371" lon="7.73553">
        <ele>144.4</ele>
        <time>2019-08-08T14:57:12Z</time>
      </trkpt>
      <trkpt lat="48.58378" lon="7.73553">
        <ele>144.2</ele>
        <time>2019-08-08T14:57:13Z</time>
      </trkpt>
      <trkpt lat="48.5838" lon="7.73557">
        <ele>144.1</ele>
        <time>2019-08-08T14:57:14Z</time>
      </trkpt>
      <trkpt lat="48.58383" lon="7.7356">
        <ele>143.9</ele>
        <time>2019-08-08T14:57:16Z</time>
      </trkpt>
      <trkpt lat="48.58387" lon="7.73562">
        <ele>143.7</ele>
        <time>2019-08-08T14:57:19Z</time>
      </trkpt>
      <trkpt lat="48.5839" lon="7.7356">
        <ele>143.4</ele>
        <time>2019-08-08T14:57:22Z</time>
      </trkpt>
      <trkpt lat="48.58392" lon="7.73557">
        <ele>143.2</ele>
        <time>2019-08-08T14:57:25Z</time>
      </trkpt>
      <trkpt lat="48.58398" lon="7.73565">
        <ele>142.6</ele>
        <time>2019-08-08T14:58:10Z</time>
      </trkpt>
      <trkpt lat="48.58401" lon="7.7357">
        <ele>142.8</ele>
        <time>2019-08-08T14:58:12Z</time>
      </trkpt>
      <trkpt lat="48.58403" lon="7.73574">
        <ele>142.8</ele>
        <time>2019-08-08T14:58:13Z</time>
      </trkpt>
      <trkpt lat="48.58406" lon="7.7358">
        <ele>142.8</ele>
        <time>2019-08-08T14:58:15Z</time>
      </trkpt>
      <trkpt lat="48.5841" lon="7.73585">
        <ele>142.9</ele>
        <time>2019-08-08T14:58:17Z</time>
      </trkpt>
      <trkpt lat="48.58414" lon="7.73591">
        <ele>142.9</ele>
        <time>2019-08-08T14:58:19Z</time>
      </trkpt>
      <trkpt lat="48.58419" lon="7.73596">
        <ele>143</ele>
        <time>2019-08-08T14:58:21Z</time>
      </trkpt>
      <trkpt lat="48.58421" lon="7.73598">
        <ele>143</ele>
        <time>2019-08-08T14:58:22Z</time>
      </trkpt>
      <trkpt lat="48.58424" lon="7.73597">
        <ele>143</ele>
        <time>2019-08-08T14:58:23Z</time>
      </trkpt>
      <trkpt lat="48.5843" lon="7.73597">
        <ele>143.1</ele>
        <time>2019-08-08T14:58:24Z</time>
      </trkpt>
      <trkpt lat="48.58434" lon="7.73596">
        <ele>143.1</ele>
        <time>2019-08-08T14:58:25Z</time>
      </trkpt>
      <trkpt lat="48.58437" lon="7.73595">
        <ele>142.8</ele>
        <time>2019-08-08T14:58:26Z</time>
      </trkpt>
      <trkpt lat="48.58446" lon="7.73593">
        <ele>142.7</ele>
        <time>2019-08-08T14:58:28Z</time>
      </trkpt>
      <trkpt lat="48.58452" lon="7.7359">
        <ele>142.6</ele>
        <time>2019-08-08T14:58:29Z</time>
      </trkpt>
      <trkpt lat="48.58457" lon="7.73586">
        <ele>142.4</ele>
        <time>2019-08-08T14:58:31Z</time>
      </trkpt>
      <trkpt lat="48.5846" lon="7.7358">
        <ele>142.4</ele>
        <time>2019-08-08T14:58:32Z</time>
      </trkpt>
      <trkpt lat="48.58463" lon="7.73576">
        <ele>142.2</ele>
        <time>2019-08-08T14:58:34Z</time>
      </trkpt>
      <trkpt lat="48.58465" lon="7.73572">
        <ele>142.2</ele>
        <time>2019-08-08T14:58:36Z</time>
      </trkpt>
      <trkpt lat="48.58466" lon="7.73568">
        <ele>142.2</ele>
        <time>2019-08-08T14:58:39Z</time>
      </trkpt>
      <trkpt lat="48.58464" lon="7.73564">
        <ele>142.1</ele>
        <time>2019-08-08T14:58:43Z</time>
      </trkpt>
      <trkpt lat="48.58464" lon="7.7356">
        <ele>142.1</ele>
        <time>2019-08-08T14:58:46Z</time>
      </trkpt>
      <trkpt lat="48.58475" lon="7.73546">
        <ele>142</ele>
        <time>2019-08-08T14:59:36Z</time>
      </trkpt>
      <trkpt lat="48.58477" lon="7.73541">
        <ele>142</ele>
        <time>2019-08-08T14:59:39Z</time>
      </trkpt>
      <trkpt lat="48.58477" lon="7.73536">
        <ele>141.9</ele>
        <time>2019-08-08T14:59:40Z</time>
      </trkpt>
      <trkpt lat="48.58477" lon="7.73531">
        <ele>141.9</ele>
        <time>2019-08-08T14:59:42Z</time>
      </trkpt>
      <trkpt lat="48.58474" lon="7.73526">
        <ele>141.9</ele>
        <time>2019-08-08T14:59:44Z</time>
      </trkpt>
      <trkpt lat="48.58472" lon="7.73523">
        <ele>141.9</ele>
        <time>2019-08-08T14:59:45Z</time>
      </trkpt>
      <trkpt lat="48.58468" lon="7.73518">
        <ele>142.4</ele>
        <time>2019-08-08T14:59:46Z</time>
      </trkpt>
      <trkpt lat="48.58464" lon="7.73514">
        <ele>142.6</ele>
        <time>2019-08-08T14:59:47Z</time>
      </trkpt>
      <trkpt lat="48.5846" lon="7.7351">
        <ele>142.8</ele>
        <time>2019-08-08T14:59:48Z</time>
      </trkpt>
      <trkpt lat="48.58457" lon="7.73505">
        <ele>142.9</ele>
        <time>2019-08-08T14:59:49Z</time>
      </trkpt>
      <trkpt lat="48.58454" lon="7.735">
        <ele>143.1</ele>
        <time>2019-08-08T14:59:50Z</time>
      </trkpt>
      <trkpt lat="48.5845" lon="7.73496">
        <ele>143.2</ele>
        <time>2019-08-08T14:59:51Z</time>
      </trkpt>
      <trkpt lat="48.58448" lon="7.73492">
        <ele>143.4</ele>
        <time>2019-08-08T14:59:52Z</time>
      </trkpt>
      <trkpt lat="48.58445" lon="7.73488">
        <ele>143.5</ele>
        <time>2019-08-08T14:59:53Z</time>
      </trkpt>
      <trkpt lat="48.58444" lon="7.73483">
        <ele>143.6</ele>
        <time>2019-08-08T14:59:54Z</time>
      </trkpt>
      <trkpt lat="48.58442" lon="7.73476">
        <ele>143.8</ele>
        <time>2019-08-08T14:59:56Z</time>
      </trkpt>
      <trkpt lat="48.5844" lon="7.7347">
        <ele>144</ele>
        <time>2019-08-08T14:59:58Z</time>
      </trkpt>
      <trkpt lat="48.5844" lon="7.73464">
        <ele>144.1</ele>
        <time>2019-08-08T15:00:00Z</time>
      </trkpt>
      <trkpt lat="48.58439" lon="7.73459">
        <ele>144.2</ele>
        <time>2019-08-08T15:00:02Z</time>
      </trkpt>
      <trkpt lat="48.58439" lon="7.73453">
        <ele>144.2</ele>
        <time>2019-08-08T15:00:04Z</time>
      </trkpt>
      <trkpt lat="48.5844" lon="7.73448">
        <ele>144.2</ele>
        <time>2019-08-08T15:00:06Z</time>
      </trkpt>
      <trkpt lat="48.58436" lon="7.73444">
        <ele>144.2</ele>
        <time>2019-08-08T15:00:08Z</time>
      </trkpt>
      <trkpt lat="48.58433" lon="7.73442">
        <ele>144.2</ele>
        <time>2019-08-08T15:00:09Z</time>
      </trkpt>
      <trkpt lat="48.5843" lon="7.7344">
        <ele>144.3</ele>
        <time>2019-08-08T15:00:11Z</time>
      </trkpt>
      <trkpt lat="48.58425" lon="7.73438">
        <ele>144.3</ele>
        <time>2019-08-08T15:00:13Z</time>
      </trkpt>
      <trkpt lat="48.58421" lon="7.73433">
        <ele>144.3</ele>
        <time>2019-08-08T15:00:15Z</time>
      </trkpt>
      <trkpt lat="48.58419" lon="7.73428">
        <ele>144.3</ele>
        <time>2019-08-08T15:00:17Z</time>
      </trkpt>
      <trkpt lat="48.58417" lon="7.73423">
        <ele>144.5</ele>
        <time>2019-08-08T15:00:19Z</time>
      </trkpt>
      <trkpt lat="48.58404" lon="7.73418">
        <ele>145</ele>
        <time>2019-08-08T15:00:45Z</time>
      </trkpt>
      <trkpt lat="48.58403" lon="7.73414">
        <ele>144.9</ele>
        <time>2019-08-08T15:00:47Z</time>
      </trkpt>
      <trkpt lat="48.584" lon="7.73409">
        <ele>144.8</ele>
        <time>2019-08-08T15:00:48Z</time>
      </trkpt>
      <trkpt lat="48.58397" lon="7.73403">
        <ele>144.6</ele>
        <time>2019-08-08T15:00:50Z</time>
      </trkpt>
      <trkpt lat="48.58394" lon="7.73398">
        <ele>144.5</ele>
        <time>2019-08-08T15:00:52Z</time>
      </trkpt>
      <trkpt lat="48.5839" lon="7.73394">
        <ele>144.4</ele>
        <time>2019-08-08T15:00:53Z</time>
      </trkpt>
      <trkpt lat="48.58388" lon="7.73391">
        <ele>144.3</ele>
        <time>2019-08-08T15:00:54Z</time>
      </trkpt>
      <trkpt lat="48.58386" lon="7.73389">
        <ele>144.3</ele>
        <time>2019-08-08T15:00:55Z</time>
      </trkpt>
      <trkpt lat="48.58382" lon="7.73384">
        <ele>144.2</ele>
        <time>2019-08-08T15:00:57Z</time>
      </trkpt>
      <trkpt lat="48.5838" lon="7.7338">
        <ele>144.1</ele>
        <time>2019-08-08T15:00:59Z</time>
      </trkpt>
      <trkpt lat="48.58376" lon="7.73377">
        <ele>144.1</ele>
        <time>2019-08-08T15:01:01Z</time>
      </trkpt>
      <trkpt lat="48.58367" lon="7.73372">
        <ele>143.9</ele>
        <time>2019-08-08T15:01:03Z</time>
      </trkpt>
      <trkpt lat="48.58363" lon="7.73369">
        <ele>143.9</ele>
        <time>2019-08-08T15:01:04Z</time>
      </trkpt>
      <trkpt lat="48.58356" lon="7.73367">
        <ele>143.9</ele>
        <time>2019-08-08T15:01:05Z</time>
      </trkpt>
      <trkpt lat="48.58353" lon="7.73365">
        <ele>143.9</ele>
        <time>2019-08-08T15:01:06Z</time>
      </trkpt>
      <trkpt lat="48.5835" lon="7.73364">
        <ele>143.9</ele>
        <time>2019-08-08T15:01:07Z</time>
      </trkpt>
      <trkpt lat="48.58345" lon="7.73365">
        <ele>143.9</ele>
        <time>2019-08-08T15:01:08Z</time>
      </trkpt>
      <trkpt lat="48.58343" lon="7.73363">
        <ele>143.9</ele>
        <time>2019-08-08T15:01:09Z</time>
      </trkpt>
      <trkpt lat="48.5834" lon="7.73361">
        <ele>143.9</ele>
        <time>2019-08-08T15:01:10Z</time>
      </trkpt>
      <trkpt lat="48.58338" lon="7.73358">
        <ele>143.9</ele>
        <time>2019-08-08T15:01:11Z</time>
      </trkpt>
      <trkpt lat="48.58334" lon="7.73351">
        <ele>143.8</ele>
        <time>2019-08-08T15:01:13Z</time>
      </trkpt>
      <trkpt lat="48.58333" lon="7.73344">
        <ele>143.8</ele>
        <time>2019-08-08T15:01:14Z</time>
      </trkpt>
      <trkpt lat="48.58331" lon="7.7334">
        <ele>143.8</ele>
        <time>2019-08-08T15:01:15Z</time>
      </trkpt>
      <trkpt lat="48.58328" lon="7.73338">
        <ele>143.7</ele>
        <time>2019-08-08T15:01:16Z</time>
      </trkpt>
      <trkpt lat="48.58324" lon="7.73336">
        <ele>143.7</ele>
        <time>2019-08-08T15:01:17Z</time>
      </trkpt>
      <trkpt lat="48.5832" lon="7.73333">
        <ele>143.7</ele>
        <time>2019-08-08T15:01:18Z</time>
      </trkpt>
      <trkpt lat="48.58316" lon="7.73331">
        <ele>143.6</ele>
        <time>2019-08-08T15:01:19Z</time>
      </trkpt>
      <trkpt lat="48.58313" lon="7.73329">
        <ele>143.6</ele>
        <time>2019-08-08T15:01:20Z</time>
      </trkpt>
      <trkpt lat="48.5831" lon="7.73326">
        <ele>143.5</ele>
        <time>2019-08-08T15:01:21Z</time>
      </trkpt>
      <trkpt lat="48.58307" lon="7.73324">
        <ele>143.5</ele>
        <time>2019-08-08T15:01:22Z</time>
      </trkpt>
      <trkpt lat="48.58302" lon="7.73319">
        <ele>143.4</ele>
        <time>2019-08-08T15:01:24Z</time>
      </trkpt>
      <trkpt lat="48.58298" lon="7.73317">
        <ele>143.3</ele>
        <time>2019-08-08T15:01:25Z</time>
      </trkpt>
      <trkpt lat="48.58294" lon="7.73314">
        <ele>143.2</ele>
        <time>2019-08-08T15:01:26Z</time>
      </trkpt>
      <trkpt lat="48.58291" lon="7.73311">
        <ele>143.1</ele>
        <time>2019-08-08T15:01:27Z</time>
      </trkpt>
      <trkpt lat="48.58287" lon="7.73308">
        <ele>143.1</ele>
        <time>2019-08-08T15:01:28Z</time>
      </trkpt>
      <trkpt lat="48.58283" lon="7.73306">
        <ele>143</ele>
        <time>2019-08-08T15:01:29Z</time>
      </trkpt>
      <trkpt lat="48.58279" lon="7.73304">
        <ele>142.9</ele>
        <time>2019-08-08T15:01:30Z</time>
      </trkpt>
      <trkpt lat="48.58275" lon="7.73301">
        <ele>142.8</ele>
        <time>2019-08-08T15:01:31Z</time>
      </trkpt>
      <trkpt lat="48.5827" lon="7.73298">
        <ele>142.7</ele>
        <time>2019-08-08T15:01:32Z</time>
      </trkpt>
      <trkpt lat="48.58266" lon="7.73295">
        <ele>142.6</ele>
        <time>2019-08-08T15:01:33Z</time>
      </trkpt>
      <trkpt lat="48.58262" lon="7.73293">
        <ele>142.6</ele>
        <time>2019-08-08T15:01:34Z</time>
      </trkpt>
      <trkpt lat="48.58259" lon="7.73289">
        <ele>142.7</ele>
        <time>2019-08-08T15:01:35Z</time>
      </trkpt>
      <trkpt lat="48.58257" lon="7.73288">
        <ele>142.8</ele>
        <time>2019-08-08T15:01:36Z</time>
      </trkpt>
      <trkpt lat="48.58254" lon="7.73285">
        <ele>142.8</ele>
        <time>2019-08-08T15:01:37Z</time>
      </trkpt>
      <trkpt lat="48.58249" lon="7.73281">
        <ele>142.9</ele>
        <time>2019-08-08T15:01:38Z</time>
      </trkpt>
      <trkpt lat="48.58246" lon="7.73278">
        <ele>143</ele>
        <time>2019-08-08T15:01:39Z</time>
      </trkpt>
      <trkpt lat="48.58242" lon="7.73275">
        <ele>143.1</ele>
        <time>2019-08-08T15:01:40Z</time>
      </trkpt>
      <trkpt lat="48.5824" lon="7.73273">
        <ele>143.1</ele>
        <time>2019-08-08T15:01:41Z</time>
      </trkpt>
      <trkpt lat="48.58237" lon="7.73265">
        <ele>143.2</ele>
        <time>2019-08-08T15:01:43Z</time>
      </trkpt>
      <trkpt lat="48.58237" lon="7.73257">
        <ele>143.3</ele>
        <time>2019-08-08T15:01:44Z</time>
      </trkpt>
      <trkpt lat="48.58236" lon="7.73252">
        <ele>143.3</ele>
        <time>2019-08-08T15:01:45Z</time>
      </trkpt>
      <trkpt lat="48.58232" lon="7.73249">
        <ele>143.4</ele>
        <time>2019-08-08T15:01:47Z</time>
      </trkpt>
      <trkpt lat="48.58229" lon="7.73246">
        <ele>143.4</ele>
        <time>2019-08-08T15:01:48Z</time>
      </trkpt>
      <trkpt lat="48.58229" lon="7.73241">
        <ele>143.4</ele>
        <time>2019-08-08T15:01:50Z</time>
      </trkpt>
      <trkpt lat="48.58226" lon="7.73238">
        <ele>143.5</ele>
        <time>2019-08-08T15:01:51Z</time>
      </trkpt>
      <trkpt lat="48.58222" lon="7.73234">
        <ele>143.5</ele>
        <time>2019-08-08T15:01:53Z</time>
      </trkpt>
      <trkpt lat="48.58218" lon="7.73233">
        <ele>143.6</ele>
        <time>2019-08-08T15:01:54Z</time>
      </trkpt>
      <trkpt lat="48.58215" lon="7.73232">
        <ele>143.6</ele>
        <time>2019-08-08T15:01:55Z</time>
      </trkpt>
      <trkpt lat="48.58212" lon="7.7323">
        <ele>143.7</ele>
        <time>2019-08-08T15:01:56Z</time>
      </trkpt>
      <trkpt lat="48.5821" lon="7.73228">
        <ele>143.7</ele>
        <time>2019-08-08T15:01:57Z</time>
      </trkpt>
      <trkpt lat="48.58205" lon="7.73225">
        <ele>143.8</ele>
        <time>2019-08-08T15:01:59Z</time>
      </trkpt>
      <trkpt lat="48.58199" lon="7.73221">
        <ele>143.9</ele>
        <time>2019-08-08T15:02:01Z</time>
      </trkpt>
      <trkpt lat="48.58195" lon="7.73218">
        <ele>144</ele>
        <time>2019-08-08T15:02:02Z</time>
      </trkpt>
      <trkpt lat="48.58193" lon="7.73216">
        <ele>144</ele>
        <time>2019-08-08T15:02:03Z</time>
      </trkpt>
      <trkpt lat="48.5819" lon="7.73214">
        <ele>144</ele>
        <time>2019-08-08T15:02:04Z</time>
      </trkpt>
      <trkpt lat="48.58187" lon="7.73211">
        <ele>144.1</ele>
        <time>2019-08-08T15:02:05Z</time>
      </trkpt>
      <trkpt lat="48.58183" lon="7.73208">
        <ele>144.1</ele>
        <time>2019-08-08T15:02:06Z</time>
      </trkpt>
      <trkpt lat="48.58179" lon="7.73206">
        <ele>144.2</ele>
        <time>2019-08-08T15:02:07Z</time>
      </trkpt>
      <trkpt lat="48.58175" lon="7.73204">
        <ele>144.2</ele>
        <time>2019-08-08T15:02:08Z</time>
      </trkpt>
      <trkpt lat="48.5817" lon="7.73202">
        <ele>144.2</ele>
        <time>2019-08-08T15:02:09Z</time>
      </trkpt>
      <trkpt lat="48.58166" lon="7.732">
        <ele>144.2</ele>
        <time>2019-08-08T15:02:10Z</time>
      </trkpt>
      <trkpt lat="48.58161" lon="7.73199">
        <ele>144.3</ele>
        <time>2019-08-08T15:02:11Z</time>
      </trkpt>
      <trkpt lat="48.58158" lon="7.73198">
        <ele>144.3</ele>
        <time>2019-08-08T15:02:12Z</time>
      </trkpt>
      <trkpt lat="48.58153" lon="7.73196">
        <ele>144.3</ele>
        <time>2019-08-08T15:02:13Z</time>
      </trkpt>
      <trkpt lat="48.58148" lon="7.73193">
        <ele>144.3</ele>
        <time>2019-08-08T15:02:14Z</time>
      </trkpt>
      <trkpt lat="48.58143" lon="7.73192">
        <ele>144.3</ele>
        <time>2019-08-08T15:02:15Z</time>
      </trkpt>
      <trkpt lat="48.58139" lon="7.7319">
        <ele>144.3</ele>
        <time>2019-08-08T15:02:16Z</time>
      </trkpt>
      <trkpt lat="48.58135" lon="7.73188">
        <ele>144.3</ele>
        <time>2019-08-08T15:02:17Z</time>
      </trkpt>
      <trkpt lat="48.5813" lon="7.73186">
        <ele>144.3</ele>
        <time>2019-08-08T15:02:18Z</time>
      </trkpt>
      <trkpt lat="48.58126" lon="7.73184">
        <ele>144.3</ele>
        <time>2019-08-08T15:02:19Z</time>
      </trkpt>
      <trkpt lat="48.58124" lon="7.73183">
        <ele>144.3</ele>
        <time>2019-08-08T15:02:20Z</time>
      </trkpt>
      <trkpt lat="48.5812" lon="7.73179">
        <ele>144.3</ele>
        <time>2019-08-08T15:02:21Z</time>
      </trkpt>
      <trkpt lat="48.58116" lon="7.73177">
        <ele>144.3</ele>
        <time>2019-08-08T15:02:22Z</time>
      </trkpt>
      <trkpt lat="48.58111" lon="7.73177">
        <ele>144.3</ele>
        <time>2019-08-08T15:02:23Z</time>
      </trkpt>
      <trkpt lat="48.58107" lon="7.73175">
        <ele>144.2</ele>
        <time>2019-08-08T15:02:24Z</time>
      </trkpt>
      <trkpt lat="48.58103" lon="7.73177">
        <ele>144.2</ele>
        <time>2019-08-08T15:02:25Z</time>
      </trkpt>
      <trkpt lat="48.581" lon="7.73178">
        <ele>144.1</ele>
        <time>2019-08-08T15:02:26Z</time>
      </trkpt>
      <trkpt lat="48.58097" lon="7.73179">
        <ele>144.1</ele>
        <time>2019-08-08T15:02:27Z</time>
      </trkpt>
      <trkpt lat="48.58094" lon="7.73179">
        <ele>144.1</ele>
        <time>2019-08-08T15:02:28Z</time>
      </trkpt>
      <trkpt lat="48.5809" lon="7.73178">
        <ele>144</ele>
        <time>2019-08-08T15:02:29Z</time>
      </trkpt>
      <trkpt lat="48.58085" lon="7.73178">
        <ele>143.9</ele>
        <time>2019-08-08T15:02:30Z</time>
      </trkpt>
      <trkpt lat="48.5808" lon="7.73177">
        <ele>143.9</ele>
        <time>2019-08-08T15:02:31Z</time>
      </trkpt>
      <trkpt lat="48.58075" lon="7.73176">
        <ele>143.8</ele>
        <time>2019-08-08T15:02:32Z</time>
      </trkpt>
      <trkpt lat="48.58071" lon="7.73172">
        <ele>143.7</ele>
        <time>2019-08-08T15:02:33Z</time>
      </trkpt>
      <trkpt lat="48.58067" lon="7.7317">
        <ele>143.7</ele>
        <time>2019-08-08T15:02:34Z</time>
      </trkpt>
      <trkpt lat="48.58062" lon="7.73167">
        <ele>143.7</ele>
        <time>2019-08-08T15:02:35Z</time>
      </trkpt>
      <trkpt lat="48.58057" lon="7.73165">
        <ele>143.6</ele>
        <time>2019-08-08T15:02:36Z</time>
      </trkpt>
      <trkpt lat="48.58052" lon="7.73161">
        <ele>143.6</ele>
        <time>2019-08-08T15:02:37Z</time>
      </trkpt>
      <trkpt lat="48.58048" lon="7.73158">
        <ele>143.5</ele>
        <time>2019-08-08T15:02:38Z</time>
      </trkpt>
      <trkpt lat="48.58044" lon="7.73155">
        <ele>143.5</ele>
        <time>2019-08-08T15:02:39Z</time>
      </trkpt>
      <trkpt lat="48.58041" lon="7.73153">
        <ele>143.5</ele>
        <time>2019-08-08T15:02:40Z</time>
      </trkpt>
      <trkpt lat="48.58037" lon="7.73149">
        <ele>143.4</ele>
        <time>2019-08-08T15:02:41Z</time>
      </trkpt>
      <trkpt lat="48.58032" lon="7.73145">
        <ele>143.4</ele>
        <time>2019-08-08T15:02:42Z</time>
      </trkpt>
      <trkpt lat="48.58028" lon="7.73141">
        <ele>143.3</ele>
        <time>2019-08-08T15:02:43Z</time>
      </trkpt>
      <trkpt lat="48.58026" lon="7.73139">
        <ele>143.3</ele>
        <time>2019-08-08T15:02:44Z</time>
      </trkpt>
      <trkpt lat="48.58022" lon="7.73136">
        <ele>143.2</ele>
        <time>2019-08-08T15:02:45Z</time>
      </trkpt>
      <trkpt lat="48.58019" lon="7.73133">
        <ele>143.2</ele>
        <time>2019-08-08T15:02:46Z</time>
      </trkpt>
      <trkpt lat="48.58016" lon="7.7313">
        <ele>143.1</ele>
        <time>2019-08-08T15:02:47Z</time>
      </trkpt>
      <trkpt lat="48.58013" lon="7.73127">
        <ele>143</ele>
        <time>2019-08-08T15:02:48Z</time>
      </trkpt>
      <trkpt lat="48.5801" lon="7.73123">
        <ele>142.9</ele>
        <time>2019-08-08T15:02:49Z</time>
      </trkpt>
      <trkpt lat="48.58007" lon="7.73119">
        <ele>142.9</ele>
        <time>2019-08-08T15:02:50Z</time>
      </trkpt>
      <trkpt lat="48.58004" lon="7.73115">
        <ele>142.8</ele>
        <time>2019-08-08T15:02:51Z</time>
      </trkpt>
      <trkpt lat="48.57999" lon="7.73113">
        <ele>142.7</ele>
        <time>2019-08-08T15:02:52Z</time>
      </trkpt>
      <trkpt lat="48.57996" lon="7.73111">
        <ele>142.6</ele>
        <time>2019-08-08T15:02:53Z</time>
      </trkpt>
      <trkpt lat="48.57992" lon="7.73108">
        <ele>142.5</ele>
        <time>2019-08-08T15:02:54Z</time>
      </trkpt>
      <trkpt lat="48.57988" lon="7.73106">
        <ele>142.4</ele>
        <time>2019-08-08T15:02:55Z</time>
      </trkpt>
      <trkpt lat="48.57984" lon="7.73103">
        <ele>142.3</ele>
        <time>2019-08-08T15:02:56Z</time>
      </trkpt>
      <trkpt lat="48.57979" lon="7.731">
        <ele>142.3</ele>
        <time>2019-08-08T15:02:57Z</time>
      </trkpt>
      <trkpt lat="48.57976" lon="7.73097">
        <ele>142.2</ele>
        <time>2019-08-08T15:02:58Z</time>
      </trkpt>
      <trkpt lat="48.57973" lon="7.73093">
        <ele>142.2</ele>
        <time>2019-08-08T15:02:59Z</time>
      </trkpt>
      <trkpt lat="48.5797" lon="7.73092">
        <ele>142.1</ele>
        <time>2019-08-08T15:03:00Z</time>
      </trkpt>
      <trkpt lat="48.57967" lon="7.73091">
        <ele>142.1</ele>
        <time>2019-08-08T15:03:01Z</time>
      </trkpt>
      <trkpt lat="48.57967" lon="7.7308">
        <ele>142</ele>
        <time>2019-08-08T15:03:02Z</time>
      </trkpt>
      <trkpt lat="48.57966" lon="7.73076">
        <ele>142</ele>
        <time>2019-08-08T15:03:04Z</time>
      </trkpt>
      <trkpt lat="48.57966" lon="7.7307">
        <ele>141.9</ele>
        <time>2019-08-08T15:03:13Z</time>
      </trkpt>
      <trkpt lat="48.57964" lon="7.73067">
        <ele>141.9</ele>
        <time>2019-08-08T15:03:15Z</time>
      </trkpt>
      <trkpt lat="48.57964" lon="7.73061">
        <ele>141.9</ele>
        <time>2019-08-08T15:04:29Z</time>
      </trkpt>
      <trkpt lat="48.57963" lon="7.73058">
        <ele>141.9</ele>
        <time>2019-08-08T15:04:32Z</time>
      </trkpt>
      <trkpt lat="48.57959" lon="7.73058">
        <ele>141.7</ele>
        <time>2019-08-08T15:04:48Z</time>
      </trkpt>
      <trkpt lat="48.57956" lon="7.73058">
        <ele>141.7</ele>
        <time>2019-08-08T15:04:50Z</time>
      </trkpt>
      <trkpt lat="48.57951" lon="7.73059">
        <ele>141.7</ele>
        <time>2019-08-08T15:04:51Z</time>
      </trkpt>
      <trkpt lat="48.57948" lon="7.73061">
        <ele>141.6</ele>
        <time>2019-08-08T15:04:52Z</time>
      </trkpt>
      <trkpt lat="48.57945" lon="7.7306">
        <ele>141.5</ele>
        <time>2019-08-08T15:04:53Z</time>
      </trkpt>
      <trkpt lat="48.57942" lon="7.7306">
        <ele>141.5</ele>
        <time>2019-08-08T15:04:54Z</time>
      </trkpt>
      <trkpt lat="48.57935" lon="7.73061">
        <ele>141.5</ele>
        <time>2019-08-08T15:04:56Z</time>
      </trkpt>
      <trkpt lat="48.57931" lon="7.73061">
        <ele>141.6</ele>
        <time>2019-08-08T15:04:57Z</time>
      </trkpt>
      <trkpt lat="48.57927" lon="7.7306">
        <ele>141.6</ele>
        <time>2019-08-08T15:04:58Z</time>
      </trkpt>
      <trkpt lat="48.57924" lon="7.73058">
        <ele>141.7</ele>
        <time>2019-08-08T15:04:59Z</time>
      </trkpt>
      <trkpt lat="48.57921" lon="7.73055">
        <ele>141.8</ele>
        <time>2019-08-08T15:05:00Z</time>
      </trkpt>
      <trkpt lat="48.57917" lon="7.73052">
        <ele>141.9</ele>
        <time>2019-08-08T15:05:01Z</time>
      </trkpt>
      <trkpt lat="48.57913" lon="7.7305">
        <ele>142</ele>
        <time>2019-08-08T15:05:02Z</time>
      </trkpt>
      <trkpt lat="48.57908" lon="7.7305">
        <ele>142.2</ele>
        <time>2019-08-08T15:05:03Z</time>
      </trkpt>
      <trkpt lat="48.57904" lon="7.73049">
        <ele>142.3</ele>
        <time>2019-08-08T15:05:04Z</time>
      </trkpt>
      <trkpt lat="48.57901" lon="7.73048">
        <ele>142.4</ele>
        <time>2019-08-08T15:05:05Z</time>
      </trkpt>
      <trkpt lat="48.57897" lon="7.73046">
        <ele>142.5</ele>
        <time>2019-08-08T15:05:06Z</time>
      </trkpt>
      <trkpt lat="48.57893" lon="7.73043">
        <ele>142.6</ele>
        <time>2019-08-08T15:05:07Z</time>
      </trkpt>
      <trkpt lat="48.57889" lon="7.73042">
        <ele>142.8</ele>
        <time>2019-08-08T15:05:08Z</time>
      </trkpt>
      <trkpt lat="48.57885" lon="7.7304">
        <ele>142.9</ele>
        <time>2019-08-08T15:05:09Z</time>
      </trkpt>
      <trkpt lat="48.57882" lon="7.73039">
        <ele>143</ele>
        <time>2019-08-08T15:05:10Z</time>
      </trkpt>
      <trkpt lat="48.57877" lon="7.73037">
        <ele>143.1</ele>
        <time>2019-08-08T15:05:12Z</time>
      </trkpt>
      <trkpt lat="48.57873" lon="7.73039">
        <ele>143.3</ele>
        <time>2019-08-08T15:05:14Z</time>
      </trkpt>
      <trkpt lat="48.57869" lon="7.73039">
        <ele>143.4</ele>
        <time>2019-08-08T15:05:16Z</time>
      </trkpt>
      <trkpt lat="48.57866" lon="7.73038">
        <ele>143.5</ele>
        <time>2019-08-08T15:05:18Z</time>
      </trkpt>
      <trkpt lat="48.57862" lon="7.73042">
        <ele>143.6</ele>
        <time>2019-08-08T15:05:21Z</time>
      </trkpt>
      <trkpt lat="48.57859" lon="7.73043">
        <ele>143.6</ele>
        <time>2019-08-08T15:05:23Z</time>
      </trkpt>
      <trkpt lat="48.57855" lon="7.73043">
        <ele>143.7</ele>
        <time>2019-08-08T15:05:26Z</time>
      </trkpt>
      <trkpt lat="48.57853" lon="7.73048">
        <ele>143.8</ele>
        <time>2019-08-08T15:05:29Z</time>
      </trkpt>
      <trkpt lat="48.5785" lon="7.73052">
        <ele>143.8</ele>
        <time>2019-08-08T15:05:32Z</time>
      </trkpt>
      <trkpt lat="48.57848" lon="7.73056">
        <ele>143.9</ele>
        <time>2019-08-08T15:05:34Z</time>
      </trkpt>
      <trkpt lat="48.57845" lon="7.73059">
        <ele>144</ele>
        <time>2019-08-08T15:05:37Z</time>
      </trkpt>
      <trkpt lat="48.57842" lon="7.7306">
        <ele>144.1</ele>
        <time>2019-08-08T15:05:39Z</time>
      </trkpt>
      <trkpt lat="48.5784" lon="7.73067">
        <ele>144.2</ele>
        <time>2019-08-08T15:05:41Z</time>
      </trkpt>
      <trkpt lat="48.5784" lon="7.73072">
        <ele>144.3</ele>
        <time>2019-08-08T15:05:43Z</time>
      </trkpt>
      <trkpt lat="48.57839" lon="7.73076">
        <ele>144.3</ele>
        <time>2019-08-08T15:05:45Z</time>
      </trkpt>
      <trkpt lat="48.57837" lon="7.7308">
        <ele>144.4</ele>
        <time>2019-08-08T15:05:53Z</time>
      </trkpt>
      <trkpt lat="48.5783" lon="7.73082">
        <ele>144.5</ele>
        <time>2019-08-08T15:06:01Z</time>
      </trkpt>
      <trkpt lat="48.57827" lon="7.73082">
        <ele>144.5</ele>
        <time>2019-08-08T15:06:02Z</time>
      </trkpt>
      <trkpt lat="48.57823" lon="7.73083">
        <ele>144.6</ele>
        <time>2019-08-08T15:06:03Z</time>
      </trkpt>
      <trkpt lat="48.57819" lon="7.73082">
        <ele>144.7</ele>
        <time>2019-08-08T15:06:04Z</time>
      </trkpt>
      <trkpt lat="48.57815" lon="7.7308">
        <ele>144.9</ele>
        <time>2019-08-08T15:06:06Z</time>
      </trkpt>
      <trkpt lat="48.57812" lon="7.7308">
        <ele>145</ele>
        <time>2019-08-08T15:06:07Z</time>
      </trkpt>
      <trkpt lat="48.57808" lon="7.73081">
        <ele>145.1</ele>
        <time>2019-08-08T15:06:08Z</time>
      </trkpt>
      <trkpt lat="48.57805" lon="7.73081">
        <ele>145.2</ele>
        <time>2019-08-08T15:06:09Z</time>
      </trkpt>
      <trkpt lat="48.57801" lon="7.73079">
        <ele>145.5</ele>
        <time>2019-08-08T15:06:11Z</time>
      </trkpt>
      <trkpt lat="48.57796" lon="7.73078">
        <ele>145.7</ele>
        <time>2019-08-08T15:06:13Z</time>
      </trkpt>
      <trkpt lat="48.57793" lon="7.73079">
        <ele>145.8</ele>
        <time>2019-08-08T15:06:14Z</time>
      </trkpt>
      <trkpt lat="48.57791" lon="7.7308">
        <ele>146</ele>
        <time>2019-08-08T15:06:15Z</time>
      </trkpt>
      <trkpt lat="48.57786" lon="7.73081">
        <ele>146.1</ele>
        <time>2019-08-08T15:06:17Z</time>
      </trkpt>
      <trkpt lat="48.57784" lon="7.73082">
        <ele>146.2</ele>
        <time>2019-08-08T15:06:18Z</time>
      </trkpt>
      <trkpt lat="48.57779" lon="7.73083">
        <ele>146.4</ele>
        <time>2019-08-08T15:06:20Z</time>
      </trkpt>
      <trkpt lat="48.57776" lon="7.73085">
        <ele>146.5</ele>
        <time>2019-08-08T15:06:22Z</time>
      </trkpt>
      <trkpt lat="48.57771" lon="7.73087">
        <ele>146.7</ele>
        <time>2019-08-08T15:06:24Z</time>
      </trkpt>
      <trkpt lat="48.57767" lon="7.7309">
        <ele>146.9</ele>
        <time>2019-08-08T15:06:25Z</time>
      </trkpt>
      <trkpt lat="48.57763" lon="7.73095">
        <ele>147</ele>
        <time>2019-08-08T15:06:26Z</time>
      </trkpt>
      <trkpt lat="48.57759" lon="7.73098">
        <ele>147.2</ele>
        <time>2019-08-08T15:06:27Z</time>
      </trkpt>
      <trkpt lat="48.57754" lon="7.73101">
        <ele>147.4</ele>
        <time>2019-08-08T15:06:28Z</time>
      </trkpt>
      <trkpt lat="48.57749" lon="7.73103">
        <ele>147.2</ele>
        <time>2019-08-08T15:06:29Z</time>
      </trkpt>
      <trkpt lat="48.57744" lon="7.73105">
        <ele>146.8</ele>
        <time>2019-08-08T15:06:30Z</time>
      </trkpt>
      <trkpt lat="48.57741" lon="7.73106">
        <ele>146.5</ele>
        <time>2019-08-08T15:06:31Z</time>
      </trkpt>
      <trkpt lat="48.57736" lon="7.73109">
        <ele>146.1</ele>
        <time>2019-08-08T15:06:33Z</time>
      </trkpt>
      <trkpt lat="48.57733" lon="7.73111">
        <ele>145.8</ele>
        <time>2019-08-08T15:06:34Z</time>
      </trkpt>
      <trkpt lat="48.57728" lon="7.73113">
        <ele>145.5</ele>
        <time>2019-08-08T15:06:35Z</time>
      </trkpt>
      <trkpt lat="48.57725" lon="7.73115">
        <ele>145.3</ele>
        <time>2019-08-08T15:06:36Z</time>
      </trkpt>
      <trkpt lat="48.57721" lon="7.73116">
        <ele>145.2</ele>
        <time>2019-08-08T15:06:37Z</time>
      </trkpt>
      <trkpt lat="48.57719" lon="7.73117">
        <ele>145</ele>
        <time>2019-08-08T15:06:38Z</time>
      </trkpt>
      <trkpt lat="48.57715" lon="7.73118">
        <ele>144.9</ele>
        <time>2019-08-08T15:06:40Z</time>
      </trkpt>
      <trkpt lat="48.57711" lon="7.73121">
        <ele>144.7</ele>
        <time>2019-08-08T15:06:42Z</time>
      </trkpt>
      <trkpt lat="48.57709" lon="7.73124">
        <ele>144.6</ele>
        <time>2019-08-08T15:06:44Z</time>
      </trkpt>
      <trkpt lat="48.57705" lon="7.73126">
        <ele>144.4</ele>
        <time>2019-08-08T15:06:45Z</time>
      </trkpt>
      <trkpt lat="48.57699" lon="7.73128">
        <ele>144.2</ele>
        <time>2019-08-08T15:06:46Z</time>
      </trkpt>
      <trkpt lat="48.57694" lon="7.73129">
        <ele>143.9</ele>
        <time>2019-08-08T15:06:47Z</time>
      </trkpt>
      <trkpt lat="48.57689" lon="7.7313">
        <ele>143.7</ele>
        <time>2019-08-08T15:06:48Z</time>
      </trkpt>
      <trkpt lat="48.57685" lon="7.7313">
        <ele>143.5</ele>
        <time>2019-08-08T15:06:49Z</time>
      </trkpt>
      <trkpt lat="48.57682" lon="7.73131">
        <ele>143.4</ele>
        <time>2019-08-08T15:06:50Z</time>
      </trkpt>
      <trkpt lat="48.57678" lon="7.73132">
        <ele>143.3</ele>
        <time>2019-08-08T15:06:51Z</time>
      </trkpt>
      <trkpt lat="48.57674" lon="7.73134">
        <ele>143.3</ele>
        <time>2019-08-08T15:06:52Z</time>
      </trkpt>
      <trkpt lat="48.57671" lon="7.73134">
        <ele>143.3</ele>
        <time>2019-08-08T15:06:53Z</time>
      </trkpt>
      <trkpt lat="48.57666" lon="7.73134">
        <ele>143.2</ele>
        <time>2019-08-08T15:06:55Z</time>
      </trkpt>
      <trkpt lat="48.57662" lon="7.73138">
        <ele>143.1</ele>
        <time>2019-08-08T15:06:58Z</time>
      </trkpt>
      <trkpt lat="48.5766" lon="7.73141">
        <ele>143</ele>
        <time>2019-08-08T15:06:59Z</time>
      </trkpt>
      <trkpt lat="48.57656" lon="7.73146">
        <ele>142.9</ele>
        <time>2019-08-08T15:07:01Z</time>
      </trkpt>
      <trkpt lat="48.57654" lon="7.73149">
        <ele>142.8</ele>
        <time>2019-08-08T15:07:04Z</time>
      </trkpt>
      <trkpt lat="48.57651" lon="7.73152">
        <ele>142.7</ele>
        <time>2019-08-08T15:07:07Z</time>
      </trkpt>
      <trkpt lat="48.57649" lon="7.73155">
        <ele>142.6</ele>
        <time>2019-08-08T15:07:17Z</time>
      </trkpt>
      <trkpt lat="48.57645" lon="7.73154">
        <ele>142.5</ele>
        <time>2019-08-08T15:07:20Z</time>
      </trkpt>
      <trkpt lat="48.57642" lon="7.73154">
        <ele>142.4</ele>
        <time>2019-08-08T15:07:22Z</time>
      </trkpt>
      <trkpt lat="48.57639" lon="7.73155">
        <ele>142.3</ele>
        <time>2019-08-08T15:07:24Z</time>
      </trkpt>
      <trkpt lat="48.57635" lon="7.73157">
        <ele>142.3</ele>
        <time>2019-08-08T15:07:28Z</time>
      </trkpt>
      <trkpt lat="48.5763" lon="7.73158">
        <ele>142.2</ele>
        <time>2019-08-08T15:07:30Z</time>
      </trkpt>
      <trkpt lat="48.57627" lon="7.7316">
        <ele>142.2</ele>
        <time>2019-08-08T15:07:32Z</time>
      </trkpt>
      <trkpt lat="48.57625" lon="7.73163">
        <ele>142.1</ele>
        <time>2019-08-08T15:07:35Z</time>
      </trkpt>
      <trkpt lat="48.57624" lon="7.73158">
        <ele>142.1</ele>
        <time>2019-08-08T15:08:29Z</time>
      </trkpt>
      <trkpt lat="48.5762" lon="7.73156">
        <ele>142</ele>
        <time>2019-08-08T15:08:32Z</time>
      </trkpt>
      <trkpt lat="48.57617" lon="7.73153">
        <ele>142</ele>
        <time>2019-08-08T15:08:34Z</time>
      </trkpt>
      <trkpt lat="48.57616" lon="7.73148">
        <ele>142</ele>
        <time>2019-08-08T15:08:35Z</time>
      </trkpt>
      <trkpt lat="48.57614" lon="7.73145">
        <ele>141.9</ele>
        <time>2019-08-08T15:08:36Z</time>
      </trkpt>
      <trkpt lat="48.57611" lon="7.7314">
        <ele>141.9</ele>
        <time>2019-08-08T15:08:38Z</time>
      </trkpt>
      <trkpt lat="48.57607" lon="7.73134">
        <ele>142</ele>
        <time>2019-08-08T15:08:40Z</time>
      </trkpt>
      <trkpt lat="48.57604" lon="7.73132">
        <ele>142</ele>
        <time>2019-08-08T15:08:41Z</time>
      </trkpt>
      <trkpt lat="48.57601" lon="7.73128">
        <ele>142</ele>
        <time>2019-08-08T15:08:42Z</time>
      </trkpt>
      <trkpt lat="48.57598" lon="7.73124">
        <ele>142</ele>
        <time>2019-08-08T15:08:43Z</time>
      </trkpt>
      <trkpt lat="48.57595" lon="7.73119">
        <ele>142.1</ele>
        <time>2019-08-08T15:08:44Z</time>
      </trkpt>
      <trkpt lat="48.57593" lon="7.73114">
        <ele>142.1</ele>
        <time>2019-08-08T15:08:45Z</time>
      </trkpt>
      <trkpt lat="48.57589" lon="7.73109">
        <ele>142.1</ele>
        <time>2019-08-08T15:08:46Z</time>
      </trkpt>
      <trkpt lat="48.57585" lon="7.73105">
        <ele>142.1</ele>
        <time>2019-08-08T15:08:47Z</time>
      </trkpt>
      <trkpt lat="48.57582" lon="7.73101">
        <ele>142.1</ele>
        <time>2019-08-08T15:08:48Z</time>
      </trkpt>
      <trkpt lat="48.57579" lon="7.73098">
        <ele>142.1</ele>
        <time>2019-08-08T15:08:49Z</time>
      </trkpt>
      <trkpt lat="48.57576" lon="7.73095">
        <ele>142.1</ele>
        <time>2019-08-08T15:08:50Z</time>
      </trkpt>
      <trkpt lat="48.57574" lon="7.73092">
        <ele>142.2</ele>
        <time>2019-08-08T15:08:51Z</time>
      </trkpt>
      <trkpt lat="48.57571" lon="7.73087">
        <ele>142.2</ele>
        <time>2019-08-08T15:08:53Z</time>
      </trkpt>
      <trkpt lat="48.57568" lon="7.73083">
        <ele>142.2</ele>
        <time>2019-08-08T15:08:55Z</time>
      </trkpt>
      <trkpt lat="48.57565" lon="7.73079">
        <ele>142.2</ele>
        <time>2019-08-08T15:08:57Z</time>
      </trkpt>
      <trkpt lat="48.57563" lon="7.73076">
        <ele>142.3</ele>
        <time>2019-08-08T15:08:59Z</time>
      </trkpt>
      <trkpt lat="48.57559" lon="7.73072">
        <ele>142.3</ele>
        <time>2019-08-08T15:09:02Z</time>
      </trkpt>
      <trkpt lat="48.57554" lon="7.7307">
        <ele>142.3</ele>
        <time>2019-08-08T15:09:04Z</time>
      </trkpt>
      <trkpt lat="48.57551" lon="7.73068">
        <ele>142.3</ele>
        <time>2019-08-08T15:09:05Z</time>
      </trkpt>
      <trkpt lat="48.57548" lon="7.73066">
        <ele>142.3</ele>
        <time>2019-08-08T15:09:06Z</time>
      </trkpt>
      <trkpt lat="48.57545" lon="7.73063">
        <ele>142.3</ele>
        <time>2019-08-08T15:09:07Z</time>
      </trkpt>
      <trkpt lat="48.57542" lon="7.7306">
        <ele>142.2</ele>
        <time>2019-08-08T15:09:08Z</time>
      </trkpt>
      <trkpt lat="48.57539" lon="7.73058">
        <ele>142.1</ele>
        <time>2019-08-08T15:09:09Z</time>
      </trkpt>
      <trkpt lat="48.57536" lon="7.73056">
        <ele>142.1</ele>
        <time>2019-08-08T15:09:10Z</time>
      </trkpt>
      <trkpt lat="48.57533" lon="7.73054">
        <ele>142.1</ele>
        <time>2019-08-08T15:09:11Z</time>
      </trkpt>
      <trkpt lat="48.5753" lon="7.73052">
        <ele>142</ele>
        <time>2019-08-08T15:09:12Z</time>
      </trkpt>
      <trkpt lat="48.57525" lon="7.73046">
        <ele>142</ele>
        <time>2019-08-08T15:09:13Z</time>
      </trkpt>
      <trkpt lat="48.57522" lon="7.73042">
        <ele>141.9</ele>
        <time>2019-08-08T15:09:14Z</time>
      </trkpt>
      <trkpt lat="48.57518" lon="7.73038">
        <ele>141.8</ele>
        <time>2019-08-08T15:09:15Z</time>
      </trkpt>
      <trkpt lat="48.57514" lon="7.73034">
        <ele>141.8</ele>
        <time>2019-08-08T15:09:16Z</time>
      </trkpt>
      <trkpt lat="48.57511" lon="7.7303">
        <ele>141.7</ele>
        <time>2019-08-08T15:09:17Z</time>
      </trkpt>
      <trkpt lat="48.57509" lon="7.73025">
        <ele>141.7</ele>
        <time>2019-08-08T15:09:18Z</time>
      </trkpt>
      <trkpt lat="48.57507" lon="7.7302">
        <ele>141.6</ele>
        <time>2019-08-08T15:09:19Z</time>
      </trkpt>
      <trkpt lat="48.57506" lon="7.73016">
        <ele>141.5</ele>
        <time>2019-08-08T15:09:20Z</time>
      </trkpt>
      <trkpt lat="48.57505" lon="7.73012">
        <ele>141.5</ele>
        <time>2019-08-08T15:09:21Z</time>
      </trkpt>
      <trkpt lat="48.57501" lon="7.7301">
        <ele>141.5</ele>
        <time>2019-08-08T15:09:23Z</time>
      </trkpt>
      <trkpt lat="48.57498" lon="7.7301">
        <ele>141.5</ele>
        <time>2019-08-08T15:09:26Z</time>
      </trkpt>
      <trkpt lat="48.57493" lon="7.73008">
        <ele>141.5</ele>
        <time>2019-08-08T15:09:29Z</time>
      </trkpt>
      <trkpt lat="48.57488" lon="7.73008">
        <ele>141.5</ele>
        <time>2019-08-08T15:09:34Z</time>
      </trkpt>
      <trkpt lat="48.57491" lon="7.73008">
        <ele>141.4</ele>
        <time>2019-08-08T15:09:40Z</time>
      </trkpt>
      <trkpt lat="48.57494" lon="7.7301">
        <ele>141.4</ele>
        <time>2019-08-08T15:09:43Z</time>
      </trkpt>
      <trkpt lat="48.57493" lon="7.73014">
        <ele>141.3</ele>
        <time>2019-08-08T15:09:45Z</time>
      </trkpt>
      <trkpt lat="48.57496" lon="7.73015">
        <ele>141.3</ele>
        <time>2019-08-08T15:09:52Z</time>
      </trkpt>
      <trkpt lat="48.57499" lon="7.73017">
        <ele>141.3</ele>
        <time>2019-08-08T15:10:03Z</time>
      </trkpt>
      <trkpt lat="48.57503" lon="7.73013">
        <ele>141.3</ele>
        <time>2019-08-08T15:10:05Z</time>
      </trkpt>
      <trkpt lat="48.57505" lon="7.73007">
        <ele>141.3</ele>
        <time>2019-08-08T15:10:07Z</time>
      </trkpt>
      <trkpt lat="48.57507" lon="7.73003">
        <ele>141.3</ele>
        <time>2019-08-08T15:10:08Z</time>
      </trkpt>
      <trkpt lat="48.57509" lon="7.72999">
        <ele>141.3</ele>
        <time>2019-08-08T15:10:09Z</time>
      </trkpt>
      <trkpt lat="48.57511" lon="7.72994">
        <ele>141.3</ele>
        <time>2019-08-08T15:10:10Z</time>
      </trkpt>
      <trkpt lat="48.57513" lon="7.72991">
        <ele>141.4</ele>
        <time>2019-08-08T15:10:11Z</time>
      </trkpt>
      <trkpt lat="48.57515" lon="7.72988">
        <ele>141.4</ele>
        <time>2019-08-08T15:10:12Z</time>
      </trkpt>
      <trkpt lat="48.57517" lon="7.72985">
        <ele>141.4</ele>
        <time>2019-08-08T15:10:13Z</time>
      </trkpt>
      <trkpt lat="48.57519" lon="7.72982">
        <ele>141.4</ele>
        <time>2019-08-08T15:10:14Z</time>
      </trkpt>
      <trkpt lat="48.57522" lon="7.72979">
        <ele>141.4</ele>
        <time>2019-08-08T15:10:15Z</time>
      </trkpt>
      <trkpt lat="48.57525" lon="7.72976">
        <ele>141.4</ele>
        <time>2019-08-08T15:10:17Z</time>
      </trkpt>
      <trkpt lat="48.57527" lon="7.72972">
        <ele>141.4</ele>
        <time>2019-08-08T15:10:18Z</time>
      </trkpt>
      <trkpt lat="48.57531" lon="7.72968">
        <ele>141.4</ele>
        <time>2019-08-08T15:10:19Z</time>
      </trkpt>
      <trkpt lat="48.57535" lon="7.72964">
        <ele>141.4</ele>
        <time>2019-08-08T15:10:21Z</time>
      </trkpt>
      <trkpt lat="48.57539" lon="7.72958">
        <ele>141.4</ele>
        <time>2019-08-08T15:10:23Z</time>
      </trkpt>
      <trkpt lat="48.57542" lon="7.72955">
        <ele>141.1</ele>
        <time>2019-08-08T15:10:24Z</time>
      </trkpt>
      <trkpt lat="48.57545" lon="7.72953">
        <ele>141</ele>
        <time>2019-08-08T15:10:25Z</time>
      </trkpt>
      <trkpt lat="48.57547" lon="7.72951">
        <ele>140.8</ele>
        <time>2019-08-08T15:10:26Z</time>
      </trkpt>
      <trkpt lat="48.5755" lon="7.72949">
        <ele>140.6</ele>
        <time>2019-08-08T15:10:27Z</time>
      </trkpt>
      <trkpt lat="48.57553" lon="7.72945">
        <ele>140.4</ele>
        <time>2019-08-08T15:10:28Z</time>
      </trkpt>
      <trkpt lat="48.57556" lon="7.72942">
        <ele>140.2</ele>
        <time>2019-08-08T15:10:29Z</time>
      </trkpt>
      <trkpt lat="48.57559" lon="7.72937">
        <ele>140.1</ele>
        <time>2019-08-08T15:10:30Z</time>
      </trkpt>
      <trkpt lat="48.57561" lon="7.72933">
        <ele>140</ele>
        <time>2019-08-08T15:10:31Z</time>
      </trkpt>
      <trkpt lat="48.57567" lon="7.72927">
        <ele>139.8</ele>
        <time>2019-08-08T15:10:33Z</time>
      </trkpt>
      <trkpt lat="48.57571" lon="7.72924">
        <ele>139.7</ele>
        <time>2019-08-08T15:10:34Z</time>
      </trkpt>
      <trkpt lat="48.57575" lon="7.72921">
        <ele>139.7</ele>
        <time>2019-08-08T15:10:35Z</time>
      </trkpt>
      <trkpt lat="48.57578" lon="7.72918">
        <ele>139.7</ele>
        <time>2019-08-08T15:10:36Z</time>
      </trkpt>
      <trkpt lat="48.57581" lon="7.72914">
        <ele>139.6</ele>
        <time>2019-08-08T15:10:37Z</time>
      </trkpt>
      <trkpt lat="48.57585" lon="7.72909">
        <ele>139.6</ele>
        <time>2019-08-08T15:10:38Z</time>
      </trkpt>
      <trkpt lat="48.57587" lon="7.72906">
        <ele>139.5</ele>
        <time>2019-08-08T15:10:39Z</time>
      </trkpt>
      <trkpt lat="48.57589" lon="7.72902">
        <ele>139.5</ele>
        <time>2019-08-08T15:10:40Z</time>
      </trkpt>
      <trkpt lat="48.57592" lon="7.72899">
        <ele>139.4</ele>
        <time>2019-08-08T15:10:41Z</time>
      </trkpt>
      <trkpt lat="48.57597" lon="7.72897">
        <ele>139.3</ele>
        <time>2019-08-08T15:10:42Z</time>
      </trkpt>
      <trkpt lat="48.57602" lon="7.72893">
        <ele>139.1</ele>
        <time>2019-08-08T15:10:43Z</time>
      </trkpt>
      <trkpt lat="48.57606" lon="7.72887">
        <ele>139.1</ele>
        <time>2019-08-08T15:10:44Z</time>
      </trkpt>
      <trkpt lat="48.57611" lon="7.72884">
        <ele>139.2</ele>
        <time>2019-08-08T15:10:45Z</time>
      </trkpt>
      <trkpt lat="48.57615" lon="7.72881">
        <ele>139.2</ele>
        <time>2019-08-08T15:10:46Z</time>
      </trkpt>
      <trkpt lat="48.57618" lon="7.7288">
        <ele>139.3</ele>
        <time>2019-08-08T15:10:47Z</time>
      </trkpt>
      <trkpt lat="48.57621" lon="7.72879">
        <ele>139.3</ele>
        <time>2019-08-08T15:10:48Z</time>
      </trkpt>
      <trkpt lat="48.57625" lon="7.72877">
        <ele>139.3</ele>
        <time>2019-08-08T15:10:49Z</time>
      </trkpt>
      <trkpt lat="48.57629" lon="7.72876">
        <ele>139.4</ele>
        <time>2019-08-08T15:10:50Z</time>
      </trkpt>
      <trkpt lat="48.57634" lon="7.72873">
        <ele>139.5</ele>
        <time>2019-08-08T15:10:51Z</time>
      </trkpt>
      <trkpt lat="48.57639" lon="7.72871">
        <ele>139.6</ele>
        <time>2019-08-08T15:10:52Z</time>
      </trkpt>
      <trkpt lat="48.57642" lon="7.72868">
        <ele>139.7</ele>
        <time>2019-08-08T15:10:53Z</time>
      </trkpt>
      <trkpt lat="48.57645" lon="7.72866">
        <ele>139.8</ele>
        <time>2019-08-08T15:10:54Z</time>
      </trkpt>
      <trkpt lat="48.57649" lon="7.72864">
        <ele>139.9</ele>
        <time>2019-08-08T15:10:55Z</time>
      </trkpt>
      <trkpt lat="48.57654" lon="7.72862">
        <ele>140.3</ele>
        <time>2019-08-08T15:10:57Z</time>
      </trkpt>
      <trkpt lat="48.57657" lon="7.72859">
        <ele>140.4</ele>
        <time>2019-08-08T15:10:58Z</time>
      </trkpt>
      <trkpt lat="48.5766" lon="7.72857">
        <ele>140.5</ele>
        <time>2019-08-08T15:10:59Z</time>
      </trkpt>
      <trkpt lat="48.57664" lon="7.72853">
        <ele>140.6</ele>
        <time>2019-08-08T15:11:00Z</time>
      </trkpt>
      <trkpt lat="48.57667" lon="7.7285">
        <ele>140.7</ele>
        <time>2019-08-08T15:11:01Z</time>
      </trkpt>
      <trkpt lat="48.5767" lon="7.72849">
        <ele>140.8</ele>
        <time>2019-08-08T15:11:02Z</time>
      </trkpt>
      <trkpt lat="48.57673" lon="7.72846">
        <ele>140.9</ele>
        <time>2019-08-08T15:11:03Z</time>
      </trkpt>
      <trkpt lat="48.57676" lon="7.72845">
        <ele>141</ele>
        <time>2019-08-08T15:11:04Z</time>
      </trkpt>
      <trkpt lat="48.5768" lon="7.72843">
        <ele>141.1</ele>
        <time>2019-08-08T15:11:06Z</time>
      </trkpt>
      <trkpt lat="48.57684" lon="7.72843">
        <ele>141.2</ele>
        <time>2019-08-08T15:11:07Z</time>
      </trkpt>
      <trkpt lat="48.57689" lon="7.7284">
        <ele>141.4</ele>
        <time>2019-08-08T15:11:09Z</time>
      </trkpt>
      <trkpt lat="48.57692" lon="7.72837">
        <ele>141.4</ele>
        <time>2019-08-08T15:11:10Z</time>
      </trkpt>
      <trkpt lat="48.57696" lon="7.72833">
        <ele>141.6</ele>
        <time>2019-08-08T15:11:12Z</time>
      </trkpt>
      <trkpt lat="48.57699" lon="7.72831">
        <ele>141.6</ele>
        <time>2019-08-08T15:11:15Z</time>
      </trkpt>
      <trkpt lat="48.577" lon="7.72826">
        <ele>141.7</ele>
        <time>2019-08-08T15:11:17Z</time>
      </trkpt>
      <trkpt lat="48.57703" lon="7.72828">
        <ele>141.7</ele>
        <time>2019-08-08T15:11:20Z</time>
      </trkpt>
      <trkpt lat="48.57707" lon="7.72828">
        <ele>141.8</ele>
        <time>2019-08-08T15:11:22Z</time>
      </trkpt>
      <trkpt lat="48.57711" lon="7.72825">
        <ele>141.8</ele>
        <time>2019-08-08T15:11:27Z</time>
      </trkpt>
      <trkpt lat="48.57715" lon="7.72824">
        <ele>141.8</ele>
        <time>2019-08-08T15:11:29Z</time>
      </trkpt>
      <trkpt lat="48.5772" lon="7.72822">
        <ele>141.8</ele>
        <time>2019-08-08T15:11:31Z</time>
      </trkpt>
      <trkpt lat="48.57725" lon="7.7282">
        <ele>141.8</ele>
        <time>2019-08-08T15:11:32Z</time>
      </trkpt>
      <trkpt lat="48.5773" lon="7.72819">
        <ele>141.8</ele>
        <time>2019-08-08T15:11:33Z</time>
      </trkpt>
      <trkpt lat="48.57734" lon="7.72819">
        <ele>141.9</ele>
        <time>2019-08-08T15:11:34Z</time>
      </trkpt>
      <trkpt lat="48.57738" lon="7.7282">
        <ele>141.9</ele>
        <time>2019-08-08T15:11:35Z</time>
      </trkpt>
      <trkpt lat="48.57745" lon="7.72824">
        <ele>142.1</ele>
        <time>2019-08-08T15:11:36Z</time>
      </trkpt>
      <trkpt lat="48.57749" lon="7.72826">
        <ele>142.2</ele>
        <time>2019-08-08T15:11:37Z</time>
      </trkpt>
      <trkpt lat="48.57753" lon="7.72824">
        <ele>142.3</ele>
        <time>2019-08-08T15:11:39Z</time>
      </trkpt>
      <trkpt lat="48.57756" lon="7.72823">
        <ele>142.4</ele>
        <time>2019-08-08T15:11:40Z</time>
      </trkpt>
      <trkpt lat="48.57759" lon="7.72821">
        <ele>142.5</ele>
        <time>2019-08-08T15:11:42Z</time>
      </trkpt>
      <trkpt lat="48.57764" lon="7.72821">
        <ele>142.6</ele>
        <time>2019-08-08T15:11:44Z</time>
      </trkpt>
      <trkpt lat="48.57769" lon="7.72821">
        <ele>142.7</ele>
        <time>2019-08-08T15:11:46Z</time>
      </trkpt>
      <trkpt lat="48.57773" lon="7.72821">
        <ele>142.7</ele>
        <time>2019-08-08T15:11:48Z</time>
      </trkpt>
      <trkpt lat="48.57776" lon="7.7282">
        <ele>142.8</ele>
        <time>2019-08-08T15:11:52Z</time>
      </trkpt>
      <trkpt lat="48.57796" lon="7.72783">
        <ele>142.5</ele>
        <time>2019-08-08T15:16:40Z</time>
      </trkpt>
      <trkpt lat="48.578" lon="7.72788">
        <ele>142.4</ele>
        <time>2019-08-08T15:16:43Z</time>
      </trkpt>
      <trkpt lat="48.57803" lon="7.72791">
        <ele>142.3</ele>
        <time>2019-08-08T15:16:44Z</time>
      </trkpt>
      <trkpt lat="48.57805" lon="7.72794">
        <ele>142.3</ele>
        <time>2019-08-08T15:16:45Z</time>
      </trkpt>
      <trkpt lat="48.5781" lon="7.728">
        <ele>142.2</ele>
        <time>2019-08-08T15:16:46Z</time>
      </trkpt>
      <trkpt lat="48.57814" lon="7.72804">
        <ele>142.1</ele>
        <time>2019-08-08T15:16:47Z</time>
      </trkpt>
      <trkpt lat="48.57816" lon="7.72806">
        <ele>142.1</ele>
        <time>2019-08-08T15:16:48Z</time>
      </trkpt>
      <trkpt lat="48.5782" lon="7.72809">
        <ele>142</ele>
        <time>2019-08-08T15:16:50Z</time>
      </trkpt>
      <trkpt lat="48.57823" lon="7.72813">
        <ele>142</ele>
        <time>2019-08-08T15:16:52Z</time>
      </trkpt>
      <trkpt lat="48.57825" lon="7.72816">
        <ele>141.9</ele>
        <time>2019-08-08T15:16:53Z</time>
      </trkpt>
      <trkpt lat="48.57829" lon="7.7282">
        <ele>141.9</ele>
        <time>2019-08-08T15:16:54Z</time>
      </trkpt>
      <trkpt lat="48.57832" lon="7.72824">
        <ele>141.8</ele>
        <time>2019-08-08T15:16:55Z</time>
      </trkpt>
      <trkpt lat="48.57834" lon="7.7283">
        <ele>141.7</ele>
        <time>2019-08-08T15:16:56Z</time>
      </trkpt>
      <trkpt lat="48.57836" lon="7.72835">
        <ele>141.7</ele>
        <time>2019-08-08T15:16:57Z</time>
      </trkpt>
      <trkpt lat="48.57838" lon="7.72839">
        <ele>141.6</ele>
        <time>2019-08-08T15:16:58Z</time>
      </trkpt>
      <trkpt lat="48.57843" lon="7.72844">
        <ele>141.5</ele>
        <time>2019-08-08T15:17:00Z</time>
      </trkpt>
      <trkpt lat="48.57846" lon="7.72844">
        <ele>141.4</ele>
        <time>2019-08-08T15:17:01Z</time>
      </trkpt>
      <trkpt lat="48.57849" lon="7.72847">
        <ele>141.4</ele>
        <time>2019-08-08T15:17:03Z</time>
      </trkpt>
      <trkpt lat="48.57853" lon="7.72849">
        <ele>141.3</ele>
        <time>2019-08-08T15:17:05Z</time>
      </trkpt>
      <trkpt lat="48.57855" lon="7.72849">
        <ele>141.3</ele>
        <time>2019-08-08T15:17:07Z</time>
      </trkpt>
      <trkpt lat="48.57859" lon="7.72849">
        <ele>141</ele>
        <time>2019-08-08T15:17:08Z</time>
      </trkpt>
      <trkpt lat="48.57862" lon="7.72849">
        <ele>140.9</ele>
        <time>2019-08-08T15:17:09Z</time>
      </trkpt>
      <trkpt lat="48.57865" lon="7.72846">
        <ele>140.8</ele>
        <time>2019-08-08T15:17:11Z</time>
      </trkpt>
      <trkpt lat="48.57868" lon="7.7284">
        <ele>140.2</ele>
        <time>2019-08-08T15:17:13Z</time>
      </trkpt>
      <trkpt lat="48.5787" lon="7.72837">
        <ele>140.2</ele>
        <time>2019-08-08T15:17:14Z</time>
      </trkpt>
      <trkpt lat="48.57872" lon="7.72833">
        <ele>140.2</ele>
        <time>2019-08-08T15:17:15Z</time>
      </trkpt>
      <trkpt lat="48.57874" lon="7.7283">
        <ele>140.2</ele>
        <time>2019-08-08T15:17:17Z</time>
      </trkpt>
      <trkpt lat="48.57877" lon="7.72826">
        <ele>140.3</ele>
        <time>2019-08-08T15:17:21Z</time>
      </trkpt>
      <trkpt lat="48.5788" lon="7.72823">
        <ele>140.3</ele>
        <time>2019-08-08T15:17:22Z</time>
      </trkpt>
      <trkpt lat="48.57883" lon="7.72822">
        <ele>140.3</ele>
        <time>2019-08-08T15:17:23Z</time>
      </trkpt>
      <trkpt lat="48.57889" lon="7.7282">
        <ele>140.4</ele>
        <time>2019-08-08T15:17:24Z</time>
      </trkpt>
      <trkpt lat="48.57894" lon="7.72821">
        <ele>140.5</ele>
        <time>2019-08-08T15:17:25Z</time>
      </trkpt>
      <trkpt lat="48.57898" lon="7.7282">
        <ele>140.5</ele>
        <time>2019-08-08T15:17:26Z</time>
      </trkpt>
      <trkpt lat="48.57902" lon="7.72818">
        <ele>140.5</ele>
        <time>2019-08-08T15:17:27Z</time>
      </trkpt>
      <trkpt lat="48.57905" lon="7.72815">
        <ele>140.5</ele>
        <time>2019-08-08T15:17:28Z</time>
      </trkpt>
      <trkpt lat="48.57908" lon="7.72812">
        <ele>140.5</ele>
        <time>2019-08-08T15:17:29Z</time>
      </trkpt>
      <trkpt lat="48.57911" lon="7.72809">
        <ele>140.4</ele>
        <time>2019-08-08T15:17:30Z</time>
      </trkpt>
      <trkpt lat="48.57915" lon="7.72805">
        <ele>140.4</ele>
        <time>2019-08-08T15:17:31Z</time>
      </trkpt>
      <trkpt lat="48.57918" lon="7.72802">
        <ele>140.3</ele>
        <time>2019-08-08T15:17:32Z</time>
      </trkpt>
      <trkpt lat="48.57923" lon="7.72801">
        <ele>140.3</ele>
        <time>2019-08-08T15:17:33Z</time>
      </trkpt>
      <trkpt lat="48.57927" lon="7.728">
        <ele>140.3</ele>
        <time>2019-08-08T15:17:34Z</time>
      </trkpt>
      <trkpt lat="48.5793" lon="7.72798">
        <ele>140.2</ele>
        <time>2019-08-08T15:17:35Z</time>
      </trkpt>
      <trkpt lat="48.57933" lon="7.72797">
        <ele>140.2</ele>
        <time>2019-08-08T15:17:36Z</time>
      </trkpt>
      <trkpt lat="48.57936" lon="7.72795">
        <ele>140.2</ele>
        <time>2019-08-08T15:17:37Z</time>
      </trkpt>
      <trkpt lat="48.5794" lon="7.72793">
        <ele>140.3</ele>
        <time>2019-08-08T15:17:38Z</time>
      </trkpt>
      <trkpt lat="48.57943" lon="7.72792">
        <ele>140.3</ele>
        <time>2019-08-08T15:17:39Z</time>
      </trkpt>
      <trkpt lat="48.57946" lon="7.7279">
        <ele>140.3</ele>
        <time>2019-08-08T15:17:40Z</time>
      </trkpt>
      <trkpt lat="48.5795" lon="7.72789">
        <ele>140.3</ele>
        <time>2019-08-08T15:17:41Z</time>
      </trkpt>
      <trkpt lat="48.57953" lon="7.72788">
        <ele>140.3</ele>
        <time>2019-08-08T15:17:42Z</time>
      </trkpt>
      <trkpt lat="48.57956" lon="7.72788">
        <ele>140.4</ele>
        <time>2019-08-08T15:17:43Z</time>
      </trkpt>
      <trkpt lat="48.57961" lon="7.72788">
        <ele>140.4</ele>
        <time>2019-08-08T15:17:44Z</time>
      </trkpt>
      <trkpt lat="48.57965" lon="7.72788">
        <ele>140.4</ele>
        <time>2019-08-08T15:17:45Z</time>
      </trkpt>
      <trkpt lat="48.57969" lon="7.72787">
        <ele>140.4</ele>
        <time>2019-08-08T15:17:46Z</time>
      </trkpt>
      <trkpt lat="48.57973" lon="7.72787">
        <ele>140.4</ele>
        <time>2019-08-08T15:17:47Z</time>
      </trkpt>
      <trkpt lat="48.57978" lon="7.72787">
        <ele>140.4</ele>
        <time>2019-08-08T15:17:48Z</time>
      </trkpt>
      <trkpt lat="48.57982" lon="7.72787">
        <ele>140.4</ele>
        <time>2019-08-08T15:17:49Z</time>
      </trkpt>
      <trkpt lat="48.57986" lon="7.72788">
        <ele>140.4</ele>
        <time>2019-08-08T15:17:50Z</time>
      </trkpt>
      <trkpt lat="48.57991" lon="7.72788">
        <ele>140.4</ele>
        <time>2019-08-08T15:17:51Z</time>
      </trkpt>
      <trkpt lat="48.57995" lon="7.7279">
        <ele>140.3</ele>
        <time>2019-08-08T15:17:52Z</time>
      </trkpt>
      <trkpt lat="48.57999" lon="7.7279">
        <ele>140.3</ele>
        <time>2019-08-08T15:17:53Z</time>
      </trkpt>
      <trkpt lat="48.58003" lon="7.7279">
        <ele>140.3</ele>
        <time>2019-08-08T15:17:54Z</time>
      </trkpt>
      <trkpt lat="48.58007" lon="7.7279">
        <ele>140.3</ele>
        <time>2019-08-08T15:17:55Z</time>
      </trkpt>
      <trkpt lat="48.58011" lon="7.7279">
        <ele>140.2</ele>
        <time>2019-08-08T15:17:56Z</time>
      </trkpt>
      <trkpt lat="48.58014" lon="7.7279">
        <ele>140.2</ele>
        <time>2019-08-08T15:17:57Z</time>
      </trkpt>
      <trkpt lat="48.58018" lon="7.7279">
        <ele>140.2</ele>
        <time>2019-08-08T15:17:58Z</time>
      </trkpt>
      <trkpt lat="48.5802" lon="7.7279">
        <ele>140.2</ele>
        <time>2019-08-08T15:17:59Z</time>
      </trkpt>
      <trkpt lat="48.58024" lon="7.7279">
        <ele>140.1</ele>
        <time>2019-08-08T15:18:00Z</time>
      </trkpt>
      <trkpt lat="48.58027" lon="7.7279">
        <ele>140.1</ele>
        <time>2019-08-08T15:18:01Z</time>
      </trkpt>
      <trkpt lat="48.5803" lon="7.72789">
        <ele>140.1</ele>
        <time>2019-08-08T15:18:02Z</time>
      </trkpt>
      <trkpt lat="48.58032" lon="7.72787">
        <ele>140.1</ele>
        <time>2019-08-08T15:18:03Z</time>
      </trkpt>
      <trkpt lat="48.58036" lon="7.72785">
        <ele>140</ele>
        <time>2019-08-08T15:18:05Z</time>
      </trkpt>
      <trkpt lat="48.58038" lon="7.72781">
        <ele>140</ele>
        <time>2019-08-08T15:18:07Z</time>
      </trkpt>
      <trkpt lat="48.5804" lon="7.72778">
        <ele>139.9</ele>
        <time>2019-08-08T15:18:09Z</time>
      </trkpt>
      <trkpt lat="48.58042" lon="7.72774">
        <ele>139.9</ele>
        <time>2019-08-08T15:18:11Z</time>
      </trkpt>
      <trkpt lat="48.58048" lon="7.72766">
        <ele>140</ele>
        <time>2019-08-08T15:18:25Z</time>
      </trkpt>
      <trkpt lat="48.58049" lon="7.72761">
        <ele>140</ele>
        <time>2019-08-08T15:18:27Z</time>
      </trkpt>
      <trkpt lat="48.58051" lon="7.72757">
        <ele>140</ele>
        <time>2019-08-08T15:18:29Z</time>
      </trkpt>
      <trkpt lat="48.58054" lon="7.72753">
        <ele>140.2</ele>
        <time>2019-08-08T15:18:31Z</time>
      </trkpt>
      <trkpt lat="48.58056" lon="7.72749">
        <ele>140.2</ele>
        <time>2019-08-08T15:18:34Z</time>
      </trkpt>
      <trkpt lat="48.58059" lon="7.72743">
        <ele>140.2</ele>
        <time>2019-08-08T15:18:37Z</time>
      </trkpt>
      <trkpt lat="48.58061" lon="7.72739">
        <ele>140.3</ele>
        <time>2019-08-08T15:18:38Z</time>
      </trkpt>
      <trkpt lat="48.58062" lon="7.72732">
        <ele>140.3</ele>
        <time>2019-08-08T15:18:40Z</time>
      </trkpt>
      <trkpt lat="48.58064" lon="7.72727">
        <ele>140.4</ele>
        <time>2019-08-08T15:18:41Z</time>
      </trkpt>
      <trkpt lat="48.58066" lon="7.72721">
        <ele>140.4</ele>
        <time>2019-08-08T15:18:43Z</time>
      </trkpt>
      <trkpt lat="48.58068" lon="7.72717">
        <ele>140.5</ele>
        <time>2019-08-08T15:18:44Z</time>
      </trkpt>
      <trkpt lat="48.58069" lon="7.72713">
        <ele>140.6</ele>
        <time>2019-08-08T15:18:45Z</time>
      </trkpt>
      <trkpt lat="48.5807" lon="7.72709">
        <ele>140.7</ele>
        <time>2019-08-08T15:18:46Z</time>
      </trkpt>
      <trkpt lat="48.58071" lon="7.72705">
        <ele>140.8</ele>
        <time>2019-08-08T15:18:48Z</time>
      </trkpt>
      <trkpt lat="48.58073" lon="7.72698">
        <ele>140.9</ele>
        <time>2019-08-08T15:18:50Z</time>
      </trkpt>
      <trkpt lat="48.58074" lon="7.72692">
        <ele>141</ele>
        <time>2019-08-08T15:18:52Z</time>
      </trkpt>
      <trkpt lat="48.58076" lon="7.72686">
        <ele>141</ele>
        <time>2019-08-08T15:18:54Z</time>
      </trkpt>
      <trkpt lat="48.58078" lon="7.72682">
        <ele>141.1</ele>
        <time>2019-08-08T15:18:56Z</time>
      </trkpt>
      <trkpt lat="48.58079" lon="7.72677">
        <ele>141.1</ele>
        <time>2019-08-08T15:18:58Z</time>
      </trkpt>
      <trkpt lat="48.5808" lon="7.7267">
        <ele>141.2</ele>
        <time>2019-08-08T15:19:00Z</time>
      </trkpt>
      <trkpt lat="48.58081" lon="7.72664">
        <ele>141.3</ele>
        <time>2019-08-08T15:19:02Z</time>
      </trkpt>
      <trkpt lat="48.58082" lon="7.72659">
        <ele>141.4</ele>
        <time>2019-08-08T15:19:04Z</time>
      </trkpt>
      <trkpt lat="48.58082" lon="7.72652">
        <ele>141.4</ele>
        <time>2019-08-08T15:19:06Z</time>
      </trkpt>
      <trkpt lat="48.58085" lon="7.72644">
        <ele>141.5</ele>
        <time>2019-08-08T15:19:09Z</time>
      </trkpt>
      <trkpt lat="48.58087" lon="7.72641">
        <ele>141.6</ele>
        <time>2019-08-08T15:19:10Z</time>
      </trkpt>
      <trkpt lat="48.58086" lon="7.72634">
        <ele>141.7</ele>
        <time>2019-08-08T15:19:12Z</time>
      </trkpt>
      <trkpt lat="48.58086" lon="7.72627">
        <ele>141.8</ele>
        <time>2019-08-08T15:19:14Z</time>
      </trkpt>
      <trkpt lat="48.58086" lon="7.72619">
        <ele>141.8</ele>
        <time>2019-08-08T15:19:16Z</time>
      </trkpt>
      <trkpt lat="48.58086" lon="7.72615">
        <ele>141.8</ele>
        <time>2019-08-08T15:19:17Z</time>
      </trkpt>
      <trkpt lat="48.58086" lon="7.72611">
        <ele>141.8</ele>
        <time>2019-08-08T15:19:18Z</time>
      </trkpt>
      <trkpt lat="48.58087" lon="7.72606">
        <ele>141.8</ele>
        <time>2019-08-08T15:19:19Z</time>
      </trkpt>
      <trkpt lat="48.58088" lon="7.72602">
        <ele>141.8</ele>
        <time>2019-08-08T15:19:20Z</time>
      </trkpt>
      <trkpt lat="48.58088" lon="7.72595">
        <ele>141.8</ele>
        <time>2019-08-08T15:19:21Z</time>
      </trkpt>
      <trkpt lat="48.58089" lon="7.7259">
        <ele>141.8</ele>
        <time>2019-08-08T15:19:22Z</time>
      </trkpt>
      <trkpt lat="48.58089" lon="7.72584">
        <ele>141.8</ele>
        <time>2019-08-08T15:19:23Z</time>
      </trkpt>
      <trkpt lat="48.58089" lon="7.72577">
        <ele>141.9</ele>
        <time>2019-08-08T15:19:25Z</time>
      </trkpt>
      <trkpt lat="48.58089" lon="7.72572">
        <ele>141.9</ele>
        <time>2019-08-08T15:19:26Z</time>
      </trkpt>
      <trkpt lat="48.58089" lon="7.72568">
        <ele>141.9</ele>
        <time>2019-08-08T15:19:27Z</time>
      </trkpt>
      <trkpt lat="48.58089" lon="7.72563">
        <ele>141.9</ele>
        <time>2019-08-08T15:19:28Z</time>
      </trkpt>
      <trkpt lat="48.5809" lon="7.72557">
        <ele>142</ele>
        <time>2019-08-08T15:19:29Z</time>
      </trkpt>
      <trkpt lat="48.58089" lon="7.72552">
        <ele>142</ele>
        <time>2019-08-08T15:19:30Z</time>
      </trkpt>
      <trkpt lat="48.5809" lon="7.72548">
        <ele>142</ele>
        <time>2019-08-08T15:19:31Z</time>
      </trkpt>
      <trkpt lat="48.5809" lon="7.72543">
        <ele>142</ele>
        <time>2019-08-08T15:19:32Z</time>
      </trkpt>
      <trkpt lat="48.5809" lon="7.72538">
        <ele>142.1</ele>
        <time>2019-08-08T15:19:33Z</time>
      </trkpt>
      <trkpt lat="48.5809" lon="7.72533">
        <ele>142.1</ele>
        <time>2019-08-08T15:19:34Z</time>
      </trkpt>
      <trkpt lat="48.5809" lon="7.72529">
        <ele>142.1</ele>
        <time>2019-08-08T15:19:35Z</time>
      </trkpt>
      <trkpt lat="48.58091" lon="7.72524">
        <ele>142.2</ele>
        <time>2019-08-08T15:19:36Z</time>
      </trkpt>
      <trkpt lat="48.58091" lon="7.72519">
        <ele>142.2</ele>
        <time>2019-08-08T15:19:37Z</time>
      </trkpt>
      <trkpt lat="48.58091" lon="7.72514">
        <ele>142.2</ele>
        <time>2019-08-08T15:19:38Z</time>
      </trkpt>
      <trkpt lat="48.58091" lon="7.72509">
        <ele>142.3</ele>
        <time>2019-08-08T15:19:39Z</time>
      </trkpt>
      <trkpt lat="48.58091" lon="7.72505">
        <ele>142.3</ele>
        <time>2019-08-08T15:19:40Z</time>
      </trkpt>
      <trkpt lat="48.58091" lon="7.72498">
        <ele>142.4</ele>
        <time>2019-08-08T15:19:41Z</time>
      </trkpt>
      <trkpt lat="48.5809" lon="7.7249">
        <ele>142.4</ele>
        <time>2019-08-08T15:19:43Z</time>
      </trkpt>
      <trkpt lat="48.5809" lon="7.72485">
        <ele>142.5</ele>
        <time>2019-08-08T15:19:44Z</time>
      </trkpt>
      <trkpt lat="48.58089" lon="7.7248">
        <ele>142.5</ele>
        <time>2019-08-08T15:19:45Z</time>
      </trkpt>
      <trkpt lat="48.58088" lon="7.72475">
        <ele>142.5</ele>
        <time>2019-08-08T15:19:46Z</time>
      </trkpt>
      <trkpt lat="48.58088" lon="7.7247">
        <ele>142.6</ele>
        <time>2019-08-08T15:19:47Z</time>
      </trkpt>
      <trkpt lat="48.58088" lon="7.72466">
        <ele>142.6</ele>
        <time>2019-08-08T15:19:48Z</time>
      </trkpt>
      <trkpt lat="48.58088" lon="7.7246">
        <ele>142.6</ele>
        <time>2019-08-08T15:19:49Z</time>
      </trkpt>
      <trkpt lat="48.58087" lon="7.72455">
        <ele>142.7</ele>
        <time>2019-08-08T15:19:50Z</time>
      </trkpt>
      <trkpt lat="48.58087" lon="7.7245">
        <ele>142.7</ele>
        <time>2019-08-08T15:19:51Z</time>
      </trkpt>
      <trkpt lat="48.58085" lon="7.72444">
        <ele>142.7</ele>
        <time>2019-08-08T15:19:52Z</time>
      </trkpt>
      <trkpt lat="48.58085" lon="7.7244">
        <ele>142.7</ele>
        <time>2019-08-08T15:19:53Z</time>
      </trkpt>
      <trkpt lat="48.58084" lon="7.72435">
        <ele>142.7</ele>
        <time>2019-08-08T15:19:54Z</time>
      </trkpt>
      <trkpt lat="48.58084" lon="7.7243">
        <ele>142.8</ele>
        <time>2019-08-08T15:19:55Z</time>
      </trkpt>
      <trkpt lat="48.58083" lon="7.72426">
        <ele>142.8</ele>
        <time>2019-08-08T15:19:56Z</time>
      </trkpt>
      <trkpt lat="48.58083" lon="7.72421">
        <ele>142.8</ele>
        <time>2019-08-08T15:19:57Z</time>
      </trkpt>
      <trkpt lat="48.58083" lon="7.72416">
        <ele>142.8</ele>
        <time>2019-08-08T15:19:58Z</time>
      </trkpt>
      <trkpt lat="48.58082" lon="7.7241">
        <ele>142.8</ele>
        <time>2019-08-08T15:19:59Z</time>
      </trkpt>
      <trkpt lat="48.58082" lon="7.72405">
        <ele>142.8</ele>
        <time>2019-08-08T15:20:00Z</time>
      </trkpt>
      <trkpt lat="48.58081" lon="7.72399">
        <ele>142.8</ele>
        <time>2019-08-08T15:20:01Z</time>
      </trkpt>
      <trkpt lat="48.58081" lon="7.72395">
        <ele>142.8</ele>
        <time>2019-08-08T15:20:02Z</time>
      </trkpt>
      <trkpt lat="48.5808" lon="7.72389">
        <ele>142.8</ele>
        <time>2019-08-08T15:20:03Z</time>
      </trkpt>
      <trkpt lat="48.58079" lon="7.72384">
        <ele>142.8</ele>
        <time>2019-08-08T15:20:04Z</time>
      </trkpt>
      <trkpt lat="48.58078" lon="7.7238">
        <ele>142.8</ele>
        <time>2019-08-08T15:20:05Z</time>
      </trkpt>
      <trkpt lat="48.58078" lon="7.72374">
        <ele>142.7</ele>
        <time>2019-08-08T15:20:06Z</time>
      </trkpt>
      <trkpt lat="48.58076" lon="7.72369">
        <ele>142.7</ele>
        <time>2019-08-08T15:20:07Z</time>
      </trkpt>
      <trkpt lat="48.58076" lon="7.72362">
        <ele>142.6</ele>
        <time>2019-08-08T15:20:08Z</time>
      </trkpt>
      <trkpt lat="48.58076" lon="7.72355">
        <ele>142.5</ele>
        <time>2019-08-08T15:20:10Z</time>
      </trkpt>
      <trkpt lat="48.58075" lon="7.72351">
        <ele>142.5</ele>
        <time>2019-08-08T15:20:11Z</time>
      </trkpt>
      <trkpt lat="48.58074" lon="7.72345">
        <ele>142.3</ele>
        <time>2019-08-08T15:20:13Z</time>
      </trkpt>
      <trkpt lat="48.58073" lon="7.72341">
        <ele>142.3</ele>
        <time>2019-08-08T15:20:15Z</time>
      </trkpt>
      <trkpt lat="48.5807" lon="7.72336">
        <ele>142.1</ele>
        <time>2019-08-08T15:20:18Z</time>
      </trkpt>
      <trkpt lat="48.58068" lon="7.72333">
        <ele>142.1</ele>
        <time>2019-08-08T15:20:19Z</time>
      </trkpt>
      <trkpt lat="48.58068" lon="7.72327">
        <ele>141.9</ele>
        <time>2019-08-08T15:20:20Z</time>
      </trkpt>
      <trkpt lat="48.58068" lon="7.72323">
        <ele>141.9</ele>
        <time>2019-08-08T15:20:21Z</time>
      </trkpt>
      <trkpt lat="48.58066" lon="7.72318">
        <ele>142.4</ele>
        <time>2019-08-08T15:20:23Z</time>
      </trkpt>
      <trkpt lat="48.58065" lon="7.72312">
        <ele>143</ele>
        <time>2019-08-08T15:20:25Z</time>
      </trkpt>
      <trkpt lat="48.58064" lon="7.72304">
        <ele>143.7</ele>
        <time>2019-08-08T15:20:27Z</time>
      </trkpt>
      <trkpt lat="48.58063" lon="7.72298">
        <ele>144.1</ele>
        <time>2019-08-08T15:20:28Z</time>
      </trkpt>
      <trkpt lat="48.58063" lon="7.72294">
        <ele>144.3</ele>
        <time>2019-08-08T15:20:29Z</time>
      </trkpt>
      <trkpt lat="48.58062" lon="7.72289">
        <ele>144.5</ele>
        <time>2019-08-08T15:20:30Z</time>
      </trkpt>
      <trkpt lat="48.58062" lon="7.72282">
        <ele>144.7</ele>
        <time>2019-08-08T15:20:31Z</time>
      </trkpt>
      <trkpt lat="48.58061" lon="7.72278">
        <ele>144.8</ele>
        <time>2019-08-08T15:20:32Z</time>
      </trkpt>
      <trkpt lat="48.58059" lon="7.72273">
        <ele>144.9</ele>
        <time>2019-08-08T15:20:33Z</time>
      </trkpt>
      <trkpt lat="48.58058" lon="7.72269">
        <ele>144.9</ele>
        <time>2019-08-08T15:20:34Z</time>
      </trkpt>
      <trkpt lat="48.58056" lon="7.72263">
        <ele>145</ele>
        <time>2019-08-08T15:20:35Z</time>
      </trkpt>
      <trkpt lat="48.58055" lon="7.72257">
        <ele>145</ele>
        <time>2019-08-08T15:20:36Z</time>
      </trkpt>
      <trkpt lat="48.58055" lon="7.72249">
        <ele>145</ele>
        <time>2019-08-08T15:20:37Z</time>
      </trkpt>
      <trkpt lat="48.58055" lon="7.72242">
        <ele>144.9</ele>
        <time>2019-08-08T15:20:38Z</time>
      </trkpt>
      <trkpt lat="48.58054" lon="7.72237">
        <ele>144.9</ele>
        <time>2019-08-08T15:20:39Z</time>
      </trkpt>
      <trkpt lat="48.58052" lon="7.72231">
        <ele>144.9</ele>
        <time>2019-08-08T15:20:40Z</time>
      </trkpt>
      <trkpt lat="48.5805" lon="7.72223">
        <ele>144.8</ele>
        <time>2019-08-08T15:20:41Z</time>
      </trkpt>
      <trkpt lat="48.58048" lon="7.72217">
        <ele>144.7</ele>
        <time>2019-08-08T15:20:42Z</time>
      </trkpt>
      <trkpt lat="48.58047" lon="7.72211">
        <ele>144.7</ele>
        <time>2019-08-08T15:20:43Z</time>
      </trkpt>
      <trkpt lat="48.58044" lon="7.72205">
        <ele>144.6</ele>
        <time>2019-08-08T15:20:44Z</time>
      </trkpt>
      <trkpt lat="48.58043" lon="7.72199">
        <ele>144.6</ele>
        <time>2019-08-08T15:20:45Z</time>
      </trkpt>
      <trkpt lat="48.58042" lon="7.72193">
        <ele>144.7</ele>
        <time>2019-08-08T15:20:46Z</time>
      </trkpt>
      <trkpt lat="48.58042" lon="7.72187">
        <ele>144.8</ele>
        <time>2019-08-08T15:20:47Z</time>
      </trkpt>
      <trkpt lat="48.58042" lon="7.7218">
        <ele>145</ele>
        <time>2019-08-08T15:20:48Z</time>
      </trkpt>
      <trkpt lat="48.58041" lon="7.72175">
        <ele>145.2</ele>
        <time>2019-08-08T15:20:49Z</time>
      </trkpt>
      <trkpt lat="48.5804" lon="7.7217">
        <ele>145.3</ele>
        <time>2019-08-08T15:20:50Z</time>
      </trkpt>
      <trkpt lat="48.5804" lon="7.72164">
        <ele>145.5</ele>
        <time>2019-08-08T15:20:51Z</time>
      </trkpt>
      <trkpt lat="48.5804" lon="7.72157">
        <ele>145.7</ele>
        <time>2019-08-08T15:20:52Z</time>
      </trkpt>
      <trkpt lat="48.58039" lon="7.72153">
        <ele>145.8</ele>
        <time>2019-08-08T15:20:53Z</time>
      </trkpt>
      <trkpt lat="48.58039" lon="7.72145">
        <ele>146</ele>
        <time>2019-08-08T15:20:55Z</time>
      </trkpt>
      <trkpt lat="48.58038" lon="7.72141">
        <ele>146.2</ele>
        <time>2019-08-08T15:20:56Z</time>
      </trkpt>
      <trkpt lat="48.58036" lon="7.72135">
        <ele>146.4</ele>
        <time>2019-08-08T15:20:58Z</time>
      </trkpt>
      <trkpt lat="48.58036" lon="7.7213">
        <ele>146.4</ele>
        <time>2019-08-08T15:21:00Z</time>
      </trkpt>
      <trkpt lat="48.58035" lon="7.72124">
        <ele>146.6</ele>
        <time>2019-08-08T15:21:03Z</time>
      </trkpt>
      <trkpt lat="48.58034" lon="7.72118">
        <ele>146.7</ele>
        <time>2019-08-08T15:21:05Z</time>
      </trkpt>
      <trkpt lat="48.58032" lon="7.72114">
        <ele>146.8</ele>
        <time>2019-08-08T15:21:06Z</time>
      </trkpt>
      <trkpt lat="48.58034" lon="7.72107">
        <ele>146.9</ele>
        <time>2019-08-08T15:21:10Z</time>
      </trkpt>
      <trkpt lat="48.58033" lon="7.72102">
        <ele>147</ele>
        <time>2019-08-08T15:21:12Z</time>
      </trkpt>
      <trkpt lat="48.58034" lon="7.72095">
        <ele>147.1</ele>
        <time>2019-08-08T15:21:13Z</time>
      </trkpt>
      <trkpt lat="48.58033" lon="7.72089">
        <ele>147.2</ele>
        <time>2019-08-08T15:21:14Z</time>
      </trkpt>
      <trkpt lat="48.58033" lon="7.72084">
        <ele>147.2</ele>
        <time>2019-08-08T15:21:15Z</time>
      </trkpt>
      <trkpt lat="48.58033" lon="7.7208">
        <ele>147.3</ele>
        <time>2019-08-08T15:21:16Z</time>
      </trkpt>
      <trkpt lat="48.58033" lon="7.72074">
        <ele>147.3</ele>
        <time>2019-08-08T15:21:18Z</time>
      </trkpt>
      <trkpt lat="48.58035" lon="7.72068">
        <ele>147.3</ele>
        <time>2019-08-08T15:21:20Z</time>
      </trkpt>
      <trkpt lat="48.58034" lon="7.72062">
        <ele>147.4</ele>
        <time>2019-08-08T15:21:22Z</time>
      </trkpt>
      <trkpt lat="48.58033" lon="7.72055">
        <ele>147.4</ele>
        <time>2019-08-08T15:21:24Z</time>
      </trkpt>
      <trkpt lat="48.58032" lon="7.7205">
        <ele>147.4</ele>
        <time>2019-08-08T15:21:25Z</time>
      </trkpt>
      <trkpt lat="48.58029" lon="7.72046">
        <ele>147.4</ele>
        <time>2019-08-08T15:21:26Z</time>
      </trkpt>
      <trkpt lat="48.58029" lon="7.72042">
        <ele>147.5</ele>
        <time>2019-08-08T15:21:27Z</time>
      </trkpt>
      <trkpt lat="48.58028" lon="7.72038">
        <ele>147.5</ele>
        <time>2019-08-08T15:21:28Z</time>
      </trkpt>
      <trkpt lat="48.58027" lon="7.7203">
        <ele>147.5</ele>
        <time>2019-08-08T15:21:30Z</time>
      </trkpt>
      <trkpt lat="48.58027" lon="7.72021">
        <ele>147.7</ele>
        <time>2019-08-08T15:21:32Z</time>
      </trkpt>
      <trkpt lat="48.58026" lon="7.72015">
        <ele>147.8</ele>
        <time>2019-08-08T15:21:33Z</time>
      </trkpt>
      <trkpt lat="48.58026" lon="7.72009">
        <ele>147.8</ele>
        <time>2019-08-08T15:21:34Z</time>
      </trkpt>
      <trkpt lat="48.58024" lon="7.72003">
        <ele>148</ele>
        <time>2019-08-08T15:21:35Z</time>
      </trkpt>
      <trkpt lat="48.58023" lon="7.71998">
        <ele>148</ele>
        <time>2019-08-08T15:21:36Z</time>
      </trkpt>
      <trkpt lat="48.58022" lon="7.71994">
        <ele>148</ele>
        <time>2019-08-08T15:21:37Z</time>
      </trkpt>
      <trkpt lat="48.58021" lon="7.71989">
        <ele>148</ele>
        <time>2019-08-08T15:21:38Z</time>
      </trkpt>
      <trkpt lat="48.5802" lon="7.71983">
        <ele>148</ele>
        <time>2019-08-08T15:21:40Z</time>
      </trkpt>
      <trkpt lat="48.58019" lon="7.71978">
        <ele>147.9</ele>
        <time>2019-08-08T15:21:42Z</time>
      </trkpt>
      <trkpt lat="48.58019" lon="7.71973">
        <ele>147.9</ele>
        <time>2019-08-08T15:21:44Z</time>
      </trkpt>
      <trkpt lat="48.58017" lon="7.71969">
        <ele>147.9</ele>
        <time>2019-08-08T15:21:46Z</time>
      </trkpt>
      <trkpt lat="48.58015" lon="7.71963">
        <ele>147.9</ele>
        <time>2019-08-08T15:21:48Z</time>
      </trkpt>
      <trkpt lat="48.58012" lon="7.71959">
        <ele>147.9</ele>
        <time>2019-08-08T15:21:49Z</time>
      </trkpt>
      <trkpt lat="48.58012" lon="7.71953">
        <ele>147.9</ele>
        <time>2019-08-08T15:21:51Z</time>
      </trkpt>
      <trkpt lat="48.58013" lon="7.71945">
        <ele>148</ele>
        <time>2019-08-08T15:21:53Z</time>
      </trkpt>
      <trkpt lat="48.58014" lon="7.71939">
        <ele>148</ele>
        <time>2019-08-08T15:21:55Z</time>
      </trkpt>
      <trkpt lat="48.58015" lon="7.71932">
        <ele>148</ele>
        <time>2019-08-08T15:21:56Z</time>
      </trkpt>
      <trkpt lat="48.58016" lon="7.71927">
        <ele>148</ele>
        <time>2019-08-08T15:21:57Z</time>
      </trkpt>
      <trkpt lat="48.58016" lon="7.71922">
        <ele>148</ele>
        <time>2019-08-08T15:21:58Z</time>
      </trkpt>
      <trkpt lat="48.58015" lon="7.71914">
        <ele>148.1</ele>
        <time>2019-08-08T15:22:00Z</time>
      </trkpt>
      <trkpt lat="48.58014" lon="7.7191">
        <ele>148.1</ele>
        <time>2019-08-08T15:22:01Z</time>
      </trkpt>
      <trkpt lat="48.5801" lon="7.71905">
        <ele>148.2</ele>
        <time>2019-08-08T15:22:02Z</time>
      </trkpt>
      <trkpt lat="48.58008" lon="7.71903">
        <ele>148.2</ele>
        <time>2019-08-08T15:22:03Z</time>
      </trkpt>
      <trkpt lat="48.58005" lon="7.719">
        <ele>148.3</ele>
        <time>2019-08-08T15:22:05Z</time>
      </trkpt>
      <trkpt lat="48.58" lon="7.71899">
        <ele>148.3</ele>
        <time>2019-08-08T15:22:26Z</time>
      </trkpt>
      <trkpt lat="48.57998" lon="7.71894">
        <ele>148.4</ele>
        <time>2019-08-08T15:22:29Z</time>
      </trkpt>
      <trkpt lat="48.57997" lon="7.71889">
        <ele>148.4</ele>
        <time>2019-08-08T15:22:31Z</time>
      </trkpt>
      <trkpt lat="48.57996" lon="7.71883">
        <ele>148.5</ele>
        <time>2019-08-08T15:22:33Z</time>
      </trkpt>
      <trkpt lat="48.57995" lon="7.71877">
        <ele>148.5</ele>
        <time>2019-08-08T15:22:35Z</time>
      </trkpt>
      <trkpt lat="48.57995" lon="7.7187">
        <ele>148.5</ele>
        <time>2019-08-08T15:22:37Z</time>
      </trkpt>
      <trkpt lat="48.57994" lon="7.71866">
        <ele>148.5</ele>
        <time>2019-08-08T15:22:38Z</time>
      </trkpt>
      <trkpt lat="48.57995" lon="7.71854">
        <ele>148.5</ele>
        <time>2019-08-08T15:22:40Z</time>
      </trkpt>
      <trkpt lat="48.57995" lon="7.71849">
        <ele>148.5</ele>
        <time>2019-08-08T15:22:41Z</time>
      </trkpt>
      <trkpt lat="48.57995" lon="7.71842">
        <ele>148.5</ele>
        <time>2019-08-08T15:22:42Z</time>
      </trkpt>
      <trkpt lat="48.57995" lon="7.71835">
        <ele>148.5</ele>
        <time>2019-08-08T15:22:43Z</time>
      </trkpt>
      <trkpt lat="48.57994" lon="7.7183">
        <ele>148.4</ele>
        <time>2019-08-08T15:22:44Z</time>
      </trkpt>
      <trkpt lat="48.57993" lon="7.71825">
        <ele>148.4</ele>
        <time>2019-08-08T15:22:45Z</time>
      </trkpt>
      <trkpt lat="48.57991" lon="7.71819">
        <ele>148.4</ele>
        <time>2019-08-08T15:22:47Z</time>
      </trkpt>
      <trkpt lat="48.5799" lon="7.71815">
        <ele>148.3</ele>
        <time>2019-08-08T15:22:48Z</time>
      </trkpt>
      <trkpt lat="48.57989" lon="7.7181">
        <ele>148.3</ele>
        <time>2019-08-08T15:22:49Z</time>
      </trkpt>
      <trkpt lat="48.57988" lon="7.71807">
        <ele>148.3</ele>
        <time>2019-08-08T15:22:50Z</time>
      </trkpt>
      <trkpt lat="48.57985" lon="7.718">
        <ele>148.3</ele>
        <time>2019-08-08T15:22:52Z</time>
      </trkpt>
      <trkpt lat="48.57984" lon="7.71796">
        <ele>148.3</ele>
        <time>2019-08-08T15:22:53Z</time>
      </trkpt>
      <trkpt lat="48.57983" lon="7.71792">
        <ele>148.2</ele>
        <time>2019-08-08T15:22:54Z</time>
      </trkpt>
      <trkpt lat="48.57981" lon="7.71787">
        <ele>148.3</ele>
        <time>2019-08-08T15:22:55Z</time>
      </trkpt>
      <trkpt lat="48.5798" lon="7.71782">
        <ele>148.3</ele>
        <time>2019-08-08T15:22:56Z</time>
      </trkpt>
      <trkpt lat="48.57979" lon="7.71777">
        <ele>148.3</ele>
        <time>2019-08-08T15:22:57Z</time>
      </trkpt>
      <trkpt lat="48.57978" lon="7.71772">
        <ele>148.3</ele>
        <time>2019-08-08T15:22:58Z</time>
      </trkpt>
      <trkpt lat="48.57977" lon="7.71768">
        <ele>148.3</ele>
        <time>2019-08-08T15:22:59Z</time>
      </trkpt>
      <trkpt lat="48.57979" lon="7.71764">
        <ele>148.3</ele>
        <time>2019-08-08T15:23:00Z</time>
      </trkpt>
      <trkpt lat="48.5798" lon="7.71757">
        <ele>148.3</ele>
        <time>2019-08-08T15:23:02Z</time>
      </trkpt>
      <trkpt lat="48.5798" lon="7.71751">
        <ele>148.3</ele>
        <time>2019-08-08T15:23:03Z</time>
      </trkpt>
      <trkpt lat="48.5798" lon="7.71746">
        <ele>148.3</ele>
        <time>2019-08-08T15:23:04Z</time>
      </trkpt>
      <trkpt lat="48.5798" lon="7.71739">
        <ele>148.3</ele>
        <time>2019-08-08T15:23:05Z</time>
      </trkpt>
      <trkpt lat="48.57981" lon="7.71731">
        <ele>148.3</ele>
        <time>2019-08-08T15:23:06Z</time>
      </trkpt>
      <trkpt lat="48.57982" lon="7.71723">
        <ele>148.3</ele>
        <time>2019-08-08T15:23:07Z</time>
      </trkpt>
      <trkpt lat="48.57982" lon="7.71717">
        <ele>148.3</ele>
        <time>2019-08-08T15:23:08Z</time>
      </trkpt>
      <trkpt lat="48.57982" lon="7.71713">
        <ele>148.3</ele>
        <time>2019-08-08T15:23:09Z</time>
      </trkpt>
      <trkpt lat="48.57982" lon="7.71705">
        <ele>148.3</ele>
        <time>2019-08-08T15:23:10Z</time>
      </trkpt>
      <trkpt lat="48.57984" lon="7.71694">
        <ele>148.4</ele>
        <time>2019-08-08T15:23:11Z</time>
      </trkpt>
      <trkpt lat="48.57984" lon="7.71686">
        <ele>148.4</ele>
        <time>2019-08-08T15:23:12Z</time>
      </trkpt>
      <trkpt lat="48.57986" lon="7.71676">
        <ele>148.5</ele>
        <time>2019-08-08T15:23:13Z</time>
      </trkpt>
      <trkpt lat="48.57988" lon="7.71666">
        <ele>148.6</ele>
        <time>2019-08-08T15:23:14Z</time>
      </trkpt>
      <trkpt lat="48.57989" lon="7.71658">
        <ele>148.6</ele>
        <time>2019-08-08T15:23:15Z</time>
      </trkpt>
      <trkpt lat="48.57989" lon="7.71652">
        <ele>148.7</ele>
        <time>2019-08-08T15:23:16Z</time>
      </trkpt>
      <trkpt lat="48.57989" lon="7.71647">
        <ele>148.7</ele>
        <time>2019-08-08T15:23:17Z</time>
      </trkpt>
      <trkpt lat="48.57989" lon="7.71641">
        <ele>148.8</ele>
        <time>2019-08-08T15:23:18Z</time>
      </trkpt>
      <trkpt lat="48.57989" lon="7.71637">
        <ele>148.9</ele>
        <time>2019-08-08T15:23:19Z</time>
      </trkpt>
      <trkpt lat="48.57989" lon="7.71628">
        <ele>149</ele>
        <time>2019-08-08T15:23:21Z</time>
      </trkpt>
      <trkpt lat="48.57988" lon="7.71624">
        <ele>149.1</ele>
        <time>2019-08-08T15:23:22Z</time>
      </trkpt>
      <trkpt lat="48.57986" lon="7.71616">
        <ele>149.2</ele>
        <time>2019-08-08T15:23:23Z</time>
      </trkpt>
      <trkpt lat="48.57982" lon="7.71612">
        <ele>149.3</ele>
        <time>2019-08-08T15:23:24Z</time>
      </trkpt>
      <trkpt lat="48.57978" lon="7.71606">
        <ele>149.5</ele>
        <time>2019-08-08T15:23:25Z</time>
      </trkpt>
      <trkpt lat="48.57975" lon="7.71602">
        <ele>149.5</ele>
        <time>2019-08-08T15:23:26Z</time>
      </trkpt>
      <trkpt lat="48.57972" lon="7.71599">
        <ele>149.6</ele>
        <time>2019-08-08T15:23:27Z</time>
      </trkpt>
      <trkpt lat="48.57973" lon="7.71592">
        <ele>149.7</ele>
        <time>2019-08-08T15:23:29Z</time>
      </trkpt>
      <trkpt lat="48.57971" lon="7.71586">
        <ele>149.8</ele>
        <time>2019-08-08T15:23:31Z</time>
      </trkpt>
      <trkpt lat="48.57971" lon="7.71581">
        <ele>149.9</ele>
        <time>2019-08-08T15:23:32Z</time>
      </trkpt>
      <trkpt lat="48.57971" lon="7.71577">
        <ele>149.9</ele>
        <time>2019-08-08T15:23:33Z</time>
      </trkpt>
      <trkpt lat="48.57971" lon="7.71568">
        <ele>150</ele>
        <time>2019-08-08T15:23:35Z</time>
      </trkpt>
      <trkpt lat="48.57971" lon="7.71563">
        <ele>150</ele>
        <time>2019-08-08T15:23:36Z</time>
      </trkpt>
      <trkpt lat="48.5797" lon="7.71559">
        <ele>150</ele>
        <time>2019-08-08T15:23:37Z</time>
      </trkpt>
      <trkpt lat="48.57968" lon="7.71553">
        <ele>150</ele>
        <time>2019-08-08T15:23:38Z</time>
      </trkpt>
      <trkpt lat="48.57966" lon="7.71548">
        <ele>150</ele>
        <time>2019-08-08T15:23:39Z</time>
      </trkpt>
      <trkpt lat="48.57965" lon="7.71542">
        <ele>150.1</ele>
        <time>2019-08-08T15:23:40Z</time>
      </trkpt>
      <trkpt lat="48.57964" lon="7.71535">
        <ele>150.1</ele>
        <time>2019-08-08T15:23:41Z</time>
      </trkpt>
      <trkpt lat="48.57963" lon="7.7153">
        <ele>150</ele>
        <time>2019-08-08T15:23:42Z</time>
      </trkpt>
      <trkpt lat="48.57961" lon="7.71527">
        <ele>150</ele>
        <time>2019-08-08T15:23:43Z</time>
      </trkpt>
      <trkpt lat="48.5796" lon="7.71523">
        <ele>150</ele>
        <time>2019-08-08T15:23:44Z</time>
      </trkpt>
      <trkpt lat="48.57957" lon="7.71517">
        <ele>150</ele>
        <time>2019-08-08T15:23:45Z</time>
      </trkpt>
      <trkpt lat="48.57955" lon="7.71514">
        <ele>150</ele>
        <time>2019-08-08T15:23:46Z</time>
      </trkpt>
      <trkpt lat="48.57954" lon="7.7151">
        <ele>150</ele>
        <time>2019-08-08T15:23:47Z</time>
      </trkpt>
      <trkpt lat="48.57952" lon="7.71503">
        <ele>150.1</ele>
        <time>2019-08-08T15:23:49Z</time>
      </trkpt>
      <trkpt lat="48.57951" lon="7.71495">
        <ele>150</ele>
        <time>2019-08-08T15:23:51Z</time>
      </trkpt>
      <trkpt lat="48.57951" lon="7.7149">
        <ele>150</ele>
        <time>2019-08-08T15:23:52Z</time>
      </trkpt>
      <trkpt lat="48.5795" lon="7.71485">
        <ele>150</ele>
        <time>2019-08-08T15:23:53Z</time>
      </trkpt>
      <trkpt lat="48.5795" lon="7.7148">
        <ele>149.9</ele>
        <time>2019-08-08T15:23:54Z</time>
      </trkpt>
      <trkpt lat="48.57949" lon="7.71475">
        <ele>149.9</ele>
        <time>2019-08-08T15:23:55Z</time>
      </trkpt>
      <trkpt lat="48.57948" lon="7.71467">
        <ele>149.8</ele>
        <time>2019-08-08T15:23:57Z</time>
      </trkpt>
      <trkpt lat="48.57947" lon="7.71461">
        <ele>149.8</ele>
        <time>2019-08-08T15:23:59Z</time>
      </trkpt>
      <trkpt lat="48.57947" lon="7.71456">
        <ele>149.8</ele>
        <time>2019-08-08T15:24:01Z</time>
      </trkpt>
      <trkpt lat="48.57945" lon="7.71453">
        <ele>149.8</ele>
        <time>2019-08-08T15:24:04Z</time>
      </trkpt>
      <trkpt lat="48.57941" lon="7.7143">
        <ele>150.4</ele>
        <time>2019-08-08T15:25:13Z</time>
      </trkpt>
      <trkpt lat="48.57938" lon="7.71423">
        <ele>150.9</ele>
        <time>2019-08-08T15:25:15Z</time>
      </trkpt>
      <trkpt lat="48.57935" lon="7.71422">
        <ele>151.2</ele>
        <time>2019-08-08T15:25:17Z</time>
      </trkpt>
      <trkpt lat="48.57931" lon="7.71423">
        <ele>151.3</ele>
        <time>2019-08-08T15:25:18Z</time>
      </trkpt>
      <trkpt lat="48.57928" lon="7.71424">
        <ele>151.3</ele>
        <time>2019-08-08T15:25:19Z</time>
      </trkpt>
      <trkpt lat="48.57925" lon="7.71426">
        <ele>151.3</ele>
        <time>2019-08-08T15:25:20Z</time>
      </trkpt>
      <trkpt lat="48.57922" lon="7.71427">
        <ele>151.4</ele>
        <time>2019-08-08T15:25:21Z</time>
      </trkpt>
      <trkpt lat="48.57918" lon="7.71427">
        <ele>151.4</ele>
        <time>2019-08-08T15:25:22Z</time>
      </trkpt>
      <trkpt lat="48.57915" lon="7.71428">
        <ele>151.4</ele>
        <time>2019-08-08T15:25:23Z</time>
      </trkpt>
      <trkpt lat="48.57911" lon="7.71426">
        <ele>151.4</ele>
        <time>2019-08-08T15:25:24Z</time>
      </trkpt>
      <trkpt lat="48.57907" lon="7.71426">
        <ele>151.4</ele>
        <time>2019-08-08T15:25:25Z</time>
      </trkpt>
      <trkpt lat="48.57903" lon="7.71425">
        <ele>151.4</ele>
        <time>2019-08-08T15:25:26Z</time>
      </trkpt>
      <trkpt lat="48.579" lon="7.71426">
        <ele>151.5</ele>
        <time>2019-08-08T15:25:27Z</time>
      </trkpt>
      <trkpt lat="48.57895" lon="7.71426">
        <ele>151.5</ele>
        <time>2019-08-08T15:25:28Z</time>
      </trkpt>
      <trkpt lat="48.57889" lon="7.71425">
        <ele>151.5</ele>
        <time>2019-08-08T15:25:30Z</time>
      </trkpt>
      <trkpt lat="48.57882" lon="7.71421">
        <ele>151.4</ele>
        <time>2019-08-08T15:25:31Z</time>
      </trkpt>
      <trkpt lat="48.57878" lon="7.71421">
        <ele>151.4</ele>
        <time>2019-08-08T15:25:32Z</time>
      </trkpt>
      <trkpt lat="48.57874" lon="7.7142">
        <ele>151.4</ele>
        <time>2019-08-08T15:25:33Z</time>
      </trkpt>
      <trkpt lat="48.57868" lon="7.71419">
        <ele>151.4</ele>
        <time>2019-08-08T15:25:34Z</time>
      </trkpt>
      <trkpt lat="48.57861" lon="7.71415">
        <ele>151.4</ele>
        <time>2019-08-08T15:25:35Z</time>
      </trkpt>
      <trkpt lat="48.57854" lon="7.71412">
        <ele>151.4</ele>
        <time>2019-08-08T15:25:36Z</time>
      </trkpt>
      <trkpt lat="48.57851" lon="7.71407">
        <ele>151.3</ele>
        <time>2019-08-08T15:25:37Z</time>
      </trkpt>
      <trkpt lat="48.57848" lon="7.71403">
        <ele>150.9</ele>
        <time>2019-08-08T15:25:38Z</time>
      </trkpt>
      <trkpt lat="48.57846" lon="7.71401">
        <ele>150.7</ele>
        <time>2019-08-08T15:25:39Z</time>
      </trkpt>
      <trkpt lat="48.57844" lon="7.71396">
        <ele>150.3</ele>
        <time>2019-08-08T15:25:40Z</time>
      </trkpt>
      <trkpt lat="48.57841" lon="7.71392">
        <ele>150</ele>
        <time>2019-08-08T15:25:41Z</time>
      </trkpt>
      <trkpt lat="48.57837" lon="7.71388">
        <ele>149.6</ele>
        <time>2019-08-08T15:25:42Z</time>
      </trkpt>
      <trkpt lat="48.57834" lon="7.71384">
        <ele>149.4</ele>
        <time>2019-08-08T15:25:43Z</time>
      </trkpt>
      <trkpt lat="48.57831" lon="7.7138">
        <ele>149.1</ele>
        <time>2019-08-08T15:25:44Z</time>
      </trkpt>
      <trkpt lat="48.57828" lon="7.71376">
        <ele>148.8</ele>
        <time>2019-08-08T15:25:45Z</time>
      </trkpt>
      <trkpt lat="48.57825" lon="7.71372">
        <ele>148.5</ele>
        <time>2019-08-08T15:25:46Z</time>
      </trkpt>
      <trkpt lat="48.57823" lon="7.71367">
        <ele>148.2</ele>
        <time>2019-08-08T15:25:47Z</time>
      </trkpt>
      <trkpt lat="48.57822" lon="7.71357">
        <ele>147.6</ele>
        <time>2019-08-08T15:25:48Z</time>
      </trkpt>
      <trkpt lat="48.57818" lon="7.71351">
        <ele>147.1</ele>
        <time>2019-08-08T15:25:49Z</time>
      </trkpt>
      <trkpt lat="48.57814" lon="7.71348">
        <ele>146.6</ele>
        <time>2019-08-08T15:25:50Z</time>
      </trkpt>
      <trkpt lat="48.57809" lon="7.71345">
        <ele>146.2</ele>
        <time>2019-08-08T15:25:51Z</time>
      </trkpt>
      <trkpt lat="48.57804" lon="7.71343">
        <ele>145.9</ele>
        <time>2019-08-08T15:25:52Z</time>
      </trkpt>
      <trkpt lat="48.578" lon="7.71342">
        <ele>145.7</ele>
        <time>2019-08-08T15:25:53Z</time>
      </trkpt>
      <trkpt lat="48.57798" lon="7.71339">
        <ele>145.5</ele>
        <time>2019-08-08T15:25:54Z</time>
      </trkpt>
      <trkpt lat="48.57795" lon="7.71334">
        <ele>145.3</ele>
        <time>2019-08-08T15:25:55Z</time>
      </trkpt>
      <trkpt lat="48.57791" lon="7.71334">
        <ele>145.1</ele>
        <time>2019-08-08T15:25:56Z</time>
      </trkpt>
      <trkpt lat="48.57786" lon="7.71334">
        <ele>144.8</ele>
        <time>2019-08-08T15:25:57Z</time>
      </trkpt>
      <trkpt lat="48.5778" lon="7.71333">
        <ele>144.5</ele>
        <time>2019-08-08T15:25:58Z</time>
      </trkpt>
      <trkpt lat="48.57776" lon="7.71334">
        <ele>144.3</ele>
        <time>2019-08-08T15:25:59Z</time>
      </trkpt>
      <trkpt lat="48.57771" lon="7.71336">
        <ele>144.1</ele>
        <time>2019-08-08T15:26:00Z</time>
      </trkpt>
      <trkpt lat="48.57767" lon="7.71336">
        <ele>144</ele>
        <time>2019-08-08T15:26:01Z</time>
      </trkpt>
      <trkpt lat="48.57761" lon="7.71337">
        <ele>143.8</ele>
        <time>2019-08-08T15:26:02Z</time>
      </trkpt>
      <trkpt lat="48.57754" lon="7.71337">
        <ele>143.6</ele>
        <time>2019-08-08T15:26:03Z</time>
      </trkpt>
      <trkpt lat="48.57746" lon="7.71336">
        <ele>143.5</ele>
        <time>2019-08-08T15:26:04Z</time>
      </trkpt>
      <trkpt lat="48.57739" lon="7.71335">
        <ele>143.3</ele>
        <time>2019-08-08T15:26:05Z</time>
      </trkpt>
      <trkpt lat="48.57733" lon="7.71334">
        <ele>143.2</ele>
        <time>2019-08-08T15:26:06Z</time>
      </trkpt>
      <trkpt lat="48.57728" lon="7.71331">
        <ele>143.1</ele>
        <time>2019-08-08T15:26:07Z</time>
      </trkpt>
      <trkpt lat="48.57724" lon="7.71327">
        <ele>143</ele>
        <time>2019-08-08T15:26:08Z</time>
      </trkpt>
      <trkpt lat="48.57717" lon="7.71325">
        <ele>142.4</ele>
        <time>2019-08-08T15:26:09Z</time>
      </trkpt>
      <trkpt lat="48.5771" lon="7.71325">
        <ele>142</ele>
        <time>2019-08-08T15:26:10Z</time>
      </trkpt>
      <trkpt lat="48.57704" lon="7.71325">
        <ele>141.6</ele>
        <time>2019-08-08T15:26:11Z</time>
      </trkpt>
      <trkpt lat="48.57698" lon="7.71324">
        <ele>141.4</ele>
        <time>2019-08-08T15:26:12Z</time>
      </trkpt>
      <trkpt lat="48.57692" lon="7.71321">
        <ele>141.3</ele>
        <time>2019-08-08T15:26:13Z</time>
      </trkpt>
      <trkpt lat="48.57687" lon="7.71319">
        <ele>141.3</ele>
        <time>2019-08-08T15:26:14Z</time>
      </trkpt>
      <trkpt lat="48.57681" lon="7.71317">
        <ele>141.4</ele>
        <time>2019-08-08T15:26:15Z</time>
      </trkpt>
      <trkpt lat="48.57674" lon="7.71316">
        <ele>141.5</ele>
        <time>2019-08-08T15:26:16Z</time>
      </trkpt>
      <trkpt lat="48.57668" lon="7.71314">
        <ele>141.6</ele>
        <time>2019-08-08T15:26:17Z</time>
      </trkpt>
      <trkpt lat="48.57662" lon="7.71313">
        <ele>141.7</ele>
        <time>2019-08-08T15:26:18Z</time>
      </trkpt>
      <trkpt lat="48.57658" lon="7.71313">
        <ele>141.8</ele>
        <time>2019-08-08T15:26:19Z</time>
      </trkpt>
      <trkpt lat="48.57653" lon="7.71313">
        <ele>141.8</ele>
        <time>2019-08-08T15:26:20Z</time>
      </trkpt>
      <trkpt lat="48.57649" lon="7.71315">
        <ele>141.9</ele>
        <time>2019-08-08T15:26:21Z</time>
      </trkpt>
      <trkpt lat="48.57645" lon="7.71315">
        <ele>141.9</ele>
        <time>2019-08-08T15:26:22Z</time>
      </trkpt>
      <trkpt lat="48.5764" lon="7.71316">
        <ele>141.9</ele>
        <time>2019-08-08T15:26:23Z</time>
      </trkpt>
      <trkpt lat="48.57635" lon="7.71315">
        <ele>142</ele>
        <time>2019-08-08T15:26:24Z</time>
      </trkpt>
      <trkpt lat="48.57629" lon="7.71317">
        <ele>142</ele>
        <time>2019-08-08T15:26:25Z</time>
      </trkpt>
      <trkpt lat="48.57623" lon="7.71316">
        <ele>142</ele>
        <time>2019-08-08T15:26:26Z</time>
      </trkpt>
      <trkpt lat="48.57618" lon="7.71316">
        <ele>141.9</ele>
        <time>2019-08-08T15:26:27Z</time>
      </trkpt>
      <trkpt lat="48.57613" lon="7.71316">
        <ele>141.9</ele>
        <time>2019-08-08T15:26:28Z</time>
      </trkpt>
      <trkpt lat="48.5761" lon="7.71316">
        <ele>141.8</ele>
        <time>2019-08-08T15:26:29Z</time>
      </trkpt>
      <trkpt lat="48.57604" lon="7.71315">
        <ele>141.7</ele>
        <time>2019-08-08T15:26:30Z</time>
      </trkpt>
      <trkpt lat="48.57599" lon="7.71315">
        <ele>141.7</ele>
        <time>2019-08-08T15:26:31Z</time>
      </trkpt>
      <trkpt lat="48.57594" lon="7.71317">
        <ele>141.7</ele>
        <time>2019-08-08T15:26:32Z</time>
      </trkpt>
      <trkpt lat="48.5759" lon="7.71317">
        <ele>141.7</ele>
        <time>2019-08-08T15:26:33Z</time>
      </trkpt>
      <trkpt lat="48.57585" lon="7.71318">
        <ele>141.7</ele>
        <time>2019-08-08T15:26:34Z</time>
      </trkpt>
      <trkpt lat="48.57581" lon="7.71319">
        <ele>141.8</ele>
        <time>2019-08-08T15:26:35Z</time>
      </trkpt>
      <trkpt lat="48.57577" lon="7.7132">
        <ele>141.8</ele>
        <time>2019-08-08T15:26:36Z</time>
      </trkpt>
      <trkpt lat="48.57572" lon="7.7132">
        <ele>141.8</ele>
        <time>2019-08-08T15:26:37Z</time>
      </trkpt>
      <trkpt lat="48.57566" lon="7.71319">
        <ele>141.8</ele>
        <time>2019-08-08T15:26:38Z</time>
      </trkpt>
      <trkpt lat="48.57561" lon="7.71318">
        <ele>141.8</ele>
        <time>2019-08-08T15:26:39Z</time>
      </trkpt>
      <trkpt lat="48.57556" lon="7.71318">
        <ele>141.8</ele>
        <time>2019-08-08T15:26:40Z</time>
      </trkpt>
      <trkpt lat="48.57552" lon="7.71319">
        <ele>141.9</ele>
        <time>2019-08-08T15:26:41Z</time>
      </trkpt>
      <trkpt lat="48.57548" lon="7.7132">
        <ele>141.9</ele>
        <time>2019-08-08T15:26:42Z</time>
      </trkpt>
      <trkpt lat="48.57542" lon="7.7132">
        <ele>141.9</ele>
        <time>2019-08-08T15:26:43Z</time>
      </trkpt>
      <trkpt lat="48.57537" lon="7.71318">
        <ele>142</ele>
        <time>2019-08-08T15:26:44Z</time>
      </trkpt>
      <trkpt lat="48.57532" lon="7.71319">
        <ele>142</ele>
        <time>2019-08-08T15:26:45Z</time>
      </trkpt>
      <trkpt lat="48.57528" lon="7.71319">
        <ele>142</ele>
        <time>2019-08-08T15:26:46Z</time>
      </trkpt>
      <trkpt lat="48.57525" lon="7.71319">
        <ele>142</ele>
        <time>2019-08-08T15:26:47Z</time>
      </trkpt>
      <trkpt lat="48.57522" lon="7.7132">
        <ele>142</ele>
        <time>2019-08-08T15:26:48Z</time>
      </trkpt>
      <trkpt lat="48.57519" lon="7.71321">
        <ele>142.1</ele>
        <time>2019-08-08T15:26:49Z</time>
      </trkpt>
      <trkpt lat="48.57516" lon="7.71321">
        <ele>142.1</ele>
        <time>2019-08-08T15:26:50Z</time>
      </trkpt>
      <trkpt lat="48.57513" lon="7.71322">
        <ele>142.1</ele>
        <time>2019-08-08T15:26:52Z</time>
      </trkpt>
      <trkpt lat="48.57509" lon="7.71324">
        <ele>142</ele>
        <time>2019-08-08T15:26:54Z</time>
      </trkpt>
      <trkpt lat="48.57504" lon="7.71325">
        <ele>142</ele>
        <time>2019-08-08T15:26:56Z</time>
      </trkpt>
      <trkpt lat="48.57501" lon="7.71327">
        <ele>142</ele>
        <time>2019-08-08T15:26:57Z</time>
      </trkpt>
      <trkpt lat="48.57496" lon="7.71325">
        <ele>141.9</ele>
        <time>2019-08-08T15:26:59Z</time>
      </trkpt>
      <trkpt lat="48.57492" lon="7.71326">
        <ele>141.9</ele>
        <time>2019-08-08T15:27:00Z</time>
      </trkpt>
      <trkpt lat="48.57489" lon="7.71326">
        <ele>141.8</ele>
        <time>2019-08-08T15:27:01Z</time>
      </trkpt>
      <trkpt lat="48.57485" lon="7.71325">
        <ele>141.8</ele>
        <time>2019-08-08T15:27:02Z</time>
      </trkpt>
      <trkpt lat="48.57482" lon="7.71326">
        <ele>141.8</ele>
        <time>2019-08-08T15:27:03Z</time>
      </trkpt>
      <trkpt lat="48.57478" lon="7.71325">
        <ele>141.7</ele>
        <time>2019-08-08T15:27:04Z</time>
      </trkpt>
      <trkpt lat="48.57475" lon="7.71325">
        <ele>141.7</ele>
        <time>2019-08-08T15:27:05Z</time>
      </trkpt>
      <trkpt lat="48.57472" lon="7.71325">
        <ele>141.7</ele>
        <time>2019-08-08T15:27:06Z</time>
      </trkpt>
      <trkpt lat="48.5747" lon="7.71325">
        <ele>141.6</ele>
        <time>2019-08-08T15:27:07Z</time>
      </trkpt>
      <trkpt lat="48.57467" lon="7.71325">
        <ele>141.6</ele>
        <time>2019-08-08T15:27:08Z</time>
      </trkpt>
      <trkpt lat="48.57464" lon="7.71324">
        <ele>141.5</ele>
        <time>2019-08-08T15:27:09Z</time>
      </trkpt>
      <trkpt lat="48.57461" lon="7.71325">
        <ele>141.4</ele>
        <time>2019-08-08T15:27:10Z</time>
      </trkpt>
      <trkpt lat="48.57457" lon="7.71324">
        <ele>141.4</ele>
        <time>2019-08-08T15:27:12Z</time>
      </trkpt>
      <trkpt lat="48.57454" lon="7.71321">
        <ele>141.3</ele>
        <time>2019-08-08T15:27:14Z</time>
      </trkpt>
      <trkpt lat="48.5745" lon="7.71321">
        <ele>141.1</ele>
        <time>2019-08-08T15:27:16Z</time>
      </trkpt>
      <trkpt lat="48.57447" lon="7.71319">
        <ele>141</ele>
        <time>2019-08-08T15:27:17Z</time>
      </trkpt>
      <trkpt lat="48.57443" lon="7.71317">
        <ele>140.9</ele>
        <time>2019-08-08T15:27:19Z</time>
      </trkpt>
      <trkpt lat="48.57438" lon="7.71317">
        <ele>140.7</ele>
        <time>2019-08-08T15:27:21Z</time>
      </trkpt>
      <trkpt lat="48.57435" lon="7.71317">
        <ele>140.6</ele>
        <time>2019-08-08T15:27:23Z</time>
      </trkpt>
      <trkpt lat="48.57432" lon="7.7132">
        <ele>140.5</ele>
        <time>2019-08-08T15:27:25Z</time>
      </trkpt>
      <trkpt lat="48.57428" lon="7.71321">
        <ele>140.4</ele>
        <time>2019-08-08T15:27:28Z</time>
      </trkpt>
      <trkpt lat="48.57424" lon="7.71323">
        <ele>140.3</ele>
        <time>2019-08-08T15:27:31Z</time>
      </trkpt>
      <trkpt lat="48.57414" lon="7.71333">
        <ele>139.8</ele>
        <time>2019-08-08T15:31:17Z</time>
      </trkpt>
      <trkpt lat="48.57411" lon="7.71333">
        <ele>139.7</ele>
        <time>2019-08-08T15:31:18Z</time>
      </trkpt>
      <trkpt lat="48.57408" lon="7.71334">
        <ele>139.6</ele>
        <time>2019-08-08T15:31:19Z</time>
      </trkpt>
      <trkpt lat="48.57404" lon="7.71336">
        <ele>139.5</ele>
        <time>2019-08-08T15:31:20Z</time>
      </trkpt>
      <trkpt lat="48.57401" lon="7.71336">
        <ele>139.4</ele>
        <time>2019-08-08T15:31:21Z</time>
      </trkpt>
      <trkpt lat="48.57398" lon="7.71336">
        <ele>139.3</ele>
        <time>2019-08-08T15:31:22Z</time>
      </trkpt>
      <trkpt lat="48.57395" lon="7.71338">
        <ele>139.2</ele>
        <time>2019-08-08T15:31:23Z</time>
      </trkpt>
      <trkpt lat="48.5739" lon="7.71339">
        <ele>139.1</ele>
        <time>2019-08-08T15:31:24Z</time>
      </trkpt>
      <trkpt lat="48.57386" lon="7.7134">
        <ele>139</ele>
        <time>2019-08-08T15:31:25Z</time>
      </trkpt>
      <trkpt lat="48.57381" lon="7.71342">
        <ele>138.9</ele>
        <time>2019-08-08T15:31:26Z</time>
      </trkpt>
      <trkpt lat="48.57377" lon="7.71342">
        <ele>138.8</ele>
        <time>2019-08-08T15:31:27Z</time>
      </trkpt>
      <trkpt lat="48.57373" lon="7.71343">
        <ele>138.6</ele>
        <time>2019-08-08T15:31:28Z</time>
      </trkpt>
      <trkpt lat="48.57369" lon="7.71345">
        <ele>138.6</ele>
        <time>2019-08-08T15:31:29Z</time>
      </trkpt>
      <trkpt lat="48.57365" lon="7.71348">
        <ele>138.5</ele>
        <time>2019-08-08T15:31:30Z</time>
      </trkpt>
      <trkpt lat="48.57359" lon="7.7135">
        <ele>138.5</ele>
        <time>2019-08-08T15:31:31Z</time>
      </trkpt>
      <trkpt lat="48.57354" lon="7.71352">
        <ele>138.4</ele>
        <time>2019-08-08T15:31:32Z</time>
      </trkpt>
      <trkpt lat="48.57349" lon="7.71354">
        <ele>138.4</ele>
        <time>2019-08-08T15:31:33Z</time>
      </trkpt>
      <trkpt lat="48.57344" lon="7.71356">
        <ele>138.3</ele>
        <time>2019-08-08T15:31:34Z</time>
      </trkpt>
      <trkpt lat="48.57339" lon="7.71357">
        <ele>138.2</ele>
        <time>2019-08-08T15:31:35Z</time>
      </trkpt>
      <trkpt lat="48.57332" lon="7.71364">
        <ele>138.1</ele>
        <time>2019-08-08T15:31:36Z</time>
      </trkpt>
      <trkpt lat="48.57327" lon="7.71365">
        <ele>138.1</ele>
        <time>2019-08-08T15:31:37Z</time>
      </trkpt>
      <trkpt lat="48.57321" lon="7.71369">
        <ele>138</ele>
        <time>2019-08-08T15:31:38Z</time>
      </trkpt>
      <trkpt lat="48.57317" lon="7.71372">
        <ele>137.9</ele>
        <time>2019-08-08T15:31:39Z</time>
      </trkpt>
      <trkpt lat="48.57311" lon="7.71373">
        <ele>137.8</ele>
        <time>2019-08-08T15:31:40Z</time>
      </trkpt>
      <trkpt lat="48.57304" lon="7.71375">
        <ele>138</ele>
        <time>2019-08-08T15:31:41Z</time>
      </trkpt>
      <trkpt lat="48.573" lon="7.71378">
        <ele>138.1</ele>
        <time>2019-08-08T15:31:42Z</time>
      </trkpt>
      <trkpt lat="48.57295" lon="7.71379">
        <ele>138.2</ele>
        <time>2019-08-08T15:31:43Z</time>
      </trkpt>
      <trkpt lat="48.57286" lon="7.71379">
        <ele>138.4</ele>
        <time>2019-08-08T15:31:45Z</time>
      </trkpt>
      <trkpt lat="48.57281" lon="7.7138">
        <ele>138.6</ele>
        <time>2019-08-08T15:31:46Z</time>
      </trkpt>
      <trkpt lat="48.57277" lon="7.71381">
        <ele>138.7</ele>
        <time>2019-08-08T15:31:47Z</time>
      </trkpt>
      <trkpt lat="48.57274" lon="7.71382">
        <ele>138.8</ele>
        <time>2019-08-08T15:31:48Z</time>
      </trkpt>
      <trkpt lat="48.57268" lon="7.71388">
        <ele>139</ele>
        <time>2019-08-08T15:31:50Z</time>
      </trkpt>
      <trkpt lat="48.57265" lon="7.71393">
        <ele>139.2</ele>
        <time>2019-08-08T15:31:51Z</time>
      </trkpt>
      <trkpt lat="48.57262" lon="7.71395">
        <ele>139.3</ele>
        <time>2019-08-08T15:31:52Z</time>
      </trkpt>
      <trkpt lat="48.57257" lon="7.71396">
        <ele>139.5</ele>
        <time>2019-08-08T15:31:54Z</time>
      </trkpt>
      <trkpt lat="48.57252" lon="7.71398">
        <ele>139.6</ele>
        <time>2019-08-08T15:31:55Z</time>
      </trkpt>
      <trkpt lat="48.57248" lon="7.714">
        <ele>139.8</ele>
        <time>2019-08-08T15:31:57Z</time>
      </trkpt>
      <trkpt lat="48.57245" lon="7.71401">
        <ele>139.9</ele>
        <time>2019-08-08T15:32:00Z</time>
      </trkpt>
      <trkpt lat="48.57242" lon="7.71404">
        <ele>140</ele>
        <time>2019-08-08T15:32:04Z</time>
      </trkpt>
      <trkpt lat="48.57238" lon="7.71412">
        <ele>140.2</ele>
        <time>2019-08-08T15:32:47Z</time>
      </trkpt>
      <trkpt lat="48.57235" lon="7.71414">
        <ele>140.3</ele>
        <time>2019-08-08T15:32:49Z</time>
      </trkpt>
      <trkpt lat="48.5723" lon="7.71416">
        <ele>140.5</ele>
        <time>2019-08-08T15:32:51Z</time>
      </trkpt>
      <trkpt lat="48.57225" lon="7.71415">
        <ele>140.7</ele>
        <time>2019-08-08T15:32:53Z</time>
      </trkpt>
      <trkpt lat="48.57222" lon="7.71412">
        <ele>140.9</ele>
        <time>2019-08-08T15:32:55Z</time>
      </trkpt>
      <trkpt lat="48.57219" lon="7.71408">
        <ele>141</ele>
        <time>2019-08-08T15:32:57Z</time>
      </trkpt>
      <trkpt lat="48.57216" lon="7.71404">
        <ele>141.6</ele>
        <time>2019-08-08T15:32:59Z</time>
      </trkpt>
      <trkpt lat="48.57212" lon="7.71396">
        <ele>141.6</ele>
        <time>2019-08-08T15:33:01Z</time>
      </trkpt>
      <trkpt lat="48.5721" lon="7.71392">
        <ele>141.6</ele>
        <time>2019-08-08T15:33:02Z</time>
      </trkpt>
      <trkpt lat="48.57208" lon="7.71387">
        <ele>141.5</ele>
        <time>2019-08-08T15:33:03Z</time>
      </trkpt>
      <trkpt lat="48.57205" lon="7.71381">
        <ele>141.5</ele>
        <time>2019-08-08T15:33:04Z</time>
      </trkpt>
      <trkpt lat="48.57203" lon="7.71376">
        <ele>141.5</ele>
        <time>2019-08-08T15:33:05Z</time>
      </trkpt>
      <trkpt lat="48.57201" lon="7.71372">
        <ele>141.5</ele>
        <time>2019-08-08T15:33:06Z</time>
      </trkpt>
      <trkpt lat="48.57199" lon="7.71367">
        <ele>141.4</ele>
        <time>2019-08-08T15:33:07Z</time>
      </trkpt>
      <trkpt lat="48.57197" lon="7.71361">
        <ele>141.4</ele>
        <time>2019-08-08T15:33:08Z</time>
      </trkpt>
      <trkpt lat="48.57194" lon="7.71355">
        <ele>141.4</ele>
        <time>2019-08-08T15:33:09Z</time>
      </trkpt>
      <trkpt lat="48.57191" lon="7.71349">
        <ele>141.4</ele>
        <time>2019-08-08T15:33:10Z</time>
      </trkpt>
      <trkpt lat="48.57188" lon="7.71344">
        <ele>141.4</ele>
        <time>2019-08-08T15:33:11Z</time>
      </trkpt>
      <trkpt lat="48.57185" lon="7.71339">
        <ele>141.3</ele>
        <time>2019-08-08T15:33:12Z</time>
      </trkpt>
      <trkpt lat="48.57181" lon="7.71334">
        <ele>141.3</ele>
        <time>2019-08-08T15:33:13Z</time>
      </trkpt>
      <trkpt lat="48.57178" lon="7.71327">
        <ele>141.2</ele>
        <time>2019-08-08T15:33:14Z</time>
      </trkpt>
      <trkpt lat="48.57175" lon="7.71322">
        <ele>141.1</ele>
        <time>2019-08-08T15:33:15Z</time>
      </trkpt>
      <trkpt lat="48.57172" lon="7.71315">
        <ele>140.9</ele>
        <time>2019-08-08T15:33:16Z</time>
      </trkpt>
      <trkpt lat="48.5717" lon="7.7131">
        <ele>140.8</ele>
        <time>2019-08-08T15:33:17Z</time>
      </trkpt>
      <trkpt lat="48.57169" lon="7.71305">
        <ele>140.8</ele>
        <time>2019-08-08T15:33:18Z</time>
      </trkpt>
      <trkpt lat="48.57167" lon="7.713">
        <ele>140.7</ele>
        <time>2019-08-08T15:33:19Z</time>
      </trkpt>
      <trkpt lat="48.57165" lon="7.71295">
        <ele>140.6</ele>
        <time>2019-08-08T15:33:20Z</time>
      </trkpt>
      <trkpt lat="48.57163" lon="7.7129">
        <ele>140.5</ele>
        <time>2019-08-08T15:33:21Z</time>
      </trkpt>
      <trkpt lat="48.57161" lon="7.71285">
        <ele>140.5</ele>
        <time>2019-08-08T15:33:22Z</time>
      </trkpt>
      <trkpt lat="48.57159" lon="7.71279">
        <ele>140.5</ele>
        <time>2019-08-08T15:33:23Z</time>
      </trkpt>
      <trkpt lat="48.57158" lon="7.71267">
        <ele>140.4</ele>
        <time>2019-08-08T15:33:24Z</time>
      </trkpt>
      <trkpt lat="48.57155" lon="7.71261">
        <ele>140.4</ele>
        <time>2019-08-08T15:33:25Z</time>
      </trkpt>
      <trkpt lat="48.57153" lon="7.71255">
        <ele>140.4</ele>
        <time>2019-08-08T15:33:26Z</time>
      </trkpt>
      <trkpt lat="48.57154" lon="7.71242">
        <ele>140.4</ele>
        <time>2019-08-08T15:33:27Z</time>
      </trkpt>
      <trkpt lat="48.57155" lon="7.71235">
        <ele>140.4</ele>
        <time>2019-08-08T15:33:28Z</time>
      </trkpt>
      <trkpt lat="48.57154" lon="7.71229">
        <ele>140.4</ele>
        <time>2019-08-08T15:33:29Z</time>
      </trkpt>
      <trkpt lat="48.57155" lon="7.71223">
        <ele>140.4</ele>
        <time>2019-08-08T15:33:30Z</time>
      </trkpt>
      <trkpt lat="48.57154" lon="7.71218">
        <ele>140.4</ele>
        <time>2019-08-08T15:33:31Z</time>
      </trkpt>
      <trkpt lat="48.57152" lon="7.71213">
        <ele>140.4</ele>
        <time>2019-08-08T15:33:32Z</time>
      </trkpt>
      <trkpt lat="48.5715" lon="7.71208">
        <ele>140.5</ele>
        <time>2019-08-08T15:33:33Z</time>
      </trkpt>
      <trkpt lat="48.5715" lon="7.71205">
        <ele>140.5</ele>
        <time>2019-08-08T15:33:35Z</time>
      </trkpt>
      <trkpt lat="48.57148" lon="7.71201">
        <ele>140.5</ele>
        <time>2019-08-08T15:33:37Z</time>
      </trkpt>
      <trkpt lat="48.57143" lon="7.71197">
        <ele>140.5</ele>
        <time>2019-08-08T15:33:39Z</time>
      </trkpt>
      <trkpt lat="48.5714" lon="7.71195">
        <ele>140.5</ele>
        <time>2019-08-08T15:33:41Z</time>
      </trkpt>
      <trkpt lat="48.57137" lon="7.71193">
        <ele>140.5</ele>
        <time>2019-08-08T15:33:43Z</time>
      </trkpt>
      <trkpt lat="48.57131" lon="7.71189">
        <ele>140.5</ele>
        <time>2019-08-08T15:34:05Z</time>
      </trkpt>
      <trkpt lat="48.57127" lon="7.71187">
        <ele>140.5</ele>
        <time>2019-08-08T15:34:06Z</time>
      </trkpt>
      <trkpt lat="48.57122" lon="7.71182">
        <ele>140.6</ele>
        <time>2019-08-08T15:34:07Z</time>
      </trkpt>
      <trkpt lat="48.57116" lon="7.71173">
        <ele>140.7</ele>
        <time>2019-08-08T15:34:08Z</time>
      </trkpt>
      <trkpt lat="48.57111" lon="7.71167">
        <ele>140.7</ele>
        <time>2019-08-08T15:34:09Z</time>
      </trkpt>
      <trkpt lat="48.57107" lon="7.71162">
        <ele>140.8</ele>
        <time>2019-08-08T15:34:10Z</time>
      </trkpt>
      <trkpt lat="48.57103" lon="7.71157">
        <ele>140.9</ele>
        <time>2019-08-08T15:34:11Z</time>
      </trkpt>
      <trkpt lat="48.57099" lon="7.71152">
        <ele>140.9</ele>
        <time>2019-08-08T15:34:12Z</time>
      </trkpt>
      <trkpt lat="48.57094" lon="7.7115">
        <ele>141</ele>
        <time>2019-08-08T15:34:13Z</time>
      </trkpt>
      <trkpt lat="48.5709" lon="7.71147">
        <ele>141.1</ele>
        <time>2019-08-08T15:34:14Z</time>
      </trkpt>
      <trkpt lat="48.57086" lon="7.71144">
        <ele>141.1</ele>
        <time>2019-08-08T15:34:15Z</time>
      </trkpt>
      <trkpt lat="48.57082" lon="7.7114">
        <ele>141.2</ele>
        <time>2019-08-08T15:34:16Z</time>
      </trkpt>
      <trkpt lat="48.57077" lon="7.71138">
        <ele>141.3</ele>
        <time>2019-08-08T15:34:17Z</time>
      </trkpt>
      <trkpt lat="48.57071" lon="7.71136">
        <ele>141.4</ele>
        <time>2019-08-08T15:34:18Z</time>
      </trkpt>
      <trkpt lat="48.57067" lon="7.71136">
        <ele>141.5</ele>
        <time>2019-08-08T15:34:19Z</time>
      </trkpt>
      <trkpt lat="48.57063" lon="7.71134">
        <ele>141.6</ele>
        <time>2019-08-08T15:34:20Z</time>
      </trkpt>
      <trkpt lat="48.57059" lon="7.71131">
        <ele>141.7</ele>
        <time>2019-08-08T15:34:21Z</time>
      </trkpt>
      <trkpt lat="48.57054" lon="7.71129">
        <ele>141.7</ele>
        <time>2019-08-08T15:34:22Z</time>
      </trkpt>
      <trkpt lat="48.57049" lon="7.71127">
        <ele>141.8</ele>
        <time>2019-08-08T15:34:23Z</time>
      </trkpt>
      <trkpt lat="48.57044" lon="7.71125">
        <ele>141.9</ele>
        <time>2019-08-08T15:34:24Z</time>
      </trkpt>
      <trkpt lat="48.5704" lon="7.71122">
        <ele>141.9</ele>
        <time>2019-08-08T15:34:25Z</time>
      </trkpt>
      <trkpt lat="48.57038" lon="7.71119">
        <ele>142</ele>
        <time>2019-08-08T15:34:26Z</time>
      </trkpt>
      <trkpt lat="48.57035" lon="7.71115">
        <ele>142</ele>
        <time>2019-08-08T15:34:27Z</time>
      </trkpt>
      <trkpt lat="48.57032" lon="7.71112">
        <ele>141.9</ele>
        <time>2019-08-08T15:34:28Z</time>
      </trkpt>
      <trkpt lat="48.57028" lon="7.7111">
        <ele>141.9</ele>
        <time>2019-08-08T15:34:29Z</time>
      </trkpt>
      <trkpt lat="48.57024" lon="7.71108">
        <ele>141.7</ele>
        <time>2019-08-08T15:34:30Z</time>
      </trkpt>
      <trkpt lat="48.57021" lon="7.71106">
        <ele>141.7</ele>
        <time>2019-08-08T15:34:31Z</time>
      </trkpt>
      <trkpt lat="48.57018" lon="7.71103">
        <ele>141.7</ele>
        <time>2019-08-08T15:34:32Z</time>
      </trkpt>
      <trkpt lat="48.57013" lon="7.711">
        <ele>141.5</ele>
        <time>2019-08-08T15:34:34Z</time>
      </trkpt>
      <trkpt lat="48.5701" lon="7.711">
        <ele>141.5</ele>
        <time>2019-08-08T15:34:35Z</time>
      </trkpt>
      <trkpt lat="48.57007" lon="7.71102">
        <ele>141.5</ele>
        <time>2019-08-08T15:34:36Z</time>
      </trkpt>
      <trkpt lat="48.57003" lon="7.71103">
        <ele>141.5</ele>
        <time>2019-08-08T15:34:39Z</time>
      </trkpt>
      <trkpt lat="48.57006" lon="7.71107">
        <ele>141.5</ele>
        <time>2019-08-08T15:34:44Z</time>
      </trkpt>
      <trkpt lat="48.57009" lon="7.71107">
        <ele>141.5</ele>
        <time>2019-08-08T15:34:46Z</time>
      </trkpt>
      <trkpt lat="48.57012" lon="7.71109">
        <ele>141.6</ele>
        <time>2019-08-08T15:34:48Z</time>
      </trkpt>
      <trkpt lat="48.57016" lon="7.71114">
        <ele>141.6</ele>
        <time>2019-08-08T15:34:50Z</time>
      </trkpt>
      <trkpt lat="48.57019" lon="7.71116">
        <ele>141.7</ele>
        <time>2019-08-08T15:34:51Z</time>
      </trkpt>
      <trkpt lat="48.57022" lon="7.71119">
        <ele>141.8</ele>
        <time>2019-08-08T15:34:53Z</time>
      </trkpt>
      <trkpt lat="48.57026" lon="7.71119">
        <ele>141.8</ele>
        <time>2019-08-08T15:34:55Z</time>
      </trkpt>
      <trkpt lat="48.57027" lon="7.71114">
        <ele>141.8</ele>
        <time>2019-08-08T15:34:57Z</time>
      </trkpt>
      <trkpt lat="48.57028" lon="7.71108">
        <ele>141.8</ele>
        <time>2019-08-08T15:34:59Z</time>
      </trkpt>
      <trkpt lat="48.57029" lon="7.71101">
        <ele>141.7</ele>
        <time>2019-08-08T15:35:01Z</time>
      </trkpt>
      <trkpt lat="48.5703" lon="7.71096">
        <ele>141.7</ele>
        <time>2019-08-08T15:35:02Z</time>
      </trkpt>
      <trkpt lat="48.57032" lon="7.7109">
        <ele>141.6</ele>
        <time>2019-08-08T15:35:03Z</time>
      </trkpt>
      <trkpt lat="48.57035" lon="7.71083">
        <ele>141.5</ele>
        <time>2019-08-08T15:35:04Z</time>
      </trkpt>
      <trkpt lat="48.57037" lon="7.71079">
        <ele>141.4</ele>
        <time>2019-08-08T15:35:05Z</time>
      </trkpt>
      <trkpt lat="48.57038" lon="7.71075">
        <ele>141.3</ele>
        <time>2019-08-08T15:35:06Z</time>
      </trkpt>
      <trkpt lat="48.5704" lon="7.71071">
        <ele>141.3</ele>
        <time>2019-08-08T15:35:07Z</time>
      </trkpt>
      <trkpt lat="48.57042" lon="7.71064">
        <ele>141.1</ele>
        <time>2019-08-08T15:35:08Z</time>
      </trkpt>
      <trkpt lat="48.57044" lon="7.71056">
        <ele>141</ele>
        <time>2019-08-08T15:35:09Z</time>
      </trkpt>
      <trkpt lat="48.57044" lon="7.7105">
        <ele>140.9</ele>
        <time>2019-08-08T15:35:10Z</time>
      </trkpt>
      <trkpt lat="48.57045" lon="7.71043">
        <ele>140.7</ele>
        <time>2019-08-08T15:35:11Z</time>
      </trkpt>
      <trkpt lat="48.57044" lon="7.71036">
        <ele>140.7</ele>
        <time>2019-08-08T15:35:12Z</time>
      </trkpt>
      <trkpt lat="48.57042" lon="7.71029">
        <ele>140.6</ele>
        <time>2019-08-08T15:35:13Z</time>
      </trkpt>
      <trkpt lat="48.57041" lon="7.71025">
        <ele>140.6</ele>
        <time>2019-08-08T15:35:14Z</time>
      </trkpt>
      <trkpt lat="48.5704" lon="7.7102">
        <ele>140.5</ele>
        <time>2019-08-08T15:35:15Z</time>
      </trkpt>
      <trkpt lat="48.5704" lon="7.71016">
        <ele>140.5</ele>
        <time>2019-08-08T15:35:16Z</time>
      </trkpt>
      <trkpt lat="48.57043" lon="7.71">
        <ele>140.4</ele>
        <time>2019-08-08T15:35:19Z</time>
      </trkpt>
      <trkpt lat="48.57045" lon="7.70994">
        <ele>140.3</ele>
        <time>2019-08-08T15:35:20Z</time>
      </trkpt>
      <trkpt lat="48.57048" lon="7.70986">
        <ele>140.3</ele>
        <time>2019-08-08T15:35:22Z</time>
      </trkpt>
      <trkpt lat="48.57053" lon="7.70981">
        <ele>140.2</ele>
        <time>2019-08-08T15:35:23Z</time>
      </trkpt>
      <trkpt lat="48.57056" lon="7.70976">
        <ele>140.2</ele>
        <time>2019-08-08T15:35:24Z</time>
      </trkpt>
      <trkpt lat="48.5706" lon="7.70965">
        <ele>140.1</ele>
        <time>2019-08-08T15:35:25Z</time>
      </trkpt>
      <trkpt lat="48.57063" lon="7.7096">
        <ele>140.1</ele>
        <time>2019-08-08T15:35:26Z</time>
      </trkpt>
      <trkpt lat="48.57067" lon="7.70957">
        <ele>140.2</ele>
        <time>2019-08-08T15:35:27Z</time>
      </trkpt>
      <trkpt lat="48.57068" lon="7.70952">
        <ele>140.2</ele>
        <time>2019-08-08T15:35:28Z</time>
      </trkpt>
      <trkpt lat="48.5707" lon="7.70947">
        <ele>140.3</ele>
        <time>2019-08-08T15:35:29Z</time>
      </trkpt>
      <trkpt lat="48.57071" lon="7.70942">
        <ele>140.3</ele>
        <time>2019-08-08T15:35:30Z</time>
      </trkpt>
      <trkpt lat="48.57073" lon="7.70935">
        <ele>140.4</ele>
        <time>2019-08-08T15:35:31Z</time>
      </trkpt>
      <trkpt lat="48.57076" lon="7.70927">
        <ele>140.4</ele>
        <time>2019-08-08T15:35:33Z</time>
      </trkpt>
      <trkpt lat="48.57078" lon="7.70922">
        <ele>140.5</ele>
        <time>2019-08-08T15:35:35Z</time>
      </trkpt>
      <trkpt lat="48.57076" lon="7.70919">
        <ele>140.5</ele>
        <time>2019-08-08T15:35:39Z</time>
      </trkpt>
      <trkpt lat="48.57074" lon="7.70915">
        <ele>140.6</ele>
        <time>2019-08-08T15:35:40Z</time>
      </trkpt>
      <trkpt lat="48.57074" lon="7.7091">
        <ele>140.6</ele>
        <time>2019-08-08T15:35:41Z</time>
      </trkpt>
      <trkpt lat="48.57076" lon="7.70904">
        <ele>140.6</ele>
        <time>2019-08-08T15:35:43Z</time>
      </trkpt>
      <trkpt lat="48.57078" lon="7.70898">
        <ele>140.6</ele>
        <time>2019-08-08T15:35:44Z</time>
      </trkpt>
      <trkpt lat="48.5708" lon="7.70889">
        <ele>140.7</ele>
        <time>2019-08-08T15:35:46Z</time>
      </trkpt>
      <trkpt lat="48.5708" lon="7.70884">
        <ele>140.7</ele>
        <time>2019-08-08T15:35:47Z</time>
      </trkpt>
      <trkpt lat="48.57081" lon="7.70878">
        <ele>140.7</ele>
        <time>2019-08-08T15:35:48Z</time>
      </trkpt>
      <trkpt lat="48.57081" lon="7.70872">
        <ele>140.8</ele>
        <time>2019-08-08T15:35:49Z</time>
      </trkpt>
      <trkpt lat="48.57082" lon="7.70867">
        <ele>140.8</ele>
        <time>2019-08-08T15:35:50Z</time>
      </trkpt>
      <trkpt lat="48.57083" lon="7.70862">
        <ele>140.8</ele>
        <time>2019-08-08T15:35:51Z</time>
      </trkpt>
      <trkpt lat="48.57084" lon="7.70855">
        <ele>140.9</ele>
        <time>2019-08-08T15:35:52Z</time>
      </trkpt>
      <trkpt lat="48.57085" lon="7.70851">
        <ele>140.9</ele>
        <time>2019-08-08T15:35:53Z</time>
      </trkpt>
      <trkpt lat="48.57086" lon="7.70847">
        <ele>140.9</ele>
        <time>2019-08-08T15:35:54Z</time>
      </trkpt>
      <trkpt lat="48.57087" lon="7.70838">
        <ele>140.9</ele>
        <time>2019-08-08T15:35:56Z</time>
      </trkpt>
      <trkpt lat="48.57088" lon="7.70832">
        <ele>141</ele>
        <time>2019-08-08T15:35:57Z</time>
      </trkpt>
      <trkpt lat="48.57089" lon="7.70827">
        <ele>141</ele>
        <time>2019-08-08T15:35:58Z</time>
      </trkpt>
      <trkpt lat="48.5709" lon="7.70822">
        <ele>141</ele>
        <time>2019-08-08T15:35:59Z</time>
      </trkpt>
      <trkpt lat="48.57093" lon="7.70817">
        <ele>141</ele>
        <time>2019-08-08T15:36:00Z</time>
      </trkpt>
      <trkpt lat="48.57094" lon="7.70813">
        <ele>141</ele>
        <time>2019-08-08T15:36:01Z</time>
      </trkpt>
      <trkpt lat="48.57095" lon="7.70807">
        <ele>141</ele>
        <time>2019-08-08T15:36:02Z</time>
      </trkpt>
      <trkpt lat="48.57097" lon="7.70801">
        <ele>141</ele>
        <time>2019-08-08T15:36:03Z</time>
      </trkpt>
      <trkpt lat="48.57098" lon="7.70795">
        <ele>141</ele>
        <time>2019-08-08T15:36:04Z</time>
      </trkpt>
      <trkpt lat="48.57099" lon="7.70791">
        <ele>141</ele>
        <time>2019-08-08T15:36:05Z</time>
      </trkpt>
      <trkpt lat="48.57099" lon="7.70786">
        <ele>141</ele>
        <time>2019-08-08T15:36:06Z</time>
      </trkpt>
      <trkpt lat="48.571" lon="7.70781">
        <ele>141</ele>
        <time>2019-08-08T15:36:07Z</time>
      </trkpt>
      <trkpt lat="48.57101" lon="7.70776">
        <ele>141</ele>
        <time>2019-08-08T15:36:08Z</time>
      </trkpt>
      <trkpt lat="48.57103" lon="7.70772">
        <ele>141</ele>
        <time>2019-08-08T15:36:09Z</time>
      </trkpt>
      <trkpt lat="48.57105" lon="7.70767">
        <ele>141</ele>
        <time>2019-08-08T15:36:10Z</time>
      </trkpt>
      <trkpt lat="48.57107" lon="7.70763">
        <ele>141</ele>
        <time>2019-08-08T15:36:11Z</time>
      </trkpt>
      <trkpt lat="48.57109" lon="7.70758">
        <ele>141</ele>
        <time>2019-08-08T15:36:12Z</time>
      </trkpt>
      <trkpt lat="48.57111" lon="7.70754">
        <ele>140.9</ele>
        <time>2019-08-08T15:36:13Z</time>
      </trkpt>
      <trkpt lat="48.57113" lon="7.70748">
        <ele>140.9</ele>
        <time>2019-08-08T15:36:14Z</time>
      </trkpt>
      <trkpt lat="48.57115" lon="7.70741">
        <ele>140.8</ele>
        <time>2019-08-08T15:36:15Z</time>
      </trkpt>
      <trkpt lat="48.57117" lon="7.70733">
        <ele>140.8</ele>
        <time>2019-08-08T15:36:16Z</time>
      </trkpt>
      <trkpt lat="48.57118" lon="7.70727">
        <ele>140.7</ele>
        <time>2019-08-08T15:36:17Z</time>
      </trkpt>
      <trkpt lat="48.5712" lon="7.70722">
        <ele>140.7</ele>
        <time>2019-08-08T15:36:18Z</time>
      </trkpt>
      <trkpt lat="48.57121" lon="7.70718">
        <ele>140.6</ele>
        <time>2019-08-08T15:36:19Z</time>
      </trkpt>
      <trkpt lat="48.57123" lon="7.70714">
        <ele>140.6</ele>
        <time>2019-08-08T15:36:20Z</time>
      </trkpt>
      <trkpt lat="48.57124" lon="7.7071">
        <ele>140.5</ele>
        <time>2019-08-08T15:36:21Z</time>
      </trkpt>
      <trkpt lat="48.57125" lon="7.70705">
        <ele>140.5</ele>
        <time>2019-08-08T15:36:22Z</time>
      </trkpt>
      <trkpt lat="48.57126" lon="7.707">
        <ele>140.5</ele>
        <time>2019-08-08T15:36:23Z</time>
      </trkpt>
      <trkpt lat="48.57127" lon="7.70695">
        <ele>140.4</ele>
        <time>2019-08-08T15:36:24Z</time>
      </trkpt>
      <trkpt lat="48.57129" lon="7.70687">
        <ele>140.4</ele>
        <time>2019-08-08T15:36:26Z</time>
      </trkpt>
      <trkpt lat="48.57131" lon="7.70682">
        <ele>140.3</ele>
        <time>2019-08-08T15:36:27Z</time>
      </trkpt>
      <trkpt lat="48.57132" lon="7.70677">
        <ele>140.3</ele>
        <time>2019-08-08T15:36:28Z</time>
      </trkpt>
      <trkpt lat="48.57135" lon="7.70673">
        <ele>140.3</ele>
        <time>2019-08-08T15:36:29Z</time>
      </trkpt>
      <trkpt lat="48.57136" lon="7.70667">
        <ele>140.2</ele>
        <time>2019-08-08T15:36:30Z</time>
      </trkpt>
      <trkpt lat="48.57139" lon="7.70661">
        <ele>140.2</ele>
        <time>2019-08-08T15:36:31Z</time>
      </trkpt>
      <trkpt lat="48.57141" lon="7.70657">
        <ele>140.1</ele>
        <time>2019-08-08T15:36:32Z</time>
      </trkpt>
      <trkpt lat="48.57143" lon="7.70653">
        <ele>140.1</ele>
        <time>2019-08-08T15:36:33Z</time>
      </trkpt>
      <trkpt lat="48.57145" lon="7.70649">
        <ele>140.1</ele>
        <time>2019-08-08T15:36:34Z</time>
      </trkpt>
      <trkpt lat="48.57148" lon="7.70639">
        <ele>140</ele>
        <time>2019-08-08T15:36:36Z</time>
      </trkpt>
      <trkpt lat="48.57149" lon="7.70634">
        <ele>140</ele>
        <time>2019-08-08T15:36:37Z</time>
      </trkpt>
      <trkpt lat="48.57151" lon="7.70626">
        <ele>140</ele>
        <time>2019-08-08T15:36:38Z</time>
      </trkpt>
      <trkpt lat="48.57152" lon="7.70622">
        <ele>140</ele>
        <time>2019-08-08T15:36:39Z</time>
      </trkpt>
      <trkpt lat="48.57155" lon="7.70615">
        <ele>140</ele>
        <time>2019-08-08T15:36:40Z</time>
      </trkpt>
      <trkpt lat="48.57156" lon="7.70608">
        <ele>140</ele>
        <time>2019-08-08T15:36:41Z</time>
      </trkpt>
      <trkpt lat="48.57159" lon="7.70601">
        <ele>140</ele>
        <time>2019-08-08T15:36:42Z</time>
      </trkpt>
      <trkpt lat="48.57161" lon="7.70597">
        <ele>140.1</ele>
        <time>2019-08-08T15:36:43Z</time>
      </trkpt>
      <trkpt lat="48.57163" lon="7.70591">
        <ele>140.1</ele>
        <time>2019-08-08T15:36:44Z</time>
      </trkpt>
      <trkpt lat="48.57164" lon="7.70586">
        <ele>140.1</ele>
        <time>2019-08-08T15:36:45Z</time>
      </trkpt>
      <trkpt lat="48.57165" lon="7.70582">
        <ele>140.1</ele>
        <time>2019-08-08T15:36:46Z</time>
      </trkpt>
      <trkpt lat="48.57166" lon="7.70578">
        <ele>140.1</ele>
        <time>2019-08-08T15:36:47Z</time>
      </trkpt>
      <trkpt lat="48.57167" lon="7.70568">
        <ele>140.1</ele>
        <time>2019-08-08T15:36:49Z</time>
      </trkpt>
      <trkpt lat="48.57169" lon="7.70563">
        <ele>140.1</ele>
        <time>2019-08-08T15:36:50Z</time>
      </trkpt>
      <trkpt lat="48.57171" lon="7.70557">
        <ele>140.2</ele>
        <time>2019-08-08T15:36:51Z</time>
      </trkpt>
      <trkpt lat="48.57173" lon="7.7055">
        <ele>140.2</ele>
        <time>2019-08-08T15:36:52Z</time>
      </trkpt>
      <trkpt lat="48.57174" lon="7.70543">
        <ele>140.2</ele>
        <time>2019-08-08T15:36:53Z</time>
      </trkpt>
      <trkpt lat="48.57176" lon="7.70537">
        <ele>140.1</ele>
        <time>2019-08-08T15:36:54Z</time>
      </trkpt>
      <trkpt lat="48.57178" lon="7.70531">
        <ele>140.1</ele>
        <time>2019-08-08T15:36:55Z</time>
      </trkpt>
      <trkpt lat="48.5718" lon="7.70524">
        <ele>140.1</ele>
        <time>2019-08-08T15:36:56Z</time>
      </trkpt>
      <trkpt lat="48.57182" lon="7.70517">
        <ele>140</ele>
        <time>2019-08-08T15:36:57Z</time>
      </trkpt>
      <trkpt lat="48.57183" lon="7.70512">
        <ele>140</ele>
        <time>2019-08-08T15:36:58Z</time>
      </trkpt>
      <trkpt lat="48.57185" lon="7.70505">
        <ele>140</ele>
        <time>2019-08-08T15:36:59Z</time>
      </trkpt>
      <trkpt lat="48.57187" lon="7.70498">
        <ele>139.9</ele>
        <time>2019-08-08T15:37:00Z</time>
      </trkpt>
      <trkpt lat="48.57188" lon="7.70491">
        <ele>139.9</ele>
        <time>2019-08-08T15:37:01Z</time>
      </trkpt>
      <trkpt lat="48.5719" lon="7.70483">
        <ele>139.8</ele>
        <time>2019-08-08T15:37:02Z</time>
      </trkpt>
      <trkpt lat="48.57192" lon="7.70475">
        <ele>139.8</ele>
        <time>2019-08-08T15:37:03Z</time>
      </trkpt>
      <trkpt lat="48.57194" lon="7.70467">
        <ele>139.7</ele>
        <time>2019-08-08T15:37:04Z</time>
      </trkpt>
      <trkpt lat="48.57195" lon="7.70461">
        <ele>139.7</ele>
        <time>2019-08-08T15:37:05Z</time>
      </trkpt>
      <trkpt lat="48.57197" lon="7.70456">
        <ele>139.6</ele>
        <time>2019-08-08T15:37:06Z</time>
      </trkpt>
      <trkpt lat="48.57199" lon="7.7045">
        <ele>139.6</ele>
        <time>2019-08-08T15:37:07Z</time>
      </trkpt>
      <trkpt lat="48.57202" lon="7.70445">
        <ele>139.5</ele>
        <time>2019-08-08T15:37:08Z</time>
      </trkpt>
      <trkpt lat="48.57204" lon="7.7044">
        <ele>139.5</ele>
        <time>2019-08-08T15:37:09Z</time>
      </trkpt>
      <trkpt lat="48.57205" lon="7.70434">
        <ele>139.4</ele>
        <time>2019-08-08T15:37:10Z</time>
      </trkpt>
      <trkpt lat="48.57207" lon="7.70428">
        <ele>139.6</ele>
        <time>2019-08-08T15:37:11Z</time>
      </trkpt>
      <trkpt lat="48.57209" lon="7.70423">
        <ele>139.7</ele>
        <time>2019-08-08T15:37:12Z</time>
      </trkpt>
      <trkpt lat="48.57211" lon="7.70417">
        <ele>139.9</ele>
        <time>2019-08-08T15:37:13Z</time>
      </trkpt>
      <trkpt lat="48.57213" lon="7.70413">
        <ele>140</ele>
        <time>2019-08-08T15:37:14Z</time>
      </trkpt>
      <trkpt lat="48.57215" lon="7.70408">
        <ele>140.1</ele>
        <time>2019-08-08T15:37:15Z</time>
      </trkpt>
      <trkpt lat="48.57215" lon="7.70403">
        <ele>140.2</ele>
        <time>2019-08-08T15:37:16Z</time>
      </trkpt>
      <trkpt lat="48.57217" lon="7.70398">
        <ele>140.3</ele>
        <time>2019-08-08T15:37:17Z</time>
      </trkpt>
      <trkpt lat="48.57219" lon="7.70393">
        <ele>140.4</ele>
        <time>2019-08-08T15:37:18Z</time>
      </trkpt>
      <trkpt lat="48.5722" lon="7.70386">
        <ele>140.5</ele>
        <time>2019-08-08T15:37:19Z</time>
      </trkpt>
      <trkpt lat="48.57222" lon="7.7038">
        <ele>140.6</ele>
        <time>2019-08-08T15:37:20Z</time>
      </trkpt>
      <trkpt lat="48.57224" lon="7.70374">
        <ele>140.7</ele>
        <time>2019-08-08T15:37:21Z</time>
      </trkpt>
      <trkpt lat="48.57226" lon="7.70369">
        <ele>140.7</ele>
        <time>2019-08-08T15:37:22Z</time>
      </trkpt>
      <trkpt lat="48.57229" lon="7.70361">
        <ele>140.8</ele>
        <time>2019-08-08T15:37:23Z</time>
      </trkpt>
      <trkpt lat="48.57231" lon="7.70353">
        <ele>140.8</ele>
        <time>2019-08-08T15:37:24Z</time>
      </trkpt>
      <trkpt lat="48.57234" lon="7.70346">
        <ele>140.8</ele>
        <time>2019-08-08T15:37:25Z</time>
      </trkpt>
      <trkpt lat="48.57237" lon="7.70339">
        <ele>140.8</ele>
        <time>2019-08-08T15:37:26Z</time>
      </trkpt>
      <trkpt lat="48.57239" lon="7.7033">
        <ele>140.9</ele>
        <time>2019-08-08T15:37:27Z</time>
      </trkpt>
      <trkpt lat="48.57242" lon="7.70321">
        <ele>140.9</ele>
        <time>2019-08-08T15:37:28Z</time>
      </trkpt>
      <trkpt lat="48.57245" lon="7.70312">
        <ele>140.9</ele>
        <time>2019-08-08T15:37:29Z</time>
      </trkpt>
      <trkpt lat="48.57246" lon="7.70304">
        <ele>141</ele>
        <time>2019-08-08T15:37:30Z</time>
      </trkpt>
      <trkpt lat="48.57247" lon="7.70298">
        <ele>141</ele>
        <time>2019-08-08T15:37:31Z</time>
      </trkpt>
      <trkpt lat="48.57248" lon="7.70292">
        <ele>141.1</ele>
        <time>2019-08-08T15:37:32Z</time>
      </trkpt>
      <trkpt lat="48.57251" lon="7.70288">
        <ele>141.1</ele>
        <time>2019-08-08T15:37:33Z</time>
      </trkpt>
      <trkpt lat="48.57253" lon="7.70282">
        <ele>141.1</ele>
        <time>2019-08-08T15:37:34Z</time>
      </trkpt>
      <trkpt lat="48.57254" lon="7.70276">
        <ele>141.2</ele>
        <time>2019-08-08T15:37:35Z</time>
      </trkpt>
      <trkpt lat="48.57254" lon="7.70271">
        <ele>141.2</ele>
        <time>2019-08-08T15:37:36Z</time>
      </trkpt>
      <trkpt lat="48.57254" lon="7.70266">
        <ele>141.2</ele>
        <time>2019-08-08T15:37:37Z</time>
      </trkpt>
      <trkpt lat="48.57256" lon="7.70259">
        <ele>141.2</ele>
        <time>2019-08-08T15:37:38Z</time>
      </trkpt>
      <trkpt lat="48.57257" lon="7.70255">
        <ele>141.3</ele>
        <time>2019-08-08T15:37:39Z</time>
      </trkpt>
      <trkpt lat="48.57259" lon="7.7025">
        <ele>141.3</ele>
        <time>2019-08-08T15:37:40Z</time>
      </trkpt>
      <trkpt lat="48.57259" lon="7.70246">
        <ele>141.3</ele>
        <time>2019-08-08T15:37:41Z</time>
      </trkpt>
      <trkpt lat="48.5726" lon="7.70241">
        <ele>141.3</ele>
        <time>2019-08-08T15:37:42Z</time>
      </trkpt>
      <trkpt lat="48.57262" lon="7.70235">
        <ele>141.3</ele>
        <time>2019-08-08T15:37:43Z</time>
      </trkpt>
      <trkpt lat="48.57265" lon="7.70229">
        <ele>141.4</ele>
        <time>2019-08-08T15:37:44Z</time>
      </trkpt>
      <trkpt lat="48.57267" lon="7.70223">
        <ele>141.4</ele>
        <time>2019-08-08T15:37:45Z</time>
      </trkpt>
      <trkpt lat="48.57269" lon="7.70215">
        <ele>141.5</ele>
        <time>2019-08-08T15:37:46Z</time>
      </trkpt>
      <trkpt lat="48.57272" lon="7.70207">
        <ele>141.6</ele>
        <time>2019-08-08T15:37:47Z</time>
      </trkpt>
      <trkpt lat="48.57274" lon="7.702">
        <ele>141.7</ele>
        <time>2019-08-08T15:37:48Z</time>
      </trkpt>
      <trkpt lat="48.57276" lon="7.70192">
        <ele>141.7</ele>
        <time>2019-08-08T15:37:49Z</time>
      </trkpt>
      <trkpt lat="48.57278" lon="7.70186">
        <ele>141.8</ele>
        <time>2019-08-08T15:37:50Z</time>
      </trkpt>
      <trkpt lat="48.5728" lon="7.70179">
        <ele>141.9</ele>
        <time>2019-08-08T15:37:51Z</time>
      </trkpt>
      <trkpt lat="48.57281" lon="7.70173">
        <ele>141.9</ele>
        <time>2019-08-08T15:37:52Z</time>
      </trkpt>
      <trkpt lat="48.57282" lon="7.70168">
        <ele>142</ele>
        <time>2019-08-08T15:37:53Z</time>
      </trkpt>
      <trkpt lat="48.57283" lon="7.70161">
        <ele>142.1</ele>
        <time>2019-08-08T15:37:54Z</time>
      </trkpt>
      <trkpt lat="48.57284" lon="7.70156">
        <ele>142.1</ele>
        <time>2019-08-08T15:37:55Z</time>
      </trkpt>
      <trkpt lat="48.57284" lon="7.7015">
        <ele>142.2</ele>
        <time>2019-08-08T15:37:56Z</time>
      </trkpt>
      <trkpt lat="48.57285" lon="7.70143">
        <ele>142.3</ele>
        <time>2019-08-08T15:37:57Z</time>
      </trkpt>
      <trkpt lat="48.57287" lon="7.70126">
        <ele>142.5</ele>
        <time>2019-08-08T15:37:58Z</time>
      </trkpt>
      <trkpt lat="48.57287" lon="7.7012">
        <ele>142.6</ele>
        <time>2019-08-08T15:37:59Z</time>
      </trkpt>
      <trkpt lat="48.57289" lon="7.70106">
        <ele>142.7</ele>
        <time>2019-08-08T15:38:00Z</time>
      </trkpt>
      <trkpt lat="48.57289" lon="7.70098">
        <ele>142.7</ele>
        <time>2019-08-08T15:38:01Z</time>
      </trkpt>
      <trkpt lat="48.57289" lon="7.70093">
        <ele>142.7</ele>
        <time>2019-08-08T15:38:02Z</time>
      </trkpt>
      <trkpt lat="48.5729" lon="7.70085">
        <ele>142.7</ele>
        <time>2019-08-08T15:38:03Z</time>
      </trkpt>
      <trkpt lat="48.57288" lon="7.70076">
        <ele>142.6</ele>
        <time>2019-08-08T15:38:04Z</time>
      </trkpt>
      <trkpt lat="48.57287" lon="7.70067">
        <ele>142.4</ele>
        <time>2019-08-08T15:38:05Z</time>
      </trkpt>
      <trkpt lat="48.57288" lon="7.70053">
        <ele>142.2</ele>
        <time>2019-08-08T15:38:06Z</time>
      </trkpt>
      <trkpt lat="48.57288" lon="7.70046">
        <ele>142.1</ele>
        <time>2019-08-08T15:38:07Z</time>
      </trkpt>
      <trkpt lat="48.57288" lon="7.70039">
        <ele>142</ele>
        <time>2019-08-08T15:38:08Z</time>
      </trkpt>
      <trkpt lat="48.57287" lon="7.70032">
        <ele>141.9</ele>
        <time>2019-08-08T15:38:09Z</time>
      </trkpt>
      <trkpt lat="48.57288" lon="7.70026">
        <ele>141.9</ele>
        <time>2019-08-08T15:38:10Z</time>
      </trkpt>
      <trkpt lat="48.5729" lon="7.70021">
        <ele>141.8</ele>
        <time>2019-08-08T15:38:11Z</time>
      </trkpt>
      <trkpt lat="48.57293" lon="7.70017">
        <ele>141.8</ele>
        <time>2019-08-08T15:38:12Z</time>
      </trkpt>
      <trkpt lat="48.57296" lon="7.7001">
        <ele>141.7</ele>
        <time>2019-08-08T15:38:13Z</time>
      </trkpt>
      <trkpt lat="48.57299" lon="7.70004">
        <ele>141.7</ele>
        <time>2019-08-08T15:38:14Z</time>
      </trkpt>
      <trkpt lat="48.57301" lon="7.69998">
        <ele>141.7</ele>
        <time>2019-08-08T15:38:15Z</time>
      </trkpt>
      <trkpt lat="48.57305" lon="7.69993">
        <ele>141.7</ele>
        <time>2019-08-08T15:38:16Z</time>
      </trkpt>
      <trkpt lat="48.57307" lon="7.69988">
        <ele>141.7</ele>
        <time>2019-08-08T15:38:17Z</time>
      </trkpt>
      <trkpt lat="48.5731" lon="7.69981">
        <ele>141.8</ele>
        <time>2019-08-08T15:38:18Z</time>
      </trkpt>
      <trkpt lat="48.57313" lon="7.69975">
        <ele>141.8</ele>
        <time>2019-08-08T15:38:19Z</time>
      </trkpt>
      <trkpt lat="48.57314" lon="7.69971">
        <ele>141.8</ele>
        <time>2019-08-08T15:38:20Z</time>
      </trkpt>
      <trkpt lat="48.57318" lon="7.69966">
        <ele>141.9</ele>
        <time>2019-08-08T15:38:21Z</time>
      </trkpt>
      <trkpt lat="48.57321" lon="7.69963">
        <ele>142</ele>
        <time>2019-08-08T15:38:22Z</time>
      </trkpt>
      <trkpt lat="48.57324" lon="7.69959">
        <ele>142.1</ele>
        <time>2019-08-08T15:38:23Z</time>
      </trkpt>
      <trkpt lat="48.57331" lon="7.69955">
        <ele>142.3</ele>
        <time>2019-08-08T15:38:24Z</time>
      </trkpt>
      <trkpt lat="48.57337" lon="7.6995">
        <ele>142.6</ele>
        <time>2019-08-08T15:38:25Z</time>
      </trkpt>
      <trkpt lat="48.57343" lon="7.69943">
        <ele>142.7</ele>
        <time>2019-08-08T15:38:26Z</time>
      </trkpt>
      <trkpt lat="48.57348" lon="7.69938">
        <ele>142.8</ele>
        <time>2019-08-08T15:38:27Z</time>
      </trkpt>
      <trkpt lat="48.57354" lon="7.69934">
        <ele>142.8</ele>
        <time>2019-08-08T15:38:28Z</time>
      </trkpt>
      <trkpt lat="48.57359" lon="7.69926">
        <ele>142.8</ele>
        <time>2019-08-08T15:38:29Z</time>
      </trkpt>
      <trkpt lat="48.57363" lon="7.69921">
        <ele>142.8</ele>
        <time>2019-08-08T15:38:30Z</time>
      </trkpt>
      <trkpt lat="48.57366" lon="7.69916">
        <ele>142.8</ele>
        <time>2019-08-08T15:38:31Z</time>
      </trkpt>
      <trkpt lat="48.57369" lon="7.69911">
        <ele>142.8</ele>
        <time>2019-08-08T15:38:32Z</time>
      </trkpt>
      <trkpt lat="48.57372" lon="7.69908">
        <ele>142.8</ele>
        <time>2019-08-08T15:38:33Z</time>
      </trkpt>
      <trkpt lat="48.57374" lon="7.69904">
        <ele>142.8</ele>
        <time>2019-08-08T15:38:34Z</time>
      </trkpt>
      <trkpt lat="48.57377" lon="7.69901">
        <ele>142.8</ele>
        <time>2019-08-08T15:38:35Z</time>
      </trkpt>
      <trkpt lat="48.5738" lon="7.69898">
        <ele>142.8</ele>
        <time>2019-08-08T15:38:36Z</time>
      </trkpt>
      <trkpt lat="48.57385" lon="7.69895">
        <ele>142.8</ele>
        <time>2019-08-08T15:38:37Z</time>
      </trkpt>
      <trkpt lat="48.5739" lon="7.69892">
        <ele>142.8</ele>
        <time>2019-08-08T15:38:38Z</time>
      </trkpt>
      <trkpt lat="48.57394" lon="7.6989">
        <ele>142.8</ele>
        <time>2019-08-08T15:38:39Z</time>
      </trkpt>
      <trkpt lat="48.57399" lon="7.69888">
        <ele>142.8</ele>
        <time>2019-08-08T15:38:40Z</time>
      </trkpt>
      <trkpt lat="48.57405" lon="7.69886">
        <ele>142.8</ele>
        <time>2019-08-08T15:38:41Z</time>
      </trkpt>
      <trkpt lat="48.5741" lon="7.69884">
        <ele>142.8</ele>
        <time>2019-08-08T15:38:42Z</time>
      </trkpt>
      <trkpt lat="48.57414" lon="7.6988">
        <ele>142.8</ele>
        <time>2019-08-08T15:38:43Z</time>
      </trkpt>
      <trkpt lat="48.57418" lon="7.69878">
        <ele>142.8</ele>
        <time>2019-08-08T15:38:44Z</time>
      </trkpt>
      <trkpt lat="48.57423" lon="7.69875">
        <ele>142.8</ele>
        <time>2019-08-08T15:38:45Z</time>
      </trkpt>
      <trkpt lat="48.57427" lon="7.69873">
        <ele>142.9</ele>
        <time>2019-08-08T15:38:46Z</time>
      </trkpt>
      <trkpt lat="48.57431" lon="7.69871">
        <ele>142.9</ele>
        <time>2019-08-08T15:38:47Z</time>
      </trkpt>
      <trkpt lat="48.57435" lon="7.69869">
        <ele>143</ele>
        <time>2019-08-08T15:38:48Z</time>
      </trkpt>
      <trkpt lat="48.5744" lon="7.69865">
        <ele>143.1</ele>
        <time>2019-08-08T15:38:49Z</time>
      </trkpt>
      <trkpt lat="48.57444" lon="7.69862">
        <ele>143.2</ele>
        <time>2019-08-08T15:38:50Z</time>
      </trkpt>
      <trkpt lat="48.57449" lon="7.69859">
        <ele>143.4</ele>
        <time>2019-08-08T15:38:51Z</time>
      </trkpt>
      <trkpt lat="48.57454" lon="7.69855">
        <ele>143.6</ele>
        <time>2019-08-08T15:38:52Z</time>
      </trkpt>
      <trkpt lat="48.5746" lon="7.6985">
        <ele>143.7</ele>
        <time>2019-08-08T15:38:53Z</time>
      </trkpt>
      <trkpt lat="48.57466" lon="7.69848">
        <ele>143.7</ele>
        <time>2019-08-08T15:38:54Z</time>
      </trkpt>
      <trkpt lat="48.57471" lon="7.69845">
        <ele>143.8</ele>
        <time>2019-08-08T15:38:55Z</time>
      </trkpt>
      <trkpt lat="48.57475" lon="7.69842">
        <ele>143.8</ele>
        <time>2019-08-08T15:38:56Z</time>
      </trkpt>
      <trkpt lat="48.5748" lon="7.69839">
        <ele>143.8</ele>
        <time>2019-08-08T15:38:57Z</time>
      </trkpt>
      <trkpt lat="48.57484" lon="7.69838">
        <ele>143.8</ele>
        <time>2019-08-08T15:38:58Z</time>
      </trkpt>
      <trkpt lat="48.57487" lon="7.69835">
        <ele>143.8</ele>
        <time>2019-08-08T15:38:59Z</time>
      </trkpt>
      <trkpt lat="48.5749" lon="7.69831">
        <ele>143.8</ele>
        <time>2019-08-08T15:39:00Z</time>
      </trkpt>
      <trkpt lat="48.57493" lon="7.69828">
        <ele>143.8</ele>
        <time>2019-08-08T15:39:01Z</time>
      </trkpt>
      <trkpt lat="48.57496" lon="7.69824">
        <ele>143.8</ele>
        <time>2019-08-08T15:39:02Z</time>
      </trkpt>
      <trkpt lat="48.57499" lon="7.69822">
        <ele>143.8</ele>
        <time>2019-08-08T15:39:03Z</time>
      </trkpt>
      <trkpt lat="48.57503" lon="7.69816">
        <ele>143.8</ele>
        <time>2019-08-08T15:39:04Z</time>
      </trkpt>
      <trkpt lat="48.57506" lon="7.69812">
        <ele>143.8</ele>
        <time>2019-08-08T15:39:05Z</time>
      </trkpt>
      <trkpt lat="48.5751" lon="7.6981">
        <ele>143.8</ele>
        <time>2019-08-08T15:39:06Z</time>
      </trkpt>
      <trkpt lat="48.57513" lon="7.69807">
        <ele>143.8</ele>
        <time>2019-08-08T15:39:07Z</time>
      </trkpt>
      <trkpt lat="48.57517" lon="7.698">
        <ele>143.8</ele>
        <time>2019-08-08T15:39:08Z</time>
      </trkpt>
      <trkpt lat="48.5752" lon="7.69795">
        <ele>143.8</ele>
        <time>2019-08-08T15:39:09Z</time>
      </trkpt>
      <trkpt lat="48.57523" lon="7.69792">
        <ele>143.8</ele>
        <time>2019-08-08T15:39:10Z</time>
      </trkpt>
      <trkpt lat="48.57527" lon="7.69788">
        <ele>143.8</ele>
        <time>2019-08-08T15:39:11Z</time>
      </trkpt>
      <trkpt lat="48.5753" lon="7.69785">
        <ele>143.8</ele>
        <time>2019-08-08T15:39:12Z</time>
      </trkpt>
      <trkpt lat="48.57533" lon="7.69783">
        <ele>143.8</ele>
        <time>2019-08-08T15:39:13Z</time>
      </trkpt>
      <trkpt lat="48.57536" lon="7.69782">
        <ele>143.8</ele>
        <time>2019-08-08T15:39:14Z</time>
      </trkpt>
      <trkpt lat="48.57539" lon="7.69779">
        <ele>143.8</ele>
        <time>2019-08-08T15:39:15Z</time>
      </trkpt>
      <trkpt lat="48.57542" lon="7.69776">
        <ele>143.8</ele>
        <time>2019-08-08T15:39:16Z</time>
      </trkpt>
      <trkpt lat="48.57546" lon="7.69771">
        <ele>143.8</ele>
        <time>2019-08-08T15:39:17Z</time>
      </trkpt>
      <trkpt lat="48.5755" lon="7.69765">
        <ele>143.8</ele>
        <time>2019-08-08T15:39:18Z</time>
      </trkpt>
      <trkpt lat="48.57554" lon="7.69759">
        <ele>143.8</ele>
        <time>2019-08-08T15:39:19Z</time>
      </trkpt>
      <trkpt lat="48.57557" lon="7.69752">
        <ele>143.8</ele>
        <time>2019-08-08T15:39:20Z</time>
      </trkpt>
      <trkpt lat="48.57561" lon="7.69742">
        <ele>143.8</ele>
        <time>2019-08-08T15:39:21Z</time>
      </trkpt>
      <trkpt lat="48.57564" lon="7.69733">
        <ele>143.8</ele>
        <time>2019-08-08T15:39:22Z</time>
      </trkpt>
      <trkpt lat="48.57567" lon="7.69722">
        <ele>143.8</ele>
        <time>2019-08-08T15:39:23Z</time>
      </trkpt>
      <trkpt lat="48.5757" lon="7.69714">
        <ele>143.8</ele>
        <time>2019-08-08T15:39:24Z</time>
      </trkpt>
      <trkpt lat="48.57572" lon="7.69708">
        <ele>143.8</ele>
        <time>2019-08-08T15:39:25Z</time>
      </trkpt>
      <trkpt lat="48.57574" lon="7.697">
        <ele>143.8</ele>
        <time>2019-08-08T15:39:26Z</time>
      </trkpt>
      <trkpt lat="48.57575" lon="7.69692">
        <ele>143.8</ele>
        <time>2019-08-08T15:39:27Z</time>
      </trkpt>
      <trkpt lat="48.57576" lon="7.69682">
        <ele>143.8</ele>
        <time>2019-08-08T15:39:28Z</time>
      </trkpt>
      <trkpt lat="48.57577" lon="7.69676">
        <ele>143.8</ele>
        <time>2019-08-08T15:39:29Z</time>
      </trkpt>
      <trkpt lat="48.57577" lon="7.6967">
        <ele>143.8</ele>
        <time>2019-08-08T15:39:30Z</time>
      </trkpt>
      <trkpt lat="48.57578" lon="7.69664">
        <ele>143.8</ele>
        <time>2019-08-08T15:39:31Z</time>
      </trkpt>
      <trkpt lat="48.57579" lon="7.69658">
        <ele>143.8</ele>
        <time>2019-08-08T15:39:32Z</time>
      </trkpt>
      <trkpt lat="48.57579" lon="7.69649">
        <ele>143.8</ele>
        <time>2019-08-08T15:39:33Z</time>
      </trkpt>
      <trkpt lat="48.57578" lon="7.69643">
        <ele>143.8</ele>
        <time>2019-08-08T15:39:34Z</time>
      </trkpt>
      <trkpt lat="48.57577" lon="7.69636">
        <ele>143.8</ele>
        <time>2019-08-08T15:39:35Z</time>
      </trkpt>
      <trkpt lat="48.57576" lon="7.6963">
        <ele>143.8</ele>
        <time>2019-08-08T15:39:36Z</time>
      </trkpt>
      <trkpt lat="48.57575" lon="7.69626">
        <ele>143.8</ele>
        <time>2019-08-08T15:39:37Z</time>
      </trkpt>
      <trkpt lat="48.57574" lon="7.69622">
        <ele>143.8</ele>
        <time>2019-08-08T15:39:38Z</time>
      </trkpt>
      <trkpt lat="48.57573" lon="7.69616">
        <ele>143.8</ele>
        <time>2019-08-08T15:39:39Z</time>
      </trkpt>
      <trkpt lat="48.57573" lon="7.69605">
        <ele>143.8</ele>
        <time>2019-08-08T15:39:40Z</time>
      </trkpt>
      <trkpt lat="48.57573" lon="7.69597">
        <ele>143.8</ele>
        <time>2019-08-08T15:39:42Z</time>
      </trkpt>
      <trkpt lat="48.57572" lon="7.69591">
        <ele>143.8</ele>
        <time>2019-08-08T15:39:43Z</time>
      </trkpt>
      <trkpt lat="48.57569" lon="7.69586">
        <ele>143.8</ele>
        <time>2019-08-08T15:39:44Z</time>
      </trkpt>
      <trkpt lat="48.57567" lon="7.69583">
        <ele>143.8</ele>
        <time>2019-08-08T15:39:45Z</time>
      </trkpt>
      <trkpt lat="48.57563" lon="7.69582">
        <ele>143.8</ele>
        <time>2019-08-08T15:39:46Z</time>
      </trkpt>
      <trkpt lat="48.5756" lon="7.69579">
        <ele>143.8</ele>
        <time>2019-08-08T15:39:47Z</time>
      </trkpt>
      <trkpt lat="48.57556" lon="7.69575">
        <ele>143.8</ele>
        <time>2019-08-08T15:39:48Z</time>
      </trkpt>
      <trkpt lat="48.57553" lon="7.69572">
        <ele>143.8</ele>
        <time>2019-08-08T15:39:49Z</time>
      </trkpt>
      <trkpt lat="48.5755" lon="7.69569">
        <ele>143.8</ele>
        <time>2019-08-08T15:39:50Z</time>
      </trkpt>
      <trkpt lat="48.57547" lon="7.69567">
        <ele>143.8</ele>
        <time>2019-08-08T15:39:51Z</time>
      </trkpt>
      <trkpt lat="48.57544" lon="7.69564">
        <ele>143.7</ele>
        <time>2019-08-08T15:39:52Z</time>
      </trkpt>
      <trkpt lat="48.57542" lon="7.69562">
        <ele>143.7</ele>
        <time>2019-08-08T15:39:53Z</time>
      </trkpt>
      <trkpt lat="48.57537" lon="7.69562">
        <ele>143.7</ele>
        <time>2019-08-08T15:39:55Z</time>
      </trkpt>
      <trkpt lat="48.57534" lon="7.69558">
        <ele>143.7</ele>
        <time>2019-08-08T15:39:57Z</time>
      </trkpt>
      <trkpt lat="48.57531" lon="7.69556">
        <ele>143.7</ele>
        <time>2019-08-08T15:39:58Z</time>
      </trkpt>
      <trkpt lat="48.57527" lon="7.69552">
        <ele>143.7</ele>
        <time>2019-08-08T15:40:00Z</time>
      </trkpt>
      <trkpt lat="48.57525" lon="7.69549">
        <ele>143.7</ele>
        <time>2019-08-08T15:40:01Z</time>
      </trkpt>
      <trkpt lat="48.57523" lon="7.69546">
        <ele>143.7</ele>
        <time>2019-08-08T15:40:02Z</time>
      </trkpt>
      <trkpt lat="48.57521" lon="7.69543">
        <ele>143.7</ele>
        <time>2019-08-08T15:40:03Z</time>
      </trkpt>
      <trkpt lat="48.57518" lon="7.69541">
        <ele>143.7</ele>
        <time>2019-08-08T15:40:04Z</time>
      </trkpt>
      <trkpt lat="48.57513" lon="7.69539">
        <ele>143.7</ele>
        <time>2019-08-08T15:40:05Z</time>
      </trkpt>
      <trkpt lat="48.57508" lon="7.69536">
        <ele>143.7</ele>
        <time>2019-08-08T15:40:06Z</time>
      </trkpt>
      <trkpt lat="48.57504" lon="7.69533">
        <ele>143.7</ele>
        <time>2019-08-08T15:40:07Z</time>
      </trkpt>
      <trkpt lat="48.57499" lon="7.6953">
        <ele>143.7</ele>
        <time>2019-08-08T15:40:08Z</time>
      </trkpt>
      <trkpt lat="48.57494" lon="7.69525">
        <ele>143.7</ele>
        <time>2019-08-08T15:40:09Z</time>
      </trkpt>
      <trkpt lat="48.57486" lon="7.6952">
        <ele>143.7</ele>
        <time>2019-08-08T15:40:10Z</time>
      </trkpt>
      <trkpt lat="48.57481" lon="7.69516">
        <ele>143.7</ele>
        <time>2019-08-08T15:40:11Z</time>
      </trkpt>
      <trkpt lat="48.57476" lon="7.69513">
        <ele>143.7</ele>
        <time>2019-08-08T15:40:12Z</time>
      </trkpt>
      <trkpt lat="48.57471" lon="7.6951">
        <ele>143.7</ele>
        <time>2019-08-08T15:40:13Z</time>
      </trkpt>
      <trkpt lat="48.57467" lon="7.69506">
        <ele>143.7</ele>
        <time>2019-08-08T15:40:14Z</time>
      </trkpt>
      <trkpt lat="48.57464" lon="7.69503">
        <ele>143.7</ele>
        <time>2019-08-08T15:40:15Z</time>
      </trkpt>
      <trkpt lat="48.57461" lon="7.69501">
        <ele>143.7</ele>
        <time>2019-08-08T15:40:17Z</time>
      </trkpt>
      <trkpt lat="48.57458" lon="7.695">
        <ele>143.7</ele>
        <time>2019-08-08T15:40:20Z</time>
      </trkpt>
      <trkpt lat="48.57455" lon="7.69498">
        <ele>143.7</ele>
        <time>2019-08-08T15:40:23Z</time>
      </trkpt>
      <trkpt lat="48.57453" lon="7.69494">
        <ele>143.7</ele>
        <time>2019-08-08T15:40:25Z</time>
      </trkpt>
      <trkpt lat="48.57451" lon="7.69491">
        <ele>143.7</ele>
        <time>2019-08-08T15:40:28Z</time>
      </trkpt>
      <trkpt lat="48.57448" lon="7.69488">
        <ele>143.7</ele>
        <time>2019-08-08T15:40:30Z</time>
      </trkpt>
      <trkpt lat="48.57443" lon="7.69485">
        <ele>143.7</ele>
        <time>2019-08-08T15:40:32Z</time>
      </trkpt>
      <trkpt lat="48.57441" lon="7.69481">
        <ele>143.7</ele>
        <time>2019-08-08T15:40:33Z</time>
      </trkpt>
      <trkpt lat="48.57439" lon="7.69476">
        <ele>143.7</ele>
        <time>2019-08-08T15:40:34Z</time>
      </trkpt>
      <trkpt lat="48.57438" lon="7.69471">
        <ele>143.7</ele>
        <time>2019-08-08T15:40:35Z</time>
      </trkpt>
      <trkpt lat="48.57436" lon="7.69465">
        <ele>143.7</ele>
        <time>2019-08-08T15:40:36Z</time>
      </trkpt>
      <trkpt lat="48.57435" lon="7.6946">
        <ele>143.7</ele>
        <time>2019-08-08T15:40:37Z</time>
      </trkpt>
      <trkpt lat="48.57433" lon="7.69455">
        <ele>143.7</ele>
        <time>2019-08-08T15:40:38Z</time>
      </trkpt>
      <trkpt lat="48.57432" lon="7.69448">
        <ele>143.7</ele>
        <time>2019-08-08T15:40:40Z</time>
      </trkpt>
      <trkpt lat="48.57431" lon="7.69443">
        <ele>143.7</ele>
        <time>2019-08-08T15:40:41Z</time>
      </trkpt>
      <trkpt lat="48.57431" lon="7.69437">
        <ele>143.7</ele>
        <time>2019-08-08T15:40:42Z</time>
      </trkpt>
      <trkpt lat="48.57431" lon="7.69432">
        <ele>143.6</ele>
        <time>2019-08-08T15:40:43Z</time>
      </trkpt>
      <trkpt lat="48.57432" lon="7.69426">
        <ele>143.6</ele>
        <time>2019-08-08T15:40:44Z</time>
      </trkpt>
      <trkpt lat="48.57431" lon="7.69417">
        <ele>143.5</ele>
        <time>2019-08-08T15:40:45Z</time>
      </trkpt>
      <trkpt lat="48.57431" lon="7.69409">
        <ele>143.5</ele>
        <time>2019-08-08T15:40:46Z</time>
      </trkpt>
      <trkpt lat="48.57431" lon="7.69404">
        <ele>143.4</ele>
        <time>2019-08-08T15:40:47Z</time>
      </trkpt>
      <trkpt lat="48.57432" lon="7.69397">
        <ele>143.3</ele>
        <time>2019-08-08T15:40:48Z</time>
      </trkpt>
      <trkpt lat="48.57432" lon="7.69391">
        <ele>143.1</ele>
        <time>2019-08-08T15:40:49Z</time>
      </trkpt>
      <trkpt lat="48.57431" lon="7.69386">
        <ele>143.1</ele>
        <time>2019-08-08T15:40:50Z</time>
      </trkpt>
      <trkpt lat="48.57432" lon="7.6938">
        <ele>143</ele>
        <time>2019-08-08T15:40:51Z</time>
      </trkpt>
      <trkpt lat="48.57432" lon="7.69375">
        <ele>142.8</ele>
        <time>2019-08-08T15:40:52Z</time>
      </trkpt>
      <trkpt lat="48.57432" lon="7.69371">
        <ele>142.8</ele>
        <time>2019-08-08T15:40:53Z</time>
      </trkpt>
      <trkpt lat="48.57432" lon="7.69366">
        <ele>142.8</ele>
        <time>2019-08-08T15:40:54Z</time>
      </trkpt>
      <trkpt lat="48.57432" lon="7.69361">
        <ele>142.8</ele>
        <time>2019-08-08T15:40:55Z</time>
      </trkpt>
      <trkpt lat="48.57432" lon="7.69356">
        <ele>142.9</ele>
        <time>2019-08-08T15:40:56Z</time>
      </trkpt>
      <trkpt lat="48.57433" lon="7.69351">
        <ele>142.9</ele>
        <time>2019-08-08T15:40:57Z</time>
      </trkpt>
      <trkpt lat="48.57435" lon="7.69343">
        <ele>142.9</ele>
        <time>2019-08-08T15:40:58Z</time>
      </trkpt>
      <trkpt lat="48.57436" lon="7.69335">
        <ele>142.8</ele>
        <time>2019-08-08T15:40:59Z</time>
      </trkpt>
      <trkpt lat="48.57438" lon="7.69328">
        <ele>142.8</ele>
        <time>2019-08-08T15:41:00Z</time>
      </trkpt>
      <trkpt lat="48.57441" lon="7.69324">
        <ele>142.8</ele>
        <time>2019-08-08T15:41:01Z</time>
      </trkpt>
      <trkpt lat="48.57443" lon="7.69318">
        <ele>142.7</ele>
        <time>2019-08-08T15:41:02Z</time>
      </trkpt>
      <trkpt lat="48.57447" lon="7.69314">
        <ele>142.6</ele>
        <time>2019-08-08T15:41:03Z</time>
      </trkpt>
      <trkpt lat="48.5745" lon="7.69311">
        <ele>142.6</ele>
        <time>2019-08-08T15:41:04Z</time>
      </trkpt>
      <trkpt lat="48.57453" lon="7.69306">
        <ele>142.5</ele>
        <time>2019-08-08T15:41:05Z</time>
      </trkpt>
      <trkpt lat="48.57457" lon="7.69301">
        <ele>142.4</ele>
        <time>2019-08-08T15:41:06Z</time>
      </trkpt>
      <trkpt lat="48.5746" lon="7.69297">
        <ele>142.4</ele>
        <time>2019-08-08T15:41:07Z</time>
      </trkpt>
      <trkpt lat="48.57462" lon="7.69292">
        <ele>142.3</ele>
        <time>2019-08-08T15:41:08Z</time>
      </trkpt>
      <trkpt lat="48.57466" lon="7.69288">
        <ele>142.2</ele>
        <time>2019-08-08T15:41:09Z</time>
      </trkpt>
      <trkpt lat="48.5747" lon="7.69282">
        <ele>142.1</ele>
        <time>2019-08-08T15:41:11Z</time>
      </trkpt>
      <trkpt lat="48.57471" lon="7.69276">
        <ele>142.1</ele>
        <time>2019-08-08T15:41:12Z</time>
      </trkpt>
      <trkpt lat="48.57473" lon="7.69269">
        <ele>142</ele>
        <time>2019-08-08T15:41:13Z</time>
      </trkpt>
      <trkpt lat="48.57474" lon="7.69262">
        <ele>141.9</ele>
        <time>2019-08-08T15:41:14Z</time>
      </trkpt>
      <trkpt lat="48.57474" lon="7.69258">
        <ele>141.9</ele>
        <time>2019-08-08T15:41:15Z</time>
      </trkpt>
      <trkpt lat="48.57473" lon="7.69251">
        <ele>141.8</ele>
        <time>2019-08-08T15:41:16Z</time>
      </trkpt>
      <trkpt lat="48.57471" lon="7.69243">
        <ele>141.7</ele>
        <time>2019-08-08T15:41:17Z</time>
      </trkpt>
      <trkpt lat="48.57471" lon="7.69233">
        <ele>141.6</ele>
        <time>2019-08-08T15:41:18Z</time>
      </trkpt>
      <trkpt lat="48.57469" lon="7.69228">
        <ele>141.6</ele>
        <time>2019-08-08T15:41:19Z</time>
      </trkpt>
      <trkpt lat="48.57467" lon="7.69221">
        <ele>141.5</ele>
        <time>2019-08-08T15:41:20Z</time>
      </trkpt>
      <trkpt lat="48.57465" lon="7.69215">
        <ele>141.4</ele>
        <time>2019-08-08T15:41:21Z</time>
      </trkpt>
      <trkpt lat="48.57464" lon="7.69207">
        <ele>141.3</ele>
        <time>2019-08-08T15:41:22Z</time>
      </trkpt>
      <trkpt lat="48.57462" lon="7.692">
        <ele>141.2</ele>
        <time>2019-08-08T15:41:23Z</time>
      </trkpt>
      <trkpt lat="48.5746" lon="7.69194">
        <ele>141.2</ele>
        <time>2019-08-08T15:41:24Z</time>
      </trkpt>
      <trkpt lat="48.57458" lon="7.69187">
        <ele>141.1</ele>
        <time>2019-08-08T15:41:25Z</time>
      </trkpt>
      <trkpt lat="48.57456" lon="7.69183">
        <ele>141.1</ele>
        <time>2019-08-08T15:41:26Z</time>
      </trkpt>
      <trkpt lat="48.57454" lon="7.69176">
        <ele>141</ele>
        <time>2019-08-08T15:41:27Z</time>
      </trkpt>
      <trkpt lat="48.57451" lon="7.69169">
        <ele>141</ele>
        <time>2019-08-08T15:41:28Z</time>
      </trkpt>
      <trkpt lat="48.5745" lon="7.69161">
        <ele>141</ele>
        <time>2019-08-08T15:41:29Z</time>
      </trkpt>
      <trkpt lat="48.57449" lon="7.69153">
        <ele>141</ele>
        <time>2019-08-08T15:41:30Z</time>
      </trkpt>
      <trkpt lat="48.57449" lon="7.69144">
        <ele>141</ele>
        <time>2019-08-08T15:41:31Z</time>
      </trkpt>
      <trkpt lat="48.5745" lon="7.69132">
        <ele>141</ele>
        <time>2019-08-08T15:41:32Z</time>
      </trkpt>
      <trkpt lat="48.57451" lon="7.69121">
        <ele>141</ele>
        <time>2019-08-08T15:41:33Z</time>
      </trkpt>
      <trkpt lat="48.5745" lon="7.69112">
        <ele>141.1</ele>
        <time>2019-08-08T15:41:34Z</time>
      </trkpt>
      <trkpt lat="48.57448" lon="7.69105">
        <ele>141.1</ele>
        <time>2019-08-08T15:41:35Z</time>
      </trkpt>
      <trkpt lat="48.57445" lon="7.69099">
        <ele>141.1</ele>
        <time>2019-08-08T15:41:36Z</time>
      </trkpt>
      <trkpt lat="48.57443" lon="7.69091">
        <ele>141.2</ele>
        <time>2019-08-08T15:41:37Z</time>
      </trkpt>
      <trkpt lat="48.57443" lon="7.69084">
        <ele>141.3</ele>
        <time>2019-08-08T15:41:38Z</time>
      </trkpt>
      <trkpt lat="48.57443" lon="7.69079">
        <ele>141.4</ele>
        <time>2019-08-08T15:41:39Z</time>
      </trkpt>
      <trkpt lat="48.57443" lon="7.69073">
        <ele>141.4</ele>
        <time>2019-08-08T15:41:40Z</time>
      </trkpt>
      <trkpt lat="48.57443" lon="7.69067">
        <ele>141.5</ele>
        <time>2019-08-08T15:41:41Z</time>
      </trkpt>
      <trkpt lat="48.57443" lon="7.6906">
        <ele>141.7</ele>
        <time>2019-08-08T15:41:42Z</time>
      </trkpt>
      <trkpt lat="48.57445" lon="7.6905">
        <ele>141.7</ele>
        <time>2019-08-08T15:41:44Z</time>
      </trkpt>
      <trkpt lat="48.57447" lon="7.69042">
        <ele>141.7</ele>
        <time>2019-08-08T15:41:45Z</time>
      </trkpt>
      <trkpt lat="48.57449" lon="7.69033">
        <ele>141.7</ele>
        <time>2019-08-08T15:41:46Z</time>
      </trkpt>
      <trkpt lat="48.5745" lon="7.69024">
        <ele>141.7</ele>
        <time>2019-08-08T15:41:47Z</time>
      </trkpt>
      <trkpt lat="48.57451" lon="7.69015">
        <ele>141.7</ele>
        <time>2019-08-08T15:41:48Z</time>
      </trkpt>
      <trkpt lat="48.57451" lon="7.69007">
        <ele>141.7</ele>
        <time>2019-08-08T15:41:49Z</time>
      </trkpt>
      <trkpt lat="48.57451" lon="7.69">
        <ele>141.7</ele>
        <time>2019-08-08T15:41:50Z</time>
      </trkpt>
      <trkpt lat="48.57451" lon="7.68992">
        <ele>141.7</ele>
        <time>2019-08-08T15:41:51Z</time>
      </trkpt>
      <trkpt lat="48.57451" lon="7.68986">
        <ele>141.7</ele>
        <time>2019-08-08T15:41:52Z</time>
      </trkpt>
      <trkpt lat="48.57451" lon="7.68978">
        <ele>141.7</ele>
        <time>2019-08-08T15:41:53Z</time>
      </trkpt>
      <trkpt lat="48.57451" lon="7.68971">
        <ele>141.7</ele>
        <time>2019-08-08T15:41:54Z</time>
      </trkpt>
      <trkpt lat="48.57452" lon="7.68961">
        <ele>141.7</ele>
        <time>2019-08-08T15:41:55Z</time>
      </trkpt>
      <trkpt lat="48.57453" lon="7.68953">
        <ele>141.7</ele>
        <time>2019-08-08T15:41:56Z</time>
      </trkpt>
      <trkpt lat="48.57453" lon="7.68945">
        <ele>141.7</ele>
        <time>2019-08-08T15:41:57Z</time>
      </trkpt>
      <trkpt lat="48.57453" lon="7.68938">
        <ele>141.7</ele>
        <time>2019-08-08T15:41:58Z</time>
      </trkpt>
      <trkpt lat="48.57454" lon="7.68931">
        <ele>141.7</ele>
        <time>2019-08-08T15:41:59Z</time>
      </trkpt>
      <trkpt lat="48.57454" lon="7.68924">
        <ele>141.8</ele>
        <time>2019-08-08T15:42:00Z</time>
      </trkpt>
      <trkpt lat="48.57455" lon="7.68917">
        <ele>141.8</ele>
        <time>2019-08-08T15:42:01Z</time>
      </trkpt>
      <trkpt lat="48.57456" lon="7.6891">
        <ele>141.8</ele>
        <time>2019-08-08T15:42:02Z</time>
      </trkpt>
      <trkpt lat="48.57457" lon="7.68903">
        <ele>141.8</ele>
        <time>2019-08-08T15:42:03Z</time>
      </trkpt>
      <trkpt lat="48.57458" lon="7.68897">
        <ele>141.8</ele>
        <time>2019-08-08T15:42:04Z</time>
      </trkpt>
      <trkpt lat="48.57459" lon="7.68889">
        <ele>141.8</ele>
        <time>2019-08-08T15:42:05Z</time>
      </trkpt>
      <trkpt lat="48.5746" lon="7.68881">
        <ele>141.9</ele>
        <time>2019-08-08T15:42:06Z</time>
      </trkpt>
      <trkpt lat="48.5746" lon="7.68877">
        <ele>141.9</ele>
        <time>2019-08-08T15:42:07Z</time>
      </trkpt>
      <trkpt lat="48.5746" lon="7.68871">
        <ele>141.9</ele>
        <time>2019-08-08T15:42:08Z</time>
      </trkpt>
      <trkpt lat="48.5746" lon="7.68865">
        <ele>141.9</ele>
        <time>2019-08-08T15:42:09Z</time>
      </trkpt>
      <trkpt lat="48.57461" lon="7.68858">
        <ele>141.9</ele>
        <time>2019-08-08T15:42:10Z</time>
      </trkpt>
      <trkpt lat="48.57461" lon="7.68851">
        <ele>141.9</ele>
        <time>2019-08-08T15:42:11Z</time>
      </trkpt>
      <trkpt lat="48.57461" lon="7.68845">
        <ele>141.9</ele>
        <time>2019-08-08T15:42:12Z</time>
      </trkpt>
      <trkpt lat="48.57461" lon="7.68841">
        <ele>141.9</ele>
        <time>2019-08-08T15:42:13Z</time>
      </trkpt>
      <trkpt lat="48.57462" lon="7.68836">
        <ele>141.9</ele>
        <time>2019-08-08T15:42:14Z</time>
      </trkpt>
      <trkpt lat="48.57465" lon="7.68829">
        <ele>141.9</ele>
        <time>2019-08-08T15:42:15Z</time>
      </trkpt>
      <trkpt lat="48.57465" lon="7.68821">
        <ele>141.9</ele>
        <time>2019-08-08T15:42:16Z</time>
      </trkpt>
      <trkpt lat="48.57466" lon="7.68814">
        <ele>141.9</ele>
        <time>2019-08-08T15:42:17Z</time>
      </trkpt>
      <trkpt lat="48.57466" lon="7.68805">
        <ele>141.8</ele>
        <time>2019-08-08T15:42:18Z</time>
      </trkpt>
      <trkpt lat="48.57468" lon="7.68802">
        <ele>141.8</ele>
        <time>2019-08-08T15:42:19Z</time>
      </trkpt>
      <trkpt lat="48.57469" lon="7.68797">
        <ele>141.8</ele>
        <time>2019-08-08T15:42:20Z</time>
      </trkpt>
      <trkpt lat="48.57469" lon="7.68791">
        <ele>141.8</ele>
        <time>2019-08-08T15:42:21Z</time>
      </trkpt>
      <trkpt lat="48.5747" lon="7.68785">
        <ele>141.8</ele>
        <time>2019-08-08T15:42:22Z</time>
      </trkpt>
      <trkpt lat="48.5747" lon="7.68779">
        <ele>141.8</ele>
        <time>2019-08-08T15:42:23Z</time>
      </trkpt>
      <trkpt lat="48.5747" lon="7.68774">
        <ele>141.8</ele>
        <time>2019-08-08T15:42:24Z</time>
      </trkpt>
      <trkpt lat="48.5747" lon="7.68769">
        <ele>141.8</ele>
        <time>2019-08-08T15:42:25Z</time>
      </trkpt>
      <trkpt lat="48.57471" lon="7.68762">
        <ele>141.7</ele>
        <time>2019-08-08T15:42:26Z</time>
      </trkpt>
      <trkpt lat="48.57472" lon="7.68756">
        <ele>141.7</ele>
        <time>2019-08-08T15:42:27Z</time>
      </trkpt>
      <trkpt lat="48.57473" lon="7.6875">
        <ele>141.7</ele>
        <time>2019-08-08T15:42:28Z</time>
      </trkpt>
      <trkpt lat="48.57474" lon="7.68744">
        <ele>141.7</ele>
        <time>2019-08-08T15:42:29Z</time>
      </trkpt>
      <trkpt lat="48.57473" lon="7.68739">
        <ele>141.7</ele>
        <time>2019-08-08T15:42:30Z</time>
      </trkpt>
      <trkpt lat="48.57474" lon="7.68734">
        <ele>141.7</ele>
        <time>2019-08-08T15:42:31Z</time>
      </trkpt>
      <trkpt lat="48.57475" lon="7.68728">
        <ele>141.7</ele>
        <time>2019-08-08T15:42:33Z</time>
      </trkpt>
      <trkpt lat="48.57476" lon="7.6872">
        <ele>141.7</ele>
        <time>2019-08-08T15:42:35Z</time>
      </trkpt>
      <trkpt lat="48.57477" lon="7.68715">
        <ele>141.7</ele>
        <time>2019-08-08T15:42:37Z</time>
      </trkpt>
      <trkpt lat="48.57476" lon="7.68705">
        <ele>141.7</ele>
        <time>2019-08-08T15:43:04Z</time>
      </trkpt>
      <trkpt lat="48.57476" lon="7.687">
        <ele>141.7</ele>
        <time>2019-08-08T15:43:06Z</time>
      </trkpt>
      <trkpt lat="48.57476" lon="7.68694">
        <ele>141.7</ele>
        <time>2019-08-08T15:43:08Z</time>
      </trkpt>
      <trkpt lat="48.57476" lon="7.68688">
        <ele>141.6</ele>
        <time>2019-08-08T15:43:10Z</time>
      </trkpt>
      <trkpt lat="48.57477" lon="7.68681">
        <ele>141.5</ele>
        <time>2019-08-08T15:43:12Z</time>
      </trkpt>
      <trkpt lat="48.57478" lon="7.68674">
        <ele>141.2</ele>
        <time>2019-08-08T15:43:14Z</time>
      </trkpt>
      <trkpt lat="48.57478" lon="7.6867">
        <ele>141.2</ele>
        <time>2019-08-08T15:43:15Z</time>
      </trkpt>
      <trkpt lat="48.5748" lon="7.68662">
        <ele>141</ele>
        <time>2019-08-08T15:43:17Z</time>
      </trkpt>
      <trkpt lat="48.5748" lon="7.68657">
        <ele>140.9</ele>
        <time>2019-08-08T15:43:18Z</time>
      </trkpt>
      <trkpt lat="48.57482" lon="7.68649">
        <ele>140.9</ele>
        <time>2019-08-08T15:43:20Z</time>
      </trkpt>
      <trkpt lat="48.57483" lon="7.68644">
        <ele>140.9</ele>
        <time>2019-08-08T15:43:21Z</time>
      </trkpt>
      <trkpt lat="48.57483" lon="7.68638">
        <ele>141</ele>
        <time>2019-08-08T15:43:22Z</time>
      </trkpt>
      <trkpt lat="48.57484" lon="7.68633">
        <ele>141</ele>
        <time>2019-08-08T15:43:23Z</time>
      </trkpt>
      <trkpt lat="48.57485" lon="7.68627">
        <ele>141.1</ele>
        <time>2019-08-08T15:43:24Z</time>
      </trkpt>
      <trkpt lat="48.57485" lon="7.6862">
        <ele>141.1</ele>
        <time>2019-08-08T15:43:25Z</time>
      </trkpt>
      <trkpt lat="48.57485" lon="7.68613">
        <ele>141.2</ele>
        <time>2019-08-08T15:43:26Z</time>
      </trkpt>
      <trkpt lat="48.57487" lon="7.68608">
        <ele>141.3</ele>
        <time>2019-08-08T15:43:27Z</time>
      </trkpt>
      <trkpt lat="48.57488" lon="7.686">
        <ele>141.4</ele>
        <time>2019-08-08T15:43:28Z</time>
      </trkpt>
      <trkpt lat="48.57489" lon="7.68592">
        <ele>141.6</ele>
        <time>2019-08-08T15:43:29Z</time>
      </trkpt>
      <trkpt lat="48.5749" lon="7.68584">
        <ele>141.7</ele>
        <time>2019-08-08T15:43:30Z</time>
      </trkpt>
      <trkpt lat="48.57491" lon="7.68578">
        <ele>141.8</ele>
        <time>2019-08-08T15:43:31Z</time>
      </trkpt>
      <trkpt lat="48.57492" lon="7.68573">
        <ele>141.9</ele>
        <time>2019-08-08T15:43:32Z</time>
      </trkpt>
      <trkpt lat="48.57493" lon="7.68566">
        <ele>142</ele>
        <time>2019-08-08T15:43:33Z</time>
      </trkpt>
      <trkpt lat="48.57494" lon="7.68557">
        <ele>142.1</ele>
        <time>2019-08-08T15:43:34Z</time>
      </trkpt>
      <trkpt lat="48.57494" lon="7.68549">
        <ele>142.1</ele>
        <time>2019-08-08T15:43:35Z</time>
      </trkpt>
      <trkpt lat="48.57493" lon="7.68541">
        <ele>142.2</ele>
        <time>2019-08-08T15:43:36Z</time>
      </trkpt>
      <trkpt lat="48.57493" lon="7.68535">
        <ele>142.2</ele>
        <time>2019-08-08T15:43:37Z</time>
      </trkpt>
      <trkpt lat="48.57494" lon="7.68529">
        <ele>142.3</ele>
        <time>2019-08-08T15:43:38Z</time>
      </trkpt>
      <trkpt lat="48.57494" lon="7.68522">
        <ele>142.3</ele>
        <time>2019-08-08T15:43:39Z</time>
      </trkpt>
      <trkpt lat="48.57494" lon="7.68514">
        <ele>142.4</ele>
        <time>2019-08-08T15:43:40Z</time>
      </trkpt>
      <trkpt lat="48.57494" lon="7.68506">
        <ele>142.4</ele>
        <time>2019-08-08T15:43:41Z</time>
      </trkpt>
      <trkpt lat="48.57494" lon="7.685">
        <ele>142.4</ele>
        <time>2019-08-08T15:43:42Z</time>
      </trkpt>
      <trkpt lat="48.57495" lon="7.68492">
        <ele>142.4</ele>
        <time>2019-08-08T15:43:43Z</time>
      </trkpt>
      <trkpt lat="48.57496" lon="7.68485">
        <ele>142.4</ele>
        <time>2019-08-08T15:43:44Z</time>
      </trkpt>
      <trkpt lat="48.57496" lon="7.68479">
        <ele>142.4</ele>
        <time>2019-08-08T15:43:45Z</time>
      </trkpt>
      <trkpt lat="48.57498" lon="7.68473">
        <ele>142.4</ele>
        <time>2019-08-08T15:43:46Z</time>
      </trkpt>
      <trkpt lat="48.57499" lon="7.68468">
        <ele>142.4</ele>
        <time>2019-08-08T15:43:47Z</time>
      </trkpt>
      <trkpt lat="48.57501" lon="7.68463">
        <ele>142.4</ele>
        <time>2019-08-08T15:43:48Z</time>
      </trkpt>
      <trkpt lat="48.57501" lon="7.68459">
        <ele>142.4</ele>
        <time>2019-08-08T15:43:49Z</time>
      </trkpt>
      <trkpt lat="48.57503" lon="7.68452">
        <ele>142.4</ele>
        <time>2019-08-08T15:43:50Z</time>
      </trkpt>
      <trkpt lat="48.57505" lon="7.68446">
        <ele>142.4</ele>
        <time>2019-08-08T15:43:51Z</time>
      </trkpt>
      <trkpt lat="48.57508" lon="7.68439">
        <ele>142.4</ele>
        <time>2019-08-08T15:43:52Z</time>
      </trkpt>
      <trkpt lat="48.5751" lon="7.68432">
        <ele>142.4</ele>
        <time>2019-08-08T15:43:53Z</time>
      </trkpt>
      <trkpt lat="48.57512" lon="7.68426">
        <ele>142.4</ele>
        <time>2019-08-08T15:43:54Z</time>
      </trkpt>
      <trkpt lat="48.57515" lon="7.6842">
        <ele>142.4</ele>
        <time>2019-08-08T15:43:55Z</time>
      </trkpt>
      <trkpt lat="48.57518" lon="7.68413">
        <ele>142.4</ele>
        <time>2019-08-08T15:43:56Z</time>
      </trkpt>
      <trkpt lat="48.5752" lon="7.68409">
        <ele>142.4</ele>
        <time>2019-08-08T15:43:57Z</time>
      </trkpt>
      <trkpt lat="48.57522" lon="7.68405">
        <ele>142.4</ele>
        <time>2019-08-08T15:43:58Z</time>
      </trkpt>
      <trkpt lat="48.57525" lon="7.684">
        <ele>142.4</ele>
        <time>2019-08-08T15:43:59Z</time>
      </trkpt>
      <trkpt lat="48.57528" lon="7.68394">
        <ele>142.4</ele>
        <time>2019-08-08T15:44:00Z</time>
      </trkpt>
      <trkpt lat="48.5753" lon="7.6839">
        <ele>142.4</ele>
        <time>2019-08-08T15:44:01Z</time>
      </trkpt>
      <trkpt lat="48.57533" lon="7.68385">
        <ele>142.4</ele>
        <time>2019-08-08T15:44:02Z</time>
      </trkpt>
      <trkpt lat="48.57535" lon="7.68379">
        <ele>142.4</ele>
        <time>2019-08-08T15:44:03Z</time>
      </trkpt>
      <trkpt lat="48.57538" lon="7.68372">
        <ele>142.5</ele>
        <time>2019-08-08T15:44:04Z</time>
      </trkpt>
      <trkpt lat="48.5754" lon="7.68366">
        <ele>142.5</ele>
        <time>2019-08-08T15:44:05Z</time>
      </trkpt>
      <trkpt lat="48.57542" lon="7.68358">
        <ele>142.5</ele>
        <time>2019-08-08T15:44:06Z</time>
      </trkpt>
      <trkpt lat="48.57544" lon="7.68353">
        <ele>142.5</ele>
        <time>2019-08-08T15:44:07Z</time>
      </trkpt>
      <trkpt lat="48.57547" lon="7.68345">
        <ele>142.5</ele>
        <time>2019-08-08T15:44:08Z</time>
      </trkpt>
      <trkpt lat="48.5755" lon="7.68339">
        <ele>142.5</ele>
        <time>2019-08-08T15:44:09Z</time>
      </trkpt>
      <trkpt lat="48.57552" lon="7.68334">
        <ele>142.5</ele>
        <time>2019-08-08T15:44:10Z</time>
      </trkpt>
      <trkpt lat="48.57553" lon="7.68328">
        <ele>142.6</ele>
        <time>2019-08-08T15:44:11Z</time>
      </trkpt>
      <trkpt lat="48.57556" lon="7.68321">
        <ele>142.6</ele>
        <time>2019-08-08T15:44:12Z</time>
      </trkpt>
      <trkpt lat="48.57559" lon="7.68316">
        <ele>142.6</ele>
        <time>2019-08-08T15:44:13Z</time>
      </trkpt>
      <trkpt lat="48.57562" lon="7.68311">
        <ele>142.6</ele>
        <time>2019-08-08T15:44:14Z</time>
      </trkpt>
      <trkpt lat="48.57564" lon="7.68305">
        <ele>142.6</ele>
        <time>2019-08-08T15:44:15Z</time>
      </trkpt>
      <trkpt lat="48.57566" lon="7.68297">
        <ele>142.7</ele>
        <time>2019-08-08T15:44:16Z</time>
      </trkpt>
      <trkpt lat="48.57568" lon="7.68291">
        <ele>142.7</ele>
        <time>2019-08-08T15:44:17Z</time>
      </trkpt>
      <trkpt lat="48.5757" lon="7.68285">
        <ele>142.7</ele>
        <time>2019-08-08T15:44:18Z</time>
      </trkpt>
      <trkpt lat="48.57573" lon="7.6828">
        <ele>142.7</ele>
        <time>2019-08-08T15:44:19Z</time>
      </trkpt>
      <trkpt lat="48.57576" lon="7.68275">
        <ele>142.7</ele>
        <time>2019-08-08T15:44:20Z</time>
      </trkpt>
      <trkpt lat="48.57578" lon="7.6827">
        <ele>142.7</ele>
        <time>2019-08-08T15:44:21Z</time>
      </trkpt>
      <trkpt lat="48.5758" lon="7.68266">
        <ele>142.8</ele>
        <time>2019-08-08T15:44:22Z</time>
      </trkpt>
      <trkpt lat="48.57583" lon="7.6826">
        <ele>142.8</ele>
        <time>2019-08-08T15:44:23Z</time>
      </trkpt>
      <trkpt lat="48.57584" lon="7.68254">
        <ele>142.8</ele>
        <time>2019-08-08T15:44:24Z</time>
      </trkpt>
      <trkpt lat="48.57586" lon="7.68248">
        <ele>142.8</ele>
        <time>2019-08-08T15:44:25Z</time>
      </trkpt>
      <trkpt lat="48.57588" lon="7.68241">
        <ele>142.8</ele>
        <time>2019-08-08T15:44:26Z</time>
      </trkpt>
      <trkpt lat="48.5759" lon="7.68234">
        <ele>142.7</ele>
        <time>2019-08-08T15:44:27Z</time>
      </trkpt>
      <trkpt lat="48.57594" lon="7.68228">
        <ele>142.7</ele>
        <time>2019-08-08T15:44:28Z</time>
      </trkpt>
      <trkpt lat="48.57597" lon="7.68222">
        <ele>142.6</ele>
        <time>2019-08-08T15:44:29Z</time>
      </trkpt>
      <trkpt lat="48.57599" lon="7.68216">
        <ele>142.6</ele>
        <time>2019-08-08T15:44:30Z</time>
      </trkpt>
      <trkpt lat="48.57601" lon="7.6821">
        <ele>142.5</ele>
        <time>2019-08-08T15:44:31Z</time>
      </trkpt>
      <trkpt lat="48.57604" lon="7.68206">
        <ele>142.5</ele>
        <time>2019-08-08T15:44:32Z</time>
      </trkpt>
      <trkpt lat="48.57606" lon="7.682">
        <ele>142.5</ele>
        <time>2019-08-08T15:44:33Z</time>
      </trkpt>
      <trkpt lat="48.5761" lon="7.68194">
        <ele>142.4</ele>
        <time>2019-08-08T15:44:34Z</time>
      </trkpt>
      <trkpt lat="48.57612" lon="7.68189">
        <ele>142.4</ele>
        <time>2019-08-08T15:44:35Z</time>
      </trkpt>
      <trkpt lat="48.57615" lon="7.68185">
        <ele>142.4</ele>
        <time>2019-08-08T15:44:36Z</time>
      </trkpt>
      <trkpt lat="48.57617" lon="7.6818">
        <ele>142.4</ele>
        <time>2019-08-08T15:44:37Z</time>
      </trkpt>
      <trkpt lat="48.57619" lon="7.68176">
        <ele>142.5</ele>
        <time>2019-08-08T15:44:38Z</time>
      </trkpt>
      <trkpt lat="48.57622" lon="7.6817">
        <ele>142.5</ele>
        <time>2019-08-08T15:44:39Z</time>
      </trkpt>
      <trkpt lat="48.57625" lon="7.68164">
        <ele>142.6</ele>
        <time>2019-08-08T15:44:40Z</time>
      </trkpt>
      <trkpt lat="48.57627" lon="7.68158">
        <ele>142.7</ele>
        <time>2019-08-08T15:44:41Z</time>
      </trkpt>
      <trkpt lat="48.57629" lon="7.68153">
        <ele>142.8</ele>
        <time>2019-08-08T15:44:42Z</time>
      </trkpt>
      <trkpt lat="48.57631" lon="7.68147">
        <ele>142.9</ele>
        <time>2019-08-08T15:44:43Z</time>
      </trkpt>
      <trkpt lat="48.57634" lon="7.6814">
        <ele>143.1</ele>
        <time>2019-08-08T15:44:44Z</time>
      </trkpt>
      <trkpt lat="48.57638" lon="7.68135">
        <ele>143.2</ele>
        <time>2019-08-08T15:44:45Z</time>
      </trkpt>
      <trkpt lat="48.5764" lon="7.68128">
        <ele>143.3</ele>
        <time>2019-08-08T15:44:46Z</time>
      </trkpt>
      <trkpt lat="48.57643" lon="7.68121">
        <ele>143.5</ele>
        <time>2019-08-08T15:44:47Z</time>
      </trkpt>
      <trkpt lat="48.57645" lon="7.68116">
        <ele>143.6</ele>
        <time>2019-08-08T15:44:48Z</time>
      </trkpt>
      <trkpt lat="48.57648" lon="7.6811">
        <ele>143.7</ele>
        <time>2019-08-08T15:44:49Z</time>
      </trkpt>
      <trkpt lat="48.57649" lon="7.68105">
        <ele>143.7</ele>
        <time>2019-08-08T15:44:50Z</time>
      </trkpt>
      <trkpt lat="48.5765" lon="7.68102">
        <ele>143.8</ele>
        <time>2019-08-08T15:44:51Z</time>
      </trkpt>
      <trkpt lat="48.57652" lon="7.68098">
        <ele>143.8</ele>
        <time>2019-08-08T15:44:52Z</time>
      </trkpt>
      <trkpt lat="48.57654" lon="7.68093">
        <ele>143.9</ele>
        <time>2019-08-08T15:44:53Z</time>
      </trkpt>
      <trkpt lat="48.57656" lon="7.68088">
        <ele>143.9</ele>
        <time>2019-08-08T15:44:54Z</time>
      </trkpt>
      <trkpt lat="48.57657" lon="7.68083">
        <ele>144</ele>
        <time>2019-08-08T15:44:55Z</time>
      </trkpt>
      <trkpt lat="48.57659" lon="7.68076">
        <ele>144.1</ele>
        <time>2019-08-08T15:44:56Z</time>
      </trkpt>
      <trkpt lat="48.57661" lon="7.68071">
        <ele>144.1</ele>
        <time>2019-08-08T15:44:57Z</time>
      </trkpt>
      <trkpt lat="48.57664" lon="7.68065">
        <ele>144.1</ele>
        <time>2019-08-08T15:44:58Z</time>
      </trkpt>
      <trkpt lat="48.57666" lon="7.68059">
        <ele>144.2</ele>
        <time>2019-08-08T15:44:59Z</time>
      </trkpt>
      <trkpt lat="48.57669" lon="7.68052">
        <ele>144.1</ele>
        <time>2019-08-08T15:45:00Z</time>
      </trkpt>
      <trkpt lat="48.57672" lon="7.68046">
        <ele>144.1</ele>
        <time>2019-08-08T15:45:01Z</time>
      </trkpt>
      <trkpt lat="48.57675" lon="7.6804">
        <ele>144.1</ele>
        <time>2019-08-08T15:45:02Z</time>
      </trkpt>
      <trkpt lat="48.57678" lon="7.68034">
        <ele>144</ele>
        <time>2019-08-08T15:45:03Z</time>
      </trkpt>
      <trkpt lat="48.5768" lon="7.68028">
        <ele>143.9</ele>
        <time>2019-08-08T15:45:04Z</time>
      </trkpt>
      <trkpt lat="48.57683" lon="7.68022">
        <ele>143.8</ele>
        <time>2019-08-08T15:45:05Z</time>
      </trkpt>
      <trkpt lat="48.57686" lon="7.68016">
        <ele>143.7</ele>
        <time>2019-08-08T15:45:06Z</time>
      </trkpt>
      <trkpt lat="48.57688" lon="7.68011">
        <ele>143.7</ele>
        <time>2019-08-08T15:45:07Z</time>
      </trkpt>
      <trkpt lat="48.5769" lon="7.68008">
        <ele>143.6</ele>
        <time>2019-08-08T15:45:08Z</time>
      </trkpt>
      <trkpt lat="48.57692" lon="7.68005">
        <ele>143.6</ele>
        <time>2019-08-08T15:45:09Z</time>
      </trkpt>
      <trkpt lat="48.57694" lon="7.68001">
        <ele>143.5</ele>
        <time>2019-08-08T15:45:10Z</time>
      </trkpt>
      <trkpt lat="48.57694" lon="7.67997">
        <ele>143.5</ele>
        <time>2019-08-08T15:45:11Z</time>
      </trkpt>
      <trkpt lat="48.57696" lon="7.67992">
        <ele>143.4</ele>
        <time>2019-08-08T15:45:12Z</time>
      </trkpt>
      <trkpt lat="48.57697" lon="7.67987">
        <ele>143.4</ele>
        <time>2019-08-08T15:45:13Z</time>
      </trkpt>
      <trkpt lat="48.57698" lon="7.67982">
        <ele>143.4</ele>
        <time>2019-08-08T15:45:14Z</time>
      </trkpt>
      <trkpt lat="48.577" lon="7.67975">
        <ele>143.3</ele>
        <time>2019-08-08T15:45:15Z</time>
      </trkpt>
      <trkpt lat="48.57701" lon="7.67968">
        <ele>143.3</ele>
        <time>2019-08-08T15:45:16Z</time>
      </trkpt>
      <trkpt lat="48.57702" lon="7.6796">
        <ele>143.3</ele>
        <time>2019-08-08T15:45:17Z</time>
      </trkpt>
      <trkpt lat="48.57703" lon="7.67953">
        <ele>143.3</ele>
        <time>2019-08-08T15:45:18Z</time>
      </trkpt>
      <trkpt lat="48.57703" lon="7.67947">
        <ele>143.3</ele>
        <time>2019-08-08T15:45:19Z</time>
      </trkpt>
      <trkpt lat="48.57704" lon="7.67943">
        <ele>143.3</ele>
        <time>2019-08-08T15:45:20Z</time>
      </trkpt>
      <trkpt lat="48.57705" lon="7.67935">
        <ele>143.3</ele>
        <time>2019-08-08T15:45:21Z</time>
      </trkpt>
      <trkpt lat="48.57706" lon="7.67928">
        <ele>143.3</ele>
        <time>2019-08-08T15:45:22Z</time>
      </trkpt>
      <trkpt lat="48.57708" lon="7.67921">
        <ele>143.2</ele>
        <time>2019-08-08T15:45:23Z</time>
      </trkpt>
      <trkpt lat="48.5771" lon="7.67914">
        <ele>143.2</ele>
        <time>2019-08-08T15:45:24Z</time>
      </trkpt>
      <trkpt lat="48.57711" lon="7.67907">
        <ele>143.2</ele>
        <time>2019-08-08T15:45:25Z</time>
      </trkpt>
      <trkpt lat="48.57712" lon="7.67901">
        <ele>143.2</ele>
        <time>2019-08-08T15:45:26Z</time>
      </trkpt>
      <trkpt lat="48.57713" lon="7.67893">
        <ele>143.2</ele>
        <time>2019-08-08T15:45:27Z</time>
      </trkpt>
      <trkpt lat="48.57715" lon="7.67885">
        <ele>143.1</ele>
        <time>2019-08-08T15:45:28Z</time>
      </trkpt>
      <trkpt lat="48.57717" lon="7.67877">
        <ele>143.1</ele>
        <time>2019-08-08T15:45:29Z</time>
      </trkpt>
      <trkpt lat="48.57719" lon="7.6787">
        <ele>143</ele>
        <time>2019-08-08T15:45:30Z</time>
      </trkpt>
      <trkpt lat="48.57721" lon="7.67862">
        <ele>142.9</ele>
        <time>2019-08-08T15:45:31Z</time>
      </trkpt>
      <trkpt lat="48.57722" lon="7.67856">
        <ele>142.8</ele>
        <time>2019-08-08T15:45:32Z</time>
      </trkpt>
      <trkpt lat="48.57723" lon="7.67851">
        <ele>142.7</ele>
        <time>2019-08-08T15:45:33Z</time>
      </trkpt>
      <trkpt lat="48.57724" lon="7.67845">
        <ele>142.7</ele>
        <time>2019-08-08T15:45:34Z</time>
      </trkpt>
      <trkpt lat="48.57726" lon="7.6784">
        <ele>142.6</ele>
        <time>2019-08-08T15:45:35Z</time>
      </trkpt>
      <trkpt lat="48.57727" lon="7.67834">
        <ele>142.5</ele>
        <time>2019-08-08T15:45:36Z</time>
      </trkpt>
      <trkpt lat="48.57728" lon="7.67829">
        <ele>142.3</ele>
        <time>2019-08-08T15:45:37Z</time>
      </trkpt>
      <trkpt lat="48.5773" lon="7.67822">
        <ele>142.2</ele>
        <time>2019-08-08T15:45:38Z</time>
      </trkpt>
      <trkpt lat="48.57731" lon="7.67814">
        <ele>142.1</ele>
        <time>2019-08-08T15:45:39Z</time>
      </trkpt>
      <trkpt lat="48.57732" lon="7.67808">
        <ele>142</ele>
        <time>2019-08-08T15:45:40Z</time>
      </trkpt>
      <trkpt lat="48.57734" lon="7.67802">
        <ele>141.9</ele>
        <time>2019-08-08T15:45:41Z</time>
      </trkpt>
      <trkpt lat="48.57735" lon="7.67796">
        <ele>141.8</ele>
        <time>2019-08-08T15:45:42Z</time>
      </trkpt>
      <trkpt lat="48.57736" lon="7.67789">
        <ele>141.7</ele>
        <time>2019-08-08T15:45:43Z</time>
      </trkpt>
      <trkpt lat="48.57737" lon="7.67782">
        <ele>141.7</ele>
        <time>2019-08-08T15:45:44Z</time>
      </trkpt>
      <trkpt lat="48.57738" lon="7.67776">
        <ele>141.8</ele>
        <time>2019-08-08T15:45:45Z</time>
      </trkpt>
      <trkpt lat="48.57739" lon="7.6777">
        <ele>141.8</ele>
        <time>2019-08-08T15:45:46Z</time>
      </trkpt>
      <trkpt lat="48.57741" lon="7.67766">
        <ele>141.8</ele>
        <time>2019-08-08T15:45:47Z</time>
      </trkpt>
      <trkpt lat="48.57743" lon="7.67759">
        <ele>141.8</ele>
        <time>2019-08-08T15:45:48Z</time>
      </trkpt>
      <trkpt lat="48.57745" lon="7.67754">
        <ele>141.9</ele>
        <time>2019-08-08T15:45:49Z</time>
      </trkpt>
      <trkpt lat="48.57747" lon="7.67749">
        <ele>141.9</ele>
        <time>2019-08-08T15:45:50Z</time>
      </trkpt>
      <trkpt lat="48.57748" lon="7.67743">
        <ele>142</ele>
        <time>2019-08-08T15:45:51Z</time>
      </trkpt>
      <trkpt lat="48.5775" lon="7.67736">
        <ele>142</ele>
        <time>2019-08-08T15:45:52Z</time>
      </trkpt>
      <trkpt lat="48.5775" lon="7.67729">
        <ele>142.1</ele>
        <time>2019-08-08T15:45:53Z</time>
      </trkpt>
      <trkpt lat="48.57752" lon="7.67723">
        <ele>142.1</ele>
        <time>2019-08-08T15:45:54Z</time>
      </trkpt>
      <trkpt lat="48.57753" lon="7.67714">
        <ele>142.2</ele>
        <time>2019-08-08T15:45:55Z</time>
      </trkpt>
      <trkpt lat="48.57754" lon="7.67708">
        <ele>142.2</ele>
        <time>2019-08-08T15:45:56Z</time>
      </trkpt>
      <trkpt lat="48.57755" lon="7.67703">
        <ele>142.2</ele>
        <time>2019-08-08T15:45:57Z</time>
      </trkpt>
      <trkpt lat="48.57757" lon="7.67696">
        <ele>142.1</ele>
        <time>2019-08-08T15:45:58Z</time>
      </trkpt>
      <trkpt lat="48.57758" lon="7.6769">
        <ele>142.1</ele>
        <time>2019-08-08T15:45:59Z</time>
      </trkpt>
      <trkpt lat="48.5776" lon="7.67685">
        <ele>142.1</ele>
        <time>2019-08-08T15:46:00Z</time>
      </trkpt>
      <trkpt lat="48.57762" lon="7.6768">
        <ele>142</ele>
        <time>2019-08-08T15:46:01Z</time>
      </trkpt>
      <trkpt lat="48.57763" lon="7.67675">
        <ele>142</ele>
        <time>2019-08-08T15:46:02Z</time>
      </trkpt>
      <trkpt lat="48.57765" lon="7.6767">
        <ele>141.9</ele>
        <time>2019-08-08T15:46:03Z</time>
      </trkpt>
      <trkpt lat="48.57766" lon="7.67664">
        <ele>141.9</ele>
        <time>2019-08-08T15:46:04Z</time>
      </trkpt>
      <trkpt lat="48.57768" lon="7.67659">
        <ele>141.8</ele>
        <time>2019-08-08T15:46:05Z</time>
      </trkpt>
      <trkpt lat="48.57769" lon="7.67654">
        <ele>141.7</ele>
        <time>2019-08-08T15:46:06Z</time>
      </trkpt>
      <trkpt lat="48.57771" lon="7.67647">
        <ele>141.7</ele>
        <time>2019-08-08T15:46:07Z</time>
      </trkpt>
      <trkpt lat="48.57773" lon="7.67642">
        <ele>141.6</ele>
        <time>2019-08-08T15:46:08Z</time>
      </trkpt>
      <trkpt lat="48.57773" lon="7.67635">
        <ele>141.4</ele>
        <time>2019-08-08T15:46:09Z</time>
      </trkpt>
      <trkpt lat="48.57775" lon="7.67629">
        <ele>141.3</ele>
        <time>2019-08-08T15:46:10Z</time>
      </trkpt>
      <trkpt lat="48.57777" lon="7.67624">
        <ele>141.2</ele>
        <time>2019-08-08T15:46:11Z</time>
      </trkpt>
      <trkpt lat="48.57778" lon="7.67618">
        <ele>141.2</ele>
        <time>2019-08-08T15:46:12Z</time>
      </trkpt>
      <trkpt lat="48.57779" lon="7.67611">
        <ele>141.2</ele>
        <time>2019-08-08T15:46:13Z</time>
      </trkpt>
      <trkpt lat="48.5778" lon="7.67605">
        <ele>141.2</ele>
        <time>2019-08-08T15:46:14Z</time>
      </trkpt>
      <trkpt lat="48.57782" lon="7.67599">
        <ele>141.2</ele>
        <time>2019-08-08T15:46:15Z</time>
      </trkpt>
      <trkpt lat="48.57784" lon="7.67594">
        <ele>141.2</ele>
        <time>2019-08-08T15:46:16Z</time>
      </trkpt>
      <trkpt lat="48.57784" lon="7.67586">
        <ele>141.2</ele>
        <time>2019-08-08T15:46:17Z</time>
      </trkpt>
      <trkpt lat="48.57786" lon="7.67581">
        <ele>141.2</ele>
        <time>2019-08-08T15:46:18Z</time>
      </trkpt>
      <trkpt lat="48.57788" lon="7.67576">
        <ele>141.2</ele>
        <time>2019-08-08T15:46:19Z</time>
      </trkpt>
      <trkpt lat="48.57789" lon="7.67569">
        <ele>141.2</ele>
        <time>2019-08-08T15:46:20Z</time>
      </trkpt>
      <trkpt lat="48.57791" lon="7.67565">
        <ele>141.2</ele>
        <time>2019-08-08T15:46:21Z</time>
      </trkpt>
      <trkpt lat="48.57792" lon="7.67558">
        <ele>141.2</ele>
        <time>2019-08-08T15:46:22Z</time>
      </trkpt>
      <trkpt lat="48.57793" lon="7.67552">
        <ele>141.2</ele>
        <time>2019-08-08T15:46:23Z</time>
      </trkpt>
      <trkpt lat="48.57794" lon="7.67546">
        <ele>141.2</ele>
        <time>2019-08-08T15:46:24Z</time>
      </trkpt>
      <trkpt lat="48.57795" lon="7.6754">
        <ele>141.2</ele>
        <time>2019-08-08T15:46:25Z</time>
      </trkpt>
      <trkpt lat="48.57797" lon="7.67533">
        <ele>141.2</ele>
        <time>2019-08-08T15:46:26Z</time>
      </trkpt>
      <trkpt lat="48.57798" lon="7.67527">
        <ele>141.2</ele>
        <time>2019-08-08T15:46:27Z</time>
      </trkpt>
      <trkpt lat="48.578" lon="7.6752">
        <ele>141.2</ele>
        <time>2019-08-08T15:46:28Z</time>
      </trkpt>
      <trkpt lat="48.57802" lon="7.67515">
        <ele>141.2</ele>
        <time>2019-08-08T15:46:29Z</time>
      </trkpt>
      <trkpt lat="48.57803" lon="7.6751">
        <ele>141.2</ele>
        <time>2019-08-08T15:46:30Z</time>
      </trkpt>
      <trkpt lat="48.57805" lon="7.67505">
        <ele>141.2</ele>
        <time>2019-08-08T15:46:31Z</time>
      </trkpt>
      <trkpt lat="48.57807" lon="7.67498">
        <ele>141.2</ele>
        <time>2019-08-08T15:46:32Z</time>
      </trkpt>
      <trkpt lat="48.57809" lon="7.67491">
        <ele>141.2</ele>
        <time>2019-08-08T15:46:33Z</time>
      </trkpt>
      <trkpt lat="48.5781" lon="7.67483">
        <ele>141.2</ele>
        <time>2019-08-08T15:46:34Z</time>
      </trkpt>
      <trkpt lat="48.57812" lon="7.67476">
        <ele>141.2</ele>
        <time>2019-08-08T15:46:35Z</time>
      </trkpt>
      <trkpt lat="48.57814" lon="7.67467">
        <ele>141.2</ele>
        <time>2019-08-08T15:46:36Z</time>
      </trkpt>
      <trkpt lat="48.57815" lon="7.6746">
        <ele>141.2</ele>
        <time>2019-08-08T15:46:37Z</time>
      </trkpt>
      <trkpt lat="48.57817" lon="7.67452">
        <ele>141.3</ele>
        <time>2019-08-08T15:46:38Z</time>
      </trkpt>
      <trkpt lat="48.57818" lon="7.67445">
        <ele>141.3</ele>
        <time>2019-08-08T15:46:39Z</time>
      </trkpt>
      <trkpt lat="48.57818" lon="7.67438">
        <ele>141.3</ele>
        <time>2019-08-08T15:46:40Z</time>
      </trkpt>
      <trkpt lat="48.57818" lon="7.67432">
        <ele>141.3</ele>
        <time>2019-08-08T15:46:41Z</time>
      </trkpt>
      <trkpt lat="48.5782" lon="7.67427">
        <ele>141.3</ele>
        <time>2019-08-08T15:46:42Z</time>
      </trkpt>
      <trkpt lat="48.57822" lon="7.67421">
        <ele>141.3</ele>
        <time>2019-08-08T15:46:43Z</time>
      </trkpt>
      <trkpt lat="48.57823" lon="7.67415">
        <ele>141.4</ele>
        <time>2019-08-08T15:46:44Z</time>
      </trkpt>
      <trkpt lat="48.57825" lon="7.67409">
        <ele>141.4</ele>
        <time>2019-08-08T15:46:45Z</time>
      </trkpt>
      <trkpt lat="48.57825" lon="7.67403">
        <ele>141.4</ele>
        <time>2019-08-08T15:46:46Z</time>
      </trkpt>
      <trkpt lat="48.57826" lon="7.67397">
        <ele>141.4</ele>
        <time>2019-08-08T15:46:47Z</time>
      </trkpt>
      <trkpt lat="48.57828" lon="7.6739">
        <ele>141.4</ele>
        <time>2019-08-08T15:46:48Z</time>
      </trkpt>
      <trkpt lat="48.57829" lon="7.67382">
        <ele>141.4</ele>
        <time>2019-08-08T15:46:49Z</time>
      </trkpt>
      <trkpt lat="48.57831" lon="7.67376">
        <ele>141.4</ele>
        <time>2019-08-08T15:46:50Z</time>
      </trkpt>
      <trkpt lat="48.57833" lon="7.6737">
        <ele>141.4</ele>
        <time>2019-08-08T15:46:51Z</time>
      </trkpt>
      <trkpt lat="48.57835" lon="7.67363">
        <ele>141.4</ele>
        <time>2019-08-08T15:46:52Z</time>
      </trkpt>
      <trkpt lat="48.57836" lon="7.67355">
        <ele>141.4</ele>
        <time>2019-08-08T15:46:53Z</time>
      </trkpt>
      <trkpt lat="48.57837" lon="7.67349">
        <ele>141.4</ele>
        <time>2019-08-08T15:46:54Z</time>
      </trkpt>
      <trkpt lat="48.57839" lon="7.67342">
        <ele>141.4</ele>
        <time>2019-08-08T15:46:55Z</time>
      </trkpt>
      <trkpt lat="48.57841" lon="7.67336">
        <ele>141.4</ele>
        <time>2019-08-08T15:46:56Z</time>
      </trkpt>
      <trkpt lat="48.57842" lon="7.67332">
        <ele>141.4</ele>
        <time>2019-08-08T15:46:57Z</time>
      </trkpt>
      <trkpt lat="48.57844" lon="7.67327">
        <ele>141.4</ele>
        <time>2019-08-08T15:46:58Z</time>
      </trkpt>
      <trkpt lat="48.57845" lon="7.67323">
        <ele>141.4</ele>
        <time>2019-08-08T15:46:59Z</time>
      </trkpt>
      <trkpt lat="48.57848" lon="7.67315">
        <ele>141.4</ele>
        <time>2019-08-08T15:47:01Z</time>
      </trkpt>
      <trkpt lat="48.5785" lon="7.67308">
        <ele>141.4</ele>
        <time>2019-08-08T15:47:03Z</time>
      </trkpt>
      <trkpt lat="48.57851" lon="7.67303">
        <ele>141.4</ele>
        <time>2019-08-08T15:47:04Z</time>
      </trkpt>
      <trkpt lat="48.57852" lon="7.67297">
        <ele>141.4</ele>
        <time>2019-08-08T15:47:05Z</time>
      </trkpt>
      <trkpt lat="48.57854" lon="7.67293">
        <ele>141.4</ele>
        <time>2019-08-08T15:47:06Z</time>
      </trkpt>
      <trkpt lat="48.57854" lon="7.67288">
        <ele>141.4</ele>
        <time>2019-08-08T15:47:07Z</time>
      </trkpt>
      <trkpt lat="48.57855" lon="7.67283">
        <ele>141.4</ele>
        <time>2019-08-08T15:47:08Z</time>
      </trkpt>
      <trkpt lat="48.57857" lon="7.67275">
        <ele>141.4</ele>
        <time>2019-08-08T15:47:09Z</time>
      </trkpt>
      <trkpt lat="48.57858" lon="7.67269">
        <ele>141.4</ele>
        <time>2019-08-08T15:47:10Z</time>
      </trkpt>
      <trkpt lat="48.57861" lon="7.67264">
        <ele>141.4</ele>
        <time>2019-08-08T15:47:11Z</time>
      </trkpt>
      <trkpt lat="48.57862" lon="7.67258">
        <ele>141.4</ele>
        <time>2019-08-08T15:47:12Z</time>
      </trkpt>
      <trkpt lat="48.57863" lon="7.67253">
        <ele>141.4</ele>
        <time>2019-08-08T15:47:13Z</time>
      </trkpt>
      <trkpt lat="48.57864" lon="7.67249">
        <ele>141.4</ele>
        <time>2019-08-08T15:47:14Z</time>
      </trkpt>
      <trkpt lat="48.57866" lon="7.67245">
        <ele>141.5</ele>
        <time>2019-08-08T15:47:15Z</time>
      </trkpt>
      <trkpt lat="48.57867" lon="7.67239">
        <ele>141.5</ele>
        <time>2019-08-08T15:47:16Z</time>
      </trkpt>
      <trkpt lat="48.57867" lon="7.67234">
        <ele>141.5</ele>
        <time>2019-08-08T15:47:17Z</time>
      </trkpt>
      <trkpt lat="48.57868" lon="7.67228">
        <ele>141.5</ele>
        <time>2019-08-08T15:47:19Z</time>
      </trkpt>
      <trkpt lat="48.5787" lon="7.67219">
        <ele>141.5</ele>
        <time>2019-08-08T15:47:20Z</time>
      </trkpt>
      <trkpt lat="48.57872" lon="7.67212">
        <ele>141.5</ele>
        <time>2019-08-08T15:47:21Z</time>
      </trkpt>
      <trkpt lat="48.57874" lon="7.67206">
        <ele>141.6</ele>
        <time>2019-08-08T15:47:22Z</time>
      </trkpt>
      <trkpt lat="48.57875" lon="7.67199">
        <ele>141.6</ele>
        <time>2019-08-08T15:47:23Z</time>
      </trkpt>
      <trkpt lat="48.57877" lon="7.67191">
        <ele>141.6</ele>
        <time>2019-08-08T15:47:24Z</time>
      </trkpt>
      <trkpt lat="48.57879" lon="7.67183">
        <ele>141.6</ele>
        <time>2019-08-08T15:47:25Z</time>
      </trkpt>
      <trkpt lat="48.57881" lon="7.67175">
        <ele>141.6</ele>
        <time>2019-08-08T15:47:26Z</time>
      </trkpt>
      <trkpt lat="48.57882" lon="7.67171">
        <ele>141.6</ele>
        <time>2019-08-08T15:47:27Z</time>
      </trkpt>
      <trkpt lat="48.57884" lon="7.67167">
        <ele>141.6</ele>
        <time>2019-08-08T15:47:28Z</time>
      </trkpt>
      <trkpt lat="48.57885" lon="7.67161">
        <ele>141.6</ele>
        <time>2019-08-08T15:47:29Z</time>
      </trkpt>
      <trkpt lat="48.57887" lon="7.67153">
        <ele>141.6</ele>
        <time>2019-08-08T15:47:30Z</time>
      </trkpt>
      <trkpt lat="48.57888" lon="7.67144">
        <ele>141.6</ele>
        <time>2019-08-08T15:47:31Z</time>
      </trkpt>
      <trkpt lat="48.5789" lon="7.67135">
        <ele>141.6</ele>
        <time>2019-08-08T15:47:32Z</time>
      </trkpt>
      <trkpt lat="48.57892" lon="7.67126">
        <ele>141.6</ele>
        <time>2019-08-08T15:47:33Z</time>
      </trkpt>
      <trkpt lat="48.57894" lon="7.67118">
        <ele>141.6</ele>
        <time>2019-08-08T15:47:34Z</time>
      </trkpt>
      <trkpt lat="48.57896" lon="7.6711">
        <ele>141.6</ele>
        <time>2019-08-08T15:47:35Z</time>
      </trkpt>
      <trkpt lat="48.57898" lon="7.671">
        <ele>141.6</ele>
        <time>2019-08-08T15:47:36Z</time>
      </trkpt>
      <trkpt lat="48.579" lon="7.67092">
        <ele>141.6</ele>
        <time>2019-08-08T15:47:37Z</time>
      </trkpt>
      <trkpt lat="48.57901" lon="7.67084">
        <ele>141.6</ele>
        <time>2019-08-08T15:47:38Z</time>
      </trkpt>
      <trkpt lat="48.57902" lon="7.67076">
        <ele>141.6</ele>
        <time>2019-08-08T15:47:39Z</time>
      </trkpt>
      <trkpt lat="48.57904" lon="7.67068">
        <ele>141.6</ele>
        <time>2019-08-08T15:47:40Z</time>
      </trkpt>
      <trkpt lat="48.57905" lon="7.67062">
        <ele>141.6</ele>
        <time>2019-08-08T15:47:41Z</time>
      </trkpt>
      <trkpt lat="48.57906" lon="7.67055">
        <ele>141.6</ele>
        <time>2019-08-08T15:47:42Z</time>
      </trkpt>
      <trkpt lat="48.57907" lon="7.67049">
        <ele>141.6</ele>
        <time>2019-08-08T15:47:43Z</time>
      </trkpt>
      <trkpt lat="48.57908" lon="7.67042">
        <ele>141.6</ele>
        <time>2019-08-08T15:47:44Z</time>
      </trkpt>
      <trkpt lat="48.57909" lon="7.67037">
        <ele>141.6</ele>
        <time>2019-08-08T15:47:45Z</time>
      </trkpt>
      <trkpt lat="48.57911" lon="7.6703">
        <ele>141.6</ele>
        <time>2019-08-08T15:47:46Z</time>
      </trkpt>
      <trkpt lat="48.57911" lon="7.67023">
        <ele>141.6</ele>
        <time>2019-08-08T15:47:47Z</time>
      </trkpt>
      <trkpt lat="48.57911" lon="7.67017">
        <ele>141.6</ele>
        <time>2019-08-08T15:47:48Z</time>
      </trkpt>
      <trkpt lat="48.57912" lon="7.67012">
        <ele>141.6</ele>
        <time>2019-08-08T15:47:49Z</time>
      </trkpt>
      <trkpt lat="48.57913" lon="7.67006">
        <ele>141.6</ele>
        <time>2019-08-08T15:47:50Z</time>
      </trkpt>
      <trkpt lat="48.57915" lon="7.67">
        <ele>141.6</ele>
        <time>2019-08-08T15:47:51Z</time>
      </trkpt>
      <trkpt lat="48.57916" lon="7.66994">
        <ele>141.6</ele>
        <time>2019-08-08T15:47:52Z</time>
      </trkpt>
      <trkpt lat="48.57918" lon="7.66989">
        <ele>141.6</ele>
        <time>2019-08-08T15:47:53Z</time>
      </trkpt>
      <trkpt lat="48.57918" lon="7.66984">
        <ele>141.6</ele>
        <time>2019-08-08T15:47:54Z</time>
      </trkpt>
      <trkpt lat="48.57919" lon="7.66978">
        <ele>141.6</ele>
        <time>2019-08-08T15:47:55Z</time>
      </trkpt>
      <trkpt lat="48.57921" lon="7.66972">
        <ele>141.7</ele>
        <time>2019-08-08T15:47:56Z</time>
      </trkpt>
      <trkpt lat="48.57923" lon="7.66966">
        <ele>141.7</ele>
        <time>2019-08-08T15:47:57Z</time>
      </trkpt>
      <trkpt lat="48.57924" lon="7.6696">
        <ele>141.7</ele>
        <time>2019-08-08T15:47:58Z</time>
      </trkpt>
      <trkpt lat="48.57924" lon="7.66955">
        <ele>141.7</ele>
        <time>2019-08-08T15:47:59Z</time>
      </trkpt>
      <trkpt lat="48.57926" lon="7.66949">
        <ele>141.7</ele>
        <time>2019-08-08T15:48:00Z</time>
      </trkpt>
      <trkpt lat="48.57927" lon="7.66944">
        <ele>141.7</ele>
        <time>2019-08-08T15:48:01Z</time>
      </trkpt>
      <trkpt lat="48.57929" lon="7.66936">
        <ele>141.7</ele>
        <time>2019-08-08T15:48:02Z</time>
      </trkpt>
      <trkpt lat="48.5793" lon="7.66929">
        <ele>141.7</ele>
        <time>2019-08-08T15:48:03Z</time>
      </trkpt>
      <trkpt lat="48.57931" lon="7.66922">
        <ele>141.7</ele>
        <time>2019-08-08T15:48:04Z</time>
      </trkpt>
      <trkpt lat="48.57932" lon="7.66916">
        <ele>141.7</ele>
        <time>2019-08-08T15:48:05Z</time>
      </trkpt>
      <trkpt lat="48.57933" lon="7.66909">
        <ele>141.8</ele>
        <time>2019-08-08T15:48:06Z</time>
      </trkpt>
      <trkpt lat="48.57934" lon="7.66903">
        <ele>141.8</ele>
        <time>2019-08-08T15:48:07Z</time>
      </trkpt>
      <trkpt lat="48.57935" lon="7.66895">
        <ele>141.8</ele>
        <time>2019-08-08T15:48:08Z</time>
      </trkpt>
      <trkpt lat="48.57937" lon="7.66888">
        <ele>141.9</ele>
        <time>2019-08-08T15:48:09Z</time>
      </trkpt>
      <trkpt lat="48.57937" lon="7.6688">
        <ele>141.9</ele>
        <time>2019-08-08T15:48:10Z</time>
      </trkpt>
      <trkpt lat="48.57939" lon="7.66873">
        <ele>141.9</ele>
        <time>2019-08-08T15:48:11Z</time>
      </trkpt>
      <trkpt lat="48.5794" lon="7.66865">
        <ele>142</ele>
        <time>2019-08-08T15:48:12Z</time>
      </trkpt>
      <trkpt lat="48.57941" lon="7.66858">
        <ele>142.1</ele>
        <time>2019-08-08T15:48:13Z</time>
      </trkpt>
      <trkpt lat="48.57943" lon="7.66852">
        <ele>142.1</ele>
        <time>2019-08-08T15:48:14Z</time>
      </trkpt>
      <trkpt lat="48.57944" lon="7.66846">
        <ele>142.2</ele>
        <time>2019-08-08T15:48:15Z</time>
      </trkpt>
      <trkpt lat="48.57946" lon="7.66839">
        <ele>142.3</ele>
        <time>2019-08-08T15:48:16Z</time>
      </trkpt>
      <trkpt lat="48.57947" lon="7.66832">
        <ele>142.5</ele>
        <time>2019-08-08T15:48:17Z</time>
      </trkpt>
      <trkpt lat="48.57948" lon="7.66825">
        <ele>142.6</ele>
        <time>2019-08-08T15:48:18Z</time>
      </trkpt>
      <trkpt lat="48.57949" lon="7.66818">
        <ele>142.8</ele>
        <time>2019-08-08T15:48:19Z</time>
      </trkpt>
      <trkpt lat="48.57951" lon="7.66812">
        <ele>143</ele>
        <time>2019-08-08T15:48:20Z</time>
      </trkpt>
      <trkpt lat="48.57953" lon="7.66807">
        <ele>143.1</ele>
        <time>2019-08-08T15:48:21Z</time>
      </trkpt>
      <trkpt lat="48.57954" lon="7.66802">
        <ele>143.3</ele>
        <time>2019-08-08T15:48:22Z</time>
      </trkpt>
      <trkpt lat="48.57955" lon="7.66795">
        <ele>143.5</ele>
        <time>2019-08-08T15:48:23Z</time>
      </trkpt>
      <trkpt lat="48.57956" lon="7.66788">
        <ele>143.7</ele>
        <time>2019-08-08T15:48:24Z</time>
      </trkpt>
      <trkpt lat="48.57958" lon="7.66783">
        <ele>143.9</ele>
        <time>2019-08-08T15:48:25Z</time>
      </trkpt>
      <trkpt lat="48.57959" lon="7.66775">
        <ele>144.2</ele>
        <time>2019-08-08T15:48:26Z</time>
      </trkpt>
      <trkpt lat="48.57961" lon="7.66769">
        <ele>144.4</ele>
        <time>2019-08-08T15:48:27Z</time>
      </trkpt>
      <trkpt lat="48.57963" lon="7.66764">
        <ele>144.6</ele>
        <time>2019-08-08T15:48:28Z</time>
      </trkpt>
      <trkpt lat="48.57966" lon="7.66757">
        <ele>144.9</ele>
        <time>2019-08-08T15:48:30Z</time>
      </trkpt>
      <trkpt lat="48.57967" lon="7.66753">
        <ele>145</ele>
        <time>2019-08-08T15:48:31Z</time>
      </trkpt>
      <trkpt lat="48.57969" lon="7.66749">
        <ele>145.1</ele>
        <time>2019-08-08T15:48:32Z</time>
      </trkpt>
      <trkpt lat="48.5797" lon="7.66746">
        <ele>145.2</ele>
        <time>2019-08-08T15:48:33Z</time>
      </trkpt>
      <trkpt lat="48.57972" lon="7.66741">
        <ele>145.3</ele>
        <time>2019-08-08T15:48:34Z</time>
      </trkpt>
      <trkpt lat="48.57974" lon="7.66736">
        <ele>145.4</ele>
        <time>2019-08-08T15:48:35Z</time>
      </trkpt>
      <trkpt lat="48.57974" lon="7.66732">
        <ele>145.5</ele>
        <time>2019-08-08T15:48:36Z</time>
      </trkpt>
      <trkpt lat="48.57974" lon="7.66727">
        <ele>145.5</ele>
        <time>2019-08-08T15:48:37Z</time>
      </trkpt>
      <trkpt lat="48.57976" lon="7.66719">
        <ele>145.6</ele>
        <time>2019-08-08T15:48:38Z</time>
      </trkpt>
      <trkpt lat="48.57976" lon="7.66714">
        <ele>145.6</ele>
        <time>2019-08-08T15:48:39Z</time>
      </trkpt>
      <trkpt lat="48.57976" lon="7.66708">
        <ele>145.6</ele>
        <time>2019-08-08T15:48:41Z</time>
      </trkpt>
      <trkpt lat="48.57984" lon="7.66688">
        <ele>145.6</ele>
        <time>2019-08-08T15:49:18Z</time>
      </trkpt>
      <trkpt lat="48.57985" lon="7.66682">
        <ele>145.5</ele>
        <time>2019-08-08T15:49:20Z</time>
      </trkpt>
      <trkpt lat="48.57986" lon="7.66678">
        <ele>145.5</ele>
        <time>2019-08-08T15:49:21Z</time>
      </trkpt>
      <trkpt lat="48.57987" lon="7.66671">
        <ele>145.4</ele>
        <time>2019-08-08T15:49:22Z</time>
      </trkpt>
      <trkpt lat="48.57988" lon="7.66664">
        <ele>145.2</ele>
        <time>2019-08-08T15:49:23Z</time>
      </trkpt>
      <trkpt lat="48.57989" lon="7.66658">
        <ele>145</ele>
        <time>2019-08-08T15:49:24Z</time>
      </trkpt>
      <trkpt lat="48.5799" lon="7.66654">
        <ele>144.9</ele>
        <time>2019-08-08T15:49:25Z</time>
      </trkpt>
      <trkpt lat="48.57993" lon="7.66648">
        <ele>144.8</ele>
        <time>2019-08-08T15:49:27Z</time>
      </trkpt>
      <trkpt lat="48.57993" lon="7.66643">
        <ele>144.6</ele>
        <time>2019-08-08T15:49:28Z</time>
      </trkpt>
      <trkpt lat="48.57994" lon="7.66636">
        <ele>144.4</ele>
        <time>2019-08-08T15:49:29Z</time>
      </trkpt>
      <trkpt lat="48.57995" lon="7.66628">
        <ele>144.2</ele>
        <time>2019-08-08T15:49:30Z</time>
      </trkpt>
      <trkpt lat="48.57996" lon="7.6662">
        <ele>143.9</ele>
        <time>2019-08-08T15:49:31Z</time>
      </trkpt>
      <trkpt lat="48.57998" lon="7.66613">
        <ele>143.7</ele>
        <time>2019-08-08T15:49:32Z</time>
      </trkpt>
      <trkpt lat="48.58" lon="7.66606">
        <ele>143.4</ele>
        <time>2019-08-08T15:49:33Z</time>
      </trkpt>
      <trkpt lat="48.58003" lon="7.666">
        <ele>143.3</ele>
        <time>2019-08-08T15:49:34Z</time>
      </trkpt>
      <trkpt lat="48.58005" lon="7.66592">
        <ele>143.1</ele>
        <time>2019-08-08T15:49:35Z</time>
      </trkpt>
      <trkpt lat="48.58006" lon="7.66588">
        <ele>143</ele>
        <time>2019-08-08T15:49:36Z</time>
      </trkpt>
      <trkpt lat="48.58007" lon="7.66584">
        <ele>143</ele>
        <time>2019-08-08T15:49:37Z</time>
      </trkpt>
      <trkpt lat="48.58008" lon="7.66579">
        <ele>142.9</ele>
        <time>2019-08-08T15:49:38Z</time>
      </trkpt>
      <trkpt lat="48.5801" lon="7.66573">
        <ele>142.8</ele>
        <time>2019-08-08T15:49:39Z</time>
      </trkpt>
      <trkpt lat="48.58012" lon="7.66566">
        <ele>142.7</ele>
        <time>2019-08-08T15:49:40Z</time>
      </trkpt>
      <trkpt lat="48.58014" lon="7.66558">
        <ele>142.6</ele>
        <time>2019-08-08T15:49:41Z</time>
      </trkpt>
      <trkpt lat="48.58016" lon="7.66552">
        <ele>142.6</ele>
        <time>2019-08-08T15:49:42Z</time>
      </trkpt>
      <trkpt lat="48.58017" lon="7.66545">
        <ele>142.5</ele>
        <time>2019-08-08T15:49:43Z</time>
      </trkpt>
      <trkpt lat="48.58018" lon="7.66538">
        <ele>142.5</ele>
        <time>2019-08-08T15:49:44Z</time>
      </trkpt>
      <trkpt lat="48.5802" lon="7.66531">
        <ele>142.5</ele>
        <time>2019-08-08T15:49:45Z</time>
      </trkpt>
      <trkpt lat="48.58021" lon="7.66523">
        <ele>142.5</ele>
        <time>2019-08-08T15:49:46Z</time>
      </trkpt>
      <trkpt lat="48.58025" lon="7.66517">
        <ele>142.5</ele>
        <time>2019-08-08T15:49:47Z</time>
      </trkpt>
      <trkpt lat="48.58027" lon="7.66507">
        <ele>142.4</ele>
        <time>2019-08-08T15:49:48Z</time>
      </trkpt>
      <trkpt lat="48.58029" lon="7.66498">
        <ele>142.2</ele>
        <time>2019-08-08T15:49:49Z</time>
      </trkpt>
      <trkpt lat="48.58032" lon="7.66489">
        <ele>142</ele>
        <time>2019-08-08T15:49:50Z</time>
      </trkpt>
      <trkpt lat="48.58035" lon="7.6648">
        <ele>141.9</ele>
        <time>2019-08-08T15:49:51Z</time>
      </trkpt>
      <trkpt lat="48.58038" lon="7.66469">
        <ele>141.9</ele>
        <time>2019-08-08T15:49:52Z</time>
      </trkpt>
      <trkpt lat="48.58041" lon="7.6646">
        <ele>142</ele>
        <time>2019-08-08T15:49:53Z</time>
      </trkpt>
      <trkpt lat="48.58044" lon="7.66452">
        <ele>142.1</ele>
        <time>2019-08-08T15:49:54Z</time>
      </trkpt>
      <trkpt lat="48.58047" lon="7.66445">
        <ele>142.2</ele>
        <time>2019-08-08T15:49:55Z</time>
      </trkpt>
      <trkpt lat="48.5805" lon="7.66437">
        <ele>142.3</ele>
        <time>2019-08-08T15:49:56Z</time>
      </trkpt>
      <trkpt lat="48.58052" lon="7.6643">
        <ele>142.4</ele>
        <time>2019-08-08T15:49:57Z</time>
      </trkpt>
      <trkpt lat="48.58053" lon="7.66422">
        <ele>142.4</ele>
        <time>2019-08-08T15:49:58Z</time>
      </trkpt>
      <trkpt lat="48.58054" lon="7.66415">
        <ele>142.5</ele>
        <time>2019-08-08T15:49:59Z</time>
      </trkpt>
      <trkpt lat="48.58055" lon="7.66407">
        <ele>142.5</ele>
        <time>2019-08-08T15:50:00Z</time>
      </trkpt>
      <trkpt lat="48.58054" lon="7.66399">
        <ele>142.5</ele>
        <time>2019-08-08T15:50:01Z</time>
      </trkpt>
      <trkpt lat="48.58054" lon="7.66395">
        <ele>142.5</ele>
        <time>2019-08-08T15:50:02Z</time>
      </trkpt>
      <trkpt lat="48.58054" lon="7.66385">
        <ele>142.5</ele>
        <time>2019-08-08T15:50:03Z</time>
      </trkpt>
      <trkpt lat="48.58053" lon="7.66378">
        <ele>142.6</ele>
        <time>2019-08-08T15:50:04Z</time>
      </trkpt>
      <trkpt lat="48.58053" lon="7.66372">
        <ele>142.7</ele>
        <time>2019-08-08T15:50:05Z</time>
      </trkpt>
      <trkpt lat="48.58053" lon="7.66365">
        <ele>142.8</ele>
        <time>2019-08-08T15:50:06Z</time>
      </trkpt>
      <trkpt lat="48.58054" lon="7.66357">
        <ele>142.7</ele>
        <time>2019-08-08T15:50:07Z</time>
      </trkpt>
      <trkpt lat="48.58055" lon="7.66346">
        <ele>142.6</ele>
        <time>2019-08-08T15:50:08Z</time>
      </trkpt>
      <trkpt lat="48.58055" lon="7.66336">
        <ele>142.5</ele>
        <time>2019-08-08T15:50:09Z</time>
      </trkpt>
      <trkpt lat="48.58054" lon="7.66327">
        <ele>142.4</ele>
        <time>2019-08-08T15:50:10Z</time>
      </trkpt>
      <trkpt lat="48.58052" lon="7.66319">
        <ele>142.4</ele>
        <time>2019-08-08T15:50:11Z</time>
      </trkpt>
      <trkpt lat="48.58051" lon="7.66313">
        <ele>142.4</ele>
        <time>2019-08-08T15:50:12Z</time>
      </trkpt>
      <trkpt lat="48.5805" lon="7.66306">
        <ele>142.4</ele>
        <time>2019-08-08T15:50:13Z</time>
      </trkpt>
      <trkpt lat="48.58049" lon="7.66299">
        <ele>142.4</ele>
        <time>2019-08-08T15:50:14Z</time>
      </trkpt>
      <trkpt lat="48.58047" lon="7.66292">
        <ele>142.4</ele>
        <time>2019-08-08T15:50:15Z</time>
      </trkpt>
      <trkpt lat="48.58045" lon="7.66285">
        <ele>142.4</ele>
        <time>2019-08-08T15:50:16Z</time>
      </trkpt>
      <trkpt lat="48.58044" lon="7.6628">
        <ele>142.4</ele>
        <time>2019-08-08T15:50:17Z</time>
      </trkpt>
      <trkpt lat="48.58044" lon="7.66275">
        <ele>142.4</ele>
        <time>2019-08-08T15:50:18Z</time>
      </trkpt>
      <trkpt lat="48.58044" lon="7.6627">
        <ele>142.4</ele>
        <time>2019-08-08T15:50:19Z</time>
      </trkpt>
      <trkpt lat="48.58043" lon="7.66265">
        <ele>142.5</ele>
        <time>2019-08-08T15:50:20Z</time>
      </trkpt>
      <trkpt lat="48.58042" lon="7.66259">
        <ele>142.5</ele>
        <time>2019-08-08T15:50:21Z</time>
      </trkpt>
      <trkpt lat="48.58042" lon="7.66251">
        <ele>142.6</ele>
        <time>2019-08-08T15:50:22Z</time>
      </trkpt>
      <trkpt lat="48.58042" lon="7.66244">
        <ele>142.6</ele>
        <time>2019-08-08T15:50:23Z</time>
      </trkpt>
      <trkpt lat="48.58041" lon="7.66236">
        <ele>142.6</ele>
        <time>2019-08-08T15:50:24Z</time>
      </trkpt>
      <trkpt lat="48.5804" lon="7.6623">
        <ele>142.6</ele>
        <time>2019-08-08T15:50:25Z</time>
      </trkpt>
      <trkpt lat="48.58039" lon="7.66222">
        <ele>142.6</ele>
        <time>2019-08-08T15:50:26Z</time>
      </trkpt>
      <trkpt lat="48.58038" lon="7.66216">
        <ele>142.6</ele>
        <time>2019-08-08T15:50:27Z</time>
      </trkpt>
      <trkpt lat="48.58038" lon="7.66208">
        <ele>142.6</ele>
        <time>2019-08-08T15:50:28Z</time>
      </trkpt>
      <trkpt lat="48.58037" lon="7.66201">
        <ele>142.6</ele>
        <time>2019-08-08T15:50:29Z</time>
      </trkpt>
      <trkpt lat="48.58037" lon="7.66195">
        <ele>142.6</ele>
        <time>2019-08-08T15:50:30Z</time>
      </trkpt>
      <trkpt lat="48.58037" lon="7.66188">
        <ele>142.6</ele>
        <time>2019-08-08T15:50:31Z</time>
      </trkpt>
      <trkpt lat="48.58036" lon="7.66181">
        <ele>142.6</ele>
        <time>2019-08-08T15:50:32Z</time>
      </trkpt>
      <trkpt lat="48.58036" lon="7.66174">
        <ele>142.6</ele>
        <time>2019-08-08T15:50:33Z</time>
      </trkpt>
      <trkpt lat="48.58035" lon="7.66169">
        <ele>142.6</ele>
        <time>2019-08-08T15:50:34Z</time>
      </trkpt>
      <trkpt lat="48.58035" lon="7.66163">
        <ele>142.6</ele>
        <time>2019-08-08T15:50:35Z</time>
      </trkpt>
      <trkpt lat="48.58034" lon="7.66156">
        <ele>142.6</ele>
        <time>2019-08-08T15:50:36Z</time>
      </trkpt>
      <trkpt lat="48.58033" lon="7.66149">
        <ele>142.6</ele>
        <time>2019-08-08T15:50:37Z</time>
      </trkpt>
      <trkpt lat="48.58032" lon="7.66141">
        <ele>142.6</ele>
        <time>2019-08-08T15:50:38Z</time>
      </trkpt>
      <trkpt lat="48.5803" lon="7.66133">
        <ele>142.6</ele>
        <time>2019-08-08T15:50:39Z</time>
      </trkpt>
      <trkpt lat="48.58027" lon="7.66126">
        <ele>142.6</ele>
        <time>2019-08-08T15:50:40Z</time>
      </trkpt>
      <trkpt lat="48.58024" lon="7.66119">
        <ele>142.5</ele>
        <time>2019-08-08T15:50:41Z</time>
      </trkpt>
      <trkpt lat="48.58021" lon="7.6611">
        <ele>142.6</ele>
        <time>2019-08-08T15:50:42Z</time>
      </trkpt>
      <trkpt lat="48.58018" lon="7.66099">
        <ele>142.6</ele>
        <time>2019-08-08T15:50:43Z</time>
      </trkpt>
      <trkpt lat="48.58014" lon="7.6609">
        <ele>142.6</ele>
        <time>2019-08-08T15:50:44Z</time>
      </trkpt>
      <trkpt lat="48.58011" lon="7.66084">
        <ele>142.6</ele>
        <time>2019-08-08T15:50:45Z</time>
      </trkpt>
      <trkpt lat="48.58006" lon="7.66078">
        <ele>142.6</ele>
        <time>2019-08-08T15:50:46Z</time>
      </trkpt>
      <trkpt lat="48.58002" lon="7.66073">
        <ele>142.6</ele>
        <time>2019-08-08T15:50:47Z</time>
      </trkpt>
      <trkpt lat="48.57996" lon="7.66066">
        <ele>142.5</ele>
        <time>2019-08-08T15:50:48Z</time>
      </trkpt>
      <trkpt lat="48.57991" lon="7.6606">
        <ele>142.5</ele>
        <time>2019-08-08T15:50:49Z</time>
      </trkpt>
      <trkpt lat="48.57986" lon="7.66051">
        <ele>142.5</ele>
        <time>2019-08-08T15:50:50Z</time>
      </trkpt>
      <trkpt lat="48.57983" lon="7.66044">
        <ele>142.5</ele>
        <time>2019-08-08T15:50:51Z</time>
      </trkpt>
      <trkpt lat="48.5798" lon="7.66037">
        <ele>142.6</ele>
        <time>2019-08-08T15:50:52Z</time>
      </trkpt>
      <trkpt lat="48.57977" lon="7.6603">
        <ele>142.6</ele>
        <time>2019-08-08T15:50:53Z</time>
      </trkpt>
      <trkpt lat="48.57974" lon="7.66023">
        <ele>142.6</ele>
        <time>2019-08-08T15:50:54Z</time>
      </trkpt>
      <trkpt lat="48.57971" lon="7.66017">
        <ele>142.6</ele>
        <time>2019-08-08T15:50:55Z</time>
      </trkpt>
      <trkpt lat="48.57969" lon="7.66011">
        <ele>142.6</ele>
        <time>2019-08-08T15:50:56Z</time>
      </trkpt>
      <trkpt lat="48.57967" lon="7.66006">
        <ele>142.6</ele>
        <time>2019-08-08T15:50:57Z</time>
      </trkpt>
      <trkpt lat="48.57965" lon="7.65998">
        <ele>142.6</ele>
        <time>2019-08-08T15:50:58Z</time>
      </trkpt>
      <trkpt lat="48.57962" lon="7.6599">
        <ele>142.5</ele>
        <time>2019-08-08T15:50:59Z</time>
      </trkpt>
      <trkpt lat="48.57959" lon="7.65982">
        <ele>142.4</ele>
        <time>2019-08-08T15:51:00Z</time>
      </trkpt>
      <trkpt lat="48.57956" lon="7.65974">
        <ele>142.4</ele>
        <time>2019-08-08T15:51:01Z</time>
      </trkpt>
      <trkpt lat="48.57953" lon="7.65966">
        <ele>142.4</ele>
        <time>2019-08-08T15:51:02Z</time>
      </trkpt>
      <trkpt lat="48.57951" lon="7.65959">
        <ele>142.4</ele>
        <time>2019-08-08T15:51:03Z</time>
      </trkpt>
      <trkpt lat="48.57949" lon="7.65951">
        <ele>142.4</ele>
        <time>2019-08-08T15:51:04Z</time>
      </trkpt>
      <trkpt lat="48.57947" lon="7.65945">
        <ele>142.5</ele>
        <time>2019-08-08T15:51:05Z</time>
      </trkpt>
      <trkpt lat="48.57946" lon="7.65939">
        <ele>142.5</ele>
        <time>2019-08-08T15:51:06Z</time>
      </trkpt>
      <trkpt lat="48.57944" lon="7.65934">
        <ele>142.6</ele>
        <time>2019-08-08T15:51:07Z</time>
      </trkpt>
      <trkpt lat="48.57943" lon="7.65926">
        <ele>142.6</ele>
        <time>2019-08-08T15:51:08Z</time>
      </trkpt>
      <trkpt lat="48.57942" lon="7.65919">
        <ele>142.6</ele>
        <time>2019-08-08T15:51:09Z</time>
      </trkpt>
      <trkpt lat="48.57942" lon="7.65911">
        <ele>142.6</ele>
        <time>2019-08-08T15:51:10Z</time>
      </trkpt>
      <trkpt lat="48.57943" lon="7.65905">
        <ele>142.6</ele>
        <time>2019-08-08T15:51:11Z</time>
      </trkpt>
      <trkpt lat="48.57944" lon="7.65896">
        <ele>142.6</ele>
        <time>2019-08-08T15:51:12Z</time>
      </trkpt>
      <trkpt lat="48.57946" lon="7.65888">
        <ele>142.7</ele>
        <time>2019-08-08T15:51:13Z</time>
      </trkpt>
      <trkpt lat="48.57947" lon="7.6588">
        <ele>142.7</ele>
        <time>2019-08-08T15:51:14Z</time>
      </trkpt>
      <trkpt lat="48.57949" lon="7.65873">
        <ele>142.7</ele>
        <time>2019-08-08T15:51:15Z</time>
      </trkpt>
      <trkpt lat="48.5795" lon="7.65866">
        <ele>142.7</ele>
        <time>2019-08-08T15:51:16Z</time>
      </trkpt>
      <trkpt lat="48.5795" lon="7.65857">
        <ele>142.6</ele>
        <time>2019-08-08T15:51:17Z</time>
      </trkpt>
      <trkpt lat="48.5795" lon="7.65848">
        <ele>142.6</ele>
        <time>2019-08-08T15:51:18Z</time>
      </trkpt>
      <trkpt lat="48.5795" lon="7.65839">
        <ele>142.6</ele>
        <time>2019-08-08T15:51:19Z</time>
      </trkpt>
      <trkpt lat="48.5795" lon="7.6583">
        <ele>142.5</ele>
        <time>2019-08-08T15:51:20Z</time>
      </trkpt>
      <trkpt lat="48.57948" lon="7.65824">
        <ele>142.4</ele>
        <time>2019-08-08T15:51:21Z</time>
      </trkpt>
      <trkpt lat="48.57945" lon="7.65818">
        <ele>142.4</ele>
        <time>2019-08-08T15:51:22Z</time>
      </trkpt>
      <trkpt lat="48.57942" lon="7.65811">
        <ele>142.4</ele>
        <time>2019-08-08T15:51:23Z</time>
      </trkpt>
      <trkpt lat="48.5794" lon="7.65803">
        <ele>142.4</ele>
        <time>2019-08-08T15:51:24Z</time>
      </trkpt>
      <trkpt lat="48.57938" lon="7.65796">
        <ele>142.4</ele>
        <time>2019-08-08T15:51:25Z</time>
      </trkpt>
      <trkpt lat="48.57936" lon="7.65791">
        <ele>142.4</ele>
        <time>2019-08-08T15:51:26Z</time>
      </trkpt>
      <trkpt lat="48.57935" lon="7.65782">
        <ele>142.5</ele>
        <time>2019-08-08T15:51:27Z</time>
      </trkpt>
      <trkpt lat="48.57935" lon="7.65776">
        <ele>142.5</ele>
        <time>2019-08-08T15:51:28Z</time>
      </trkpt>
      <trkpt lat="48.57936" lon="7.65769">
        <ele>142.5</ele>
        <time>2019-08-08T15:51:29Z</time>
      </trkpt>
      <trkpt lat="48.57937" lon="7.65761">
        <ele>142.6</ele>
        <time>2019-08-08T15:51:30Z</time>
      </trkpt>
      <trkpt lat="48.57939" lon="7.65754">
        <ele>142.5</ele>
        <time>2019-08-08T15:51:31Z</time>
      </trkpt>
      <trkpt lat="48.5794" lon="7.65747">
        <ele>142.5</ele>
        <time>2019-08-08T15:51:32Z</time>
      </trkpt>
      <trkpt lat="48.57942" lon="7.65741">
        <ele>142.5</ele>
        <time>2019-08-08T15:51:33Z</time>
      </trkpt>
      <trkpt lat="48.57943" lon="7.65735">
        <ele>142.5</ele>
        <time>2019-08-08T15:51:34Z</time>
      </trkpt>
      <trkpt lat="48.57944" lon="7.65731">
        <ele>142.5</ele>
        <time>2019-08-08T15:51:35Z</time>
      </trkpt>
      <trkpt lat="48.57947" lon="7.65725">
        <ele>142.5</ele>
        <time>2019-08-08T15:51:36Z</time>
      </trkpt>
      <trkpt lat="48.5795" lon="7.65718">
        <ele>142.5</ele>
        <time>2019-08-08T15:51:37Z</time>
      </trkpt>
      <trkpt lat="48.57954" lon="7.65712">
        <ele>142.5</ele>
        <time>2019-08-08T15:51:38Z</time>
      </trkpt>
      <trkpt lat="48.57956" lon="7.65706">
        <ele>142.5</ele>
        <time>2019-08-08T15:51:39Z</time>
      </trkpt>
      <trkpt lat="48.57957" lon="7.65699">
        <ele>142.5</ele>
        <time>2019-08-08T15:51:40Z</time>
      </trkpt>
      <trkpt lat="48.57958" lon="7.65694">
        <ele>142.5</ele>
        <time>2019-08-08T15:51:41Z</time>
      </trkpt>
      <trkpt lat="48.5796" lon="7.65684">
        <ele>142.5</ele>
        <time>2019-08-08T15:51:42Z</time>
      </trkpt>
      <trkpt lat="48.57961" lon="7.65676">
        <ele>142.5</ele>
        <time>2019-08-08T15:51:43Z</time>
      </trkpt>
      <trkpt lat="48.57963" lon="7.65669">
        <ele>142.5</ele>
        <time>2019-08-08T15:51:44Z</time>
      </trkpt>
      <trkpt lat="48.57964" lon="7.65661">
        <ele>142.5</ele>
        <time>2019-08-08T15:51:45Z</time>
      </trkpt>
      <trkpt lat="48.57965" lon="7.65656">
        <ele>142.5</ele>
        <time>2019-08-08T15:51:46Z</time>
      </trkpt>
      <trkpt lat="48.57964" lon="7.6565">
        <ele>142.5</ele>
        <time>2019-08-08T15:51:47Z</time>
      </trkpt>
      <trkpt lat="48.57965" lon="7.65645">
        <ele>142.5</ele>
        <time>2019-08-08T15:51:48Z</time>
      </trkpt>
      <trkpt lat="48.57965" lon="7.65639">
        <ele>142.5</ele>
        <time>2019-08-08T15:51:49Z</time>
      </trkpt>
      <trkpt lat="48.57964" lon="7.6563">
        <ele>142.5</ele>
        <time>2019-08-08T15:51:50Z</time>
      </trkpt>
      <trkpt lat="48.57963" lon="7.65622">
        <ele>142.5</ele>
        <time>2019-08-08T15:51:51Z</time>
      </trkpt>
      <trkpt lat="48.57964" lon="7.65616">
        <ele>142.5</ele>
        <time>2019-08-08T15:51:52Z</time>
      </trkpt>
      <trkpt lat="48.57965" lon="7.65608">
        <ele>142.5</ele>
        <time>2019-08-08T15:51:53Z</time>
      </trkpt>
      <trkpt lat="48.57965" lon="7.65599">
        <ele>142.5</ele>
        <time>2019-08-08T15:51:54Z</time>
      </trkpt>
      <trkpt lat="48.57965" lon="7.65589">
        <ele>142.5</ele>
        <time>2019-08-08T15:51:55Z</time>
      </trkpt>
      <trkpt lat="48.57965" lon="7.65579">
        <ele>142.5</ele>
        <time>2019-08-08T15:51:56Z</time>
      </trkpt>
      <trkpt lat="48.57965" lon="7.65571">
        <ele>142.5</ele>
        <time>2019-08-08T15:51:57Z</time>
      </trkpt>
      <trkpt lat="48.57965" lon="7.65562">
        <ele>142.5</ele>
        <time>2019-08-08T15:51:58Z</time>
      </trkpt>
      <trkpt lat="48.57965" lon="7.65552">
        <ele>142.5</ele>
        <time>2019-08-08T15:51:59Z</time>
      </trkpt>
      <trkpt lat="48.57964" lon="7.65544">
        <ele>142.5</ele>
        <time>2019-08-08T15:52:00Z</time>
      </trkpt>
      <trkpt lat="48.57965" lon="7.6554">
        <ele>142.5</ele>
        <time>2019-08-08T15:52:01Z</time>
      </trkpt>
      <trkpt lat="48.57964" lon="7.65536">
        <ele>142.5</ele>
        <time>2019-08-08T15:52:02Z</time>
      </trkpt>
      <trkpt lat="48.57962" lon="7.65531">
        <ele>142.5</ele>
        <time>2019-08-08T15:52:03Z</time>
      </trkpt>
      <trkpt lat="48.5796" lon="7.65525">
        <ele>142.5</ele>
        <time>2019-08-08T15:52:04Z</time>
      </trkpt>
      <trkpt lat="48.57958" lon="7.65519">
        <ele>142.5</ele>
        <time>2019-08-08T15:52:05Z</time>
      </trkpt>
      <trkpt lat="48.57956" lon="7.65514">
        <ele>142.5</ele>
        <time>2019-08-08T15:52:06Z</time>
      </trkpt>
      <trkpt lat="48.57954" lon="7.65508">
        <ele>142.5</ele>
        <time>2019-08-08T15:52:07Z</time>
      </trkpt>
      <trkpt lat="48.57952" lon="7.65503">
        <ele>142.5</ele>
        <time>2019-08-08T15:52:08Z</time>
      </trkpt>
      <trkpt lat="48.57951" lon="7.65499">
        <ele>142.5</ele>
        <time>2019-08-08T15:52:09Z</time>
      </trkpt>
      <trkpt lat="48.57949" lon="7.65494">
        <ele>142.5</ele>
        <time>2019-08-08T15:52:10Z</time>
      </trkpt>
      <trkpt lat="48.57948" lon="7.65489">
        <ele>142.5</ele>
        <time>2019-08-08T15:52:11Z</time>
      </trkpt>
      <trkpt lat="48.57946" lon="7.65481">
        <ele>142.5</ele>
        <time>2019-08-08T15:52:12Z</time>
      </trkpt>
      <trkpt lat="48.57945" lon="7.65474">
        <ele>142.5</ele>
        <time>2019-08-08T15:52:13Z</time>
      </trkpt>
      <trkpt lat="48.57943" lon="7.65465">
        <ele>142.5</ele>
        <time>2019-08-08T15:52:14Z</time>
      </trkpt>
      <trkpt lat="48.57941" lon="7.65458">
        <ele>142.5</ele>
        <time>2019-08-08T15:52:15Z</time>
      </trkpt>
      <trkpt lat="48.57939" lon="7.65451">
        <ele>142.5</ele>
        <time>2019-08-08T15:52:16Z</time>
      </trkpt>
      <trkpt lat="48.57937" lon="7.65445">
        <ele>142.5</ele>
        <time>2019-08-08T15:52:17Z</time>
      </trkpt>
      <trkpt lat="48.57937" lon="7.65438">
        <ele>142.5</ele>
        <time>2019-08-08T15:52:18Z</time>
      </trkpt>
      <trkpt lat="48.57936" lon="7.65432">
        <ele>142.5</ele>
        <time>2019-08-08T15:52:19Z</time>
      </trkpt>
      <trkpt lat="48.57936" lon="7.65426">
        <ele>142.5</ele>
        <time>2019-08-08T15:52:20Z</time>
      </trkpt>
      <trkpt lat="48.57936" lon="7.65417">
        <ele>142.5</ele>
        <time>2019-08-08T15:52:21Z</time>
      </trkpt>
      <trkpt lat="48.57937" lon="7.6541">
        <ele>142.5</ele>
        <time>2019-08-08T15:52:22Z</time>
      </trkpt>
      <trkpt lat="48.57935" lon="7.65407">
        <ele>142.5</ele>
        <time>2019-08-08T15:52:23Z</time>
      </trkpt>
      <trkpt lat="48.57935" lon="7.654">
        <ele>142.5</ele>
        <time>2019-08-08T15:52:24Z</time>
      </trkpt>
      <trkpt lat="48.57934" lon="7.65396">
        <ele>142.5</ele>
        <time>2019-08-08T15:52:25Z</time>
      </trkpt>
      <trkpt lat="48.57934" lon="7.6539">
        <ele>142.5</ele>
        <time>2019-08-08T15:52:26Z</time>
      </trkpt>
      <trkpt lat="48.57936" lon="7.65382">
        <ele>142.5</ele>
        <time>2019-08-08T15:52:27Z</time>
      </trkpt>
      <trkpt lat="48.57937" lon="7.65374">
        <ele>142.5</ele>
        <time>2019-08-08T15:52:28Z</time>
      </trkpt>
      <trkpt lat="48.57937" lon="7.65366">
        <ele>142.5</ele>
        <time>2019-08-08T15:52:29Z</time>
      </trkpt>
      <trkpt lat="48.57937" lon="7.65359">
        <ele>142.5</ele>
        <time>2019-08-08T15:52:30Z</time>
      </trkpt>
      <trkpt lat="48.57938" lon="7.65352">
        <ele>142.5</ele>
        <time>2019-08-08T15:52:31Z</time>
      </trkpt>
      <trkpt lat="48.57938" lon="7.65347">
        <ele>142.5</ele>
        <time>2019-08-08T15:52:32Z</time>
      </trkpt>
      <trkpt lat="48.57939" lon="7.65341">
        <ele>142.5</ele>
        <time>2019-08-08T15:52:33Z</time>
      </trkpt>
      <trkpt lat="48.57939" lon="7.65333">
        <ele>142.5</ele>
        <time>2019-08-08T15:52:34Z</time>
      </trkpt>
      <trkpt lat="48.57939" lon="7.65325">
        <ele>142.5</ele>
        <time>2019-08-08T15:52:35Z</time>
      </trkpt>
      <trkpt lat="48.5794" lon="7.65317">
        <ele>142.5</ele>
        <time>2019-08-08T15:52:36Z</time>
      </trkpt>
      <trkpt lat="48.57942" lon="7.65306">
        <ele>142.5</ele>
        <time>2019-08-08T15:52:37Z</time>
      </trkpt>
      <trkpt lat="48.57943" lon="7.65297">
        <ele>142.5</ele>
        <time>2019-08-08T15:52:38Z</time>
      </trkpt>
      <trkpt lat="48.57944" lon="7.6529">
        <ele>142.5</ele>
        <time>2019-08-08T15:52:39Z</time>
      </trkpt>
      <trkpt lat="48.57945" lon="7.65284">
        <ele>142.5</ele>
        <time>2019-08-08T15:52:40Z</time>
      </trkpt>
      <trkpt lat="48.57946" lon="7.65278">
        <ele>142.5</ele>
        <time>2019-08-08T15:52:41Z</time>
      </trkpt>
      <trkpt lat="48.57947" lon="7.65274">
        <ele>142.5</ele>
        <time>2019-08-08T15:52:42Z</time>
      </trkpt>
      <trkpt lat="48.57947" lon="7.65263">
        <ele>142.5</ele>
        <time>2019-08-08T15:52:44Z</time>
      </trkpt>
      <trkpt lat="48.57948" lon="7.65255">
        <ele>142.5</ele>
        <time>2019-08-08T15:52:45Z</time>
      </trkpt>
      <trkpt lat="48.57949" lon="7.65248">
        <ele>142.5</ele>
        <time>2019-08-08T15:52:46Z</time>
      </trkpt>
      <trkpt lat="48.57949" lon="7.6524">
        <ele>142.6</ele>
        <time>2019-08-08T15:52:47Z</time>
      </trkpt>
      <trkpt lat="48.5795" lon="7.65232">
        <ele>142.6</ele>
        <time>2019-08-08T15:52:48Z</time>
      </trkpt>
      <trkpt lat="48.5795" lon="7.65223">
        <ele>142.6</ele>
        <time>2019-08-08T15:52:49Z</time>
      </trkpt>
      <trkpt lat="48.57952" lon="7.65214">
        <ele>142.7</ele>
        <time>2019-08-08T15:52:50Z</time>
      </trkpt>
      <trkpt lat="48.57954" lon="7.65206">
        <ele>142.9</ele>
        <time>2019-08-08T15:52:51Z</time>
      </trkpt>
      <trkpt lat="48.57955" lon="7.65195">
        <ele>143</ele>
        <time>2019-08-08T15:52:52Z</time>
      </trkpt>
      <trkpt lat="48.57957" lon="7.65188">
        <ele>143.2</ele>
        <time>2019-08-08T15:52:53Z</time>
      </trkpt>
      <trkpt lat="48.57958" lon="7.65181">
        <ele>143.3</ele>
        <time>2019-08-08T15:52:54Z</time>
      </trkpt>
      <trkpt lat="48.57958" lon="7.65176">
        <ele>143.4</ele>
        <time>2019-08-08T15:52:55Z</time>
      </trkpt>
      <trkpt lat="48.57959" lon="7.65169">
        <ele>143.5</ele>
        <time>2019-08-08T15:52:56Z</time>
      </trkpt>
      <trkpt lat="48.5796" lon="7.65162">
        <ele>143.5</ele>
        <time>2019-08-08T15:52:57Z</time>
      </trkpt>
      <trkpt lat="48.57961" lon="7.65156">
        <ele>143.6</ele>
        <time>2019-08-08T15:52:58Z</time>
      </trkpt>
      <trkpt lat="48.57961" lon="7.6515">
        <ele>143.8</ele>
        <time>2019-08-08T15:52:59Z</time>
      </trkpt>
      <trkpt lat="48.5796" lon="7.65144">
        <ele>144</ele>
        <time>2019-08-08T15:53:00Z</time>
      </trkpt>
      <trkpt lat="48.57961" lon="7.65138">
        <ele>144.1</ele>
        <time>2019-08-08T15:53:01Z</time>
      </trkpt>
      <trkpt lat="48.57961" lon="7.65131">
        <ele>144.3</ele>
        <time>2019-08-08T15:53:02Z</time>
      </trkpt>
      <trkpt lat="48.57962" lon="7.65125">
        <ele>144.5</ele>
        <time>2019-08-08T15:53:03Z</time>
      </trkpt>
      <trkpt lat="48.57963" lon="7.65118">
        <ele>144.7</ele>
        <time>2019-08-08T15:53:04Z</time>
      </trkpt>
      <trkpt lat="48.57963" lon="7.65109">
        <ele>144.9</ele>
        <time>2019-08-08T15:53:05Z</time>
      </trkpt>
      <trkpt lat="48.57963" lon="7.65101">
        <ele>145.1</ele>
        <time>2019-08-08T15:53:06Z</time>
      </trkpt>
      <trkpt lat="48.57964" lon="7.65092">
        <ele>145.3</ele>
        <time>2019-08-08T15:53:07Z</time>
      </trkpt>
      <trkpt lat="48.57965" lon="7.65084">
        <ele>145.4</ele>
        <time>2019-08-08T15:53:08Z</time>
      </trkpt>
      <trkpt lat="48.57965" lon="7.65075">
        <ele>145.5</ele>
        <time>2019-08-08T15:53:09Z</time>
      </trkpt>
      <trkpt lat="48.57966" lon="7.65066">
        <ele>145.5</ele>
        <time>2019-08-08T15:53:10Z</time>
      </trkpt>
      <trkpt lat="48.57966" lon="7.65059">
        <ele>145.5</ele>
        <time>2019-08-08T15:53:11Z</time>
      </trkpt>
      <trkpt lat="48.57968" lon="7.65051">
        <ele>145.5</ele>
        <time>2019-08-08T15:53:12Z</time>
      </trkpt>
      <trkpt lat="48.57969" lon="7.65043">
        <ele>145.5</ele>
        <time>2019-08-08T15:53:13Z</time>
      </trkpt>
      <trkpt lat="48.5797" lon="7.65036">
        <ele>145.5</ele>
        <time>2019-08-08T15:53:14Z</time>
      </trkpt>
      <trkpt lat="48.5797" lon="7.65029">
        <ele>145.6</ele>
        <time>2019-08-08T15:53:15Z</time>
      </trkpt>
      <trkpt lat="48.57971" lon="7.65022">
        <ele>145.6</ele>
        <time>2019-08-08T15:53:16Z</time>
      </trkpt>
      <trkpt lat="48.57972" lon="7.65014">
        <ele>145.7</ele>
        <time>2019-08-08T15:53:17Z</time>
      </trkpt>
      <trkpt lat="48.57973" lon="7.65007">
        <ele>145.7</ele>
        <time>2019-08-08T15:53:18Z</time>
      </trkpt>
      <trkpt lat="48.57974" lon="7.65001">
        <ele>145.6</ele>
        <time>2019-08-08T15:53:19Z</time>
      </trkpt>
      <trkpt lat="48.57974" lon="7.64995">
        <ele>145.5</ele>
        <time>2019-08-08T15:53:20Z</time>
      </trkpt>
      <trkpt lat="48.57975" lon="7.64988">
        <ele>145.4</ele>
        <time>2019-08-08T15:53:21Z</time>
      </trkpt>
      <trkpt lat="48.57975" lon="7.64981">
        <ele>145.2</ele>
        <time>2019-08-08T15:53:22Z</time>
      </trkpt>
      <trkpt lat="48.57975" lon="7.64974">
        <ele>145</ele>
        <time>2019-08-08T15:53:23Z</time>
      </trkpt>
      <trkpt lat="48.57975" lon="7.64967">
        <ele>144.8</ele>
        <time>2019-08-08T15:53:24Z</time>
      </trkpt>
      <trkpt lat="48.57976" lon="7.64958">
        <ele>144.6</ele>
        <time>2019-08-08T15:53:25Z</time>
      </trkpt>
      <trkpt lat="48.57977" lon="7.64952">
        <ele>144.4</ele>
        <time>2019-08-08T15:53:26Z</time>
      </trkpt>
      <trkpt lat="48.57977" lon="7.64943">
        <ele>144.3</ele>
        <time>2019-08-08T15:53:27Z</time>
      </trkpt>
      <trkpt lat="48.57979" lon="7.64935">
        <ele>144.2</ele>
        <time>2019-08-08T15:53:28Z</time>
      </trkpt>
      <trkpt lat="48.5798" lon="7.64926">
        <ele>144.2</ele>
        <time>2019-08-08T15:53:29Z</time>
      </trkpt>
      <trkpt lat="48.57981" lon="7.6492">
        <ele>144.3</ele>
        <time>2019-08-08T15:53:30Z</time>
      </trkpt>
      <trkpt lat="48.57982" lon="7.64912">
        <ele>144.3</ele>
        <time>2019-08-08T15:53:31Z</time>
      </trkpt>
      <trkpt lat="48.57983" lon="7.64902">
        <ele>144.5</ele>
        <time>2019-08-08T15:53:33Z</time>
      </trkpt>
      <trkpt lat="48.57983" lon="7.64895">
        <ele>144.6</ele>
        <time>2019-08-08T15:53:34Z</time>
      </trkpt>
      <trkpt lat="48.57984" lon="7.64887">
        <ele>144.7</ele>
        <time>2019-08-08T15:53:35Z</time>
      </trkpt>
      <trkpt lat="48.57985" lon="7.6488">
        <ele>144.8</ele>
        <time>2019-08-08T15:53:36Z</time>
      </trkpt>
      <trkpt lat="48.57985" lon="7.64873">
        <ele>144.9</ele>
        <time>2019-08-08T15:53:37Z</time>
      </trkpt>
      <trkpt lat="48.57985" lon="7.64866">
        <ele>145</ele>
        <time>2019-08-08T15:53:38Z</time>
      </trkpt>
      <trkpt lat="48.57985" lon="7.64858">
        <ele>145.1</ele>
        <time>2019-08-08T15:53:39Z</time>
      </trkpt>
      <trkpt lat="48.57985" lon="7.64851">
        <ele>145.2</ele>
        <time>2019-08-08T15:53:40Z</time>
      </trkpt>
      <trkpt lat="48.57985" lon="7.64846">
        <ele>145.3</ele>
        <time>2019-08-08T15:53:41Z</time>
      </trkpt>
      <trkpt lat="48.57986" lon="7.64839">
        <ele>145.3</ele>
        <time>2019-08-08T15:53:42Z</time>
      </trkpt>
      <trkpt lat="48.57987" lon="7.64833">
        <ele>145.4</ele>
        <time>2019-08-08T15:53:43Z</time>
      </trkpt>
      <trkpt lat="48.57989" lon="7.64827">
        <ele>145.4</ele>
        <time>2019-08-08T15:53:44Z</time>
      </trkpt>
      <trkpt lat="48.57991" lon="7.6482">
        <ele>145.4</ele>
        <time>2019-08-08T15:53:45Z</time>
      </trkpt>
      <trkpt lat="48.57994" lon="7.64813">
        <ele>145.4</ele>
        <time>2019-08-08T15:53:46Z</time>
      </trkpt>
      <trkpt lat="48.57995" lon="7.64806">
        <ele>145.4</ele>
        <time>2019-08-08T15:53:47Z</time>
      </trkpt>
      <trkpt lat="48.57997" lon="7.64798">
        <ele>145.4</ele>
        <time>2019-08-08T15:53:48Z</time>
      </trkpt>
      <trkpt lat="48.57999" lon="7.64791">
        <ele>145.3</ele>
        <time>2019-08-08T15:53:49Z</time>
      </trkpt>
      <trkpt lat="48.58" lon="7.64784">
        <ele>145.3</ele>
        <time>2019-08-08T15:53:50Z</time>
      </trkpt>
      <trkpt lat="48.58001" lon="7.64778">
        <ele>145.3</ele>
        <time>2019-08-08T15:53:51Z</time>
      </trkpt>
      <trkpt lat="48.58001" lon="7.64773">
        <ele>145.2</ele>
        <time>2019-08-08T15:53:52Z</time>
      </trkpt>
      <trkpt lat="48.57999" lon="7.64767">
        <ele>145.2</ele>
        <time>2019-08-08T15:53:54Z</time>
      </trkpt>
      <trkpt lat="48.57998" lon="7.64759">
        <ele>145.2</ele>
        <time>2019-08-08T15:53:56Z</time>
      </trkpt>
      <trkpt lat="48.57998" lon="7.64752">
        <ele>145.2</ele>
        <time>2019-08-08T15:53:57Z</time>
      </trkpt>
      <trkpt lat="48.57999" lon="7.64746">
        <ele>145.3</ele>
        <time>2019-08-08T15:53:58Z</time>
      </trkpt>
      <trkpt lat="48.58" lon="7.64738">
        <ele>145.3</ele>
        <time>2019-08-08T15:53:59Z</time>
      </trkpt>
      <trkpt lat="48.58001" lon="7.64731">
        <ele>145.3</ele>
        <time>2019-08-08T15:54:00Z</time>
      </trkpt>
      <trkpt lat="48.58002" lon="7.64723">
        <ele>145.4</ele>
        <time>2019-08-08T15:54:01Z</time>
      </trkpt>
      <trkpt lat="48.58004" lon="7.64713">
        <ele>145.5</ele>
        <time>2019-08-08T15:54:02Z</time>
      </trkpt>
      <trkpt lat="48.58006" lon="7.64703">
        <ele>145.7</ele>
        <time>2019-08-08T15:54:03Z</time>
      </trkpt>
      <trkpt lat="48.58007" lon="7.64694">
        <ele>145.8</ele>
        <time>2019-08-08T15:54:04Z</time>
      </trkpt>
      <trkpt lat="48.58007" lon="7.64687">
        <ele>145.9</ele>
        <time>2019-08-08T15:54:05Z</time>
      </trkpt>
      <trkpt lat="48.58008" lon="7.6468">
        <ele>146</ele>
        <time>2019-08-08T15:54:06Z</time>
      </trkpt>
      <trkpt lat="48.58009" lon="7.64676">
        <ele>146</ele>
        <time>2019-08-08T15:54:07Z</time>
      </trkpt>
      <trkpt lat="48.5801" lon="7.64671">
        <ele>146.1</ele>
        <time>2019-08-08T15:54:08Z</time>
      </trkpt>
      <trkpt lat="48.5801" lon="7.64665">
        <ele>146.2</ele>
        <time>2019-08-08T15:54:09Z</time>
      </trkpt>
      <trkpt lat="48.5801" lon="7.6466">
        <ele>146.2</ele>
        <time>2019-08-08T15:54:10Z</time>
      </trkpt>
      <trkpt lat="48.5801" lon="7.64653">
        <ele>146.3</ele>
        <time>2019-08-08T15:54:11Z</time>
      </trkpt>
      <trkpt lat="48.58011" lon="7.64646">
        <ele>146.4</ele>
        <time>2019-08-08T15:54:13Z</time>
      </trkpt>
      <trkpt lat="48.58011" lon="7.64641">
        <ele>146.5</ele>
        <time>2019-08-08T15:54:14Z</time>
      </trkpt>
      <trkpt lat="48.58012" lon="7.64637">
        <ele>146.5</ele>
        <time>2019-08-08T15:54:15Z</time>
      </trkpt>
      <trkpt lat="48.58013" lon="7.64631">
        <ele>146.6</ele>
        <time>2019-08-08T15:54:16Z</time>
      </trkpt>
      <trkpt lat="48.58014" lon="7.64623">
        <ele>146.6</ele>
        <time>2019-08-08T15:54:17Z</time>
      </trkpt>
      <trkpt lat="48.58015" lon="7.64616">
        <ele>146.7</ele>
        <time>2019-08-08T15:54:18Z</time>
      </trkpt>
      <trkpt lat="48.58017" lon="7.64609">
        <ele>146.7</ele>
        <time>2019-08-08T15:54:19Z</time>
      </trkpt>
      <trkpt lat="48.58018" lon="7.64604">
        <ele>146.7</ele>
        <time>2019-08-08T15:54:20Z</time>
      </trkpt>
      <trkpt lat="48.58019" lon="7.64598">
        <ele>146.7</ele>
        <time>2019-08-08T15:54:21Z</time>
      </trkpt>
      <trkpt lat="48.5802" lon="7.64591">
        <ele>146.7</ele>
        <time>2019-08-08T15:54:22Z</time>
      </trkpt>
      <trkpt lat="48.58021" lon="7.64584">
        <ele>146.8</ele>
        <time>2019-08-08T15:54:23Z</time>
      </trkpt>
      <trkpt lat="48.5802" lon="7.64579">
        <ele>146.8</ele>
        <time>2019-08-08T15:54:24Z</time>
      </trkpt>
      <trkpt lat="48.58021" lon="7.64573">
        <ele>146.8</ele>
        <time>2019-08-08T15:54:25Z</time>
      </trkpt>
      <trkpt lat="48.58021" lon="7.64568">
        <ele>146.8</ele>
        <time>2019-08-08T15:54:26Z</time>
      </trkpt>
      <trkpt lat="48.58022" lon="7.64561">
        <ele>146.8</ele>
        <time>2019-08-08T15:54:27Z</time>
      </trkpt>
      <trkpt lat="48.58022" lon="7.64554">
        <ele>146.8</ele>
        <time>2019-08-08T15:54:28Z</time>
      </trkpt>
      <trkpt lat="48.58024" lon="7.64547">
        <ele>146.8</ele>
        <time>2019-08-08T15:54:29Z</time>
      </trkpt>
      <trkpt lat="48.58025" lon="7.6454">
        <ele>146.8</ele>
        <time>2019-08-08T15:54:30Z</time>
      </trkpt>
      <trkpt lat="48.58026" lon="7.64533">
        <ele>146.8</ele>
        <time>2019-08-08T15:54:31Z</time>
      </trkpt>
      <trkpt lat="48.58026" lon="7.64526">
        <ele>146.8</ele>
        <time>2019-08-08T15:54:32Z</time>
      </trkpt>
      <trkpt lat="48.58027" lon="7.6452">
        <ele>146.8</ele>
        <time>2019-08-08T15:54:33Z</time>
      </trkpt>
      <trkpt lat="48.58027" lon="7.64514">
        <ele>146.8</ele>
        <time>2019-08-08T15:54:34Z</time>
      </trkpt>
      <trkpt lat="48.58026" lon="7.6451">
        <ele>146.8</ele>
        <time>2019-08-08T15:54:35Z</time>
      </trkpt>
      <trkpt lat="48.58026" lon="7.64506">
        <ele>146.8</ele>
        <time>2019-08-08T15:54:36Z</time>
      </trkpt>
      <trkpt lat="48.58027" lon="7.64501">
        <ele>146.8</ele>
        <time>2019-08-08T15:54:37Z</time>
      </trkpt>
      <trkpt lat="48.58027" lon="7.64494">
        <ele>146.8</ele>
        <time>2019-08-08T15:54:38Z</time>
      </trkpt>
      <trkpt lat="48.58027" lon="7.64488">
        <ele>146.8</ele>
        <time>2019-08-08T15:54:39Z</time>
      </trkpt>
      <trkpt lat="48.58027" lon="7.64482">
        <ele>146.8</ele>
        <time>2019-08-08T15:54:40Z</time>
      </trkpt>
      <trkpt lat="48.58027" lon="7.64476">
        <ele>146.8</ele>
        <time>2019-08-08T15:54:41Z</time>
      </trkpt>
      <trkpt lat="48.58028" lon="7.6447">
        <ele>146.8</ele>
        <time>2019-08-08T15:54:42Z</time>
      </trkpt>
      <trkpt lat="48.58028" lon="7.64465">
        <ele>146.8</ele>
        <time>2019-08-08T15:54:43Z</time>
      </trkpt>
      <trkpt lat="48.58029" lon="7.64459">
        <ele>146.8</ele>
        <time>2019-08-08T15:54:44Z</time>
      </trkpt>
      <trkpt lat="48.58031" lon="7.64452">
        <ele>146.8</ele>
        <time>2019-08-08T15:54:45Z</time>
      </trkpt>
      <trkpt lat="48.58032" lon="7.64445">
        <ele>146.8</ele>
        <time>2019-08-08T15:54:46Z</time>
      </trkpt>
      <trkpt lat="48.58033" lon="7.64438">
        <ele>146.8</ele>
        <time>2019-08-08T15:54:47Z</time>
      </trkpt>
      <trkpt lat="48.58034" lon="7.64431">
        <ele>146.8</ele>
        <time>2019-08-08T15:54:48Z</time>
      </trkpt>
      <trkpt lat="48.58035" lon="7.64423">
        <ele>146.8</ele>
        <time>2019-08-08T15:54:49Z</time>
      </trkpt>
      <trkpt lat="48.58036" lon="7.64416">
        <ele>146.8</ele>
        <time>2019-08-08T15:54:50Z</time>
      </trkpt>
      <trkpt lat="48.58036" lon="7.6441">
        <ele>146.8</ele>
        <time>2019-08-08T15:54:51Z</time>
      </trkpt>
      <trkpt lat="48.58037" lon="7.64402">
        <ele>146.8</ele>
        <time>2019-08-08T15:54:52Z</time>
      </trkpt>
      <trkpt lat="48.58038" lon="7.64395">
        <ele>146.8</ele>
        <time>2019-08-08T15:54:53Z</time>
      </trkpt>
      <trkpt lat="48.58039" lon="7.64386">
        <ele>146.8</ele>
        <time>2019-08-08T15:54:54Z</time>
      </trkpt>
      <trkpt lat="48.58039" lon="7.6438">
        <ele>146.8</ele>
        <time>2019-08-08T15:54:55Z</time>
      </trkpt>
      <trkpt lat="48.58038" lon="7.64374">
        <ele>146.8</ele>
        <time>2019-08-08T15:54:56Z</time>
      </trkpt>
      <trkpt lat="48.58039" lon="7.64366">
        <ele>146.8</ele>
        <time>2019-08-08T15:54:57Z</time>
      </trkpt>
      <trkpt lat="48.58038" lon="7.64358">
        <ele>146.8</ele>
        <time>2019-08-08T15:54:58Z</time>
      </trkpt>
      <trkpt lat="48.58039" lon="7.64349">
        <ele>146.8</ele>
        <time>2019-08-08T15:54:59Z</time>
      </trkpt>
      <trkpt lat="48.5804" lon="7.64338">
        <ele>146.8</ele>
        <time>2019-08-08T15:55:00Z</time>
      </trkpt>
      <trkpt lat="48.5804" lon="7.64329">
        <ele>146.8</ele>
        <time>2019-08-08T15:55:01Z</time>
      </trkpt>
      <trkpt lat="48.58041" lon="7.6432">
        <ele>146.8</ele>
        <time>2019-08-08T15:55:02Z</time>
      </trkpt>
      <trkpt lat="48.5804" lon="7.64313">
        <ele>146.8</ele>
        <time>2019-08-08T15:55:03Z</time>
      </trkpt>
      <trkpt lat="48.58041" lon="7.64306">
        <ele>146.8</ele>
        <time>2019-08-08T15:55:04Z</time>
      </trkpt>
      <trkpt lat="48.58042" lon="7.64296">
        <ele>146.8</ele>
        <time>2019-08-08T15:55:05Z</time>
      </trkpt>
      <trkpt lat="48.58043" lon="7.64288">
        <ele>146.8</ele>
        <time>2019-08-08T15:55:06Z</time>
      </trkpt>
      <trkpt lat="48.58044" lon="7.6428">
        <ele>146.9</ele>
        <time>2019-08-08T15:55:07Z</time>
      </trkpt>
      <trkpt lat="48.58044" lon="7.64273">
        <ele>146.9</ele>
        <time>2019-08-08T15:55:08Z</time>
      </trkpt>
      <trkpt lat="48.58045" lon="7.64265">
        <ele>146.9</ele>
        <time>2019-08-08T15:55:09Z</time>
      </trkpt>
      <trkpt lat="48.58045" lon="7.64258">
        <ele>146.9</ele>
        <time>2019-08-08T15:55:10Z</time>
      </trkpt>
      <trkpt lat="48.58045" lon="7.64251">
        <ele>146.9</ele>
        <time>2019-08-08T15:55:11Z</time>
      </trkpt>
      <trkpt lat="48.58044" lon="7.64244">
        <ele>146.9</ele>
        <time>2019-08-08T15:55:12Z</time>
      </trkpt>
      <trkpt lat="48.58044" lon="7.64237">
        <ele>146.9</ele>
        <time>2019-08-08T15:55:13Z</time>
      </trkpt>
      <trkpt lat="48.58044" lon="7.64229">
        <ele>147</ele>
        <time>2019-08-08T15:55:14Z</time>
      </trkpt>
      <trkpt lat="48.58044" lon="7.64221">
        <ele>147</ele>
        <time>2019-08-08T15:55:15Z</time>
      </trkpt>
      <trkpt lat="48.58045" lon="7.64214">
        <ele>147</ele>
        <time>2019-08-08T15:55:16Z</time>
      </trkpt>
      <trkpt lat="48.58047" lon="7.64207">
        <ele>147</ele>
        <time>2019-08-08T15:55:17Z</time>
      </trkpt>
      <trkpt lat="48.58048" lon="7.64198">
        <ele>147</ele>
        <time>2019-08-08T15:55:18Z</time>
      </trkpt>
      <trkpt lat="48.58049" lon="7.64188">
        <ele>147</ele>
        <time>2019-08-08T15:55:19Z</time>
      </trkpt>
      <trkpt lat="48.5805" lon="7.6418">
        <ele>147</ele>
        <time>2019-08-08T15:55:20Z</time>
      </trkpt>
      <trkpt lat="48.58051" lon="7.64172">
        <ele>147</ele>
        <time>2019-08-08T15:55:21Z</time>
      </trkpt>
      <trkpt lat="48.58051" lon="7.64166">
        <ele>147</ele>
        <time>2019-08-08T15:55:22Z</time>
      </trkpt>
      <trkpt lat="48.58051" lon="7.64161">
        <ele>147</ele>
        <time>2019-08-08T15:55:23Z</time>
      </trkpt>
      <trkpt lat="48.58051" lon="7.64155">
        <ele>147</ele>
        <time>2019-08-08T15:55:24Z</time>
      </trkpt>
      <trkpt lat="48.58049" lon="7.64148">
        <ele>147</ele>
        <time>2019-08-08T15:55:25Z</time>
      </trkpt>
      <trkpt lat="48.58049" lon="7.64142">
        <ele>147</ele>
        <time>2019-08-08T15:55:26Z</time>
      </trkpt>
      <trkpt lat="48.58049" lon="7.64135">
        <ele>147</ele>
        <time>2019-08-08T15:55:27Z</time>
      </trkpt>
      <trkpt lat="48.5805" lon="7.6413">
        <ele>147</ele>
        <time>2019-08-08T15:55:28Z</time>
      </trkpt>
      <trkpt lat="48.58051" lon="7.64123">
        <ele>147</ele>
        <time>2019-08-08T15:55:29Z</time>
      </trkpt>
      <trkpt lat="48.58051" lon="7.64116">
        <ele>147</ele>
        <time>2019-08-08T15:55:30Z</time>
      </trkpt>
      <trkpt lat="48.58051" lon="7.64108">
        <ele>147</ele>
        <time>2019-08-08T15:55:31Z</time>
      </trkpt>
      <trkpt lat="48.5805" lon="7.641">
        <ele>147.1</ele>
        <time>2019-08-08T15:55:32Z</time>
      </trkpt>
      <trkpt lat="48.58049" lon="7.64092">
        <ele>147.1</ele>
        <time>2019-08-08T15:55:33Z</time>
      </trkpt>
      <trkpt lat="48.58048" lon="7.64082">
        <ele>147.1</ele>
        <time>2019-08-08T15:55:34Z</time>
      </trkpt>
      <trkpt lat="48.58047" lon="7.64072">
        <ele>147.1</ele>
        <time>2019-08-08T15:55:35Z</time>
      </trkpt>
      <trkpt lat="48.58047" lon="7.64061">
        <ele>147.1</ele>
        <time>2019-08-08T15:55:36Z</time>
      </trkpt>
      <trkpt lat="48.58048" lon="7.6405">
        <ele>147.1</ele>
        <time>2019-08-08T15:55:37Z</time>
      </trkpt>
      <trkpt lat="48.58048" lon="7.6404">
        <ele>147.1</ele>
        <time>2019-08-08T15:55:38Z</time>
      </trkpt>
      <trkpt lat="48.58049" lon="7.64032">
        <ele>147.1</ele>
        <time>2019-08-08T15:55:39Z</time>
      </trkpt>
      <trkpt lat="48.58048" lon="7.64023">
        <ele>147.1</ele>
        <time>2019-08-08T15:55:40Z</time>
      </trkpt>
      <trkpt lat="48.58047" lon="7.64014">
        <ele>147</ele>
        <time>2019-08-08T15:55:41Z</time>
      </trkpt>
      <trkpt lat="48.58046" lon="7.64008">
        <ele>147</ele>
        <time>2019-08-08T15:55:42Z</time>
      </trkpt>
      <trkpt lat="48.58044" lon="7.64">
        <ele>147</ele>
        <time>2019-08-08T15:55:43Z</time>
      </trkpt>
      <trkpt lat="48.58043" lon="7.63995">
        <ele>147</ele>
        <time>2019-08-08T15:55:44Z</time>
      </trkpt>
      <trkpt lat="48.58043" lon="7.63989">
        <ele>147</ele>
        <time>2019-08-08T15:55:45Z</time>
      </trkpt>
      <trkpt lat="48.58042" lon="7.63983">
        <ele>147</ele>
        <time>2019-08-08T15:55:46Z</time>
      </trkpt>
      <trkpt lat="48.58042" lon="7.63977">
        <ele>147</ele>
        <time>2019-08-08T15:55:47Z</time>
      </trkpt>
      <trkpt lat="48.58041" lon="7.6397">
        <ele>147</ele>
        <time>2019-08-08T15:55:48Z</time>
      </trkpt>
      <trkpt lat="48.58041" lon="7.63962">
        <ele>147</ele>
        <time>2019-08-08T15:55:49Z</time>
      </trkpt>
      <trkpt lat="48.58041" lon="7.63955">
        <ele>147</ele>
        <time>2019-08-08T15:55:50Z</time>
      </trkpt>
      <trkpt lat="48.58042" lon="7.63946">
        <ele>147</ele>
        <time>2019-08-08T15:55:51Z</time>
      </trkpt>
      <trkpt lat="48.58043" lon="7.63937">
        <ele>147</ele>
        <time>2019-08-08T15:55:52Z</time>
      </trkpt>
      <trkpt lat="48.58043" lon="7.63927">
        <ele>147</ele>
        <time>2019-08-08T15:55:53Z</time>
      </trkpt>
      <trkpt lat="48.58044" lon="7.63918">
        <ele>147</ele>
        <time>2019-08-08T15:55:54Z</time>
      </trkpt>
      <trkpt lat="48.58044" lon="7.63912">
        <ele>147</ele>
        <time>2019-08-08T15:55:55Z</time>
      </trkpt>
      <trkpt lat="48.58044" lon="7.63906">
        <ele>147</ele>
        <time>2019-08-08T15:55:56Z</time>
      </trkpt>
      <trkpt lat="48.58044" lon="7.639">
        <ele>147</ele>
        <time>2019-08-08T15:55:57Z</time>
      </trkpt>
      <trkpt lat="48.58043" lon="7.63894">
        <ele>147</ele>
        <time>2019-08-08T15:55:58Z</time>
      </trkpt>
      <trkpt lat="48.58043" lon="7.63886">
        <ele>147</ele>
        <time>2019-08-08T15:55:59Z</time>
      </trkpt>
      <trkpt lat="48.58043" lon="7.63878">
        <ele>147</ele>
        <time>2019-08-08T15:56:00Z</time>
      </trkpt>
      <trkpt lat="48.58044" lon="7.63867">
        <ele>147</ele>
        <time>2019-08-08T15:56:01Z</time>
      </trkpt>
      <trkpt lat="48.58044" lon="7.63858">
        <ele>147</ele>
        <time>2019-08-08T15:56:02Z</time>
      </trkpt>
      <trkpt lat="48.58045" lon="7.63849">
        <ele>147</ele>
        <time>2019-08-08T15:56:03Z</time>
      </trkpt>
      <trkpt lat="48.58046" lon="7.6384">
        <ele>147</ele>
        <time>2019-08-08T15:56:04Z</time>
      </trkpt>
      <trkpt lat="48.58045" lon="7.63832">
        <ele>147</ele>
        <time>2019-08-08T15:56:05Z</time>
      </trkpt>
      <trkpt lat="48.58044" lon="7.63824">
        <ele>147</ele>
        <time>2019-08-08T15:56:06Z</time>
      </trkpt>
      <trkpt lat="48.58044" lon="7.63816">
        <ele>147</ele>
        <time>2019-08-08T15:56:07Z</time>
      </trkpt>
      <trkpt lat="48.58043" lon="7.63811">
        <ele>147</ele>
        <time>2019-08-08T15:56:08Z</time>
      </trkpt>
      <trkpt lat="48.58042" lon="7.63803">
        <ele>147</ele>
        <time>2019-08-08T15:56:09Z</time>
      </trkpt>
      <trkpt lat="48.58041" lon="7.63794">
        <ele>147</ele>
        <time>2019-08-08T15:56:10Z</time>
      </trkpt>
      <trkpt lat="48.5804" lon="7.63786">
        <ele>147</ele>
        <time>2019-08-08T15:56:11Z</time>
      </trkpt>
      <trkpt lat="48.5804" lon="7.63779">
        <ele>147</ele>
        <time>2019-08-08T15:56:12Z</time>
      </trkpt>
      <trkpt lat="48.58039" lon="7.63771">
        <ele>147</ele>
        <time>2019-08-08T15:56:13Z</time>
      </trkpt>
      <trkpt lat="48.58039" lon="7.63767">
        <ele>147</ele>
        <time>2019-08-08T15:56:14Z</time>
      </trkpt>
      <trkpt lat="48.58038" lon="7.6376">
        <ele>147</ele>
        <time>2019-08-08T15:56:15Z</time>
      </trkpt>
      <trkpt lat="48.58038" lon="7.63753">
        <ele>147</ele>
        <time>2019-08-08T15:56:16Z</time>
      </trkpt>
      <trkpt lat="48.58038" lon="7.63743">
        <ele>147</ele>
        <time>2019-08-08T15:56:17Z</time>
      </trkpt>
      <trkpt lat="48.58039" lon="7.63733">
        <ele>147</ele>
        <time>2019-08-08T15:56:18Z</time>
      </trkpt>
      <trkpt lat="48.58039" lon="7.63724">
        <ele>147</ele>
        <time>2019-08-08T15:56:19Z</time>
      </trkpt>
      <trkpt lat="48.58039" lon="7.63716">
        <ele>147</ele>
        <time>2019-08-08T15:56:20Z</time>
      </trkpt>
      <trkpt lat="48.5804" lon="7.63709">
        <ele>147</ele>
        <time>2019-08-08T15:56:21Z</time>
      </trkpt>
      <trkpt lat="48.5804" lon="7.63702">
        <ele>147</ele>
        <time>2019-08-08T15:56:22Z</time>
      </trkpt>
      <trkpt lat="48.5804" lon="7.63695">
        <ele>147</ele>
        <time>2019-08-08T15:56:23Z</time>
      </trkpt>
      <trkpt lat="48.58039" lon="7.63687">
        <ele>147</ele>
        <time>2019-08-08T15:56:24Z</time>
      </trkpt>
      <trkpt lat="48.58038" lon="7.6368">
        <ele>147</ele>
        <time>2019-08-08T15:56:25Z</time>
      </trkpt>
      <trkpt lat="48.58036" lon="7.6367">
        <ele>147</ele>
        <time>2019-08-08T15:56:26Z</time>
      </trkpt>
      <trkpt lat="48.58035" lon="7.63661">
        <ele>147</ele>
        <time>2019-08-08T15:56:27Z</time>
      </trkpt>
      <trkpt lat="48.58034" lon="7.63654">
        <ele>147</ele>
        <time>2019-08-08T15:56:28Z</time>
      </trkpt>
      <trkpt lat="48.58034" lon="7.63645">
        <ele>147</ele>
        <time>2019-08-08T15:56:29Z</time>
      </trkpt>
      <trkpt lat="48.58034" lon="7.63636">
        <ele>147</ele>
        <time>2019-08-08T15:56:30Z</time>
      </trkpt>
      <trkpt lat="48.58033" lon="7.63627">
        <ele>147</ele>
        <time>2019-08-08T15:56:31Z</time>
      </trkpt>
      <trkpt lat="48.58033" lon="7.63618">
        <ele>147</ele>
        <time>2019-08-08T15:56:32Z</time>
      </trkpt>
      <trkpt lat="48.58033" lon="7.63609">
        <ele>147</ele>
        <time>2019-08-08T15:56:33Z</time>
      </trkpt>
      <trkpt lat="48.58033" lon="7.636">
        <ele>147</ele>
        <time>2019-08-08T15:56:34Z</time>
      </trkpt>
      <trkpt lat="48.58033" lon="7.6359">
        <ele>147</ele>
        <time>2019-08-08T15:56:35Z</time>
      </trkpt>
      <trkpt lat="48.58032" lon="7.63582">
        <ele>147</ele>
        <time>2019-08-08T15:56:36Z</time>
      </trkpt>
      <trkpt lat="48.58033" lon="7.63574">
        <ele>147</ele>
        <time>2019-08-08T15:56:37Z</time>
      </trkpt>
      <trkpt lat="48.58034" lon="7.63565">
        <ele>147</ele>
        <time>2019-08-08T15:56:38Z</time>
      </trkpt>
      <trkpt lat="48.58035" lon="7.63557">
        <ele>147</ele>
        <time>2019-08-08T15:56:39Z</time>
      </trkpt>
      <trkpt lat="48.58035" lon="7.6355">
        <ele>147</ele>
        <time>2019-08-08T15:56:40Z</time>
      </trkpt>
      <trkpt lat="48.58035" lon="7.63543">
        <ele>147</ele>
        <time>2019-08-08T15:56:41Z</time>
      </trkpt>
      <trkpt lat="48.58035" lon="7.63538">
        <ele>147</ele>
        <time>2019-08-08T15:56:42Z</time>
      </trkpt>
      <trkpt lat="48.58035" lon="7.63531">
        <ele>147</ele>
        <time>2019-08-08T15:56:43Z</time>
      </trkpt>
      <trkpt lat="48.58036" lon="7.63524">
        <ele>147</ele>
        <time>2019-08-08T15:56:44Z</time>
      </trkpt>
      <trkpt lat="48.58036" lon="7.63518">
        <ele>147</ele>
        <time>2019-08-08T15:56:45Z</time>
      </trkpt>
      <trkpt lat="48.58037" lon="7.63512">
        <ele>147</ele>
        <time>2019-08-08T15:56:46Z</time>
      </trkpt>
      <trkpt lat="48.5804" lon="7.63506">
        <ele>147</ele>
        <time>2019-08-08T15:56:47Z</time>
      </trkpt>
      <trkpt lat="48.58042" lon="7.63499">
        <ele>147</ele>
        <time>2019-08-08T15:56:48Z</time>
      </trkpt>
      <trkpt lat="48.58044" lon="7.63492">
        <ele>147</ele>
        <time>2019-08-08T15:56:49Z</time>
      </trkpt>
      <trkpt lat="48.58047" lon="7.63486">
        <ele>147</ele>
        <time>2019-08-08T15:56:50Z</time>
      </trkpt>
      <trkpt lat="48.58048" lon="7.63481">
        <ele>147</ele>
        <time>2019-08-08T15:56:51Z</time>
      </trkpt>
      <trkpt lat="48.58051" lon="7.63474">
        <ele>147</ele>
        <time>2019-08-08T15:56:52Z</time>
      </trkpt>
      <trkpt lat="48.58054" lon="7.63468">
        <ele>147</ele>
        <time>2019-08-08T15:56:53Z</time>
      </trkpt>
      <trkpt lat="48.58057" lon="7.63465">
        <ele>147</ele>
        <time>2019-08-08T15:56:54Z</time>
      </trkpt>
      <trkpt lat="48.58059" lon="7.63462">
        <ele>147</ele>
        <time>2019-08-08T15:56:55Z</time>
      </trkpt>
      <trkpt lat="48.58061" lon="7.63459">
        <ele>147</ele>
        <time>2019-08-08T15:56:56Z</time>
      </trkpt>
      <trkpt lat="48.58064" lon="7.63455">
        <ele>147</ele>
        <time>2019-08-08T15:56:57Z</time>
      </trkpt>
      <trkpt lat="48.58066" lon="7.6345">
        <ele>147</ele>
        <time>2019-08-08T15:56:58Z</time>
      </trkpt>
      <trkpt lat="48.58069" lon="7.63444">
        <ele>147</ele>
        <time>2019-08-08T15:56:59Z</time>
      </trkpt>
      <trkpt lat="48.58073" lon="7.63438">
        <ele>147</ele>
        <time>2019-08-08T15:57:00Z</time>
      </trkpt>
      <trkpt lat="48.58076" lon="7.63431">
        <ele>147</ele>
        <time>2019-08-08T15:57:01Z</time>
      </trkpt>
      <trkpt lat="48.58079" lon="7.63427">
        <ele>147</ele>
        <time>2019-08-08T15:57:02Z</time>
      </trkpt>
      <trkpt lat="48.58082" lon="7.63421">
        <ele>147</ele>
        <time>2019-08-08T15:57:03Z</time>
      </trkpt>
      <trkpt lat="48.58086" lon="7.63413">
        <ele>147</ele>
        <time>2019-08-08T15:57:04Z</time>
      </trkpt>
      <trkpt lat="48.58089" lon="7.63406">
        <ele>147</ele>
        <time>2019-08-08T15:57:05Z</time>
      </trkpt>
      <trkpt lat="48.5809" lon="7.63396">
        <ele>147</ele>
        <time>2019-08-08T15:57:06Z</time>
      </trkpt>
      <trkpt lat="48.5809" lon="7.63385">
        <ele>147</ele>
        <time>2019-08-08T15:57:07Z</time>
      </trkpt>
      <trkpt lat="48.58089" lon="7.63374">
        <ele>147</ele>
        <time>2019-08-08T15:57:08Z</time>
      </trkpt>
      <trkpt lat="48.58088" lon="7.63362">
        <ele>147</ele>
        <time>2019-08-08T15:57:09Z</time>
      </trkpt>
      <trkpt lat="48.58086" lon="7.63351">
        <ele>147</ele>
        <time>2019-08-08T15:57:10Z</time>
      </trkpt>
      <trkpt lat="48.58084" lon="7.63342">
        <ele>147</ele>
        <time>2019-08-08T15:57:11Z</time>
      </trkpt>
      <trkpt lat="48.58082" lon="7.63333">
        <ele>147</ele>
        <time>2019-08-08T15:57:12Z</time>
      </trkpt>
      <trkpt lat="48.5808" lon="7.63325">
        <ele>147</ele>
        <time>2019-08-08T15:57:13Z</time>
      </trkpt>
      <trkpt lat="48.58077" lon="7.63318">
        <ele>147</ele>
        <time>2019-08-08T15:57:14Z</time>
      </trkpt>
      <trkpt lat="48.58075" lon="7.63311">
        <ele>147</ele>
        <time>2019-08-08T15:57:15Z</time>
      </trkpt>
      <trkpt lat="48.58072" lon="7.63308">
        <ele>147</ele>
        <time>2019-08-08T15:57:16Z</time>
      </trkpt>
      <trkpt lat="48.58069" lon="7.63303">
        <ele>147</ele>
        <time>2019-08-08T15:57:17Z</time>
      </trkpt>
      <trkpt lat="48.58064" lon="7.63299">
        <ele>147</ele>
        <time>2019-08-08T15:57:18Z</time>
      </trkpt>
      <trkpt lat="48.58059" lon="7.63296">
        <ele>147</ele>
        <time>2019-08-08T15:57:19Z</time>
      </trkpt>
      <trkpt lat="48.58054" lon="7.63291">
        <ele>147</ele>
        <time>2019-08-08T15:57:20Z</time>
      </trkpt>
      <trkpt lat="48.58049" lon="7.63287">
        <ele>147</ele>
        <time>2019-08-08T15:57:21Z</time>
      </trkpt>
      <trkpt lat="48.58044" lon="7.63284">
        <ele>147</ele>
        <time>2019-08-08T15:57:22Z</time>
      </trkpt>
      <trkpt lat="48.5804" lon="7.63281">
        <ele>147</ele>
        <time>2019-08-08T15:57:23Z</time>
      </trkpt>
      <trkpt lat="48.58036" lon="7.63275">
        <ele>147</ele>
        <time>2019-08-08T15:57:24Z</time>
      </trkpt>
      <trkpt lat="48.58033" lon="7.63268">
        <ele>147</ele>
        <time>2019-08-08T15:57:25Z</time>
      </trkpt>
      <trkpt lat="48.5803" lon="7.63263">
        <ele>147</ele>
        <time>2019-08-08T15:57:26Z</time>
      </trkpt>
      <trkpt lat="48.58026" lon="7.63258">
        <ele>147</ele>
        <time>2019-08-08T15:57:27Z</time>
      </trkpt>
      <trkpt lat="48.58022" lon="7.63254">
        <ele>147</ele>
        <time>2019-08-08T15:57:28Z</time>
      </trkpt>
      <trkpt lat="48.58018" lon="7.63249">
        <ele>147</ele>
        <time>2019-08-08T15:57:29Z</time>
      </trkpt>
      <trkpt lat="48.58014" lon="7.63245">
        <ele>147</ele>
        <time>2019-08-08T15:57:30Z</time>
      </trkpt>
      <trkpt lat="48.58009" lon="7.6324">
        <ele>147</ele>
        <time>2019-08-08T15:57:31Z</time>
      </trkpt>
      <trkpt lat="48.58005" lon="7.63236">
        <ele>147</ele>
        <time>2019-08-08T15:57:32Z</time>
      </trkpt>
      <trkpt lat="48.58001" lon="7.63233">
        <ele>147</ele>
        <time>2019-08-08T15:57:33Z</time>
      </trkpt>
      <trkpt lat="48.57995" lon="7.63227">
        <ele>147</ele>
        <time>2019-08-08T15:57:34Z</time>
      </trkpt>
      <trkpt lat="48.5799" lon="7.63223">
        <ele>147</ele>
        <time>2019-08-08T15:57:35Z</time>
      </trkpt>
      <trkpt lat="48.57985" lon="7.6322">
        <ele>146.8</ele>
        <time>2019-08-08T15:57:36Z</time>
      </trkpt>
      <trkpt lat="48.57981" lon="7.63217">
        <ele>146.7</ele>
        <time>2019-08-08T15:57:37Z</time>
      </trkpt>
      <trkpt lat="48.57976" lon="7.63215">
        <ele>146.6</ele>
        <time>2019-08-08T15:57:38Z</time>
      </trkpt>
      <trkpt lat="48.57971" lon="7.63211">
        <ele>146.4</ele>
        <time>2019-08-08T15:57:39Z</time>
      </trkpt>
      <trkpt lat="48.57967" lon="7.63206">
        <ele>146.3</ele>
        <time>2019-08-08T15:57:40Z</time>
      </trkpt>
      <trkpt lat="48.57962" lon="7.63201">
        <ele>146.1</ele>
        <time>2019-08-08T15:57:41Z</time>
      </trkpt>
      <trkpt lat="48.57958" lon="7.63197">
        <ele>146</ele>
        <time>2019-08-08T15:57:42Z</time>
      </trkpt>
      <trkpt lat="48.57953" lon="7.63194">
        <ele>146</ele>
        <time>2019-08-08T15:57:43Z</time>
      </trkpt>
      <trkpt lat="48.57948" lon="7.63191">
        <ele>145.9</ele>
        <time>2019-08-08T15:57:44Z</time>
      </trkpt>
      <trkpt lat="48.57943" lon="7.63186">
        <ele>145.9</ele>
        <time>2019-08-08T15:57:45Z</time>
      </trkpt>
      <trkpt lat="48.5794" lon="7.63181">
        <ele>146</ele>
        <time>2019-08-08T15:57:46Z</time>
      </trkpt>
      <trkpt lat="48.57936" lon="7.63176">
        <ele>146</ele>
        <time>2019-08-08T15:57:47Z</time>
      </trkpt>
      <trkpt lat="48.57931" lon="7.6317">
        <ele>146.1</ele>
        <time>2019-08-08T15:57:48Z</time>
      </trkpt>
      <trkpt lat="48.57928" lon="7.63167">
        <ele>146.2</ele>
        <time>2019-08-08T15:57:49Z</time>
      </trkpt>
      <trkpt lat="48.57923" lon="7.63163">
        <ele>146.3</ele>
        <time>2019-08-08T15:57:50Z</time>
      </trkpt>
      <trkpt lat="48.57919" lon="7.6316">
        <ele>146.4</ele>
        <time>2019-08-08T15:57:51Z</time>
      </trkpt>
      <trkpt lat="48.57916" lon="7.63158">
        <ele>146.5</ele>
        <time>2019-08-08T15:57:52Z</time>
      </trkpt>
      <trkpt lat="48.57912" lon="7.63155">
        <ele>146.6</ele>
        <time>2019-08-08T15:57:53Z</time>
      </trkpt>
      <trkpt lat="48.57909" lon="7.63152">
        <ele>146.7</ele>
        <time>2019-08-08T15:57:54Z</time>
      </trkpt>
      <trkpt lat="48.57907" lon="7.6315">
        <ele>146.7</ele>
        <time>2019-08-08T15:57:55Z</time>
      </trkpt>
      <trkpt lat="48.57904" lon="7.63145">
        <ele>146.8</ele>
        <time>2019-08-08T15:57:56Z</time>
      </trkpt>
      <trkpt lat="48.57901" lon="7.63139">
        <ele>146.9</ele>
        <time>2019-08-08T15:57:57Z</time>
      </trkpt>
      <trkpt lat="48.57899" lon="7.63134">
        <ele>146.9</ele>
        <time>2019-08-08T15:57:58Z</time>
      </trkpt>
      <trkpt lat="48.57895" lon="7.63128">
        <ele>146.9</ele>
        <time>2019-08-08T15:57:59Z</time>
      </trkpt>
      <trkpt lat="48.57892" lon="7.63123">
        <ele>146.9</ele>
        <time>2019-08-08T15:58:00Z</time>
      </trkpt>
      <trkpt lat="48.57887" lon="7.63119">
        <ele>146.9</ele>
        <time>2019-08-08T15:58:01Z</time>
      </trkpt>
      <trkpt lat="48.57882" lon="7.63113">
        <ele>147</ele>
        <time>2019-08-08T15:58:02Z</time>
      </trkpt>
      <trkpt lat="48.57878" lon="7.63108">
        <ele>147</ele>
        <time>2019-08-08T15:58:03Z</time>
      </trkpt>
      <trkpt lat="48.57873" lon="7.63103">
        <ele>147</ele>
        <time>2019-08-08T15:58:04Z</time>
      </trkpt>
      <trkpt lat="48.57868" lon="7.63098">
        <ele>147</ele>
        <time>2019-08-08T15:58:05Z</time>
      </trkpt>
      <trkpt lat="48.57863" lon="7.63093">
        <ele>147</ele>
        <time>2019-08-08T15:58:06Z</time>
      </trkpt>
      <trkpt lat="48.57859" lon="7.63088">
        <ele>147</ele>
        <time>2019-08-08T15:58:07Z</time>
      </trkpt>
      <trkpt lat="48.57856" lon="7.63084">
        <ele>147</ele>
        <time>2019-08-08T15:58:08Z</time>
      </trkpt>
      <trkpt lat="48.57853" lon="7.63079">
        <ele>147</ele>
        <time>2019-08-08T15:58:09Z</time>
      </trkpt>
      <trkpt lat="48.5785" lon="7.63075">
        <ele>147</ele>
        <time>2019-08-08T15:58:10Z</time>
      </trkpt>
      <trkpt lat="48.57847" lon="7.63071">
        <ele>147</ele>
        <time>2019-08-08T15:58:11Z</time>
      </trkpt>
      <trkpt lat="48.57844" lon="7.63066">
        <ele>147</ele>
        <time>2019-08-08T15:58:12Z</time>
      </trkpt>
      <trkpt lat="48.57841" lon="7.63063">
        <ele>147</ele>
        <time>2019-08-08T15:58:13Z</time>
      </trkpt>
      <trkpt lat="48.57838" lon="7.63059">
        <ele>147</ele>
        <time>2019-08-08T15:58:14Z</time>
      </trkpt>
      <trkpt lat="48.57835" lon="7.63058">
        <ele>147</ele>
        <time>2019-08-08T15:58:15Z</time>
      </trkpt>
      <trkpt lat="48.57832" lon="7.63055">
        <ele>147</ele>
        <time>2019-08-08T15:58:16Z</time>
      </trkpt>
      <trkpt lat="48.57828" lon="7.63052">
        <ele>147</ele>
        <time>2019-08-08T15:58:17Z</time>
      </trkpt>
      <trkpt lat="48.57824" lon="7.63046">
        <ele>147</ele>
        <time>2019-08-08T15:58:18Z</time>
      </trkpt>
      <trkpt lat="48.57821" lon="7.6304">
        <ele>147</ele>
        <time>2019-08-08T15:58:19Z</time>
      </trkpt>
      <trkpt lat="48.57818" lon="7.63033">
        <ele>147</ele>
        <time>2019-08-08T15:58:20Z</time>
      </trkpt>
      <trkpt lat="48.57815" lon="7.63026">
        <ele>147</ele>
        <time>2019-08-08T15:58:21Z</time>
      </trkpt>
      <trkpt lat="48.57811" lon="7.63024">
        <ele>147</ele>
        <time>2019-08-08T15:58:22Z</time>
      </trkpt>
      <trkpt lat="48.57808" lon="7.63021">
        <ele>147</ele>
        <time>2019-08-08T15:58:23Z</time>
      </trkpt>
      <trkpt lat="48.57805" lon="7.63018">
        <ele>147</ele>
        <time>2019-08-08T15:58:24Z</time>
      </trkpt>
      <trkpt lat="48.57802" lon="7.63014">
        <ele>147</ele>
        <time>2019-08-08T15:58:25Z</time>
      </trkpt>
      <trkpt lat="48.57797" lon="7.63009">
        <ele>147</ele>
        <time>2019-08-08T15:58:26Z</time>
      </trkpt>
      <trkpt lat="48.57793" lon="7.63005">
        <ele>147</ele>
        <time>2019-08-08T15:58:27Z</time>
      </trkpt>
      <trkpt lat="48.57789" lon="7.63">
        <ele>147</ele>
        <time>2019-08-08T15:58:28Z</time>
      </trkpt>
      <trkpt lat="48.57785" lon="7.62996">
        <ele>146.9</ele>
        <time>2019-08-08T15:58:29Z</time>
      </trkpt>
      <trkpt lat="48.57782" lon="7.62992">
        <ele>146.9</ele>
        <time>2019-08-08T15:58:30Z</time>
      </trkpt>
      <trkpt lat="48.57777" lon="7.62988">
        <ele>146.9</ele>
        <time>2019-08-08T15:58:31Z</time>
      </trkpt>
      <trkpt lat="48.57772" lon="7.62983">
        <ele>146.9</ele>
        <time>2019-08-08T15:58:32Z</time>
      </trkpt>
      <trkpt lat="48.57769" lon="7.62979">
        <ele>146.9</ele>
        <time>2019-08-08T15:58:33Z</time>
      </trkpt>
      <trkpt lat="48.57765" lon="7.62975">
        <ele>146.9</ele>
        <time>2019-08-08T15:58:34Z</time>
      </trkpt>
      <trkpt lat="48.57759" lon="7.6297">
        <ele>146.9</ele>
        <time>2019-08-08T15:58:35Z</time>
      </trkpt>
      <trkpt lat="48.57754" lon="7.62966">
        <ele>146.9</ele>
        <time>2019-08-08T15:58:36Z</time>
      </trkpt>
      <trkpt lat="48.57749" lon="7.62962">
        <ele>146.9</ele>
        <time>2019-08-08T15:58:37Z</time>
      </trkpt>
      <trkpt lat="48.57743" lon="7.62958">
        <ele>146.9</ele>
        <time>2019-08-08T15:58:38Z</time>
      </trkpt>
      <trkpt lat="48.57739" lon="7.62955">
        <ele>146.9</ele>
        <time>2019-08-08T15:58:39Z</time>
      </trkpt>
      <trkpt lat="48.57734" lon="7.62951">
        <ele>146.9</ele>
        <time>2019-08-08T15:58:40Z</time>
      </trkpt>
      <trkpt lat="48.57731" lon="7.62945">
        <ele>146.9</ele>
        <time>2019-08-08T15:58:41Z</time>
      </trkpt>
      <trkpt lat="48.57727" lon="7.62941">
        <ele>146.9</ele>
        <time>2019-08-08T15:58:42Z</time>
      </trkpt>
      <trkpt lat="48.57722" lon="7.62938">
        <ele>146.9</ele>
        <time>2019-08-08T15:58:43Z</time>
      </trkpt>
      <trkpt lat="48.57718" lon="7.62935">
        <ele>146.9</ele>
        <time>2019-08-08T15:58:44Z</time>
      </trkpt>
      <trkpt lat="48.57714" lon="7.62932">
        <ele>146.9</ele>
        <time>2019-08-08T15:58:45Z</time>
      </trkpt>
      <trkpt lat="48.5771" lon="7.62931">
        <ele>146.9</ele>
        <time>2019-08-08T15:58:46Z</time>
      </trkpt>
      <trkpt lat="48.57707" lon="7.62928">
        <ele>146.9</ele>
        <time>2019-08-08T15:58:47Z</time>
      </trkpt>
      <trkpt lat="48.57703" lon="7.62925">
        <ele>146.9</ele>
        <time>2019-08-08T15:58:48Z</time>
      </trkpt>
      <trkpt lat="48.57699" lon="7.6292">
        <ele>146.9</ele>
        <time>2019-08-08T15:58:49Z</time>
      </trkpt>
      <trkpt lat="48.57694" lon="7.62916">
        <ele>146.9</ele>
        <time>2019-08-08T15:58:50Z</time>
      </trkpt>
      <trkpt lat="48.57689" lon="7.6291">
        <ele>146.9</ele>
        <time>2019-08-08T15:58:51Z</time>
      </trkpt>
      <trkpt lat="48.57685" lon="7.62906">
        <ele>146.9</ele>
        <time>2019-08-08T15:58:52Z</time>
      </trkpt>
      <trkpt lat="48.5768" lon="7.62902">
        <ele>146.9</ele>
        <time>2019-08-08T15:58:53Z</time>
      </trkpt>
      <trkpt lat="48.57675" lon="7.62896">
        <ele>146.9</ele>
        <time>2019-08-08T15:58:54Z</time>
      </trkpt>
      <trkpt lat="48.57671" lon="7.62891">
        <ele>146.9</ele>
        <time>2019-08-08T15:58:55Z</time>
      </trkpt>
      <trkpt lat="48.57668" lon="7.62887">
        <ele>147</ele>
        <time>2019-08-08T15:58:56Z</time>
      </trkpt>
      <trkpt lat="48.57664" lon="7.62882">
        <ele>147</ele>
        <time>2019-08-08T15:58:57Z</time>
      </trkpt>
      <trkpt lat="48.57659" lon="7.62878">
        <ele>147</ele>
        <time>2019-08-08T15:58:58Z</time>
      </trkpt>
      <trkpt lat="48.57655" lon="7.62874">
        <ele>147.1</ele>
        <time>2019-08-08T15:58:59Z</time>
      </trkpt>
      <trkpt lat="48.57653" lon="7.62871">
        <ele>147.1</ele>
        <time>2019-08-08T15:59:00Z</time>
      </trkpt>
      <trkpt lat="48.57651" lon="7.62869">
        <ele>147.2</ele>
        <time>2019-08-08T15:59:01Z</time>
      </trkpt>
      <trkpt lat="48.57646" lon="7.62869">
        <ele>147.2</ele>
        <time>2019-08-08T15:59:03Z</time>
      </trkpt>
      <trkpt lat="48.57643" lon="7.62869">
        <ele>147.3</ele>
        <time>2019-08-08T15:59:06Z</time>
      </trkpt>
      <trkpt lat="48.57639" lon="7.62868">
        <ele>147.5</ele>
        <time>2019-08-08T15:59:09Z</time>
      </trkpt>
      <trkpt lat="48.57635" lon="7.62866">
        <ele>147.6</ele>
        <time>2019-08-08T15:59:11Z</time>
      </trkpt>
      <trkpt lat="48.57633" lon="7.62861">
        <ele>147.7</ele>
        <time>2019-08-08T15:59:13Z</time>
      </trkpt>
      <trkpt lat="48.57628" lon="7.62857">
        <ele>147.8</ele>
        <time>2019-08-08T15:59:15Z</time>
      </trkpt>
      <trkpt lat="48.57625" lon="7.62854">
        <ele>147.8</ele>
        <time>2019-08-08T15:59:16Z</time>
      </trkpt>
      <trkpt lat="48.57622" lon="7.62851">
        <ele>147.8</ele>
        <time>2019-08-08T15:59:17Z</time>
      </trkpt>
      <trkpt lat="48.57618" lon="7.62848">
        <ele>147.8</ele>
        <time>2019-08-08T15:59:18Z</time>
      </trkpt>
      <trkpt lat="48.57615" lon="7.62845">
        <ele>147.9</ele>
        <time>2019-08-08T15:59:19Z</time>
      </trkpt>
      <trkpt lat="48.57612" lon="7.62842">
        <ele>147.9</ele>
        <time>2019-08-08T15:59:20Z</time>
      </trkpt>
      <trkpt lat="48.57608" lon="7.62839">
        <ele>147.9</ele>
        <time>2019-08-08T15:59:21Z</time>
      </trkpt>
      <trkpt lat="48.57605" lon="7.62837">
        <ele>147.9</ele>
        <time>2019-08-08T15:59:22Z</time>
      </trkpt>
      <trkpt lat="48.57601" lon="7.62834">
        <ele>147.9</ele>
        <time>2019-08-08T15:59:23Z</time>
      </trkpt>
      <trkpt lat="48.57597" lon="7.62831">
        <ele>147.9</ele>
        <time>2019-08-08T15:59:24Z</time>
      </trkpt>
      <trkpt lat="48.57594" lon="7.62828">
        <ele>147.9</ele>
        <time>2019-08-08T15:59:25Z</time>
      </trkpt>
      <trkpt lat="48.57592" lon="7.62824">
        <ele>147.9</ele>
        <time>2019-08-08T15:59:26Z</time>
      </trkpt>
      <trkpt lat="48.57588" lon="7.6282">
        <ele>147.9</ele>
        <time>2019-08-08T15:59:27Z</time>
      </trkpt>
      <trkpt lat="48.57585" lon="7.62815">
        <ele>147.9</ele>
        <time>2019-08-08T15:59:28Z</time>
      </trkpt>
      <trkpt lat="48.5758" lon="7.62809">
        <ele>147.9</ele>
        <time>2019-08-08T15:59:29Z</time>
      </trkpt>
      <trkpt lat="48.57577" lon="7.62805">
        <ele>147.9</ele>
        <time>2019-08-08T15:59:30Z</time>
      </trkpt>
      <trkpt lat="48.57573" lon="7.62802">
        <ele>147.9</ele>
        <time>2019-08-08T15:59:31Z</time>
      </trkpt>
      <trkpt lat="48.5757" lon="7.62798">
        <ele>147.9</ele>
        <time>2019-08-08T15:59:32Z</time>
      </trkpt>
      <trkpt lat="48.57566" lon="7.62795">
        <ele>147.9</ele>
        <time>2019-08-08T15:59:33Z</time>
      </trkpt>
      <trkpt lat="48.57562" lon="7.62793">
        <ele>147.9</ele>
        <time>2019-08-08T15:59:34Z</time>
      </trkpt>
      <trkpt lat="48.57558" lon="7.62791">
        <ele>147.9</ele>
        <time>2019-08-08T15:59:35Z</time>
      </trkpt>
      <trkpt lat="48.57555" lon="7.62788">
        <ele>148</ele>
        <time>2019-08-08T15:59:36Z</time>
      </trkpt>
      <trkpt lat="48.57553" lon="7.62785">
        <ele>148</ele>
        <time>2019-08-08T15:59:37Z</time>
      </trkpt>
      <trkpt lat="48.5755" lon="7.62782">
        <ele>148</ele>
        <time>2019-08-08T15:59:38Z</time>
      </trkpt>
      <trkpt lat="48.57547" lon="7.62777">
        <ele>148.1</ele>
        <time>2019-08-08T15:59:39Z</time>
      </trkpt>
      <trkpt lat="48.57545" lon="7.62773">
        <ele>148.2</ele>
        <time>2019-08-08T15:59:40Z</time>
      </trkpt>
      <trkpt lat="48.57543" lon="7.62769">
        <ele>148.2</ele>
        <time>2019-08-08T15:59:41Z</time>
      </trkpt>
      <trkpt lat="48.57541" lon="7.62765">
        <ele>148.3</ele>
        <time>2019-08-08T15:59:42Z</time>
      </trkpt>
      <trkpt lat="48.5754" lon="7.62759">
        <ele>148.4</ele>
        <time>2019-08-08T15:59:43Z</time>
      </trkpt>
      <trkpt lat="48.5754" lon="7.62754">
        <ele>148.5</ele>
        <time>2019-08-08T15:59:44Z</time>
      </trkpt>
      <trkpt lat="48.57538" lon="7.62746">
        <ele>148.6</ele>
        <time>2019-08-08T15:59:46Z</time>
      </trkpt>
      <trkpt lat="48.57537" lon="7.6274">
        <ele>148.7</ele>
        <time>2019-08-08T15:59:47Z</time>
      </trkpt>
      <trkpt lat="48.57536" lon="7.62733">
        <ele>148.8</ele>
        <time>2019-08-08T15:59:48Z</time>
      </trkpt>
      <trkpt lat="48.57535" lon="7.62728">
        <ele>148.8</ele>
        <time>2019-08-08T15:59:49Z</time>
      </trkpt>
      <trkpt lat="48.57533" lon="7.62723">
        <ele>148.9</ele>
        <time>2019-08-08T15:59:50Z</time>
      </trkpt>
      <trkpt lat="48.57532" lon="7.62717">
        <ele>148.9</ele>
        <time>2019-08-08T15:59:51Z</time>
      </trkpt>
      <trkpt lat="48.57531" lon="7.62713">
        <ele>148.9</ele>
        <time>2019-08-08T15:59:52Z</time>
      </trkpt>
      <trkpt lat="48.57529" lon="7.62709">
        <ele>149</ele>
        <time>2019-08-08T15:59:53Z</time>
      </trkpt>
      <trkpt lat="48.57527" lon="7.62705">
        <ele>149</ele>
        <time>2019-08-08T15:59:55Z</time>
      </trkpt>
      <trkpt lat="48.57524" lon="7.62697">
        <ele>149</ele>
        <time>2019-08-08T15:59:57Z</time>
      </trkpt>
      <trkpt lat="48.57521" lon="7.62693">
        <ele>149</ele>
        <time>2019-08-08T15:59:58Z</time>
      </trkpt>
      <trkpt lat="48.57518" lon="7.62691">
        <ele>149</ele>
        <time>2019-08-08T15:59:59Z</time>
      </trkpt>
      <trkpt lat="48.57513" lon="7.6269">
        <ele>149</ele>
        <time>2019-08-08T16:00:00Z</time>
      </trkpt>
      <trkpt lat="48.57508" lon="7.62689">
        <ele>149</ele>
        <time>2019-08-08T16:00:01Z</time>
      </trkpt>
      <trkpt lat="48.57502" lon="7.62689">
        <ele>149</ele>
        <time>2019-08-08T16:00:02Z</time>
      </trkpt>
      <trkpt lat="48.57498" lon="7.62688">
        <ele>149</ele>
        <time>2019-08-08T16:00:03Z</time>
      </trkpt>
      <trkpt lat="48.57492" lon="7.62686">
        <ele>149</ele>
        <time>2019-08-08T16:00:04Z</time>
      </trkpt>
      <trkpt lat="48.57487" lon="7.62684">
        <ele>149</ele>
        <time>2019-08-08T16:00:05Z</time>
      </trkpt>
      <trkpt lat="48.57481" lon="7.62679">
        <ele>149</ele>
        <time>2019-08-08T16:00:06Z</time>
      </trkpt>
      <trkpt lat="48.57476" lon="7.62676">
        <ele>149.1</ele>
        <time>2019-08-08T16:00:07Z</time>
      </trkpt>
      <trkpt lat="48.5747" lon="7.62673">
        <ele>149.1</ele>
        <time>2019-08-08T16:00:08Z</time>
      </trkpt>
      <trkpt lat="48.57466" lon="7.62672">
        <ele>149.1</ele>
        <time>2019-08-08T16:00:09Z</time>
      </trkpt>
      <trkpt lat="48.57461" lon="7.62669">
        <ele>149.1</ele>
        <time>2019-08-08T16:00:10Z</time>
      </trkpt>
      <trkpt lat="48.57455" lon="7.62665">
        <ele>149.1</ele>
        <time>2019-08-08T16:00:11Z</time>
      </trkpt>
      <trkpt lat="48.57451" lon="7.62663">
        <ele>149.1</ele>
        <time>2019-08-08T16:00:12Z</time>
      </trkpt>
      <trkpt lat="48.57447" lon="7.62662">
        <ele>149.1</ele>
        <time>2019-08-08T16:00:13Z</time>
      </trkpt>
      <trkpt lat="48.57442" lon="7.62661">
        <ele>149.2</ele>
        <time>2019-08-08T16:00:14Z</time>
      </trkpt>
      <trkpt lat="48.57437" lon="7.6266">
        <ele>149.2</ele>
        <time>2019-08-08T16:00:15Z</time>
      </trkpt>
      <trkpt lat="48.57431" lon="7.62659">
        <ele>149.3</ele>
        <time>2019-08-08T16:00:16Z</time>
      </trkpt>
      <trkpt lat="48.57426" lon="7.62658">
        <ele>149.4</ele>
        <time>2019-08-08T16:00:17Z</time>
      </trkpt>
      <trkpt lat="48.57419" lon="7.62655">
        <ele>149.5</ele>
        <time>2019-08-08T16:00:18Z</time>
      </trkpt>
      <trkpt lat="48.57413" lon="7.62653">
        <ele>149.7</ele>
        <time>2019-08-08T16:00:19Z</time>
      </trkpt>
      <trkpt lat="48.57407" lon="7.62651">
        <ele>149.8</ele>
        <time>2019-08-08T16:00:20Z</time>
      </trkpt>
      <trkpt lat="48.57401" lon="7.62647">
        <ele>149.9</ele>
        <time>2019-08-08T16:00:21Z</time>
      </trkpt>
      <trkpt lat="48.57396" lon="7.62645">
        <ele>149.9</ele>
        <time>2019-08-08T16:00:22Z</time>
      </trkpt>
      <trkpt lat="48.57393" lon="7.62642">
        <ele>149.9</ele>
        <time>2019-08-08T16:00:23Z</time>
      </trkpt>
      <trkpt lat="48.57389" lon="7.62639">
        <ele>150</ele>
        <time>2019-08-08T16:00:24Z</time>
      </trkpt>
      <trkpt lat="48.57385" lon="7.62637">
        <ele>150</ele>
        <time>2019-08-08T16:00:25Z</time>
      </trkpt>
      <trkpt lat="48.57379" lon="7.62634">
        <ele>150</ele>
        <time>2019-08-08T16:00:26Z</time>
      </trkpt>
      <trkpt lat="48.57374" lon="7.62633">
        <ele>150</ele>
        <time>2019-08-08T16:00:27Z</time>
      </trkpt>
      <trkpt lat="48.57368" lon="7.62631">
        <ele>150</ele>
        <time>2019-08-08T16:00:28Z</time>
      </trkpt>
      <trkpt lat="48.57362" lon="7.62627">
        <ele>150</ele>
        <time>2019-08-08T16:00:29Z</time>
      </trkpt>
      <trkpt lat="48.57356" lon="7.62624">
        <ele>150</ele>
        <time>2019-08-08T16:00:30Z</time>
      </trkpt>
      <trkpt lat="48.57351" lon="7.6262">
        <ele>150</ele>
        <time>2019-08-08T16:00:31Z</time>
      </trkpt>
      <trkpt lat="48.57346" lon="7.62618">
        <ele>150</ele>
        <time>2019-08-08T16:00:32Z</time>
      </trkpt>
      <trkpt lat="48.57342" lon="7.62617">
        <ele>150</ele>
        <time>2019-08-08T16:00:33Z</time>
      </trkpt>
      <trkpt lat="48.57338" lon="7.62614">
        <ele>150</ele>
        <time>2019-08-08T16:00:34Z</time>
      </trkpt>
      <trkpt lat="48.57334" lon="7.62612">
        <ele>150</ele>
        <time>2019-08-08T16:00:35Z</time>
      </trkpt>
      <trkpt lat="48.5733" lon="7.62609">
        <ele>150</ele>
        <time>2019-08-08T16:00:36Z</time>
      </trkpt>
      <trkpt lat="48.57325" lon="7.62608">
        <ele>150</ele>
        <time>2019-08-08T16:00:37Z</time>
      </trkpt>
      <trkpt lat="48.57322" lon="7.62607">
        <ele>150</ele>
        <time>2019-08-08T16:00:38Z</time>
      </trkpt>
      <trkpt lat="48.57316" lon="7.62605">
        <ele>150</ele>
        <time>2019-08-08T16:00:39Z</time>
      </trkpt>
      <trkpt lat="48.57312" lon="7.62603">
        <ele>150.1</ele>
        <time>2019-08-08T16:00:40Z</time>
      </trkpt>
      <trkpt lat="48.57307" lon="7.62601">
        <ele>150.1</ele>
        <time>2019-08-08T16:00:41Z</time>
      </trkpt>
      <trkpt lat="48.57302" lon="7.62601">
        <ele>150.1</ele>
        <time>2019-08-08T16:00:42Z</time>
      </trkpt>
      <trkpt lat="48.57297" lon="7.626">
        <ele>150.1</ele>
        <time>2019-08-08T16:00:43Z</time>
      </trkpt>
      <trkpt lat="48.57293" lon="7.62598">
        <ele>150.1</ele>
        <time>2019-08-08T16:00:44Z</time>
      </trkpt>
      <trkpt lat="48.57288" lon="7.62596">
        <ele>150.1</ele>
        <time>2019-08-08T16:00:45Z</time>
      </trkpt>
      <trkpt lat="48.57283" lon="7.62595">
        <ele>150.1</ele>
        <time>2019-08-08T16:00:46Z</time>
      </trkpt>
      <trkpt lat="48.57278" lon="7.62592">
        <ele>150.1</ele>
        <time>2019-08-08T16:00:47Z</time>
      </trkpt>
      <trkpt lat="48.57273" lon="7.62591">
        <ele>150.2</ele>
        <time>2019-08-08T16:00:48Z</time>
      </trkpt>
      <trkpt lat="48.57267" lon="7.62588">
        <ele>150.2</ele>
        <time>2019-08-08T16:00:49Z</time>
      </trkpt>
      <trkpt lat="48.57262" lon="7.62585">
        <ele>150.3</ele>
        <time>2019-08-08T16:00:50Z</time>
      </trkpt>
      <trkpt lat="48.57258" lon="7.62583">
        <ele>150.4</ele>
        <time>2019-08-08T16:00:51Z</time>
      </trkpt>
      <trkpt lat="48.57253" lon="7.62581">
        <ele>150.5</ele>
        <time>2019-08-08T16:00:52Z</time>
      </trkpt>
      <trkpt lat="48.5725" lon="7.6258">
        <ele>150.6</ele>
        <time>2019-08-08T16:00:53Z</time>
      </trkpt>
      <trkpt lat="48.57245" lon="7.62577">
        <ele>150.8</ele>
        <time>2019-08-08T16:00:54Z</time>
      </trkpt>
      <trkpt lat="48.57241" lon="7.62574">
        <ele>150.8</ele>
        <time>2019-08-08T16:00:55Z</time>
      </trkpt>
      <trkpt lat="48.57237" lon="7.62571">
        <ele>150.9</ele>
        <time>2019-08-08T16:00:56Z</time>
      </trkpt>
      <trkpt lat="48.57233" lon="7.62568">
        <ele>151</ele>
        <time>2019-08-08T16:00:57Z</time>
      </trkpt>
      <trkpt lat="48.57228" lon="7.62566">
        <ele>151.1</ele>
        <time>2019-08-08T16:00:58Z</time>
      </trkpt>
      <trkpt lat="48.57223" lon="7.62565">
        <ele>151.1</ele>
        <time>2019-08-08T16:00:59Z</time>
      </trkpt>
      <trkpt lat="48.57218" lon="7.62563">
        <ele>151.2</ele>
        <time>2019-08-08T16:01:00Z</time>
      </trkpt>
      <trkpt lat="48.57214" lon="7.62561">
        <ele>151.2</ele>
        <time>2019-08-08T16:01:01Z</time>
      </trkpt>
      <trkpt lat="48.57209" lon="7.62559">
        <ele>151.2</ele>
        <time>2019-08-08T16:01:02Z</time>
      </trkpt>
      <trkpt lat="48.57205" lon="7.62556">
        <ele>151.2</ele>
        <time>2019-08-08T16:01:03Z</time>
      </trkpt>
      <trkpt lat="48.57201" lon="7.62554">
        <ele>151.2</ele>
        <time>2019-08-08T16:01:04Z</time>
      </trkpt>
      <trkpt lat="48.57197" lon="7.62551">
        <ele>151.2</ele>
        <time>2019-08-08T16:01:05Z</time>
      </trkpt>
      <trkpt lat="48.57193" lon="7.62549">
        <ele>151.1</ele>
        <time>2019-08-08T16:01:06Z</time>
      </trkpt>
      <trkpt lat="48.57188" lon="7.62547">
        <ele>151.1</ele>
        <time>2019-08-08T16:01:07Z</time>
      </trkpt>
      <trkpt lat="48.57184" lon="7.62545">
        <ele>151</ele>
        <time>2019-08-08T16:01:08Z</time>
      </trkpt>
      <trkpt lat="48.5718" lon="7.62543">
        <ele>151</ele>
        <time>2019-08-08T16:01:09Z</time>
      </trkpt>
      <trkpt lat="48.57176" lon="7.6254">
        <ele>151</ele>
        <time>2019-08-08T16:01:10Z</time>
      </trkpt>
      <trkpt lat="48.57171" lon="7.62538">
        <ele>150.9</ele>
        <time>2019-08-08T16:01:11Z</time>
      </trkpt>
      <trkpt lat="48.57167" lon="7.62535">
        <ele>150.9</ele>
        <time>2019-08-08T16:01:12Z</time>
      </trkpt>
      <trkpt lat="48.57162" lon="7.62533">
        <ele>150.8</ele>
        <time>2019-08-08T16:01:13Z</time>
      </trkpt>
      <trkpt lat="48.57157" lon="7.62532">
        <ele>150.7</ele>
        <time>2019-08-08T16:01:14Z</time>
      </trkpt>
      <trkpt lat="48.57153" lon="7.6253">
        <ele>150.7</ele>
        <time>2019-08-08T16:01:15Z</time>
      </trkpt>
      <trkpt lat="48.57148" lon="7.62528">
        <ele>150.6</ele>
        <time>2019-08-08T16:01:16Z</time>
      </trkpt>
      <trkpt lat="48.57144" lon="7.62526">
        <ele>150.5</ele>
        <time>2019-08-08T16:01:17Z</time>
      </trkpt>
      <trkpt lat="48.5714" lon="7.62523">
        <ele>150.5</ele>
        <time>2019-08-08T16:01:18Z</time>
      </trkpt>
      <trkpt lat="48.57135" lon="7.62521">
        <ele>150.4</ele>
        <time>2019-08-08T16:01:19Z</time>
      </trkpt>
      <trkpt lat="48.57131" lon="7.62519">
        <ele>150.4</ele>
        <time>2019-08-08T16:01:20Z</time>
      </trkpt>
      <trkpt lat="48.57127" lon="7.62516">
        <ele>150.4</ele>
        <time>2019-08-08T16:01:21Z</time>
      </trkpt>
      <trkpt lat="48.57124" lon="7.62515">
        <ele>150.3</ele>
        <time>2019-08-08T16:01:22Z</time>
      </trkpt>
      <trkpt lat="48.5712" lon="7.62512">
        <ele>150.3</ele>
        <time>2019-08-08T16:01:23Z</time>
      </trkpt>
      <trkpt lat="48.57117" lon="7.62511">
        <ele>150.3</ele>
        <time>2019-08-08T16:01:24Z</time>
      </trkpt>
      <trkpt lat="48.57113" lon="7.62509">
        <ele>150.3</ele>
        <time>2019-08-08T16:01:25Z</time>
      </trkpt>
      <trkpt lat="48.57109" lon="7.62507">
        <ele>150.3</ele>
        <time>2019-08-08T16:01:26Z</time>
      </trkpt>
      <trkpt lat="48.57105" lon="7.62505">
        <ele>150.3</ele>
        <time>2019-08-08T16:01:27Z</time>
      </trkpt>
      <trkpt lat="48.57103" lon="7.62501">
        <ele>150.3</ele>
        <time>2019-08-08T16:01:28Z</time>
      </trkpt>
      <trkpt lat="48.57101" lon="7.62498">
        <ele>150.3</ele>
        <time>2019-08-08T16:01:29Z</time>
      </trkpt>
      <trkpt lat="48.57098" lon="7.62494">
        <ele>150.3</ele>
        <time>2019-08-08T16:01:30Z</time>
      </trkpt>
      <trkpt lat="48.57095" lon="7.62488">
        <ele>150.3</ele>
        <time>2019-08-08T16:01:31Z</time>
      </trkpt>
      <trkpt lat="48.57092" lon="7.62482">
        <ele>150.3</ele>
        <time>2019-08-08T16:01:32Z</time>
      </trkpt>
      <trkpt lat="48.5709" lon="7.62477">
        <ele>150.3</ele>
        <time>2019-08-08T16:01:33Z</time>
      </trkpt>
      <trkpt lat="48.57088" lon="7.62472">
        <ele>150.2</ele>
        <time>2019-08-08T16:01:34Z</time>
      </trkpt>
      <trkpt lat="48.57085" lon="7.62466">
        <ele>150.2</ele>
        <time>2019-08-08T16:01:35Z</time>
      </trkpt>
      <trkpt lat="48.57083" lon="7.62461">
        <ele>150.2</ele>
        <time>2019-08-08T16:01:36Z</time>
      </trkpt>
      <trkpt lat="48.5708" lon="7.62456">
        <ele>150.1</ele>
        <time>2019-08-08T16:01:37Z</time>
      </trkpt>
      <trkpt lat="48.57077" lon="7.62452">
        <ele>150</ele>
        <time>2019-08-08T16:01:38Z</time>
      </trkpt>
      <trkpt lat="48.57072" lon="7.6245">
        <ele>149.9</ele>
        <time>2019-08-08T16:01:39Z</time>
      </trkpt>
      <trkpt lat="48.57068" lon="7.62445">
        <ele>149.9</ele>
        <time>2019-08-08T16:01:40Z</time>
      </trkpt>
      <trkpt lat="48.57064" lon="7.6244">
        <ele>149.8</ele>
        <time>2019-08-08T16:01:41Z</time>
      </trkpt>
      <trkpt lat="48.57059" lon="7.62436">
        <ele>149.6</ele>
        <time>2019-08-08T16:01:42Z</time>
      </trkpt>
      <trkpt lat="48.57055" lon="7.62432">
        <ele>149.6</ele>
        <time>2019-08-08T16:01:43Z</time>
      </trkpt>
      <trkpt lat="48.57052" lon="7.62428">
        <ele>149.5</ele>
        <time>2019-08-08T16:01:44Z</time>
      </trkpt>
      <trkpt lat="48.5705" lon="7.62425">
        <ele>149.4</ele>
        <time>2019-08-08T16:01:45Z</time>
      </trkpt>
      <trkpt lat="48.57048" lon="7.6242">
        <ele>149.4</ele>
        <time>2019-08-08T16:01:46Z</time>
      </trkpt>
      <trkpt lat="48.57046" lon="7.62417">
        <ele>149.3</ele>
        <time>2019-08-08T16:01:47Z</time>
      </trkpt>
      <trkpt lat="48.57042" lon="7.6241">
        <ele>149.2</ele>
        <time>2019-08-08T16:01:49Z</time>
      </trkpt>
      <trkpt lat="48.5704" lon="7.62406">
        <ele>149.2</ele>
        <time>2019-08-08T16:01:50Z</time>
      </trkpt>
      <trkpt lat="48.57037" lon="7.62401">
        <ele>149.2</ele>
        <time>2019-08-08T16:01:51Z</time>
      </trkpt>
      <trkpt lat="48.57034" lon="7.62397">
        <ele>149.1</ele>
        <time>2019-08-08T16:01:52Z</time>
      </trkpt>
      <trkpt lat="48.57033" lon="7.62393">
        <ele>149.1</ele>
        <time>2019-08-08T16:01:53Z</time>
      </trkpt>
      <trkpt lat="48.57031" lon="7.6239">
        <ele>149.1</ele>
        <time>2019-08-08T16:01:54Z</time>
      </trkpt>
      <trkpt lat="48.5703" lon="7.62385">
        <ele>149.1</ele>
        <time>2019-08-08T16:01:55Z</time>
      </trkpt>
      <trkpt lat="48.57029" lon="7.6238">
        <ele>149.1</ele>
        <time>2019-08-08T16:01:56Z</time>
      </trkpt>
      <trkpt lat="48.57027" lon="7.62377">
        <ele>149.1</ele>
        <time>2019-08-08T16:01:57Z</time>
      </trkpt>
      <trkpt lat="48.57024" lon="7.62372">
        <ele>149.1</ele>
        <time>2019-08-08T16:01:58Z</time>
      </trkpt>
      <trkpt lat="48.57021" lon="7.62367">
        <ele>149.1</ele>
        <time>2019-08-08T16:01:59Z</time>
      </trkpt>
      <trkpt lat="48.57018" lon="7.62361">
        <ele>149.1</ele>
        <time>2019-08-08T16:02:00Z</time>
      </trkpt>
      <trkpt lat="48.57015" lon="7.62352">
        <ele>149</ele>
        <time>2019-08-08T16:02:01Z</time>
      </trkpt>
      <trkpt lat="48.57012" lon="7.62345">
        <ele>149</ele>
        <time>2019-08-08T16:02:02Z</time>
      </trkpt>
      <trkpt lat="48.57009" lon="7.62339">
        <ele>149</ele>
        <time>2019-08-08T16:02:03Z</time>
      </trkpt>
      <trkpt lat="48.57005" lon="7.62332">
        <ele>149</ele>
        <time>2019-08-08T16:02:04Z</time>
      </trkpt>
      <trkpt lat="48.57003" lon="7.62328">
        <ele>149</ele>
        <time>2019-08-08T16:02:05Z</time>
      </trkpt>
      <trkpt lat="48.57" lon="7.62324">
        <ele>149.1</ele>
        <time>2019-08-08T16:02:06Z</time>
      </trkpt>
      <trkpt lat="48.56997" lon="7.6232">
        <ele>149.1</ele>
        <time>2019-08-08T16:02:07Z</time>
      </trkpt>
      <trkpt lat="48.56994" lon="7.62316">
        <ele>149.1</ele>
        <time>2019-08-08T16:02:08Z</time>
      </trkpt>
      <trkpt lat="48.56991" lon="7.62311">
        <ele>149.1</ele>
        <time>2019-08-08T16:02:09Z</time>
      </trkpt>
      <trkpt lat="48.56987" lon="7.62307">
        <ele>149.1</ele>
        <time>2019-08-08T16:02:10Z</time>
      </trkpt>
      <trkpt lat="48.56983" lon="7.62303">
        <ele>149.1</ele>
        <time>2019-08-08T16:02:11Z</time>
      </trkpt>
      <trkpt lat="48.56979" lon="7.62298">
        <ele>149.2</ele>
        <time>2019-08-08T16:02:12Z</time>
      </trkpt>
      <trkpt lat="48.56976" lon="7.62293">
        <ele>149.2</ele>
        <time>2019-08-08T16:02:13Z</time>
      </trkpt>
      <trkpt lat="48.56974" lon="7.62287">
        <ele>149.2</ele>
        <time>2019-08-08T16:02:14Z</time>
      </trkpt>
      <trkpt lat="48.56972" lon="7.62283">
        <ele>149.3</ele>
        <time>2019-08-08T16:02:15Z</time>
      </trkpt>
      <trkpt lat="48.56969" lon="7.62279">
        <ele>149.3</ele>
        <time>2019-08-08T16:02:17Z</time>
      </trkpt>
      <trkpt lat="48.56964" lon="7.62274">
        <ele>149.4</ele>
        <time>2019-08-08T16:02:19Z</time>
      </trkpt>
      <trkpt lat="48.5696" lon="7.62272">
        <ele>149.4</ele>
        <time>2019-08-08T16:02:20Z</time>
      </trkpt>
      <trkpt lat="48.56957" lon="7.6227">
        <ele>149.4</ele>
        <time>2019-08-08T16:02:21Z</time>
      </trkpt>
      <trkpt lat="48.56952" lon="7.62268">
        <ele>149.5</ele>
        <time>2019-08-08T16:02:22Z</time>
      </trkpt>
      <trkpt lat="48.56947" lon="7.62267">
        <ele>149.5</ele>
        <time>2019-08-08T16:02:23Z</time>
      </trkpt>
      <trkpt lat="48.56942" lon="7.62266">
        <ele>149.5</ele>
        <time>2019-08-08T16:02:24Z</time>
      </trkpt>
      <trkpt lat="48.56937" lon="7.62264">
        <ele>149.5</ele>
        <time>2019-08-08T16:02:25Z</time>
      </trkpt>
      <trkpt lat="48.56934" lon="7.62262">
        <ele>149.5</ele>
        <time>2019-08-08T16:02:26Z</time>
      </trkpt>
      <trkpt lat="48.5693" lon="7.6226">
        <ele>149.5</ele>
        <time>2019-08-08T16:02:27Z</time>
      </trkpt>
      <trkpt lat="48.56926" lon="7.62259">
        <ele>149.5</ele>
        <time>2019-08-08T16:02:28Z</time>
      </trkpt>
      <trkpt lat="48.56921" lon="7.62257">
        <ele>149.5</ele>
        <time>2019-08-08T16:02:29Z</time>
      </trkpt>
      <trkpt lat="48.56917" lon="7.62255">
        <ele>149.5</ele>
        <time>2019-08-08T16:02:30Z</time>
      </trkpt>
      <trkpt lat="48.56912" lon="7.62253">
        <ele>149.5</ele>
        <time>2019-08-08T16:02:31Z</time>
      </trkpt>
      <trkpt lat="48.56908" lon="7.62251">
        <ele>149.5</ele>
        <time>2019-08-08T16:02:32Z</time>
      </trkpt>
      <trkpt lat="48.56904" lon="7.62248">
        <ele>149.5</ele>
        <time>2019-08-08T16:02:33Z</time>
      </trkpt>
      <trkpt lat="48.56899" lon="7.62246">
        <ele>149.5</ele>
        <time>2019-08-08T16:02:34Z</time>
      </trkpt>
      <trkpt lat="48.56894" lon="7.62244">
        <ele>149.5</ele>
        <time>2019-08-08T16:02:35Z</time>
      </trkpt>
      <trkpt lat="48.5689" lon="7.62242">
        <ele>149.6</ele>
        <time>2019-08-08T16:02:36Z</time>
      </trkpt>
      <trkpt lat="48.56886" lon="7.62239">
        <ele>149.6</ele>
        <time>2019-08-08T16:02:37Z</time>
      </trkpt>
      <trkpt lat="48.56882" lon="7.62235">
        <ele>149.6</ele>
        <time>2019-08-08T16:02:38Z</time>
      </trkpt>
      <trkpt lat="48.56879" lon="7.62232">
        <ele>149.6</ele>
        <time>2019-08-08T16:02:39Z</time>
      </trkpt>
      <trkpt lat="48.56874" lon="7.6223">
        <ele>149.5</ele>
        <time>2019-08-08T16:02:40Z</time>
      </trkpt>
      <trkpt lat="48.56869" lon="7.62226">
        <ele>149.5</ele>
        <time>2019-08-08T16:02:41Z</time>
      </trkpt>
      <trkpt lat="48.56864" lon="7.62224">
        <ele>149.5</ele>
        <time>2019-08-08T16:02:42Z</time>
      </trkpt>
      <trkpt lat="48.56861" lon="7.62221">
        <ele>149.5</ele>
        <time>2019-08-08T16:02:43Z</time>
      </trkpt>
      <trkpt lat="48.56856" lon="7.62217">
        <ele>149.5</ele>
        <time>2019-08-08T16:02:44Z</time>
      </trkpt>
      <trkpt lat="48.56852" lon="7.62216">
        <ele>149.4</ele>
        <time>2019-08-08T16:02:45Z</time>
      </trkpt>
      <trkpt lat="48.56847" lon="7.62214">
        <ele>149.4</ele>
        <time>2019-08-08T16:02:46Z</time>
      </trkpt>
      <trkpt lat="48.56843" lon="7.6221">
        <ele>149.3</ele>
        <time>2019-08-08T16:02:47Z</time>
      </trkpt>
      <trkpt lat="48.56839" lon="7.62207">
        <ele>149.3</ele>
        <time>2019-08-08T16:02:48Z</time>
      </trkpt>
      <trkpt lat="48.56834" lon="7.62203">
        <ele>149.3</ele>
        <time>2019-08-08T16:02:49Z</time>
      </trkpt>
      <trkpt lat="48.5683" lon="7.62201">
        <ele>149.2</ele>
        <time>2019-08-08T16:02:50Z</time>
      </trkpt>
      <trkpt lat="48.56825" lon="7.62199">
        <ele>149.2</ele>
        <time>2019-08-08T16:02:51Z</time>
      </trkpt>
      <trkpt lat="48.56821" lon="7.62195">
        <ele>149.2</ele>
        <time>2019-08-08T16:02:52Z</time>
      </trkpt>
      <trkpt lat="48.56815" lon="7.62191">
        <ele>149.2</ele>
        <time>2019-08-08T16:02:53Z</time>
      </trkpt>
      <trkpt lat="48.56811" lon="7.62187">
        <ele>149.3</ele>
        <time>2019-08-08T16:02:54Z</time>
      </trkpt>
      <trkpt lat="48.56805" lon="7.62182">
        <ele>149.4</ele>
        <time>2019-08-08T16:02:55Z</time>
      </trkpt>
      <trkpt lat="48.56801" lon="7.62177">
        <ele>149.4</ele>
        <time>2019-08-08T16:02:56Z</time>
      </trkpt>
      <trkpt lat="48.56796" lon="7.62172">
        <ele>149.5</ele>
        <time>2019-08-08T16:02:57Z</time>
      </trkpt>
      <trkpt lat="48.56793" lon="7.62168">
        <ele>149.6</ele>
        <time>2019-08-08T16:02:58Z</time>
      </trkpt>
      <trkpt lat="48.56789" lon="7.62162">
        <ele>149.7</ele>
        <time>2019-08-08T16:02:59Z</time>
      </trkpt>
      <trkpt lat="48.56785" lon="7.62156">
        <ele>149.8</ele>
        <time>2019-08-08T16:03:00Z</time>
      </trkpt>
      <trkpt lat="48.56781" lon="7.62151">
        <ele>149.9</ele>
        <time>2019-08-08T16:03:01Z</time>
      </trkpt>
      <trkpt lat="48.56777" lon="7.62146">
        <ele>149.9</ele>
        <time>2019-08-08T16:03:02Z</time>
      </trkpt>
      <trkpt lat="48.56773" lon="7.62142">
        <ele>150</ele>
        <time>2019-08-08T16:03:03Z</time>
      </trkpt>
      <trkpt lat="48.56769" lon="7.62139">
        <ele>150</ele>
        <time>2019-08-08T16:03:04Z</time>
      </trkpt>
      <trkpt lat="48.56763" lon="7.62134">
        <ele>150</ele>
        <time>2019-08-08T16:03:05Z</time>
      </trkpt>
      <trkpt lat="48.56759" lon="7.62131">
        <ele>150</ele>
        <time>2019-08-08T16:03:06Z</time>
      </trkpt>
      <trkpt lat="48.56754" lon="7.62126">
        <ele>150</ele>
        <time>2019-08-08T16:03:07Z</time>
      </trkpt>
      <trkpt lat="48.56749" lon="7.62119">
        <ele>149.9</ele>
        <time>2019-08-08T16:03:08Z</time>
      </trkpt>
      <trkpt lat="48.56745" lon="7.62115">
        <ele>149.9</ele>
        <time>2019-08-08T16:03:09Z</time>
      </trkpt>
      <trkpt lat="48.56741" lon="7.62111">
        <ele>149.9</ele>
        <time>2019-08-08T16:03:10Z</time>
      </trkpt>
      <trkpt lat="48.56737" lon="7.62107">
        <ele>149.9</ele>
        <time>2019-08-08T16:03:11Z</time>
      </trkpt>
      <trkpt lat="48.56732" lon="7.62102">
        <ele>149.9</ele>
        <time>2019-08-08T16:03:12Z</time>
      </trkpt>
      <trkpt lat="48.56728" lon="7.62099">
        <ele>149.9</ele>
        <time>2019-08-08T16:03:13Z</time>
      </trkpt>
      <trkpt lat="48.56724" lon="7.62095">
        <ele>149.9</ele>
        <time>2019-08-08T16:03:14Z</time>
      </trkpt>
      <trkpt lat="48.5672" lon="7.62089">
        <ele>149.9</ele>
        <time>2019-08-08T16:03:15Z</time>
      </trkpt>
      <trkpt lat="48.56716" lon="7.62084">
        <ele>149.9</ele>
        <time>2019-08-08T16:03:16Z</time>
      </trkpt>
      <trkpt lat="48.56711" lon="7.6208">
        <ele>149.9</ele>
        <time>2019-08-08T16:03:17Z</time>
      </trkpt>
      <trkpt lat="48.56705" lon="7.62076">
        <ele>149.9</ele>
        <time>2019-08-08T16:03:18Z</time>
      </trkpt>
      <trkpt lat="48.567" lon="7.62069">
        <ele>149.9</ele>
        <time>2019-08-08T16:03:19Z</time>
      </trkpt>
      <trkpt lat="48.56694" lon="7.62066">
        <ele>149.9</ele>
        <time>2019-08-08T16:03:20Z</time>
      </trkpt>
      <trkpt lat="48.56689" lon="7.62062">
        <ele>149.8</ele>
        <time>2019-08-08T16:03:21Z</time>
      </trkpt>
      <trkpt lat="48.56684" lon="7.62058">
        <ele>149.8</ele>
        <time>2019-08-08T16:03:22Z</time>
      </trkpt>
      <trkpt lat="48.56679" lon="7.62054">
        <ele>149.7</ele>
        <time>2019-08-08T16:03:23Z</time>
      </trkpt>
      <trkpt lat="48.56674" lon="7.62051">
        <ele>149.6</ele>
        <time>2019-08-08T16:03:24Z</time>
      </trkpt>
      <trkpt lat="48.5667" lon="7.62048">
        <ele>149.5</ele>
        <time>2019-08-08T16:03:25Z</time>
      </trkpt>
      <trkpt lat="48.56667" lon="7.62043">
        <ele>149.5</ele>
        <time>2019-08-08T16:03:26Z</time>
      </trkpt>
      <trkpt lat="48.56664" lon="7.62039">
        <ele>149.4</ele>
        <time>2019-08-08T16:03:27Z</time>
      </trkpt>
      <trkpt lat="48.5666" lon="7.62036">
        <ele>149.4</ele>
        <time>2019-08-08T16:03:28Z</time>
      </trkpt>
      <trkpt lat="48.56656" lon="7.62033">
        <ele>149.3</ele>
        <time>2019-08-08T16:03:29Z</time>
      </trkpt>
      <trkpt lat="48.56651" lon="7.6203">
        <ele>149.2</ele>
        <time>2019-08-08T16:03:30Z</time>
      </trkpt>
      <trkpt lat="48.56648" lon="7.62027">
        <ele>149.2</ele>
        <time>2019-08-08T16:03:31Z</time>
      </trkpt>
      <trkpt lat="48.56643" lon="7.62024">
        <ele>149.2</ele>
        <time>2019-08-08T16:03:32Z</time>
      </trkpt>
      <trkpt lat="48.56638" lon="7.62021">
        <ele>149.1</ele>
        <time>2019-08-08T16:03:33Z</time>
      </trkpt>
      <trkpt lat="48.56632" lon="7.62019">
        <ele>149.1</ele>
        <time>2019-08-08T16:03:34Z</time>
      </trkpt>
      <trkpt lat="48.56626" lon="7.62019">
        <ele>149.1</ele>
        <time>2019-08-08T16:03:35Z</time>
      </trkpt>
      <trkpt lat="48.56622" lon="7.62016">
        <ele>149.1</ele>
        <time>2019-08-08T16:03:36Z</time>
      </trkpt>
      <trkpt lat="48.56616" lon="7.62012">
        <ele>149</ele>
        <time>2019-08-08T16:03:37Z</time>
      </trkpt>
      <trkpt lat="48.56609" lon="7.62006">
        <ele>149</ele>
        <time>2019-08-08T16:03:38Z</time>
      </trkpt>
      <trkpt lat="48.56604" lon="7.62002">
        <ele>149</ele>
        <time>2019-08-08T16:03:39Z</time>
      </trkpt>
      <trkpt lat="48.56597" lon="7.61998">
        <ele>148.9</ele>
        <time>2019-08-08T16:03:40Z</time>
      </trkpt>
      <trkpt lat="48.56592" lon="7.61993">
        <ele>148.8</ele>
        <time>2019-08-08T16:03:41Z</time>
      </trkpt>
      <trkpt lat="48.56589" lon="7.6199">
        <ele>148.6</ele>
        <time>2019-08-08T16:03:42Z</time>
      </trkpt>
      <trkpt lat="48.56585" lon="7.61985">
        <ele>148.5</ele>
        <time>2019-08-08T16:03:43Z</time>
      </trkpt>
      <trkpt lat="48.56581" lon="7.6198">
        <ele>148.3</ele>
        <time>2019-08-08T16:03:44Z</time>
      </trkpt>
      <trkpt lat="48.56577" lon="7.61976">
        <ele>148.2</ele>
        <time>2019-08-08T16:03:45Z</time>
      </trkpt>
      <trkpt lat="48.56574" lon="7.61971">
        <ele>148.1</ele>
        <time>2019-08-08T16:03:46Z</time>
      </trkpt>
      <trkpt lat="48.5657" lon="7.61967">
        <ele>148</ele>
        <time>2019-08-08T16:03:47Z</time>
      </trkpt>
      <trkpt lat="48.56566" lon="7.61963">
        <ele>147.9</ele>
        <time>2019-08-08T16:03:48Z</time>
      </trkpt>
      <trkpt lat="48.5656" lon="7.61959">
        <ele>147.7</ele>
        <time>2019-08-08T16:03:49Z</time>
      </trkpt>
      <trkpt lat="48.56556" lon="7.61954">
        <ele>147.6</ele>
        <time>2019-08-08T16:03:50Z</time>
      </trkpt>
      <trkpt lat="48.56551" lon="7.61951">
        <ele>147.5</ele>
        <time>2019-08-08T16:03:51Z</time>
      </trkpt>
      <trkpt lat="48.56547" lon="7.61946">
        <ele>147.5</ele>
        <time>2019-08-08T16:03:52Z</time>
      </trkpt>
      <trkpt lat="48.56542" lon="7.61942">
        <ele>147.4</ele>
        <time>2019-08-08T16:03:53Z</time>
      </trkpt>
      <trkpt lat="48.56537" lon="7.61939">
        <ele>147.4</ele>
        <time>2019-08-08T16:03:54Z</time>
      </trkpt>
      <trkpt lat="48.56531" lon="7.61935">
        <ele>147.3</ele>
        <time>2019-08-08T16:03:55Z</time>
      </trkpt>
      <trkpt lat="48.56525" lon="7.61931">
        <ele>147.3</ele>
        <time>2019-08-08T16:03:56Z</time>
      </trkpt>
      <trkpt lat="48.56519" lon="7.61927">
        <ele>147.4</ele>
        <time>2019-08-08T16:03:57Z</time>
      </trkpt>
      <trkpt lat="48.56512" lon="7.61924">
        <ele>147.5</ele>
        <time>2019-08-08T16:03:58Z</time>
      </trkpt>
      <trkpt lat="48.56507" lon="7.61922">
        <ele>147.6</ele>
        <time>2019-08-08T16:03:59Z</time>
      </trkpt>
      <trkpt lat="48.56501" lon="7.61918">
        <ele>147.7</ele>
        <time>2019-08-08T16:04:00Z</time>
      </trkpt>
      <trkpt lat="48.56495" lon="7.61915">
        <ele>147.8</ele>
        <time>2019-08-08T16:04:01Z</time>
      </trkpt>
      <trkpt lat="48.5649" lon="7.61913">
        <ele>147.9</ele>
        <time>2019-08-08T16:04:02Z</time>
      </trkpt>
      <trkpt lat="48.56484" lon="7.61908">
        <ele>148</ele>
        <time>2019-08-08T16:04:03Z</time>
      </trkpt>
      <trkpt lat="48.5648" lon="7.61905">
        <ele>148</ele>
        <time>2019-08-08T16:04:04Z</time>
      </trkpt>
      <trkpt lat="48.56474" lon="7.619">
        <ele>148</ele>
        <time>2019-08-08T16:04:05Z</time>
      </trkpt>
      <trkpt lat="48.56469" lon="7.61896">
        <ele>147.9</ele>
        <time>2019-08-08T16:04:06Z</time>
      </trkpt>
      <trkpt lat="48.56463" lon="7.61891">
        <ele>147.8</ele>
        <time>2019-08-08T16:04:07Z</time>
      </trkpt>
      <trkpt lat="48.56457" lon="7.61889">
        <ele>147.7</ele>
        <time>2019-08-08T16:04:08Z</time>
      </trkpt>
      <trkpt lat="48.56452" lon="7.61886">
        <ele>147.7</ele>
        <time>2019-08-08T16:04:09Z</time>
      </trkpt>
      <trkpt lat="48.56447" lon="7.61884">
        <ele>147.6</ele>
        <time>2019-08-08T16:04:10Z</time>
      </trkpt>
      <trkpt lat="48.56442" lon="7.61881">
        <ele>147.5</ele>
        <time>2019-08-08T16:04:11Z</time>
      </trkpt>
      <trkpt lat="48.56437" lon="7.61879">
        <ele>147.5</ele>
        <time>2019-08-08T16:04:12Z</time>
      </trkpt>
      <trkpt lat="48.56431" lon="7.61875">
        <ele>147.4</ele>
        <time>2019-08-08T16:04:13Z</time>
      </trkpt>
      <trkpt lat="48.56427" lon="7.61871">
        <ele>147.3</ele>
        <time>2019-08-08T16:04:14Z</time>
      </trkpt>
      <trkpt lat="48.56423" lon="7.61866">
        <ele>147.2</ele>
        <time>2019-08-08T16:04:15Z</time>
      </trkpt>
      <trkpt lat="48.56419" lon="7.6186">
        <ele>147.1</ele>
        <time>2019-08-08T16:04:16Z</time>
      </trkpt>
      <trkpt lat="48.56415" lon="7.61855">
        <ele>147.1</ele>
        <time>2019-08-08T16:04:17Z</time>
      </trkpt>
      <trkpt lat="48.56411" lon="7.6185">
        <ele>147.1</ele>
        <time>2019-08-08T16:04:18Z</time>
      </trkpt>
      <trkpt lat="48.56406" lon="7.61845">
        <ele>147.1</ele>
        <time>2019-08-08T16:04:19Z</time>
      </trkpt>
      <trkpt lat="48.56401" lon="7.61841">
        <ele>147.2</ele>
        <time>2019-08-08T16:04:20Z</time>
      </trkpt>
      <trkpt lat="48.56397" lon="7.61837">
        <ele>147.4</ele>
        <time>2019-08-08T16:04:21Z</time>
      </trkpt>
      <trkpt lat="48.56393" lon="7.61834">
        <ele>147.5</ele>
        <time>2019-08-08T16:04:22Z</time>
      </trkpt>
      <trkpt lat="48.56388" lon="7.61831">
        <ele>147.6</ele>
        <time>2019-08-08T16:04:23Z</time>
      </trkpt>
      <trkpt lat="48.56384" lon="7.61828">
        <ele>147.7</ele>
        <time>2019-08-08T16:04:24Z</time>
      </trkpt>
      <trkpt lat="48.5638" lon="7.61826">
        <ele>147.7</ele>
        <time>2019-08-08T16:04:25Z</time>
      </trkpt>
      <trkpt lat="48.56376" lon="7.61824">
        <ele>147.8</ele>
        <time>2019-08-08T16:04:26Z</time>
      </trkpt>
      <trkpt lat="48.56371" lon="7.61823">
        <ele>147.8</ele>
        <time>2019-08-08T16:04:27Z</time>
      </trkpt>
      <trkpt lat="48.56365" lon="7.6182">
        <ele>147.7</ele>
        <time>2019-08-08T16:04:28Z</time>
      </trkpt>
      <trkpt lat="48.56359" lon="7.61818">
        <ele>147.7</ele>
        <time>2019-08-08T16:04:29Z</time>
      </trkpt>
      <trkpt lat="48.56354" lon="7.61817">
        <ele>147.7</ele>
        <time>2019-08-08T16:04:30Z</time>
      </trkpt>
      <trkpt lat="48.56349" lon="7.61815">
        <ele>147.6</ele>
        <time>2019-08-08T16:04:31Z</time>
      </trkpt>
      <trkpt lat="48.56343" lon="7.61814">
        <ele>147.6</ele>
        <time>2019-08-08T16:04:32Z</time>
      </trkpt>
      <trkpt lat="48.56337" lon="7.61812">
        <ele>147.6</ele>
        <time>2019-08-08T16:04:33Z</time>
      </trkpt>
      <trkpt lat="48.56329" lon="7.61811">
        <ele>147.7</ele>
        <time>2019-08-08T16:04:34Z</time>
      </trkpt>
      <trkpt lat="48.56324" lon="7.6181">
        <ele>147.8</ele>
        <time>2019-08-08T16:04:35Z</time>
      </trkpt>
      <trkpt lat="48.56318" lon="7.6181">
        <ele>147.8</ele>
        <time>2019-08-08T16:04:36Z</time>
      </trkpt>
      <trkpt lat="48.56309" lon="7.61811">
        <ele>147.9</ele>
        <time>2019-08-08T16:04:37Z</time>
      </trkpt>
      <trkpt lat="48.56302" lon="7.61814">
        <ele>148</ele>
        <time>2019-08-08T16:04:38Z</time>
      </trkpt>
      <trkpt lat="48.56296" lon="7.61817">
        <ele>148</ele>
        <time>2019-08-08T16:04:39Z</time>
      </trkpt>
      <trkpt lat="48.56293" lon="7.6182">
        <ele>148</ele>
        <time>2019-08-08T16:04:40Z</time>
      </trkpt>
      <trkpt lat="48.56289" lon="7.61823">
        <ele>148</ele>
        <time>2019-08-08T16:04:41Z</time>
      </trkpt>
      <trkpt lat="48.56287" lon="7.61827">
        <ele>148</ele>
        <time>2019-08-08T16:04:42Z</time>
      </trkpt>
      <trkpt lat="48.56282" lon="7.61831">
        <ele>148.1</ele>
        <time>2019-08-08T16:04:43Z</time>
      </trkpt>
      <trkpt lat="48.56277" lon="7.61834">
        <ele>148.1</ele>
        <time>2019-08-08T16:04:44Z</time>
      </trkpt>
      <trkpt lat="48.56272" lon="7.61837">
        <ele>148.2</ele>
        <time>2019-08-08T16:04:45Z</time>
      </trkpt>
      <trkpt lat="48.56268" lon="7.61841">
        <ele>148.2</ele>
        <time>2019-08-08T16:04:46Z</time>
      </trkpt>
      <trkpt lat="48.56265" lon="7.61846">
        <ele>148.3</ele>
        <time>2019-08-08T16:04:47Z</time>
      </trkpt>
      <trkpt lat="48.56261" lon="7.61851">
        <ele>148.3</ele>
        <time>2019-08-08T16:04:48Z</time>
      </trkpt>
      <trkpt lat="48.56256" lon="7.61853">
        <ele>148.3</ele>
        <time>2019-08-08T16:04:49Z</time>
      </trkpt>
      <trkpt lat="48.5625" lon="7.61855">
        <ele>148.3</ele>
        <time>2019-08-08T16:04:50Z</time>
      </trkpt>
      <trkpt lat="48.56245" lon="7.61858">
        <ele>148.3</ele>
        <time>2019-08-08T16:04:51Z</time>
      </trkpt>
      <trkpt lat="48.5624" lon="7.6186">
        <ele>148.3</ele>
        <time>2019-08-08T16:04:52Z</time>
      </trkpt>
      <trkpt lat="48.56236" lon="7.61862">
        <ele>148.3</ele>
        <time>2019-08-08T16:04:53Z</time>
      </trkpt>
      <trkpt lat="48.56231" lon="7.61865">
        <ele>148.3</ele>
        <time>2019-08-08T16:04:54Z</time>
      </trkpt>
      <trkpt lat="48.56227" lon="7.61867">
        <ele>148.3</ele>
        <time>2019-08-08T16:04:55Z</time>
      </trkpt>
      <trkpt lat="48.56224" lon="7.61867">
        <ele>148.3</ele>
        <time>2019-08-08T16:04:56Z</time>
      </trkpt>
      <trkpt lat="48.5622" lon="7.6187">
        <ele>148.2</ele>
        <time>2019-08-08T16:04:57Z</time>
      </trkpt>
      <trkpt lat="48.56214" lon="7.61872">
        <ele>148.2</ele>
        <time>2019-08-08T16:04:58Z</time>
      </trkpt>
      <trkpt lat="48.56209" lon="7.61875">
        <ele>148.1</ele>
        <time>2019-08-08T16:04:59Z</time>
      </trkpt>
      <trkpt lat="48.56204" lon="7.61878">
        <ele>148.1</ele>
        <time>2019-08-08T16:05:00Z</time>
      </trkpt>
      <trkpt lat="48.56201" lon="7.61881">
        <ele>148.1</ele>
        <time>2019-08-08T16:05:01Z</time>
      </trkpt>
      <trkpt lat="48.56197" lon="7.61884">
        <ele>148.1</ele>
        <time>2019-08-08T16:05:02Z</time>
      </trkpt>
      <trkpt lat="48.56195" lon="7.61888">
        <ele>148</ele>
        <time>2019-08-08T16:05:03Z</time>
      </trkpt>
      <trkpt lat="48.56192" lon="7.61893">
        <ele>148</ele>
        <time>2019-08-08T16:05:04Z</time>
      </trkpt>
      <trkpt lat="48.56189" lon="7.61896">
        <ele>148</ele>
        <time>2019-08-08T16:05:05Z</time>
      </trkpt>
      <trkpt lat="48.56187" lon="7.61898">
        <ele>148</ele>
        <time>2019-08-08T16:05:06Z</time>
      </trkpt>
      <trkpt lat="48.56183" lon="7.619">
        <ele>148</ele>
        <time>2019-08-08T16:05:07Z</time>
      </trkpt>
      <trkpt lat="48.5618" lon="7.61902">
        <ele>148</ele>
        <time>2019-08-08T16:05:08Z</time>
      </trkpt>
      <trkpt lat="48.56177" lon="7.61904">
        <ele>148</ele>
        <time>2019-08-08T16:05:09Z</time>
      </trkpt>
      <trkpt lat="48.56173" lon="7.61904">
        <ele>148</ele>
        <time>2019-08-08T16:05:10Z</time>
      </trkpt>
      <trkpt lat="48.56169" lon="7.61905">
        <ele>148</ele>
        <time>2019-08-08T16:05:11Z</time>
      </trkpt>
      <trkpt lat="48.56165" lon="7.61905">
        <ele>148</ele>
        <time>2019-08-08T16:05:12Z</time>
      </trkpt>
      <trkpt lat="48.56161" lon="7.61905">
        <ele>148</ele>
        <time>2019-08-08T16:05:13Z</time>
      </trkpt>
      <trkpt lat="48.56157" lon="7.61905">
        <ele>148.1</ele>
        <time>2019-08-08T16:05:14Z</time>
      </trkpt>
      <trkpt lat="48.56152" lon="7.61904">
        <ele>148.1</ele>
        <time>2019-08-08T16:05:15Z</time>
      </trkpt>
      <trkpt lat="48.56148" lon="7.61903">
        <ele>148.2</ele>
        <time>2019-08-08T16:05:16Z</time>
      </trkpt>
      <trkpt lat="48.56143" lon="7.61902">
        <ele>148.3</ele>
        <time>2019-08-08T16:05:17Z</time>
      </trkpt>
      <trkpt lat="48.56139" lon="7.61901">
        <ele>148.3</ele>
        <time>2019-08-08T16:05:18Z</time>
      </trkpt>
      <trkpt lat="48.56135" lon="7.61898">
        <ele>148.4</ele>
        <time>2019-08-08T16:05:19Z</time>
      </trkpt>
      <trkpt lat="48.56131" lon="7.61895">
        <ele>148.4</ele>
        <time>2019-08-08T16:05:20Z</time>
      </trkpt>
      <trkpt lat="48.56128" lon="7.61893">
        <ele>148.5</ele>
        <time>2019-08-08T16:05:21Z</time>
      </trkpt>
      <trkpt lat="48.56124" lon="7.61891">
        <ele>148.6</ele>
        <time>2019-08-08T16:05:22Z</time>
      </trkpt>
      <trkpt lat="48.5612" lon="7.6189">
        <ele>148.6</ele>
        <time>2019-08-08T16:05:23Z</time>
      </trkpt>
      <trkpt lat="48.56116" lon="7.61889">
        <ele>148.7</ele>
        <time>2019-08-08T16:05:24Z</time>
      </trkpt>
      <trkpt lat="48.56112" lon="7.61888">
        <ele>148.8</ele>
        <time>2019-08-08T16:05:25Z</time>
      </trkpt>
      <trkpt lat="48.56107" lon="7.61887">
        <ele>149</ele>
        <time>2019-08-08T16:05:26Z</time>
      </trkpt>
      <trkpt lat="48.56102" lon="7.61886">
        <ele>149.1</ele>
        <time>2019-08-08T16:05:27Z</time>
      </trkpt>
      <trkpt lat="48.56097" lon="7.61886">
        <ele>149.2</ele>
        <time>2019-08-08T16:05:28Z</time>
      </trkpt>
      <trkpt lat="48.56092" lon="7.61887">
        <ele>149.3</ele>
        <time>2019-08-08T16:05:29Z</time>
      </trkpt>
      <trkpt lat="48.56082" lon="7.61887">
        <ele>149.4</ele>
        <time>2019-08-08T16:05:30Z</time>
      </trkpt>
      <trkpt lat="48.56075" lon="7.61886">
        <ele>149.4</ele>
        <time>2019-08-08T16:05:31Z</time>
      </trkpt>
      <trkpt lat="48.5607" lon="7.61885">
        <ele>149.4</ele>
        <time>2019-08-08T16:05:32Z</time>
      </trkpt>
      <trkpt lat="48.56065" lon="7.61884">
        <ele>149.4</ele>
        <time>2019-08-08T16:05:33Z</time>
      </trkpt>
      <trkpt lat="48.56059" lon="7.61886">
        <ele>149.4</ele>
        <time>2019-08-08T16:05:34Z</time>
      </trkpt>
      <trkpt lat="48.56056" lon="7.61886">
        <ele>149.3</ele>
        <time>2019-08-08T16:05:35Z</time>
      </trkpt>
      <trkpt lat="48.56052" lon="7.61887">
        <ele>149.3</ele>
        <time>2019-08-08T16:05:36Z</time>
      </trkpt>
      <trkpt lat="48.56047" lon="7.61887">
        <ele>149.2</ele>
        <time>2019-08-08T16:05:37Z</time>
      </trkpt>
      <trkpt lat="48.56041" lon="7.61887">
        <ele>149</ele>
        <time>2019-08-08T16:05:38Z</time>
      </trkpt>
      <trkpt lat="48.56035" lon="7.61887">
        <ele>148.9</ele>
        <time>2019-08-08T16:05:39Z</time>
      </trkpt>
      <trkpt lat="48.5603" lon="7.61888">
        <ele>148.8</ele>
        <time>2019-08-08T16:05:40Z</time>
      </trkpt>
      <trkpt lat="48.56026" lon="7.6189">
        <ele>148.7</ele>
        <time>2019-08-08T16:05:41Z</time>
      </trkpt>
      <trkpt lat="48.56019" lon="7.61891">
        <ele>148.6</ele>
        <time>2019-08-08T16:05:42Z</time>
      </trkpt>
      <trkpt lat="48.56014" lon="7.61892">
        <ele>148.6</ele>
        <time>2019-08-08T16:05:43Z</time>
      </trkpt>
      <trkpt lat="48.56009" lon="7.61892">
        <ele>148.5</ele>
        <time>2019-08-08T16:05:44Z</time>
      </trkpt>
      <trkpt lat="48.56003" lon="7.61892">
        <ele>148.5</ele>
        <time>2019-08-08T16:05:45Z</time>
      </trkpt>
      <trkpt lat="48.55999" lon="7.61893">
        <ele>148.5</ele>
        <time>2019-08-08T16:05:46Z</time>
      </trkpt>
      <trkpt lat="48.55994" lon="7.61893">
        <ele>148.5</ele>
        <time>2019-08-08T16:05:47Z</time>
      </trkpt>
      <trkpt lat="48.5599" lon="7.61894">
        <ele>148.5</ele>
        <time>2019-08-08T16:05:48Z</time>
      </trkpt>
      <trkpt lat="48.55985" lon="7.61893">
        <ele>148.5</ele>
        <time>2019-08-08T16:05:49Z</time>
      </trkpt>
      <trkpt lat="48.55981" lon="7.61893">
        <ele>148.6</ele>
        <time>2019-08-08T16:05:50Z</time>
      </trkpt>
      <trkpt lat="48.55977" lon="7.61893">
        <ele>148.6</ele>
        <time>2019-08-08T16:05:51Z</time>
      </trkpt>
      <trkpt lat="48.55974" lon="7.61891">
        <ele>148.6</ele>
        <time>2019-08-08T16:05:52Z</time>
      </trkpt>
      <trkpt lat="48.55971" lon="7.6189">
        <ele>148.6</ele>
        <time>2019-08-08T16:05:53Z</time>
      </trkpt>
      <trkpt lat="48.55967" lon="7.61888">
        <ele>148.6</ele>
        <time>2019-08-08T16:05:55Z</time>
      </trkpt>
      <trkpt lat="48.55963" lon="7.61887">
        <ele>148.6</ele>
        <time>2019-08-08T16:05:57Z</time>
      </trkpt>
      <trkpt lat="48.55959" lon="7.61885">
        <ele>148.6</ele>
        <time>2019-08-08T16:05:59Z</time>
      </trkpt>
      <trkpt lat="48.55955" lon="7.61882">
        <ele>148.6</ele>
        <time>2019-08-08T16:06:01Z</time>
      </trkpt>
      <trkpt lat="48.55952" lon="7.6188">
        <ele>148.6</ele>
        <time>2019-08-08T16:06:02Z</time>
      </trkpt>
      <trkpt lat="48.55949" lon="7.61877">
        <ele>148.6</ele>
        <time>2019-08-08T16:06:03Z</time>
      </trkpt>
      <trkpt lat="48.55946" lon="7.61875">
        <ele>148.5</ele>
        <time>2019-08-08T16:06:04Z</time>
      </trkpt>
      <trkpt lat="48.55943" lon="7.61871">
        <ele>148.5</ele>
        <time>2019-08-08T16:06:05Z</time>
      </trkpt>
      <trkpt lat="48.55939" lon="7.61869">
        <ele>148.5</ele>
        <time>2019-08-08T16:06:06Z</time>
      </trkpt>
      <trkpt lat="48.55936" lon="7.61866">
        <ele>148.5</ele>
        <time>2019-08-08T16:06:07Z</time>
      </trkpt>
      <trkpt lat="48.55932" lon="7.61864">
        <ele>148.5</ele>
        <time>2019-08-08T16:06:08Z</time>
      </trkpt>
      <trkpt lat="48.55928" lon="7.61861">
        <ele>148.5</ele>
        <time>2019-08-08T16:06:09Z</time>
      </trkpt>
      <trkpt lat="48.55923" lon="7.61857">
        <ele>148.4</ele>
        <time>2019-08-08T16:06:10Z</time>
      </trkpt>
      <trkpt lat="48.55918" lon="7.61854">
        <ele>148.4</ele>
        <time>2019-08-08T16:06:11Z</time>
      </trkpt>
      <trkpt lat="48.55914" lon="7.61851">
        <ele>148.4</ele>
        <time>2019-08-08T16:06:12Z</time>
      </trkpt>
      <trkpt lat="48.55909" lon="7.61847">
        <ele>148.4</ele>
        <time>2019-08-08T16:06:13Z</time>
      </trkpt>
      <trkpt lat="48.55905" lon="7.61844">
        <ele>148.4</ele>
        <time>2019-08-08T16:06:14Z</time>
      </trkpt>
      <trkpt lat="48.559" lon="7.61841">
        <ele>148.4</ele>
        <time>2019-08-08T16:06:15Z</time>
      </trkpt>
      <trkpt lat="48.55896" lon="7.61837">
        <ele>148.4</ele>
        <time>2019-08-08T16:06:16Z</time>
      </trkpt>
      <trkpt lat="48.5589" lon="7.61835">
        <ele>148.4</ele>
        <time>2019-08-08T16:06:17Z</time>
      </trkpt>
      <trkpt lat="48.55883" lon="7.61833">
        <ele>148.4</ele>
        <time>2019-08-08T16:06:18Z</time>
      </trkpt>
      <trkpt lat="48.55877" lon="7.6183">
        <ele>148.4</ele>
        <time>2019-08-08T16:06:19Z</time>
      </trkpt>
      <trkpt lat="48.5587" lon="7.61828">
        <ele>148.5</ele>
        <time>2019-08-08T16:06:20Z</time>
      </trkpt>
      <trkpt lat="48.55865" lon="7.61825">
        <ele>148.5</ele>
        <time>2019-08-08T16:06:21Z</time>
      </trkpt>
      <trkpt lat="48.5586" lon="7.61822">
        <ele>148.5</ele>
        <time>2019-08-08T16:06:22Z</time>
      </trkpt>
      <trkpt lat="48.55856" lon="7.61819">
        <ele>148.6</ele>
        <time>2019-08-08T16:06:23Z</time>
      </trkpt>
      <trkpt lat="48.55853" lon="7.61816">
        <ele>148.6</ele>
        <time>2019-08-08T16:06:24Z</time>
      </trkpt>
      <trkpt lat="48.55847" lon="7.61813">
        <ele>148.7</ele>
        <time>2019-08-08T16:06:25Z</time>
      </trkpt>
      <trkpt lat="48.55843" lon="7.61809">
        <ele>148.8</ele>
        <time>2019-08-08T16:06:26Z</time>
      </trkpt>
      <trkpt lat="48.55838" lon="7.61805">
        <ele>148.9</ele>
        <time>2019-08-08T16:06:27Z</time>
      </trkpt>
      <trkpt lat="48.55833" lon="7.61802">
        <ele>149</ele>
        <time>2019-08-08T16:06:28Z</time>
      </trkpt>
      <trkpt lat="48.55828" lon="7.618">
        <ele>149.2</ele>
        <time>2019-08-08T16:06:29Z</time>
      </trkpt>
      <trkpt lat="48.55823" lon="7.61798">
        <ele>149.4</ele>
        <time>2019-08-08T16:06:30Z</time>
      </trkpt>
      <trkpt lat="48.55818" lon="7.61795">
        <ele>149.6</ele>
        <time>2019-08-08T16:06:31Z</time>
      </trkpt>
      <trkpt lat="48.55813" lon="7.61792">
        <ele>149.8</ele>
        <time>2019-08-08T16:06:32Z</time>
      </trkpt>
      <trkpt lat="48.55807" lon="7.61788">
        <ele>150</ele>
        <time>2019-08-08T16:06:33Z</time>
      </trkpt>
      <trkpt lat="48.55801" lon="7.61785">
        <ele>150.3</ele>
        <time>2019-08-08T16:06:34Z</time>
      </trkpt>
      <trkpt lat="48.55795" lon="7.61783">
        <ele>150.5</ele>
        <time>2019-08-08T16:06:35Z</time>
      </trkpt>
      <trkpt lat="48.5579" lon="7.61782">
        <ele>150.6</ele>
        <time>2019-08-08T16:06:36Z</time>
      </trkpt>
      <trkpt lat="48.55785" lon="7.6178">
        <ele>150.7</ele>
        <time>2019-08-08T16:06:37Z</time>
      </trkpt>
      <trkpt lat="48.5578" lon="7.61778">
        <ele>150.8</ele>
        <time>2019-08-08T16:06:38Z</time>
      </trkpt>
      <trkpt lat="48.55776" lon="7.61775">
        <ele>150.9</ele>
        <time>2019-08-08T16:06:39Z</time>
      </trkpt>
      <trkpt lat="48.55772" lon="7.61772">
        <ele>150.9</ele>
        <time>2019-08-08T16:06:40Z</time>
      </trkpt>
      <trkpt lat="48.55767" lon="7.6177">
        <ele>150.9</ele>
        <time>2019-08-08T16:06:41Z</time>
      </trkpt>
      <trkpt lat="48.55763" lon="7.61767">
        <ele>151</ele>
        <time>2019-08-08T16:06:42Z</time>
      </trkpt>
      <trkpt lat="48.55758" lon="7.61762">
        <ele>151</ele>
        <time>2019-08-08T16:06:43Z</time>
      </trkpt>
      <trkpt lat="48.55754" lon="7.61758">
        <ele>151.1</ele>
        <time>2019-08-08T16:06:44Z</time>
      </trkpt>
      <trkpt lat="48.5575" lon="7.61753">
        <ele>151.1</ele>
        <time>2019-08-08T16:06:45Z</time>
      </trkpt>
      <trkpt lat="48.55745" lon="7.61752">
        <ele>151.2</ele>
        <time>2019-08-08T16:06:46Z</time>
      </trkpt>
      <trkpt lat="48.5574" lon="7.61749">
        <ele>151.2</ele>
        <time>2019-08-08T16:06:47Z</time>
      </trkpt>
      <trkpt lat="48.55735" lon="7.61747">
        <ele>151.3</ele>
        <time>2019-08-08T16:06:48Z</time>
      </trkpt>
      <trkpt lat="48.5573" lon="7.61747">
        <ele>151.3</ele>
        <time>2019-08-08T16:06:49Z</time>
      </trkpt>
      <trkpt lat="48.55726" lon="7.61744">
        <ele>151.4</ele>
        <time>2019-08-08T16:06:50Z</time>
      </trkpt>
      <trkpt lat="48.55721" lon="7.61741">
        <ele>151.4</ele>
        <time>2019-08-08T16:06:51Z</time>
      </trkpt>
      <trkpt lat="48.55719" lon="7.61738">
        <ele>151.5</ele>
        <time>2019-08-08T16:06:52Z</time>
      </trkpt>
      <trkpt lat="48.55714" lon="7.61734">
        <ele>151.6</ele>
        <time>2019-08-08T16:06:54Z</time>
      </trkpt>
      <trkpt lat="48.55712" lon="7.61732">
        <ele>151.6</ele>
        <time>2019-08-08T16:06:55Z</time>
      </trkpt>
      <trkpt lat="48.55708" lon="7.61729">
        <ele>151.6</ele>
        <time>2019-08-08T16:06:57Z</time>
      </trkpt>
      <trkpt lat="48.55706" lon="7.61724">
        <ele>151.7</ele>
        <time>2019-08-08T16:06:59Z</time>
      </trkpt>
      <trkpt lat="48.55701" lon="7.61724">
        <ele>151.8</ele>
        <time>2019-08-08T16:07:00Z</time>
      </trkpt>
      <trkpt lat="48.55695" lon="7.61727">
        <ele>151.8</ele>
        <time>2019-08-08T16:07:01Z</time>
      </trkpt>
      <trkpt lat="48.55691" lon="7.61728">
        <ele>151.9</ele>
        <time>2019-08-08T16:07:02Z</time>
      </trkpt>
      <trkpt lat="48.55686" lon="7.61729">
        <ele>151.9</ele>
        <time>2019-08-08T16:07:03Z</time>
      </trkpt>
      <trkpt lat="48.55683" lon="7.61729">
        <ele>152</ele>
        <time>2019-08-08T16:07:04Z</time>
      </trkpt>
      <trkpt lat="48.55681" lon="7.61733">
        <ele>152</ele>
        <time>2019-08-08T16:07:06Z</time>
      </trkpt>
      <trkpt lat="48.55677" lon="7.6173">
        <ele>152.1</ele>
        <time>2019-08-08T16:07:11Z</time>
      </trkpt>
      <trkpt lat="48.55674" lon="7.61727">
        <ele>152.1</ele>
        <time>2019-08-08T16:07:12Z</time>
      </trkpt>
      <trkpt lat="48.55672" lon="7.61724">
        <ele>152.1</ele>
        <time>2019-08-08T16:07:13Z</time>
      </trkpt>
      <trkpt lat="48.55669" lon="7.61722">
        <ele>152.2</ele>
        <time>2019-08-08T16:07:14Z</time>
      </trkpt>
      <trkpt lat="48.55666" lon="7.61719">
        <ele>152.2</ele>
        <time>2019-08-08T16:07:15Z</time>
      </trkpt>
      <trkpt lat="48.55661" lon="7.61716">
        <ele>152.4</ele>
        <time>2019-08-08T16:07:17Z</time>
      </trkpt>
      <trkpt lat="48.55658" lon="7.61712">
        <ele>152.4</ele>
        <time>2019-08-08T16:07:18Z</time>
      </trkpt>
      <trkpt lat="48.55654" lon="7.6171">
        <ele>152.5</ele>
        <time>2019-08-08T16:07:19Z</time>
      </trkpt>
      <trkpt lat="48.55651" lon="7.61707">
        <ele>152.5</ele>
        <time>2019-08-08T16:07:20Z</time>
      </trkpt>
      <trkpt lat="48.55648" lon="7.61705">
        <ele>152.6</ele>
        <time>2019-08-08T16:07:21Z</time>
      </trkpt>
      <trkpt lat="48.55646" lon="7.61703">
        <ele>152.6</ele>
        <time>2019-08-08T16:07:22Z</time>
      </trkpt>
      <trkpt lat="48.55643" lon="7.61702">
        <ele>152.6</ele>
        <time>2019-08-08T16:07:23Z</time>
      </trkpt>
      <trkpt lat="48.5564" lon="7.61696">
        <ele>152.7</ele>
        <time>2019-08-08T16:07:25Z</time>
      </trkpt>
      <trkpt lat="48.55636" lon="7.6169">
        <ele>152.7</ele>
        <time>2019-08-08T16:07:27Z</time>
      </trkpt>
      <trkpt lat="48.55632" lon="7.61689">
        <ele>152.7</ele>
        <time>2019-08-08T16:07:28Z</time>
      </trkpt>
      <trkpt lat="48.55628" lon="7.61687">
        <ele>152.7</ele>
        <time>2019-08-08T16:07:29Z</time>
      </trkpt>
      <trkpt lat="48.55625" lon="7.61687">
        <ele>152.8</ele>
        <time>2019-08-08T16:07:30Z</time>
      </trkpt>
      <trkpt lat="48.5562" lon="7.61686">
        <ele>152.8</ele>
        <time>2019-08-08T16:07:31Z</time>
      </trkpt>
      <trkpt lat="48.55617" lon="7.61687">
        <ele>152.8</ele>
        <time>2019-08-08T16:07:33Z</time>
      </trkpt>
      <trkpt lat="48.55615" lon="7.61691">
        <ele>152.8</ele>
        <time>2019-08-08T16:07:35Z</time>
      </trkpt>
      <trkpt lat="48.55613" lon="7.61694">
        <ele>152.8</ele>
        <time>2019-08-08T16:07:37Z</time>
      </trkpt>
      <trkpt lat="48.5561" lon="7.61678">
        <ele>152.8</ele>
        <time>2019-08-08T16:10:56Z</time>
      </trkpt>
      <trkpt lat="48.55613" lon="7.61681">
        <ele>152.8</ele>
        <time>2019-08-08T16:10:59Z</time>
      </trkpt>
      <trkpt lat="48.55615" lon="7.61685">
        <ele>152.9</ele>
        <time>2019-08-08T16:11:03Z</time>
      </trkpt>
      <trkpt lat="48.55617" lon="7.61688">
        <ele>152.9</ele>
        <time>2019-08-08T16:11:08Z</time>
      </trkpt>
      <trkpt lat="48.55615" lon="7.61698">
        <ele>152.9</ele>
        <time>2019-08-08T16:12:24Z</time>
      </trkpt>
      <trkpt lat="48.55613" lon="7.61696">
        <ele>152.9</ele>
        <time>2019-08-08T16:12:25Z</time>
      </trkpt>
      <trkpt lat="48.55612" lon="7.61702">
        <ele>152.9</ele>
        <time>2019-08-08T16:12:27Z</time>
      </trkpt>
      <trkpt lat="48.55612" lon="7.61706">
        <ele>152.9</ele>
        <time>2019-08-08T16:12:29Z</time>
      </trkpt>
      <trkpt lat="48.55614" lon="7.61709">
        <ele>152.9</ele>
        <time>2019-08-08T16:12:36Z</time>
      </trkpt>
      <trkpt lat="48.55617" lon="7.61707">
        <ele>152.9</ele>
        <time>2019-08-08T16:12:40Z</time>
      </trkpt>
      <trkpt lat="48.5562" lon="7.61705">
        <ele>152.9</ele>
        <time>2019-08-08T16:12:43Z</time>
      </trkpt>
      <trkpt lat="48.55619" lon="7.61701">
        <ele>152.9</ele>
        <time>2019-08-08T16:12:48Z</time>
      </trkpt>
      <trkpt lat="48.55621" lon="7.61697">
        <ele>152.9</ele>
        <time>2019-08-08T16:12:55Z</time>
      </trkpt>
      <trkpt lat="48.55619" lon="7.61694">
        <ele>152.9</ele>
        <time>2019-08-08T16:12:58Z</time>
      </trkpt>
      <trkpt lat="48.55617" lon="7.6169">
        <ele>152.9</ele>
        <time>2019-08-08T16:13:03Z</time>
      </trkpt>
      <trkpt lat="48.55616" lon="7.61685">
        <ele>152.9</ele>
        <time>2019-08-08T16:13:05Z</time>
      </trkpt>
      <trkpt lat="48.55614" lon="7.61681">
        <ele>152.9</ele>
        <time>2019-08-08T16:13:08Z</time>
      </trkpt>
      <trkpt lat="48.55611" lon="7.6168">
        <ele>152.8</ele>
        <time>2019-08-08T16:13:15Z</time>
      </trkpt>
      <trkpt lat="48.55609" lon="7.61676">
        <ele>152.7</ele>
        <time>2019-08-08T16:13:20Z</time>
      </trkpt>
      <trkpt lat="48.55605" lon="7.61676">
        <ele>152.6</ele>
        <time>2019-08-08T16:13:23Z</time>
      </trkpt>
      <trkpt lat="48.55602" lon="7.61668">
        <ele>152.4</ele>
        <time>2019-08-08T16:14:54Z</time>
      </trkpt>
      <trkpt lat="48.55602" lon="7.61663">
        <ele>152.4</ele>
        <time>2019-08-08T16:14:56Z</time>
      </trkpt>
      <trkpt lat="48.55601" lon="7.61659">
        <ele>152.3</ele>
        <time>2019-08-08T16:14:57Z</time>
      </trkpt>
      <trkpt lat="48.55599" lon="7.61651">
        <ele>152.2</ele>
        <time>2019-08-08T16:14:58Z</time>
      </trkpt>
      <trkpt lat="48.55597" lon="7.61644">
        <ele>152.1</ele>
        <time>2019-08-08T16:14:59Z</time>
      </trkpt>
      <trkpt lat="48.55596" lon="7.61639">
        <ele>152</ele>
        <time>2019-08-08T16:15:00Z</time>
      </trkpt>
      <trkpt lat="48.55595" lon="7.61633">
        <ele>151.9</ele>
        <time>2019-08-08T16:15:01Z</time>
      </trkpt>
      <trkpt lat="48.55594" lon="7.61626">
        <ele>151.9</ele>
        <time>2019-08-08T16:15:02Z</time>
      </trkpt>
      <trkpt lat="48.55593" lon="7.61622">
        <ele>151.8</ele>
        <time>2019-08-08T16:15:03Z</time>
      </trkpt>
      <trkpt lat="48.55592" lon="7.61614">
        <ele>151.8</ele>
        <time>2019-08-08T16:15:04Z</time>
      </trkpt>
      <trkpt lat="48.55591" lon="7.61608">
        <ele>151.7</ele>
        <time>2019-08-08T16:15:05Z</time>
      </trkpt>
      <trkpt lat="48.5559" lon="7.61602">
        <ele>151.7</ele>
        <time>2019-08-08T16:15:06Z</time>
      </trkpt>
      <trkpt lat="48.55588" lon="7.61595">
        <ele>151.7</ele>
        <time>2019-08-08T16:15:07Z</time>
      </trkpt>
      <trkpt lat="48.55586" lon="7.6159">
        <ele>151.7</ele>
        <time>2019-08-08T16:15:08Z</time>
      </trkpt>
      <trkpt lat="48.55584" lon="7.61585">
        <ele>151.7</ele>
        <time>2019-08-08T16:15:09Z</time>
      </trkpt>
      <trkpt lat="48.55582" lon="7.61581">
        <ele>151.6</ele>
        <time>2019-08-08T16:15:10Z</time>
      </trkpt>
      <trkpt lat="48.5558" lon="7.61576">
        <ele>151.6</ele>
        <time>2019-08-08T16:15:11Z</time>
      </trkpt>
      <trkpt lat="48.55577" lon="7.61571">
        <ele>151.6</ele>
        <time>2019-08-08T16:15:12Z</time>
      </trkpt>
      <trkpt lat="48.55574" lon="7.61567">
        <ele>151.6</ele>
        <time>2019-08-08T16:15:13Z</time>
      </trkpt>
      <trkpt lat="48.5557" lon="7.61563">
        <ele>151.6</ele>
        <time>2019-08-08T16:15:14Z</time>
      </trkpt>
      <trkpt lat="48.55567" lon="7.61558">
        <ele>151.6</ele>
        <time>2019-08-08T16:15:15Z</time>
      </trkpt>
      <trkpt lat="48.55563" lon="7.61552">
        <ele>151.6</ele>
        <time>2019-08-08T16:15:16Z</time>
      </trkpt>
      <trkpt lat="48.55558" lon="7.61548">
        <ele>151.6</ele>
        <time>2019-08-08T16:15:17Z</time>
      </trkpt>
      <trkpt lat="48.55555" lon="7.61542">
        <ele>151.6</ele>
        <time>2019-08-08T16:15:18Z</time>
      </trkpt>
      <trkpt lat="48.55552" lon="7.61536">
        <ele>151.5</ele>
        <time>2019-08-08T16:15:19Z</time>
      </trkpt>
      <trkpt lat="48.55549" lon="7.61529">
        <ele>151.5</ele>
        <time>2019-08-08T16:15:20Z</time>
      </trkpt>
      <trkpt lat="48.55547" lon="7.61524">
        <ele>151.5</ele>
        <time>2019-08-08T16:15:21Z</time>
      </trkpt>
      <trkpt lat="48.55544" lon="7.61518">
        <ele>151.5</ele>
        <time>2019-08-08T16:15:22Z</time>
      </trkpt>
      <trkpt lat="48.55543" lon="7.61513">
        <ele>151.5</ele>
        <time>2019-08-08T16:15:23Z</time>
      </trkpt>
      <trkpt lat="48.5554" lon="7.61508">
        <ele>151.5</ele>
        <time>2019-08-08T16:15:24Z</time>
      </trkpt>
      <trkpt lat="48.55538" lon="7.61502">
        <ele>151.5</ele>
        <time>2019-08-08T16:15:25Z</time>
      </trkpt>
      <trkpt lat="48.55536" lon="7.61497">
        <ele>151.5</ele>
        <time>2019-08-08T16:15:26Z</time>
      </trkpt>
      <trkpt lat="48.55533" lon="7.61492">
        <ele>151.5</ele>
        <time>2019-08-08T16:15:27Z</time>
      </trkpt>
      <trkpt lat="48.55531" lon="7.61486">
        <ele>151.5</ele>
        <time>2019-08-08T16:15:28Z</time>
      </trkpt>
      <trkpt lat="48.55528" lon="7.6148">
        <ele>151.5</ele>
        <time>2019-08-08T16:15:29Z</time>
      </trkpt>
      <trkpt lat="48.55525" lon="7.61475">
        <ele>151.5</ele>
        <time>2019-08-08T16:15:30Z</time>
      </trkpt>
      <trkpt lat="48.55523" lon="7.61469">
        <ele>151.5</ele>
        <time>2019-08-08T16:15:31Z</time>
      </trkpt>
      <trkpt lat="48.5552" lon="7.61463">
        <ele>151.5</ele>
        <time>2019-08-08T16:15:32Z</time>
      </trkpt>
      <trkpt lat="48.55518" lon="7.61457">
        <ele>151.5</ele>
        <time>2019-08-08T16:15:33Z</time>
      </trkpt>
      <trkpt lat="48.55516" lon="7.6145">
        <ele>151.5</ele>
        <time>2019-08-08T16:15:34Z</time>
      </trkpt>
      <trkpt lat="48.55514" lon="7.61444">
        <ele>151.5</ele>
        <time>2019-08-08T16:15:35Z</time>
      </trkpt>
      <trkpt lat="48.55511" lon="7.61437">
        <ele>151.5</ele>
        <time>2019-08-08T16:15:36Z</time>
      </trkpt>
      <trkpt lat="48.55509" lon="7.6143">
        <ele>151.5</ele>
        <time>2019-08-08T16:15:37Z</time>
      </trkpt>
      <trkpt lat="48.55508" lon="7.61425">
        <ele>151.5</ele>
        <time>2019-08-08T16:15:38Z</time>
      </trkpt>
      <trkpt lat="48.55506" lon="7.61418">
        <ele>151.5</ele>
        <time>2019-08-08T16:15:39Z</time>
      </trkpt>
      <trkpt lat="48.55504" lon="7.61412">
        <ele>151.5</ele>
        <time>2019-08-08T16:15:40Z</time>
      </trkpt>
      <trkpt lat="48.55503" lon="7.61405">
        <ele>151.5</ele>
        <time>2019-08-08T16:15:41Z</time>
      </trkpt>
      <trkpt lat="48.55501" lon="7.61398">
        <ele>151.5</ele>
        <time>2019-08-08T16:15:42Z</time>
      </trkpt>
      <trkpt lat="48.555" lon="7.61391">
        <ele>151.5</ele>
        <time>2019-08-08T16:15:43Z</time>
      </trkpt>
      <trkpt lat="48.55499" lon="7.61385">
        <ele>151.5</ele>
        <time>2019-08-08T16:15:44Z</time>
      </trkpt>
      <trkpt lat="48.55498" lon="7.61379">
        <ele>151.5</ele>
        <time>2019-08-08T16:15:45Z</time>
      </trkpt>
      <trkpt lat="48.55497" lon="7.61373">
        <ele>151.6</ele>
        <time>2019-08-08T16:15:46Z</time>
      </trkpt>
      <trkpt lat="48.55496" lon="7.61367">
        <ele>151.6</ele>
        <time>2019-08-08T16:15:47Z</time>
      </trkpt>
      <trkpt lat="48.55496" lon="7.6136">
        <ele>151.6</ele>
        <time>2019-08-08T16:15:48Z</time>
      </trkpt>
      <trkpt lat="48.55495" lon="7.61355">
        <ele>151.6</ele>
        <time>2019-08-08T16:15:49Z</time>
      </trkpt>
      <trkpt lat="48.55494" lon="7.61348">
        <ele>151.6</ele>
        <time>2019-08-08T16:15:50Z</time>
      </trkpt>
      <trkpt lat="48.55493" lon="7.61342">
        <ele>151.6</ele>
        <time>2019-08-08T16:15:51Z</time>
      </trkpt>
      <trkpt lat="48.55492" lon="7.61335">
        <ele>151.7</ele>
        <time>2019-08-08T16:15:52Z</time>
      </trkpt>
      <trkpt lat="48.55491" lon="7.61327">
        <ele>151.7</ele>
        <time>2019-08-08T16:15:53Z</time>
      </trkpt>
      <trkpt lat="48.5549" lon="7.61319">
        <ele>151.7</ele>
        <time>2019-08-08T16:15:54Z</time>
      </trkpt>
      <trkpt lat="48.55489" lon="7.61312">
        <ele>151.8</ele>
        <time>2019-08-08T16:15:55Z</time>
      </trkpt>
      <trkpt lat="48.55488" lon="7.61305">
        <ele>151.8</ele>
        <time>2019-08-08T16:15:56Z</time>
      </trkpt>
      <trkpt lat="48.55487" lon="7.61298">
        <ele>151.8</ele>
        <time>2019-08-08T16:15:57Z</time>
      </trkpt>
      <trkpt lat="48.55486" lon="7.61291">
        <ele>151.8</ele>
        <time>2019-08-08T16:15:58Z</time>
      </trkpt>
      <trkpt lat="48.55485" lon="7.61285">
        <ele>151.9</ele>
        <time>2019-08-08T16:15:59Z</time>
      </trkpt>
      <trkpt lat="48.55482" lon="7.61279">
        <ele>151.9</ele>
        <time>2019-08-08T16:16:00Z</time>
      </trkpt>
      <trkpt lat="48.5548" lon="7.61274">
        <ele>151.9</ele>
        <time>2019-08-08T16:16:01Z</time>
      </trkpt>
      <trkpt lat="48.55477" lon="7.61268">
        <ele>151.9</ele>
        <time>2019-08-08T16:16:02Z</time>
      </trkpt>
      <trkpt lat="48.55475" lon="7.61261">
        <ele>152</ele>
        <time>2019-08-08T16:16:03Z</time>
      </trkpt>
      <trkpt lat="48.55472" lon="7.61255">
        <ele>152</ele>
        <time>2019-08-08T16:16:04Z</time>
      </trkpt>
      <trkpt lat="48.55469" lon="7.61248">
        <ele>152</ele>
        <time>2019-08-08T16:16:05Z</time>
      </trkpt>
      <trkpt lat="48.55467" lon="7.61241">
        <ele>152</ele>
        <time>2019-08-08T16:16:06Z</time>
      </trkpt>
      <trkpt lat="48.55465" lon="7.61236">
        <ele>152.1</ele>
        <time>2019-08-08T16:16:07Z</time>
      </trkpt>
      <trkpt lat="48.55462" lon="7.61229">
        <ele>152.1</ele>
        <time>2019-08-08T16:16:08Z</time>
      </trkpt>
      <trkpt lat="48.55461" lon="7.61223">
        <ele>152.1</ele>
        <time>2019-08-08T16:16:09Z</time>
      </trkpt>
      <trkpt lat="48.55459" lon="7.61216">
        <ele>152.1</ele>
        <time>2019-08-08T16:16:10Z</time>
      </trkpt>
      <trkpt lat="48.55458" lon="7.6121">
        <ele>152.1</ele>
        <time>2019-08-08T16:16:11Z</time>
      </trkpt>
      <trkpt lat="48.55457" lon="7.61202">
        <ele>152.1</ele>
        <time>2019-08-08T16:16:12Z</time>
      </trkpt>
      <trkpt lat="48.55456" lon="7.61194">
        <ele>152.1</ele>
        <time>2019-08-08T16:16:13Z</time>
      </trkpt>
      <trkpt lat="48.55454" lon="7.6119">
        <ele>152.2</ele>
        <time>2019-08-08T16:16:14Z</time>
      </trkpt>
      <trkpt lat="48.55452" lon="7.61184">
        <ele>152.2</ele>
        <time>2019-08-08T16:16:15Z</time>
      </trkpt>
      <trkpt lat="48.5545" lon="7.61178">
        <ele>152.2</ele>
        <time>2019-08-08T16:16:16Z</time>
      </trkpt>
      <trkpt lat="48.55448" lon="7.61171">
        <ele>152.2</ele>
        <time>2019-08-08T16:16:17Z</time>
      </trkpt>
      <trkpt lat="48.55446" lon="7.61166">
        <ele>152.2</ele>
        <time>2019-08-08T16:16:18Z</time>
      </trkpt>
      <trkpt lat="48.55444" lon="7.6116">
        <ele>152.2</ele>
        <time>2019-08-08T16:16:19Z</time>
      </trkpt>
      <trkpt lat="48.55442" lon="7.61154">
        <ele>152.2</ele>
        <time>2019-08-08T16:16:20Z</time>
      </trkpt>
      <trkpt lat="48.5544" lon="7.61148">
        <ele>152.1</ele>
        <time>2019-08-08T16:16:21Z</time>
      </trkpt>
      <trkpt lat="48.55438" lon="7.61141">
        <ele>152.1</ele>
        <time>2019-08-08T16:16:22Z</time>
      </trkpt>
      <trkpt lat="48.55437" lon="7.61135">
        <ele>152.1</ele>
        <time>2019-08-08T16:16:23Z</time>
      </trkpt>
      <trkpt lat="48.55436" lon="7.61128">
        <ele>152.1</ele>
        <time>2019-08-08T16:16:24Z</time>
      </trkpt>
      <trkpt lat="48.55436" lon="7.61122">
        <ele>152.1</ele>
        <time>2019-08-08T16:16:25Z</time>
      </trkpt>
      <trkpt lat="48.55435" lon="7.61116">
        <ele>152.1</ele>
        <time>2019-08-08T16:16:26Z</time>
      </trkpt>
      <trkpt lat="48.55433" lon="7.6111">
        <ele>152.1</ele>
        <time>2019-08-08T16:16:27Z</time>
      </trkpt>
      <trkpt lat="48.55432" lon="7.61104">
        <ele>152.1</ele>
        <time>2019-08-08T16:16:28Z</time>
      </trkpt>
      <trkpt lat="48.5543" lon="7.61098">
        <ele>152.1</ele>
        <time>2019-08-08T16:16:29Z</time>
      </trkpt>
      <trkpt lat="48.55428" lon="7.61092">
        <ele>152.1</ele>
        <time>2019-08-08T16:16:30Z</time>
      </trkpt>
      <trkpt lat="48.55426" lon="7.61086">
        <ele>152</ele>
        <time>2019-08-08T16:16:31Z</time>
      </trkpt>
      <trkpt lat="48.55424" lon="7.6108">
        <ele>152</ele>
        <time>2019-08-08T16:16:32Z</time>
      </trkpt>
      <trkpt lat="48.55422" lon="7.61075">
        <ele>152.1</ele>
        <time>2019-08-08T16:16:33Z</time>
      </trkpt>
      <trkpt lat="48.55419" lon="7.61069">
        <ele>152.1</ele>
        <time>2019-08-08T16:16:34Z</time>
      </trkpt>
      <trkpt lat="48.55417" lon="7.61065">
        <ele>152.1</ele>
        <time>2019-08-08T16:16:35Z</time>
      </trkpt>
      <trkpt lat="48.55415" lon="7.61059">
        <ele>152.1</ele>
        <time>2019-08-08T16:16:36Z</time>
      </trkpt>
      <trkpt lat="48.55413" lon="7.61053">
        <ele>152.1</ele>
        <time>2019-08-08T16:16:37Z</time>
      </trkpt>
      <trkpt lat="48.55412" lon="7.61046">
        <ele>152.1</ele>
        <time>2019-08-08T16:16:38Z</time>
      </trkpt>
      <trkpt lat="48.5541" lon="7.61038">
        <ele>152.2</ele>
        <time>2019-08-08T16:16:39Z</time>
      </trkpt>
      <trkpt lat="48.55408" lon="7.61032">
        <ele>152.2</ele>
        <time>2019-08-08T16:16:40Z</time>
      </trkpt>
      <trkpt lat="48.55406" lon="7.61025">
        <ele>152.2</ele>
        <time>2019-08-08T16:16:41Z</time>
      </trkpt>
      <trkpt lat="48.55405" lon="7.61018">
        <ele>152.3</ele>
        <time>2019-08-08T16:16:42Z</time>
      </trkpt>
      <trkpt lat="48.55405" lon="7.61012">
        <ele>152.5</ele>
        <time>2019-08-08T16:16:43Z</time>
      </trkpt>
      <trkpt lat="48.55404" lon="7.61007">
        <ele>152.5</ele>
        <time>2019-08-08T16:16:44Z</time>
      </trkpt>
      <trkpt lat="48.55403" lon="7.61">
        <ele>152.6</ele>
        <time>2019-08-08T16:16:45Z</time>
      </trkpt>
      <trkpt lat="48.55402" lon="7.60994">
        <ele>152.7</ele>
        <time>2019-08-08T16:16:46Z</time>
      </trkpt>
      <trkpt lat="48.55401" lon="7.60987">
        <ele>152.7</ele>
        <time>2019-08-08T16:16:47Z</time>
      </trkpt>
      <trkpt lat="48.55399" lon="7.60981">
        <ele>152.8</ele>
        <time>2019-08-08T16:16:48Z</time>
      </trkpt>
      <trkpt lat="48.55399" lon="7.60975">
        <ele>152.9</ele>
        <time>2019-08-08T16:16:49Z</time>
      </trkpt>
      <trkpt lat="48.55398" lon="7.60969">
        <ele>152.9</ele>
        <time>2019-08-08T16:16:50Z</time>
      </trkpt>
      <trkpt lat="48.55397" lon="7.60962">
        <ele>153</ele>
        <time>2019-08-08T16:16:51Z</time>
      </trkpt>
      <trkpt lat="48.55397" lon="7.60955">
        <ele>153.1</ele>
        <time>2019-08-08T16:16:52Z</time>
      </trkpt>
      <trkpt lat="48.55397" lon="7.60949">
        <ele>153.2</ele>
        <time>2019-08-08T16:16:53Z</time>
      </trkpt>
      <trkpt lat="48.55397" lon="7.60944">
        <ele>153.2</ele>
        <time>2019-08-08T16:16:54Z</time>
      </trkpt>
      <trkpt lat="48.55396" lon="7.60938">
        <ele>153.3</ele>
        <time>2019-08-08T16:16:55Z</time>
      </trkpt>
      <trkpt lat="48.55396" lon="7.60931">
        <ele>153.3</ele>
        <time>2019-08-08T16:16:56Z</time>
      </trkpt>
      <trkpt lat="48.55395" lon="7.60924">
        <ele>153.3</ele>
        <time>2019-08-08T16:16:57Z</time>
      </trkpt>
      <trkpt lat="48.55394" lon="7.60917">
        <ele>153.3</ele>
        <time>2019-08-08T16:16:58Z</time>
      </trkpt>
      <trkpt lat="48.55392" lon="7.60912">
        <ele>153.3</ele>
        <time>2019-08-08T16:16:59Z</time>
      </trkpt>
      <trkpt lat="48.55392" lon="7.60905">
        <ele>153.3</ele>
        <time>2019-08-08T16:17:00Z</time>
      </trkpt>
      <trkpt lat="48.55391" lon="7.60899">
        <ele>153.3</ele>
        <time>2019-08-08T16:17:01Z</time>
      </trkpt>
      <trkpt lat="48.55391" lon="7.60891">
        <ele>153.2</ele>
        <time>2019-08-08T16:17:02Z</time>
      </trkpt>
      <trkpt lat="48.5539" lon="7.60884">
        <ele>153.2</ele>
        <time>2019-08-08T16:17:03Z</time>
      </trkpt>
      <trkpt lat="48.55389" lon="7.60877">
        <ele>153.1</ele>
        <time>2019-08-08T16:17:04Z</time>
      </trkpt>
      <trkpt lat="48.55387" lon="7.6087">
        <ele>153.1</ele>
        <time>2019-08-08T16:17:05Z</time>
      </trkpt>
      <trkpt lat="48.55387" lon="7.60864">
        <ele>153.1</ele>
        <time>2019-08-08T16:17:06Z</time>
      </trkpt>
      <trkpt lat="48.55386" lon="7.60857">
        <ele>153.1</ele>
        <time>2019-08-08T16:17:07Z</time>
      </trkpt>
      <trkpt lat="48.55385" lon="7.6085">
        <ele>153.1</ele>
        <time>2019-08-08T16:17:08Z</time>
      </trkpt>
      <trkpt lat="48.55384" lon="7.60843">
        <ele>153.1</ele>
        <time>2019-08-08T16:17:09Z</time>
      </trkpt>
      <trkpt lat="48.55384" lon="7.60836">
        <ele>153.1</ele>
        <time>2019-08-08T16:17:10Z</time>
      </trkpt>
      <trkpt lat="48.55383" lon="7.60829">
        <ele>153.1</ele>
        <time>2019-08-08T16:17:11Z</time>
      </trkpt>
      <trkpt lat="48.55382" lon="7.60822">
        <ele>153.1</ele>
        <time>2019-08-08T16:17:12Z</time>
      </trkpt>
      <trkpt lat="48.55381" lon="7.60815">
        <ele>153.1</ele>
        <time>2019-08-08T16:17:13Z</time>
      </trkpt>
      <trkpt lat="48.55382" lon="7.60809">
        <ele>153.1</ele>
        <time>2019-08-08T16:17:14Z</time>
      </trkpt>
      <trkpt lat="48.55382" lon="7.60803">
        <ele>153.1</ele>
        <time>2019-08-08T16:17:15Z</time>
      </trkpt>
      <trkpt lat="48.55381" lon="7.60797">
        <ele>153.1</ele>
        <time>2019-08-08T16:17:16Z</time>
      </trkpt>
      <trkpt lat="48.55381" lon="7.60792">
        <ele>153.1</ele>
        <time>2019-08-08T16:17:17Z</time>
      </trkpt>
      <trkpt lat="48.55382" lon="7.60786">
        <ele>153.1</ele>
        <time>2019-08-08T16:17:18Z</time>
      </trkpt>
      <trkpt lat="48.55382" lon="7.60778">
        <ele>153.1</ele>
        <time>2019-08-08T16:17:19Z</time>
      </trkpt>
      <trkpt lat="48.55383" lon="7.60772">
        <ele>153.1</ele>
        <time>2019-08-08T16:17:20Z</time>
      </trkpt>
      <trkpt lat="48.55383" lon="7.60766">
        <ele>153</ele>
        <time>2019-08-08T16:17:21Z</time>
      </trkpt>
      <trkpt lat="48.55382" lon="7.6076">
        <ele>153</ele>
        <time>2019-08-08T16:17:22Z</time>
      </trkpt>
      <trkpt lat="48.55382" lon="7.60753">
        <ele>153</ele>
        <time>2019-08-08T16:17:23Z</time>
      </trkpt>
      <trkpt lat="48.55381" lon="7.60746">
        <ele>153</ele>
        <time>2019-08-08T16:17:24Z</time>
      </trkpt>
      <trkpt lat="48.55381" lon="7.6074">
        <ele>153</ele>
        <time>2019-08-08T16:17:25Z</time>
      </trkpt>
      <trkpt lat="48.55381" lon="7.60733">
        <ele>153</ele>
        <time>2019-08-08T16:17:26Z</time>
      </trkpt>
      <trkpt lat="48.55381" lon="7.60725">
        <ele>153</ele>
        <time>2019-08-08T16:17:27Z</time>
      </trkpt>
      <trkpt lat="48.55382" lon="7.60718">
        <ele>153</ele>
        <time>2019-08-08T16:17:28Z</time>
      </trkpt>
      <trkpt lat="48.55382" lon="7.60711">
        <ele>153.1</ele>
        <time>2019-08-08T16:17:29Z</time>
      </trkpt>
      <trkpt lat="48.55382" lon="7.60703">
        <ele>153.2</ele>
        <time>2019-08-08T16:17:30Z</time>
      </trkpt>
      <trkpt lat="48.55382" lon="7.60694">
        <ele>153.4</ele>
        <time>2019-08-08T16:17:31Z</time>
      </trkpt>
      <trkpt lat="48.55382" lon="7.60688">
        <ele>153.5</ele>
        <time>2019-08-08T16:17:32Z</time>
      </trkpt>
      <trkpt lat="48.55382" lon="7.60681">
        <ele>153.6</ele>
        <time>2019-08-08T16:17:33Z</time>
      </trkpt>
      <trkpt lat="48.55382" lon="7.60675">
        <ele>153.8</ele>
        <time>2019-08-08T16:17:34Z</time>
      </trkpt>
      <trkpt lat="48.55381" lon="7.60668">
        <ele>153.9</ele>
        <time>2019-08-08T16:17:35Z</time>
      </trkpt>
      <trkpt lat="48.55381" lon="7.60663">
        <ele>153.9</ele>
        <time>2019-08-08T16:17:36Z</time>
      </trkpt>
      <trkpt lat="48.5538" lon="7.60658">
        <ele>153.9</ele>
        <time>2019-08-08T16:17:37Z</time>
      </trkpt>
      <trkpt lat="48.5538" lon="7.60654">
        <ele>153.9</ele>
        <time>2019-08-08T16:17:38Z</time>
      </trkpt>
      <trkpt lat="48.5538" lon="7.60648">
        <ele>153.9</ele>
        <time>2019-08-08T16:17:39Z</time>
      </trkpt>
      <trkpt lat="48.55379" lon="7.60643">
        <ele>153.8</ele>
        <time>2019-08-08T16:17:40Z</time>
      </trkpt>
      <trkpt lat="48.5538" lon="7.60636">
        <ele>153.7</ele>
        <time>2019-08-08T16:17:41Z</time>
      </trkpt>
      <trkpt lat="48.55381" lon="7.60628">
        <ele>153.6</ele>
        <time>2019-08-08T16:17:42Z</time>
      </trkpt>
      <trkpt lat="48.55381" lon="7.6062">
        <ele>153.5</ele>
        <time>2019-08-08T16:17:43Z</time>
      </trkpt>
      <trkpt lat="48.55381" lon="7.60612">
        <ele>153.4</ele>
        <time>2019-08-08T16:17:44Z</time>
      </trkpt>
      <trkpt lat="48.55382" lon="7.60604">
        <ele>153.3</ele>
        <time>2019-08-08T16:17:45Z</time>
      </trkpt>
      <trkpt lat="48.55382" lon="7.60595">
        <ele>153.3</ele>
        <time>2019-08-08T16:17:46Z</time>
      </trkpt>
      <trkpt lat="48.55382" lon="7.60585">
        <ele>153.3</ele>
        <time>2019-08-08T16:17:47Z</time>
      </trkpt>
      <trkpt lat="48.55382" lon="7.60577">
        <ele>153.3</ele>
        <time>2019-08-08T16:17:48Z</time>
      </trkpt>
      <trkpt lat="48.55381" lon="7.60569">
        <ele>153.3</ele>
        <time>2019-08-08T16:17:49Z</time>
      </trkpt>
      <trkpt lat="48.55381" lon="7.60561">
        <ele>153.3</ele>
        <time>2019-08-08T16:17:50Z</time>
      </trkpt>
      <trkpt lat="48.5538" lon="7.60554">
        <ele>153.3</ele>
        <time>2019-08-08T16:17:51Z</time>
      </trkpt>
      <trkpt lat="48.5538" lon="7.60547">
        <ele>153.3</ele>
        <time>2019-08-08T16:17:52Z</time>
      </trkpt>
      <trkpt lat="48.5538" lon="7.60539">
        <ele>153.4</ele>
        <time>2019-08-08T16:17:53Z</time>
      </trkpt>
      <trkpt lat="48.55379" lon="7.60533">
        <ele>153.4</ele>
        <time>2019-08-08T16:17:54Z</time>
      </trkpt>
      <trkpt lat="48.55379" lon="7.60527">
        <ele>153.4</ele>
        <time>2019-08-08T16:17:55Z</time>
      </trkpt>
      <trkpt lat="48.55379" lon="7.6052">
        <ele>153.4</ele>
        <time>2019-08-08T16:17:56Z</time>
      </trkpt>
      <trkpt lat="48.55378" lon="7.60513">
        <ele>153.4</ele>
        <time>2019-08-08T16:17:57Z</time>
      </trkpt>
      <trkpt lat="48.55378" lon="7.60506">
        <ele>153.3</ele>
        <time>2019-08-08T16:17:58Z</time>
      </trkpt>
      <trkpt lat="48.55377" lon="7.60499">
        <ele>153.3</ele>
        <time>2019-08-08T16:17:59Z</time>
      </trkpt>
      <trkpt lat="48.55377" lon="7.60492">
        <ele>153.3</ele>
        <time>2019-08-08T16:18:00Z</time>
      </trkpt>
      <trkpt lat="48.55377" lon="7.60483">
        <ele>153.3</ele>
        <time>2019-08-08T16:18:01Z</time>
      </trkpt>
      <trkpt lat="48.55377" lon="7.60475">
        <ele>153.3</ele>
        <time>2019-08-08T16:18:02Z</time>
      </trkpt>
      <trkpt lat="48.55376" lon="7.60467">
        <ele>153.3</ele>
        <time>2019-08-08T16:18:03Z</time>
      </trkpt>
      <trkpt lat="48.55376" lon="7.60458">
        <ele>153.3</ele>
        <time>2019-08-08T16:18:04Z</time>
      </trkpt>
      <trkpt lat="48.55376" lon="7.60451">
        <ele>153.3</ele>
        <time>2019-08-08T16:18:05Z</time>
      </trkpt>
      <trkpt lat="48.55376" lon="7.60444">
        <ele>153.4</ele>
        <time>2019-08-08T16:18:06Z</time>
      </trkpt>
      <trkpt lat="48.55376" lon="7.60437">
        <ele>153.4</ele>
        <time>2019-08-08T16:18:07Z</time>
      </trkpt>
      <trkpt lat="48.55376" lon="7.60431">
        <ele>153.4</ele>
        <time>2019-08-08T16:18:08Z</time>
      </trkpt>
      <trkpt lat="48.55376" lon="7.60425">
        <ele>153.4</ele>
        <time>2019-08-08T16:18:09Z</time>
      </trkpt>
      <trkpt lat="48.55377" lon="7.60419">
        <ele>153.4</ele>
        <time>2019-08-08T16:18:10Z</time>
      </trkpt>
      <trkpt lat="48.55377" lon="7.60413">
        <ele>153.4</ele>
        <time>2019-08-08T16:18:11Z</time>
      </trkpt>
      <trkpt lat="48.55377" lon="7.60406">
        <ele>153.4</ele>
        <time>2019-08-08T16:18:12Z</time>
      </trkpt>
      <trkpt lat="48.55377" lon="7.60399">
        <ele>153.4</ele>
        <time>2019-08-08T16:18:13Z</time>
      </trkpt>
      <trkpt lat="48.55377" lon="7.60392">
        <ele>153.4</ele>
        <time>2019-08-08T16:18:14Z</time>
      </trkpt>
      <trkpt lat="48.55377" lon="7.60385">
        <ele>153.4</ele>
        <time>2019-08-08T16:18:15Z</time>
      </trkpt>
      <trkpt lat="48.55377" lon="7.60379">
        <ele>153.4</ele>
        <time>2019-08-08T16:18:16Z</time>
      </trkpt>
      <trkpt lat="48.55378" lon="7.60372">
        <ele>153.4</ele>
        <time>2019-08-08T16:18:17Z</time>
      </trkpt>
      <trkpt lat="48.55378" lon="7.60365">
        <ele>153.4</ele>
        <time>2019-08-08T16:18:18Z</time>
      </trkpt>
      <trkpt lat="48.55378" lon="7.60358">
        <ele>153.4</ele>
        <time>2019-08-08T16:18:19Z</time>
      </trkpt>
      <trkpt lat="48.55379" lon="7.60352">
        <ele>153.4</ele>
        <time>2019-08-08T16:18:20Z</time>
      </trkpt>
      <trkpt lat="48.5538" lon="7.60344">
        <ele>153.4</ele>
        <time>2019-08-08T16:18:21Z</time>
      </trkpt>
      <trkpt lat="48.55381" lon="7.60337">
        <ele>153.4</ele>
        <time>2019-08-08T16:18:22Z</time>
      </trkpt>
      <trkpt lat="48.55381" lon="7.6033">
        <ele>153.4</ele>
        <time>2019-08-08T16:18:23Z</time>
      </trkpt>
      <trkpt lat="48.5538" lon="7.60323">
        <ele>153.4</ele>
        <time>2019-08-08T16:18:24Z</time>
      </trkpt>
      <trkpt lat="48.5538" lon="7.60316">
        <ele>153.4</ele>
        <time>2019-08-08T16:18:25Z</time>
      </trkpt>
      <trkpt lat="48.55381" lon="7.60309">
        <ele>153.4</ele>
        <time>2019-08-08T16:18:26Z</time>
      </trkpt>
      <trkpt lat="48.5538" lon="7.60302">
        <ele>153.4</ele>
        <time>2019-08-08T16:18:27Z</time>
      </trkpt>
      <trkpt lat="48.55381" lon="7.60295">
        <ele>153.3</ele>
        <time>2019-08-08T16:18:28Z</time>
      </trkpt>
      <trkpt lat="48.55382" lon="7.60289">
        <ele>153.3</ele>
        <time>2019-08-08T16:18:29Z</time>
      </trkpt>
      <trkpt lat="48.55382" lon="7.60281">
        <ele>153.3</ele>
        <time>2019-08-08T16:18:30Z</time>
      </trkpt>
      <trkpt lat="48.55383" lon="7.60274">
        <ele>153.4</ele>
        <time>2019-08-08T16:18:31Z</time>
      </trkpt>
      <trkpt lat="48.55384" lon="7.60268">
        <ele>153.4</ele>
        <time>2019-08-08T16:18:32Z</time>
      </trkpt>
      <trkpt lat="48.55384" lon="7.6026">
        <ele>153.5</ele>
        <time>2019-08-08T16:18:33Z</time>
      </trkpt>
      <trkpt lat="48.55384" lon="7.60252">
        <ele>153.5</ele>
        <time>2019-08-08T16:18:34Z</time>
      </trkpt>
      <trkpt lat="48.55384" lon="7.60245">
        <ele>153.6</ele>
        <time>2019-08-08T16:18:35Z</time>
      </trkpt>
      <trkpt lat="48.55384" lon="7.60239">
        <ele>153.7</ele>
        <time>2019-08-08T16:18:36Z</time>
      </trkpt>
      <trkpt lat="48.55384" lon="7.60232">
        <ele>153.7</ele>
        <time>2019-08-08T16:18:37Z</time>
      </trkpt>
      <trkpt lat="48.55385" lon="7.60226">
        <ele>153.8</ele>
        <time>2019-08-08T16:18:38Z</time>
      </trkpt>
      <trkpt lat="48.55385" lon="7.6022">
        <ele>153.8</ele>
        <time>2019-08-08T16:18:39Z</time>
      </trkpt>
      <trkpt lat="48.55385" lon="7.60212">
        <ele>153.8</ele>
        <time>2019-08-08T16:18:40Z</time>
      </trkpt>
      <trkpt lat="48.55385" lon="7.60205">
        <ele>153.8</ele>
        <time>2019-08-08T16:18:41Z</time>
      </trkpt>
      <trkpt lat="48.55386" lon="7.60197">
        <ele>153.8</ele>
        <time>2019-08-08T16:18:42Z</time>
      </trkpt>
      <trkpt lat="48.55386" lon="7.60189">
        <ele>153.7</ele>
        <time>2019-08-08T16:18:43Z</time>
      </trkpt>
      <trkpt lat="48.55386" lon="7.60183">
        <ele>153.7</ele>
        <time>2019-08-08T16:18:44Z</time>
      </trkpt>
      <trkpt lat="48.55386" lon="7.60178">
        <ele>153.7</ele>
        <time>2019-08-08T16:18:45Z</time>
      </trkpt>
      <trkpt lat="48.55387" lon="7.60171">
        <ele>153.7</ele>
        <time>2019-08-08T16:18:46Z</time>
      </trkpt>
      <trkpt lat="48.55388" lon="7.60164">
        <ele>153.6</ele>
        <time>2019-08-08T16:18:47Z</time>
      </trkpt>
      <trkpt lat="48.55389" lon="7.60158">
        <ele>153.6</ele>
        <time>2019-08-08T16:18:48Z</time>
      </trkpt>
      <trkpt lat="48.5539" lon="7.6015">
        <ele>153.6</ele>
        <time>2019-08-08T16:18:49Z</time>
      </trkpt>
      <trkpt lat="48.55391" lon="7.60143">
        <ele>153.7</ele>
        <time>2019-08-08T16:18:50Z</time>
      </trkpt>
      <trkpt lat="48.55392" lon="7.60135">
        <ele>153.8</ele>
        <time>2019-08-08T16:18:51Z</time>
      </trkpt>
      <trkpt lat="48.55392" lon="7.60128">
        <ele>153.8</ele>
        <time>2019-08-08T16:18:52Z</time>
      </trkpt>
      <trkpt lat="48.55394" lon="7.6012">
        <ele>153.9</ele>
        <time>2019-08-08T16:18:53Z</time>
      </trkpt>
      <trkpt lat="48.55394" lon="7.60114">
        <ele>153.9</ele>
        <time>2019-08-08T16:18:54Z</time>
      </trkpt>
      <trkpt lat="48.55395" lon="7.60106">
        <ele>154</ele>
        <time>2019-08-08T16:18:55Z</time>
      </trkpt>
      <trkpt lat="48.55395" lon="7.60099">
        <ele>154</ele>
        <time>2019-08-08T16:18:56Z</time>
      </trkpt>
      <trkpt lat="48.55396" lon="7.60093">
        <ele>153.9</ele>
        <time>2019-08-08T16:18:57Z</time>
      </trkpt>
      <trkpt lat="48.55396" lon="7.60087">
        <ele>153.9</ele>
        <time>2019-08-08T16:18:58Z</time>
      </trkpt>
      <trkpt lat="48.55396" lon="7.60082">
        <ele>153.9</ele>
        <time>2019-08-08T16:18:59Z</time>
      </trkpt>
      <trkpt lat="48.55396" lon="7.60075">
        <ele>153.9</ele>
        <time>2019-08-08T16:19:00Z</time>
      </trkpt>
      <trkpt lat="48.55396" lon="7.60068">
        <ele>153.8</ele>
        <time>2019-08-08T16:19:01Z</time>
      </trkpt>
      <trkpt lat="48.55397" lon="7.6006">
        <ele>153.8</ele>
        <time>2019-08-08T16:19:02Z</time>
      </trkpt>
      <trkpt lat="48.55397" lon="7.60052">
        <ele>153.7</ele>
        <time>2019-08-08T16:19:03Z</time>
      </trkpt>
      <trkpt lat="48.55396" lon="7.60043">
        <ele>153.7</ele>
        <time>2019-08-08T16:19:04Z</time>
      </trkpt>
      <trkpt lat="48.55395" lon="7.60036">
        <ele>153.7</ele>
        <time>2019-08-08T16:19:05Z</time>
      </trkpt>
      <trkpt lat="48.55395" lon="7.60029">
        <ele>153.6</ele>
        <time>2019-08-08T16:19:06Z</time>
      </trkpt>
      <trkpt lat="48.55395" lon="7.60022">
        <ele>153.6</ele>
        <time>2019-08-08T16:19:07Z</time>
      </trkpt>
      <trkpt lat="48.55395" lon="7.60015">
        <ele>153.6</ele>
        <time>2019-08-08T16:19:08Z</time>
      </trkpt>
      <trkpt lat="48.55393" lon="7.60009">
        <ele>153.6</ele>
        <time>2019-08-08T16:19:09Z</time>
      </trkpt>
      <trkpt lat="48.55392" lon="7.60003">
        <ele>153.6</ele>
        <time>2019-08-08T16:19:10Z</time>
      </trkpt>
      <trkpt lat="48.55391" lon="7.59997">
        <ele>153.6</ele>
        <time>2019-08-08T16:19:11Z</time>
      </trkpt>
      <trkpt lat="48.55389" lon="7.59991">
        <ele>153.7</ele>
        <time>2019-08-08T16:19:12Z</time>
      </trkpt>
      <trkpt lat="48.55388" lon="7.59984">
        <ele>153.7</ele>
        <time>2019-08-08T16:19:13Z</time>
      </trkpt>
      <trkpt lat="48.55386" lon="7.59978">
        <ele>153.7</ele>
        <time>2019-08-08T16:19:14Z</time>
      </trkpt>
      <trkpt lat="48.55385" lon="7.59972">
        <ele>153.7</ele>
        <time>2019-08-08T16:19:15Z</time>
      </trkpt>
      <trkpt lat="48.55384" lon="7.59966">
        <ele>153.7</ele>
        <time>2019-08-08T16:19:16Z</time>
      </trkpt>
      <trkpt lat="48.55384" lon="7.59958">
        <ele>153.8</ele>
        <time>2019-08-08T16:19:17Z</time>
      </trkpt>
      <trkpt lat="48.55384" lon="7.5995">
        <ele>153.8</ele>
        <time>2019-08-08T16:19:18Z</time>
      </trkpt>
      <trkpt lat="48.55384" lon="7.59941">
        <ele>153.8</ele>
        <time>2019-08-08T16:19:19Z</time>
      </trkpt>
      <trkpt lat="48.55384" lon="7.59933">
        <ele>153.8</ele>
        <time>2019-08-08T16:19:20Z</time>
      </trkpt>
      <trkpt lat="48.55383" lon="7.59925">
        <ele>153.8</ele>
        <time>2019-08-08T16:19:21Z</time>
      </trkpt>
      <trkpt lat="48.55383" lon="7.59917">
        <ele>153.9</ele>
        <time>2019-08-08T16:19:22Z</time>
      </trkpt>
      <trkpt lat="48.55383" lon="7.59909">
        <ele>153.9</ele>
        <time>2019-08-08T16:19:23Z</time>
      </trkpt>
      <trkpt lat="48.55383" lon="7.59902">
        <ele>153.9</ele>
        <time>2019-08-08T16:19:24Z</time>
      </trkpt>
      <trkpt lat="48.55383" lon="7.59894">
        <ele>154</ele>
        <time>2019-08-08T16:19:25Z</time>
      </trkpt>
      <trkpt lat="48.55383" lon="7.59886">
        <ele>154</ele>
        <time>2019-08-08T16:19:26Z</time>
      </trkpt>
      <trkpt lat="48.55382" lon="7.59878">
        <ele>154</ele>
        <time>2019-08-08T16:19:27Z</time>
      </trkpt>
      <trkpt lat="48.55382" lon="7.59872">
        <ele>154.1</ele>
        <time>2019-08-08T16:19:28Z</time>
      </trkpt>
      <trkpt lat="48.55381" lon="7.59866">
        <ele>154.1</ele>
        <time>2019-08-08T16:19:29Z</time>
      </trkpt>
      <trkpt lat="48.55381" lon="7.59861">
        <ele>154.1</ele>
        <time>2019-08-08T16:19:30Z</time>
      </trkpt>
      <trkpt lat="48.5538" lon="7.59854">
        <ele>154.1</ele>
        <time>2019-08-08T16:19:31Z</time>
      </trkpt>
      <trkpt lat="48.55379" lon="7.59848">
        <ele>154.1</ele>
        <time>2019-08-08T16:19:32Z</time>
      </trkpt>
      <trkpt lat="48.55377" lon="7.59841">
        <ele>154.1</ele>
        <time>2019-08-08T16:19:33Z</time>
      </trkpt>
      <trkpt lat="48.55374" lon="7.59836">
        <ele>154.2</ele>
        <time>2019-08-08T16:19:34Z</time>
      </trkpt>
      <trkpt lat="48.55373" lon="7.5983">
        <ele>154.2</ele>
        <time>2019-08-08T16:19:35Z</time>
      </trkpt>
      <trkpt lat="48.5537" lon="7.59823">
        <ele>154.3</ele>
        <time>2019-08-08T16:19:36Z</time>
      </trkpt>
      <trkpt lat="48.55368" lon="7.59817">
        <ele>154.3</ele>
        <time>2019-08-08T16:19:37Z</time>
      </trkpt>
      <trkpt lat="48.55365" lon="7.59812">
        <ele>154.4</ele>
        <time>2019-08-08T16:19:38Z</time>
      </trkpt>
      <trkpt lat="48.55361" lon="7.59808">
        <ele>154.4</ele>
        <time>2019-08-08T16:19:39Z</time>
      </trkpt>
      <trkpt lat="48.55358" lon="7.59802">
        <ele>154.4</ele>
        <time>2019-08-08T16:19:40Z</time>
      </trkpt>
      <trkpt lat="48.55356" lon="7.59796">
        <ele>154.4</ele>
        <time>2019-08-08T16:19:41Z</time>
      </trkpt>
      <trkpt lat="48.55353" lon="7.5979">
        <ele>154.5</ele>
        <time>2019-08-08T16:19:42Z</time>
      </trkpt>
      <trkpt lat="48.55351" lon="7.59786">
        <ele>154.5</ele>
        <time>2019-08-08T16:19:43Z</time>
      </trkpt>
      <trkpt lat="48.55347" lon="7.59781">
        <ele>154.5</ele>
        <time>2019-08-08T16:19:44Z</time>
      </trkpt>
      <trkpt lat="48.55344" lon="7.59776">
        <ele>154.5</ele>
        <time>2019-08-08T16:19:45Z</time>
      </trkpt>
      <trkpt lat="48.55342" lon="7.59771">
        <ele>154.5</ele>
        <time>2019-08-08T16:19:46Z</time>
      </trkpt>
      <trkpt lat="48.55339" lon="7.59766">
        <ele>154.5</ele>
        <time>2019-08-08T16:19:47Z</time>
      </trkpt>
      <trkpt lat="48.55336" lon="7.59761">
        <ele>154.5</ele>
        <time>2019-08-08T16:19:48Z</time>
      </trkpt>
      <trkpt lat="48.55332" lon="7.59757">
        <ele>154.5</ele>
        <time>2019-08-08T16:19:49Z</time>
      </trkpt>
      <trkpt lat="48.55329" lon="7.59752">
        <ele>154.5</ele>
        <time>2019-08-08T16:19:50Z</time>
      </trkpt>
      <trkpt lat="48.55326" lon="7.59746">
        <ele>154.6</ele>
        <time>2019-08-08T16:19:51Z</time>
      </trkpt>
      <trkpt lat="48.55323" lon="7.5974">
        <ele>154.6</ele>
        <time>2019-08-08T16:19:52Z</time>
      </trkpt>
      <trkpt lat="48.55319" lon="7.59737">
        <ele>154.7</ele>
        <time>2019-08-08T16:19:53Z</time>
      </trkpt>
      <trkpt lat="48.55316" lon="7.59732">
        <ele>154.8</ele>
        <time>2019-08-08T16:19:54Z</time>
      </trkpt>
      <trkpt lat="48.55313" lon="7.59729">
        <ele>154.8</ele>
        <time>2019-08-08T16:19:55Z</time>
      </trkpt>
      <trkpt lat="48.55309" lon="7.59724">
        <ele>154.9</ele>
        <time>2019-08-08T16:19:56Z</time>
      </trkpt>
      <trkpt lat="48.55306" lon="7.5972">
        <ele>154.9</ele>
        <time>2019-08-08T16:19:57Z</time>
      </trkpt>
      <trkpt lat="48.55302" lon="7.59715">
        <ele>155</ele>
        <time>2019-08-08T16:19:58Z</time>
      </trkpt>
      <trkpt lat="48.55299" lon="7.59709">
        <ele>155</ele>
        <time>2019-08-08T16:19:59Z</time>
      </trkpt>
      <trkpt lat="48.55297" lon="7.59703">
        <ele>155</ele>
        <time>2019-08-08T16:20:00Z</time>
      </trkpt>
      <trkpt lat="48.55294" lon="7.59697">
        <ele>155.1</ele>
        <time>2019-08-08T16:20:01Z</time>
      </trkpt>
      <trkpt lat="48.55292" lon="7.59691">
        <ele>155.1</ele>
        <time>2019-08-08T16:20:02Z</time>
      </trkpt>
      <trkpt lat="48.5529" lon="7.59684">
        <ele>155.1</ele>
        <time>2019-08-08T16:20:03Z</time>
      </trkpt>
      <trkpt lat="48.55287" lon="7.59678">
        <ele>155.1</ele>
        <time>2019-08-08T16:20:04Z</time>
      </trkpt>
      <trkpt lat="48.55285" lon="7.59672">
        <ele>155.1</ele>
        <time>2019-08-08T16:20:05Z</time>
      </trkpt>
      <trkpt lat="48.55283" lon="7.59666">
        <ele>155.2</ele>
        <time>2019-08-08T16:20:06Z</time>
      </trkpt>
      <trkpt lat="48.55281" lon="7.5966">
        <ele>155.2</ele>
        <time>2019-08-08T16:20:07Z</time>
      </trkpt>
      <trkpt lat="48.5528" lon="7.59655">
        <ele>155.3</ele>
        <time>2019-08-08T16:20:08Z</time>
      </trkpt>
      <trkpt lat="48.55278" lon="7.59647">
        <ele>155.3</ele>
        <time>2019-08-08T16:20:09Z</time>
      </trkpt>
      <trkpt lat="48.55277" lon="7.5964">
        <ele>155.4</ele>
        <time>2019-08-08T16:20:10Z</time>
      </trkpt>
      <trkpt lat="48.55277" lon="7.59633">
        <ele>155.4</ele>
        <time>2019-08-08T16:20:11Z</time>
      </trkpt>
      <trkpt lat="48.55276" lon="7.59626">
        <ele>155.5</ele>
        <time>2019-08-08T16:20:12Z</time>
      </trkpt>
      <trkpt lat="48.55275" lon="7.5962">
        <ele>155.5</ele>
        <time>2019-08-08T16:20:13Z</time>
      </trkpt>
      <trkpt lat="48.55274" lon="7.59613">
        <ele>155.6</ele>
        <time>2019-08-08T16:20:14Z</time>
      </trkpt>
      <trkpt lat="48.55274" lon="7.59607">
        <ele>155.7</ele>
        <time>2019-08-08T16:20:15Z</time>
      </trkpt>
      <trkpt lat="48.55273" lon="7.596">
        <ele>155.8</ele>
        <time>2019-08-08T16:20:16Z</time>
      </trkpt>
      <trkpt lat="48.55273" lon="7.59593">
        <ele>155.8</ele>
        <time>2019-08-08T16:20:17Z</time>
      </trkpt>
      <trkpt lat="48.55272" lon="7.59586">
        <ele>155.9</ele>
        <time>2019-08-08T16:20:18Z</time>
      </trkpt>
      <trkpt lat="48.55272" lon="7.5958">
        <ele>156</ele>
        <time>2019-08-08T16:20:19Z</time>
      </trkpt>
      <trkpt lat="48.55271" lon="7.59573">
        <ele>156</ele>
        <time>2019-08-08T16:20:20Z</time>
      </trkpt>
      <trkpt lat="48.55271" lon="7.59567">
        <ele>156</ele>
        <time>2019-08-08T16:20:21Z</time>
      </trkpt>
      <trkpt lat="48.55271" lon="7.59559">
        <ele>156.1</ele>
        <time>2019-08-08T16:20:22Z</time>
      </trkpt>
      <trkpt lat="48.5527" lon="7.59551">
        <ele>156.1</ele>
        <time>2019-08-08T16:20:23Z</time>
      </trkpt>
      <trkpt lat="48.55269" lon="7.59544">
        <ele>156.1</ele>
        <time>2019-08-08T16:20:24Z</time>
      </trkpt>
      <trkpt lat="48.55269" lon="7.59537">
        <ele>156.1</ele>
        <time>2019-08-08T16:20:25Z</time>
      </trkpt>
      <trkpt lat="48.55269" lon="7.59531">
        <ele>156.1</ele>
        <time>2019-08-08T16:20:26Z</time>
      </trkpt>
      <trkpt lat="48.55269" lon="7.59525">
        <ele>156.1</ele>
        <time>2019-08-08T16:20:27Z</time>
      </trkpt>
      <trkpt lat="48.55269" lon="7.59517">
        <ele>156.1</ele>
        <time>2019-08-08T16:20:28Z</time>
      </trkpt>
      <trkpt lat="48.5527" lon="7.5951">
        <ele>156.1</ele>
        <time>2019-08-08T16:20:29Z</time>
      </trkpt>
      <trkpt lat="48.5527" lon="7.59503">
        <ele>156.1</ele>
        <time>2019-08-08T16:20:30Z</time>
      </trkpt>
      <trkpt lat="48.5527" lon="7.59497">
        <ele>156.1</ele>
        <time>2019-08-08T16:20:31Z</time>
      </trkpt>
      <trkpt lat="48.55271" lon="7.59491">
        <ele>156.1</ele>
        <time>2019-08-08T16:20:32Z</time>
      </trkpt>
      <trkpt lat="48.55272" lon="7.59486">
        <ele>156.1</ele>
        <time>2019-08-08T16:20:33Z</time>
      </trkpt>
      <trkpt lat="48.55273" lon="7.5948">
        <ele>156.1</ele>
        <time>2019-08-08T16:20:34Z</time>
      </trkpt>
      <trkpt lat="48.55273" lon="7.59473">
        <ele>156.1</ele>
        <time>2019-08-08T16:20:35Z</time>
      </trkpt>
      <trkpt lat="48.55273" lon="7.59467">
        <ele>156.1</ele>
        <time>2019-08-08T16:20:36Z</time>
      </trkpt>
      <trkpt lat="48.55274" lon="7.59461">
        <ele>156.1</ele>
        <time>2019-08-08T16:20:37Z</time>
      </trkpt>
      <trkpt lat="48.55275" lon="7.59453">
        <ele>156.1</ele>
        <time>2019-08-08T16:20:38Z</time>
      </trkpt>
      <trkpt lat="48.55276" lon="7.59445">
        <ele>156.1</ele>
        <time>2019-08-08T16:20:39Z</time>
      </trkpt>
      <trkpt lat="48.55277" lon="7.59439">
        <ele>156.1</ele>
        <time>2019-08-08T16:20:40Z</time>
      </trkpt>
      <trkpt lat="48.55279" lon="7.59433">
        <ele>156.1</ele>
        <time>2019-08-08T16:20:41Z</time>
      </trkpt>
      <trkpt lat="48.5528" lon="7.59425">
        <ele>156</ele>
        <time>2019-08-08T16:20:42Z</time>
      </trkpt>
      <trkpt lat="48.55281" lon="7.59417">
        <ele>156</ele>
        <time>2019-08-08T16:20:43Z</time>
      </trkpt>
      <trkpt lat="48.55282" lon="7.59409">
        <ele>155.9</ele>
        <time>2019-08-08T16:20:44Z</time>
      </trkpt>
      <trkpt lat="48.55283" lon="7.59404">
        <ele>155.9</ele>
        <time>2019-08-08T16:20:45Z</time>
      </trkpt>
      <trkpt lat="48.55284" lon="7.59398">
        <ele>155.8</ele>
        <time>2019-08-08T16:20:46Z</time>
      </trkpt>
      <trkpt lat="48.55285" lon="7.59392">
        <ele>155.8</ele>
        <time>2019-08-08T16:20:47Z</time>
      </trkpt>
      <trkpt lat="48.55285" lon="7.59385">
        <ele>155.7</ele>
        <time>2019-08-08T16:20:48Z</time>
      </trkpt>
      <trkpt lat="48.55285" lon="7.59378">
        <ele>155.6</ele>
        <time>2019-08-08T16:20:49Z</time>
      </trkpt>
      <trkpt lat="48.55285" lon="7.59372">
        <ele>155.6</ele>
        <time>2019-08-08T16:20:50Z</time>
      </trkpt>
      <trkpt lat="48.55286" lon="7.59364">
        <ele>155.5</ele>
        <time>2019-08-08T16:20:51Z</time>
      </trkpt>
      <trkpt lat="48.55287" lon="7.59358">
        <ele>155.4</ele>
        <time>2019-08-08T16:20:52Z</time>
      </trkpt>
      <trkpt lat="48.55288" lon="7.59351">
        <ele>155.4</ele>
        <time>2019-08-08T16:20:53Z</time>
      </trkpt>
      <trkpt lat="48.5529" lon="7.59346">
        <ele>155.4</ele>
        <time>2019-08-08T16:20:54Z</time>
      </trkpt>
      <trkpt lat="48.55291" lon="7.59338">
        <ele>155.3</ele>
        <time>2019-08-08T16:20:55Z</time>
      </trkpt>
      <trkpt lat="48.55292" lon="7.59329">
        <ele>155.3</ele>
        <time>2019-08-08T16:20:56Z</time>
      </trkpt>
      <trkpt lat="48.55293" lon="7.59322">
        <ele>155.3</ele>
        <time>2019-08-08T16:20:57Z</time>
      </trkpt>
      <trkpt lat="48.55293" lon="7.59316">
        <ele>155.3</ele>
        <time>2019-08-08T16:20:58Z</time>
      </trkpt>
      <trkpt lat="48.55294" lon="7.59308">
        <ele>155.3</ele>
        <time>2019-08-08T16:20:59Z</time>
      </trkpt>
      <trkpt lat="48.55295" lon="7.593">
        <ele>155.2</ele>
        <time>2019-08-08T16:21:00Z</time>
      </trkpt>
      <trkpt lat="48.55297" lon="7.59293">
        <ele>155.2</ele>
        <time>2019-08-08T16:21:01Z</time>
      </trkpt>
      <trkpt lat="48.55298" lon="7.59286">
        <ele>155.2</ele>
        <time>2019-08-08T16:21:02Z</time>
      </trkpt>
      <trkpt lat="48.553" lon="7.59281">
        <ele>155.2</ele>
        <time>2019-08-08T16:21:03Z</time>
      </trkpt>
      <trkpt lat="48.55302" lon="7.59275">
        <ele>155.2</ele>
        <time>2019-08-08T16:21:04Z</time>
      </trkpt>
      <trkpt lat="48.55305" lon="7.59269">
        <ele>155.1</ele>
        <time>2019-08-08T16:21:05Z</time>
      </trkpt>
      <trkpt lat="48.55308" lon="7.59264">
        <ele>155.1</ele>
        <time>2019-08-08T16:21:06Z</time>
      </trkpt>
      <trkpt lat="48.55311" lon="7.59258">
        <ele>155.1</ele>
        <time>2019-08-08T16:21:07Z</time>
      </trkpt>
      <trkpt lat="48.55315" lon="7.59253">
        <ele>155.1</ele>
        <time>2019-08-08T16:21:08Z</time>
      </trkpt>
      <trkpt lat="48.55319" lon="7.59248">
        <ele>155.1</ele>
        <time>2019-08-08T16:21:09Z</time>
      </trkpt>
      <trkpt lat="48.55324" lon="7.59243">
        <ele>155.1</ele>
        <time>2019-08-08T16:21:10Z</time>
      </trkpt>
      <trkpt lat="48.55329" lon="7.59237">
        <ele>155.1</ele>
        <time>2019-08-08T16:21:11Z</time>
      </trkpt>
      <trkpt lat="48.55333" lon="7.59232">
        <ele>155.1</ele>
        <time>2019-08-08T16:21:12Z</time>
      </trkpt>
      <trkpt lat="48.55336" lon="7.59227">
        <ele>155.1</ele>
        <time>2019-08-08T16:21:13Z</time>
      </trkpt>
      <trkpt lat="48.5534" lon="7.59223">
        <ele>155.1</ele>
        <time>2019-08-08T16:21:14Z</time>
      </trkpt>
      <trkpt lat="48.55344" lon="7.59219">
        <ele>155.1</ele>
        <time>2019-08-08T16:21:15Z</time>
      </trkpt>
      <trkpt lat="48.55348" lon="7.59214">
        <ele>155.1</ele>
        <time>2019-08-08T16:21:16Z</time>
      </trkpt>
      <trkpt lat="48.55351" lon="7.5921">
        <ele>155.1</ele>
        <time>2019-08-08T16:21:17Z</time>
      </trkpt>
      <trkpt lat="48.55355" lon="7.59206">
        <ele>155.1</ele>
        <time>2019-08-08T16:21:18Z</time>
      </trkpt>
      <trkpt lat="48.55359" lon="7.59202">
        <ele>155.1</ele>
        <time>2019-08-08T16:21:19Z</time>
      </trkpt>
      <trkpt lat="48.55364" lon="7.59197">
        <ele>155.1</ele>
        <time>2019-08-08T16:21:20Z</time>
      </trkpt>
      <trkpt lat="48.55368" lon="7.59193">
        <ele>155.1</ele>
        <time>2019-08-08T16:21:21Z</time>
      </trkpt>
      <trkpt lat="48.55371" lon="7.59187">
        <ele>155.1</ele>
        <time>2019-08-08T16:21:22Z</time>
      </trkpt>
      <trkpt lat="48.55375" lon="7.5918">
        <ele>155.1</ele>
        <time>2019-08-08T16:21:23Z</time>
      </trkpt>
      <trkpt lat="48.55379" lon="7.59174">
        <ele>155.1</ele>
        <time>2019-08-08T16:21:24Z</time>
      </trkpt>
      <trkpt lat="48.55383" lon="7.59168">
        <ele>155.1</ele>
        <time>2019-08-08T16:21:25Z</time>
      </trkpt>
      <trkpt lat="48.55387" lon="7.59162">
        <ele>155.1</ele>
        <time>2019-08-08T16:21:26Z</time>
      </trkpt>
      <trkpt lat="48.5539" lon="7.59157">
        <ele>155.1</ele>
        <time>2019-08-08T16:21:27Z</time>
      </trkpt>
      <trkpt lat="48.55394" lon="7.59152">
        <ele>155.1</ele>
        <time>2019-08-08T16:21:28Z</time>
      </trkpt>
      <trkpt lat="48.55398" lon="7.59147">
        <ele>155.1</ele>
        <time>2019-08-08T16:21:29Z</time>
      </trkpt>
      <trkpt lat="48.55401" lon="7.59141">
        <ele>155.2</ele>
        <time>2019-08-08T16:21:30Z</time>
      </trkpt>
      <trkpt lat="48.55405" lon="7.59135">
        <ele>155.2</ele>
        <time>2019-08-08T16:21:31Z</time>
      </trkpt>
      <trkpt lat="48.55409" lon="7.59129">
        <ele>155.2</ele>
        <time>2019-08-08T16:21:32Z</time>
      </trkpt>
      <trkpt lat="48.55412" lon="7.59124">
        <ele>155.3</ele>
        <time>2019-08-08T16:21:33Z</time>
      </trkpt>
      <trkpt lat="48.55416" lon="7.59118">
        <ele>155.3</ele>
        <time>2019-08-08T16:21:34Z</time>
      </trkpt>
      <trkpt lat="48.55421" lon="7.59113">
        <ele>155.4</ele>
        <time>2019-08-08T16:21:35Z</time>
      </trkpt>
      <trkpt lat="48.55424" lon="7.59109">
        <ele>155.5</ele>
        <time>2019-08-08T16:21:36Z</time>
      </trkpt>
      <trkpt lat="48.55427" lon="7.59105">
        <ele>155.5</ele>
        <time>2019-08-08T16:21:37Z</time>
      </trkpt>
      <trkpt lat="48.55431" lon="7.59099">
        <ele>155.6</ele>
        <time>2019-08-08T16:21:38Z</time>
      </trkpt>
      <trkpt lat="48.55435" lon="7.59094">
        <ele>155.7</ele>
        <time>2019-08-08T16:21:39Z</time>
      </trkpt>
      <trkpt lat="48.55439" lon="7.5909">
        <ele>155.8</ele>
        <time>2019-08-08T16:21:40Z</time>
      </trkpt>
      <trkpt lat="48.55442" lon="7.59085">
        <ele>156</ele>
        <time>2019-08-08T16:21:41Z</time>
      </trkpt>
      <trkpt lat="48.55447" lon="7.59081">
        <ele>156.1</ele>
        <time>2019-08-08T16:21:42Z</time>
      </trkpt>
      <trkpt lat="48.5545" lon="7.59076">
        <ele>156.1</ele>
        <time>2019-08-08T16:21:43Z</time>
      </trkpt>
      <trkpt lat="48.55454" lon="7.59072">
        <ele>156.2</ele>
        <time>2019-08-08T16:21:44Z</time>
      </trkpt>
      <trkpt lat="48.55458" lon="7.59066">
        <ele>156.3</ele>
        <time>2019-08-08T16:21:45Z</time>
      </trkpt>
      <trkpt lat="48.55461" lon="7.5906">
        <ele>156.3</ele>
        <time>2019-08-08T16:21:46Z</time>
      </trkpt>
      <trkpt lat="48.55465" lon="7.59055">
        <ele>156.4</ele>
        <time>2019-08-08T16:21:47Z</time>
      </trkpt>
      <trkpt lat="48.55468" lon="7.5905">
        <ele>156.4</ele>
        <time>2019-08-08T16:21:48Z</time>
      </trkpt>
      <trkpt lat="48.55472" lon="7.59045">
        <ele>156.4</ele>
        <time>2019-08-08T16:21:49Z</time>
      </trkpt>
      <trkpt lat="48.55476" lon="7.59041">
        <ele>156.4</ele>
        <time>2019-08-08T16:21:50Z</time>
      </trkpt>
      <trkpt lat="48.55479" lon="7.59035">
        <ele>156.4</ele>
        <time>2019-08-08T16:21:51Z</time>
      </trkpt>
      <trkpt lat="48.55482" lon="7.59029">
        <ele>156.5</ele>
        <time>2019-08-08T16:21:52Z</time>
      </trkpt>
      <trkpt lat="48.55486" lon="7.59024">
        <ele>156.5</ele>
        <time>2019-08-08T16:21:53Z</time>
      </trkpt>
      <trkpt lat="48.55488" lon="7.5902">
        <ele>156.5</ele>
        <time>2019-08-08T16:21:54Z</time>
      </trkpt>
      <trkpt lat="48.55491" lon="7.59013">
        <ele>156.5</ele>
        <time>2019-08-08T16:21:55Z</time>
      </trkpt>
      <trkpt lat="48.55493" lon="7.5901">
        <ele>156.5</ele>
        <time>2019-08-08T16:21:56Z</time>
      </trkpt>
      <trkpt lat="48.55495" lon="7.59005">
        <ele>156.5</ele>
        <time>2019-08-08T16:21:58Z</time>
      </trkpt>
      <trkpt lat="48.55497" lon="7.59">
        <ele>156.6</ele>
        <time>2019-08-08T16:22:01Z</time>
      </trkpt>
      <trkpt lat="48.55497" lon="7.58992">
        <ele>156.9</ele>
        <time>2019-08-08T16:22:03Z</time>
      </trkpt>
      <trkpt lat="48.55498" lon="7.58987">
        <ele>157.1</ele>
        <time>2019-08-08T16:22:04Z</time>
      </trkpt>
      <trkpt lat="48.555" lon="7.58982">
        <ele>157.3</ele>
        <time>2019-08-08T16:22:05Z</time>
      </trkpt>
      <trkpt lat="48.55504" lon="7.58977">
        <ele>157.3</ele>
        <time>2019-08-08T16:22:06Z</time>
      </trkpt>
      <trkpt lat="48.55508" lon="7.58972">
        <ele>157.4</ele>
        <time>2019-08-08T16:22:07Z</time>
      </trkpt>
      <trkpt lat="48.55511" lon="7.58968">
        <ele>157.3</ele>
        <time>2019-08-08T16:22:08Z</time>
      </trkpt>
      <trkpt lat="48.55515" lon="7.58963">
        <ele>157.2</ele>
        <time>2019-08-08T16:22:09Z</time>
      </trkpt>
      <trkpt lat="48.55518" lon="7.58958">
        <ele>157.1</ele>
        <time>2019-08-08T16:22:10Z</time>
      </trkpt>
      <trkpt lat="48.55521" lon="7.58953">
        <ele>156.9</ele>
        <time>2019-08-08T16:22:11Z</time>
      </trkpt>
      <trkpt lat="48.55524" lon="7.58948">
        <ele>156.8</ele>
        <time>2019-08-08T16:22:12Z</time>
      </trkpt>
      <trkpt lat="48.55527" lon="7.58943">
        <ele>156.7</ele>
        <time>2019-08-08T16:22:13Z</time>
      </trkpt>
      <trkpt lat="48.5553" lon="7.58938">
        <ele>156.6</ele>
        <time>2019-08-08T16:22:14Z</time>
      </trkpt>
      <trkpt lat="48.55533" lon="7.58935">
        <ele>156.6</ele>
        <time>2019-08-08T16:22:15Z</time>
      </trkpt>
      <trkpt lat="48.55536" lon="7.5893">
        <ele>156.5</ele>
        <time>2019-08-08T16:22:16Z</time>
      </trkpt>
      <trkpt lat="48.5554" lon="7.58925">
        <ele>156.5</ele>
        <time>2019-08-08T16:22:17Z</time>
      </trkpt>
      <trkpt lat="48.55543" lon="7.58922">
        <ele>156.5</ele>
        <time>2019-08-08T16:22:18Z</time>
      </trkpt>
      <trkpt lat="48.55545" lon="7.58918">
        <ele>156.5</ele>
        <time>2019-08-08T16:22:19Z</time>
      </trkpt>
      <trkpt lat="48.55548" lon="7.58915">
        <ele>156.5</ele>
        <time>2019-08-08T16:22:20Z</time>
      </trkpt>
      <trkpt lat="48.55551" lon="7.5891">
        <ele>156.4</ele>
        <time>2019-08-08T16:22:21Z</time>
      </trkpt>
      <trkpt lat="48.55555" lon="7.58905">
        <ele>156.4</ele>
        <time>2019-08-08T16:22:22Z</time>
      </trkpt>
      <trkpt lat="48.55558" lon="7.589">
        <ele>156.4</ele>
        <time>2019-08-08T16:22:23Z</time>
      </trkpt>
      <trkpt lat="48.55562" lon="7.58895">
        <ele>156.4</ele>
        <time>2019-08-08T16:22:24Z</time>
      </trkpt>
      <trkpt lat="48.55565" lon="7.5889">
        <ele>156.4</ele>
        <time>2019-08-08T16:22:25Z</time>
      </trkpt>
      <trkpt lat="48.55569" lon="7.58886">
        <ele>156.4</ele>
        <time>2019-08-08T16:22:26Z</time>
      </trkpt>
      <trkpt lat="48.55573" lon="7.58881">
        <ele>156.4</ele>
        <time>2019-08-08T16:22:27Z</time>
      </trkpt>
      <trkpt lat="48.55576" lon="7.58874">
        <ele>156.4</ele>
        <time>2019-08-08T16:22:28Z</time>
      </trkpt>
      <trkpt lat="48.55579" lon="7.58869">
        <ele>156.4</ele>
        <time>2019-08-08T16:22:29Z</time>
      </trkpt>
      <trkpt lat="48.55582" lon="7.58864">
        <ele>156.4</ele>
        <time>2019-08-08T16:22:30Z</time>
      </trkpt>
      <trkpt lat="48.55584" lon="7.58858">
        <ele>156.4</ele>
        <time>2019-08-08T16:22:31Z</time>
      </trkpt>
      <trkpt lat="48.55587" lon="7.58851">
        <ele>156.4</ele>
        <time>2019-08-08T16:22:32Z</time>
      </trkpt>
      <trkpt lat="48.5559" lon="7.58844">
        <ele>156.4</ele>
        <time>2019-08-08T16:22:33Z</time>
      </trkpt>
      <trkpt lat="48.55593" lon="7.58837">
        <ele>156.4</ele>
        <time>2019-08-08T16:22:34Z</time>
      </trkpt>
      <trkpt lat="48.55595" lon="7.5883">
        <ele>156.4</ele>
        <time>2019-08-08T16:22:35Z</time>
      </trkpt>
      <trkpt lat="48.55597" lon="7.58822">
        <ele>156.4</ele>
        <time>2019-08-08T16:22:36Z</time>
      </trkpt>
      <trkpt lat="48.55599" lon="7.58813">
        <ele>156.4</ele>
        <time>2019-08-08T16:22:37Z</time>
      </trkpt>
      <trkpt lat="48.55601" lon="7.58806">
        <ele>156.4</ele>
        <time>2019-08-08T16:22:38Z</time>
      </trkpt>
      <trkpt lat="48.55603" lon="7.58799">
        <ele>156.4</ele>
        <time>2019-08-08T16:22:39Z</time>
      </trkpt>
      <trkpt lat="48.55604" lon="7.58793">
        <ele>156.4</ele>
        <time>2019-08-08T16:22:40Z</time>
      </trkpt>
      <trkpt lat="48.55606" lon="7.58786">
        <ele>156.4</ele>
        <time>2019-08-08T16:22:41Z</time>
      </trkpt>
      <trkpt lat="48.55608" lon="7.5878">
        <ele>156.4</ele>
        <time>2019-08-08T16:22:42Z</time>
      </trkpt>
      <trkpt lat="48.55609" lon="7.58774">
        <ele>156.4</ele>
        <time>2019-08-08T16:22:43Z</time>
      </trkpt>
      <trkpt lat="48.55611" lon="7.5877">
        <ele>156.4</ele>
        <time>2019-08-08T16:22:44Z</time>
      </trkpt>
      <trkpt lat="48.55613" lon="7.58762">
        <ele>156.4</ele>
        <time>2019-08-08T16:22:45Z</time>
      </trkpt>
      <trkpt lat="48.55615" lon="7.58756">
        <ele>156.4</ele>
        <time>2019-08-08T16:22:46Z</time>
      </trkpt>
      <trkpt lat="48.55617" lon="7.58749">
        <ele>156.4</ele>
        <time>2019-08-08T16:22:47Z</time>
      </trkpt>
      <trkpt lat="48.55619" lon="7.58743">
        <ele>156.4</ele>
        <time>2019-08-08T16:22:48Z</time>
      </trkpt>
      <trkpt lat="48.5562" lon="7.58737">
        <ele>156.4</ele>
        <time>2019-08-08T16:22:49Z</time>
      </trkpt>
      <trkpt lat="48.55622" lon="7.58731">
        <ele>156.4</ele>
        <time>2019-08-08T16:22:50Z</time>
      </trkpt>
      <trkpt lat="48.55624" lon="7.58726">
        <ele>156.4</ele>
        <time>2019-08-08T16:22:51Z</time>
      </trkpt>
      <trkpt lat="48.55625" lon="7.5872">
        <ele>156.4</ele>
        <time>2019-08-08T16:22:52Z</time>
      </trkpt>
      <trkpt lat="48.55626" lon="7.58714">
        <ele>156.3</ele>
        <time>2019-08-08T16:22:53Z</time>
      </trkpt>
      <trkpt lat="48.55628" lon="7.58708">
        <ele>156.3</ele>
        <time>2019-08-08T16:22:54Z</time>
      </trkpt>
      <trkpt lat="48.55629" lon="7.58701">
        <ele>156.2</ele>
        <time>2019-08-08T16:22:55Z</time>
      </trkpt>
      <trkpt lat="48.55631" lon="7.58694">
        <ele>156.2</ele>
        <time>2019-08-08T16:22:56Z</time>
      </trkpt>
      <trkpt lat="48.55632" lon="7.58687">
        <ele>156.1</ele>
        <time>2019-08-08T16:22:57Z</time>
      </trkpt>
      <trkpt lat="48.55634" lon="7.5868">
        <ele>156</ele>
        <time>2019-08-08T16:22:58Z</time>
      </trkpt>
      <trkpt lat="48.55636" lon="7.58673">
        <ele>156</ele>
        <time>2019-08-08T16:22:59Z</time>
      </trkpt>
      <trkpt lat="48.55638" lon="7.58666">
        <ele>156</ele>
        <time>2019-08-08T16:23:00Z</time>
      </trkpt>
      <trkpt lat="48.55639" lon="7.58659">
        <ele>156</ele>
        <time>2019-08-08T16:23:01Z</time>
      </trkpt>
      <trkpt lat="48.5564" lon="7.58652">
        <ele>156.1</ele>
        <time>2019-08-08T16:23:02Z</time>
      </trkpt>
      <trkpt lat="48.55642" lon="7.58645">
        <ele>156.2</ele>
        <time>2019-08-08T16:23:03Z</time>
      </trkpt>
      <trkpt lat="48.55644" lon="7.58638">
        <ele>156.3</ele>
        <time>2019-08-08T16:23:04Z</time>
      </trkpt>
      <trkpt lat="48.55646" lon="7.58632">
        <ele>156.4</ele>
        <time>2019-08-08T16:23:05Z</time>
      </trkpt>
      <trkpt lat="48.55648" lon="7.58625">
        <ele>156.5</ele>
        <time>2019-08-08T16:23:06Z</time>
      </trkpt>
      <trkpt lat="48.55651" lon="7.58618">
        <ele>156.6</ele>
        <time>2019-08-08T16:23:07Z</time>
      </trkpt>
      <trkpt lat="48.55652" lon="7.58612">
        <ele>156.7</ele>
        <time>2019-08-08T16:23:08Z</time>
      </trkpt>
      <trkpt lat="48.55653" lon="7.58605">
        <ele>156.8</ele>
        <time>2019-08-08T16:23:09Z</time>
      </trkpt>
      <trkpt lat="48.55655" lon="7.58598">
        <ele>156.9</ele>
        <time>2019-08-08T16:23:10Z</time>
      </trkpt>
      <trkpt lat="48.55656" lon="7.58593">
        <ele>156.9</ele>
        <time>2019-08-08T16:23:11Z</time>
      </trkpt>
      <trkpt lat="48.55658" lon="7.58588">
        <ele>156.9</ele>
        <time>2019-08-08T16:23:12Z</time>
      </trkpt>
      <trkpt lat="48.55659" lon="7.58583">
        <ele>157</ele>
        <time>2019-08-08T16:23:13Z</time>
      </trkpt>
      <trkpt lat="48.55661" lon="7.58576">
        <ele>157</ele>
        <time>2019-08-08T16:23:14Z</time>
      </trkpt>
      <trkpt lat="48.55663" lon="7.58568">
        <ele>156.9</ele>
        <time>2019-08-08T16:23:15Z</time>
      </trkpt>
      <trkpt lat="48.55665" lon="7.58559">
        <ele>156.8</ele>
        <time>2019-08-08T16:23:16Z</time>
      </trkpt>
      <trkpt lat="48.55667" lon="7.58552">
        <ele>156.7</ele>
        <time>2019-08-08T16:23:17Z</time>
      </trkpt>
      <trkpt lat="48.55668" lon="7.58544">
        <ele>156.6</ele>
        <time>2019-08-08T16:23:18Z</time>
      </trkpt>
      <trkpt lat="48.5567" lon="7.58538">
        <ele>156.5</ele>
        <time>2019-08-08T16:23:19Z</time>
      </trkpt>
      <trkpt lat="48.55671" lon="7.58532">
        <ele>156.5</ele>
        <time>2019-08-08T16:23:20Z</time>
      </trkpt>
      <trkpt lat="48.55674" lon="7.58525">
        <ele>156.4</ele>
        <time>2019-08-08T16:23:21Z</time>
      </trkpt>
      <trkpt lat="48.55676" lon="7.58519">
        <ele>156.4</ele>
        <time>2019-08-08T16:23:22Z</time>
      </trkpt>
      <trkpt lat="48.55677" lon="7.58513">
        <ele>156.4</ele>
        <time>2019-08-08T16:23:23Z</time>
      </trkpt>
      <trkpt lat="48.55678" lon="7.58507">
        <ele>156.4</ele>
        <time>2019-08-08T16:23:24Z</time>
      </trkpt>
      <trkpt lat="48.55679" lon="7.58501">
        <ele>156.4</ele>
        <time>2019-08-08T16:23:25Z</time>
      </trkpt>
      <trkpt lat="48.55681" lon="7.58495">
        <ele>156.4</ele>
        <time>2019-08-08T16:23:26Z</time>
      </trkpt>
      <trkpt lat="48.55682" lon="7.58489">
        <ele>156.4</ele>
        <time>2019-08-08T16:23:27Z</time>
      </trkpt>
      <trkpt lat="48.55683" lon="7.58483">
        <ele>156.5</ele>
        <time>2019-08-08T16:23:28Z</time>
      </trkpt>
      <trkpt lat="48.55683" lon="7.58474">
        <ele>156.6</ele>
        <time>2019-08-08T16:23:29Z</time>
      </trkpt>
      <trkpt lat="48.55685" lon="7.58467">
        <ele>156.7</ele>
        <time>2019-08-08T16:23:30Z</time>
      </trkpt>
      <trkpt lat="48.55687" lon="7.5846">
        <ele>156.8</ele>
        <time>2019-08-08T16:23:31Z</time>
      </trkpt>
      <trkpt lat="48.55689" lon="7.58453">
        <ele>156.9</ele>
        <time>2019-08-08T16:23:32Z</time>
      </trkpt>
      <trkpt lat="48.55692" lon="7.58446">
        <ele>157</ele>
        <time>2019-08-08T16:23:33Z</time>
      </trkpt>
      <trkpt lat="48.55696" lon="7.5844">
        <ele>157.1</ele>
        <time>2019-08-08T16:23:34Z</time>
      </trkpt>
      <trkpt lat="48.55699" lon="7.58434">
        <ele>157.1</ele>
        <time>2019-08-08T16:23:35Z</time>
      </trkpt>
      <trkpt lat="48.55702" lon="7.58428">
        <ele>157.2</ele>
        <time>2019-08-08T16:23:36Z</time>
      </trkpt>
      <trkpt lat="48.55706" lon="7.58422">
        <ele>157.2</ele>
        <time>2019-08-08T16:23:37Z</time>
      </trkpt>
      <trkpt lat="48.55709" lon="7.58416">
        <ele>157.2</ele>
        <time>2019-08-08T16:23:38Z</time>
      </trkpt>
      <trkpt lat="48.55713" lon="7.5841">
        <ele>157.2</ele>
        <time>2019-08-08T16:23:39Z</time>
      </trkpt>
      <trkpt lat="48.55717" lon="7.58401">
        <ele>157.2</ele>
        <time>2019-08-08T16:23:40Z</time>
      </trkpt>
      <trkpt lat="48.55722" lon="7.58395">
        <ele>157.2</ele>
        <time>2019-08-08T16:23:41Z</time>
      </trkpt>
      <trkpt lat="48.55726" lon="7.5839">
        <ele>157.2</ele>
        <time>2019-08-08T16:23:42Z</time>
      </trkpt>
      <trkpt lat="48.55729" lon="7.58384">
        <ele>157.2</ele>
        <time>2019-08-08T16:23:43Z</time>
      </trkpt>
      <trkpt lat="48.55732" lon="7.58378">
        <ele>157.2</ele>
        <time>2019-08-08T16:23:44Z</time>
      </trkpt>
      <trkpt lat="48.55736" lon="7.58372">
        <ele>157.2</ele>
        <time>2019-08-08T16:23:45Z</time>
      </trkpt>
      <trkpt lat="48.55739" lon="7.58366">
        <ele>157.2</ele>
        <time>2019-08-08T16:23:46Z</time>
      </trkpt>
      <trkpt lat="48.55742" lon="7.58359">
        <ele>157.2</ele>
        <time>2019-08-08T16:23:47Z</time>
      </trkpt>
      <trkpt lat="48.55745" lon="7.58353">
        <ele>157.2</ele>
        <time>2019-08-08T16:23:48Z</time>
      </trkpt>
      <trkpt lat="48.55748" lon="7.58348">
        <ele>157.1</ele>
        <time>2019-08-08T16:23:49Z</time>
      </trkpt>
      <trkpt lat="48.55752" lon="7.58343">
        <ele>157.1</ele>
        <time>2019-08-08T16:23:50Z</time>
      </trkpt>
      <trkpt lat="48.55757" lon="7.58337">
        <ele>156.9</ele>
        <time>2019-08-08T16:23:51Z</time>
      </trkpt>
      <trkpt lat="48.55761" lon="7.58332">
        <ele>156.8</ele>
        <time>2019-08-08T16:23:52Z</time>
      </trkpt>
      <trkpt lat="48.55765" lon="7.58327">
        <ele>156.7</ele>
        <time>2019-08-08T16:23:53Z</time>
      </trkpt>
      <trkpt lat="48.5577" lon="7.58322">
        <ele>156.6</ele>
        <time>2019-08-08T16:23:54Z</time>
      </trkpt>
      <trkpt lat="48.55775" lon="7.58317">
        <ele>156.5</ele>
        <time>2019-08-08T16:23:55Z</time>
      </trkpt>
      <trkpt lat="48.5578" lon="7.58312">
        <ele>156.3</ele>
        <time>2019-08-08T16:23:56Z</time>
      </trkpt>
      <trkpt lat="48.55785" lon="7.58307">
        <ele>156.2</ele>
        <time>2019-08-08T16:23:57Z</time>
      </trkpt>
      <trkpt lat="48.5579" lon="7.58302">
        <ele>156.1</ele>
        <time>2019-08-08T16:23:58Z</time>
      </trkpt>
      <trkpt lat="48.55796" lon="7.58297">
        <ele>155.9</ele>
        <time>2019-08-08T16:23:59Z</time>
      </trkpt>
      <trkpt lat="48.558" lon="7.58293">
        <ele>155.8</ele>
        <time>2019-08-08T16:24:00Z</time>
      </trkpt>
      <trkpt lat="48.55805" lon="7.58289">
        <ele>155.6</ele>
        <time>2019-08-08T16:24:01Z</time>
      </trkpt>
      <trkpt lat="48.55809" lon="7.58284">
        <ele>155.5</ele>
        <time>2019-08-08T16:24:02Z</time>
      </trkpt>
      <trkpt lat="48.55812" lon="7.58279">
        <ele>155.4</ele>
        <time>2019-08-08T16:24:03Z</time>
      </trkpt>
      <trkpt lat="48.55816" lon="7.58273">
        <ele>155.3</ele>
        <time>2019-08-08T16:24:04Z</time>
      </trkpt>
      <trkpt lat="48.55819" lon="7.58267">
        <ele>155.3</ele>
        <time>2019-08-08T16:24:05Z</time>
      </trkpt>
      <trkpt lat="48.5582" lon="7.58259">
        <ele>155.3</ele>
        <time>2019-08-08T16:24:06Z</time>
      </trkpt>
      <trkpt lat="48.55821" lon="7.58251">
        <ele>155.3</ele>
        <time>2019-08-08T16:24:07Z</time>
      </trkpt>
      <trkpt lat="48.55821" lon="7.58243">
        <ele>155.4</ele>
        <time>2019-08-08T16:24:08Z</time>
      </trkpt>
      <trkpt lat="48.55822" lon="7.58236">
        <ele>155.6</ele>
        <time>2019-08-08T16:24:09Z</time>
      </trkpt>
      <trkpt lat="48.55823" lon="7.58229">
        <ele>155.7</ele>
        <time>2019-08-08T16:24:10Z</time>
      </trkpt>
      <trkpt lat="48.55823" lon="7.58222">
        <ele>156</ele>
        <time>2019-08-08T16:24:11Z</time>
      </trkpt>
      <trkpt lat="48.55822" lon="7.58214">
        <ele>156.2</ele>
        <time>2019-08-08T16:24:12Z</time>
      </trkpt>
      <trkpt lat="48.5582" lon="7.58205">
        <ele>156.5</ele>
        <time>2019-08-08T16:24:13Z</time>
      </trkpt>
      <trkpt lat="48.55819" lon="7.58196">
        <ele>156.7</ele>
        <time>2019-08-08T16:24:14Z</time>
      </trkpt>
      <trkpt lat="48.55818" lon="7.58188">
        <ele>156.9</ele>
        <time>2019-08-08T16:24:15Z</time>
      </trkpt>
      <trkpt lat="48.55816" lon="7.58182">
        <ele>157</ele>
        <time>2019-08-08T16:24:16Z</time>
      </trkpt>
      <trkpt lat="48.55813" lon="7.58176">
        <ele>157.1</ele>
        <time>2019-08-08T16:24:17Z</time>
      </trkpt>
      <trkpt lat="48.55811" lon="7.58172">
        <ele>157.1</ele>
        <time>2019-08-08T16:24:18Z</time>
      </trkpt>
      <trkpt lat="48.55808" lon="7.58164">
        <ele>157.1</ele>
        <time>2019-08-08T16:24:19Z</time>
      </trkpt>
      <trkpt lat="48.55806" lon="7.58158">
        <ele>157.1</ele>
        <time>2019-08-08T16:24:20Z</time>
      </trkpt>
      <trkpt lat="48.55804" lon="7.5815">
        <ele>157</ele>
        <time>2019-08-08T16:24:21Z</time>
      </trkpt>
      <trkpt lat="48.55802" lon="7.58143">
        <ele>156.9</ele>
        <time>2019-08-08T16:24:22Z</time>
      </trkpt>
      <trkpt lat="48.558" lon="7.58137">
        <ele>156.8</ele>
        <time>2019-08-08T16:24:23Z</time>
      </trkpt>
      <trkpt lat="48.55798" lon="7.58131">
        <ele>156.6</ele>
        <time>2019-08-08T16:24:24Z</time>
      </trkpt>
      <trkpt lat="48.55797" lon="7.58124">
        <ele>156.4</ele>
        <time>2019-08-08T16:24:25Z</time>
      </trkpt>
      <trkpt lat="48.55796" lon="7.58118">
        <ele>156.2</ele>
        <time>2019-08-08T16:24:26Z</time>
      </trkpt>
      <trkpt lat="48.55795" lon="7.58112">
        <ele>156</ele>
        <time>2019-08-08T16:24:27Z</time>
      </trkpt>
      <trkpt lat="48.55794" lon="7.58106">
        <ele>155.9</ele>
        <time>2019-08-08T16:24:28Z</time>
      </trkpt>
      <trkpt lat="48.55793" lon="7.58101">
        <ele>155.7</ele>
        <time>2019-08-08T16:24:29Z</time>
      </trkpt>
      <trkpt lat="48.55791" lon="7.58095">
        <ele>155.6</ele>
        <time>2019-08-08T16:24:30Z</time>
      </trkpt>
      <trkpt lat="48.55789" lon="7.58089">
        <ele>155.4</ele>
        <time>2019-08-08T16:24:31Z</time>
      </trkpt>
      <trkpt lat="48.55787" lon="7.58083">
        <ele>155.3</ele>
        <time>2019-08-08T16:24:32Z</time>
      </trkpt>
      <trkpt lat="48.55786" lon="7.58075">
        <ele>155.3</ele>
        <time>2019-08-08T16:24:33Z</time>
      </trkpt>
      <trkpt lat="48.55785" lon="7.58067">
        <ele>155.2</ele>
        <time>2019-08-08T16:24:34Z</time>
      </trkpt>
      <trkpt lat="48.55784" lon="7.58057">
        <ele>155.2</ele>
        <time>2019-08-08T16:24:35Z</time>
      </trkpt>
      <trkpt lat="48.55782" lon="7.58048">
        <ele>155.2</ele>
        <time>2019-08-08T16:24:36Z</time>
      </trkpt>
      <trkpt lat="48.5578" lon="7.5804">
        <ele>155.2</ele>
        <time>2019-08-08T16:24:37Z</time>
      </trkpt>
      <trkpt lat="48.55778" lon="7.58033">
        <ele>155.2</ele>
        <time>2019-08-08T16:24:38Z</time>
      </trkpt>
      <trkpt lat="48.55775" lon="7.58026">
        <ele>155.3</ele>
        <time>2019-08-08T16:24:39Z</time>
      </trkpt>
      <trkpt lat="48.55774" lon="7.58019">
        <ele>155.4</ele>
        <time>2019-08-08T16:24:40Z</time>
      </trkpt>
      <trkpt lat="48.55773" lon="7.58012">
        <ele>155.5</ele>
        <time>2019-08-08T16:24:41Z</time>
      </trkpt>
      <trkpt lat="48.55772" lon="7.58005">
        <ele>155.6</ele>
        <time>2019-08-08T16:24:42Z</time>
      </trkpt>
      <trkpt lat="48.5577" lon="7.57998">
        <ele>155.8</ele>
        <time>2019-08-08T16:24:43Z</time>
      </trkpt>
      <trkpt lat="48.55769" lon="7.57991">
        <ele>155.9</ele>
        <time>2019-08-08T16:24:44Z</time>
      </trkpt>
      <trkpt lat="48.55768" lon="7.57985">
        <ele>156</ele>
        <time>2019-08-08T16:24:45Z</time>
      </trkpt>
      <trkpt lat="48.55767" lon="7.57978">
        <ele>156.1</ele>
        <time>2019-08-08T16:24:46Z</time>
      </trkpt>
      <trkpt lat="48.55766" lon="7.57972">
        <ele>156.1</ele>
        <time>2019-08-08T16:24:47Z</time>
      </trkpt>
      <trkpt lat="48.55764" lon="7.57965">
        <ele>156.2</ele>
        <time>2019-08-08T16:24:48Z</time>
      </trkpt>
      <trkpt lat="48.55762" lon="7.57959">
        <ele>156.2</ele>
        <time>2019-08-08T16:24:49Z</time>
      </trkpt>
      <trkpt lat="48.5576" lon="7.57951">
        <ele>156.2</ele>
        <time>2019-08-08T16:24:50Z</time>
      </trkpt>
      <trkpt lat="48.55759" lon="7.57944">
        <ele>156.2</ele>
        <time>2019-08-08T16:24:51Z</time>
      </trkpt>
      <trkpt lat="48.55757" lon="7.57938">
        <ele>156.2</ele>
        <time>2019-08-08T16:24:52Z</time>
      </trkpt>
      <trkpt lat="48.55756" lon="7.5793">
        <ele>156.2</ele>
        <time>2019-08-08T16:24:53Z</time>
      </trkpt>
      <trkpt lat="48.55754" lon="7.57923">
        <ele>156.2</ele>
        <time>2019-08-08T16:24:54Z</time>
      </trkpt>
      <trkpt lat="48.55754" lon="7.57916">
        <ele>156.2</ele>
        <time>2019-08-08T16:24:55Z</time>
      </trkpt>
      <trkpt lat="48.55753" lon="7.57909">
        <ele>156.2</ele>
        <time>2019-08-08T16:24:56Z</time>
      </trkpt>
      <trkpt lat="48.55752" lon="7.57902">
        <ele>156.2</ele>
        <time>2019-08-08T16:24:57Z</time>
      </trkpt>
      <trkpt lat="48.5575" lon="7.57895">
        <ele>156.2</ele>
        <time>2019-08-08T16:24:58Z</time>
      </trkpt>
      <trkpt lat="48.55748" lon="7.57887">
        <ele>156.2</ele>
        <time>2019-08-08T16:24:59Z</time>
      </trkpt>
      <trkpt lat="48.55746" lon="7.57879">
        <ele>156.2</ele>
        <time>2019-08-08T16:25:00Z</time>
      </trkpt>
      <trkpt lat="48.55744" lon="7.57873">
        <ele>156.2</ele>
        <time>2019-08-08T16:25:01Z</time>
      </trkpt>
      <trkpt lat="48.55742" lon="7.57865">
        <ele>156.2</ele>
        <time>2019-08-08T16:25:02Z</time>
      </trkpt>
      <trkpt lat="48.5574" lon="7.57858">
        <ele>156.2</ele>
        <time>2019-08-08T16:25:03Z</time>
      </trkpt>
      <trkpt lat="48.55738" lon="7.57851">
        <ele>156.2</ele>
        <time>2019-08-08T16:25:04Z</time>
      </trkpt>
      <trkpt lat="48.55737" lon="7.57844">
        <ele>156.2</ele>
        <time>2019-08-08T16:25:05Z</time>
      </trkpt>
      <trkpt lat="48.55735" lon="7.57838">
        <ele>156.2</ele>
        <time>2019-08-08T16:25:06Z</time>
      </trkpt>
      <trkpt lat="48.55732" lon="7.57829">
        <ele>156.2</ele>
        <time>2019-08-08T16:25:07Z</time>
      </trkpt>
      <trkpt lat="48.5573" lon="7.57821">
        <ele>156.2</ele>
        <time>2019-08-08T16:25:08Z</time>
      </trkpt>
      <trkpt lat="48.55728" lon="7.57813">
        <ele>156.2</ele>
        <time>2019-08-08T16:25:09Z</time>
      </trkpt>
      <trkpt lat="48.55726" lon="7.57806">
        <ele>156.2</ele>
        <time>2019-08-08T16:25:10Z</time>
      </trkpt>
      <trkpt lat="48.55723" lon="7.578">
        <ele>156.2</ele>
        <time>2019-08-08T16:25:11Z</time>
      </trkpt>
      <trkpt lat="48.55721" lon="7.57794">
        <ele>156.2</ele>
        <time>2019-08-08T16:25:12Z</time>
      </trkpt>
      <trkpt lat="48.55718" lon="7.57787">
        <ele>156.2</ele>
        <time>2019-08-08T16:25:13Z</time>
      </trkpt>
      <trkpt lat="48.55716" lon="7.57781">
        <ele>156.2</ele>
        <time>2019-08-08T16:25:14Z</time>
      </trkpt>
      <trkpt lat="48.55714" lon="7.57775">
        <ele>156.2</ele>
        <time>2019-08-08T16:25:15Z</time>
      </trkpt>
      <trkpt lat="48.55711" lon="7.57769">
        <ele>156.2</ele>
        <time>2019-08-08T16:25:16Z</time>
      </trkpt>
      <trkpt lat="48.55709" lon="7.57765">
        <ele>156.2</ele>
        <time>2019-08-08T16:25:17Z</time>
      </trkpt>
      <trkpt lat="48.55706" lon="7.57759">
        <ele>156.2</ele>
        <time>2019-08-08T16:25:18Z</time>
      </trkpt>
      <trkpt lat="48.55704" lon="7.57754">
        <ele>156.3</ele>
        <time>2019-08-08T16:25:19Z</time>
      </trkpt>
      <trkpt lat="48.55702" lon="7.57748">
        <ele>156.3</ele>
        <time>2019-08-08T16:25:20Z</time>
      </trkpt>
      <trkpt lat="48.55698" lon="7.57739">
        <ele>156.4</ele>
        <time>2019-08-08T16:25:22Z</time>
      </trkpt>
      <trkpt lat="48.55696" lon="7.57734">
        <ele>156.5</ele>
        <time>2019-08-08T16:25:23Z</time>
      </trkpt>
      <trkpt lat="48.55693" lon="7.57728">
        <ele>156.6</ele>
        <time>2019-08-08T16:25:24Z</time>
      </trkpt>
      <trkpt lat="48.5569" lon="7.57721">
        <ele>156.7</ele>
        <time>2019-08-08T16:25:25Z</time>
      </trkpt>
      <trkpt lat="48.55686" lon="7.57714">
        <ele>156.8</ele>
        <time>2019-08-08T16:25:26Z</time>
      </trkpt>
      <trkpt lat="48.55684" lon="7.57707">
        <ele>156.9</ele>
        <time>2019-08-08T16:25:27Z</time>
      </trkpt>
      <trkpt lat="48.55681" lon="7.57699">
        <ele>157</ele>
        <time>2019-08-08T16:25:28Z</time>
      </trkpt>
      <trkpt lat="48.55679" lon="7.57692">
        <ele>157</ele>
        <time>2019-08-08T16:25:29Z</time>
      </trkpt>
      <trkpt lat="48.55678" lon="7.57684">
        <ele>157</ele>
        <time>2019-08-08T16:25:30Z</time>
      </trkpt>
      <trkpt lat="48.55678" lon="7.57676">
        <ele>157.1</ele>
        <time>2019-08-08T16:25:31Z</time>
      </trkpt>
      <trkpt lat="48.55677" lon="7.57668">
        <ele>157.1</ele>
        <time>2019-08-08T16:25:32Z</time>
      </trkpt>
      <trkpt lat="48.55676" lon="7.57662">
        <ele>157.1</ele>
        <time>2019-08-08T16:25:33Z</time>
      </trkpt>
      <trkpt lat="48.55675" lon="7.57657">
        <ele>157.1</ele>
        <time>2019-08-08T16:25:34Z</time>
      </trkpt>
      <trkpt lat="48.55675" lon="7.57652">
        <ele>157.2</ele>
        <time>2019-08-08T16:25:35Z</time>
      </trkpt>
      <trkpt lat="48.55676" lon="7.57648">
        <ele>157.2</ele>
        <time>2019-08-08T16:25:36Z</time>
      </trkpt>
      <trkpt lat="48.55677" lon="7.57643">
        <ele>157.3</ele>
        <time>2019-08-08T16:25:37Z</time>
      </trkpt>
      <trkpt lat="48.55678" lon="7.57638">
        <ele>157.3</ele>
        <time>2019-08-08T16:25:38Z</time>
      </trkpt>
      <trkpt lat="48.55679" lon="7.57632">
        <ele>157.5</ele>
        <time>2019-08-08T16:25:39Z</time>
      </trkpt>
      <trkpt lat="48.55682" lon="7.57625">
        <ele>157.6</ele>
        <time>2019-08-08T16:25:40Z</time>
      </trkpt>
      <trkpt lat="48.55684" lon="7.5762">
        <ele>157.7</ele>
        <time>2019-08-08T16:25:41Z</time>
      </trkpt>
      <trkpt lat="48.55686" lon="7.57613">
        <ele>157.8</ele>
        <time>2019-08-08T16:25:42Z</time>
      </trkpt>
      <trkpt lat="48.55688" lon="7.57606">
        <ele>157.9</ele>
        <time>2019-08-08T16:25:43Z</time>
      </trkpt>
      <trkpt lat="48.55691" lon="7.57597">
        <ele>158</ele>
        <time>2019-08-08T16:25:44Z</time>
      </trkpt>
      <trkpt lat="48.55693" lon="7.57589">
        <ele>158</ele>
        <time>2019-08-08T16:25:45Z</time>
      </trkpt>
      <trkpt lat="48.55695" lon="7.57581">
        <ele>157.9</ele>
        <time>2019-08-08T16:25:46Z</time>
      </trkpt>
      <trkpt lat="48.55698" lon="7.57574">
        <ele>157.8</ele>
        <time>2019-08-08T16:25:47Z</time>
      </trkpt>
      <trkpt lat="48.55699" lon="7.57567">
        <ele>157.6</ele>
        <time>2019-08-08T16:25:48Z</time>
      </trkpt>
      <trkpt lat="48.557" lon="7.57561">
        <ele>157.5</ele>
        <time>2019-08-08T16:25:49Z</time>
      </trkpt>
      <trkpt lat="48.55701" lon="7.57555">
        <ele>157.4</ele>
        <time>2019-08-08T16:25:50Z</time>
      </trkpt>
      <trkpt lat="48.55702" lon="7.57549">
        <ele>157.3</ele>
        <time>2019-08-08T16:25:51Z</time>
      </trkpt>
      <trkpt lat="48.55703" lon="7.57545">
        <ele>157.3</ele>
        <time>2019-08-08T16:25:52Z</time>
      </trkpt>
      <trkpt lat="48.55704" lon="7.5754">
        <ele>157.2</ele>
        <time>2019-08-08T16:25:53Z</time>
      </trkpt>
      <trkpt lat="48.55705" lon="7.57534">
        <ele>157.2</ele>
        <time>2019-08-08T16:25:54Z</time>
      </trkpt>
      <trkpt lat="48.55706" lon="7.57529">
        <ele>157.1</ele>
        <time>2019-08-08T16:25:55Z</time>
      </trkpt>
      <trkpt lat="48.55707" lon="7.57524">
        <ele>157.1</ele>
        <time>2019-08-08T16:25:56Z</time>
      </trkpt>
      <trkpt lat="48.55708" lon="7.57519">
        <ele>157.1</ele>
        <time>2019-08-08T16:25:57Z</time>
      </trkpt>
      <trkpt lat="48.55709" lon="7.57514">
        <ele>157.1</ele>
        <time>2019-08-08T16:25:58Z</time>
      </trkpt>
      <trkpt lat="48.55711" lon="7.5751">
        <ele>157.1</ele>
        <time>2019-08-08T16:25:59Z</time>
      </trkpt>
      <trkpt lat="48.55712" lon="7.57507">
        <ele>157.1</ele>
        <time>2019-08-08T16:26:00Z</time>
      </trkpt>
      <trkpt lat="48.55713" lon="7.57502">
        <ele>157</ele>
        <time>2019-08-08T16:26:01Z</time>
      </trkpt>
      <trkpt lat="48.55714" lon="7.57496">
        <ele>157</ele>
        <time>2019-08-08T16:26:02Z</time>
      </trkpt>
      <trkpt lat="48.55716" lon="7.57489">
        <ele>157</ele>
        <time>2019-08-08T16:26:03Z</time>
      </trkpt>
      <trkpt lat="48.55718" lon="7.57483">
        <ele>157</ele>
        <time>2019-08-08T16:26:04Z</time>
      </trkpt>
      <trkpt lat="48.5572" lon="7.57475">
        <ele>157</ele>
        <time>2019-08-08T16:26:05Z</time>
      </trkpt>
      <trkpt lat="48.55723" lon="7.57468">
        <ele>157</ele>
        <time>2019-08-08T16:26:06Z</time>
      </trkpt>
      <trkpt lat="48.55725" lon="7.57461">
        <ele>157</ele>
        <time>2019-08-08T16:26:07Z</time>
      </trkpt>
      <trkpt lat="48.55728" lon="7.57454">
        <ele>157</ele>
        <time>2019-08-08T16:26:08Z</time>
      </trkpt>
      <trkpt lat="48.5573" lon="7.57449">
        <ele>157</ele>
        <time>2019-08-08T16:26:09Z</time>
      </trkpt>
      <trkpt lat="48.55732" lon="7.57442">
        <ele>157</ele>
        <time>2019-08-08T16:26:10Z</time>
      </trkpt>
      <trkpt lat="48.55733" lon="7.57437">
        <ele>157</ele>
        <time>2019-08-08T16:26:11Z</time>
      </trkpt>
      <trkpt lat="48.55734" lon="7.57431">
        <ele>157</ele>
        <time>2019-08-08T16:26:12Z</time>
      </trkpt>
      <trkpt lat="48.55736" lon="7.57425">
        <ele>157</ele>
        <time>2019-08-08T16:26:13Z</time>
      </trkpt>
      <trkpt lat="48.55737" lon="7.57418">
        <ele>157</ele>
        <time>2019-08-08T16:26:14Z</time>
      </trkpt>
      <trkpt lat="48.55739" lon="7.57411">
        <ele>157</ele>
        <time>2019-08-08T16:26:15Z</time>
      </trkpt>
      <trkpt lat="48.55739" lon="7.57405">
        <ele>157</ele>
        <time>2019-08-08T16:26:16Z</time>
      </trkpt>
      <trkpt lat="48.5574" lon="7.57399">
        <ele>157</ele>
        <time>2019-08-08T16:26:17Z</time>
      </trkpt>
      <trkpt lat="48.55741" lon="7.57394">
        <ele>157</ele>
        <time>2019-08-08T16:26:18Z</time>
      </trkpt>
      <trkpt lat="48.55742" lon="7.57388">
        <ele>157</ele>
        <time>2019-08-08T16:26:19Z</time>
      </trkpt>
      <trkpt lat="48.55743" lon="7.57383">
        <ele>157.1</ele>
        <time>2019-08-08T16:26:20Z</time>
      </trkpt>
      <trkpt lat="48.55745" lon="7.57377">
        <ele>157.1</ele>
        <time>2019-08-08T16:26:21Z</time>
      </trkpt>
      <trkpt lat="48.55746" lon="7.5737">
        <ele>157.1</ele>
        <time>2019-08-08T16:26:22Z</time>
      </trkpt>
      <trkpt lat="48.55748" lon="7.57364">
        <ele>157.2</ele>
        <time>2019-08-08T16:26:23Z</time>
      </trkpt>
      <trkpt lat="48.5575" lon="7.57358">
        <ele>157.3</ele>
        <time>2019-08-08T16:26:24Z</time>
      </trkpt>
      <trkpt lat="48.55752" lon="7.57352">
        <ele>157.4</ele>
        <time>2019-08-08T16:26:25Z</time>
      </trkpt>
      <trkpt lat="48.55754" lon="7.57347">
        <ele>157.5</ele>
        <time>2019-08-08T16:26:26Z</time>
      </trkpt>
      <trkpt lat="48.55757" lon="7.57341">
        <ele>157.6</ele>
        <time>2019-08-08T16:26:27Z</time>
      </trkpt>
      <trkpt lat="48.55759" lon="7.57335">
        <ele>157.8</ele>
        <time>2019-08-08T16:26:28Z</time>
      </trkpt>
      <trkpt lat="48.55761" lon="7.57329">
        <ele>157.9</ele>
        <time>2019-08-08T16:26:29Z</time>
      </trkpt>
      <trkpt lat="48.55763" lon="7.57322">
        <ele>158</ele>
        <time>2019-08-08T16:26:30Z</time>
      </trkpt>
      <trkpt lat="48.55765" lon="7.57316">
        <ele>158</ele>
        <time>2019-08-08T16:26:31Z</time>
      </trkpt>
      <trkpt lat="48.55766" lon="7.57309">
        <ele>158</ele>
        <time>2019-08-08T16:26:32Z</time>
      </trkpt>
      <trkpt lat="48.55768" lon="7.57302">
        <ele>158.1</ele>
        <time>2019-08-08T16:26:33Z</time>
      </trkpt>
      <trkpt lat="48.55769" lon="7.57295">
        <ele>158.1</ele>
        <time>2019-08-08T16:26:34Z</time>
      </trkpt>
      <trkpt lat="48.5577" lon="7.57288">
        <ele>158.1</ele>
        <time>2019-08-08T16:26:35Z</time>
      </trkpt>
      <trkpt lat="48.55772" lon="7.5728">
        <ele>158.1</ele>
        <time>2019-08-08T16:26:36Z</time>
      </trkpt>
      <trkpt lat="48.55772" lon="7.57274">
        <ele>158.1</ele>
        <time>2019-08-08T16:26:37Z</time>
      </trkpt>
      <trkpt lat="48.55773" lon="7.57267">
        <ele>158.1</ele>
        <time>2019-08-08T16:26:38Z</time>
      </trkpt>
      <trkpt lat="48.55773" lon="7.57261">
        <ele>158.1</ele>
        <time>2019-08-08T16:26:39Z</time>
      </trkpt>
      <trkpt lat="48.55773" lon="7.57255">
        <ele>158.1</ele>
        <time>2019-08-08T16:26:40Z</time>
      </trkpt>
      <trkpt lat="48.55772" lon="7.57249">
        <ele>158.1</ele>
        <time>2019-08-08T16:26:41Z</time>
      </trkpt>
      <trkpt lat="48.55772" lon="7.57242">
        <ele>158.1</ele>
        <time>2019-08-08T16:26:42Z</time>
      </trkpt>
      <trkpt lat="48.55773" lon="7.57236">
        <ele>158.1</ele>
        <time>2019-08-08T16:26:43Z</time>
      </trkpt>
      <trkpt lat="48.55774" lon="7.57229">
        <ele>158.1</ele>
        <time>2019-08-08T16:26:44Z</time>
      </trkpt>
      <trkpt lat="48.55774" lon="7.57224">
        <ele>158.1</ele>
        <time>2019-08-08T16:26:45Z</time>
      </trkpt>
      <trkpt lat="48.55774" lon="7.57218">
        <ele>158.1</ele>
        <time>2019-08-08T16:26:46Z</time>
      </trkpt>
      <trkpt lat="48.55774" lon="7.57211">
        <ele>158.1</ele>
        <time>2019-08-08T16:26:47Z</time>
      </trkpt>
      <trkpt lat="48.55775" lon="7.57205">
        <ele>158.1</ele>
        <time>2019-08-08T16:26:48Z</time>
      </trkpt>
      <trkpt lat="48.55775" lon="7.57198">
        <ele>158</ele>
        <time>2019-08-08T16:26:49Z</time>
      </trkpt>
      <trkpt lat="48.55776" lon="7.57191">
        <ele>158</ele>
        <time>2019-08-08T16:26:50Z</time>
      </trkpt>
      <trkpt lat="48.55777" lon="7.57184">
        <ele>158</ele>
        <time>2019-08-08T16:26:51Z</time>
      </trkpt>
      <trkpt lat="48.55778" lon="7.57177">
        <ele>157.9</ele>
        <time>2019-08-08T16:26:52Z</time>
      </trkpt>
      <trkpt lat="48.55779" lon="7.5717">
        <ele>157.8</ele>
        <time>2019-08-08T16:26:53Z</time>
      </trkpt>
      <trkpt lat="48.5578" lon="7.57163">
        <ele>157.7</ele>
        <time>2019-08-08T16:26:54Z</time>
      </trkpt>
      <trkpt lat="48.55781" lon="7.57155">
        <ele>157.5</ele>
        <time>2019-08-08T16:26:55Z</time>
      </trkpt>
      <trkpt lat="48.55782" lon="7.57147">
        <ele>157.4</ele>
        <time>2019-08-08T16:26:56Z</time>
      </trkpt>
      <trkpt lat="48.55783" lon="7.57139">
        <ele>157.2</ele>
        <time>2019-08-08T16:26:57Z</time>
      </trkpt>
      <trkpt lat="48.55784" lon="7.57131">
        <ele>157.2</ele>
        <time>2019-08-08T16:26:58Z</time>
      </trkpt>
      <trkpt lat="48.55785" lon="7.57123">
        <ele>157.1</ele>
        <time>2019-08-08T16:26:59Z</time>
      </trkpt>
      <trkpt lat="48.55786" lon="7.57114">
        <ele>157</ele>
        <time>2019-08-08T16:27:00Z</time>
      </trkpt>
      <trkpt lat="48.55788" lon="7.57108">
        <ele>157</ele>
        <time>2019-08-08T16:27:01Z</time>
      </trkpt>
      <trkpt lat="48.55789" lon="7.57101">
        <ele>157.1</ele>
        <time>2019-08-08T16:27:02Z</time>
      </trkpt>
      <trkpt lat="48.55791" lon="7.57094">
        <ele>157.1</ele>
        <time>2019-08-08T16:27:03Z</time>
      </trkpt>
      <trkpt lat="48.55792" lon="7.57088">
        <ele>157.2</ele>
        <time>2019-08-08T16:27:04Z</time>
      </trkpt>
      <trkpt lat="48.55793" lon="7.57082">
        <ele>157.3</ele>
        <time>2019-08-08T16:27:05Z</time>
      </trkpt>
      <trkpt lat="48.55795" lon="7.57077">
        <ele>157.4</ele>
        <time>2019-08-08T16:27:06Z</time>
      </trkpt>
      <trkpt lat="48.55797" lon="7.5707">
        <ele>157.5</ele>
        <time>2019-08-08T16:27:07Z</time>
      </trkpt>
      <trkpt lat="48.55798" lon="7.57063">
        <ele>157.6</ele>
        <time>2019-08-08T16:27:08Z</time>
      </trkpt>
      <trkpt lat="48.558" lon="7.57056">
        <ele>157.8</ele>
        <time>2019-08-08T16:27:09Z</time>
      </trkpt>
      <trkpt lat="48.55802" lon="7.57048">
        <ele>157.9</ele>
        <time>2019-08-08T16:27:10Z</time>
      </trkpt>
      <trkpt lat="48.55804" lon="7.57041">
        <ele>158</ele>
        <time>2019-08-08T16:27:11Z</time>
      </trkpt>
      <trkpt lat="48.55805" lon="7.57033">
        <ele>158</ele>
        <time>2019-08-08T16:27:12Z</time>
      </trkpt>
      <trkpt lat="48.55807" lon="7.57024">
        <ele>158.1</ele>
        <time>2019-08-08T16:27:13Z</time>
      </trkpt>
      <trkpt lat="48.55809" lon="7.57016">
        <ele>158.2</ele>
        <time>2019-08-08T16:27:14Z</time>
      </trkpt>
      <trkpt lat="48.5581" lon="7.57009">
        <ele>158.3</ele>
        <time>2019-08-08T16:27:15Z</time>
      </trkpt>
      <trkpt lat="48.55812" lon="7.57001">
        <ele>158.5</ele>
        <time>2019-08-08T16:27:16Z</time>
      </trkpt>
      <trkpt lat="48.55813" lon="7.56994">
        <ele>158.6</ele>
        <time>2019-08-08T16:27:17Z</time>
      </trkpt>
      <trkpt lat="48.55815" lon="7.56987">
        <ele>158.7</ele>
        <time>2019-08-08T16:27:18Z</time>
      </trkpt>
      <trkpt lat="48.55817" lon="7.56979">
        <ele>158.9</ele>
        <time>2019-08-08T16:27:19Z</time>
      </trkpt>
      <trkpt lat="48.55819" lon="7.56972">
        <ele>159</ele>
        <time>2019-08-08T16:27:20Z</time>
      </trkpt>
      <trkpt lat="48.55821" lon="7.56964">
        <ele>159</ele>
        <time>2019-08-08T16:27:21Z</time>
      </trkpt>
      <trkpt lat="48.55823" lon="7.56957">
        <ele>159.1</ele>
        <time>2019-08-08T16:27:22Z</time>
      </trkpt>
      <trkpt lat="48.55826" lon="7.56952">
        <ele>159.1</ele>
        <time>2019-08-08T16:27:23Z</time>
      </trkpt>
      <trkpt lat="48.55828" lon="7.56945">
        <ele>159.1</ele>
        <time>2019-08-08T16:27:24Z</time>
      </trkpt>
      <trkpt lat="48.5583" lon="7.56936">
        <ele>159.1</ele>
        <time>2019-08-08T16:27:25Z</time>
      </trkpt>
      <trkpt lat="48.55832" lon="7.56929">
        <ele>159.1</ele>
        <time>2019-08-08T16:27:26Z</time>
      </trkpt>
      <trkpt lat="48.55833" lon="7.56921">
        <ele>159.1</ele>
        <time>2019-08-08T16:27:27Z</time>
      </trkpt>
      <trkpt lat="48.55835" lon="7.56915">
        <ele>159.1</ele>
        <time>2019-08-08T16:27:28Z</time>
      </trkpt>
      <trkpt lat="48.55835" lon="7.56906">
        <ele>159.1</ele>
        <time>2019-08-08T16:27:29Z</time>
      </trkpt>
      <trkpt lat="48.55835" lon="7.569">
        <ele>159.1</ele>
        <time>2019-08-08T16:27:30Z</time>
      </trkpt>
      <trkpt lat="48.55837" lon="7.56893">
        <ele>159.1</ele>
        <time>2019-08-08T16:27:31Z</time>
      </trkpt>
      <trkpt lat="48.55837" lon="7.56887">
        <ele>159.1</ele>
        <time>2019-08-08T16:27:32Z</time>
      </trkpt>
      <trkpt lat="48.55839" lon="7.56881">
        <ele>159.1</ele>
        <time>2019-08-08T16:27:33Z</time>
      </trkpt>
      <trkpt lat="48.5584" lon="7.56873">
        <ele>159.1</ele>
        <time>2019-08-08T16:27:34Z</time>
      </trkpt>
      <trkpt lat="48.55841" lon="7.56866">
        <ele>159.1</ele>
        <time>2019-08-08T16:27:35Z</time>
      </trkpt>
      <trkpt lat="48.55843" lon="7.56859">
        <ele>159.1</ele>
        <time>2019-08-08T16:27:36Z</time>
      </trkpt>
      <trkpt lat="48.55845" lon="7.56851">
        <ele>159.1</ele>
        <time>2019-08-08T16:27:37Z</time>
      </trkpt>
      <trkpt lat="48.55847" lon="7.56843">
        <ele>159.1</ele>
        <time>2019-08-08T16:27:38Z</time>
      </trkpt>
      <trkpt lat="48.55849" lon="7.56835">
        <ele>159.1</ele>
        <time>2019-08-08T16:27:39Z</time>
      </trkpt>
      <trkpt lat="48.5585" lon="7.56825">
        <ele>159.1</ele>
        <time>2019-08-08T16:27:40Z</time>
      </trkpt>
      <trkpt lat="48.55852" lon="7.56817">
        <ele>159.1</ele>
        <time>2019-08-08T16:27:41Z</time>
      </trkpt>
      <trkpt lat="48.55854" lon="7.56809">
        <ele>159.1</ele>
        <time>2019-08-08T16:27:42Z</time>
      </trkpt>
      <trkpt lat="48.55857" lon="7.56801">
        <ele>159.1</ele>
        <time>2019-08-08T16:27:43Z</time>
      </trkpt>
      <trkpt lat="48.55859" lon="7.56794">
        <ele>159.1</ele>
        <time>2019-08-08T16:27:44Z</time>
      </trkpt>
      <trkpt lat="48.55861" lon="7.56786">
        <ele>159.1</ele>
        <time>2019-08-08T16:27:45Z</time>
      </trkpt>
      <trkpt lat="48.55862" lon="7.5678">
        <ele>159.1</ele>
        <time>2019-08-08T16:27:46Z</time>
      </trkpt>
      <trkpt lat="48.55863" lon="7.56774">
        <ele>159</ele>
        <time>2019-08-08T16:27:47Z</time>
      </trkpt>
      <trkpt lat="48.55863" lon="7.56768">
        <ele>159</ele>
        <time>2019-08-08T16:27:48Z</time>
      </trkpt>
      <trkpt lat="48.55864" lon="7.56761">
        <ele>158.9</ele>
        <time>2019-08-08T16:27:49Z</time>
      </trkpt>
      <trkpt lat="48.55866" lon="7.56754">
        <ele>158.9</ele>
        <time>2019-08-08T16:27:50Z</time>
      </trkpt>
      <trkpt lat="48.55867" lon="7.56748">
        <ele>158.9</ele>
        <time>2019-08-08T16:27:51Z</time>
      </trkpt>
      <trkpt lat="48.55869" lon="7.56741">
        <ele>158.9</ele>
        <time>2019-08-08T16:27:52Z</time>
      </trkpt>
      <trkpt lat="48.5587" lon="7.56734">
        <ele>158.9</ele>
        <time>2019-08-08T16:27:53Z</time>
      </trkpt>
      <trkpt lat="48.55873" lon="7.56728">
        <ele>158.9</ele>
        <time>2019-08-08T16:27:54Z</time>
      </trkpt>
      <trkpt lat="48.55875" lon="7.56723">
        <ele>158.9</ele>
        <time>2019-08-08T16:27:55Z</time>
      </trkpt>
      <trkpt lat="48.55876" lon="7.56716">
        <ele>159</ele>
        <time>2019-08-08T16:27:56Z</time>
      </trkpt>
      <trkpt lat="48.55878" lon="7.56709">
        <ele>158.9</ele>
        <time>2019-08-08T16:27:57Z</time>
      </trkpt>
      <trkpt lat="48.5588" lon="7.56703">
        <ele>158.8</ele>
        <time>2019-08-08T16:27:58Z</time>
      </trkpt>
      <trkpt lat="48.55882" lon="7.56697">
        <ele>158.7</ele>
        <time>2019-08-08T16:27:59Z</time>
      </trkpt>
      <trkpt lat="48.55883" lon="7.5669">
        <ele>158.5</ele>
        <time>2019-08-08T16:28:00Z</time>
      </trkpt>
      <trkpt lat="48.55885" lon="7.56684">
        <ele>158.4</ele>
        <time>2019-08-08T16:28:01Z</time>
      </trkpt>
      <trkpt lat="48.55887" lon="7.56678">
        <ele>158.2</ele>
        <time>2019-08-08T16:28:02Z</time>
      </trkpt>
      <trkpt lat="48.55889" lon="7.56673">
        <ele>158.1</ele>
        <time>2019-08-08T16:28:03Z</time>
      </trkpt>
      <trkpt lat="48.55892" lon="7.56668">
        <ele>158</ele>
        <time>2019-08-08T16:28:05Z</time>
      </trkpt>
      <trkpt lat="48.55893" lon="7.56664">
        <ele>158</ele>
        <time>2019-08-08T16:28:07Z</time>
      </trkpt>
      <trkpt lat="48.55895" lon="7.56659">
        <ele>158</ele>
        <time>2019-08-08T16:28:09Z</time>
      </trkpt>
      <trkpt lat="48.55897" lon="7.56652">
        <ele>158</ele>
        <time>2019-08-08T16:28:11Z</time>
      </trkpt>
      <trkpt lat="48.55899" lon="7.56648">
        <ele>158</ele>
        <time>2019-08-08T16:28:12Z</time>
      </trkpt>
      <trkpt lat="48.55902" lon="7.56644">
        <ele>157.9</ele>
        <time>2019-08-08T16:28:13Z</time>
      </trkpt>
      <trkpt lat="48.55904" lon="7.5664">
        <ele>157.9</ele>
        <time>2019-08-08T16:28:14Z</time>
      </trkpt>
      <trkpt lat="48.55906" lon="7.56636">
        <ele>157.8</ele>
        <time>2019-08-08T16:28:15Z</time>
      </trkpt>
      <trkpt lat="48.5591" lon="7.56632">
        <ele>157.8</ele>
        <time>2019-08-08T16:28:16Z</time>
      </trkpt>
      <trkpt lat="48.55913" lon="7.56627">
        <ele>157.7</ele>
        <time>2019-08-08T16:28:17Z</time>
      </trkpt>
      <trkpt lat="48.55916" lon="7.56622">
        <ele>157.7</ele>
        <time>2019-08-08T16:28:18Z</time>
      </trkpt>
      <trkpt lat="48.5592" lon="7.56617">
        <ele>157.6</ele>
        <time>2019-08-08T16:28:19Z</time>
      </trkpt>
      <trkpt lat="48.55924" lon="7.56613">
        <ele>157.5</ele>
        <time>2019-08-08T16:28:20Z</time>
      </trkpt>
      <trkpt lat="48.55927" lon="7.56608">
        <ele>157.4</ele>
        <time>2019-08-08T16:28:21Z</time>
      </trkpt>
      <trkpt lat="48.55931" lon="7.56603">
        <ele>157.3</ele>
        <time>2019-08-08T16:28:22Z</time>
      </trkpt>
      <trkpt lat="48.55935" lon="7.56599">
        <ele>157.2</ele>
        <time>2019-08-08T16:28:23Z</time>
      </trkpt>
      <trkpt lat="48.5594" lon="7.56595">
        <ele>157.1</ele>
        <time>2019-08-08T16:28:24Z</time>
      </trkpt>
      <trkpt lat="48.55944" lon="7.56591">
        <ele>157</ele>
        <time>2019-08-08T16:28:25Z</time>
      </trkpt>
      <trkpt lat="48.55949" lon="7.56588">
        <ele>156.9</ele>
        <time>2019-08-08T16:28:26Z</time>
      </trkpt>
      <trkpt lat="48.55953" lon="7.56585">
        <ele>156.8</ele>
        <time>2019-08-08T16:28:27Z</time>
      </trkpt>
      <trkpt lat="48.55957" lon="7.56581">
        <ele>156.7</ele>
        <time>2019-08-08T16:28:28Z</time>
      </trkpt>
      <trkpt lat="48.55961" lon="7.56576">
        <ele>156.6</ele>
        <time>2019-08-08T16:28:29Z</time>
      </trkpt>
      <trkpt lat="48.55965" lon="7.56572">
        <ele>156.6</ele>
        <time>2019-08-08T16:28:30Z</time>
      </trkpt>
      <trkpt lat="48.55968" lon="7.56567">
        <ele>156.6</ele>
        <time>2019-08-08T16:28:31Z</time>
      </trkpt>
      <trkpt lat="48.55972" lon="7.56563">
        <ele>156.5</ele>
        <time>2019-08-08T16:28:32Z</time>
      </trkpt>
      <trkpt lat="48.55975" lon="7.56559">
        <ele>156.5</ele>
        <time>2019-08-08T16:28:33Z</time>
      </trkpt>
      <trkpt lat="48.5598" lon="7.56554">
        <ele>156.5</ele>
        <time>2019-08-08T16:28:34Z</time>
      </trkpt>
      <trkpt lat="48.55983" lon="7.5655">
        <ele>156.5</ele>
        <time>2019-08-08T16:28:35Z</time>
      </trkpt>
      <trkpt lat="48.55987" lon="7.56546">
        <ele>156.5</ele>
        <time>2019-08-08T16:28:36Z</time>
      </trkpt>
      <trkpt lat="48.55991" lon="7.56541">
        <ele>156.5</ele>
        <time>2019-08-08T16:28:37Z</time>
      </trkpt>
      <trkpt lat="48.55995" lon="7.56538">
        <ele>156.5</ele>
        <time>2019-08-08T16:28:38Z</time>
      </trkpt>
      <trkpt lat="48.55999" lon="7.56534">
        <ele>156.5</ele>
        <time>2019-08-08T16:28:39Z</time>
      </trkpt>
      <trkpt lat="48.56003" lon="7.5653">
        <ele>156.5</ele>
        <time>2019-08-08T16:28:40Z</time>
      </trkpt>
      <trkpt lat="48.56007" lon="7.56527">
        <ele>156.6</ele>
        <time>2019-08-08T16:28:41Z</time>
      </trkpt>
      <trkpt lat="48.56012" lon="7.56524">
        <ele>156.6</ele>
        <time>2019-08-08T16:28:42Z</time>
      </trkpt>
      <trkpt lat="48.56016" lon="7.56519">
        <ele>156.6</ele>
        <time>2019-08-08T16:28:43Z</time>
      </trkpt>
      <trkpt lat="48.56021" lon="7.56515">
        <ele>156.6</ele>
        <time>2019-08-08T16:28:44Z</time>
      </trkpt>
      <trkpt lat="48.56025" lon="7.56512">
        <ele>156.6</ele>
        <time>2019-08-08T16:28:45Z</time>
      </trkpt>
      <trkpt lat="48.5603" lon="7.56505">
        <ele>156.7</ele>
        <time>2019-08-08T16:28:46Z</time>
      </trkpt>
      <trkpt lat="48.56034" lon="7.56499">
        <ele>156.7</ele>
        <time>2019-08-08T16:28:47Z</time>
      </trkpt>
      <trkpt lat="48.56039" lon="7.56493">
        <ele>156.7</ele>
        <time>2019-08-08T16:28:48Z</time>
      </trkpt>
      <trkpt lat="48.56043" lon="7.56488">
        <ele>156.8</ele>
        <time>2019-08-08T16:28:49Z</time>
      </trkpt>
      <trkpt lat="48.56048" lon="7.56483">
        <ele>156.8</ele>
        <time>2019-08-08T16:28:50Z</time>
      </trkpt>
      <trkpt lat="48.56053" lon="7.56477">
        <ele>156.8</ele>
        <time>2019-08-08T16:28:51Z</time>
      </trkpt>
      <trkpt lat="48.56057" lon="7.56471">
        <ele>156.9</ele>
        <time>2019-08-08T16:28:52Z</time>
      </trkpt>
      <trkpt lat="48.56061" lon="7.56466">
        <ele>156.9</ele>
        <time>2019-08-08T16:28:53Z</time>
      </trkpt>
      <trkpt lat="48.56065" lon="7.56461">
        <ele>156.9</ele>
        <time>2019-08-08T16:28:54Z</time>
      </trkpt>
      <trkpt lat="48.56068" lon="7.56456">
        <ele>157</ele>
        <time>2019-08-08T16:28:55Z</time>
      </trkpt>
      <trkpt lat="48.56071" lon="7.56451">
        <ele>157</ele>
        <time>2019-08-08T16:28:56Z</time>
      </trkpt>
      <trkpt lat="48.56074" lon="7.56447">
        <ele>157</ele>
        <time>2019-08-08T16:28:57Z</time>
      </trkpt>
      <trkpt lat="48.56077" lon="7.56443">
        <ele>157.1</ele>
        <time>2019-08-08T16:28:58Z</time>
      </trkpt>
      <trkpt lat="48.56081" lon="7.56441">
        <ele>157.1</ele>
        <time>2019-08-08T16:28:59Z</time>
      </trkpt>
      <trkpt lat="48.56086" lon="7.56439">
        <ele>157.1</ele>
        <time>2019-08-08T16:29:01Z</time>
      </trkpt>
      <trkpt lat="48.56089" lon="7.56436">
        <ele>157.2</ele>
        <time>2019-08-08T16:29:02Z</time>
      </trkpt>
      <trkpt lat="48.56093" lon="7.56433">
        <ele>157.2</ele>
        <time>2019-08-08T16:29:03Z</time>
      </trkpt>
      <trkpt lat="48.56096" lon="7.56429">
        <ele>157.3</ele>
        <time>2019-08-08T16:29:04Z</time>
      </trkpt>
      <trkpt lat="48.56099" lon="7.56424">
        <ele>157.3</ele>
        <time>2019-08-08T16:29:05Z</time>
      </trkpt>
      <trkpt lat="48.56103" lon="7.56419">
        <ele>157.4</ele>
        <time>2019-08-08T16:29:06Z</time>
      </trkpt>
      <trkpt lat="48.56106" lon="7.56414">
        <ele>157.4</ele>
        <time>2019-08-08T16:29:07Z</time>
      </trkpt>
      <trkpt lat="48.56109" lon="7.56409">
        <ele>157.5</ele>
        <time>2019-08-08T16:29:08Z</time>
      </trkpt>
      <trkpt lat="48.56112" lon="7.56404">
        <ele>157.5</ele>
        <time>2019-08-08T16:29:09Z</time>
      </trkpt>
      <trkpt lat="48.56116" lon="7.56401">
        <ele>157.5</ele>
        <time>2019-08-08T16:29:10Z</time>
      </trkpt>
      <trkpt lat="48.5612" lon="7.56396">
        <ele>157.5</ele>
        <time>2019-08-08T16:29:11Z</time>
      </trkpt>
      <trkpt lat="48.56124" lon="7.56392">
        <ele>157.6</ele>
        <time>2019-08-08T16:29:12Z</time>
      </trkpt>
      <trkpt lat="48.56128" lon="7.56387">
        <ele>157.6</ele>
        <time>2019-08-08T16:29:13Z</time>
      </trkpt>
      <trkpt lat="48.56133" lon="7.56382">
        <ele>157.6</ele>
        <time>2019-08-08T16:29:14Z</time>
      </trkpt>
      <trkpt lat="48.56136" lon="7.56377">
        <ele>157.7</ele>
        <time>2019-08-08T16:29:15Z</time>
      </trkpt>
      <trkpt lat="48.5614" lon="7.56371">
        <ele>157.7</ele>
        <time>2019-08-08T16:29:16Z</time>
      </trkpt>
      <trkpt lat="48.56143" lon="7.56365">
        <ele>157.7</ele>
        <time>2019-08-08T16:29:17Z</time>
      </trkpt>
      <trkpt lat="48.56147" lon="7.5636">
        <ele>157.8</ele>
        <time>2019-08-08T16:29:18Z</time>
      </trkpt>
      <trkpt lat="48.56151" lon="7.56354">
        <ele>157.8</ele>
        <time>2019-08-08T16:29:19Z</time>
      </trkpt>
      <trkpt lat="48.56155" lon="7.56348">
        <ele>157.9</ele>
        <time>2019-08-08T16:29:20Z</time>
      </trkpt>
      <trkpt lat="48.56158" lon="7.56343">
        <ele>157.9</ele>
        <time>2019-08-08T16:29:21Z</time>
      </trkpt>
      <trkpt lat="48.56161" lon="7.56337">
        <ele>157.9</ele>
        <time>2019-08-08T16:29:22Z</time>
      </trkpt>
      <trkpt lat="48.56164" lon="7.56333">
        <ele>157.9</ele>
        <time>2019-08-08T16:29:23Z</time>
      </trkpt>
      <trkpt lat="48.56167" lon="7.56328">
        <ele>157.9</ele>
        <time>2019-08-08T16:29:24Z</time>
      </trkpt>
      <trkpt lat="48.56171" lon="7.56324">
        <ele>158</ele>
        <time>2019-08-08T16:29:25Z</time>
      </trkpt>
      <trkpt lat="48.56173" lon="7.56321">
        <ele>158</ele>
        <time>2019-08-08T16:29:26Z</time>
      </trkpt>
      <trkpt lat="48.56178" lon="7.56317">
        <ele>158</ele>
        <time>2019-08-08T16:29:27Z</time>
      </trkpt>
      <trkpt lat="48.56183" lon="7.56313">
        <ele>158</ele>
        <time>2019-08-08T16:29:28Z</time>
      </trkpt>
      <trkpt lat="48.56188" lon="7.56309">
        <ele>158</ele>
        <time>2019-08-08T16:29:29Z</time>
      </trkpt>
      <trkpt lat="48.56192" lon="7.56304">
        <ele>158</ele>
        <time>2019-08-08T16:29:30Z</time>
      </trkpt>
      <trkpt lat="48.56197" lon="7.563">
        <ele>158</ele>
        <time>2019-08-08T16:29:31Z</time>
      </trkpt>
      <trkpt lat="48.56201" lon="7.56296">
        <ele>158.1</ele>
        <time>2019-08-08T16:29:32Z</time>
      </trkpt>
      <trkpt lat="48.56204" lon="7.56291">
        <ele>158.1</ele>
        <time>2019-08-08T16:29:33Z</time>
      </trkpt>
      <trkpt lat="48.56208" lon="7.56286">
        <ele>158.1</ele>
        <time>2019-08-08T16:29:34Z</time>
      </trkpt>
      <trkpt lat="48.56211" lon="7.56282">
        <ele>158.1</ele>
        <time>2019-08-08T16:29:35Z</time>
      </trkpt>
      <trkpt lat="48.56215" lon="7.56278">
        <ele>158.1</ele>
        <time>2019-08-08T16:29:36Z</time>
      </trkpt>
      <trkpt lat="48.5622" lon="7.56274">
        <ele>158.1</ele>
        <time>2019-08-08T16:29:37Z</time>
      </trkpt>
      <trkpt lat="48.56225" lon="7.5627">
        <ele>158.2</ele>
        <time>2019-08-08T16:29:38Z</time>
      </trkpt>
      <trkpt lat="48.56228" lon="7.56263">
        <ele>158.2</ele>
        <time>2019-08-08T16:29:39Z</time>
      </trkpt>
      <trkpt lat="48.56232" lon="7.56259">
        <ele>158.2</ele>
        <time>2019-08-08T16:29:40Z</time>
      </trkpt>
      <trkpt lat="48.56236" lon="7.56255">
        <ele>158.2</ele>
        <time>2019-08-08T16:29:41Z</time>
      </trkpt>
      <trkpt lat="48.5624" lon="7.56249">
        <ele>158.2</ele>
        <time>2019-08-08T16:29:42Z</time>
      </trkpt>
      <trkpt lat="48.56244" lon="7.56244">
        <ele>158.2</ele>
        <time>2019-08-08T16:29:43Z</time>
      </trkpt>
      <trkpt lat="48.56247" lon="7.56239">
        <ele>158.2</ele>
        <time>2019-08-08T16:29:44Z</time>
      </trkpt>
      <trkpt lat="48.56251" lon="7.56234">
        <ele>158.2</ele>
        <time>2019-08-08T16:29:45Z</time>
      </trkpt>
      <trkpt lat="48.56254" lon="7.56229">
        <ele>158.2</ele>
        <time>2019-08-08T16:29:46Z</time>
      </trkpt>
      <trkpt lat="48.56258" lon="7.56223">
        <ele>158.2</ele>
        <time>2019-08-08T16:29:47Z</time>
      </trkpt>
      <trkpt lat="48.56261" lon="7.56218">
        <ele>158.2</ele>
        <time>2019-08-08T16:29:48Z</time>
      </trkpt>
      <trkpt lat="48.56264" lon="7.56213">
        <ele>158.2</ele>
        <time>2019-08-08T16:29:49Z</time>
      </trkpt>
      <trkpt lat="48.56267" lon="7.56207">
        <ele>158.2</ele>
        <time>2019-08-08T16:29:50Z</time>
      </trkpt>
      <trkpt lat="48.56271" lon="7.56204">
        <ele>158.2</ele>
        <time>2019-08-08T16:29:51Z</time>
      </trkpt>
      <trkpt lat="48.56274" lon="7.56199">
        <ele>158.3</ele>
        <time>2019-08-08T16:29:52Z</time>
      </trkpt>
      <trkpt lat="48.56278" lon="7.56194">
        <ele>158.3</ele>
        <time>2019-08-08T16:29:53Z</time>
      </trkpt>
      <trkpt lat="48.56282" lon="7.56188">
        <ele>158.3</ele>
        <time>2019-08-08T16:29:54Z</time>
      </trkpt>
      <trkpt lat="48.56287" lon="7.5618">
        <ele>158.3</ele>
        <time>2019-08-08T16:29:55Z</time>
      </trkpt>
      <trkpt lat="48.56292" lon="7.56175">
        <ele>158.3</ele>
        <time>2019-08-08T16:29:56Z</time>
      </trkpt>
      <trkpt lat="48.56296" lon="7.56169">
        <ele>158.4</ele>
        <time>2019-08-08T16:29:57Z</time>
      </trkpt>
      <trkpt lat="48.563" lon="7.56163">
        <ele>158.4</ele>
        <time>2019-08-08T16:29:58Z</time>
      </trkpt>
      <trkpt lat="48.56304" lon="7.56158">
        <ele>158.4</ele>
        <time>2019-08-08T16:29:59Z</time>
      </trkpt>
      <trkpt lat="48.56307" lon="7.56153">
        <ele>158.4</ele>
        <time>2019-08-08T16:30:00Z</time>
      </trkpt>
      <trkpt lat="48.56311" lon="7.56148">
        <ele>158.4</ele>
        <time>2019-08-08T16:30:01Z</time>
      </trkpt>
      <trkpt lat="48.56314" lon="7.56143">
        <ele>158.4</ele>
        <time>2019-08-08T16:30:02Z</time>
      </trkpt>
      <trkpt lat="48.56318" lon="7.56138">
        <ele>158.4</ele>
        <time>2019-08-08T16:30:03Z</time>
      </trkpt>
      <trkpt lat="48.56322" lon="7.56133">
        <ele>158.4</ele>
        <time>2019-08-08T16:30:04Z</time>
      </trkpt>
      <trkpt lat="48.56326" lon="7.56128">
        <ele>158.4</ele>
        <time>2019-08-08T16:30:05Z</time>
      </trkpt>
      <trkpt lat="48.56329" lon="7.56124">
        <ele>158.4</ele>
        <time>2019-08-08T16:30:06Z</time>
      </trkpt>
      <trkpt lat="48.56333" lon="7.56121">
        <ele>158.4</ele>
        <time>2019-08-08T16:30:07Z</time>
      </trkpt>
      <trkpt lat="48.56336" lon="7.56117">
        <ele>158.4</ele>
        <time>2019-08-08T16:30:08Z</time>
      </trkpt>
      <trkpt lat="48.56338" lon="7.56112">
        <ele>158.4</ele>
        <time>2019-08-08T16:30:09Z</time>
      </trkpt>
      <trkpt lat="48.56341" lon="7.56108">
        <ele>158.4</ele>
        <time>2019-08-08T16:30:10Z</time>
      </trkpt>
      <trkpt lat="48.56345" lon="7.56105">
        <ele>158.4</ele>
        <time>2019-08-08T16:30:11Z</time>
      </trkpt>
      <trkpt lat="48.56348" lon="7.56099">
        <ele>158.4</ele>
        <time>2019-08-08T16:30:12Z</time>
      </trkpt>
      <trkpt lat="48.56351" lon="7.56094">
        <ele>158.4</ele>
        <time>2019-08-08T16:30:13Z</time>
      </trkpt>
      <trkpt lat="48.56354" lon="7.56091">
        <ele>158.4</ele>
        <time>2019-08-08T16:30:14Z</time>
      </trkpt>
      <trkpt lat="48.56357" lon="7.56087">
        <ele>158.4</ele>
        <time>2019-08-08T16:30:15Z</time>
      </trkpt>
      <trkpt lat="48.5636" lon="7.56084">
        <ele>158.4</ele>
        <time>2019-08-08T16:30:16Z</time>
      </trkpt>
      <trkpt lat="48.56362" lon="7.56081">
        <ele>158.4</ele>
        <time>2019-08-08T16:30:26Z</time>
      </trkpt>
      <trkpt lat="48.56363" lon="7.56076">
        <ele>158.4</ele>
        <time>2019-08-08T16:31:00Z</time>
      </trkpt>
      <trkpt lat="48.56364" lon="7.56071">
        <ele>158.4</ele>
        <time>2019-08-08T16:31:02Z</time>
      </trkpt>
      <trkpt lat="48.56367" lon="7.56065">
        <ele>158.4</ele>
        <time>2019-08-08T16:31:05Z</time>
      </trkpt>
      <trkpt lat="48.56366" lon="7.56059">
        <ele>158.4</ele>
        <time>2019-08-08T16:31:08Z</time>
      </trkpt>
      <trkpt lat="48.56368" lon="7.56053">
        <ele>158.4</ele>
        <time>2019-08-08T16:31:10Z</time>
      </trkpt>
      <trkpt lat="48.5637" lon="7.56048">
        <ele>158.4</ele>
        <time>2019-08-08T16:31:12Z</time>
      </trkpt>
      <trkpt lat="48.56372" lon="7.5604">
        <ele>158.4</ele>
        <time>2019-08-08T16:31:14Z</time>
      </trkpt>
      <trkpt lat="48.56373" lon="7.56035">
        <ele>158.4</ele>
        <time>2019-08-08T16:31:15Z</time>
      </trkpt>
      <trkpt lat="48.56374" lon="7.5603">
        <ele>158.4</ele>
        <time>2019-08-08T16:31:16Z</time>
      </trkpt>
      <trkpt lat="48.56375" lon="7.56026">
        <ele>158.4</ele>
        <time>2019-08-08T16:31:17Z</time>
      </trkpt>
      <trkpt lat="48.56375" lon="7.56021">
        <ele>158.4</ele>
        <time>2019-08-08T16:31:18Z</time>
      </trkpt>
      <trkpt lat="48.56376" lon="7.56017">
        <ele>158.4</ele>
        <time>2019-08-08T16:31:19Z</time>
      </trkpt>
      <trkpt lat="48.56376" lon="7.56012">
        <ele>158.4</ele>
        <time>2019-08-08T16:31:20Z</time>
      </trkpt>
      <trkpt lat="48.56377" lon="7.56006">
        <ele>158.4</ele>
        <time>2019-08-08T16:31:21Z</time>
      </trkpt>
      <trkpt lat="48.56377" lon="7.56">
        <ele>158.4</ele>
        <time>2019-08-08T16:31:22Z</time>
      </trkpt>
      <trkpt lat="48.56377" lon="7.55995">
        <ele>158.4</ele>
        <time>2019-08-08T16:31:23Z</time>
      </trkpt>
      <trkpt lat="48.56378" lon="7.55989">
        <ele>158.4</ele>
        <time>2019-08-08T16:31:24Z</time>
      </trkpt>
      <trkpt lat="48.56379" lon="7.55985">
        <ele>158.4</ele>
        <time>2019-08-08T16:31:25Z</time>
      </trkpt>
      <trkpt lat="48.5638" lon="7.5598">
        <ele>158.4</ele>
        <time>2019-08-08T16:31:26Z</time>
      </trkpt>
      <trkpt lat="48.56381" lon="7.55976">
        <ele>158.4</ele>
        <time>2019-08-08T16:31:27Z</time>
      </trkpt>
      <trkpt lat="48.56381" lon="7.55971">
        <ele>158.4</ele>
        <time>2019-08-08T16:31:28Z</time>
      </trkpt>
      <trkpt lat="48.56383" lon="7.55965">
        <ele>158.4</ele>
        <time>2019-08-08T16:31:29Z</time>
      </trkpt>
      <trkpt lat="48.56384" lon="7.55959">
        <ele>158.4</ele>
        <time>2019-08-08T16:31:30Z</time>
      </trkpt>
      <trkpt lat="48.56384" lon="7.55951">
        <ele>158.4</ele>
        <time>2019-08-08T16:31:31Z</time>
      </trkpt>
      <trkpt lat="48.56386" lon="7.55946">
        <ele>158.4</ele>
        <time>2019-08-08T16:31:32Z</time>
      </trkpt>
      <trkpt lat="48.56387" lon="7.55941">
        <ele>158.4</ele>
        <time>2019-08-08T16:31:33Z</time>
      </trkpt>
      <trkpt lat="48.56388" lon="7.55934">
        <ele>158.4</ele>
        <time>2019-08-08T16:31:34Z</time>
      </trkpt>
      <trkpt lat="48.56389" lon="7.55926">
        <ele>158.4</ele>
        <time>2019-08-08T16:31:35Z</time>
      </trkpt>
      <trkpt lat="48.5639" lon="7.5592">
        <ele>158.5</ele>
        <time>2019-08-08T16:31:36Z</time>
      </trkpt>
      <trkpt lat="48.5639" lon="7.55913">
        <ele>158.5</ele>
        <time>2019-08-08T16:31:37Z</time>
      </trkpt>
      <trkpt lat="48.56391" lon="7.55907">
        <ele>158.5</ele>
        <time>2019-08-08T16:31:38Z</time>
      </trkpt>
      <trkpt lat="48.56391" lon="7.55901">
        <ele>158.5</ele>
        <time>2019-08-08T16:31:39Z</time>
      </trkpt>
      <trkpt lat="48.56392" lon="7.55896">
        <ele>158.5</ele>
        <time>2019-08-08T16:31:40Z</time>
      </trkpt>
      <trkpt lat="48.56393" lon="7.55891">
        <ele>158.6</ele>
        <time>2019-08-08T16:31:41Z</time>
      </trkpt>
      <trkpt lat="48.56394" lon="7.55885">
        <ele>158.6</ele>
        <time>2019-08-08T16:31:42Z</time>
      </trkpt>
      <trkpt lat="48.56394" lon="7.55878">
        <ele>158.6</ele>
        <time>2019-08-08T16:31:43Z</time>
      </trkpt>
      <trkpt lat="48.56395" lon="7.5587">
        <ele>158.6</ele>
        <time>2019-08-08T16:31:44Z</time>
      </trkpt>
      <trkpt lat="48.56395" lon="7.55863">
        <ele>158.7</ele>
        <time>2019-08-08T16:31:45Z</time>
      </trkpt>
      <trkpt lat="48.56396" lon="7.55854">
        <ele>158.7</ele>
        <time>2019-08-08T16:31:46Z</time>
      </trkpt>
      <trkpt lat="48.56397" lon="7.55846">
        <ele>158.8</ele>
        <time>2019-08-08T16:31:47Z</time>
      </trkpt>
      <trkpt lat="48.56397" lon="7.55838">
        <ele>158.8</ele>
        <time>2019-08-08T16:31:48Z</time>
      </trkpt>
      <trkpt lat="48.56397" lon="7.5583">
        <ele>158.9</ele>
        <time>2019-08-08T16:31:49Z</time>
      </trkpt>
      <trkpt lat="48.56397" lon="7.55822">
        <ele>159</ele>
        <time>2019-08-08T16:31:50Z</time>
      </trkpt>
      <trkpt lat="48.56397" lon="7.55814">
        <ele>159</ele>
        <time>2019-08-08T16:31:51Z</time>
      </trkpt>
      <trkpt lat="48.56398" lon="7.55806">
        <ele>159.1</ele>
        <time>2019-08-08T16:31:52Z</time>
      </trkpt>
      <trkpt lat="48.56398" lon="7.55797">
        <ele>159.2</ele>
        <time>2019-08-08T16:31:53Z</time>
      </trkpt>
      <trkpt lat="48.56397" lon="7.55787">
        <ele>159.2</ele>
        <time>2019-08-08T16:31:54Z</time>
      </trkpt>
      <trkpt lat="48.56396" lon="7.55778">
        <ele>159.3</ele>
        <time>2019-08-08T16:31:55Z</time>
      </trkpt>
      <trkpt lat="48.56396" lon="7.55768">
        <ele>159.3</ele>
        <time>2019-08-08T16:31:56Z</time>
      </trkpt>
      <trkpt lat="48.56396" lon="7.55758">
        <ele>159.3</ele>
        <time>2019-08-08T16:31:57Z</time>
      </trkpt>
      <trkpt lat="48.56396" lon="7.55749">
        <ele>159.4</ele>
        <time>2019-08-08T16:31:58Z</time>
      </trkpt>
      <trkpt lat="48.56396" lon="7.55739">
        <ele>159.4</ele>
        <time>2019-08-08T16:31:59Z</time>
      </trkpt>
      <trkpt lat="48.56396" lon="7.55731">
        <ele>159.4</ele>
        <time>2019-08-08T16:32:00Z</time>
      </trkpt>
      <trkpt lat="48.56394" lon="7.55726">
        <ele>159.4</ele>
        <time>2019-08-08T16:32:01Z</time>
      </trkpt>
      <trkpt lat="48.56391" lon="7.5572">
        <ele>159.4</ele>
        <time>2019-08-08T16:32:02Z</time>
      </trkpt>
      <trkpt lat="48.5639" lon="7.55714">
        <ele>159.4</ele>
        <time>2019-08-08T16:32:03Z</time>
      </trkpt>
      <trkpt lat="48.56389" lon="7.55708">
        <ele>159.4</ele>
        <time>2019-08-08T16:32:04Z</time>
      </trkpt>
      <trkpt lat="48.56389" lon="7.55701">
        <ele>159.4</ele>
        <time>2019-08-08T16:32:05Z</time>
      </trkpt>
      <trkpt lat="48.56388" lon="7.55697">
        <ele>159.4</ele>
        <time>2019-08-08T16:32:06Z</time>
      </trkpt>
      <trkpt lat="48.56388" lon="7.55691">
        <ele>159.4</ele>
        <time>2019-08-08T16:32:08Z</time>
      </trkpt>
      <trkpt lat="48.56389" lon="7.55683">
        <ele>159.3</ele>
        <time>2019-08-08T16:32:10Z</time>
      </trkpt>
      <trkpt lat="48.5639" lon="7.55676">
        <ele>159.3</ele>
        <time>2019-08-08T16:32:11Z</time>
      </trkpt>
      <trkpt lat="48.56391" lon="7.5567">
        <ele>159.3</ele>
        <time>2019-08-08T16:32:12Z</time>
      </trkpt>
      <trkpt lat="48.56392" lon="7.55665">
        <ele>159.3</ele>
        <time>2019-08-08T16:32:13Z</time>
      </trkpt>
      <trkpt lat="48.56392" lon="7.5566">
        <ele>159.3</ele>
        <time>2019-08-08T16:32:14Z</time>
      </trkpt>
      <trkpt lat="48.56394" lon="7.55654">
        <ele>159.3</ele>
        <time>2019-08-08T16:32:15Z</time>
      </trkpt>
      <trkpt lat="48.56396" lon="7.55649">
        <ele>159.2</ele>
        <time>2019-08-08T16:32:16Z</time>
      </trkpt>
      <trkpt lat="48.56397" lon="7.55645">
        <ele>159.2</ele>
        <time>2019-08-08T16:32:17Z</time>
      </trkpt>
      <trkpt lat="48.564" lon="7.55638">
        <ele>159.1</ele>
        <time>2019-08-08T16:32:19Z</time>
      </trkpt>
      <trkpt lat="48.56402" lon="7.55635">
        <ele>159.1</ele>
        <time>2019-08-08T16:32:20Z</time>
      </trkpt>
      <trkpt lat="48.56405" lon="7.55631">
        <ele>159</ele>
        <time>2019-08-08T16:32:21Z</time>
      </trkpt>
      <trkpt lat="48.56407" lon="7.55626">
        <ele>159</ele>
        <time>2019-08-08T16:32:22Z</time>
      </trkpt>
      <trkpt lat="48.56411" lon="7.55621">
        <ele>158.8</ele>
        <time>2019-08-08T16:32:23Z</time>
      </trkpt>
      <trkpt lat="48.56412" lon="7.55616">
        <ele>158.8</ele>
        <time>2019-08-08T16:32:24Z</time>
      </trkpt>
      <trkpt lat="48.56414" lon="7.55613">
        <ele>158.7</ele>
        <time>2019-08-08T16:32:25Z</time>
      </trkpt>
      <trkpt lat="48.56416" lon="7.55606">
        <ele>158.6</ele>
        <time>2019-08-08T16:32:27Z</time>
      </trkpt>
      <trkpt lat="48.56417" lon="7.556">
        <ele>158.5</ele>
        <time>2019-08-08T16:32:29Z</time>
      </trkpt>
      <trkpt lat="48.56419" lon="7.55587">
        <ele>158.4</ele>
        <time>2019-08-08T16:32:31Z</time>
      </trkpt>
      <trkpt lat="48.5642" lon="7.55578">
        <ele>158.3</ele>
        <time>2019-08-08T16:32:35Z</time>
      </trkpt>
      <trkpt lat="48.56421" lon="7.55573">
        <ele>158.3</ele>
        <time>2019-08-08T16:32:53Z</time>
      </trkpt>
      <trkpt lat="48.56422" lon="7.55568">
        <ele>158.2</ele>
        <time>2019-08-08T16:32:57Z</time>
      </trkpt>
      <trkpt lat="48.56424" lon="7.55562">
        <ele>158.2</ele>
        <time>2019-08-08T16:32:59Z</time>
      </trkpt>
      <trkpt lat="48.56429" lon="7.55553">
        <ele>158.2</ele>
        <time>2019-08-08T16:33:01Z</time>
      </trkpt>
      <trkpt lat="48.56432" lon="7.55547">
        <ele>158.2</ele>
        <time>2019-08-08T16:33:02Z</time>
      </trkpt>
      <trkpt lat="48.56435" lon="7.55541">
        <ele>158.2</ele>
        <time>2019-08-08T16:33:03Z</time>
      </trkpt>
      <trkpt lat="48.56438" lon="7.55535">
        <ele>158.2</ele>
        <time>2019-08-08T16:33:04Z</time>
      </trkpt>
      <trkpt lat="48.56441" lon="7.55527">
        <ele>158.2</ele>
        <time>2019-08-08T16:33:05Z</time>
      </trkpt>
      <trkpt lat="48.56444" lon="7.55519">
        <ele>158.3</ele>
        <time>2019-08-08T16:33:06Z</time>
      </trkpt>
      <trkpt lat="48.56446" lon="7.5551">
        <ele>158.4</ele>
        <time>2019-08-08T16:33:07Z</time>
      </trkpt>
      <trkpt lat="48.5645" lon="7.55504">
        <ele>158.4</ele>
        <time>2019-08-08T16:33:08Z</time>
      </trkpt>
      <trkpt lat="48.56453" lon="7.55495">
        <ele>158.5</ele>
        <time>2019-08-08T16:33:09Z</time>
      </trkpt>
      <trkpt lat="48.56455" lon="7.55487">
        <ele>158.7</ele>
        <time>2019-08-08T16:33:10Z</time>
      </trkpt>
      <trkpt lat="48.56457" lon="7.55479">
        <ele>158.8</ele>
        <time>2019-08-08T16:33:11Z</time>
      </trkpt>
      <trkpt lat="48.5646" lon="7.55471">
        <ele>158.9</ele>
        <time>2019-08-08T16:33:12Z</time>
      </trkpt>
      <trkpt lat="48.56463" lon="7.55462">
        <ele>159.1</ele>
        <time>2019-08-08T16:33:13Z</time>
      </trkpt>
      <trkpt lat="48.56467" lon="7.55454">
        <ele>159.3</ele>
        <time>2019-08-08T16:33:14Z</time>
      </trkpt>
      <trkpt lat="48.5647" lon="7.55447">
        <ele>159.4</ele>
        <time>2019-08-08T16:33:15Z</time>
      </trkpt>
      <trkpt lat="48.56473" lon="7.55441">
        <ele>159.6</ele>
        <time>2019-08-08T16:33:16Z</time>
      </trkpt>
      <trkpt lat="48.56476" lon="7.55434">
        <ele>159.7</ele>
        <time>2019-08-08T16:33:17Z</time>
      </trkpt>
      <trkpt lat="48.56479" lon="7.55427">
        <ele>159.8</ele>
        <time>2019-08-08T16:33:18Z</time>
      </trkpt>
      <trkpt lat="48.56483" lon="7.55419">
        <ele>159.9</ele>
        <time>2019-08-08T16:33:19Z</time>
      </trkpt>
      <trkpt lat="48.56486" lon="7.55411">
        <ele>160</ele>
        <time>2019-08-08T16:33:20Z</time>
      </trkpt>
      <trkpt lat="48.56491" lon="7.55405">
        <ele>160</ele>
        <time>2019-08-08T16:33:21Z</time>
      </trkpt>
      <trkpt lat="48.56494" lon="7.55397">
        <ele>160.1</ele>
        <time>2019-08-08T16:33:22Z</time>
      </trkpt>
      <trkpt lat="48.56497" lon="7.5539">
        <ele>160.1</ele>
        <time>2019-08-08T16:33:23Z</time>
      </trkpt>
      <trkpt lat="48.565" lon="7.55382">
        <ele>160.1</ele>
        <time>2019-08-08T16:33:24Z</time>
      </trkpt>
      <trkpt lat="48.56504" lon="7.55373">
        <ele>160.1</ele>
        <time>2019-08-08T16:33:25Z</time>
      </trkpt>
      <trkpt lat="48.56507" lon="7.55365">
        <ele>160.1</ele>
        <time>2019-08-08T16:33:26Z</time>
      </trkpt>
      <trkpt lat="48.56511" lon="7.55358">
        <ele>160.1</ele>
        <time>2019-08-08T16:33:27Z</time>
      </trkpt>
      <trkpt lat="48.56514" lon="7.55351">
        <ele>160</ele>
        <time>2019-08-08T16:33:28Z</time>
      </trkpt>
      <trkpt lat="48.56517" lon="7.55345">
        <ele>160</ele>
        <time>2019-08-08T16:33:29Z</time>
      </trkpt>
      <trkpt lat="48.56519" lon="7.55337">
        <ele>160</ele>
        <time>2019-08-08T16:33:30Z</time>
      </trkpt>
      <trkpt lat="48.56521" lon="7.55331">
        <ele>160</ele>
        <time>2019-08-08T16:33:31Z</time>
      </trkpt>
      <trkpt lat="48.56523" lon="7.55326">
        <ele>159.9</ele>
        <time>2019-08-08T16:33:32Z</time>
      </trkpt>
      <trkpt lat="48.56525" lon="7.55321">
        <ele>159.9</ele>
        <time>2019-08-08T16:33:33Z</time>
      </trkpt>
      <trkpt lat="48.56526" lon="7.55316">
        <ele>159.9</ele>
        <time>2019-08-08T16:33:34Z</time>
      </trkpt>
      <trkpt lat="48.56528" lon="7.55308">
        <ele>159.9</ele>
        <time>2019-08-08T16:33:36Z</time>
      </trkpt>
      <trkpt lat="48.5653" lon="7.55302">
        <ele>159.9</ele>
        <time>2019-08-08T16:33:37Z</time>
      </trkpt>
      <trkpt lat="48.56531" lon="7.55295">
        <ele>159.8</ele>
        <time>2019-08-08T16:33:38Z</time>
      </trkpt>
      <trkpt lat="48.56533" lon="7.55288">
        <ele>159.8</ele>
        <time>2019-08-08T16:33:39Z</time>
      </trkpt>
      <trkpt lat="48.56535" lon="7.55281">
        <ele>159.8</ele>
        <time>2019-08-08T16:33:40Z</time>
      </trkpt>
      <trkpt lat="48.56536" lon="7.55273">
        <ele>159.8</ele>
        <time>2019-08-08T16:33:41Z</time>
      </trkpt>
      <trkpt lat="48.56536" lon="7.55267">
        <ele>159.7</ele>
        <time>2019-08-08T16:33:42Z</time>
      </trkpt>
      <trkpt lat="48.56537" lon="7.55261">
        <ele>159.7</ele>
        <time>2019-08-08T16:33:43Z</time>
      </trkpt>
      <trkpt lat="48.56537" lon="7.55254">
        <ele>159.7</ele>
        <time>2019-08-08T16:33:44Z</time>
      </trkpt>
      <trkpt lat="48.56538" lon="7.55248">
        <ele>159.7</ele>
        <time>2019-08-08T16:33:45Z</time>
      </trkpt>
      <trkpt lat="48.56539" lon="7.55241">
        <ele>159.7</ele>
        <time>2019-08-08T16:33:46Z</time>
      </trkpt>
      <trkpt lat="48.56539" lon="7.55234">
        <ele>159.6</ele>
        <time>2019-08-08T16:33:47Z</time>
      </trkpt>
      <trkpt lat="48.5654" lon="7.55228">
        <ele>159.6</ele>
        <time>2019-08-08T16:33:48Z</time>
      </trkpt>
      <trkpt lat="48.5654" lon="7.55221">
        <ele>159.6</ele>
        <time>2019-08-08T16:33:49Z</time>
      </trkpt>
      <trkpt lat="48.5654" lon="7.55215">
        <ele>159.6</ele>
        <time>2019-08-08T16:33:50Z</time>
      </trkpt>
      <trkpt lat="48.56539" lon="7.55208">
        <ele>159.6</ele>
        <time>2019-08-08T16:33:51Z</time>
      </trkpt>
      <trkpt lat="48.56539" lon="7.55203">
        <ele>159.6</ele>
        <time>2019-08-08T16:33:52Z</time>
      </trkpt>
      <trkpt lat="48.5654" lon="7.55198">
        <ele>159.6</ele>
        <time>2019-08-08T16:33:53Z</time>
      </trkpt>
      <trkpt lat="48.56541" lon="7.55191">
        <ele>159.6</ele>
        <time>2019-08-08T16:33:54Z</time>
      </trkpt>
      <trkpt lat="48.56541" lon="7.55185">
        <ele>159.6</ele>
        <time>2019-08-08T16:33:55Z</time>
      </trkpt>
      <trkpt lat="48.56541" lon="7.55177">
        <ele>159.6</ele>
        <time>2019-08-08T16:33:56Z</time>
      </trkpt>
      <trkpt lat="48.56541" lon="7.55171">
        <ele>159.5</ele>
        <time>2019-08-08T16:33:57Z</time>
      </trkpt>
      <trkpt lat="48.56543" lon="7.55165">
        <ele>159.5</ele>
        <time>2019-08-08T16:33:58Z</time>
      </trkpt>
      <trkpt lat="48.56543" lon="7.55157">
        <ele>159.5</ele>
        <time>2019-08-08T16:33:59Z</time>
      </trkpt>
      <trkpt lat="48.56543" lon="7.55152">
        <ele>159.5</ele>
        <time>2019-08-08T16:34:00Z</time>
      </trkpt>
      <trkpt lat="48.56544" lon="7.55147">
        <ele>159.5</ele>
        <time>2019-08-08T16:34:01Z</time>
      </trkpt>
      <trkpt lat="48.56546" lon="7.55142">
        <ele>159.5</ele>
        <time>2019-08-08T16:34:02Z</time>
      </trkpt>
      <trkpt lat="48.56547" lon="7.55137">
        <ele>159.5</ele>
        <time>2019-08-08T16:34:03Z</time>
      </trkpt>
      <trkpt lat="48.5655" lon="7.55134">
        <ele>159.5</ele>
        <time>2019-08-08T16:34:04Z</time>
      </trkpt>
      <trkpt lat="48.56551" lon="7.55131">
        <ele>159.5</ele>
        <time>2019-08-08T16:34:05Z</time>
      </trkpt>
      <trkpt lat="48.56553" lon="7.55127">
        <ele>159.5</ele>
        <time>2019-08-08T16:34:06Z</time>
      </trkpt>
      <trkpt lat="48.56555" lon="7.55123">
        <ele>159.5</ele>
        <time>2019-08-08T16:34:07Z</time>
      </trkpt>
      <trkpt lat="48.56557" lon="7.55117">
        <ele>159.5</ele>
        <time>2019-08-08T16:34:08Z</time>
      </trkpt>
      <trkpt lat="48.56559" lon="7.55111">
        <ele>159.5</ele>
        <time>2019-08-08T16:34:09Z</time>
      </trkpt>
      <trkpt lat="48.56561" lon="7.55103">
        <ele>159.5</ele>
        <time>2019-08-08T16:34:10Z</time>
      </trkpt>
      <trkpt lat="48.56563" lon="7.55098">
        <ele>159.5</ele>
        <time>2019-08-08T16:34:11Z</time>
      </trkpt>
      <trkpt lat="48.56566" lon="7.55093">
        <ele>159.5</ele>
        <time>2019-08-08T16:34:12Z</time>
      </trkpt>
      <trkpt lat="48.56569" lon="7.5509">
        <ele>159.5</ele>
        <time>2019-08-08T16:34:13Z</time>
      </trkpt>
      <trkpt lat="48.56572" lon="7.55085">
        <ele>159.5</ele>
        <time>2019-08-08T16:34:15Z</time>
      </trkpt>
      <trkpt lat="48.56574" lon="7.5508">
        <ele>159.5</ele>
        <time>2019-08-08T16:34:17Z</time>
      </trkpt>
      <trkpt lat="48.56578" lon="7.55078">
        <ele>159.5</ele>
        <time>2019-08-08T16:34:18Z</time>
      </trkpt>
      <trkpt lat="48.56582" lon="7.55076">
        <ele>159.5</ele>
        <time>2019-08-08T16:34:19Z</time>
      </trkpt>
      <trkpt lat="48.56585" lon="7.55071">
        <ele>159.5</ele>
        <time>2019-08-08T16:34:20Z</time>
      </trkpt>
      <trkpt lat="48.5659" lon="7.55068">
        <ele>159.5</ele>
        <time>2019-08-08T16:34:21Z</time>
      </trkpt>
      <trkpt lat="48.56593" lon="7.55065">
        <ele>159.5</ele>
        <time>2019-08-08T16:34:22Z</time>
      </trkpt>
      <trkpt lat="48.56598" lon="7.55061">
        <ele>159.5</ele>
        <time>2019-08-08T16:34:23Z</time>
      </trkpt>
      <trkpt lat="48.56603" lon="7.55058">
        <ele>159.5</ele>
        <time>2019-08-08T16:34:24Z</time>
      </trkpt>
      <trkpt lat="48.56607" lon="7.55055">
        <ele>159.5</ele>
        <time>2019-08-08T16:34:25Z</time>
      </trkpt>
      <trkpt lat="48.56611" lon="7.55052">
        <ele>159.5</ele>
        <time>2019-08-08T16:34:26Z</time>
      </trkpt>
      <trkpt lat="48.56615" lon="7.55049">
        <ele>159.5</ele>
        <time>2019-08-08T16:34:27Z</time>
      </trkpt>
      <trkpt lat="48.56618" lon="7.55047">
        <ele>159.5</ele>
        <time>2019-08-08T16:34:28Z</time>
      </trkpt>
      <trkpt lat="48.56622" lon="7.55044">
        <ele>159.6</ele>
        <time>2019-08-08T16:34:29Z</time>
      </trkpt>
      <trkpt lat="48.56626" lon="7.5504">
        <ele>159.6</ele>
        <time>2019-08-08T16:34:30Z</time>
      </trkpt>
      <trkpt lat="48.5663" lon="7.55035">
        <ele>159.6</ele>
        <time>2019-08-08T16:34:31Z</time>
      </trkpt>
      <trkpt lat="48.56634" lon="7.5503">
        <ele>159.6</ele>
        <time>2019-08-08T16:34:32Z</time>
      </trkpt>
      <trkpt lat="48.56639" lon="7.55027">
        <ele>159.7</ele>
        <time>2019-08-08T16:34:33Z</time>
      </trkpt>
      <trkpt lat="48.56643" lon="7.55024">
        <ele>159.7</ele>
        <time>2019-08-08T16:34:34Z</time>
      </trkpt>
      <trkpt lat="48.56648" lon="7.5502">
        <ele>159.7</ele>
        <time>2019-08-08T16:34:35Z</time>
      </trkpt>
      <trkpt lat="48.56653" lon="7.55017">
        <ele>159.8</ele>
        <time>2019-08-08T16:34:36Z</time>
      </trkpt>
      <trkpt lat="48.56657" lon="7.55014">
        <ele>159.8</ele>
        <time>2019-08-08T16:34:37Z</time>
      </trkpt>
      <trkpt lat="48.56661" lon="7.55011">
        <ele>159.9</ele>
        <time>2019-08-08T16:34:38Z</time>
      </trkpt>
      <trkpt lat="48.56665" lon="7.55005">
        <ele>160</ele>
        <time>2019-08-08T16:34:39Z</time>
      </trkpt>
      <trkpt lat="48.56669" lon="7.55001">
        <ele>160</ele>
        <time>2019-08-08T16:34:40Z</time>
      </trkpt>
      <trkpt lat="48.56673" lon="7.54995">
        <ele>160.1</ele>
        <time>2019-08-08T16:34:41Z</time>
      </trkpt>
      <trkpt lat="48.56676" lon="7.54989">
        <ele>160.2</ele>
        <time>2019-08-08T16:34:42Z</time>
      </trkpt>
      <trkpt lat="48.5668" lon="7.54984">
        <ele>160.3</ele>
        <time>2019-08-08T16:34:43Z</time>
      </trkpt>
      <trkpt lat="48.56683" lon="7.54978">
        <ele>160.5</ele>
        <time>2019-08-08T16:34:44Z</time>
      </trkpt>
      <trkpt lat="48.56687" lon="7.54972">
        <ele>160.6</ele>
        <time>2019-08-08T16:34:45Z</time>
      </trkpt>
      <trkpt lat="48.5669" lon="7.54967">
        <ele>160.8</ele>
        <time>2019-08-08T16:34:46Z</time>
      </trkpt>
      <trkpt lat="48.56694" lon="7.54961">
        <ele>160.9</ele>
        <time>2019-08-08T16:34:47Z</time>
      </trkpt>
      <trkpt lat="48.56698" lon="7.54953">
        <ele>161.1</ele>
        <time>2019-08-08T16:34:48Z</time>
      </trkpt>
      <trkpt lat="48.56701" lon="7.54948">
        <ele>161.2</ele>
        <time>2019-08-08T16:34:49Z</time>
      </trkpt>
      <trkpt lat="48.56705" lon="7.54943">
        <ele>161.3</ele>
        <time>2019-08-08T16:34:50Z</time>
      </trkpt>
      <trkpt lat="48.56708" lon="7.54938">
        <ele>161.4</ele>
        <time>2019-08-08T16:34:51Z</time>
      </trkpt>
      <trkpt lat="48.5671" lon="7.54934">
        <ele>161.5</ele>
        <time>2019-08-08T16:34:52Z</time>
      </trkpt>
      <trkpt lat="48.56712" lon="7.5493">
        <ele>161.5</ele>
        <time>2019-08-08T16:34:53Z</time>
      </trkpt>
      <trkpt lat="48.56713" lon="7.54923">
        <ele>161.6</ele>
        <time>2019-08-08T16:34:54Z</time>
      </trkpt>
      <trkpt lat="48.56716" lon="7.54917">
        <ele>161.6</ele>
        <time>2019-08-08T16:34:55Z</time>
      </trkpt>
      <trkpt lat="48.56718" lon="7.54912">
        <ele>161.7</ele>
        <time>2019-08-08T16:34:56Z</time>
      </trkpt>
      <trkpt lat="48.5672" lon="7.54904">
        <ele>161.7</ele>
        <time>2019-08-08T16:34:57Z</time>
      </trkpt>
      <trkpt lat="48.56722" lon="7.54898">
        <ele>161.7</ele>
        <time>2019-08-08T16:34:58Z</time>
      </trkpt>
      <trkpt lat="48.56726" lon="7.54893">
        <ele>161.7</ele>
        <time>2019-08-08T16:34:59Z</time>
      </trkpt>
      <trkpt lat="48.56727" lon="7.54886">
        <ele>161.7</ele>
        <time>2019-08-08T16:35:00Z</time>
      </trkpt>
      <trkpt lat="48.56729" lon="7.54881">
        <ele>161.7</ele>
        <time>2019-08-08T16:35:01Z</time>
      </trkpt>
      <trkpt lat="48.56731" lon="7.54877">
        <ele>161.7</ele>
        <time>2019-08-08T16:35:02Z</time>
      </trkpt>
      <trkpt lat="48.56733" lon="7.54873">
        <ele>161.7</ele>
        <time>2019-08-08T16:35:03Z</time>
      </trkpt>
      <trkpt lat="48.56735" lon="7.54868">
        <ele>161.7</ele>
        <time>2019-08-08T16:35:04Z</time>
      </trkpt>
      <trkpt lat="48.56736" lon="7.54864">
        <ele>161.7</ele>
        <time>2019-08-08T16:35:05Z</time>
      </trkpt>
      <trkpt lat="48.56738" lon="7.54857">
        <ele>161.7</ele>
        <time>2019-08-08T16:35:06Z</time>
      </trkpt>
      <trkpt lat="48.56739" lon="7.54851">
        <ele>161.7</ele>
        <time>2019-08-08T16:35:07Z</time>
      </trkpt>
      <trkpt lat="48.56741" lon="7.54844">
        <ele>161.7</ele>
        <time>2019-08-08T16:35:08Z</time>
      </trkpt>
      <trkpt lat="48.56743" lon="7.54837">
        <ele>161.7</ele>
        <time>2019-08-08T16:35:09Z</time>
      </trkpt>
      <trkpt lat="48.56745" lon="7.54829">
        <ele>161.7</ele>
        <time>2019-08-08T16:35:10Z</time>
      </trkpt>
      <trkpt lat="48.56747" lon="7.54821">
        <ele>161.7</ele>
        <time>2019-08-08T16:35:11Z</time>
      </trkpt>
      <trkpt lat="48.56749" lon="7.54811">
        <ele>161.7</ele>
        <time>2019-08-08T16:35:12Z</time>
      </trkpt>
      <trkpt lat="48.56751" lon="7.54796">
        <ele>161.7</ele>
        <time>2019-08-08T16:35:13Z</time>
      </trkpt>
      <trkpt lat="48.56753" lon="7.54783">
        <ele>161.7</ele>
        <time>2019-08-08T16:35:14Z</time>
      </trkpt>
      <trkpt lat="48.56755" lon="7.54769">
        <ele>161.6</ele>
        <time>2019-08-08T16:35:15Z</time>
      </trkpt>
      <trkpt lat="48.56757" lon="7.54759">
        <ele>161.6</ele>
        <time>2019-08-08T16:35:16Z</time>
      </trkpt>
      <trkpt lat="48.56759" lon="7.54748">
        <ele>161.6</ele>
        <time>2019-08-08T16:35:17Z</time>
      </trkpt>
      <trkpt lat="48.56759" lon="7.54737">
        <ele>161.5</ele>
        <time>2019-08-08T16:35:18Z</time>
      </trkpt>
      <trkpt lat="48.56761" lon="7.54725">
        <ele>161.5</ele>
        <time>2019-08-08T16:35:19Z</time>
      </trkpt>
      <trkpt lat="48.56763" lon="7.54714">
        <ele>161.5</ele>
        <time>2019-08-08T16:35:20Z</time>
      </trkpt>
      <trkpt lat="48.56764" lon="7.54703">
        <ele>161.5</ele>
        <time>2019-08-08T16:35:21Z</time>
      </trkpt>
      <trkpt lat="48.56765" lon="7.54694">
        <ele>161.5</ele>
        <time>2019-08-08T16:35:22Z</time>
      </trkpt>
      <trkpt lat="48.56765" lon="7.54684">
        <ele>161.5</ele>
        <time>2019-08-08T16:35:23Z</time>
      </trkpt>
      <trkpt lat="48.56766" lon="7.54675">
        <ele>161.5</ele>
        <time>2019-08-08T16:35:24Z</time>
      </trkpt>
      <trkpt lat="48.56766" lon="7.54667">
        <ele>161.5</ele>
        <time>2019-08-08T16:35:25Z</time>
      </trkpt>
      <trkpt lat="48.56767" lon="7.54657">
        <ele>161.5</ele>
        <time>2019-08-08T16:35:26Z</time>
      </trkpt>
      <trkpt lat="48.56768" lon="7.54648">
        <ele>161.5</ele>
        <time>2019-08-08T16:35:27Z</time>
      </trkpt>
      <trkpt lat="48.5677" lon="7.54641">
        <ele>161.5</ele>
        <time>2019-08-08T16:35:28Z</time>
      </trkpt>
      <trkpt lat="48.5677" lon="7.54632">
        <ele>161.5</ele>
        <time>2019-08-08T16:35:29Z</time>
      </trkpt>
      <trkpt lat="48.56771" lon="7.54624">
        <ele>161.5</ele>
        <time>2019-08-08T16:35:30Z</time>
      </trkpt>
      <trkpt lat="48.56771" lon="7.54617">
        <ele>161.5</ele>
        <time>2019-08-08T16:35:31Z</time>
      </trkpt>
      <trkpt lat="48.56772" lon="7.54611">
        <ele>161.5</ele>
        <time>2019-08-08T16:35:32Z</time>
      </trkpt>
      <trkpt lat="48.56773" lon="7.54607">
        <ele>161.6</ele>
        <time>2019-08-08T16:35:33Z</time>
      </trkpt>
      <trkpt lat="48.56772" lon="7.54598">
        <ele>161.6</ele>
        <time>2019-08-08T16:35:35Z</time>
      </trkpt>
      <trkpt lat="48.56772" lon="7.54593">
        <ele>161.6</ele>
        <time>2019-08-08T16:35:36Z</time>
      </trkpt>
      <trkpt lat="48.56772" lon="7.54584">
        <ele>161.6</ele>
        <time>2019-08-08T16:35:38Z</time>
      </trkpt>
      <trkpt lat="48.56773" lon="7.54578">
        <ele>161.6</ele>
        <time>2019-08-08T16:35:39Z</time>
      </trkpt>
      <trkpt lat="48.56774" lon="7.54573">
        <ele>161.6</ele>
        <time>2019-08-08T16:35:40Z</time>
      </trkpt>
      <trkpt lat="48.56774" lon="7.54568">
        <ele>161.7</ele>
        <time>2019-08-08T16:35:41Z</time>
      </trkpt>
      <trkpt lat="48.56775" lon="7.54561">
        <ele>161.7</ele>
        <time>2019-08-08T16:35:42Z</time>
      </trkpt>
      <trkpt lat="48.56776" lon="7.54553">
        <ele>161.7</ele>
        <time>2019-08-08T16:35:43Z</time>
      </trkpt>
      <trkpt lat="48.56777" lon="7.54545">
        <ele>161.7</ele>
        <time>2019-08-08T16:35:44Z</time>
      </trkpt>
      <trkpt lat="48.56779" lon="7.54534">
        <ele>161.7</ele>
        <time>2019-08-08T16:35:45Z</time>
      </trkpt>
      <trkpt lat="48.5678" lon="7.54526">
        <ele>161.7</ele>
        <time>2019-08-08T16:35:46Z</time>
      </trkpt>
      <trkpt lat="48.56781" lon="7.54516">
        <ele>161.7</ele>
        <time>2019-08-08T16:35:47Z</time>
      </trkpt>
      <trkpt lat="48.56781" lon="7.54504">
        <ele>161.7</ele>
        <time>2019-08-08T16:35:48Z</time>
      </trkpt>
      <trkpt lat="48.5678" lon="7.54493">
        <ele>161.8</ele>
        <time>2019-08-08T16:35:49Z</time>
      </trkpt>
      <trkpt lat="48.56781" lon="7.54483">
        <ele>161.8</ele>
        <time>2019-08-08T16:35:50Z</time>
      </trkpt>
      <trkpt lat="48.56781" lon="7.54473">
        <ele>161.8</ele>
        <time>2019-08-08T16:35:51Z</time>
      </trkpt>
      <trkpt lat="48.56782" lon="7.54465">
        <ele>161.8</ele>
        <time>2019-08-08T16:35:52Z</time>
      </trkpt>
      <trkpt lat="48.56782" lon="7.54457">
        <ele>161.8</ele>
        <time>2019-08-08T16:35:53Z</time>
      </trkpt>
      <trkpt lat="48.56782" lon="7.5445">
        <ele>161.9</ele>
        <time>2019-08-08T16:35:54Z</time>
      </trkpt>
      <trkpt lat="48.56782" lon="7.54442">
        <ele>161.9</ele>
        <time>2019-08-08T16:35:55Z</time>
      </trkpt>
      <trkpt lat="48.56782" lon="7.54433">
        <ele>161.9</ele>
        <time>2019-08-08T16:35:56Z</time>
      </trkpt>
      <trkpt lat="48.56783" lon="7.54424">
        <ele>161.9</ele>
        <time>2019-08-08T16:35:57Z</time>
      </trkpt>
      <trkpt lat="48.56782" lon="7.54417">
        <ele>161.9</ele>
        <time>2019-08-08T16:35:58Z</time>
      </trkpt>
      <trkpt lat="48.56782" lon="7.54409">
        <ele>162</ele>
        <time>2019-08-08T16:35:59Z</time>
      </trkpt>
      <trkpt lat="48.5678" lon="7.54402">
        <ele>162</ele>
        <time>2019-08-08T16:36:00Z</time>
      </trkpt>
      <trkpt lat="48.56779" lon="7.54394">
        <ele>162</ele>
        <time>2019-08-08T16:36:01Z</time>
      </trkpt>
      <trkpt lat="48.56779" lon="7.54386">
        <ele>162</ele>
        <time>2019-08-08T16:36:02Z</time>
      </trkpt>
      <trkpt lat="48.56779" lon="7.54378">
        <ele>162</ele>
        <time>2019-08-08T16:36:03Z</time>
      </trkpt>
      <trkpt lat="48.56779" lon="7.54371">
        <ele>162</ele>
        <time>2019-08-08T16:36:04Z</time>
      </trkpt>
      <trkpt lat="48.56779" lon="7.54364">
        <ele>162.1</ele>
        <time>2019-08-08T16:36:05Z</time>
      </trkpt>
      <trkpt lat="48.56779" lon="7.54355">
        <ele>162.1</ele>
        <time>2019-08-08T16:36:06Z</time>
      </trkpt>
      <trkpt lat="48.56779" lon="7.54347">
        <ele>162.1</ele>
        <time>2019-08-08T16:36:07Z</time>
      </trkpt>
      <trkpt lat="48.56779" lon="7.54338">
        <ele>162.1</ele>
        <time>2019-08-08T16:36:08Z</time>
      </trkpt>
      <trkpt lat="48.56779" lon="7.5433">
        <ele>162.1</ele>
        <time>2019-08-08T16:36:09Z</time>
      </trkpt>
      <trkpt lat="48.56779" lon="7.54322">
        <ele>162.1</ele>
        <time>2019-08-08T16:36:10Z</time>
      </trkpt>
      <trkpt lat="48.5678" lon="7.54315">
        <ele>162.1</ele>
        <time>2019-08-08T16:36:11Z</time>
      </trkpt>
      <trkpt lat="48.5678" lon="7.54307">
        <ele>162.1</ele>
        <time>2019-08-08T16:36:12Z</time>
      </trkpt>
      <trkpt lat="48.5678" lon="7.543">
        <ele>162</ele>
        <time>2019-08-08T16:36:13Z</time>
      </trkpt>
      <trkpt lat="48.56781" lon="7.54292">
        <ele>162</ele>
        <time>2019-08-08T16:36:14Z</time>
      </trkpt>
      <trkpt lat="48.56781" lon="7.54284">
        <ele>162</ele>
        <time>2019-08-08T16:36:15Z</time>
      </trkpt>
      <trkpt lat="48.56781" lon="7.54277">
        <ele>161.9</ele>
        <time>2019-08-08T16:36:16Z</time>
      </trkpt>
      <trkpt lat="48.5678" lon="7.5427">
        <ele>161.9</ele>
        <time>2019-08-08T16:36:17Z</time>
      </trkpt>
      <trkpt lat="48.5678" lon="7.54262">
        <ele>161.9</ele>
        <time>2019-08-08T16:36:18Z</time>
      </trkpt>
      <trkpt lat="48.5678" lon="7.54255">
        <ele>161.8</ele>
        <time>2019-08-08T16:36:19Z</time>
      </trkpt>
      <trkpt lat="48.5678" lon="7.54249">
        <ele>161.8</ele>
        <time>2019-08-08T16:36:20Z</time>
      </trkpt>
      <trkpt lat="48.56779" lon="7.54243">
        <ele>161.7</ele>
        <time>2019-08-08T16:36:21Z</time>
      </trkpt>
      <trkpt lat="48.56779" lon="7.54238">
        <ele>161.7</ele>
        <time>2019-08-08T16:36:22Z</time>
      </trkpt>
      <trkpt lat="48.56778" lon="7.54233">
        <ele>161.6</ele>
        <time>2019-08-08T16:36:23Z</time>
      </trkpt>
      <trkpt lat="48.56779" lon="7.54229">
        <ele>161.6</ele>
        <time>2019-08-08T16:36:24Z</time>
      </trkpt>
      <trkpt lat="48.56779" lon="7.54223">
        <ele>161.5</ele>
        <time>2019-08-08T16:36:25Z</time>
      </trkpt>
      <trkpt lat="48.56779" lon="7.54216">
        <ele>161.4</ele>
        <time>2019-08-08T16:36:26Z</time>
      </trkpt>
      <trkpt lat="48.56778" lon="7.54211">
        <ele>161.3</ele>
        <time>2019-08-08T16:36:27Z</time>
      </trkpt>
      <trkpt lat="48.56777" lon="7.54207">
        <ele>161.3</ele>
        <time>2019-08-08T16:36:28Z</time>
      </trkpt>
      <trkpt lat="48.56773" lon="7.54202">
        <ele>161.2</ele>
        <time>2019-08-08T16:36:30Z</time>
      </trkpt>
      <trkpt lat="48.56771" lon="7.54198">
        <ele>161.1</ele>
        <time>2019-08-08T16:36:32Z</time>
      </trkpt>
      <trkpt lat="48.56769" lon="7.54192">
        <ele>161.1</ele>
        <time>2019-08-08T16:36:34Z</time>
      </trkpt>
      <trkpt lat="48.56767" lon="7.54186">
        <ele>161</ele>
        <time>2019-08-08T16:36:36Z</time>
      </trkpt>
      <trkpt lat="48.56767" lon="7.54179">
        <ele>161</ele>
        <time>2019-08-08T16:36:37Z</time>
      </trkpt>
      <trkpt lat="48.56768" lon="7.54169">
        <ele>160.9</ele>
        <time>2019-08-08T16:36:38Z</time>
      </trkpt>
      <trkpt lat="48.56768" lon="7.5416">
        <ele>160.8</ele>
        <time>2019-08-08T16:36:39Z</time>
      </trkpt>
      <trkpt lat="48.56768" lon="7.54152">
        <ele>160.8</ele>
        <time>2019-08-08T16:36:40Z</time>
      </trkpt>
      <trkpt lat="48.56768" lon="7.54145">
        <ele>160.8</ele>
        <time>2019-08-08T16:36:41Z</time>
      </trkpt>
      <trkpt lat="48.56769" lon="7.54137">
        <ele>160.7</ele>
        <time>2019-08-08T16:36:42Z</time>
      </trkpt>
      <trkpt lat="48.5677" lon="7.54129">
        <ele>160.7</ele>
        <time>2019-08-08T16:36:43Z</time>
      </trkpt>
      <trkpt lat="48.56771" lon="7.54119">
        <ele>160.6</ele>
        <time>2019-08-08T16:36:44Z</time>
      </trkpt>
      <trkpt lat="48.56771" lon="7.54108">
        <ele>160.6</ele>
        <time>2019-08-08T16:36:45Z</time>
      </trkpt>
      <trkpt lat="48.5677" lon="7.54097">
        <ele>160.5</ele>
        <time>2019-08-08T16:36:46Z</time>
      </trkpt>
      <trkpt lat="48.5677" lon="7.54086">
        <ele>160.5</ele>
        <time>2019-08-08T16:36:47Z</time>
      </trkpt>
      <trkpt lat="48.5677" lon="7.54074">
        <ele>160.4</ele>
        <time>2019-08-08T16:36:48Z</time>
      </trkpt>
      <trkpt lat="48.5677" lon="7.54062">
        <ele>160.4</ele>
        <time>2019-08-08T16:36:49Z</time>
      </trkpt>
      <trkpt lat="48.56768" lon="7.54051">
        <ele>160.4</ele>
        <time>2019-08-08T16:36:50Z</time>
      </trkpt>
      <trkpt lat="48.56768" lon="7.54039">
        <ele>160.3</ele>
        <time>2019-08-08T16:36:51Z</time>
      </trkpt>
      <trkpt lat="48.56767" lon="7.54028">
        <ele>160.3</ele>
        <time>2019-08-08T16:36:52Z</time>
      </trkpt>
      <trkpt lat="48.56767" lon="7.54018">
        <ele>160.2</ele>
        <time>2019-08-08T16:36:53Z</time>
      </trkpt>
      <trkpt lat="48.56766" lon="7.54007">
        <ele>160.2</ele>
        <time>2019-08-08T16:36:54Z</time>
      </trkpt>
      <trkpt lat="48.56765" lon="7.53998">
        <ele>160.2</ele>
        <time>2019-08-08T16:36:55Z</time>
      </trkpt>
      <trkpt lat="48.56765" lon="7.5399">
        <ele>160.2</ele>
        <time>2019-08-08T16:36:56Z</time>
      </trkpt>
      <trkpt lat="48.56765" lon="7.53983">
        <ele>160.1</ele>
        <time>2019-08-08T16:36:57Z</time>
      </trkpt>
      <trkpt lat="48.56766" lon="7.53976">
        <ele>160.1</ele>
        <time>2019-08-08T16:36:58Z</time>
      </trkpt>
      <trkpt lat="48.56766" lon="7.53967">
        <ele>160.1</ele>
        <time>2019-08-08T16:36:59Z</time>
      </trkpt>
      <trkpt lat="48.56767" lon="7.5396">
        <ele>160.1</ele>
        <time>2019-08-08T16:37:00Z</time>
      </trkpt>
      <trkpt lat="48.56766" lon="7.53954">
        <ele>160.1</ele>
        <time>2019-08-08T16:37:01Z</time>
      </trkpt>
      <trkpt lat="48.56765" lon="7.53943">
        <ele>160.1</ele>
        <time>2019-08-08T16:37:02Z</time>
      </trkpt>
      <trkpt lat="48.56762" lon="7.53934">
        <ele>160.1</ele>
        <time>2019-08-08T16:37:03Z</time>
      </trkpt>
      <trkpt lat="48.56761" lon="7.53925">
        <ele>160.1</ele>
        <time>2019-08-08T16:37:04Z</time>
      </trkpt>
      <trkpt lat="48.56759" lon="7.53917">
        <ele>160.1</ele>
        <time>2019-08-08T16:37:05Z</time>
      </trkpt>
      <trkpt lat="48.56756" lon="7.53909">
        <ele>160.1</ele>
        <time>2019-08-08T16:37:06Z</time>
      </trkpt>
      <trkpt lat="48.56754" lon="7.53901">
        <ele>160.1</ele>
        <time>2019-08-08T16:37:07Z</time>
      </trkpt>
      <trkpt lat="48.56753" lon="7.53891">
        <ele>160.1</ele>
        <time>2019-08-08T16:37:08Z</time>
      </trkpt>
      <trkpt lat="48.5675" lon="7.53882">
        <ele>160.1</ele>
        <time>2019-08-08T16:37:09Z</time>
      </trkpt>
      <trkpt lat="48.56748" lon="7.53874">
        <ele>160.1</ele>
        <time>2019-08-08T16:37:10Z</time>
      </trkpt>
      <trkpt lat="48.56747" lon="7.53867">
        <ele>160.1</ele>
        <time>2019-08-08T16:37:11Z</time>
      </trkpt>
      <trkpt lat="48.56744" lon="7.5386">
        <ele>160.1</ele>
        <time>2019-08-08T16:37:12Z</time>
      </trkpt>
      <trkpt lat="48.56743" lon="7.53853">
        <ele>160.1</ele>
        <time>2019-08-08T16:37:13Z</time>
      </trkpt>
      <trkpt lat="48.56741" lon="7.53844">
        <ele>160.1</ele>
        <time>2019-08-08T16:37:14Z</time>
      </trkpt>
      <trkpt lat="48.56739" lon="7.53835">
        <ele>160.1</ele>
        <time>2019-08-08T16:37:15Z</time>
      </trkpt>
      <trkpt lat="48.56739" lon="7.53826">
        <ele>160</ele>
        <time>2019-08-08T16:37:16Z</time>
      </trkpt>
      <trkpt lat="48.56738" lon="7.53817">
        <ele>160</ele>
        <time>2019-08-08T16:37:17Z</time>
      </trkpt>
      <trkpt lat="48.56737" lon="7.5381">
        <ele>160</ele>
        <time>2019-08-08T16:37:18Z</time>
      </trkpt>
      <trkpt lat="48.56736" lon="7.53803">
        <ele>160</ele>
        <time>2019-08-08T16:37:19Z</time>
      </trkpt>
      <trkpt lat="48.56733" lon="7.53796">
        <ele>160</ele>
        <time>2019-08-08T16:37:20Z</time>
      </trkpt>
      <trkpt lat="48.56732" lon="7.5379">
        <ele>159.9</ele>
        <time>2019-08-08T16:37:21Z</time>
      </trkpt>
      <trkpt lat="48.56731" lon="7.53785">
        <ele>159.9</ele>
        <time>2019-08-08T16:37:22Z</time>
      </trkpt>
      <trkpt lat="48.56729" lon="7.53778">
        <ele>159.9</ele>
        <time>2019-08-08T16:37:23Z</time>
      </trkpt>
      <trkpt lat="48.56727" lon="7.53772">
        <ele>159.9</ele>
        <time>2019-08-08T16:37:24Z</time>
      </trkpt>
      <trkpt lat="48.56726" lon="7.53764">
        <ele>159.9</ele>
        <time>2019-08-08T16:37:25Z</time>
      </trkpt>
      <trkpt lat="48.56725" lon="7.5376">
        <ele>159.9</ele>
        <time>2019-08-08T16:37:26Z</time>
      </trkpt>
      <trkpt lat="48.56723" lon="7.53755">
        <ele>159.9</ele>
        <time>2019-08-08T16:37:27Z</time>
      </trkpt>
      <trkpt lat="48.56723" lon="7.53749">
        <ele>159.9</ele>
        <time>2019-08-08T16:37:28Z</time>
      </trkpt>
      <trkpt lat="48.56722" lon="7.53742">
        <ele>159.9</ele>
        <time>2019-08-08T16:37:29Z</time>
      </trkpt>
      <trkpt lat="48.56722" lon="7.53736">
        <ele>159.9</ele>
        <time>2019-08-08T16:37:30Z</time>
      </trkpt>
      <trkpt lat="48.5672" lon="7.53729">
        <ele>159.9</ele>
        <time>2019-08-08T16:37:31Z</time>
      </trkpt>
      <trkpt lat="48.5672" lon="7.53724">
        <ele>159.9</ele>
        <time>2019-08-08T16:37:32Z</time>
      </trkpt>
      <trkpt lat="48.56718" lon="7.53717">
        <ele>159.9</ele>
        <time>2019-08-08T16:37:33Z</time>
      </trkpt>
      <trkpt lat="48.56716" lon="7.5371">
        <ele>159.9</ele>
        <time>2019-08-08T16:37:34Z</time>
      </trkpt>
      <trkpt lat="48.56714" lon="7.53704">
        <ele>159.9</ele>
        <time>2019-08-08T16:37:35Z</time>
      </trkpt>
      <trkpt lat="48.56712" lon="7.53696">
        <ele>159.9</ele>
        <time>2019-08-08T16:37:36Z</time>
      </trkpt>
      <trkpt lat="48.5671" lon="7.53688">
        <ele>159.9</ele>
        <time>2019-08-08T16:37:37Z</time>
      </trkpt>
      <trkpt lat="48.56709" lon="7.5368">
        <ele>159.9</ele>
        <time>2019-08-08T16:37:38Z</time>
      </trkpt>
      <trkpt lat="48.56707" lon="7.53674">
        <ele>159.9</ele>
        <time>2019-08-08T16:37:39Z</time>
      </trkpt>
      <trkpt lat="48.56705" lon="7.53667">
        <ele>159.9</ele>
        <time>2019-08-08T16:37:40Z</time>
      </trkpt>
      <trkpt lat="48.56704" lon="7.5366">
        <ele>159.9</ele>
        <time>2019-08-08T16:37:41Z</time>
      </trkpt>
      <trkpt lat="48.56702" lon="7.53654">
        <ele>160</ele>
        <time>2019-08-08T16:37:42Z</time>
      </trkpt>
      <trkpt lat="48.567" lon="7.53646">
        <ele>160</ele>
        <time>2019-08-08T16:37:43Z</time>
      </trkpt>
      <trkpt lat="48.56698" lon="7.53639">
        <ele>160.1</ele>
        <time>2019-08-08T16:37:44Z</time>
      </trkpt>
      <trkpt lat="48.56697" lon="7.53631">
        <ele>160.2</ele>
        <time>2019-08-08T16:37:45Z</time>
      </trkpt>
      <trkpt lat="48.56696" lon="7.53623">
        <ele>160.2</ele>
        <time>2019-08-08T16:37:46Z</time>
      </trkpt>
      <trkpt lat="48.56696" lon="7.53615">
        <ele>160.3</ele>
        <time>2019-08-08T16:37:47Z</time>
      </trkpt>
      <trkpt lat="48.56695" lon="7.53608">
        <ele>160.4</ele>
        <time>2019-08-08T16:37:48Z</time>
      </trkpt>
      <trkpt lat="48.56694" lon="7.53601">
        <ele>160.5</ele>
        <time>2019-08-08T16:37:49Z</time>
      </trkpt>
      <trkpt lat="48.56693" lon="7.53593">
        <ele>160.7</ele>
        <time>2019-08-08T16:37:50Z</time>
      </trkpt>
      <trkpt lat="48.56693" lon="7.53585">
        <ele>160.8</ele>
        <time>2019-08-08T16:37:51Z</time>
      </trkpt>
      <trkpt lat="48.56692" lon="7.53577">
        <ele>160.9</ele>
        <time>2019-08-08T16:37:52Z</time>
      </trkpt>
      <trkpt lat="48.56691" lon="7.5357">
        <ele>161.1</ele>
        <time>2019-08-08T16:37:53Z</time>
      </trkpt>
      <trkpt lat="48.56691" lon="7.53562">
        <ele>161.2</ele>
        <time>2019-08-08T16:37:54Z</time>
      </trkpt>
      <trkpt lat="48.56689" lon="7.53555">
        <ele>161.4</ele>
        <time>2019-08-08T16:37:55Z</time>
      </trkpt>
      <trkpt lat="48.56688" lon="7.53547">
        <ele>161.5</ele>
        <time>2019-08-08T16:37:56Z</time>
      </trkpt>
      <trkpt lat="48.56688" lon="7.53541">
        <ele>161.6</ele>
        <time>2019-08-08T16:37:57Z</time>
      </trkpt>
      <trkpt lat="48.56687" lon="7.53534">
        <ele>161.7</ele>
        <time>2019-08-08T16:37:58Z</time>
      </trkpt>
      <trkpt lat="48.56686" lon="7.53527">
        <ele>161.8</ele>
        <time>2019-08-08T16:37:59Z</time>
      </trkpt>
      <trkpt lat="48.56685" lon="7.5352">
        <ele>161.9</ele>
        <time>2019-08-08T16:38:00Z</time>
      </trkpt>
      <trkpt lat="48.56684" lon="7.53512">
        <ele>161.9</ele>
        <time>2019-08-08T16:38:01Z</time>
      </trkpt>
      <trkpt lat="48.56685" lon="7.53505">
        <ele>162</ele>
        <time>2019-08-08T16:38:02Z</time>
      </trkpt>
      <trkpt lat="48.56684" lon="7.53497">
        <ele>162.1</ele>
        <time>2019-08-08T16:38:03Z</time>
      </trkpt>
      <trkpt lat="48.56682" lon="7.5349">
        <ele>162.2</ele>
        <time>2019-08-08T16:38:04Z</time>
      </trkpt>
      <trkpt lat="48.56681" lon="7.53483">
        <ele>162.2</ele>
        <time>2019-08-08T16:38:05Z</time>
      </trkpt>
      <trkpt lat="48.56681" lon="7.53476">
        <ele>162.3</ele>
        <time>2019-08-08T16:38:06Z</time>
      </trkpt>
      <trkpt lat="48.56681" lon="7.53467">
        <ele>162.4</ele>
        <time>2019-08-08T16:38:07Z</time>
      </trkpt>
      <trkpt lat="48.5668" lon="7.53459">
        <ele>162.5</ele>
        <time>2019-08-08T16:38:08Z</time>
      </trkpt>
      <trkpt lat="48.5668" lon="7.53452">
        <ele>162.5</ele>
        <time>2019-08-08T16:38:09Z</time>
      </trkpt>
      <trkpt lat="48.5668" lon="7.53444">
        <ele>162.6</ele>
        <time>2019-08-08T16:38:10Z</time>
      </trkpt>
      <trkpt lat="48.5668" lon="7.53437">
        <ele>162.7</ele>
        <time>2019-08-08T16:38:11Z</time>
      </trkpt>
      <trkpt lat="48.56681" lon="7.5343">
        <ele>162.8</ele>
        <time>2019-08-08T16:38:12Z</time>
      </trkpt>
      <trkpt lat="48.56681" lon="7.53421">
        <ele>162.9</ele>
        <time>2019-08-08T16:38:13Z</time>
      </trkpt>
      <trkpt lat="48.56682" lon="7.53414">
        <ele>162.9</ele>
        <time>2019-08-08T16:38:14Z</time>
      </trkpt>
      <trkpt lat="48.56682" lon="7.53408">
        <ele>163</ele>
        <time>2019-08-08T16:38:15Z</time>
      </trkpt>
      <trkpt lat="48.56681" lon="7.53403">
        <ele>163.1</ele>
        <time>2019-08-08T16:38:16Z</time>
      </trkpt>
      <trkpt lat="48.56681" lon="7.53398">
        <ele>163.1</ele>
        <time>2019-08-08T16:38:17Z</time>
      </trkpt>
      <trkpt lat="48.5668" lon="7.53392">
        <ele>163.1</ele>
        <time>2019-08-08T16:38:18Z</time>
      </trkpt>
      <trkpt lat="48.5668" lon="7.53385">
        <ele>163.1</ele>
        <time>2019-08-08T16:38:19Z</time>
      </trkpt>
      <trkpt lat="48.56679" lon="7.5338">
        <ele>163.1</ele>
        <time>2019-08-08T16:38:20Z</time>
      </trkpt>
      <trkpt lat="48.56678" lon="7.53375">
        <ele>163.1</ele>
        <time>2019-08-08T16:38:21Z</time>
      </trkpt>
      <trkpt lat="48.56677" lon="7.53369">
        <ele>163.1</ele>
        <time>2019-08-08T16:38:22Z</time>
      </trkpt>
      <trkpt lat="48.56676" lon="7.53363">
        <ele>163.1</ele>
        <time>2019-08-08T16:38:23Z</time>
      </trkpt>
      <trkpt lat="48.56675" lon="7.53357">
        <ele>163.1</ele>
        <time>2019-08-08T16:38:24Z</time>
      </trkpt>
      <trkpt lat="48.56675" lon="7.53351">
        <ele>163.1</ele>
        <time>2019-08-08T16:38:25Z</time>
      </trkpt>
      <trkpt lat="48.56676" lon="7.53346">
        <ele>163.1</ele>
        <time>2019-08-08T16:38:26Z</time>
      </trkpt>
      <trkpt lat="48.56677" lon="7.5334">
        <ele>163.1</ele>
        <time>2019-08-08T16:38:27Z</time>
      </trkpt>
      <trkpt lat="48.56677" lon="7.53335">
        <ele>163.1</ele>
        <time>2019-08-08T16:38:28Z</time>
      </trkpt>
      <trkpt lat="48.56677" lon="7.53328">
        <ele>163.1</ele>
        <time>2019-08-08T16:38:29Z</time>
      </trkpt>
      <trkpt lat="48.56676" lon="7.53321">
        <ele>163.1</ele>
        <time>2019-08-08T16:38:30Z</time>
      </trkpt>
      <trkpt lat="48.56676" lon="7.53316">
        <ele>163.1</ele>
        <time>2019-08-08T16:38:31Z</time>
      </trkpt>
      <trkpt lat="48.56676" lon="7.53309">
        <ele>163.1</ele>
        <time>2019-08-08T16:38:32Z</time>
      </trkpt>
      <trkpt lat="48.56675" lon="7.53303">
        <ele>163.1</ele>
        <time>2019-08-08T16:38:33Z</time>
      </trkpt>
      <trkpt lat="48.56675" lon="7.53298">
        <ele>163.1</ele>
        <time>2019-08-08T16:38:34Z</time>
      </trkpt>
      <trkpt lat="48.56675" lon="7.53291">
        <ele>163.1</ele>
        <time>2019-08-08T16:38:35Z</time>
      </trkpt>
      <trkpt lat="48.56675" lon="7.53286">
        <ele>163.1</ele>
        <time>2019-08-08T16:38:36Z</time>
      </trkpt>
      <trkpt lat="48.56674" lon="7.53281">
        <ele>163.1</ele>
        <time>2019-08-08T16:38:37Z</time>
      </trkpt>
      <trkpt lat="48.56674" lon="7.53275">
        <ele>163.1</ele>
        <time>2019-08-08T16:38:38Z</time>
      </trkpt>
      <trkpt lat="48.56673" lon="7.53268">
        <ele>163.1</ele>
        <time>2019-08-08T16:38:39Z</time>
      </trkpt>
      <trkpt lat="48.56674" lon="7.53261">
        <ele>163.1</ele>
        <time>2019-08-08T16:38:40Z</time>
      </trkpt>
      <trkpt lat="48.56675" lon="7.53254">
        <ele>163.2</ele>
        <time>2019-08-08T16:38:41Z</time>
      </trkpt>
      <trkpt lat="48.56676" lon="7.53248">
        <ele>163.2</ele>
        <time>2019-08-08T16:38:42Z</time>
      </trkpt>
      <trkpt lat="48.56677" lon="7.53241">
        <ele>163.2</ele>
        <time>2019-08-08T16:38:43Z</time>
      </trkpt>
      <trkpt lat="48.56678" lon="7.53235">
        <ele>163.2</ele>
        <time>2019-08-08T16:38:44Z</time>
      </trkpt>
      <trkpt lat="48.56679" lon="7.53229">
        <ele>163.2</ele>
        <time>2019-08-08T16:38:45Z</time>
      </trkpt>
      <trkpt lat="48.56679" lon="7.53222">
        <ele>163.2</ele>
        <time>2019-08-08T16:38:46Z</time>
      </trkpt>
      <trkpt lat="48.56679" lon="7.53214">
        <ele>163.2</ele>
        <time>2019-08-08T16:38:47Z</time>
      </trkpt>
      <trkpt lat="48.56679" lon="7.53207">
        <ele>163.2</ele>
        <time>2019-08-08T16:38:48Z</time>
      </trkpt>
      <trkpt lat="48.5668" lon="7.532">
        <ele>163.2</ele>
        <time>2019-08-08T16:38:49Z</time>
      </trkpt>
      <trkpt lat="48.5668" lon="7.53193">
        <ele>163.2</ele>
        <time>2019-08-08T16:38:50Z</time>
      </trkpt>
      <trkpt lat="48.56681" lon="7.53184">
        <ele>163.2</ele>
        <time>2019-08-08T16:38:51Z</time>
      </trkpt>
      <trkpt lat="48.56682" lon="7.53176">
        <ele>163.2</ele>
        <time>2019-08-08T16:38:52Z</time>
      </trkpt>
      <trkpt lat="48.56683" lon="7.53168">
        <ele>163.2</ele>
        <time>2019-08-08T16:38:53Z</time>
      </trkpt>
      <trkpt lat="48.56684" lon="7.53161">
        <ele>163.3</ele>
        <time>2019-08-08T16:38:54Z</time>
      </trkpt>
      <trkpt lat="48.56684" lon="7.53153">
        <ele>163.3</ele>
        <time>2019-08-08T16:38:55Z</time>
      </trkpt>
      <trkpt lat="48.56683" lon="7.53145">
        <ele>163.3</ele>
        <time>2019-08-08T16:38:56Z</time>
      </trkpt>
      <trkpt lat="48.56682" lon="7.53136">
        <ele>163.3</ele>
        <time>2019-08-08T16:38:57Z</time>
      </trkpt>
      <trkpt lat="48.56682" lon="7.53128">
        <ele>163.3</ele>
        <time>2019-08-08T16:38:58Z</time>
      </trkpt>
      <trkpt lat="48.56682" lon="7.5312">
        <ele>163.3</ele>
        <time>2019-08-08T16:38:59Z</time>
      </trkpt>
      <trkpt lat="48.56682" lon="7.53112">
        <ele>163.3</ele>
        <time>2019-08-08T16:39:00Z</time>
      </trkpt>
      <trkpt lat="48.56682" lon="7.53105">
        <ele>163.3</ele>
        <time>2019-08-08T16:39:01Z</time>
      </trkpt>
      <trkpt lat="48.56682" lon="7.53096">
        <ele>163.3</ele>
        <time>2019-08-08T16:39:02Z</time>
      </trkpt>
      <trkpt lat="48.56683" lon="7.53088">
        <ele>163.3</ele>
        <time>2019-08-08T16:39:03Z</time>
      </trkpt>
      <trkpt lat="48.56685" lon="7.5308">
        <ele>163.3</ele>
        <time>2019-08-08T16:39:04Z</time>
      </trkpt>
      <trkpt lat="48.56686" lon="7.53072">
        <ele>163.3</ele>
        <time>2019-08-08T16:39:05Z</time>
      </trkpt>
      <trkpt lat="48.56688" lon="7.53066">
        <ele>163.3</ele>
        <time>2019-08-08T16:39:06Z</time>
      </trkpt>
      <trkpt lat="48.56689" lon="7.53058">
        <ele>163.3</ele>
        <time>2019-08-08T16:39:07Z</time>
      </trkpt>
      <trkpt lat="48.5669" lon="7.53051">
        <ele>163.3</ele>
        <time>2019-08-08T16:39:08Z</time>
      </trkpt>
      <trkpt lat="48.56691" lon="7.53045">
        <ele>163.3</ele>
        <time>2019-08-08T16:39:09Z</time>
      </trkpt>
      <trkpt lat="48.56692" lon="7.53039">
        <ele>163.3</ele>
        <time>2019-08-08T16:39:10Z</time>
      </trkpt>
      <trkpt lat="48.56692" lon="7.53033">
        <ele>163.3</ele>
        <time>2019-08-08T16:39:11Z</time>
      </trkpt>
      <trkpt lat="48.56693" lon="7.53025">
        <ele>163.3</ele>
        <time>2019-08-08T16:39:12Z</time>
      </trkpt>
      <trkpt lat="48.56694" lon="7.53017">
        <ele>163.3</ele>
        <time>2019-08-08T16:39:13Z</time>
      </trkpt>
      <trkpt lat="48.56695" lon="7.53009">
        <ele>163.3</ele>
        <time>2019-08-08T16:39:14Z</time>
      </trkpt>
      <trkpt lat="48.56696" lon="7.53003">
        <ele>163.3</ele>
        <time>2019-08-08T16:39:15Z</time>
      </trkpt>
      <trkpt lat="48.56695" lon="7.52996">
        <ele>163.3</ele>
        <time>2019-08-08T16:39:16Z</time>
      </trkpt>
      <trkpt lat="48.56695" lon="7.5299">
        <ele>163.3</ele>
        <time>2019-08-08T16:39:17Z</time>
      </trkpt>
      <trkpt lat="48.56695" lon="7.52985">
        <ele>163.4</ele>
        <time>2019-08-08T16:39:18Z</time>
      </trkpt>
      <trkpt lat="48.56696" lon="7.52978">
        <ele>163.4</ele>
        <time>2019-08-08T16:39:19Z</time>
      </trkpt>
      <trkpt lat="48.56697" lon="7.5297">
        <ele>163.3</ele>
        <time>2019-08-08T16:39:20Z</time>
      </trkpt>
      <trkpt lat="48.56697" lon="7.52963">
        <ele>163.3</ele>
        <time>2019-08-08T16:39:21Z</time>
      </trkpt>
      <trkpt lat="48.56697" lon="7.52956">
        <ele>163.3</ele>
        <time>2019-08-08T16:39:22Z</time>
      </trkpt>
      <trkpt lat="48.56698" lon="7.52949">
        <ele>163.3</ele>
        <time>2019-08-08T16:39:23Z</time>
      </trkpt>
      <trkpt lat="48.56699" lon="7.52941">
        <ele>163.3</ele>
        <time>2019-08-08T16:39:24Z</time>
      </trkpt>
      <trkpt lat="48.56699" lon="7.52934">
        <ele>163.2</ele>
        <time>2019-08-08T16:39:25Z</time>
      </trkpt>
      <trkpt lat="48.567" lon="7.52926">
        <ele>163.1</ele>
        <time>2019-08-08T16:39:26Z</time>
      </trkpt>
      <trkpt lat="48.56701" lon="7.52918">
        <ele>163.1</ele>
        <time>2019-08-08T16:39:27Z</time>
      </trkpt>
      <trkpt lat="48.56702" lon="7.52911">
        <ele>163</ele>
        <time>2019-08-08T16:39:28Z</time>
      </trkpt>
      <trkpt lat="48.56703" lon="7.52905">
        <ele>162.9</ele>
        <time>2019-08-08T16:39:29Z</time>
      </trkpt>
      <trkpt lat="48.56703" lon="7.52899">
        <ele>162.9</ele>
        <time>2019-08-08T16:39:30Z</time>
      </trkpt>
      <trkpt lat="48.56704" lon="7.52893">
        <ele>162.8</ele>
        <time>2019-08-08T16:39:31Z</time>
      </trkpt>
      <trkpt lat="48.56705" lon="7.52888">
        <ele>162.8</ele>
        <time>2019-08-08T16:39:32Z</time>
      </trkpt>
      <trkpt lat="48.56706" lon="7.52881">
        <ele>162.7</ele>
        <time>2019-08-08T16:39:34Z</time>
      </trkpt>
      <trkpt lat="48.56704" lon="7.52875">
        <ele>162.8</ele>
        <time>2019-08-08T16:39:36Z</time>
      </trkpt>
      <trkpt lat="48.56705" lon="7.5287">
        <ele>162.8</ele>
        <time>2019-08-08T16:39:37Z</time>
      </trkpt>
      <trkpt lat="48.56705" lon="7.52864">
        <ele>162.9</ele>
        <time>2019-08-08T16:39:38Z</time>
      </trkpt>
      <trkpt lat="48.56706" lon="7.52858">
        <ele>162.9</ele>
        <time>2019-08-08T16:39:39Z</time>
      </trkpt>
      <trkpt lat="48.56707" lon="7.52851">
        <ele>162.8</ele>
        <time>2019-08-08T16:39:40Z</time>
      </trkpt>
      <trkpt lat="48.56708" lon="7.52844">
        <ele>162.8</ele>
        <time>2019-08-08T16:39:41Z</time>
      </trkpt>
      <trkpt lat="48.5671" lon="7.52838">
        <ele>162.8</ele>
        <time>2019-08-08T16:39:42Z</time>
      </trkpt>
      <trkpt lat="48.56711" lon="7.52831">
        <ele>162.8</ele>
        <time>2019-08-08T16:39:43Z</time>
      </trkpt>
      <trkpt lat="48.56713" lon="7.52824">
        <ele>162.8</ele>
        <time>2019-08-08T16:39:44Z</time>
      </trkpt>
      <trkpt lat="48.56714" lon="7.52817">
        <ele>162.8</ele>
        <time>2019-08-08T16:39:45Z</time>
      </trkpt>
      <trkpt lat="48.56715" lon="7.52811">
        <ele>162.8</ele>
        <time>2019-08-08T16:39:46Z</time>
      </trkpt>
      <trkpt lat="48.56716" lon="7.52804">
        <ele>162.8</ele>
        <time>2019-08-08T16:39:47Z</time>
      </trkpt>
      <trkpt lat="48.56717" lon="7.52798">
        <ele>162.8</ele>
        <time>2019-08-08T16:39:48Z</time>
      </trkpt>
      <trkpt lat="48.56718" lon="7.52791">
        <ele>162.8</ele>
        <time>2019-08-08T16:39:49Z</time>
      </trkpt>
      <trkpt lat="48.5672" lon="7.52783">
        <ele>162.8</ele>
        <time>2019-08-08T16:39:50Z</time>
      </trkpt>
      <trkpt lat="48.56722" lon="7.52778">
        <ele>162.8</ele>
        <time>2019-08-08T16:39:51Z</time>
      </trkpt>
      <trkpt lat="48.56724" lon="7.52771">
        <ele>162.8</ele>
        <time>2019-08-08T16:39:52Z</time>
      </trkpt>
      <trkpt lat="48.56725" lon="7.52763">
        <ele>162.8</ele>
        <time>2019-08-08T16:39:53Z</time>
      </trkpt>
      <trkpt lat="48.56726" lon="7.52755">
        <ele>162.8</ele>
        <time>2019-08-08T16:39:54Z</time>
      </trkpt>
      <trkpt lat="48.56727" lon="7.52747">
        <ele>162.8</ele>
        <time>2019-08-08T16:39:55Z</time>
      </trkpt>
      <trkpt lat="48.56729" lon="7.5274">
        <ele>162.8</ele>
        <time>2019-08-08T16:39:56Z</time>
      </trkpt>
      <trkpt lat="48.56731" lon="7.52732">
        <ele>162.8</ele>
        <time>2019-08-08T16:39:57Z</time>
      </trkpt>
      <trkpt lat="48.56732" lon="7.52725">
        <ele>162.8</ele>
        <time>2019-08-08T16:39:58Z</time>
      </trkpt>
      <trkpt lat="48.56733" lon="7.52718">
        <ele>162.8</ele>
        <time>2019-08-08T16:39:59Z</time>
      </trkpt>
      <trkpt lat="48.56733" lon="7.5271">
        <ele>162.8</ele>
        <time>2019-08-08T16:40:00Z</time>
      </trkpt>
      <trkpt lat="48.56734" lon="7.52703">
        <ele>162.8</ele>
        <time>2019-08-08T16:40:01Z</time>
      </trkpt>
      <trkpt lat="48.56735" lon="7.52698">
        <ele>162.8</ele>
        <time>2019-08-08T16:40:02Z</time>
      </trkpt>
      <trkpt lat="48.56736" lon="7.52691">
        <ele>162.8</ele>
        <time>2019-08-08T16:40:03Z</time>
      </trkpt>
      <trkpt lat="48.56737" lon="7.52684">
        <ele>162.8</ele>
        <time>2019-08-08T16:40:04Z</time>
      </trkpt>
      <trkpt lat="48.56738" lon="7.52677">
        <ele>162.8</ele>
        <time>2019-08-08T16:40:05Z</time>
      </trkpt>
      <trkpt lat="48.56739" lon="7.52669">
        <ele>162.8</ele>
        <time>2019-08-08T16:40:06Z</time>
      </trkpt>
      <trkpt lat="48.5674" lon="7.52662">
        <ele>162.8</ele>
        <time>2019-08-08T16:40:07Z</time>
      </trkpt>
      <trkpt lat="48.56741" lon="7.52654">
        <ele>162.8</ele>
        <time>2019-08-08T16:40:08Z</time>
      </trkpt>
      <trkpt lat="48.56742" lon="7.52646">
        <ele>162.8</ele>
        <time>2019-08-08T16:40:09Z</time>
      </trkpt>
      <trkpt lat="48.56742" lon="7.52639">
        <ele>162.8</ele>
        <time>2019-08-08T16:40:10Z</time>
      </trkpt>
      <trkpt lat="48.56743" lon="7.52632">
        <ele>162.8</ele>
        <time>2019-08-08T16:40:11Z</time>
      </trkpt>
      <trkpt lat="48.56743" lon="7.52624">
        <ele>162.9</ele>
        <time>2019-08-08T16:40:12Z</time>
      </trkpt>
      <trkpt lat="48.56744" lon="7.52616">
        <ele>162.9</ele>
        <time>2019-08-08T16:40:13Z</time>
      </trkpt>
      <trkpt lat="48.56745" lon="7.52608">
        <ele>162.9</ele>
        <time>2019-08-08T16:40:14Z</time>
      </trkpt>
      <trkpt lat="48.56746" lon="7.52601">
        <ele>162.9</ele>
        <time>2019-08-08T16:40:15Z</time>
      </trkpt>
      <trkpt lat="48.56748" lon="7.52593">
        <ele>162.9</ele>
        <time>2019-08-08T16:40:16Z</time>
      </trkpt>
      <trkpt lat="48.56749" lon="7.52587">
        <ele>162.9</ele>
        <time>2019-08-08T16:40:17Z</time>
      </trkpt>
      <trkpt lat="48.56752" lon="7.5258">
        <ele>162.9</ele>
        <time>2019-08-08T16:40:18Z</time>
      </trkpt>
      <trkpt lat="48.56754" lon="7.52572">
        <ele>162.9</ele>
        <time>2019-08-08T16:40:19Z</time>
      </trkpt>
      <trkpt lat="48.56756" lon="7.52565">
        <ele>162.9</ele>
        <time>2019-08-08T16:40:20Z</time>
      </trkpt>
      <trkpt lat="48.56757" lon="7.52558">
        <ele>163</ele>
        <time>2019-08-08T16:40:21Z</time>
      </trkpt>
      <trkpt lat="48.56758" lon="7.5255">
        <ele>163</ele>
        <time>2019-08-08T16:40:22Z</time>
      </trkpt>
      <trkpt lat="48.56759" lon="7.52544">
        <ele>163</ele>
        <time>2019-08-08T16:40:23Z</time>
      </trkpt>
      <trkpt lat="48.5676" lon="7.52537">
        <ele>163</ele>
        <time>2019-08-08T16:40:24Z</time>
      </trkpt>
      <trkpt lat="48.5676" lon="7.52529">
        <ele>163</ele>
        <time>2019-08-08T16:40:25Z</time>
      </trkpt>
      <trkpt lat="48.56761" lon="7.52521">
        <ele>163</ele>
        <time>2019-08-08T16:40:26Z</time>
      </trkpt>
      <trkpt lat="48.56762" lon="7.52513">
        <ele>163</ele>
        <time>2019-08-08T16:40:27Z</time>
      </trkpt>
      <trkpt lat="48.56763" lon="7.52505">
        <ele>163</ele>
        <time>2019-08-08T16:40:28Z</time>
      </trkpt>
      <trkpt lat="48.56764" lon="7.52497">
        <ele>163.1</ele>
        <time>2019-08-08T16:40:29Z</time>
      </trkpt>
      <trkpt lat="48.56765" lon="7.52491">
        <ele>163.1</ele>
        <time>2019-08-08T16:40:30Z</time>
      </trkpt>
      <trkpt lat="48.56765" lon="7.52483">
        <ele>163.1</ele>
        <time>2019-08-08T16:40:31Z</time>
      </trkpt>
      <trkpt lat="48.56766" lon="7.52476">
        <ele>163.1</ele>
        <time>2019-08-08T16:40:32Z</time>
      </trkpt>
      <trkpt lat="48.56767" lon="7.52469">
        <ele>163.1</ele>
        <time>2019-08-08T16:40:33Z</time>
      </trkpt>
      <trkpt lat="48.56768" lon="7.52461">
        <ele>163.1</ele>
        <time>2019-08-08T16:40:34Z</time>
      </trkpt>
      <trkpt lat="48.56768" lon="7.52453">
        <ele>163.1</ele>
        <time>2019-08-08T16:40:35Z</time>
      </trkpt>
      <trkpt lat="48.56768" lon="7.52446">
        <ele>163.1</ele>
        <time>2019-08-08T16:40:36Z</time>
      </trkpt>
      <trkpt lat="48.56767" lon="7.52439">
        <ele>163.2</ele>
        <time>2019-08-08T16:40:37Z</time>
      </trkpt>
      <trkpt lat="48.56767" lon="7.52432">
        <ele>163.2</ele>
        <time>2019-08-08T16:40:38Z</time>
      </trkpt>
      <trkpt lat="48.56767" lon="7.52426">
        <ele>163.2</ele>
        <time>2019-08-08T16:40:39Z</time>
      </trkpt>
      <trkpt lat="48.56768" lon="7.52419">
        <ele>163.2</ele>
        <time>2019-08-08T16:40:40Z</time>
      </trkpt>
      <trkpt lat="48.56768" lon="7.52412">
        <ele>163.2</ele>
        <time>2019-08-08T16:40:41Z</time>
      </trkpt>
      <trkpt lat="48.56768" lon="7.52403">
        <ele>163.2</ele>
        <time>2019-08-08T16:40:42Z</time>
      </trkpt>
      <trkpt lat="48.56768" lon="7.52396">
        <ele>163.2</ele>
        <time>2019-08-08T16:40:43Z</time>
      </trkpt>
      <trkpt lat="48.56768" lon="7.52389">
        <ele>163.2</ele>
        <time>2019-08-08T16:40:44Z</time>
      </trkpt>
      <trkpt lat="48.56769" lon="7.52381">
        <ele>163.2</ele>
        <time>2019-08-08T16:40:45Z</time>
      </trkpt>
      <trkpt lat="48.56769" lon="7.52374">
        <ele>163.2</ele>
        <time>2019-08-08T16:40:46Z</time>
      </trkpt>
      <trkpt lat="48.56769" lon="7.52367">
        <ele>163.3</ele>
        <time>2019-08-08T16:40:47Z</time>
      </trkpt>
      <trkpt lat="48.56769" lon="7.52361">
        <ele>163.3</ele>
        <time>2019-08-08T16:40:48Z</time>
      </trkpt>
      <trkpt lat="48.56768" lon="7.52355">
        <ele>163.3</ele>
        <time>2019-08-08T16:40:49Z</time>
      </trkpt>
      <trkpt lat="48.56768" lon="7.52347">
        <ele>163.3</ele>
        <time>2019-08-08T16:40:50Z</time>
      </trkpt>
      <trkpt lat="48.56769" lon="7.52341">
        <ele>163.3</ele>
        <time>2019-08-08T16:40:51Z</time>
      </trkpt>
      <trkpt lat="48.56769" lon="7.52334">
        <ele>163.3</ele>
        <time>2019-08-08T16:40:52Z</time>
      </trkpt>
      <trkpt lat="48.56768" lon="7.52328">
        <ele>163.3</ele>
        <time>2019-08-08T16:40:53Z</time>
      </trkpt>
      <trkpt lat="48.56768" lon="7.52322">
        <ele>163.3</ele>
        <time>2019-08-08T16:40:54Z</time>
      </trkpt>
      <trkpt lat="48.56768" lon="7.52317">
        <ele>163.3</ele>
        <time>2019-08-08T16:40:55Z</time>
      </trkpt>
      <trkpt lat="48.56766" lon="7.52309">
        <ele>163.3</ele>
        <time>2019-08-08T16:40:56Z</time>
      </trkpt>
      <trkpt lat="48.56766" lon="7.52302">
        <ele>163.3</ele>
        <time>2019-08-08T16:40:57Z</time>
      </trkpt>
      <trkpt lat="48.56764" lon="7.52293">
        <ele>163.3</ele>
        <time>2019-08-08T16:40:58Z</time>
      </trkpt>
      <trkpt lat="48.56762" lon="7.52286">
        <ele>163.3</ele>
        <time>2019-08-08T16:40:59Z</time>
      </trkpt>
      <trkpt lat="48.56762" lon="7.5228">
        <ele>163.3</ele>
        <time>2019-08-08T16:41:00Z</time>
      </trkpt>
      <trkpt lat="48.56762" lon="7.52273">
        <ele>163.4</ele>
        <time>2019-08-08T16:41:01Z</time>
      </trkpt>
      <trkpt lat="48.56762" lon="7.52267">
        <ele>163.4</ele>
        <time>2019-08-08T16:41:02Z</time>
      </trkpt>
      <trkpt lat="48.56762" lon="7.5226">
        <ele>163.4</ele>
        <time>2019-08-08T16:41:03Z</time>
      </trkpt>
      <trkpt lat="48.56763" lon="7.52253">
        <ele>163.4</ele>
        <time>2019-08-08T16:41:04Z</time>
      </trkpt>
      <trkpt lat="48.56763" lon="7.52246">
        <ele>163.4</ele>
        <time>2019-08-08T16:41:05Z</time>
      </trkpt>
      <trkpt lat="48.56763" lon="7.52239">
        <ele>163.4</ele>
        <time>2019-08-08T16:41:06Z</time>
      </trkpt>
      <trkpt lat="48.56764" lon="7.52232">
        <ele>163.4</ele>
        <time>2019-08-08T16:41:07Z</time>
      </trkpt>
      <trkpt lat="48.56764" lon="7.52225">
        <ele>163.4</ele>
        <time>2019-08-08T16:41:08Z</time>
      </trkpt>
      <trkpt lat="48.56764" lon="7.52219">
        <ele>163.4</ele>
        <time>2019-08-08T16:41:09Z</time>
      </trkpt>
      <trkpt lat="48.56765" lon="7.52214">
        <ele>163.4</ele>
        <time>2019-08-08T16:41:10Z</time>
      </trkpt>
      <trkpt lat="48.56765" lon="7.52207">
        <ele>163.4</ele>
        <time>2019-08-08T16:41:11Z</time>
      </trkpt>
      <trkpt lat="48.56766" lon="7.52201">
        <ele>163.4</ele>
        <time>2019-08-08T16:41:12Z</time>
      </trkpt>
      <trkpt lat="48.56767" lon="7.52195">
        <ele>163.4</ele>
        <time>2019-08-08T16:41:13Z</time>
      </trkpt>
      <trkpt lat="48.56768" lon="7.52189">
        <ele>163.4</ele>
        <time>2019-08-08T16:41:14Z</time>
      </trkpt>
      <trkpt lat="48.56768" lon="7.52182">
        <ele>163.4</ele>
        <time>2019-08-08T16:41:15Z</time>
      </trkpt>
      <trkpt lat="48.56768" lon="7.52175">
        <ele>163.5</ele>
        <time>2019-08-08T16:41:16Z</time>
      </trkpt>
      <trkpt lat="48.56768" lon="7.52168">
        <ele>163.5</ele>
        <time>2019-08-08T16:41:17Z</time>
      </trkpt>
      <trkpt lat="48.56766" lon="7.5216">
        <ele>163.5</ele>
        <time>2019-08-08T16:41:18Z</time>
      </trkpt>
      <trkpt lat="48.56765" lon="7.52152">
        <ele>163.5</ele>
        <time>2019-08-08T16:41:19Z</time>
      </trkpt>
      <trkpt lat="48.56765" lon="7.52143">
        <ele>163.5</ele>
        <time>2019-08-08T16:41:20Z</time>
      </trkpt>
      <trkpt lat="48.56765" lon="7.52136">
        <ele>163.5</ele>
        <time>2019-08-08T16:41:21Z</time>
      </trkpt>
      <trkpt lat="48.56765" lon="7.52128">
        <ele>163.5</ele>
        <time>2019-08-08T16:41:22Z</time>
      </trkpt>
      <trkpt lat="48.56766" lon="7.52121">
        <ele>163.5</ele>
        <time>2019-08-08T16:41:23Z</time>
      </trkpt>
      <trkpt lat="48.56766" lon="7.52113">
        <ele>163.5</ele>
        <time>2019-08-08T16:41:24Z</time>
      </trkpt>
      <trkpt lat="48.56764" lon="7.52106">
        <ele>163.5</ele>
        <time>2019-08-08T16:41:25Z</time>
      </trkpt>
      <trkpt lat="48.56762" lon="7.52099">
        <ele>163.5</ele>
        <time>2019-08-08T16:41:26Z</time>
      </trkpt>
      <trkpt lat="48.5676" lon="7.52091">
        <ele>163.5</ele>
        <time>2019-08-08T16:41:27Z</time>
      </trkpt>
      <trkpt lat="48.56758" lon="7.52084">
        <ele>163.6</ele>
        <time>2019-08-08T16:41:28Z</time>
      </trkpt>
      <trkpt lat="48.56758" lon="7.52077">
        <ele>163.6</ele>
        <time>2019-08-08T16:41:29Z</time>
      </trkpt>
      <trkpt lat="48.56756" lon="7.5207">
        <ele>163.6</ele>
        <time>2019-08-08T16:41:30Z</time>
      </trkpt>
      <trkpt lat="48.56756" lon="7.52063">
        <ele>163.6</ele>
        <time>2019-08-08T16:41:31Z</time>
      </trkpt>
      <trkpt lat="48.56755" lon="7.52054">
        <ele>163.6</ele>
        <time>2019-08-08T16:41:32Z</time>
      </trkpt>
      <trkpt lat="48.56753" lon="7.52047">
        <ele>163.6</ele>
        <time>2019-08-08T16:41:33Z</time>
      </trkpt>
      <trkpt lat="48.56751" lon="7.52039">
        <ele>163.6</ele>
        <time>2019-08-08T16:41:34Z</time>
      </trkpt>
      <trkpt lat="48.5675" lon="7.52032">
        <ele>163.6</ele>
        <time>2019-08-08T16:41:35Z</time>
      </trkpt>
      <trkpt lat="48.5675" lon="7.52024">
        <ele>163.6</ele>
        <time>2019-08-08T16:41:36Z</time>
      </trkpt>
      <trkpt lat="48.56749" lon="7.52016">
        <ele>163.6</ele>
        <time>2019-08-08T16:41:37Z</time>
      </trkpt>
      <trkpt lat="48.56749" lon="7.52008">
        <ele>163.6</ele>
        <time>2019-08-08T16:41:38Z</time>
      </trkpt>
      <trkpt lat="48.56749" lon="7.52001">
        <ele>163.6</ele>
        <time>2019-08-08T16:41:39Z</time>
      </trkpt>
      <trkpt lat="48.5675" lon="7.51994">
        <ele>163.7</ele>
        <time>2019-08-08T16:41:40Z</time>
      </trkpt>
      <trkpt lat="48.5675" lon="7.51987">
        <ele>163.7</ele>
        <time>2019-08-08T16:41:41Z</time>
      </trkpt>
      <trkpt lat="48.5675" lon="7.5198">
        <ele>163.7</ele>
        <time>2019-08-08T16:41:42Z</time>
      </trkpt>
      <trkpt lat="48.5675" lon="7.51973">
        <ele>163.7</ele>
        <time>2019-08-08T16:41:43Z</time>
      </trkpt>
      <trkpt lat="48.56749" lon="7.51964">
        <ele>163.7</ele>
        <time>2019-08-08T16:41:44Z</time>
      </trkpt>
      <trkpt lat="48.56749" lon="7.51956">
        <ele>163.7</ele>
        <time>2019-08-08T16:41:45Z</time>
      </trkpt>
      <trkpt lat="48.56749" lon="7.51948">
        <ele>163.7</ele>
        <time>2019-08-08T16:41:46Z</time>
      </trkpt>
      <trkpt lat="48.56749" lon="7.5194">
        <ele>163.7</ele>
        <time>2019-08-08T16:41:47Z</time>
      </trkpt>
      <trkpt lat="48.5675" lon="7.51932">
        <ele>163.7</ele>
        <time>2019-08-08T16:41:48Z</time>
      </trkpt>
      <trkpt lat="48.56748" lon="7.51924">
        <ele>163.7</ele>
        <time>2019-08-08T16:41:49Z</time>
      </trkpt>
      <trkpt lat="48.56748" lon="7.51917">
        <ele>163.7</ele>
        <time>2019-08-08T16:41:50Z</time>
      </trkpt>
      <trkpt lat="48.56747" lon="7.5191">
        <ele>163.7</ele>
        <time>2019-08-08T16:41:51Z</time>
      </trkpt>
      <trkpt lat="48.56746" lon="7.51903">
        <ele>163.8</ele>
        <time>2019-08-08T16:41:52Z</time>
      </trkpt>
      <trkpt lat="48.56747" lon="7.51897">
        <ele>163.8</ele>
        <time>2019-08-08T16:41:53Z</time>
      </trkpt>
      <trkpt lat="48.56746" lon="7.5189">
        <ele>163.8</ele>
        <time>2019-08-08T16:41:54Z</time>
      </trkpt>
      <trkpt lat="48.56746" lon="7.51884">
        <ele>163.8</ele>
        <time>2019-08-08T16:41:55Z</time>
      </trkpt>
      <trkpt lat="48.56745" lon="7.51877">
        <ele>163.8</ele>
        <time>2019-08-08T16:41:56Z</time>
      </trkpt>
      <trkpt lat="48.56745" lon="7.5187">
        <ele>163.8</ele>
        <time>2019-08-08T16:41:57Z</time>
      </trkpt>
      <trkpt lat="48.56745" lon="7.51864">
        <ele>163.8</ele>
        <time>2019-08-08T16:41:58Z</time>
      </trkpt>
      <trkpt lat="48.56743" lon="7.5186">
        <ele>163.9</ele>
        <time>2019-08-08T16:41:59Z</time>
      </trkpt>
      <trkpt lat="48.56742" lon="7.51856">
        <ele>163.9</ele>
        <time>2019-08-08T16:42:00Z</time>
      </trkpt>
      <trkpt lat="48.56742" lon="7.51851">
        <ele>163.9</ele>
        <time>2019-08-08T16:42:01Z</time>
      </trkpt>
      <trkpt lat="48.5674" lon="7.51843">
        <ele>163.9</ele>
        <time>2019-08-08T16:42:02Z</time>
      </trkpt>
      <trkpt lat="48.5674" lon="7.51838">
        <ele>163.9</ele>
        <time>2019-08-08T16:42:03Z</time>
      </trkpt>
      <trkpt lat="48.56739" lon="7.51831">
        <ele>164</ele>
        <time>2019-08-08T16:42:04Z</time>
      </trkpt>
      <trkpt lat="48.56739" lon="7.51826">
        <ele>164</ele>
        <time>2019-08-08T16:42:05Z</time>
      </trkpt>
      <trkpt lat="48.56738" lon="7.51819">
        <ele>164</ele>
        <time>2019-08-08T16:42:06Z</time>
      </trkpt>
      <trkpt lat="48.56737" lon="7.51812">
        <ele>164</ele>
        <time>2019-08-08T16:42:07Z</time>
      </trkpt>
      <trkpt lat="48.56737" lon="7.51805">
        <ele>164.1</ele>
        <time>2019-08-08T16:42:08Z</time>
      </trkpt>
      <trkpt lat="48.56736" lon="7.51798">
        <ele>164.1</ele>
        <time>2019-08-08T16:42:09Z</time>
      </trkpt>
      <trkpt lat="48.56737" lon="7.51793">
        <ele>164.1</ele>
        <time>2019-08-08T16:42:10Z</time>
      </trkpt>
      <trkpt lat="48.56736" lon="7.51785">
        <ele>164.2</ele>
        <time>2019-08-08T16:42:11Z</time>
      </trkpt>
      <trkpt lat="48.56735" lon="7.51779">
        <ele>164.2</ele>
        <time>2019-08-08T16:42:12Z</time>
      </trkpt>
      <trkpt lat="48.56734" lon="7.51773">
        <ele>164.2</ele>
        <time>2019-08-08T16:42:13Z</time>
      </trkpt>
      <trkpt lat="48.56732" lon="7.51766">
        <ele>164.3</ele>
        <time>2019-08-08T16:42:14Z</time>
      </trkpt>
      <trkpt lat="48.56732" lon="7.5176">
        <ele>164.3</ele>
        <time>2019-08-08T16:42:15Z</time>
      </trkpt>
      <trkpt lat="48.56731" lon="7.51754">
        <ele>164.3</ele>
        <time>2019-08-08T16:42:16Z</time>
      </trkpt>
      <trkpt lat="48.56731" lon="7.51749">
        <ele>164.4</ele>
        <time>2019-08-08T16:42:17Z</time>
      </trkpt>
      <trkpt lat="48.56729" lon="7.51744">
        <ele>164.4</ele>
        <time>2019-08-08T16:42:18Z</time>
      </trkpt>
      <trkpt lat="48.56729" lon="7.51739">
        <ele>164.4</ele>
        <time>2019-08-08T16:42:19Z</time>
      </trkpt>
      <trkpt lat="48.56728" lon="7.51732">
        <ele>164.5</ele>
        <time>2019-08-08T16:42:20Z</time>
      </trkpt>
      <trkpt lat="48.56726" lon="7.51726">
        <ele>164.5</ele>
        <time>2019-08-08T16:42:21Z</time>
      </trkpt>
      <trkpt lat="48.56722" lon="7.51719">
        <ele>164.6</ele>
        <time>2019-08-08T16:42:22Z</time>
      </trkpt>
      <trkpt lat="48.56721" lon="7.51714">
        <ele>164.6</ele>
        <time>2019-08-08T16:42:23Z</time>
      </trkpt>
      <trkpt lat="48.5672" lon="7.51709">
        <ele>164.6</ele>
        <time>2019-08-08T16:42:24Z</time>
      </trkpt>
      <trkpt lat="48.56719" lon="7.51703">
        <ele>164.7</ele>
        <time>2019-08-08T16:42:25Z</time>
      </trkpt>
      <trkpt lat="48.56718" lon="7.51698">
        <ele>164.7</ele>
        <time>2019-08-08T16:42:26Z</time>
      </trkpt>
      <trkpt lat="48.56716" lon="7.51694">
        <ele>164.7</ele>
        <time>2019-08-08T16:42:27Z</time>
      </trkpt>
      <trkpt lat="48.56716" lon="7.51689">
        <ele>164.7</ele>
        <time>2019-08-08T16:42:28Z</time>
      </trkpt>
      <trkpt lat="48.56716" lon="7.51683">
        <ele>164.7</ele>
        <time>2019-08-08T16:42:29Z</time>
      </trkpt>
      <trkpt lat="48.56716" lon="7.51677">
        <ele>164.7</ele>
        <time>2019-08-08T16:42:30Z</time>
      </trkpt>
      <trkpt lat="48.56716" lon="7.51672">
        <ele>164.7</ele>
        <time>2019-08-08T16:42:31Z</time>
      </trkpt>
      <trkpt lat="48.56715" lon="7.51666">
        <ele>164.7</ele>
        <time>2019-08-08T16:42:32Z</time>
      </trkpt>
      <trkpt lat="48.56714" lon="7.5166">
        <ele>164.7</ele>
        <time>2019-08-08T16:42:33Z</time>
      </trkpt>
      <trkpt lat="48.56714" lon="7.51654">
        <ele>164.7</ele>
        <time>2019-08-08T16:42:34Z</time>
      </trkpt>
      <trkpt lat="48.56714" lon="7.51648">
        <ele>164.7</ele>
        <time>2019-08-08T16:42:35Z</time>
      </trkpt>
      <trkpt lat="48.56712" lon="7.51644">
        <ele>164.7</ele>
        <time>2019-08-08T16:42:36Z</time>
      </trkpt>
      <trkpt lat="48.56713" lon="7.51635">
        <ele>164.7</ele>
        <time>2019-08-08T16:42:38Z</time>
      </trkpt>
      <trkpt lat="48.56713" lon="7.51631">
        <ele>164.8</ele>
        <time>2019-08-08T16:42:39Z</time>
      </trkpt>
      <trkpt lat="48.56712" lon="7.51625">
        <ele>165</ele>
        <time>2019-08-08T16:42:40Z</time>
      </trkpt>
      <trkpt lat="48.56711" lon="7.51619">
        <ele>165.1</ele>
        <time>2019-08-08T16:42:41Z</time>
      </trkpt>
      <trkpt lat="48.56711" lon="7.51613">
        <ele>165.2</ele>
        <time>2019-08-08T16:42:42Z</time>
      </trkpt>
      <trkpt lat="48.56709" lon="7.51606">
        <ele>165.3</ele>
        <time>2019-08-08T16:42:43Z</time>
      </trkpt>
      <trkpt lat="48.56707" lon="7.51599">
        <ele>165.4</ele>
        <time>2019-08-08T16:42:44Z</time>
      </trkpt>
      <trkpt lat="48.56707" lon="7.51591">
        <ele>165.5</ele>
        <time>2019-08-08T16:42:45Z</time>
      </trkpt>
      <trkpt lat="48.56706" lon="7.51584">
        <ele>165.5</ele>
        <time>2019-08-08T16:42:46Z</time>
      </trkpt>
      <trkpt lat="48.56706" lon="7.51575">
        <ele>165.6</ele>
        <time>2019-08-08T16:42:47Z</time>
      </trkpt>
      <trkpt lat="48.56706" lon="7.51568">
        <ele>165.6</ele>
        <time>2019-08-08T16:42:48Z</time>
      </trkpt>
      <trkpt lat="48.56704" lon="7.5156">
        <ele>165.7</ele>
        <time>2019-08-08T16:42:49Z</time>
      </trkpt>
      <trkpt lat="48.56703" lon="7.51554">
        <ele>165.7</ele>
        <time>2019-08-08T16:42:50Z</time>
      </trkpt>
      <trkpt lat="48.56702" lon="7.51548">
        <ele>165.7</ele>
        <time>2019-08-08T16:42:51Z</time>
      </trkpt>
      <trkpt lat="48.56701" lon="7.51542">
        <ele>165.7</ele>
        <time>2019-08-08T16:42:52Z</time>
      </trkpt>
      <trkpt lat="48.567" lon="7.51536">
        <ele>165.7</ele>
        <time>2019-08-08T16:42:53Z</time>
      </trkpt>
      <trkpt lat="48.56699" lon="7.51529">
        <ele>165.7</ele>
        <time>2019-08-08T16:42:54Z</time>
      </trkpt>
      <trkpt lat="48.56699" lon="7.51521">
        <ele>165.7</ele>
        <time>2019-08-08T16:42:55Z</time>
      </trkpt>
      <trkpt lat="48.56698" lon="7.51515">
        <ele>165.8</ele>
        <time>2019-08-08T16:42:56Z</time>
      </trkpt>
      <trkpt lat="48.56698" lon="7.51507">
        <ele>165.8</ele>
        <time>2019-08-08T16:42:57Z</time>
      </trkpt>
      <trkpt lat="48.56697" lon="7.515">
        <ele>165.8</ele>
        <time>2019-08-08T16:42:58Z</time>
      </trkpt>
      <trkpt lat="48.56696" lon="7.51494">
        <ele>165.8</ele>
        <time>2019-08-08T16:42:59Z</time>
      </trkpt>
      <trkpt lat="48.56694" lon="7.51488">
        <ele>165.8</ele>
        <time>2019-08-08T16:43:00Z</time>
      </trkpt>
      <trkpt lat="48.56693" lon="7.51481">
        <ele>165.8</ele>
        <time>2019-08-08T16:43:01Z</time>
      </trkpt>
      <trkpt lat="48.56693" lon="7.51474">
        <ele>165.8</ele>
        <time>2019-08-08T16:43:02Z</time>
      </trkpt>
      <trkpt lat="48.56692" lon="7.51467">
        <ele>165.8</ele>
        <time>2019-08-08T16:43:03Z</time>
      </trkpt>
      <trkpt lat="48.5669" lon="7.51461">
        <ele>165.8</ele>
        <time>2019-08-08T16:43:04Z</time>
      </trkpt>
      <trkpt lat="48.56689" lon="7.51456">
        <ele>165.8</ele>
        <time>2019-08-08T16:43:05Z</time>
      </trkpt>
      <trkpt lat="48.56688" lon="7.51451">
        <ele>165.8</ele>
        <time>2019-08-08T16:43:06Z</time>
      </trkpt>
      <trkpt lat="48.56688" lon="7.51445">
        <ele>165.8</ele>
        <time>2019-08-08T16:43:07Z</time>
      </trkpt>
      <trkpt lat="48.56687" lon="7.51441">
        <ele>165.8</ele>
        <time>2019-08-08T16:43:08Z</time>
      </trkpt>
      <trkpt lat="48.56687" lon="7.51436">
        <ele>165.8</ele>
        <time>2019-08-08T16:43:09Z</time>
      </trkpt>
      <trkpt lat="48.56681" lon="7.51433">
        <ele>165.8</ele>
        <time>2019-08-08T16:43:10Z</time>
      </trkpt>
      <trkpt lat="48.56676" lon="7.5143">
        <ele>165.8</ele>
        <time>2019-08-08T16:43:11Z</time>
      </trkpt>
      <trkpt lat="48.56672" lon="7.51428">
        <ele>165.8</ele>
        <time>2019-08-08T16:43:12Z</time>
      </trkpt>
      <trkpt lat="48.56669" lon="7.51425">
        <ele>165.8</ele>
        <time>2019-08-08T16:43:13Z</time>
      </trkpt>
      <trkpt lat="48.56666" lon="7.51417">
        <ele>165.8</ele>
        <time>2019-08-08T16:43:15Z</time>
      </trkpt>
      <trkpt lat="48.56665" lon="7.51413">
        <ele>165.8</ele>
        <time>2019-08-08T16:43:16Z</time>
      </trkpt>
      <trkpt lat="48.56664" lon="7.51408">
        <ele>165.8</ele>
        <time>2019-08-08T16:43:17Z</time>
      </trkpt>
      <trkpt lat="48.56664" lon="7.51402">
        <ele>165.8</ele>
        <time>2019-08-08T16:43:18Z</time>
      </trkpt>
      <trkpt lat="48.56663" lon="7.51395">
        <ele>165.8</ele>
        <time>2019-08-08T16:43:19Z</time>
      </trkpt>
      <trkpt lat="48.56662" lon="7.51387">
        <ele>165.8</ele>
        <time>2019-08-08T16:43:20Z</time>
      </trkpt>
      <trkpt lat="48.56661" lon="7.51381">
        <ele>165.8</ele>
        <time>2019-08-08T16:43:21Z</time>
      </trkpt>
      <trkpt lat="48.5666" lon="7.51376">
        <ele>165.8</ele>
        <time>2019-08-08T16:43:22Z</time>
      </trkpt>
      <trkpt lat="48.56659" lon="7.51368">
        <ele>165.8</ele>
        <time>2019-08-08T16:43:23Z</time>
      </trkpt>
      <trkpt lat="48.56658" lon="7.5136">
        <ele>165.8</ele>
        <time>2019-08-08T16:43:24Z</time>
      </trkpt>
      <trkpt lat="48.56657" lon="7.51354">
        <ele>165.8</ele>
        <time>2019-08-08T16:43:25Z</time>
      </trkpt>
      <trkpt lat="48.56657" lon="7.51346">
        <ele>165.8</ele>
        <time>2019-08-08T16:43:26Z</time>
      </trkpt>
      <trkpt lat="48.56656" lon="7.51341">
        <ele>165.8</ele>
        <time>2019-08-08T16:43:27Z</time>
      </trkpt>
      <trkpt lat="48.56655" lon="7.51333">
        <ele>165.8</ele>
        <time>2019-08-08T16:43:28Z</time>
      </trkpt>
      <trkpt lat="48.56654" lon="7.51326">
        <ele>165.8</ele>
        <time>2019-08-08T16:43:29Z</time>
      </trkpt>
      <trkpt lat="48.56653" lon="7.5132">
        <ele>165.8</ele>
        <time>2019-08-08T16:43:30Z</time>
      </trkpt>
      <trkpt lat="48.56653" lon="7.51314">
        <ele>165.8</ele>
        <time>2019-08-08T16:43:31Z</time>
      </trkpt>
      <trkpt lat="48.56654" lon="7.51309">
        <ele>165.8</ele>
        <time>2019-08-08T16:43:32Z</time>
      </trkpt>
      <trkpt lat="48.56653" lon="7.51302">
        <ele>165.8</ele>
        <time>2019-08-08T16:43:33Z</time>
      </trkpt>
      <trkpt lat="48.56652" lon="7.51295">
        <ele>165.8</ele>
        <time>2019-08-08T16:43:34Z</time>
      </trkpt>
      <trkpt lat="48.56652" lon="7.51288">
        <ele>165.8</ele>
        <time>2019-08-08T16:43:35Z</time>
      </trkpt>
      <trkpt lat="48.56652" lon="7.5128">
        <ele>165.8</ele>
        <time>2019-08-08T16:43:36Z</time>
      </trkpt>
      <trkpt lat="48.56653" lon="7.5127">
        <ele>165.8</ele>
        <time>2019-08-08T16:43:37Z</time>
      </trkpt>
      <trkpt lat="48.56653" lon="7.51263">
        <ele>165.8</ele>
        <time>2019-08-08T16:43:38Z</time>
      </trkpt>
      <trkpt lat="48.56653" lon="7.51256">
        <ele>165.8</ele>
        <time>2019-08-08T16:43:39Z</time>
      </trkpt>
      <trkpt lat="48.56651" lon="7.51248">
        <ele>165.8</ele>
        <time>2019-08-08T16:43:40Z</time>
      </trkpt>
      <trkpt lat="48.5665" lon="7.51242">
        <ele>165.8</ele>
        <time>2019-08-08T16:43:41Z</time>
      </trkpt>
      <trkpt lat="48.56649" lon="7.51236">
        <ele>165.8</ele>
        <time>2019-08-08T16:43:42Z</time>
      </trkpt>
      <trkpt lat="48.56649" lon="7.5123">
        <ele>165.8</ele>
        <time>2019-08-08T16:43:43Z</time>
      </trkpt>
      <trkpt lat="48.56648" lon="7.51223">
        <ele>165.8</ele>
        <time>2019-08-08T16:43:44Z</time>
      </trkpt>
      <trkpt lat="48.56648" lon="7.51217">
        <ele>165.8</ele>
        <time>2019-08-08T16:43:45Z</time>
      </trkpt>
      <trkpt lat="48.56647" lon="7.51212">
        <ele>165.8</ele>
        <time>2019-08-08T16:43:46Z</time>
      </trkpt>
      <trkpt lat="48.56646" lon="7.51204">
        <ele>165.9</ele>
        <time>2019-08-08T16:43:47Z</time>
      </trkpt>
      <trkpt lat="48.56646" lon="7.51197">
        <ele>166</ele>
        <time>2019-08-08T16:43:48Z</time>
      </trkpt>
      <trkpt lat="48.56647" lon="7.51189">
        <ele>166.1</ele>
        <time>2019-08-08T16:43:49Z</time>
      </trkpt>
      <trkpt lat="48.56647" lon="7.51182">
        <ele>166.3</ele>
        <time>2019-08-08T16:43:50Z</time>
      </trkpt>
      <trkpt lat="48.56647" lon="7.51176">
        <ele>166.4</ele>
        <time>2019-08-08T16:43:51Z</time>
      </trkpt>
      <trkpt lat="48.56645" lon="7.51171">
        <ele>166.5</ele>
        <time>2019-08-08T16:43:52Z</time>
      </trkpt>
      <trkpt lat="48.56641" lon="7.51163">
        <ele>166.8</ele>
        <time>2019-08-08T16:43:54Z</time>
      </trkpt>
      <trkpt lat="48.56637" lon="7.51157">
        <ele>166.9</ele>
        <time>2019-08-08T16:43:55Z</time>
      </trkpt>
      <trkpt lat="48.56633" lon="7.5115">
        <ele>167.1</ele>
        <time>2019-08-08T16:43:56Z</time>
      </trkpt>
      <trkpt lat="48.56631" lon="7.51145">
        <ele>167.1</ele>
        <time>2019-08-08T16:43:57Z</time>
      </trkpt>
      <trkpt lat="48.56628" lon="7.51138">
        <ele>167.2</ele>
        <time>2019-08-08T16:43:58Z</time>
      </trkpt>
      <trkpt lat="48.56626" lon="7.51132">
        <ele>167.3</ele>
        <time>2019-08-08T16:43:59Z</time>
      </trkpt>
      <trkpt lat="48.56625" lon="7.51122">
        <ele>167.3</ele>
        <time>2019-08-08T16:44:00Z</time>
      </trkpt>
      <trkpt lat="48.56627" lon="7.51117">
        <ele>167.3</ele>
        <time>2019-08-08T16:44:01Z</time>
      </trkpt>
      <trkpt lat="48.56627" lon="7.5111">
        <ele>167.3</ele>
        <time>2019-08-08T16:44:02Z</time>
      </trkpt>
      <trkpt lat="48.56626" lon="7.51103">
        <ele>167.3</ele>
        <time>2019-08-08T16:44:03Z</time>
      </trkpt>
      <trkpt lat="48.56626" lon="7.51097">
        <ele>167.3</ele>
        <time>2019-08-08T16:44:04Z</time>
      </trkpt>
      <trkpt lat="48.56627" lon="7.51091">
        <ele>167.3</ele>
        <time>2019-08-08T16:44:05Z</time>
      </trkpt>
      <trkpt lat="48.56628" lon="7.51086">
        <ele>167.3</ele>
        <time>2019-08-08T16:44:06Z</time>
      </trkpt>
      <trkpt lat="48.56627" lon="7.5108">
        <ele>167.3</ele>
        <time>2019-08-08T16:44:07Z</time>
      </trkpt>
      <trkpt lat="48.56628" lon="7.51076">
        <ele>167.3</ele>
        <time>2019-08-08T16:44:08Z</time>
      </trkpt>
      <trkpt lat="48.56631" lon="7.51069">
        <ele>167.6</ele>
        <time>2019-08-08T16:44:10Z</time>
      </trkpt>
      <trkpt lat="48.56634" lon="7.51065">
        <ele>167.7</ele>
        <time>2019-08-08T16:44:12Z</time>
      </trkpt>
      <trkpt lat="48.56637" lon="7.51063">
        <ele>167.9</ele>
        <time>2019-08-08T16:44:13Z</time>
      </trkpt>
      <trkpt lat="48.5664" lon="7.51062">
        <ele>168</ele>
        <time>2019-08-08T16:44:15Z</time>
      </trkpt>
      <trkpt lat="48.56643" lon="7.51059">
        <ele>168.2</ele>
        <time>2019-08-08T16:44:16Z</time>
      </trkpt>
      <trkpt lat="48.56646" lon="7.51056">
        <ele>168.3</ele>
        <time>2019-08-08T16:44:17Z</time>
      </trkpt>
      <trkpt lat="48.56649" lon="7.51054">
        <ele>168.4</ele>
        <time>2019-08-08T16:44:18Z</time>
      </trkpt>
      <trkpt lat="48.56652" lon="7.51049">
        <ele>168.6</ele>
        <time>2019-08-08T16:44:20Z</time>
      </trkpt>
      <trkpt lat="48.56655" lon="7.51048">
        <ele>168.6</ele>
        <time>2019-08-08T16:44:21Z</time>
      </trkpt>
      <trkpt lat="48.56658" lon="7.51047">
        <ele>168.7</ele>
        <time>2019-08-08T16:44:22Z</time>
      </trkpt>
      <trkpt lat="48.56661" lon="7.51045">
        <ele>168.8</ele>
        <time>2019-08-08T16:44:23Z</time>
      </trkpt>
      <trkpt lat="48.56665" lon="7.51043">
        <ele>168.8</ele>
        <time>2019-08-08T16:44:24Z</time>
      </trkpt>
      <trkpt lat="48.56668" lon="7.5104">
        <ele>168.8</ele>
        <time>2019-08-08T16:44:25Z</time>
      </trkpt>
      <trkpt lat="48.56672" lon="7.51036">
        <ele>168.7</ele>
        <time>2019-08-08T16:44:26Z</time>
      </trkpt>
      <trkpt lat="48.56676" lon="7.51033">
        <ele>168.6</ele>
        <time>2019-08-08T16:44:27Z</time>
      </trkpt>
      <trkpt lat="48.56681" lon="7.5103">
        <ele>168.4</ele>
        <time>2019-08-08T16:44:28Z</time>
      </trkpt>
      <trkpt lat="48.56684" lon="7.51025">
        <ele>168.3</ele>
        <time>2019-08-08T16:44:29Z</time>
      </trkpt>
      <trkpt lat="48.56686" lon="7.51019">
        <ele>168.2</ele>
        <time>2019-08-08T16:44:30Z</time>
      </trkpt>
      <trkpt lat="48.56689" lon="7.51016">
        <ele>168.2</ele>
        <time>2019-08-08T16:44:31Z</time>
      </trkpt>
      <trkpt lat="48.56692" lon="7.51013">
        <ele>168.1</ele>
        <time>2019-08-08T16:44:32Z</time>
      </trkpt>
      <trkpt lat="48.56695" lon="7.51011">
        <ele>168.1</ele>
        <time>2019-08-08T16:44:33Z</time>
      </trkpt>
      <trkpt lat="48.56697" lon="7.51009">
        <ele>168.1</ele>
        <time>2019-08-08T16:44:34Z</time>
      </trkpt>
      <trkpt lat="48.567" lon="7.51005">
        <ele>168.1</ele>
        <time>2019-08-08T16:44:35Z</time>
      </trkpt>
      <trkpt lat="48.56706" lon="7.51004">
        <ele>168.1</ele>
        <time>2019-08-08T16:44:36Z</time>
      </trkpt>
      <trkpt lat="48.56709" lon="7.51002">
        <ele>168.1</ele>
        <time>2019-08-08T16:44:37Z</time>
      </trkpt>
      <trkpt lat="48.56712" lon="7.51001">
        <ele>168.2</ele>
        <time>2019-08-08T16:44:38Z</time>
      </trkpt>
      <trkpt lat="48.56716" lon="7.50997">
        <ele>168.2</ele>
        <time>2019-08-08T16:44:40Z</time>
      </trkpt>
      <trkpt lat="48.56718" lon="7.50994">
        <ele>168.2</ele>
        <time>2019-08-08T16:44:41Z</time>
      </trkpt>
      <trkpt lat="48.56721" lon="7.50988">
        <ele>168.2</ele>
        <time>2019-08-08T16:44:43Z</time>
      </trkpt>
      <trkpt lat="48.56721" lon="7.50983">
        <ele>168.3</ele>
        <time>2019-08-08T16:44:44Z</time>
      </trkpt>
      <trkpt lat="48.56721" lon="7.50979">
        <ele>168.3</ele>
        <time>2019-08-08T16:44:45Z</time>
      </trkpt>
      <trkpt lat="48.56721" lon="7.50972">
        <ele>168.3</ele>
        <time>2019-08-08T16:44:46Z</time>
      </trkpt>
      <trkpt lat="48.56721" lon="7.50964">
        <ele>168.3</ele>
        <time>2019-08-08T16:44:47Z</time>
      </trkpt>
      <trkpt lat="48.56722" lon="7.50956">
        <ele>168.4</ele>
        <time>2019-08-08T16:44:48Z</time>
      </trkpt>
      <trkpt lat="48.56723" lon="7.50945">
        <ele>168.4</ele>
        <time>2019-08-08T16:44:49Z</time>
      </trkpt>
      <trkpt lat="48.56725" lon="7.50929">
        <ele>168.4</ele>
        <time>2019-08-08T16:44:50Z</time>
      </trkpt>
      <trkpt lat="48.56726" lon="7.50915">
        <ele>168.3</ele>
        <time>2019-08-08T16:44:51Z</time>
      </trkpt>
      <trkpt lat="48.56727" lon="7.50902">
        <ele>168.2</ele>
        <time>2019-08-08T16:44:52Z</time>
      </trkpt>
      <trkpt lat="48.56729" lon="7.50887">
        <ele>168.1</ele>
        <time>2019-08-08T16:44:53Z</time>
      </trkpt>
      <trkpt lat="48.56731" lon="7.50872">
        <ele>168</ele>
        <time>2019-08-08T16:44:54Z</time>
      </trkpt>
      <trkpt lat="48.56732" lon="7.50858">
        <ele>168</ele>
        <time>2019-08-08T16:44:55Z</time>
      </trkpt>
      <trkpt lat="48.56734" lon="7.50845">
        <ele>168</ele>
        <time>2019-08-08T16:44:56Z</time>
      </trkpt>
      <trkpt lat="48.56735" lon="7.50834">
        <ele>168</ele>
        <time>2019-08-08T16:44:57Z</time>
      </trkpt>
      <trkpt lat="48.56736" lon="7.50824">
        <ele>167.9</ele>
        <time>2019-08-08T16:44:58Z</time>
      </trkpt>
      <trkpt lat="48.56737" lon="7.50815">
        <ele>167.9</ele>
        <time>2019-08-08T16:44:59Z</time>
      </trkpt>
      <trkpt lat="48.56737" lon="7.50806">
        <ele>167.8</ele>
        <time>2019-08-08T16:45:00Z</time>
      </trkpt>
      <trkpt lat="48.56736" lon="7.50799">
        <ele>167.8</ele>
        <time>2019-08-08T16:45:01Z</time>
      </trkpt>
      <trkpt lat="48.56735" lon="7.50792">
        <ele>167.8</ele>
        <time>2019-08-08T16:45:02Z</time>
      </trkpt>
      <trkpt lat="48.56735" lon="7.50785">
        <ele>167.8</ele>
        <time>2019-08-08T16:45:03Z</time>
      </trkpt>
      <trkpt lat="48.56735" lon="7.50778">
        <ele>167.9</ele>
        <time>2019-08-08T16:45:04Z</time>
      </trkpt>
      <trkpt lat="48.56734" lon="7.5077">
        <ele>168</ele>
        <time>2019-08-08T16:45:05Z</time>
      </trkpt>
      <trkpt lat="48.56734" lon="7.50763">
        <ele>168.2</ele>
        <time>2019-08-08T16:45:06Z</time>
      </trkpt>
      <trkpt lat="48.56733" lon="7.50756">
        <ele>168.3</ele>
        <time>2019-08-08T16:45:07Z</time>
      </trkpt>
      <trkpt lat="48.56733" lon="7.50748">
        <ele>168.5</ele>
        <time>2019-08-08T16:45:08Z</time>
      </trkpt>
      <trkpt lat="48.56733" lon="7.50741">
        <ele>168.7</ele>
        <time>2019-08-08T16:45:09Z</time>
      </trkpt>
      <trkpt lat="48.56732" lon="7.50735">
        <ele>168.9</ele>
        <time>2019-08-08T16:45:10Z</time>
      </trkpt>
      <trkpt lat="48.56731" lon="7.50728">
        <ele>169</ele>
        <time>2019-08-08T16:45:11Z</time>
      </trkpt>
      <trkpt lat="48.56731" lon="7.50722">
        <ele>169.1</ele>
        <time>2019-08-08T16:45:12Z</time>
      </trkpt>
      <trkpt lat="48.56731" lon="7.50715">
        <ele>169.1</ele>
        <time>2019-08-08T16:45:13Z</time>
      </trkpt>
      <trkpt lat="48.5673" lon="7.50708">
        <ele>169.2</ele>
        <time>2019-08-08T16:45:14Z</time>
      </trkpt>
      <trkpt lat="48.56728" lon="7.50703">
        <ele>169.2</ele>
        <time>2019-08-08T16:45:15Z</time>
      </trkpt>
      <trkpt lat="48.56729" lon="7.50696">
        <ele>169.2</ele>
        <time>2019-08-08T16:45:16Z</time>
      </trkpt>
      <trkpt lat="48.56729" lon="7.50689">
        <ele>169.1</ele>
        <time>2019-08-08T16:45:17Z</time>
      </trkpt>
      <trkpt lat="48.56729" lon="7.50681">
        <ele>169.1</ele>
        <time>2019-08-08T16:45:18Z</time>
      </trkpt>
      <trkpt lat="48.5673" lon="7.50672">
        <ele>169</ele>
        <time>2019-08-08T16:45:19Z</time>
      </trkpt>
      <trkpt lat="48.5673" lon="7.50664">
        <ele>168.9</ele>
        <time>2019-08-08T16:45:20Z</time>
      </trkpt>
      <trkpt lat="48.5673" lon="7.50656">
        <ele>168.8</ele>
        <time>2019-08-08T16:45:21Z</time>
      </trkpt>
      <trkpt lat="48.56731" lon="7.50648">
        <ele>168.7</ele>
        <time>2019-08-08T16:45:22Z</time>
      </trkpt>
      <trkpt lat="48.5673" lon="7.5064">
        <ele>168.6</ele>
        <time>2019-08-08T16:45:23Z</time>
      </trkpt>
      <trkpt lat="48.5673" lon="7.50634">
        <ele>168.6</ele>
        <time>2019-08-08T16:45:24Z</time>
      </trkpt>
      <trkpt lat="48.5673" lon="7.50626">
        <ele>168.5</ele>
        <time>2019-08-08T16:45:25Z</time>
      </trkpt>
      <trkpt lat="48.56731" lon="7.5062">
        <ele>168.5</ele>
        <time>2019-08-08T16:45:26Z</time>
      </trkpt>
      <trkpt lat="48.56731" lon="7.50613">
        <ele>168.4</ele>
        <time>2019-08-08T16:45:27Z</time>
      </trkpt>
      <trkpt lat="48.56732" lon="7.50605">
        <ele>168.4</ele>
        <time>2019-08-08T16:45:28Z</time>
      </trkpt>
      <trkpt lat="48.56733" lon="7.50598">
        <ele>168.4</ele>
        <time>2019-08-08T16:45:29Z</time>
      </trkpt>
      <trkpt lat="48.56732" lon="7.5059">
        <ele>168.5</ele>
        <time>2019-08-08T16:45:30Z</time>
      </trkpt>
      <trkpt lat="48.5673" lon="7.50584">
        <ele>168.5</ele>
        <time>2019-08-08T16:45:31Z</time>
      </trkpt>
      <trkpt lat="48.56729" lon="7.50578">
        <ele>168.6</ele>
        <time>2019-08-08T16:45:32Z</time>
      </trkpt>
      <trkpt lat="48.56728" lon="7.50572">
        <ele>168.6</ele>
        <time>2019-08-08T16:45:33Z</time>
      </trkpt>
      <trkpt lat="48.56726" lon="7.50565">
        <ele>168.6</ele>
        <time>2019-08-08T16:45:34Z</time>
      </trkpt>
      <trkpt lat="48.56724" lon="7.50559">
        <ele>168.6</ele>
        <time>2019-08-08T16:45:35Z</time>
      </trkpt>
      <trkpt lat="48.56723" lon="7.50551">
        <ele>168.5</ele>
        <time>2019-08-08T16:45:36Z</time>
      </trkpt>
      <trkpt lat="48.56723" lon="7.50544">
        <ele>168.4</ele>
        <time>2019-08-08T16:45:37Z</time>
      </trkpt>
      <trkpt lat="48.56724" lon="7.50537">
        <ele>168.3</ele>
        <time>2019-08-08T16:45:38Z</time>
      </trkpt>
      <trkpt lat="48.56722" lon="7.5053">
        <ele>168.1</ele>
        <time>2019-08-08T16:45:39Z</time>
      </trkpt>
      <trkpt lat="48.56722" lon="7.50523">
        <ele>168</ele>
        <time>2019-08-08T16:45:40Z</time>
      </trkpt>
      <trkpt lat="48.56722" lon="7.50517">
        <ele>167.9</ele>
        <time>2019-08-08T16:45:41Z</time>
      </trkpt>
      <trkpt lat="48.5672" lon="7.50509">
        <ele>167.8</ele>
        <time>2019-08-08T16:45:42Z</time>
      </trkpt>
      <trkpt lat="48.56719" lon="7.50501">
        <ele>167.7</ele>
        <time>2019-08-08T16:45:43Z</time>
      </trkpt>
      <trkpt lat="48.56719" lon="7.50494">
        <ele>167.7</ele>
        <time>2019-08-08T16:45:44Z</time>
      </trkpt>
      <trkpt lat="48.56718" lon="7.50487">
        <ele>167.7</ele>
        <time>2019-08-08T16:45:45Z</time>
      </trkpt>
      <trkpt lat="48.56717" lon="7.50482">
        <ele>167.7</ele>
        <time>2019-08-08T16:45:46Z</time>
      </trkpt>
      <trkpt lat="48.56716" lon="7.50473">
        <ele>167.7</ele>
        <time>2019-08-08T16:45:47Z</time>
      </trkpt>
      <trkpt lat="48.56715" lon="7.50466">
        <ele>167.7</ele>
        <time>2019-08-08T16:45:48Z</time>
      </trkpt>
      <trkpt lat="48.56715" lon="7.50458">
        <ele>167.7</ele>
        <time>2019-08-08T16:45:49Z</time>
      </trkpt>
      <trkpt lat="48.56714" lon="7.50451">
        <ele>167.6</ele>
        <time>2019-08-08T16:45:50Z</time>
      </trkpt>
      <trkpt lat="48.56715" lon="7.50445">
        <ele>167.5</ele>
        <time>2019-08-08T16:45:51Z</time>
      </trkpt>
      <trkpt lat="48.56715" lon="7.50438">
        <ele>167.3</ele>
        <time>2019-08-08T16:45:52Z</time>
      </trkpt>
      <trkpt lat="48.56715" lon="7.50431">
        <ele>167.2</ele>
        <time>2019-08-08T16:45:53Z</time>
      </trkpt>
      <trkpt lat="48.56714" lon="7.50421">
        <ele>167</ele>
        <time>2019-08-08T16:45:54Z</time>
      </trkpt>
      <trkpt lat="48.56713" lon="7.50413">
        <ele>166.9</ele>
        <time>2019-08-08T16:45:55Z</time>
      </trkpt>
      <trkpt lat="48.56711" lon="7.50406">
        <ele>166.8</ele>
        <time>2019-08-08T16:45:56Z</time>
      </trkpt>
      <trkpt lat="48.56711" lon="7.504">
        <ele>166.7</ele>
        <time>2019-08-08T16:45:57Z</time>
      </trkpt>
      <trkpt lat="48.56709" lon="7.50392">
        <ele>166.7</ele>
        <time>2019-08-08T16:45:58Z</time>
      </trkpt>
      <trkpt lat="48.56709" lon="7.50385">
        <ele>166.6</ele>
        <time>2019-08-08T16:45:59Z</time>
      </trkpt>
      <trkpt lat="48.56708" lon="7.50377">
        <ele>166.5</ele>
        <time>2019-08-08T16:46:00Z</time>
      </trkpt>
      <trkpt lat="48.56707" lon="7.5037">
        <ele>166.4</ele>
        <time>2019-08-08T16:46:01Z</time>
      </trkpt>
      <trkpt lat="48.56705" lon="7.50364">
        <ele>166.3</ele>
        <time>2019-08-08T16:46:02Z</time>
      </trkpt>
      <trkpt lat="48.56705" lon="7.50358">
        <ele>166.3</ele>
        <time>2019-08-08T16:46:03Z</time>
      </trkpt>
      <trkpt lat="48.56704" lon="7.50351">
        <ele>166.2</ele>
        <time>2019-08-08T16:46:04Z</time>
      </trkpt>
      <trkpt lat="48.56702" lon="7.50346">
        <ele>166.1</ele>
        <time>2019-08-08T16:46:05Z</time>
      </trkpt>
      <trkpt lat="48.56701" lon="7.50342">
        <ele>166.1</ele>
        <time>2019-08-08T16:46:06Z</time>
      </trkpt>
      <trkpt lat="48.56699" lon="7.50335">
        <ele>166</ele>
        <time>2019-08-08T16:46:07Z</time>
      </trkpt>
      <trkpt lat="48.56697" lon="7.50332">
        <ele>166</ele>
        <time>2019-08-08T16:46:08Z</time>
      </trkpt>
      <trkpt lat="48.56695" lon="7.50327">
        <ele>166</ele>
        <time>2019-08-08T16:46:09Z</time>
      </trkpt>
      <trkpt lat="48.56693" lon="7.50323">
        <ele>166</ele>
        <time>2019-08-08T16:46:10Z</time>
      </trkpt>
      <trkpt lat="48.56692" lon="7.50317">
        <ele>166</ele>
        <time>2019-08-08T16:46:11Z</time>
      </trkpt>
      <trkpt lat="48.56689" lon="7.50311">
        <ele>166</ele>
        <time>2019-08-08T16:46:12Z</time>
      </trkpt>
      <trkpt lat="48.56687" lon="7.50305">
        <ele>166</ele>
        <time>2019-08-08T16:46:13Z</time>
      </trkpt>
      <trkpt lat="48.56685" lon="7.50299">
        <ele>166</ele>
        <time>2019-08-08T16:46:14Z</time>
      </trkpt>
      <trkpt lat="48.56683" lon="7.50293">
        <ele>166</ele>
        <time>2019-08-08T16:46:15Z</time>
      </trkpt>
      <trkpt lat="48.56682" lon="7.50287">
        <ele>166</ele>
        <time>2019-08-08T16:46:16Z</time>
      </trkpt>
      <trkpt lat="48.56681" lon="7.5028">
        <ele>166</ele>
        <time>2019-08-08T16:46:17Z</time>
      </trkpt>
      <trkpt lat="48.5668" lon="7.50273">
        <ele>166</ele>
        <time>2019-08-08T16:46:18Z</time>
      </trkpt>
      <trkpt lat="48.56679" lon="7.50265">
        <ele>166</ele>
        <time>2019-08-08T16:46:19Z</time>
      </trkpt>
      <trkpt lat="48.56679" lon="7.50258">
        <ele>166</ele>
        <time>2019-08-08T16:46:20Z</time>
      </trkpt>
      <trkpt lat="48.56678" lon="7.50251">
        <ele>166</ele>
        <time>2019-08-08T16:46:21Z</time>
      </trkpt>
      <trkpt lat="48.56676" lon="7.50244">
        <ele>166</ele>
        <time>2019-08-08T16:46:22Z</time>
      </trkpt>
      <trkpt lat="48.56676" lon="7.50239">
        <ele>166</ele>
        <time>2019-08-08T16:46:23Z</time>
      </trkpt>
      <trkpt lat="48.56674" lon="7.50233">
        <ele>166.1</ele>
        <time>2019-08-08T16:46:24Z</time>
      </trkpt>
      <trkpt lat="48.56673" lon="7.50227">
        <ele>166.1</ele>
        <time>2019-08-08T16:46:25Z</time>
      </trkpt>
      <trkpt lat="48.56672" lon="7.50221">
        <ele>166.1</ele>
        <time>2019-08-08T16:46:26Z</time>
      </trkpt>
      <trkpt lat="48.56671" lon="7.50214">
        <ele>166.2</ele>
        <time>2019-08-08T16:46:27Z</time>
      </trkpt>
      <trkpt lat="48.5667" lon="7.50206">
        <ele>166.3</ele>
        <time>2019-08-08T16:46:28Z</time>
      </trkpt>
      <trkpt lat="48.56668" lon="7.50196">
        <ele>166.3</ele>
        <time>2019-08-08T16:46:29Z</time>
      </trkpt>
      <trkpt lat="48.56666" lon="7.50187">
        <ele>166.4</ele>
        <time>2019-08-08T16:46:30Z</time>
      </trkpt>
      <trkpt lat="48.56664" lon="7.50179">
        <ele>166.4</ele>
        <time>2019-08-08T16:46:31Z</time>
      </trkpt>
      <trkpt lat="48.56662" lon="7.50173">
        <ele>166.4</ele>
        <time>2019-08-08T16:46:32Z</time>
      </trkpt>
      <trkpt lat="48.5666" lon="7.50165">
        <ele>166.4</ele>
        <time>2019-08-08T16:46:33Z</time>
      </trkpt>
      <trkpt lat="48.56659" lon="7.50157">
        <ele>166.4</ele>
        <time>2019-08-08T16:46:34Z</time>
      </trkpt>
      <trkpt lat="48.56658" lon="7.50149">
        <ele>166.4</ele>
        <time>2019-08-08T16:46:35Z</time>
      </trkpt>
      <trkpt lat="48.56656" lon="7.50143">
        <ele>166.4</ele>
        <time>2019-08-08T16:46:36Z</time>
      </trkpt>
      <trkpt lat="48.56654" lon="7.50136">
        <ele>166.5</ele>
        <time>2019-08-08T16:46:37Z</time>
      </trkpt>
      <trkpt lat="48.56651" lon="7.50128">
        <ele>166.5</ele>
        <time>2019-08-08T16:46:38Z</time>
      </trkpt>
      <trkpt lat="48.56649" lon="7.50122">
        <ele>166.6</ele>
        <time>2019-08-08T16:46:39Z</time>
      </trkpt>
      <trkpt lat="48.56648" lon="7.50115">
        <ele>166.7</ele>
        <time>2019-08-08T16:46:40Z</time>
      </trkpt>
      <trkpt lat="48.56646" lon="7.5011">
        <ele>166.7</ele>
        <time>2019-08-08T16:46:41Z</time>
      </trkpt>
      <trkpt lat="48.56643" lon="7.50103">
        <ele>166.8</ele>
        <time>2019-08-08T16:46:42Z</time>
      </trkpt>
      <trkpt lat="48.56641" lon="7.50098">
        <ele>166.9</ele>
        <time>2019-08-08T16:46:43Z</time>
      </trkpt>
      <trkpt lat="48.56639" lon="7.50091">
        <ele>167</ele>
        <time>2019-08-08T16:46:44Z</time>
      </trkpt>
      <trkpt lat="48.56636" lon="7.50085">
        <ele>167</ele>
        <time>2019-08-08T16:46:45Z</time>
      </trkpt>
      <trkpt lat="48.56635" lon="7.50078">
        <ele>167.1</ele>
        <time>2019-08-08T16:46:46Z</time>
      </trkpt>
      <trkpt lat="48.56634" lon="7.50071">
        <ele>167.2</ele>
        <time>2019-08-08T16:46:47Z</time>
      </trkpt>
      <trkpt lat="48.56633" lon="7.50063">
        <ele>167.3</ele>
        <time>2019-08-08T16:46:48Z</time>
      </trkpt>
      <trkpt lat="48.56632" lon="7.50056">
        <ele>167.3</ele>
        <time>2019-08-08T16:46:49Z</time>
      </trkpt>
      <trkpt lat="48.56631" lon="7.5005">
        <ele>167.4</ele>
        <time>2019-08-08T16:46:50Z</time>
      </trkpt>
      <trkpt lat="48.56628" lon="7.50042">
        <ele>167.5</ele>
        <time>2019-08-08T16:46:51Z</time>
      </trkpt>
      <trkpt lat="48.56627" lon="7.50037">
        <ele>167.6</ele>
        <time>2019-08-08T16:46:52Z</time>
      </trkpt>
      <trkpt lat="48.56625" lon="7.5003">
        <ele>167.7</ele>
        <time>2019-08-08T16:46:53Z</time>
      </trkpt>
      <trkpt lat="48.56624" lon="7.50024">
        <ele>167.8</ele>
        <time>2019-08-08T16:46:54Z</time>
      </trkpt>
      <trkpt lat="48.56623" lon="7.50018">
        <ele>167.8</ele>
        <time>2019-08-08T16:46:55Z</time>
      </trkpt>
      <trkpt lat="48.56623" lon="7.50013">
        <ele>168</ele>
        <time>2019-08-08T16:46:56Z</time>
      </trkpt>
      <trkpt lat="48.56623" lon="7.50007">
        <ele>168.1</ele>
        <time>2019-08-08T16:46:57Z</time>
      </trkpt>
      <trkpt lat="48.56622" lon="7.50001">
        <ele>168.3</ele>
        <time>2019-08-08T16:46:58Z</time>
      </trkpt>
      <trkpt lat="48.56621" lon="7.49997">
        <ele>168.4</ele>
        <time>2019-08-08T16:46:59Z</time>
      </trkpt>
      <trkpt lat="48.5662" lon="7.49992">
        <ele>168.5</ele>
        <time>2019-08-08T16:47:00Z</time>
      </trkpt>
      <trkpt lat="48.56619" lon="7.49987">
        <ele>168.7</ele>
        <time>2019-08-08T16:47:01Z</time>
      </trkpt>
      <trkpt lat="48.5662" lon="7.4998">
        <ele>169</ele>
        <time>2019-08-08T16:47:02Z</time>
      </trkpt>
      <trkpt lat="48.5662" lon="7.49975">
        <ele>169.1</ele>
        <time>2019-08-08T16:47:03Z</time>
      </trkpt>
      <trkpt lat="48.56618" lon="7.49969">
        <ele>169.4</ele>
        <time>2019-08-08T16:47:06Z</time>
      </trkpt>
      <trkpt lat="48.56618" lon="7.49962">
        <ele>169.7</ele>
        <time>2019-08-08T16:47:08Z</time>
      </trkpt>
      <trkpt lat="48.56617" lon="7.49957">
        <ele>169.7</ele>
        <time>2019-08-08T16:47:09Z</time>
      </trkpt>
      <trkpt lat="48.56617" lon="7.4995">
        <ele>169.8</ele>
        <time>2019-08-08T16:47:11Z</time>
      </trkpt>
      <trkpt lat="48.56617" lon="7.49943">
        <ele>169.9</ele>
        <time>2019-08-08T16:47:13Z</time>
      </trkpt>
      <trkpt lat="48.56618" lon="7.49931">
        <ele>170.2</ele>
        <time>2019-08-08T16:47:15Z</time>
      </trkpt>
      <trkpt lat="48.56621" lon="7.49923">
        <ele>170.4</ele>
        <time>2019-08-08T16:47:16Z</time>
      </trkpt>
      <trkpt lat="48.56622" lon="7.49915">
        <ele>170.5</ele>
        <time>2019-08-08T16:47:17Z</time>
      </trkpt>
      <trkpt lat="48.56624" lon="7.49907">
        <ele>170.6</ele>
        <time>2019-08-08T16:47:18Z</time>
      </trkpt>
      <trkpt lat="48.56626" lon="7.49902">
        <ele>170.7</ele>
        <time>2019-08-08T16:47:19Z</time>
      </trkpt>
      <trkpt lat="48.56627" lon="7.49895">
        <ele>170.8</ele>
        <time>2019-08-08T16:47:20Z</time>
      </trkpt>
      <trkpt lat="48.56629" lon="7.4989">
        <ele>170.9</ele>
        <time>2019-08-08T16:47:21Z</time>
      </trkpt>
      <trkpt lat="48.5663" lon="7.49884">
        <ele>171</ele>
        <time>2019-08-08T16:47:22Z</time>
      </trkpt>
      <trkpt lat="48.56632" lon="7.49879">
        <ele>171.1</ele>
        <time>2019-08-08T16:47:23Z</time>
      </trkpt>
      <trkpt lat="48.56634" lon="7.49873">
        <ele>171.1</ele>
        <time>2019-08-08T16:47:24Z</time>
      </trkpt>
      <trkpt lat="48.56635" lon="7.49867">
        <ele>171.2</ele>
        <time>2019-08-08T16:47:25Z</time>
      </trkpt>
      <trkpt lat="48.56636" lon="7.49862">
        <ele>171.2</ele>
        <time>2019-08-08T16:47:26Z</time>
      </trkpt>
      <trkpt lat="48.56637" lon="7.49856">
        <ele>171.2</ele>
        <time>2019-08-08T16:47:28Z</time>
      </trkpt>
      <trkpt lat="48.56638" lon="7.49852">
        <ele>171.2</ele>
        <time>2019-08-08T16:47:29Z</time>
      </trkpt>
      <trkpt lat="48.56639" lon="7.49848">
        <ele>171.3</ele>
        <time>2019-08-08T16:47:30Z</time>
      </trkpt>
      <trkpt lat="48.56639" lon="7.49843">
        <ele>171.3</ele>
        <time>2019-08-08T16:47:31Z</time>
      </trkpt>
      <trkpt lat="48.5664" lon="7.49838">
        <ele>171.3</ele>
        <time>2019-08-08T16:47:32Z</time>
      </trkpt>
      <trkpt lat="48.56641" lon="7.49832">
        <ele>171.3</ele>
        <time>2019-08-08T16:47:33Z</time>
      </trkpt>
      <trkpt lat="48.56642" lon="7.49827">
        <ele>171.4</ele>
        <time>2019-08-08T16:47:34Z</time>
      </trkpt>
      <trkpt lat="48.56641" lon="7.4982">
        <ele>171.4</ele>
        <time>2019-08-08T16:47:36Z</time>
      </trkpt>
      <trkpt lat="48.56645" lon="7.49813">
        <ele>171.4</ele>
        <time>2019-08-08T16:47:38Z</time>
      </trkpt>
      <trkpt lat="48.56647" lon="7.49809">
        <ele>171.4</ele>
        <time>2019-08-08T16:47:39Z</time>
      </trkpt>
      <trkpt lat="48.56649" lon="7.49804">
        <ele>171.4</ele>
        <time>2019-08-08T16:47:40Z</time>
      </trkpt>
      <trkpt lat="48.5665" lon="7.49799">
        <ele>171.4</ele>
        <time>2019-08-08T16:47:41Z</time>
      </trkpt>
      <trkpt lat="48.56652" lon="7.49794">
        <ele>171.3</ele>
        <time>2019-08-08T16:47:42Z</time>
      </trkpt>
      <trkpt lat="48.56653" lon="7.49788">
        <ele>171.3</ele>
        <time>2019-08-08T16:47:43Z</time>
      </trkpt>
      <trkpt lat="48.56654" lon="7.49782">
        <ele>171.3</ele>
        <time>2019-08-08T16:47:44Z</time>
      </trkpt>
      <trkpt lat="48.56656" lon="7.49777">
        <ele>171.3</ele>
        <time>2019-08-08T16:47:45Z</time>
      </trkpt>
      <trkpt lat="48.56657" lon="7.49774">
        <ele>171.3</ele>
        <time>2019-08-08T16:47:46Z</time>
      </trkpt>
      <trkpt lat="48.5666" lon="7.49769">
        <ele>171.3</ele>
        <time>2019-08-08T16:47:47Z</time>
      </trkpt>
      <trkpt lat="48.56661" lon="7.49763">
        <ele>171.3</ele>
        <time>2019-08-08T16:47:48Z</time>
      </trkpt>
      <trkpt lat="48.56663" lon="7.49758">
        <ele>171.3</ele>
        <time>2019-08-08T16:47:49Z</time>
      </trkpt>
      <trkpt lat="48.56665" lon="7.49753">
        <ele>171.4</ele>
        <time>2019-08-08T16:47:50Z</time>
      </trkpt>
      <trkpt lat="48.56667" lon="7.49749">
        <ele>171.4</ele>
        <time>2019-08-08T16:47:51Z</time>
      </trkpt>
      <trkpt lat="48.56669" lon="7.49744">
        <ele>171.4</ele>
        <time>2019-08-08T16:47:52Z</time>
      </trkpt>
      <trkpt lat="48.5667" lon="7.4974">
        <ele>171.5</ele>
        <time>2019-08-08T16:47:53Z</time>
      </trkpt>
      <trkpt lat="48.56673" lon="7.49735">
        <ele>171.5</ele>
        <time>2019-08-08T16:47:54Z</time>
      </trkpt>
      <trkpt lat="48.56675" lon="7.49731">
        <ele>171.5</ele>
        <time>2019-08-08T16:47:55Z</time>
      </trkpt>
      <trkpt lat="48.56677" lon="7.49725">
        <ele>171.4</ele>
        <time>2019-08-08T16:47:56Z</time>
      </trkpt>
      <trkpt lat="48.56679" lon="7.4972">
        <ele>171.4</ele>
        <time>2019-08-08T16:47:57Z</time>
      </trkpt>
      <trkpt lat="48.5668" lon="7.49715">
        <ele>171.4</ele>
        <time>2019-08-08T16:47:58Z</time>
      </trkpt>
      <trkpt lat="48.56682" lon="7.4971">
        <ele>171.3</ele>
        <time>2019-08-08T16:47:59Z</time>
      </trkpt>
      <trkpt lat="48.56684" lon="7.49705">
        <ele>171.3</ele>
        <time>2019-08-08T16:48:00Z</time>
      </trkpt>
      <trkpt lat="48.56686" lon="7.49698">
        <ele>171.3</ele>
        <time>2019-08-08T16:48:01Z</time>
      </trkpt>
      <trkpt lat="48.5669" lon="7.49691">
        <ele>171.2</ele>
        <time>2019-08-08T16:48:02Z</time>
      </trkpt>
      <trkpt lat="48.56692" lon="7.49686">
        <ele>171.2</ele>
        <time>2019-08-08T16:48:03Z</time>
      </trkpt>
      <trkpt lat="48.56693" lon="7.49681">
        <ele>171.2</ele>
        <time>2019-08-08T16:48:04Z</time>
      </trkpt>
      <trkpt lat="48.56696" lon="7.49674">
        <ele>171.1</ele>
        <time>2019-08-08T16:48:05Z</time>
      </trkpt>
      <trkpt lat="48.56699" lon="7.49667">
        <ele>171.1</ele>
        <time>2019-08-08T16:48:06Z</time>
      </trkpt>
      <trkpt lat="48.56701" lon="7.49662">
        <ele>171.1</ele>
        <time>2019-08-08T16:48:07Z</time>
      </trkpt>
      <trkpt lat="48.56704" lon="7.49656">
        <ele>171</ele>
        <time>2019-08-08T16:48:08Z</time>
      </trkpt>
      <trkpt lat="48.56707" lon="7.49652">
        <ele>171</ele>
        <time>2019-08-08T16:48:09Z</time>
      </trkpt>
      <trkpt lat="48.5671" lon="7.49648">
        <ele>171</ele>
        <time>2019-08-08T16:48:10Z</time>
      </trkpt>
      <trkpt lat="48.56714" lon="7.49642">
        <ele>171</ele>
        <time>2019-08-08T16:48:11Z</time>
      </trkpt>
      <trkpt lat="48.56718" lon="7.49636">
        <ele>171</ele>
        <time>2019-08-08T16:48:12Z</time>
      </trkpt>
      <trkpt lat="48.56721" lon="7.49632">
        <ele>171</ele>
        <time>2019-08-08T16:48:13Z</time>
      </trkpt>
      <trkpt lat="48.56725" lon="7.49629">
        <ele>171</ele>
        <time>2019-08-08T16:48:14Z</time>
      </trkpt>
      <trkpt lat="48.56728" lon="7.49626">
        <ele>171</ele>
        <time>2019-08-08T16:48:15Z</time>
      </trkpt>
      <trkpt lat="48.56731" lon="7.49623">
        <ele>171</ele>
        <time>2019-08-08T16:48:16Z</time>
      </trkpt>
      <trkpt lat="48.56735" lon="7.49619">
        <ele>171</ele>
        <time>2019-08-08T16:48:17Z</time>
      </trkpt>
      <trkpt lat="48.56738" lon="7.49615">
        <ele>171</ele>
        <time>2019-08-08T16:48:18Z</time>
      </trkpt>
      <trkpt lat="48.56741" lon="7.4961">
        <ele>171</ele>
        <time>2019-08-08T16:48:19Z</time>
      </trkpt>
      <trkpt lat="48.56745" lon="7.49605">
        <ele>171</ele>
        <time>2019-08-08T16:48:20Z</time>
      </trkpt>
      <trkpt lat="48.5675" lon="7.49603">
        <ele>171</ele>
        <time>2019-08-08T16:48:21Z</time>
      </trkpt>
      <trkpt lat="48.56754" lon="7.49599">
        <ele>171</ele>
        <time>2019-08-08T16:48:22Z</time>
      </trkpt>
      <trkpt lat="48.56758" lon="7.49594">
        <ele>171</ele>
        <time>2019-08-08T16:48:23Z</time>
      </trkpt>
      <trkpt lat="48.56762" lon="7.49591">
        <ele>171</ele>
        <time>2019-08-08T16:48:24Z</time>
      </trkpt>
      <trkpt lat="48.56765" lon="7.49588">
        <ele>171</ele>
        <time>2019-08-08T16:48:25Z</time>
      </trkpt>
      <trkpt lat="48.56768" lon="7.49583">
        <ele>171</ele>
        <time>2019-08-08T16:48:26Z</time>
      </trkpt>
      <trkpt lat="48.56771" lon="7.49577">
        <ele>171</ele>
        <time>2019-08-08T16:48:27Z</time>
      </trkpt>
      <trkpt lat="48.56774" lon="7.49573">
        <ele>171</ele>
        <time>2019-08-08T16:48:28Z</time>
      </trkpt>
      <trkpt lat="48.56777" lon="7.49567">
        <ele>171</ele>
        <time>2019-08-08T16:48:29Z</time>
      </trkpt>
      <trkpt lat="48.56781" lon="7.49561">
        <ele>171</ele>
        <time>2019-08-08T16:48:30Z</time>
      </trkpt>
      <trkpt lat="48.56785" lon="7.49556">
        <ele>171</ele>
        <time>2019-08-08T16:48:31Z</time>
      </trkpt>
      <trkpt lat="48.56789" lon="7.49552">
        <ele>170.9</ele>
        <time>2019-08-08T16:48:32Z</time>
      </trkpt>
      <trkpt lat="48.56793" lon="7.49548">
        <ele>170.9</ele>
        <time>2019-08-08T16:48:33Z</time>
      </trkpt>
      <trkpt lat="48.56797" lon="7.49542">
        <ele>170.9</ele>
        <time>2019-08-08T16:48:34Z</time>
      </trkpt>
      <trkpt lat="48.568" lon="7.49538">
        <ele>170.9</ele>
        <time>2019-08-08T16:48:35Z</time>
      </trkpt>
      <trkpt lat="48.56803" lon="7.49534">
        <ele>170.9</ele>
        <time>2019-08-08T16:48:36Z</time>
      </trkpt>
      <trkpt lat="48.56807" lon="7.4953">
        <ele>170.9</ele>
        <time>2019-08-08T16:48:37Z</time>
      </trkpt>
      <trkpt lat="48.5681" lon="7.49526">
        <ele>170.8</ele>
        <time>2019-08-08T16:48:38Z</time>
      </trkpt>
      <trkpt lat="48.56813" lon="7.49522">
        <ele>170.8</ele>
        <time>2019-08-08T16:48:39Z</time>
      </trkpt>
      <trkpt lat="48.56817" lon="7.49519">
        <ele>170.8</ele>
        <time>2019-08-08T16:48:40Z</time>
      </trkpt>
      <trkpt lat="48.56821" lon="7.49514">
        <ele>170.8</ele>
        <time>2019-08-08T16:48:41Z</time>
      </trkpt>
      <trkpt lat="48.56829" lon="7.49511">
        <ele>170.8</ele>
        <time>2019-08-08T16:48:42Z</time>
      </trkpt>
      <trkpt lat="48.56832" lon="7.49507">
        <ele>170.8</ele>
        <time>2019-08-08T16:48:43Z</time>
      </trkpt>
      <trkpt lat="48.56836" lon="7.49504">
        <ele>170.8</ele>
        <time>2019-08-08T16:48:44Z</time>
      </trkpt>
      <trkpt lat="48.5684" lon="7.49502">
        <ele>170.8</ele>
        <time>2019-08-08T16:48:45Z</time>
      </trkpt>
      <trkpt lat="48.56843" lon="7.49499">
        <ele>170.8</ele>
        <time>2019-08-08T16:48:46Z</time>
      </trkpt>
      <trkpt lat="48.56846" lon="7.49497">
        <ele>170.8</ele>
        <time>2019-08-08T16:48:47Z</time>
      </trkpt>
      <trkpt lat="48.56849" lon="7.49495">
        <ele>170.8</ele>
        <time>2019-08-08T16:48:48Z</time>
      </trkpt>
      <trkpt lat="48.56852" lon="7.49493">
        <ele>170.8</ele>
        <time>2019-08-08T16:48:49Z</time>
      </trkpt>
      <trkpt lat="48.56855" lon="7.49491">
        <ele>170.8</ele>
        <time>2019-08-08T16:48:50Z</time>
      </trkpt>
      <trkpt lat="48.56859" lon="7.49489">
        <ele>170.8</ele>
        <time>2019-08-08T16:48:52Z</time>
      </trkpt>
      <trkpt lat="48.56862" lon="7.49486">
        <ele>170.8</ele>
        <time>2019-08-08T16:48:53Z</time>
      </trkpt>
      <trkpt lat="48.56867" lon="7.49486">
        <ele>170.8</ele>
        <time>2019-08-08T16:48:54Z</time>
      </trkpt>
      <trkpt lat="48.5687" lon="7.49484">
        <ele>170.9</ele>
        <time>2019-08-08T16:48:55Z</time>
      </trkpt>
      <trkpt lat="48.56875" lon="7.49484">
        <ele>170.9</ele>
        <time>2019-08-08T16:48:56Z</time>
      </trkpt>
      <trkpt lat="48.56879" lon="7.4948">
        <ele>170.9</ele>
        <time>2019-08-08T16:48:57Z</time>
      </trkpt>
      <trkpt lat="48.56882" lon="7.49475">
        <ele>170.9</ele>
        <time>2019-08-08T16:48:58Z</time>
      </trkpt>
      <trkpt lat="48.56886" lon="7.49471">
        <ele>170.9</ele>
        <time>2019-08-08T16:48:59Z</time>
      </trkpt>
      <trkpt lat="48.5689" lon="7.49466">
        <ele>171</ele>
        <time>2019-08-08T16:49:00Z</time>
      </trkpt>
      <trkpt lat="48.56892" lon="7.49461">
        <ele>171.1</ele>
        <time>2019-08-08T16:49:01Z</time>
      </trkpt>
      <trkpt lat="48.56894" lon="7.49456">
        <ele>171.1</ele>
        <time>2019-08-08T16:49:02Z</time>
      </trkpt>
      <trkpt lat="48.56895" lon="7.49451">
        <ele>171.2</ele>
        <time>2019-08-08T16:49:03Z</time>
      </trkpt>
      <trkpt lat="48.56897" lon="7.49447">
        <ele>171.3</ele>
        <time>2019-08-08T16:49:04Z</time>
      </trkpt>
      <trkpt lat="48.56899" lon="7.4944">
        <ele>170.9</ele>
        <time>2019-08-08T16:49:05Z</time>
      </trkpt>
      <trkpt lat="48.56902" lon="7.49434">
        <ele>170.7</ele>
        <time>2019-08-08T16:49:06Z</time>
      </trkpt>
      <trkpt lat="48.56906" lon="7.49427">
        <ele>170.5</ele>
        <time>2019-08-08T16:49:07Z</time>
      </trkpt>
      <trkpt lat="48.56909" lon="7.49419">
        <ele>170.2</ele>
        <time>2019-08-08T16:49:08Z</time>
      </trkpt>
      <trkpt lat="48.56911" lon="7.49411">
        <ele>169.9</ele>
        <time>2019-08-08T16:49:09Z</time>
      </trkpt>
      <trkpt lat="48.56913" lon="7.49406">
        <ele>169.8</ele>
        <time>2019-08-08T16:49:10Z</time>
      </trkpt>
      <trkpt lat="48.56914" lon="7.49401">
        <ele>169.6</ele>
        <time>2019-08-08T16:49:11Z</time>
      </trkpt>
      <trkpt lat="48.56915" lon="7.49395">
        <ele>169.3</ele>
        <time>2019-08-08T16:49:12Z</time>
      </trkpt>
      <trkpt lat="48.56917" lon="7.49388">
        <ele>169.3</ele>
        <time>2019-08-08T16:49:13Z</time>
      </trkpt>
      <trkpt lat="48.5692" lon="7.4938">
        <ele>169.2</ele>
        <time>2019-08-08T16:49:14Z</time>
      </trkpt>
      <trkpt lat="48.56923" lon="7.49372">
        <ele>169.3</ele>
        <time>2019-08-08T16:49:15Z</time>
      </trkpt>
      <trkpt lat="48.56925" lon="7.49364">
        <ele>169.4</ele>
        <time>2019-08-08T16:49:16Z</time>
      </trkpt>
      <trkpt lat="48.56927" lon="7.49354">
        <ele>169.6</ele>
        <time>2019-08-08T16:49:17Z</time>
      </trkpt>
      <trkpt lat="48.56929" lon="7.49343">
        <ele>169.8</ele>
        <time>2019-08-08T16:49:18Z</time>
      </trkpt>
      <trkpt lat="48.56931" lon="7.49333">
        <ele>169.9</ele>
        <time>2019-08-08T16:49:19Z</time>
      </trkpt>
      <trkpt lat="48.56933" lon="7.49323">
        <ele>170.1</ele>
        <time>2019-08-08T16:49:20Z</time>
      </trkpt>
      <trkpt lat="48.56935" lon="7.49314">
        <ele>170.2</ele>
        <time>2019-08-08T16:49:21Z</time>
      </trkpt>
      <trkpt lat="48.56937" lon="7.49306">
        <ele>170.3</ele>
        <time>2019-08-08T16:49:22Z</time>
      </trkpt>
      <trkpt lat="48.56938" lon="7.49299">
        <ele>170.4</ele>
        <time>2019-08-08T16:49:23Z</time>
      </trkpt>
      <trkpt lat="48.56938" lon="7.49294">
        <ele>170.4</ele>
        <time>2019-08-08T16:49:24Z</time>
      </trkpt>
      <trkpt lat="48.56937" lon="7.49285">
        <ele>170.5</ele>
        <time>2019-08-08T16:49:26Z</time>
      </trkpt>
      <trkpt lat="48.56936" lon="7.4928">
        <ele>170.6</ele>
        <time>2019-08-08T16:49:27Z</time>
      </trkpt>
      <trkpt lat="48.56936" lon="7.49273">
        <ele>170.7</ele>
        <time>2019-08-08T16:49:28Z</time>
      </trkpt>
      <trkpt lat="48.56935" lon="7.49268">
        <ele>170.8</ele>
        <time>2019-08-08T16:49:29Z</time>
      </trkpt>
      <trkpt lat="48.56933" lon="7.49262">
        <ele>170.9</ele>
        <time>2019-08-08T16:49:30Z</time>
      </trkpt>
      <trkpt lat="48.5693" lon="7.49258">
        <ele>171</ele>
        <time>2019-08-08T16:49:31Z</time>
      </trkpt>
      <trkpt lat="48.56928" lon="7.49251">
        <ele>171.1</ele>
        <time>2019-08-08T16:49:32Z</time>
      </trkpt>
      <trkpt lat="48.56926" lon="7.49248">
        <ele>171.2</ele>
        <time>2019-08-08T16:49:33Z</time>
      </trkpt>
      <trkpt lat="48.56923" lon="7.49244">
        <ele>171.3</ele>
        <time>2019-08-08T16:49:35Z</time>
      </trkpt>
      <trkpt lat="48.5692" lon="7.49242">
        <ele>171.3</ele>
        <time>2019-08-08T16:49:37Z</time>
      </trkpt>
      <trkpt lat="48.56918" lon="7.49234">
        <ele>171.5</ele>
        <time>2019-08-08T16:49:39Z</time>
      </trkpt>
      <trkpt lat="48.56917" lon="7.49229">
        <ele>171.7</ele>
        <time>2019-08-08T16:49:40Z</time>
      </trkpt>
      <trkpt lat="48.56916" lon="7.49225">
        <ele>171.8</ele>
        <time>2019-08-08T16:49:41Z</time>
      </trkpt>
      <trkpt lat="48.56914" lon="7.49221">
        <ele>171.9</ele>
        <time>2019-08-08T16:49:42Z</time>
      </trkpt>
      <trkpt lat="48.5691" lon="7.49218">
        <ele>172</ele>
        <time>2019-08-08T16:49:44Z</time>
      </trkpt>
      <trkpt lat="48.56908" lon="7.49212">
        <ele>172.1</ele>
        <time>2019-08-08T16:49:45Z</time>
      </trkpt>
      <trkpt lat="48.56905" lon="7.49209">
        <ele>172.2</ele>
        <time>2019-08-08T16:49:47Z</time>
      </trkpt>
      <trkpt lat="48.569" lon="7.49214">
        <ele>172.4</ele>
        <time>2019-08-08T16:49:49Z</time>
      </trkpt>
      <trkpt lat="48.56895" lon="7.49218">
        <ele>172.6</ele>
        <time>2019-08-08T16:49:50Z</time>
      </trkpt>
      <trkpt lat="48.56888" lon="7.49223">
        <ele>172.6</ele>
        <time>2019-08-08T16:49:51Z</time>
      </trkpt>
      <trkpt lat="48.56882" lon="7.49225">
        <ele>172.4</ele>
        <time>2019-08-08T16:49:52Z</time>
      </trkpt>
      <trkpt lat="48.56876" lon="7.49227">
        <ele>172.3</ele>
        <time>2019-08-08T16:49:53Z</time>
      </trkpt>
      <trkpt lat="48.5687" lon="7.49229">
        <ele>172.2</ele>
        <time>2019-08-08T16:49:54Z</time>
      </trkpt>
      <trkpt lat="48.56865" lon="7.49231">
        <ele>172.1</ele>
        <time>2019-08-08T16:49:55Z</time>
      </trkpt>
      <trkpt lat="48.56861" lon="7.49233">
        <ele>172</ele>
        <time>2019-08-08T16:49:56Z</time>
      </trkpt>
      <trkpt lat="48.56856" lon="7.49235">
        <ele>171.9</ele>
        <time>2019-08-08T16:49:57Z</time>
      </trkpt>
      <trkpt lat="48.56851" lon="7.49239">
        <ele>171.8</ele>
        <time>2019-08-08T16:49:58Z</time>
      </trkpt>
      <trkpt lat="48.56846" lon="7.49241">
        <ele>171.7</ele>
        <time>2019-08-08T16:49:59Z</time>
      </trkpt>
      <trkpt lat="48.5684" lon="7.49246">
        <ele>171.5</ele>
        <time>2019-08-08T16:50:00Z</time>
      </trkpt>
      <trkpt lat="48.56836" lon="7.4925">
        <ele>171.4</ele>
        <time>2019-08-08T16:50:01Z</time>
      </trkpt>
      <trkpt lat="48.56832" lon="7.49255">
        <ele>171.3</ele>
        <time>2019-08-08T16:50:02Z</time>
      </trkpt>
      <trkpt lat="48.56827" lon="7.4926">
        <ele>171.2</ele>
        <time>2019-08-08T16:50:03Z</time>
      </trkpt>
      <trkpt lat="48.56823" lon="7.49264">
        <ele>171.1</ele>
        <time>2019-08-08T16:50:04Z</time>
      </trkpt>
      <trkpt lat="48.56818" lon="7.49269">
        <ele>171</ele>
        <time>2019-08-08T16:50:05Z</time>
      </trkpt>
      <trkpt lat="48.56814" lon="7.49272">
        <ele>170.9</ele>
        <time>2019-08-08T16:50:06Z</time>
      </trkpt>
      <trkpt lat="48.56811" lon="7.49274">
        <ele>170.9</ele>
        <time>2019-08-08T16:50:07Z</time>
      </trkpt>
      <trkpt lat="48.56807" lon="7.49277">
        <ele>170.9</ele>
        <time>2019-08-08T16:50:08Z</time>
      </trkpt>
      <trkpt lat="48.56803" lon="7.4928">
        <ele>170.9</ele>
        <time>2019-08-08T16:50:09Z</time>
      </trkpt>
      <trkpt lat="48.56799" lon="7.49284">
        <ele>170.9</ele>
        <time>2019-08-08T16:50:10Z</time>
      </trkpt>
      <trkpt lat="48.56795" lon="7.4929">
        <ele>171</ele>
        <time>2019-08-08T16:50:11Z</time>
      </trkpt>
      <trkpt lat="48.56791" lon="7.49295">
        <ele>171</ele>
        <time>2019-08-08T16:50:12Z</time>
      </trkpt>
      <trkpt lat="48.56788" lon="7.49299">
        <ele>171</ele>
        <time>2019-08-08T16:50:13Z</time>
      </trkpt>
      <trkpt lat="48.56784" lon="7.49304">
        <ele>171.1</ele>
        <time>2019-08-08T16:50:14Z</time>
      </trkpt>
      <trkpt lat="48.56781" lon="7.49307">
        <ele>171.2</ele>
        <time>2019-08-08T16:50:15Z</time>
      </trkpt>
      <trkpt lat="48.56778" lon="7.49311">
        <ele>171.2</ele>
        <time>2019-08-08T16:50:16Z</time>
      </trkpt>
      <trkpt lat="48.56774" lon="7.49315">
        <ele>171.3</ele>
        <time>2019-08-08T16:50:17Z</time>
      </trkpt>
      <trkpt lat="48.56771" lon="7.49319">
        <ele>171.4</ele>
        <time>2019-08-08T16:50:18Z</time>
      </trkpt>
      <trkpt lat="48.56766" lon="7.49325">
        <ele>171.5</ele>
        <time>2019-08-08T16:50:19Z</time>
      </trkpt>
      <trkpt lat="48.56762" lon="7.49329">
        <ele>171.6</ele>
        <time>2019-08-08T16:50:20Z</time>
      </trkpt>
      <trkpt lat="48.56758" lon="7.49332">
        <ele>171.6</ele>
        <time>2019-08-08T16:50:21Z</time>
      </trkpt>
      <trkpt lat="48.56753" lon="7.49335">
        <ele>171.7</ele>
        <time>2019-08-08T16:50:22Z</time>
      </trkpt>
      <trkpt lat="48.5675" lon="7.49339">
        <ele>171.8</ele>
        <time>2019-08-08T16:50:23Z</time>
      </trkpt>
      <trkpt lat="48.56746" lon="7.49342">
        <ele>171.9</ele>
        <time>2019-08-08T16:50:24Z</time>
      </trkpt>
      <trkpt lat="48.56743" lon="7.49345">
        <ele>172</ele>
        <time>2019-08-08T16:50:25Z</time>
      </trkpt>
      <trkpt lat="48.56739" lon="7.49349">
        <ele>172</ele>
        <time>2019-08-08T16:50:26Z</time>
      </trkpt>
      <trkpt lat="48.56736" lon="7.49355">
        <ele>172.1</ele>
        <time>2019-08-08T16:50:27Z</time>
      </trkpt>
      <trkpt lat="48.56733" lon="7.49359">
        <ele>172.2</ele>
        <time>2019-08-08T16:50:28Z</time>
      </trkpt>
      <trkpt lat="48.5673" lon="7.49363">
        <ele>172.2</ele>
        <time>2019-08-08T16:50:29Z</time>
      </trkpt>
      <trkpt lat="48.56726" lon="7.49367">
        <ele>172.3</ele>
        <time>2019-08-08T16:50:30Z</time>
      </trkpt>
      <trkpt lat="48.56722" lon="7.49371">
        <ele>172.4</ele>
        <time>2019-08-08T16:50:31Z</time>
      </trkpt>
      <trkpt lat="48.56719" lon="7.49375">
        <ele>172.4</ele>
        <time>2019-08-08T16:50:32Z</time>
      </trkpt>
      <trkpt lat="48.56715" lon="7.49377">
        <ele>172.4</ele>
        <time>2019-08-08T16:50:33Z</time>
      </trkpt>
      <trkpt lat="48.56711" lon="7.4938">
        <ele>172.5</ele>
        <time>2019-08-08T16:50:34Z</time>
      </trkpt>
      <trkpt lat="48.56707" lon="7.49383">
        <ele>172.5</ele>
        <time>2019-08-08T16:50:35Z</time>
      </trkpt>
      <trkpt lat="48.56703" lon="7.49386">
        <ele>172.6</ele>
        <time>2019-08-08T16:50:36Z</time>
      </trkpt>
      <trkpt lat="48.567" lon="7.49389">
        <ele>172.6</ele>
        <time>2019-08-08T16:50:37Z</time>
      </trkpt>
      <trkpt lat="48.56696" lon="7.49393">
        <ele>172.7</ele>
        <time>2019-08-08T16:50:38Z</time>
      </trkpt>
      <trkpt lat="48.56692" lon="7.49398">
        <ele>172.7</ele>
        <time>2019-08-08T16:50:39Z</time>
      </trkpt>
      <trkpt lat="48.56688" lon="7.49401">
        <ele>172.7</ele>
        <time>2019-08-08T16:50:40Z</time>
      </trkpt>
      <trkpt lat="48.56685" lon="7.49405">
        <ele>172.8</ele>
        <time>2019-08-08T16:50:41Z</time>
      </trkpt>
      <trkpt lat="48.56681" lon="7.49409">
        <ele>172.8</ele>
        <time>2019-08-08T16:50:42Z</time>
      </trkpt>
      <trkpt lat="48.56678" lon="7.49413">
        <ele>172.8</ele>
        <time>2019-08-08T16:50:43Z</time>
      </trkpt>
      <trkpt lat="48.56674" lon="7.49417">
        <ele>172.9</ele>
        <time>2019-08-08T16:50:44Z</time>
      </trkpt>
      <trkpt lat="48.5667" lon="7.49421">
        <ele>172.9</ele>
        <time>2019-08-08T16:50:45Z</time>
      </trkpt>
      <trkpt lat="48.56667" lon="7.49425">
        <ele>172.9</ele>
        <time>2019-08-08T16:50:46Z</time>
      </trkpt>
      <trkpt lat="48.56664" lon="7.49429">
        <ele>172.9</ele>
        <time>2019-08-08T16:50:47Z</time>
      </trkpt>
      <trkpt lat="48.56661" lon="7.49434">
        <ele>172.9</ele>
        <time>2019-08-08T16:50:48Z</time>
      </trkpt>
      <trkpt lat="48.56658" lon="7.4944">
        <ele>172.9</ele>
        <time>2019-08-08T16:50:49Z</time>
      </trkpt>
      <trkpt lat="48.56654" lon="7.49445">
        <ele>172.9</ele>
        <time>2019-08-08T16:50:50Z</time>
      </trkpt>
      <trkpt lat="48.5665" lon="7.49451">
        <ele>172.8</ele>
        <time>2019-08-08T16:50:51Z</time>
      </trkpt>
      <trkpt lat="48.56647" lon="7.49455">
        <ele>172.7</ele>
        <time>2019-08-08T16:50:52Z</time>
      </trkpt>
      <trkpt lat="48.56643" lon="7.49456">
        <ele>172.7</ele>
        <time>2019-08-08T16:50:53Z</time>
      </trkpt>
      <trkpt lat="48.56639" lon="7.49459">
        <ele>172.6</ele>
        <time>2019-08-08T16:50:54Z</time>
      </trkpt>
      <trkpt lat="48.56634" lon="7.49461">
        <ele>172.5</ele>
        <time>2019-08-08T16:50:55Z</time>
      </trkpt>
      <trkpt lat="48.56628" lon="7.49463">
        <ele>172.5</ele>
        <time>2019-08-08T16:50:56Z</time>
      </trkpt>
      <trkpt lat="48.56624" lon="7.49468">
        <ele>172.4</ele>
        <time>2019-08-08T16:50:57Z</time>
      </trkpt>
      <trkpt lat="48.5662" lon="7.49472">
        <ele>172.3</ele>
        <time>2019-08-08T16:50:58Z</time>
      </trkpt>
      <trkpt lat="48.56616" lon="7.49476">
        <ele>172.2</ele>
        <time>2019-08-08T16:50:59Z</time>
      </trkpt>
      <trkpt lat="48.56612" lon="7.49481">
        <ele>172.1</ele>
        <time>2019-08-08T16:51:00Z</time>
      </trkpt>
      <trkpt lat="48.56609" lon="7.49486">
        <ele>172.1</ele>
        <time>2019-08-08T16:51:01Z</time>
      </trkpt>
      <trkpt lat="48.56605" lon="7.4949">
        <ele>172</ele>
        <time>2019-08-08T16:51:02Z</time>
      </trkpt>
      <trkpt lat="48.56601" lon="7.49494">
        <ele>171.9</ele>
        <time>2019-08-08T16:51:03Z</time>
      </trkpt>
      <trkpt lat="48.56598" lon="7.49498">
        <ele>171.8</ele>
        <time>2019-08-08T16:51:04Z</time>
      </trkpt>
      <trkpt lat="48.56595" lon="7.49501">
        <ele>171.8</ele>
        <time>2019-08-08T16:51:05Z</time>
      </trkpt>
      <trkpt lat="48.5659" lon="7.49506">
        <ele>171.7</ele>
        <time>2019-08-08T16:51:06Z</time>
      </trkpt>
      <trkpt lat="48.56589" lon="7.49512">
        <ele>171.6</ele>
        <time>2019-08-08T16:51:07Z</time>
      </trkpt>
      <trkpt lat="48.56585" lon="7.49516">
        <ele>171.5</ele>
        <time>2019-08-08T16:51:08Z</time>
      </trkpt>
      <trkpt lat="48.56582" lon="7.49519">
        <ele>171.5</ele>
        <time>2019-08-08T16:51:09Z</time>
      </trkpt>
      <trkpt lat="48.56579" lon="7.49524">
        <ele>171.4</ele>
        <time>2019-08-08T16:51:10Z</time>
      </trkpt>
      <trkpt lat="48.56576" lon="7.49528">
        <ele>171.3</ele>
        <time>2019-08-08T16:51:11Z</time>
      </trkpt>
      <trkpt lat="48.56573" lon="7.49531">
        <ele>171.3</ele>
        <time>2019-08-08T16:51:12Z</time>
      </trkpt>
      <trkpt lat="48.5657" lon="7.49534">
        <ele>171.2</ele>
        <time>2019-08-08T16:51:13Z</time>
      </trkpt>
      <trkpt lat="48.56567" lon="7.49537">
        <ele>171.2</ele>
        <time>2019-08-08T16:51:14Z</time>
      </trkpt>
      <trkpt lat="48.56564" lon="7.4954">
        <ele>171.1</ele>
        <time>2019-08-08T16:51:15Z</time>
      </trkpt>
      <trkpt lat="48.56562" lon="7.49542">
        <ele>171.1</ele>
        <time>2019-08-08T16:51:16Z</time>
      </trkpt>
      <trkpt lat="48.56558" lon="7.49545">
        <ele>171</ele>
        <time>2019-08-08T16:51:17Z</time>
      </trkpt>
      <trkpt lat="48.56555" lon="7.49549">
        <ele>170.9</ele>
        <time>2019-08-08T16:51:18Z</time>
      </trkpt>
      <trkpt lat="48.56551" lon="7.49554">
        <ele>170.8</ele>
        <time>2019-08-08T16:51:19Z</time>
      </trkpt>
      <trkpt lat="48.56547" lon="7.49558">
        <ele>170.8</ele>
        <time>2019-08-08T16:51:20Z</time>
      </trkpt>
      <trkpt lat="48.56542" lon="7.49564">
        <ele>170.7</ele>
        <time>2019-08-08T16:51:21Z</time>
      </trkpt>
      <trkpt lat="48.56539" lon="7.49568">
        <ele>170.7</ele>
        <time>2019-08-08T16:51:22Z</time>
      </trkpt>
      <trkpt lat="48.56535" lon="7.49572">
        <ele>170.6</ele>
        <time>2019-08-08T16:51:23Z</time>
      </trkpt>
      <trkpt lat="48.56531" lon="7.49576">
        <ele>170.4</ele>
        <time>2019-08-08T16:51:24Z</time>
      </trkpt>
      <trkpt lat="48.56527" lon="7.49579">
        <ele>170.2</ele>
        <time>2019-08-08T16:51:25Z</time>
      </trkpt>
      <trkpt lat="48.56523" lon="7.49581">
        <ele>170</ele>
        <time>2019-08-08T16:51:26Z</time>
      </trkpt>
      <trkpt lat="48.56519" lon="7.49583">
        <ele>169.9</ele>
        <time>2019-08-08T16:51:27Z</time>
      </trkpt>
      <trkpt lat="48.56515" lon="7.49585">
        <ele>169.9</ele>
        <time>2019-08-08T16:51:28Z</time>
      </trkpt>
      <trkpt lat="48.56512" lon="7.49588">
        <ele>169.9</ele>
        <time>2019-08-08T16:51:29Z</time>
      </trkpt>
      <trkpt lat="48.56508" lon="7.4959">
        <ele>169.9</ele>
        <time>2019-08-08T16:51:30Z</time>
      </trkpt>
      <trkpt lat="48.56505" lon="7.49593">
        <ele>170</ele>
        <time>2019-08-08T16:51:31Z</time>
      </trkpt>
      <trkpt lat="48.56502" lon="7.49596">
        <ele>170.1</ele>
        <time>2019-08-08T16:51:32Z</time>
      </trkpt>
      <trkpt lat="48.56498" lon="7.496">
        <ele>170.2</ele>
        <time>2019-08-08T16:51:33Z</time>
      </trkpt>
      <trkpt lat="48.56494" lon="7.49604">
        <ele>170.3</ele>
        <time>2019-08-08T16:51:34Z</time>
      </trkpt>
      <trkpt lat="48.56491" lon="7.49611">
        <ele>170.4</ele>
        <time>2019-08-08T16:51:35Z</time>
      </trkpt>
      <trkpt lat="48.56487" lon="7.49616">
        <ele>170.5</ele>
        <time>2019-08-08T16:51:36Z</time>
      </trkpt>
      <trkpt lat="48.56483" lon="7.49621">
        <ele>170.6</ele>
        <time>2019-08-08T16:51:37Z</time>
      </trkpt>
      <trkpt lat="48.56479" lon="7.49626">
        <ele>170.6</ele>
        <time>2019-08-08T16:51:38Z</time>
      </trkpt>
      <trkpt lat="48.56474" lon="7.49631">
        <ele>170.6</ele>
        <time>2019-08-08T16:51:39Z</time>
      </trkpt>
      <trkpt lat="48.5647" lon="7.49636">
        <ele>170.5</ele>
        <time>2019-08-08T16:51:40Z</time>
      </trkpt>
      <trkpt lat="48.56465" lon="7.4964">
        <ele>170.5</ele>
        <time>2019-08-08T16:51:41Z</time>
      </trkpt>
      <trkpt lat="48.56461" lon="7.49644">
        <ele>170.4</ele>
        <time>2019-08-08T16:51:42Z</time>
      </trkpt>
      <trkpt lat="48.56457" lon="7.49649">
        <ele>170.4</ele>
        <time>2019-08-08T16:51:43Z</time>
      </trkpt>
      <trkpt lat="48.56452" lon="7.49653">
        <ele>170.4</ele>
        <time>2019-08-08T16:51:44Z</time>
      </trkpt>
      <trkpt lat="48.56449" lon="7.49657">
        <ele>170.5</ele>
        <time>2019-08-08T16:51:45Z</time>
      </trkpt>
      <trkpt lat="48.56446" lon="7.4966">
        <ele>170.6</ele>
        <time>2019-08-08T16:51:46Z</time>
      </trkpt>
      <trkpt lat="48.56443" lon="7.49664">
        <ele>170.6</ele>
        <time>2019-08-08T16:51:47Z</time>
      </trkpt>
      <trkpt lat="48.56441" lon="7.49667">
        <ele>170.7</ele>
        <time>2019-08-08T16:51:48Z</time>
      </trkpt>
      <trkpt lat="48.56438" lon="7.49672">
        <ele>170.7</ele>
        <time>2019-08-08T16:51:49Z</time>
      </trkpt>
      <trkpt lat="48.56435" lon="7.49676">
        <ele>170.7</ele>
        <time>2019-08-08T16:51:50Z</time>
      </trkpt>
      <trkpt lat="48.56432" lon="7.4968">
        <ele>170.8</ele>
        <time>2019-08-08T16:51:51Z</time>
      </trkpt>
      <trkpt lat="48.56428" lon="7.49685">
        <ele>170.8</ele>
        <time>2019-08-08T16:51:52Z</time>
      </trkpt>
      <trkpt lat="48.56424" lon="7.49689">
        <ele>170.8</ele>
        <time>2019-08-08T16:51:53Z</time>
      </trkpt>
      <trkpt lat="48.56421" lon="7.49693">
        <ele>170.8</ele>
        <time>2019-08-08T16:51:54Z</time>
      </trkpt>
      <trkpt lat="48.56418" lon="7.49695">
        <ele>170.8</ele>
        <time>2019-08-08T16:51:55Z</time>
      </trkpt>
      <trkpt lat="48.56415" lon="7.49699">
        <ele>170.8</ele>
        <time>2019-08-08T16:51:56Z</time>
      </trkpt>
      <trkpt lat="48.56411" lon="7.49703">
        <ele>170.9</ele>
        <time>2019-08-08T16:51:57Z</time>
      </trkpt>
      <trkpt lat="48.56408" lon="7.49707">
        <ele>170.9</ele>
        <time>2019-08-08T16:51:58Z</time>
      </trkpt>
      <trkpt lat="48.56404" lon="7.4971">
        <ele>170.9</ele>
        <time>2019-08-08T16:51:59Z</time>
      </trkpt>
      <trkpt lat="48.56401" lon="7.49713">
        <ele>170.9</ele>
        <time>2019-08-08T16:52:00Z</time>
      </trkpt>
      <trkpt lat="48.56399" lon="7.49717">
        <ele>170.9</ele>
        <time>2019-08-08T16:52:01Z</time>
      </trkpt>
      <trkpt lat="48.56396" lon="7.4972">
        <ele>170.9</ele>
        <time>2019-08-08T16:52:02Z</time>
      </trkpt>
      <trkpt lat="48.56392" lon="7.49725">
        <ele>170.9</ele>
        <time>2019-08-08T16:52:03Z</time>
      </trkpt>
      <trkpt lat="48.56388" lon="7.49728">
        <ele>170.9</ele>
        <time>2019-08-08T16:52:04Z</time>
      </trkpt>
      <trkpt lat="48.56383" lon="7.49732">
        <ele>170.9</ele>
        <time>2019-08-08T16:52:05Z</time>
      </trkpt>
      <trkpt lat="48.56378" lon="7.49734">
        <ele>170.9</ele>
        <time>2019-08-08T16:52:06Z</time>
      </trkpt>
      <trkpt lat="48.56375" lon="7.49737">
        <ele>171</ele>
        <time>2019-08-08T16:52:07Z</time>
      </trkpt>
      <trkpt lat="48.56371" lon="7.49739">
        <ele>171</ele>
        <time>2019-08-08T16:52:08Z</time>
      </trkpt>
      <trkpt lat="48.56365" lon="7.49742">
        <ele>171</ele>
        <time>2019-08-08T16:52:09Z</time>
      </trkpt>
      <trkpt lat="48.56361" lon="7.49746">
        <ele>171</ele>
        <time>2019-08-08T16:52:10Z</time>
      </trkpt>
      <trkpt lat="48.56357" lon="7.49748">
        <ele>171</ele>
        <time>2019-08-08T16:52:11Z</time>
      </trkpt>
      <trkpt lat="48.56356" lon="7.49758">
        <ele>171</ele>
        <time>2019-08-08T16:52:12Z</time>
      </trkpt>
      <trkpt lat="48.56353" lon="7.49764">
        <ele>171</ele>
        <time>2019-08-08T16:52:13Z</time>
      </trkpt>
      <trkpt lat="48.5635" lon="7.49768">
        <ele>171</ele>
        <time>2019-08-08T16:52:14Z</time>
      </trkpt>
      <trkpt lat="48.56346" lon="7.49772">
        <ele>171</ele>
        <time>2019-08-08T16:52:15Z</time>
      </trkpt>
      <trkpt lat="48.56343" lon="7.49776">
        <ele>171</ele>
        <time>2019-08-08T16:52:16Z</time>
      </trkpt>
      <trkpt lat="48.5634" lon="7.49778">
        <ele>171.1</ele>
        <time>2019-08-08T16:52:17Z</time>
      </trkpt>
      <trkpt lat="48.56337" lon="7.49783">
        <ele>171.1</ele>
        <time>2019-08-08T16:52:18Z</time>
      </trkpt>
      <trkpt lat="48.56334" lon="7.49785">
        <ele>171.1</ele>
        <time>2019-08-08T16:52:19Z</time>
      </trkpt>
      <trkpt lat="48.56331" lon="7.49787">
        <ele>171.1</ele>
        <time>2019-08-08T16:52:20Z</time>
      </trkpt>
      <trkpt lat="48.56327" lon="7.49789">
        <ele>171.1</ele>
        <time>2019-08-08T16:52:21Z</time>
      </trkpt>
      <trkpt lat="48.56323" lon="7.49793">
        <ele>171.1</ele>
        <time>2019-08-08T16:52:22Z</time>
      </trkpt>
      <trkpt lat="48.5632" lon="7.49795">
        <ele>171.1</ele>
        <time>2019-08-08T16:52:23Z</time>
      </trkpt>
      <trkpt lat="48.56317" lon="7.49798">
        <ele>171.1</ele>
        <time>2019-08-08T16:52:24Z</time>
      </trkpt>
      <trkpt lat="48.56313" lon="7.498">
        <ele>171.1</ele>
        <time>2019-08-08T16:52:25Z</time>
      </trkpt>
      <trkpt lat="48.5631" lon="7.49803">
        <ele>171.1</ele>
        <time>2019-08-08T16:52:26Z</time>
      </trkpt>
      <trkpt lat="48.56307" lon="7.49805">
        <ele>171.1</ele>
        <time>2019-08-08T16:52:27Z</time>
      </trkpt>
      <trkpt lat="48.56303" lon="7.49807">
        <ele>171.1</ele>
        <time>2019-08-08T16:52:28Z</time>
      </trkpt>
      <trkpt lat="48.563" lon="7.49809">
        <ele>171.1</ele>
        <time>2019-08-08T16:52:29Z</time>
      </trkpt>
      <trkpt lat="48.56296" lon="7.49812">
        <ele>171.2</ele>
        <time>2019-08-08T16:52:30Z</time>
      </trkpt>
      <trkpt lat="48.56293" lon="7.49814">
        <ele>171.2</ele>
        <time>2019-08-08T16:52:31Z</time>
      </trkpt>
      <trkpt lat="48.56289" lon="7.49817">
        <ele>171.2</ele>
        <time>2019-08-08T16:52:32Z</time>
      </trkpt>
      <trkpt lat="48.56284" lon="7.49819">
        <ele>171.2</ele>
        <time>2019-08-08T16:52:33Z</time>
      </trkpt>
      <trkpt lat="48.56281" lon="7.49824">
        <ele>171.2</ele>
        <time>2019-08-08T16:52:34Z</time>
      </trkpt>
      <trkpt lat="48.56277" lon="7.49827">
        <ele>171.2</ele>
        <time>2019-08-08T16:52:35Z</time>
      </trkpt>
      <trkpt lat="48.56273" lon="7.4983">
        <ele>171.2</ele>
        <time>2019-08-08T16:52:36Z</time>
      </trkpt>
      <trkpt lat="48.56269" lon="7.49832">
        <ele>171.2</ele>
        <time>2019-08-08T16:52:37Z</time>
      </trkpt>
      <trkpt lat="48.56264" lon="7.49835">
        <ele>171.2</ele>
        <time>2019-08-08T16:52:38Z</time>
      </trkpt>
      <trkpt lat="48.56261" lon="7.49836">
        <ele>171.2</ele>
        <time>2019-08-08T16:52:39Z</time>
      </trkpt>
      <trkpt lat="48.56257" lon="7.49836">
        <ele>171.2</ele>
        <time>2019-08-08T16:52:40Z</time>
      </trkpt>
      <trkpt lat="48.56253" lon="7.49838">
        <ele>171.3</ele>
        <time>2019-08-08T16:52:41Z</time>
      </trkpt>
      <trkpt lat="48.5625" lon="7.49841">
        <ele>171.3</ele>
        <time>2019-08-08T16:52:42Z</time>
      </trkpt>
      <trkpt lat="48.56246" lon="7.49845">
        <ele>171.3</ele>
        <time>2019-08-08T16:52:43Z</time>
      </trkpt>
      <trkpt lat="48.56243" lon="7.49847">
        <ele>171.3</ele>
        <time>2019-08-08T16:52:44Z</time>
      </trkpt>
      <trkpt lat="48.56238" lon="7.49849">
        <ele>171.3</ele>
        <time>2019-08-08T16:52:45Z</time>
      </trkpt>
      <trkpt lat="48.56234" lon="7.49851">
        <ele>171.3</ele>
        <time>2019-08-08T16:52:46Z</time>
      </trkpt>
      <trkpt lat="48.56229" lon="7.49853">
        <ele>171.3</ele>
        <time>2019-08-08T16:52:47Z</time>
      </trkpt>
      <trkpt lat="48.56226" lon="7.49857">
        <ele>171.3</ele>
        <time>2019-08-08T16:52:48Z</time>
      </trkpt>
      <trkpt lat="48.56222" lon="7.4986">
        <ele>171.4</ele>
        <time>2019-08-08T16:52:49Z</time>
      </trkpt>
      <trkpt lat="48.56218" lon="7.49863">
        <ele>171.4</ele>
        <time>2019-08-08T16:52:50Z</time>
      </trkpt>
      <trkpt lat="48.56216" lon="7.49865">
        <ele>171.4</ele>
        <time>2019-08-08T16:52:51Z</time>
      </trkpt>
      <trkpt lat="48.56212" lon="7.49869">
        <ele>171.5</ele>
        <time>2019-08-08T16:52:52Z</time>
      </trkpt>
      <trkpt lat="48.56209" lon="7.49871">
        <ele>171.6</ele>
        <time>2019-08-08T16:52:53Z</time>
      </trkpt>
      <trkpt lat="48.56206" lon="7.49874">
        <ele>171.7</ele>
        <time>2019-08-08T16:52:54Z</time>
      </trkpt>
      <trkpt lat="48.56201" lon="7.49877">
        <ele>171.8</ele>
        <time>2019-08-08T16:52:55Z</time>
      </trkpt>
      <trkpt lat="48.56197" lon="7.49881">
        <ele>171.9</ele>
        <time>2019-08-08T16:52:56Z</time>
      </trkpt>
      <trkpt lat="48.56193" lon="7.49884">
        <ele>172</ele>
        <time>2019-08-08T16:52:57Z</time>
      </trkpt>
      <trkpt lat="48.56189" lon="7.49887">
        <ele>172</ele>
        <time>2019-08-08T16:52:58Z</time>
      </trkpt>
      <trkpt lat="48.56185" lon="7.4989">
        <ele>172</ele>
        <time>2019-08-08T16:52:59Z</time>
      </trkpt>
      <trkpt lat="48.5618" lon="7.49893">
        <ele>172</ele>
        <time>2019-08-08T16:53:00Z</time>
      </trkpt>
      <trkpt lat="48.56176" lon="7.49896">
        <ele>171.9</ele>
        <time>2019-08-08T16:53:01Z</time>
      </trkpt>
      <trkpt lat="48.56172" lon="7.499">
        <ele>171.8</ele>
        <time>2019-08-08T16:53:02Z</time>
      </trkpt>
      <trkpt lat="48.56169" lon="7.49904">
        <ele>171.7</ele>
        <time>2019-08-08T16:53:03Z</time>
      </trkpt>
      <trkpt lat="48.56168" lon="7.49907">
        <ele>171.7</ele>
        <time>2019-08-08T16:53:04Z</time>
      </trkpt>
      <trkpt lat="48.56166" lon="7.49912">
        <ele>171.6</ele>
        <time>2019-08-08T16:53:05Z</time>
      </trkpt>
      <trkpt lat="48.56163" lon="7.49915">
        <ele>171.6</ele>
        <time>2019-08-08T16:53:06Z</time>
      </trkpt>
      <trkpt lat="48.5616" lon="7.49918">
        <ele>171.6</ele>
        <time>2019-08-08T16:53:07Z</time>
      </trkpt>
      <trkpt lat="48.56156" lon="7.4992">
        <ele>171.5</ele>
        <time>2019-08-08T16:53:08Z</time>
      </trkpt>
      <trkpt lat="48.56153" lon="7.49921">
        <ele>171.5</ele>
        <time>2019-08-08T16:53:09Z</time>
      </trkpt>
      <trkpt lat="48.5615" lon="7.49925">
        <ele>171.5</ele>
        <time>2019-08-08T16:53:10Z</time>
      </trkpt>
      <trkpt lat="48.56146" lon="7.49927">
        <ele>171.5</ele>
        <time>2019-08-08T16:53:11Z</time>
      </trkpt>
      <trkpt lat="48.56142" lon="7.4993">
        <ele>171.5</ele>
        <time>2019-08-08T16:53:12Z</time>
      </trkpt>
      <trkpt lat="48.56139" lon="7.49932">
        <ele>171.5</ele>
        <time>2019-08-08T16:53:13Z</time>
      </trkpt>
      <trkpt lat="48.56135" lon="7.49933">
        <ele>171.6</ele>
        <time>2019-08-08T16:53:14Z</time>
      </trkpt>
      <trkpt lat="48.56133" lon="7.49938">
        <ele>171.6</ele>
        <time>2019-08-08T16:53:16Z</time>
      </trkpt>
      <trkpt lat="48.56131" lon="7.49943">
        <ele>171.6</ele>
        <time>2019-08-08T16:53:22Z</time>
      </trkpt>
      <trkpt lat="48.56128" lon="7.49944">
        <ele>171.6</ele>
        <time>2019-08-08T16:53:23Z</time>
      </trkpt>
      <trkpt lat="48.56126" lon="7.49947">
        <ele>171.6</ele>
        <time>2019-08-08T16:53:24Z</time>
      </trkpt>
      <trkpt lat="48.56122" lon="7.49951">
        <ele>171.6</ele>
        <time>2019-08-08T16:53:26Z</time>
      </trkpt>
      <trkpt lat="48.56118" lon="7.49954">
        <ele>171.6</ele>
        <time>2019-08-08T16:53:28Z</time>
      </trkpt>
      <trkpt lat="48.56116" lon="7.49957">
        <ele>171.6</ele>
        <time>2019-08-08T16:53:29Z</time>
      </trkpt>
      <trkpt lat="48.56113" lon="7.49961">
        <ele>171.7</ele>
        <time>2019-08-08T16:53:30Z</time>
      </trkpt>
      <trkpt lat="48.56111" lon="7.49963">
        <ele>171.7</ele>
        <time>2019-08-08T16:53:31Z</time>
      </trkpt>
      <trkpt lat="48.56108" lon="7.49964">
        <ele>171.7</ele>
        <time>2019-08-08T16:53:32Z</time>
      </trkpt>
      <trkpt lat="48.56104" lon="7.49967">
        <ele>171.7</ele>
        <time>2019-08-08T16:53:33Z</time>
      </trkpt>
      <trkpt lat="48.56101" lon="7.49969">
        <ele>171.7</ele>
        <time>2019-08-08T16:53:34Z</time>
      </trkpt>
      <trkpt lat="48.561" lon="7.49973">
        <ele>171.8</ele>
        <time>2019-08-08T16:53:35Z</time>
      </trkpt>
      <trkpt lat="48.56097" lon="7.49975">
        <ele>171.8</ele>
        <time>2019-08-08T16:53:36Z</time>
      </trkpt>
      <trkpt lat="48.56094" lon="7.49977">
        <ele>171.8</ele>
        <time>2019-08-08T16:53:37Z</time>
      </trkpt>
      <trkpt lat="48.5609" lon="7.4998">
        <ele>171.8</ele>
        <time>2019-08-08T16:53:38Z</time>
      </trkpt>
      <trkpt lat="48.56087" lon="7.49984">
        <ele>171.9</ele>
        <time>2019-08-08T16:53:39Z</time>
      </trkpt>
      <trkpt lat="48.56083" lon="7.49988">
        <ele>171.9</ele>
        <time>2019-08-08T16:53:40Z</time>
      </trkpt>
      <trkpt lat="48.5608" lon="7.49993">
        <ele>171.9</ele>
        <time>2019-08-08T16:53:41Z</time>
      </trkpt>
      <trkpt lat="48.56077" lon="7.49999">
        <ele>172</ele>
        <time>2019-08-08T16:53:42Z</time>
      </trkpt>
      <trkpt lat="48.56074" lon="7.50002">
        <ele>172</ele>
        <time>2019-08-08T16:53:43Z</time>
      </trkpt>
      <trkpt lat="48.56069" lon="7.50006">
        <ele>172</ele>
        <time>2019-08-08T16:53:44Z</time>
      </trkpt>
      <trkpt lat="48.56064" lon="7.50012">
        <ele>172</ele>
        <time>2019-08-08T16:53:45Z</time>
      </trkpt>
      <trkpt lat="48.5606" lon="7.50016">
        <ele>172</ele>
        <time>2019-08-08T16:53:46Z</time>
      </trkpt>
      <trkpt lat="48.56056" lon="7.50021">
        <ele>172.1</ele>
        <time>2019-08-08T16:53:47Z</time>
      </trkpt>
      <trkpt lat="48.56051" lon="7.50024">
        <ele>172.1</ele>
        <time>2019-08-08T16:53:48Z</time>
      </trkpt>
      <trkpt lat="48.56047" lon="7.50028">
        <ele>172.1</ele>
        <time>2019-08-08T16:53:49Z</time>
      </trkpt>
      <trkpt lat="48.56043" lon="7.50033">
        <ele>172.1</ele>
        <time>2019-08-08T16:53:50Z</time>
      </trkpt>
      <trkpt lat="48.56038" lon="7.50039">
        <ele>172.1</ele>
        <time>2019-08-08T16:53:51Z</time>
      </trkpt>
      <trkpt lat="48.56034" lon="7.50043">
        <ele>172.1</ele>
        <time>2019-08-08T16:53:52Z</time>
      </trkpt>
      <trkpt lat="48.5603" lon="7.50046">
        <ele>172.1</ele>
        <time>2019-08-08T16:53:53Z</time>
      </trkpt>
      <trkpt lat="48.56025" lon="7.50048">
        <ele>172.1</ele>
        <time>2019-08-08T16:53:54Z</time>
      </trkpt>
      <trkpt lat="48.56021" lon="7.50051">
        <ele>172.1</ele>
        <time>2019-08-08T16:53:55Z</time>
      </trkpt>
      <trkpt lat="48.56017" lon="7.50055">
        <ele>172.1</ele>
        <time>2019-08-08T16:53:56Z</time>
      </trkpt>
      <trkpt lat="48.56013" lon="7.50059">
        <ele>172.1</ele>
        <time>2019-08-08T16:53:57Z</time>
      </trkpt>
      <trkpt lat="48.56009" lon="7.50062">
        <ele>172.1</ele>
        <time>2019-08-08T16:53:58Z</time>
      </trkpt>
      <trkpt lat="48.56005" lon="7.50066">
        <ele>172.1</ele>
        <time>2019-08-08T16:53:59Z</time>
      </trkpt>
      <trkpt lat="48.56" lon="7.50069">
        <ele>172.1</ele>
        <time>2019-08-08T16:54:00Z</time>
      </trkpt>
      <trkpt lat="48.55996" lon="7.50072">
        <ele>172.1</ele>
        <time>2019-08-08T16:54:01Z</time>
      </trkpt>
      <trkpt lat="48.55992" lon="7.50076">
        <ele>172.1</ele>
        <time>2019-08-08T16:54:02Z</time>
      </trkpt>
      <trkpt lat="48.55988" lon="7.50079">
        <ele>172.1</ele>
        <time>2019-08-08T16:54:03Z</time>
      </trkpt>
      <trkpt lat="48.55985" lon="7.50083">
        <ele>172.1</ele>
        <time>2019-08-08T16:54:04Z</time>
      </trkpt>
      <trkpt lat="48.5598" lon="7.50086">
        <ele>172.2</ele>
        <time>2019-08-08T16:54:05Z</time>
      </trkpt>
      <trkpt lat="48.55976" lon="7.50089">
        <ele>172.2</ele>
        <time>2019-08-08T16:54:06Z</time>
      </trkpt>
      <trkpt lat="48.55972" lon="7.50094">
        <ele>172.2</ele>
        <time>2019-08-08T16:54:07Z</time>
      </trkpt>
      <trkpt lat="48.55969" lon="7.50098">
        <ele>172.2</ele>
        <time>2019-08-08T16:54:08Z</time>
      </trkpt>
      <trkpt lat="48.55966" lon="7.50103">
        <ele>172.2</ele>
        <time>2019-08-08T16:54:09Z</time>
      </trkpt>
      <trkpt lat="48.55963" lon="7.50107">
        <ele>172.2</ele>
        <time>2019-08-08T16:54:10Z</time>
      </trkpt>
      <trkpt lat="48.55959" lon="7.50109">
        <ele>172.2</ele>
        <time>2019-08-08T16:54:11Z</time>
      </trkpt>
      <trkpt lat="48.55956" lon="7.50111">
        <ele>172.2</ele>
        <time>2019-08-08T16:54:12Z</time>
      </trkpt>
      <trkpt lat="48.55952" lon="7.50115">
        <ele>172.2</ele>
        <time>2019-08-08T16:54:13Z</time>
      </trkpt>
      <trkpt lat="48.55949" lon="7.50119">
        <ele>172.2</ele>
        <time>2019-08-08T16:54:14Z</time>
      </trkpt>
      <trkpt lat="48.55945" lon="7.50122">
        <ele>172.1</ele>
        <time>2019-08-08T16:54:15Z</time>
      </trkpt>
      <trkpt lat="48.55941" lon="7.50125">
        <ele>172.1</ele>
        <time>2019-08-08T16:54:16Z</time>
      </trkpt>
      <trkpt lat="48.55936" lon="7.50128">
        <ele>172</ele>
        <time>2019-08-08T16:54:17Z</time>
      </trkpt>
      <trkpt lat="48.55931" lon="7.5013">
        <ele>172</ele>
        <time>2019-08-08T16:54:18Z</time>
      </trkpt>
      <trkpt lat="48.55925" lon="7.50132">
        <ele>171.9</ele>
        <time>2019-08-08T16:54:19Z</time>
      </trkpt>
      <trkpt lat="48.5592" lon="7.50134">
        <ele>171.8</ele>
        <time>2019-08-08T16:54:20Z</time>
      </trkpt>
      <trkpt lat="48.55915" lon="7.50136">
        <ele>171.8</ele>
        <time>2019-08-08T16:54:21Z</time>
      </trkpt>
      <trkpt lat="48.55909" lon="7.50138">
        <ele>171.7</ele>
        <time>2019-08-08T16:54:22Z</time>
      </trkpt>
      <trkpt lat="48.55904" lon="7.50139">
        <ele>171.6</ele>
        <time>2019-08-08T16:54:23Z</time>
      </trkpt>
      <trkpt lat="48.55899" lon="7.50138">
        <ele>171.6</ele>
        <time>2019-08-08T16:54:24Z</time>
      </trkpt>
      <trkpt lat="48.55894" lon="7.50138">
        <ele>171.5</ele>
        <time>2019-08-08T16:54:25Z</time>
      </trkpt>
      <trkpt lat="48.55888" lon="7.5014">
        <ele>171.5</ele>
        <time>2019-08-08T16:54:26Z</time>
      </trkpt>
      <trkpt lat="48.55884" lon="7.50142">
        <ele>171.5</ele>
        <time>2019-08-08T16:54:27Z</time>
      </trkpt>
      <trkpt lat="48.55879" lon="7.50143">
        <ele>171.5</ele>
        <time>2019-08-08T16:54:28Z</time>
      </trkpt>
      <trkpt lat="48.55875" lon="7.50145">
        <ele>171.5</ele>
        <time>2019-08-08T16:54:29Z</time>
      </trkpt>
      <trkpt lat="48.55872" lon="7.50147">
        <ele>171.5</ele>
        <time>2019-08-08T16:54:30Z</time>
      </trkpt>
      <trkpt lat="48.55867" lon="7.50147">
        <ele>171.5</ele>
        <time>2019-08-08T16:54:31Z</time>
      </trkpt>
      <trkpt lat="48.55863" lon="7.50148">
        <ele>171.4</ele>
        <time>2019-08-08T16:54:32Z</time>
      </trkpt>
      <trkpt lat="48.55859" lon="7.50149">
        <ele>171.4</ele>
        <time>2019-08-08T16:54:33Z</time>
      </trkpt>
      <trkpt lat="48.55854" lon="7.5015">
        <ele>171.4</ele>
        <time>2019-08-08T16:54:34Z</time>
      </trkpt>
      <trkpt lat="48.55849" lon="7.5015">
        <ele>171.4</ele>
        <time>2019-08-08T16:54:35Z</time>
      </trkpt>
      <trkpt lat="48.55842" lon="7.50152">
        <ele>171.4</ele>
        <time>2019-08-08T16:54:36Z</time>
      </trkpt>
      <trkpt lat="48.55835" lon="7.50154">
        <ele>171.4</ele>
        <time>2019-08-08T16:54:37Z</time>
      </trkpt>
      <trkpt lat="48.5583" lon="7.50155">
        <ele>171.4</ele>
        <time>2019-08-08T16:54:38Z</time>
      </trkpt>
      <trkpt lat="48.55825" lon="7.50157">
        <ele>171.4</ele>
        <time>2019-08-08T16:54:39Z</time>
      </trkpt>
      <trkpt lat="48.55821" lon="7.50159">
        <ele>171.4</ele>
        <time>2019-08-08T16:54:40Z</time>
      </trkpt>
      <trkpt lat="48.55816" lon="7.5016">
        <ele>171.4</ele>
        <time>2019-08-08T16:54:41Z</time>
      </trkpt>
      <trkpt lat="48.55812" lon="7.50161">
        <ele>171.4</ele>
        <time>2019-08-08T16:54:42Z</time>
      </trkpt>
      <trkpt lat="48.55809" lon="7.50165">
        <ele>171.4</ele>
        <time>2019-08-08T16:54:43Z</time>
      </trkpt>
      <trkpt lat="48.55803" lon="7.50166">
        <ele>171.4</ele>
        <time>2019-08-08T16:54:44Z</time>
      </trkpt>
      <trkpt lat="48.55798" lon="7.50167">
        <ele>171.4</ele>
        <time>2019-08-08T16:54:45Z</time>
      </trkpt>
      <trkpt lat="48.55793" lon="7.50166">
        <ele>171.3</ele>
        <time>2019-08-08T16:54:46Z</time>
      </trkpt>
      <trkpt lat="48.55788" lon="7.50163">
        <ele>171.3</ele>
        <time>2019-08-08T16:54:47Z</time>
      </trkpt>
      <trkpt lat="48.55783" lon="7.50162">
        <ele>171.3</ele>
        <time>2019-08-08T16:54:48Z</time>
      </trkpt>
      <trkpt lat="48.55779" lon="7.50161">
        <ele>171.3</ele>
        <time>2019-08-08T16:54:49Z</time>
      </trkpt>
      <trkpt lat="48.55776" lon="7.5016">
        <ele>171.3</ele>
        <time>2019-08-08T16:54:50Z</time>
      </trkpt>
      <trkpt lat="48.55771" lon="7.50158">
        <ele>171.3</ele>
        <time>2019-08-08T16:54:51Z</time>
      </trkpt>
      <trkpt lat="48.55765" lon="7.50155">
        <ele>171.3</ele>
        <time>2019-08-08T16:54:52Z</time>
      </trkpt>
      <trkpt lat="48.55759" lon="7.50154">
        <ele>171.2</ele>
        <time>2019-08-08T16:54:53Z</time>
      </trkpt>
      <trkpt lat="48.55753" lon="7.50153">
        <ele>171.1</ele>
        <time>2019-08-08T16:54:54Z</time>
      </trkpt>
      <trkpt lat="48.55748" lon="7.50153">
        <ele>171.1</ele>
        <time>2019-08-08T16:54:55Z</time>
      </trkpt>
      <trkpt lat="48.55743" lon="7.50154">
        <ele>171</ele>
        <time>2019-08-08T16:54:56Z</time>
      </trkpt>
      <trkpt lat="48.55737" lon="7.50155">
        <ele>170.8</ele>
        <time>2019-08-08T16:54:57Z</time>
      </trkpt>
      <trkpt lat="48.5573" lon="7.50157">
        <ele>170.7</ele>
        <time>2019-08-08T16:54:58Z</time>
      </trkpt>
      <trkpt lat="48.55724" lon="7.50159">
        <ele>170.5</ele>
        <time>2019-08-08T16:54:59Z</time>
      </trkpt>
      <trkpt lat="48.55719" lon="7.50161">
        <ele>170.3</ele>
        <time>2019-08-08T16:55:00Z</time>
      </trkpt>
      <trkpt lat="48.55714" lon="7.50162">
        <ele>170.2</ele>
        <time>2019-08-08T16:55:01Z</time>
      </trkpt>
      <trkpt lat="48.55708" lon="7.50162">
        <ele>170.1</ele>
        <time>2019-08-08T16:55:02Z</time>
      </trkpt>
      <trkpt lat="48.55703" lon="7.50163">
        <ele>170</ele>
        <time>2019-08-08T16:55:03Z</time>
      </trkpt>
      <trkpt lat="48.55697" lon="7.50162">
        <ele>170</ele>
        <time>2019-08-08T16:55:04Z</time>
      </trkpt>
      <trkpt lat="48.55693" lon="7.50161">
        <ele>169.9</ele>
        <time>2019-08-08T16:55:05Z</time>
      </trkpt>
      <trkpt lat="48.55688" lon="7.5016">
        <ele>169.8</ele>
        <time>2019-08-08T16:55:06Z</time>
      </trkpt>
      <trkpt lat="48.55683" lon="7.50161">
        <ele>169.8</ele>
        <time>2019-08-08T16:55:07Z</time>
      </trkpt>
      <trkpt lat="48.55681" lon="7.50164">
        <ele>169.8</ele>
        <time>2019-08-08T16:55:08Z</time>
      </trkpt>
      <trkpt lat="48.55677" lon="7.50167">
        <ele>169.7</ele>
        <time>2019-08-08T16:55:09Z</time>
      </trkpt>
      <trkpt lat="48.55671" lon="7.50169">
        <ele>169.6</ele>
        <time>2019-08-08T16:55:10Z</time>
      </trkpt>
      <trkpt lat="48.55664" lon="7.50171">
        <ele>169.6</ele>
        <time>2019-08-08T16:55:11Z</time>
      </trkpt>
      <trkpt lat="48.55658" lon="7.50171">
        <ele>169.5</ele>
        <time>2019-08-08T16:55:12Z</time>
      </trkpt>
      <trkpt lat="48.55652" lon="7.50172">
        <ele>169.5</ele>
        <time>2019-08-08T16:55:13Z</time>
      </trkpt>
      <trkpt lat="48.55646" lon="7.50174">
        <ele>169.5</ele>
        <time>2019-08-08T16:55:14Z</time>
      </trkpt>
      <trkpt lat="48.5564" lon="7.50174">
        <ele>169.4</ele>
        <time>2019-08-08T16:55:15Z</time>
      </trkpt>
      <trkpt lat="48.55634" lon="7.50174">
        <ele>169.4</ele>
        <time>2019-08-08T16:55:16Z</time>
      </trkpt>
      <trkpt lat="48.55628" lon="7.50175">
        <ele>169.4</ele>
        <time>2019-08-08T16:55:17Z</time>
      </trkpt>
      <trkpt lat="48.55622" lon="7.50175">
        <ele>169.4</ele>
        <time>2019-08-08T16:55:18Z</time>
      </trkpt>
      <trkpt lat="48.55617" lon="7.50175">
        <ele>169.4</ele>
        <time>2019-08-08T16:55:19Z</time>
      </trkpt>
      <trkpt lat="48.55613" lon="7.50176">
        <ele>169.4</ele>
        <time>2019-08-08T16:55:20Z</time>
      </trkpt>
      <trkpt lat="48.55608" lon="7.50176">
        <ele>169.4</ele>
        <time>2019-08-08T16:55:21Z</time>
      </trkpt>
      <trkpt lat="48.55603" lon="7.50177">
        <ele>169.4</ele>
        <time>2019-08-08T16:55:22Z</time>
      </trkpt>
      <trkpt lat="48.55599" lon="7.50176">
        <ele>169.4</ele>
        <time>2019-08-08T16:55:23Z</time>
      </trkpt>
      <trkpt lat="48.55592" lon="7.50174">
        <ele>169.4</ele>
        <time>2019-08-08T16:55:24Z</time>
      </trkpt>
      <trkpt lat="48.55586" lon="7.50174">
        <ele>169.4</ele>
        <time>2019-08-08T16:55:25Z</time>
      </trkpt>
      <trkpt lat="48.5558" lon="7.50174">
        <ele>169.4</ele>
        <time>2019-08-08T16:55:26Z</time>
      </trkpt>
      <trkpt lat="48.55576" lon="7.50174">
        <ele>169.4</ele>
        <time>2019-08-08T16:55:27Z</time>
      </trkpt>
      <trkpt lat="48.55571" lon="7.50176">
        <ele>169.4</ele>
        <time>2019-08-08T16:55:28Z</time>
      </trkpt>
      <trkpt lat="48.55566" lon="7.50177">
        <ele>169.4</ele>
        <time>2019-08-08T16:55:29Z</time>
      </trkpt>
      <trkpt lat="48.5556" lon="7.50176">
        <ele>169.4</ele>
        <time>2019-08-08T16:55:30Z</time>
      </trkpt>
      <trkpt lat="48.55556" lon="7.50177">
        <ele>169.4</ele>
        <time>2019-08-08T16:55:31Z</time>
      </trkpt>
      <trkpt lat="48.55552" lon="7.50178">
        <ele>169.4</ele>
        <time>2019-08-08T16:55:32Z</time>
      </trkpt>
      <trkpt lat="48.55548" lon="7.50178">
        <ele>169.4</ele>
        <time>2019-08-08T16:55:33Z</time>
      </trkpt>
      <trkpt lat="48.55543" lon="7.50179">
        <ele>169.4</ele>
        <time>2019-08-08T16:55:34Z</time>
      </trkpt>
      <trkpt lat="48.55538" lon="7.50179">
        <ele>169.5</ele>
        <time>2019-08-08T16:55:35Z</time>
      </trkpt>
      <trkpt lat="48.55533" lon="7.50179">
        <ele>169.5</ele>
        <time>2019-08-08T16:55:36Z</time>
      </trkpt>
      <trkpt lat="48.55528" lon="7.5018">
        <ele>169.5</ele>
        <time>2019-08-08T16:55:37Z</time>
      </trkpt>
      <trkpt lat="48.55524" lon="7.50181">
        <ele>169.5</ele>
        <time>2019-08-08T16:55:38Z</time>
      </trkpt>
      <trkpt lat="48.55519" lon="7.50181">
        <ele>169.5</ele>
        <time>2019-08-08T16:55:39Z</time>
      </trkpt>
      <trkpt lat="48.55515" lon="7.50181">
        <ele>169.5</ele>
        <time>2019-08-08T16:55:40Z</time>
      </trkpt>
      <trkpt lat="48.5551" lon="7.5018">
        <ele>169.6</ele>
        <time>2019-08-08T16:55:41Z</time>
      </trkpt>
      <trkpt lat="48.55507" lon="7.5018">
        <ele>169.6</ele>
        <time>2019-08-08T16:55:42Z</time>
      </trkpt>
      <trkpt lat="48.55502" lon="7.50181">
        <ele>169.6</ele>
        <time>2019-08-08T16:55:43Z</time>
      </trkpt>
      <trkpt lat="48.55498" lon="7.50181">
        <ele>169.6</ele>
        <time>2019-08-08T16:55:44Z</time>
      </trkpt>
      <trkpt lat="48.55493" lon="7.50181">
        <ele>169.6</ele>
        <time>2019-08-08T16:55:45Z</time>
      </trkpt>
      <trkpt lat="48.55487" lon="7.50181">
        <ele>169.7</ele>
        <time>2019-08-08T16:55:46Z</time>
      </trkpt>
      <trkpt lat="48.55482" lon="7.50181">
        <ele>169.7</ele>
        <time>2019-08-08T16:55:47Z</time>
      </trkpt>
      <trkpt lat="48.55478" lon="7.50181">
        <ele>169.7</ele>
        <time>2019-08-08T16:55:48Z</time>
      </trkpt>
      <trkpt lat="48.55474" lon="7.5018">
        <ele>169.7</ele>
        <time>2019-08-08T16:55:49Z</time>
      </trkpt>
      <trkpt lat="48.55469" lon="7.5018">
        <ele>169.7</ele>
        <time>2019-08-08T16:55:50Z</time>
      </trkpt>
      <trkpt lat="48.55465" lon="7.50179">
        <ele>169.7</ele>
        <time>2019-08-08T16:55:51Z</time>
      </trkpt>
      <trkpt lat="48.5546" lon="7.50178">
        <ele>169.8</ele>
        <time>2019-08-08T16:55:52Z</time>
      </trkpt>
      <trkpt lat="48.55456" lon="7.50178">
        <ele>169.8</ele>
        <time>2019-08-08T16:55:53Z</time>
      </trkpt>
      <trkpt lat="48.55451" lon="7.50179">
        <ele>169.8</ele>
        <time>2019-08-08T16:55:54Z</time>
      </trkpt>
      <trkpt lat="48.55446" lon="7.50179">
        <ele>169.8</ele>
        <time>2019-08-08T16:55:55Z</time>
      </trkpt>
      <trkpt lat="48.55442" lon="7.50177">
        <ele>169.8</ele>
        <time>2019-08-08T16:55:56Z</time>
      </trkpt>
      <trkpt lat="48.55438" lon="7.50176">
        <ele>169.8</ele>
        <time>2019-08-08T16:55:57Z</time>
      </trkpt>
      <trkpt lat="48.55434" lon="7.50176">
        <ele>169.8</ele>
        <time>2019-08-08T16:55:58Z</time>
      </trkpt>
      <trkpt lat="48.5543" lon="7.50177">
        <ele>169.8</ele>
        <time>2019-08-08T16:55:59Z</time>
      </trkpt>
      <trkpt lat="48.55425" lon="7.50178">
        <ele>169.8</ele>
        <time>2019-08-08T16:56:00Z</time>
      </trkpt>
      <trkpt lat="48.55421" lon="7.50178">
        <ele>169.8</ele>
        <time>2019-08-08T16:56:01Z</time>
      </trkpt>
      <trkpt lat="48.55417" lon="7.50178">
        <ele>169.8</ele>
        <time>2019-08-08T16:56:02Z</time>
      </trkpt>
      <trkpt lat="48.55413" lon="7.50178">
        <ele>169.9</ele>
        <time>2019-08-08T16:56:03Z</time>
      </trkpt>
      <trkpt lat="48.55408" lon="7.50178">
        <ele>169.9</ele>
        <time>2019-08-08T16:56:04Z</time>
      </trkpt>
      <trkpt lat="48.55402" lon="7.50178">
        <ele>169.9</ele>
        <time>2019-08-08T16:56:05Z</time>
      </trkpt>
      <trkpt lat="48.55397" lon="7.50177">
        <ele>169.9</ele>
        <time>2019-08-08T16:56:06Z</time>
      </trkpt>
      <trkpt lat="48.55391" lon="7.50176">
        <ele>169.9</ele>
        <time>2019-08-08T16:56:07Z</time>
      </trkpt>
      <trkpt lat="48.55387" lon="7.50177">
        <ele>169.9</ele>
        <time>2019-08-08T16:56:08Z</time>
      </trkpt>
      <trkpt lat="48.55382" lon="7.50177">
        <ele>169.9</ele>
        <time>2019-08-08T16:56:09Z</time>
      </trkpt>
      <trkpt lat="48.55377" lon="7.50177">
        <ele>169.9</ele>
        <time>2019-08-08T16:56:10Z</time>
      </trkpt>
      <trkpt lat="48.55372" lon="7.50177">
        <ele>169.9</ele>
        <time>2019-08-08T16:56:11Z</time>
      </trkpt>
      <trkpt lat="48.55367" lon="7.50178">
        <ele>170</ele>
        <time>2019-08-08T16:56:12Z</time>
      </trkpt>
      <trkpt lat="48.55362" lon="7.50177">
        <ele>170</ele>
        <time>2019-08-08T16:56:13Z</time>
      </trkpt>
      <trkpt lat="48.55358" lon="7.50176">
        <ele>170</ele>
        <time>2019-08-08T16:56:14Z</time>
      </trkpt>
      <trkpt lat="48.55353" lon="7.50175">
        <ele>170</ele>
        <time>2019-08-08T16:56:15Z</time>
      </trkpt>
      <trkpt lat="48.55349" lon="7.50175">
        <ele>170</ele>
        <time>2019-08-08T16:56:16Z</time>
      </trkpt>
      <trkpt lat="48.55345" lon="7.50175">
        <ele>170</ele>
        <time>2019-08-08T16:56:17Z</time>
      </trkpt>
      <trkpt lat="48.5534" lon="7.50175">
        <ele>170.1</ele>
        <time>2019-08-08T16:56:18Z</time>
      </trkpt>
      <trkpt lat="48.55336" lon="7.50174">
        <ele>170.1</ele>
        <time>2019-08-08T16:56:19Z</time>
      </trkpt>
      <trkpt lat="48.55331" lon="7.50174">
        <ele>170.1</ele>
        <time>2019-08-08T16:56:20Z</time>
      </trkpt>
      <trkpt lat="48.55327" lon="7.50174">
        <ele>170.1</ele>
        <time>2019-08-08T16:56:21Z</time>
      </trkpt>
      <trkpt lat="48.55321" lon="7.50174">
        <ele>170.2</ele>
        <time>2019-08-08T16:56:22Z</time>
      </trkpt>
      <trkpt lat="48.55318" lon="7.50174">
        <ele>170.2</ele>
        <time>2019-08-08T16:56:23Z</time>
      </trkpt>
      <trkpt lat="48.55314" lon="7.50173">
        <ele>170.2</ele>
        <time>2019-08-08T16:56:24Z</time>
      </trkpt>
      <trkpt lat="48.55309" lon="7.50172">
        <ele>170.2</ele>
        <time>2019-08-08T16:56:25Z</time>
      </trkpt>
      <trkpt lat="48.55304" lon="7.50171">
        <ele>170.3</ele>
        <time>2019-08-08T16:56:26Z</time>
      </trkpt>
      <trkpt lat="48.553" lon="7.50169">
        <ele>170.3</ele>
        <time>2019-08-08T16:56:27Z</time>
      </trkpt>
      <trkpt lat="48.55296" lon="7.50168">
        <ele>170.3</ele>
        <time>2019-08-08T16:56:28Z</time>
      </trkpt>
      <trkpt lat="48.55291" lon="7.50167">
        <ele>170.4</ele>
        <time>2019-08-08T16:56:29Z</time>
      </trkpt>
      <trkpt lat="48.55287" lon="7.50165">
        <ele>170.4</ele>
        <time>2019-08-08T16:56:30Z</time>
      </trkpt>
      <trkpt lat="48.55283" lon="7.50163">
        <ele>170.5</ele>
        <time>2019-08-08T16:56:31Z</time>
      </trkpt>
      <trkpt lat="48.55279" lon="7.50163">
        <ele>170.5</ele>
        <time>2019-08-08T16:56:32Z</time>
      </trkpt>
      <trkpt lat="48.55275" lon="7.5016">
        <ele>170.5</ele>
        <time>2019-08-08T16:56:33Z</time>
      </trkpt>
      <trkpt lat="48.55268" lon="7.50157">
        <ele>170.6</ele>
        <time>2019-08-08T16:56:34Z</time>
      </trkpt>
      <trkpt lat="48.55262" lon="7.50154">
        <ele>170.7</ele>
        <time>2019-08-08T16:56:35Z</time>
      </trkpt>
      <trkpt lat="48.55256" lon="7.5015">
        <ele>170.7</ele>
        <time>2019-08-08T16:56:36Z</time>
      </trkpt>
      <trkpt lat="48.55252" lon="7.50149">
        <ele>170.8</ele>
        <time>2019-08-08T16:56:37Z</time>
      </trkpt>
      <trkpt lat="48.55247" lon="7.50146">
        <ele>170.8</ele>
        <time>2019-08-08T16:56:38Z</time>
      </trkpt>
      <trkpt lat="48.55241" lon="7.50145">
        <ele>170.9</ele>
        <time>2019-08-08T16:56:39Z</time>
      </trkpt>
      <trkpt lat="48.55237" lon="7.50142">
        <ele>170.9</ele>
        <time>2019-08-08T16:56:40Z</time>
      </trkpt>
      <trkpt lat="48.55232" lon="7.50141">
        <ele>170.9</ele>
        <time>2019-08-08T16:56:41Z</time>
      </trkpt>
      <trkpt lat="48.55227" lon="7.5014">
        <ele>171</ele>
        <time>2019-08-08T16:56:42Z</time>
      </trkpt>
      <trkpt lat="48.55222" lon="7.50137">
        <ele>171.1</ele>
        <time>2019-08-08T16:56:43Z</time>
      </trkpt>
      <trkpt lat="48.55217" lon="7.50134">
        <ele>171.1</ele>
        <time>2019-08-08T16:56:44Z</time>
      </trkpt>
      <trkpt lat="48.55212" lon="7.50131">
        <ele>171.2</ele>
        <time>2019-08-08T16:56:45Z</time>
      </trkpt>
      <trkpt lat="48.55208" lon="7.50129">
        <ele>171.2</ele>
        <time>2019-08-08T16:56:46Z</time>
      </trkpt>
      <trkpt lat="48.55203" lon="7.50126">
        <ele>171.3</ele>
        <time>2019-08-08T16:56:47Z</time>
      </trkpt>
      <trkpt lat="48.55198" lon="7.50124">
        <ele>171.3</ele>
        <time>2019-08-08T16:56:48Z</time>
      </trkpt>
      <trkpt lat="48.55193" lon="7.50123">
        <ele>171.4</ele>
        <time>2019-08-08T16:56:49Z</time>
      </trkpt>
      <trkpt lat="48.55188" lon="7.50121">
        <ele>171.4</ele>
        <time>2019-08-08T16:56:50Z</time>
      </trkpt>
      <trkpt lat="48.55183" lon="7.50118">
        <ele>171.5</ele>
        <time>2019-08-08T16:56:51Z</time>
      </trkpt>
      <trkpt lat="48.55179" lon="7.50115">
        <ele>171.5</ele>
        <time>2019-08-08T16:56:52Z</time>
      </trkpt>
      <trkpt lat="48.55174" lon="7.50113">
        <ele>171.6</ele>
        <time>2019-08-08T16:56:53Z</time>
      </trkpt>
      <trkpt lat="48.5517" lon="7.50111">
        <ele>171.6</ele>
        <time>2019-08-08T16:56:54Z</time>
      </trkpt>
      <trkpt lat="48.55165" lon="7.50109">
        <ele>171.7</ele>
        <time>2019-08-08T16:56:55Z</time>
      </trkpt>
      <trkpt lat="48.55161" lon="7.50107">
        <ele>171.7</ele>
        <time>2019-08-08T16:56:56Z</time>
      </trkpt>
      <trkpt lat="48.55156" lon="7.50106">
        <ele>171.8</ele>
        <time>2019-08-08T16:56:57Z</time>
      </trkpt>
      <trkpt lat="48.55151" lon="7.50104">
        <ele>171.8</ele>
        <time>2019-08-08T16:56:58Z</time>
      </trkpt>
      <trkpt lat="48.55147" lon="7.50105">
        <ele>171.9</ele>
        <time>2019-08-08T16:56:59Z</time>
      </trkpt>
      <trkpt lat="48.55142" lon="7.50105">
        <ele>172</ele>
        <time>2019-08-08T16:57:00Z</time>
      </trkpt>
      <trkpt lat="48.55137" lon="7.50104">
        <ele>172.2</ele>
        <time>2019-08-08T16:57:01Z</time>
      </trkpt>
      <trkpt lat="48.55132" lon="7.50101">
        <ele>172.4</ele>
        <time>2019-08-08T16:57:02Z</time>
      </trkpt>
      <trkpt lat="48.55126" lon="7.50097">
        <ele>172.5</ele>
        <time>2019-08-08T16:57:03Z</time>
      </trkpt>
      <trkpt lat="48.5512" lon="7.50094">
        <ele>172.6</ele>
        <time>2019-08-08T16:57:04Z</time>
      </trkpt>
      <trkpt lat="48.55115" lon="7.50091">
        <ele>172.6</ele>
        <time>2019-08-08T16:57:05Z</time>
      </trkpt>
      <trkpt lat="48.55111" lon="7.5009">
        <ele>172.7</ele>
        <time>2019-08-08T16:57:06Z</time>
      </trkpt>
      <trkpt lat="48.55107" lon="7.50087">
        <ele>172.7</ele>
        <time>2019-08-08T16:57:07Z</time>
      </trkpt>
      <trkpt lat="48.55103" lon="7.50086">
        <ele>172.8</ele>
        <time>2019-08-08T16:57:08Z</time>
      </trkpt>
      <trkpt lat="48.551" lon="7.50084">
        <ele>172.8</ele>
        <time>2019-08-08T16:57:09Z</time>
      </trkpt>
      <trkpt lat="48.55096" lon="7.50081">
        <ele>172.9</ele>
        <time>2019-08-08T16:57:10Z</time>
      </trkpt>
      <trkpt lat="48.55092" lon="7.50079">
        <ele>172.9</ele>
        <time>2019-08-08T16:57:11Z</time>
      </trkpt>
      <trkpt lat="48.55089" lon="7.50077">
        <ele>173</ele>
        <time>2019-08-08T16:57:13Z</time>
      </trkpt>
      <trkpt lat="48.55086" lon="7.50076">
        <ele>173</ele>
        <time>2019-08-08T16:57:14Z</time>
      </trkpt>
      <trkpt lat="48.5508" lon="7.50074">
        <ele>173.1</ele>
        <time>2019-08-08T16:57:15Z</time>
      </trkpt>
      <trkpt lat="48.55076" lon="7.50071">
        <ele>173.2</ele>
        <time>2019-08-08T16:57:16Z</time>
      </trkpt>
      <trkpt lat="48.55072" lon="7.50069">
        <ele>173.2</ele>
        <time>2019-08-08T16:57:17Z</time>
      </trkpt>
      <trkpt lat="48.55069" lon="7.50067">
        <ele>173.3</ele>
        <time>2019-08-08T16:57:18Z</time>
      </trkpt>
      <trkpt lat="48.55064" lon="7.50065">
        <ele>173.3</ele>
        <time>2019-08-08T16:57:19Z</time>
      </trkpt>
      <trkpt lat="48.55061" lon="7.50063">
        <ele>173.3</ele>
        <time>2019-08-08T16:57:20Z</time>
      </trkpt>
      <trkpt lat="48.55057" lon="7.50062">
        <ele>173.3</ele>
        <time>2019-08-08T16:57:21Z</time>
      </trkpt>
      <trkpt lat="48.55054" lon="7.50061">
        <ele>173.3</ele>
        <time>2019-08-08T16:57:22Z</time>
      </trkpt>
      <trkpt lat="48.5505" lon="7.50059">
        <ele>173.3</ele>
        <time>2019-08-08T16:57:23Z</time>
      </trkpt>
      <trkpt lat="48.55047" lon="7.50058">
        <ele>173.3</ele>
        <time>2019-08-08T16:57:24Z</time>
      </trkpt>
      <trkpt lat="48.55042" lon="7.50057">
        <ele>173.3</ele>
        <time>2019-08-08T16:57:26Z</time>
      </trkpt>
      <trkpt lat="48.55038" lon="7.50056">
        <ele>173.3</ele>
        <time>2019-08-08T16:57:27Z</time>
      </trkpt>
      <trkpt lat="48.55034" lon="7.50056">
        <ele>173.3</ele>
        <time>2019-08-08T16:57:28Z</time>
      </trkpt>
      <trkpt lat="48.5503" lon="7.50055">
        <ele>173.3</ele>
        <time>2019-08-08T16:57:29Z</time>
      </trkpt>
      <trkpt lat="48.55024" lon="7.50054">
        <ele>173.3</ele>
        <time>2019-08-08T16:57:30Z</time>
      </trkpt>
      <trkpt lat="48.55017" lon="7.50052">
        <ele>173.3</ele>
        <time>2019-08-08T16:57:31Z</time>
      </trkpt>
      <trkpt lat="48.5501" lon="7.50051">
        <ele>173.3</ele>
        <time>2019-08-08T16:57:32Z</time>
      </trkpt>
      <trkpt lat="48.55005" lon="7.5005">
        <ele>173.3</ele>
        <time>2019-08-08T16:57:33Z</time>
      </trkpt>
      <trkpt lat="48.55001" lon="7.5005">
        <ele>173.3</ele>
        <time>2019-08-08T16:57:34Z</time>
      </trkpt>
      <trkpt lat="48.54995" lon="7.50049">
        <ele>173.3</ele>
        <time>2019-08-08T16:57:35Z</time>
      </trkpt>
      <trkpt lat="48.54989" lon="7.50047">
        <ele>173.3</ele>
        <time>2019-08-08T16:57:36Z</time>
      </trkpt>
      <trkpt lat="48.54985" lon="7.50045">
        <ele>173.3</ele>
        <time>2019-08-08T16:57:37Z</time>
      </trkpt>
      <trkpt lat="48.54981" lon="7.50043">
        <ele>173.3</ele>
        <time>2019-08-08T16:57:38Z</time>
      </trkpt>
      <trkpt lat="48.54975" lon="7.50041">
        <ele>173.3</ele>
        <time>2019-08-08T16:57:39Z</time>
      </trkpt>
      <trkpt lat="48.5497" lon="7.5004">
        <ele>173.3</ele>
        <time>2019-08-08T16:57:40Z</time>
      </trkpt>
      <trkpt lat="48.54966" lon="7.50039">
        <ele>173.3</ele>
        <time>2019-08-08T16:57:41Z</time>
      </trkpt>
      <trkpt lat="48.5496" lon="7.50039">
        <ele>173.3</ele>
        <time>2019-08-08T16:57:42Z</time>
      </trkpt>
      <trkpt lat="48.54956" lon="7.5004">
        <ele>173.3</ele>
        <time>2019-08-08T16:57:43Z</time>
      </trkpt>
      <trkpt lat="48.54951" lon="7.5004">
        <ele>173.3</ele>
        <time>2019-08-08T16:57:44Z</time>
      </trkpt>
      <trkpt lat="48.54947" lon="7.50041">
        <ele>173.3</ele>
        <time>2019-08-08T16:57:45Z</time>
      </trkpt>
      <trkpt lat="48.54942" lon="7.50041">
        <ele>173.3</ele>
        <time>2019-08-08T16:57:46Z</time>
      </trkpt>
      <trkpt lat="48.54938" lon="7.50041">
        <ele>173.3</ele>
        <time>2019-08-08T16:57:47Z</time>
      </trkpt>
      <trkpt lat="48.54934" lon="7.50042">
        <ele>173.3</ele>
        <time>2019-08-08T16:57:48Z</time>
      </trkpt>
      <trkpt lat="48.54929" lon="7.50043">
        <ele>173.3</ele>
        <time>2019-08-08T16:57:49Z</time>
      </trkpt>
      <trkpt lat="48.54925" lon="7.50043">
        <ele>173.3</ele>
        <time>2019-08-08T16:57:50Z</time>
      </trkpt>
      <trkpt lat="48.54921" lon="7.50045">
        <ele>173.3</ele>
        <time>2019-08-08T16:57:51Z</time>
      </trkpt>
      <trkpt lat="48.54917" lon="7.50047">
        <ele>173.3</ele>
        <time>2019-08-08T16:57:52Z</time>
      </trkpt>
      <trkpt lat="48.54913" lon="7.50047">
        <ele>173.3</ele>
        <time>2019-08-08T16:57:53Z</time>
      </trkpt>
      <trkpt lat="48.5491" lon="7.50047">
        <ele>173.3</ele>
        <time>2019-08-08T16:57:54Z</time>
      </trkpt>
      <trkpt lat="48.54906" lon="7.50046">
        <ele>173.3</ele>
        <time>2019-08-08T16:57:55Z</time>
      </trkpt>
      <trkpt lat="48.54902" lon="7.50047">
        <ele>173.3</ele>
        <time>2019-08-08T16:57:56Z</time>
      </trkpt>
      <trkpt lat="48.54899" lon="7.50046">
        <ele>173.3</ele>
        <time>2019-08-08T16:57:57Z</time>
      </trkpt>
      <trkpt lat="48.54894" lon="7.50048">
        <ele>173.3</ele>
        <time>2019-08-08T16:57:58Z</time>
      </trkpt>
      <trkpt lat="48.5489" lon="7.50048">
        <ele>173.3</ele>
        <time>2019-08-08T16:57:59Z</time>
      </trkpt>
      <trkpt lat="48.54886" lon="7.5005">
        <ele>173.3</ele>
        <time>2019-08-08T16:58:00Z</time>
      </trkpt>
      <trkpt lat="48.54883" lon="7.50053">
        <ele>173.3</ele>
        <time>2019-08-08T16:58:01Z</time>
      </trkpt>
      <trkpt lat="48.54879" lon="7.50055">
        <ele>173.3</ele>
        <time>2019-08-08T16:58:02Z</time>
      </trkpt>
      <trkpt lat="48.54875" lon="7.50056">
        <ele>173.3</ele>
        <time>2019-08-08T16:58:03Z</time>
      </trkpt>
      <trkpt lat="48.54871" lon="7.50058">
        <ele>173.3</ele>
        <time>2019-08-08T16:58:04Z</time>
      </trkpt>
      <trkpt lat="48.54868" lon="7.50059">
        <ele>173.3</ele>
        <time>2019-08-08T16:58:05Z</time>
      </trkpt>
      <trkpt lat="48.54865" lon="7.5006">
        <ele>173.1</ele>
        <time>2019-08-08T16:58:06Z</time>
      </trkpt>
      <trkpt lat="48.54862" lon="7.50063">
        <ele>172.9</ele>
        <time>2019-08-08T16:58:07Z</time>
      </trkpt>
      <trkpt lat="48.54857" lon="7.50063">
        <ele>172.7</ele>
        <time>2019-08-08T16:58:08Z</time>
      </trkpt>
      <trkpt lat="48.54852" lon="7.50064">
        <ele>172.4</ele>
        <time>2019-08-08T16:58:09Z</time>
      </trkpt>
      <trkpt lat="48.54847" lon="7.50066">
        <ele>172.2</ele>
        <time>2019-08-08T16:58:10Z</time>
      </trkpt>
      <trkpt lat="48.54842" lon="7.50067">
        <ele>171.9</ele>
        <time>2019-08-08T16:58:11Z</time>
      </trkpt>
      <trkpt lat="48.54837" lon="7.50068">
        <ele>171.7</ele>
        <time>2019-08-08T16:58:12Z</time>
      </trkpt>
      <trkpt lat="48.54831" lon="7.50069">
        <ele>171.6</ele>
        <time>2019-08-08T16:58:13Z</time>
      </trkpt>
      <trkpt lat="48.54827" lon="7.50071">
        <ele>171.4</ele>
        <time>2019-08-08T16:58:14Z</time>
      </trkpt>
      <trkpt lat="48.54823" lon="7.50073">
        <ele>171.3</ele>
        <time>2019-08-08T16:58:15Z</time>
      </trkpt>
      <trkpt lat="48.54819" lon="7.50076">
        <ele>171.3</ele>
        <time>2019-08-08T16:58:16Z</time>
      </trkpt>
      <trkpt lat="48.54815" lon="7.50079">
        <ele>171.2</ele>
        <time>2019-08-08T16:58:17Z</time>
      </trkpt>
      <trkpt lat="48.5481" lon="7.5008">
        <ele>171.1</ele>
        <time>2019-08-08T16:58:18Z</time>
      </trkpt>
      <trkpt lat="48.54807" lon="7.50083">
        <ele>171</ele>
        <time>2019-08-08T16:58:19Z</time>
      </trkpt>
      <trkpt lat="48.54803" lon="7.50086">
        <ele>170.9</ele>
        <time>2019-08-08T16:58:20Z</time>
      </trkpt>
      <trkpt lat="48.54799" lon="7.50089">
        <ele>170.8</ele>
        <time>2019-08-08T16:58:21Z</time>
      </trkpt>
      <trkpt lat="48.54794" lon="7.50091">
        <ele>170.7</ele>
        <time>2019-08-08T16:58:22Z</time>
      </trkpt>
      <trkpt lat="48.5479" lon="7.50093">
        <ele>170.6</ele>
        <time>2019-08-08T16:58:23Z</time>
      </trkpt>
      <trkpt lat="48.54786" lon="7.50095">
        <ele>170.5</ele>
        <time>2019-08-08T16:58:24Z</time>
      </trkpt>
      <trkpt lat="48.54782" lon="7.50097">
        <ele>170.4</ele>
        <time>2019-08-08T16:58:25Z</time>
      </trkpt>
      <trkpt lat="48.54778" lon="7.50098">
        <ele>170.3</ele>
        <time>2019-08-08T16:58:26Z</time>
      </trkpt>
      <trkpt lat="48.54775" lon="7.50101">
        <ele>170.3</ele>
        <time>2019-08-08T16:58:27Z</time>
      </trkpt>
      <trkpt lat="48.54771" lon="7.50104">
        <ele>170.3</ele>
        <time>2019-08-08T16:58:28Z</time>
      </trkpt>
      <trkpt lat="48.54768" lon="7.50107">
        <ele>170.3</ele>
        <time>2019-08-08T16:58:29Z</time>
      </trkpt>
      <trkpt lat="48.54764" lon="7.50111">
        <ele>170.3</ele>
        <time>2019-08-08T16:58:30Z</time>
      </trkpt>
      <trkpt lat="48.5476" lon="7.50113">
        <ele>170.3</ele>
        <time>2019-08-08T16:58:31Z</time>
      </trkpt>
      <trkpt lat="48.54757" lon="7.50115">
        <ele>170.3</ele>
        <time>2019-08-08T16:58:32Z</time>
      </trkpt>
      <trkpt lat="48.54753" lon="7.50117">
        <ele>170.3</ele>
        <time>2019-08-08T16:58:33Z</time>
      </trkpt>
      <trkpt lat="48.54748" lon="7.50118">
        <ele>170.2</ele>
        <time>2019-08-08T16:58:34Z</time>
      </trkpt>
      <trkpt lat="48.54744" lon="7.5012">
        <ele>170.2</ele>
        <time>2019-08-08T16:58:35Z</time>
      </trkpt>
      <trkpt lat="48.54739" lon="7.50122">
        <ele>170.2</ele>
        <time>2019-08-08T16:58:36Z</time>
      </trkpt>
      <trkpt lat="48.54734" lon="7.50124">
        <ele>170.1</ele>
        <time>2019-08-08T16:58:37Z</time>
      </trkpt>
      <trkpt lat="48.54729" lon="7.50125">
        <ele>170.1</ele>
        <time>2019-08-08T16:58:38Z</time>
      </trkpt>
      <trkpt lat="48.54724" lon="7.50128">
        <ele>170</ele>
        <time>2019-08-08T16:58:39Z</time>
      </trkpt>
      <trkpt lat="48.5472" lon="7.50131">
        <ele>170</ele>
        <time>2019-08-08T16:58:40Z</time>
      </trkpt>
      <trkpt lat="48.54717" lon="7.50136">
        <ele>170</ele>
        <time>2019-08-08T16:58:41Z</time>
      </trkpt>
      <trkpt lat="48.54713" lon="7.5014">
        <ele>170.1</ele>
        <time>2019-08-08T16:58:42Z</time>
      </trkpt>
      <trkpt lat="48.54709" lon="7.50142">
        <ele>170.1</ele>
        <time>2019-08-08T16:58:43Z</time>
      </trkpt>
      <trkpt lat="48.54705" lon="7.50145">
        <ele>170.2</ele>
        <time>2019-08-08T16:58:44Z</time>
      </trkpt>
      <trkpt lat="48.54701" lon="7.50148">
        <ele>170.2</ele>
        <time>2019-08-08T16:58:45Z</time>
      </trkpt>
      <trkpt lat="48.54698" lon="7.5015">
        <ele>170.3</ele>
        <time>2019-08-08T16:58:46Z</time>
      </trkpt>
      <trkpt lat="48.54694" lon="7.50151">
        <ele>170.3</ele>
        <time>2019-08-08T16:58:47Z</time>
      </trkpt>
      <trkpt lat="48.54691" lon="7.50153">
        <ele>170.3</ele>
        <time>2019-08-08T16:58:48Z</time>
      </trkpt>
      <trkpt lat="48.54686" lon="7.50155">
        <ele>170.4</ele>
        <time>2019-08-08T16:58:49Z</time>
      </trkpt>
      <trkpt lat="48.54683" lon="7.50157">
        <ele>170.5</ele>
        <time>2019-08-08T16:58:50Z</time>
      </trkpt>
      <trkpt lat="48.54678" lon="7.5016">
        <ele>170.6</ele>
        <time>2019-08-08T16:58:51Z</time>
      </trkpt>
      <trkpt lat="48.54673" lon="7.5016">
        <ele>170.7</ele>
        <time>2019-08-08T16:58:52Z</time>
      </trkpt>
      <trkpt lat="48.54667" lon="7.50162">
        <ele>170.9</ele>
        <time>2019-08-08T16:58:53Z</time>
      </trkpt>
      <trkpt lat="48.54663" lon="7.50165">
        <ele>171</ele>
        <time>2019-08-08T16:58:54Z</time>
      </trkpt>
      <trkpt lat="48.5466" lon="7.50168">
        <ele>171.1</ele>
        <time>2019-08-08T16:58:55Z</time>
      </trkpt>
      <trkpt lat="48.54656" lon="7.5017">
        <ele>171.1</ele>
        <time>2019-08-08T16:58:56Z</time>
      </trkpt>
      <trkpt lat="48.54652" lon="7.50173">
        <ele>171.2</ele>
        <time>2019-08-08T16:58:57Z</time>
      </trkpt>
      <trkpt lat="48.54649" lon="7.50175">
        <ele>171.2</ele>
        <time>2019-08-08T16:58:58Z</time>
      </trkpt>
      <trkpt lat="48.54646" lon="7.50178">
        <ele>171.3</ele>
        <time>2019-08-08T16:58:59Z</time>
      </trkpt>
      <trkpt lat="48.54643" lon="7.5018">
        <ele>171.3</ele>
        <time>2019-08-08T16:59:00Z</time>
      </trkpt>
      <trkpt lat="48.5464" lon="7.50183">
        <ele>171.3</ele>
        <time>2019-08-08T16:59:01Z</time>
      </trkpt>
      <trkpt lat="48.54636" lon="7.50185">
        <ele>171.3</ele>
        <time>2019-08-08T16:59:02Z</time>
      </trkpt>
      <trkpt lat="48.54633" lon="7.50188">
        <ele>171.3</ele>
        <time>2019-08-08T16:59:03Z</time>
      </trkpt>
      <trkpt lat="48.5463" lon="7.50191">
        <ele>171.3</ele>
        <time>2019-08-08T16:59:04Z</time>
      </trkpt>
      <trkpt lat="48.54627" lon="7.50192">
        <ele>171.3</ele>
        <time>2019-08-08T16:59:05Z</time>
      </trkpt>
      <trkpt lat="48.54622" lon="7.50194">
        <ele>171.3</ele>
        <time>2019-08-08T16:59:06Z</time>
      </trkpt>
      <trkpt lat="48.54617" lon="7.50197">
        <ele>171.3</ele>
        <time>2019-08-08T16:59:07Z</time>
      </trkpt>
      <trkpt lat="48.54612" lon="7.50199">
        <ele>171.4</ele>
        <time>2019-08-08T16:59:08Z</time>
      </trkpt>
      <trkpt lat="48.54606" lon="7.50201">
        <ele>171.5</ele>
        <time>2019-08-08T16:59:09Z</time>
      </trkpt>
      <trkpt lat="48.546" lon="7.50203">
        <ele>171.6</ele>
        <time>2019-08-08T16:59:10Z</time>
      </trkpt>
      <trkpt lat="48.54594" lon="7.50206">
        <ele>171.7</ele>
        <time>2019-08-08T16:59:11Z</time>
      </trkpt>
      <trkpt lat="48.54589" lon="7.50209">
        <ele>171.8</ele>
        <time>2019-08-08T16:59:12Z</time>
      </trkpt>
      <trkpt lat="48.54585" lon="7.50212">
        <ele>172</ele>
        <time>2019-08-08T16:59:13Z</time>
      </trkpt>
      <trkpt lat="48.54581" lon="7.50215">
        <ele>172</ele>
        <time>2019-08-08T16:59:14Z</time>
      </trkpt>
      <trkpt lat="48.54576" lon="7.50219">
        <ele>172.1</ele>
        <time>2019-08-08T16:59:15Z</time>
      </trkpt>
      <trkpt lat="48.54571" lon="7.50222">
        <ele>172.2</ele>
        <time>2019-08-08T16:59:16Z</time>
      </trkpt>
      <trkpt lat="48.54567" lon="7.50229">
        <ele>172.3</ele>
        <time>2019-08-08T16:59:17Z</time>
      </trkpt>
      <trkpt lat="48.54563" lon="7.50234">
        <ele>172.3</ele>
        <time>2019-08-08T16:59:18Z</time>
      </trkpt>
      <trkpt lat="48.54559" lon="7.50237">
        <ele>172.3</ele>
        <time>2019-08-08T16:59:19Z</time>
      </trkpt>
      <trkpt lat="48.54556" lon="7.5024">
        <ele>172.5</ele>
        <time>2019-08-08T16:59:20Z</time>
      </trkpt>
      <trkpt lat="48.54552" lon="7.50246">
        <ele>172.7</ele>
        <time>2019-08-08T16:59:21Z</time>
      </trkpt>
      <trkpt lat="48.54547" lon="7.5025">
        <ele>172.9</ele>
        <time>2019-08-08T16:59:22Z</time>
      </trkpt>
      <trkpt lat="48.54542" lon="7.50253">
        <ele>173.1</ele>
        <time>2019-08-08T16:59:23Z</time>
      </trkpt>
      <trkpt lat="48.54538" lon="7.50256">
        <ele>173.3</ele>
        <time>2019-08-08T16:59:24Z</time>
      </trkpt>
      <trkpt lat="48.54535" lon="7.50258">
        <ele>173.4</ele>
        <time>2019-08-08T16:59:25Z</time>
      </trkpt>
      <trkpt lat="48.54531" lon="7.50259">
        <ele>173.5</ele>
        <time>2019-08-08T16:59:26Z</time>
      </trkpt>
      <trkpt lat="48.54527" lon="7.50259">
        <ele>173.6</ele>
        <time>2019-08-08T16:59:27Z</time>
      </trkpt>
      <trkpt lat="48.54523" lon="7.5026">
        <ele>173.6</ele>
        <time>2019-08-08T16:59:28Z</time>
      </trkpt>
      <trkpt lat="48.54518" lon="7.50261">
        <ele>173.6</ele>
        <time>2019-08-08T16:59:29Z</time>
      </trkpt>
      <trkpt lat="48.54513" lon="7.50264">
        <ele>173.6</ele>
        <time>2019-08-08T16:59:30Z</time>
      </trkpt>
      <trkpt lat="48.54508" lon="7.50267">
        <ele>173.6</ele>
        <time>2019-08-08T16:59:31Z</time>
      </trkpt>
      <trkpt lat="48.54502" lon="7.50269">
        <ele>173.5</ele>
        <time>2019-08-08T16:59:32Z</time>
      </trkpt>
      <trkpt lat="48.54498" lon="7.50272">
        <ele>173.5</ele>
        <time>2019-08-08T16:59:33Z</time>
      </trkpt>
      <trkpt lat="48.54492" lon="7.50275">
        <ele>173.4</ele>
        <time>2019-08-08T16:59:34Z</time>
      </trkpt>
      <trkpt lat="48.54487" lon="7.50278">
        <ele>173.2</ele>
        <time>2019-08-08T16:59:35Z</time>
      </trkpt>
      <trkpt lat="48.54481" lon="7.50281">
        <ele>173.1</ele>
        <time>2019-08-08T16:59:36Z</time>
      </trkpt>
      <trkpt lat="48.54474" lon="7.50284">
        <ele>172.9</ele>
        <time>2019-08-08T16:59:37Z</time>
      </trkpt>
      <trkpt lat="48.54467" lon="7.50286">
        <ele>172.8</ele>
        <time>2019-08-08T16:59:38Z</time>
      </trkpt>
      <trkpt lat="48.54461" lon="7.50288">
        <ele>172.7</ele>
        <time>2019-08-08T16:59:39Z</time>
      </trkpt>
      <trkpt lat="48.54456" lon="7.50292">
        <ele>172.7</ele>
        <time>2019-08-08T16:59:40Z</time>
      </trkpt>
      <trkpt lat="48.54452" lon="7.50297">
        <ele>172.7</ele>
        <time>2019-08-08T16:59:41Z</time>
      </trkpt>
      <trkpt lat="48.54447" lon="7.50301">
        <ele>172.6</ele>
        <time>2019-08-08T16:59:42Z</time>
      </trkpt>
      <trkpt lat="48.54441" lon="7.50303">
        <ele>172.6</ele>
        <time>2019-08-08T16:59:43Z</time>
      </trkpt>
      <trkpt lat="48.54436" lon="7.50305">
        <ele>172.6</ele>
        <time>2019-08-08T16:59:44Z</time>
      </trkpt>
      <trkpt lat="48.5443" lon="7.50306">
        <ele>172.6</ele>
        <time>2019-08-08T16:59:45Z</time>
      </trkpt>
      <trkpt lat="48.54425" lon="7.50308">
        <ele>172.6</ele>
        <time>2019-08-08T16:59:46Z</time>
      </trkpt>
      <trkpt lat="48.54419" lon="7.5031">
        <ele>172.6</ele>
        <time>2019-08-08T16:59:47Z</time>
      </trkpt>
      <trkpt lat="48.54414" lon="7.50313">
        <ele>172.6</ele>
        <time>2019-08-08T16:59:48Z</time>
      </trkpt>
      <trkpt lat="48.54408" lon="7.50317">
        <ele>172.6</ele>
        <time>2019-08-08T16:59:49Z</time>
      </trkpt>
      <trkpt lat="48.54404" lon="7.50319">
        <ele>172.6</ele>
        <time>2019-08-08T16:59:50Z</time>
      </trkpt>
      <trkpt lat="48.54399" lon="7.50322">
        <ele>172.6</ele>
        <time>2019-08-08T16:59:51Z</time>
      </trkpt>
      <trkpt lat="48.54396" lon="7.50325">
        <ele>172.6</ele>
        <time>2019-08-08T16:59:52Z</time>
      </trkpt>
      <trkpt lat="48.54392" lon="7.50329">
        <ele>172.6</ele>
        <time>2019-08-08T16:59:53Z</time>
      </trkpt>
      <trkpt lat="48.54388" lon="7.50332">
        <ele>172.6</ele>
        <time>2019-08-08T16:59:54Z</time>
      </trkpt>
      <trkpt lat="48.54384" lon="7.50334">
        <ele>172.6</ele>
        <time>2019-08-08T16:59:55Z</time>
      </trkpt>
      <trkpt lat="48.5438" lon="7.50336">
        <ele>172.6</ele>
        <time>2019-08-08T16:59:56Z</time>
      </trkpt>
      <trkpt lat="48.54377" lon="7.50338">
        <ele>172.6</ele>
        <time>2019-08-08T16:59:57Z</time>
      </trkpt>
      <trkpt lat="48.54373" lon="7.50339">
        <ele>172.6</ele>
        <time>2019-08-08T16:59:58Z</time>
      </trkpt>
      <trkpt lat="48.54369" lon="7.5034">
        <ele>172.6</ele>
        <time>2019-08-08T16:59:59Z</time>
      </trkpt>
      <trkpt lat="48.54365" lon="7.5034">
        <ele>172.6</ele>
        <time>2019-08-08T17:00:00Z</time>
      </trkpt>
      <trkpt lat="48.54362" lon="7.50341">
        <ele>172.6</ele>
        <time>2019-08-08T17:00:01Z</time>
      </trkpt>
      <trkpt lat="48.54359" lon="7.5034">
        <ele>172.6</ele>
        <time>2019-08-08T17:00:02Z</time>
      </trkpt>
      <trkpt lat="48.54358" lon="7.50334">
        <ele>172.6</ele>
        <time>2019-08-08T17:00:04Z</time>
      </trkpt>
      <trkpt lat="48.54354" lon="7.50331">
        <ele>172.6</ele>
        <time>2019-08-08T17:00:06Z</time>
      </trkpt>
      <trkpt lat="48.5435" lon="7.5033">
        <ele>172.6</ele>
        <time>2019-08-08T17:00:08Z</time>
      </trkpt>
      <trkpt lat="48.54345" lon="7.50327">
        <ele>172.6</ele>
        <time>2019-08-08T17:00:10Z</time>
      </trkpt>
      <trkpt lat="48.54342" lon="7.50325">
        <ele>172.6</ele>
        <time>2019-08-08T17:00:11Z</time>
      </trkpt>
      <trkpt lat="48.54339" lon="7.50321">
        <ele>172.6</ele>
        <time>2019-08-08T17:00:12Z</time>
      </trkpt>
      <trkpt lat="48.54335" lon="7.50319">
        <ele>172.6</ele>
        <time>2019-08-08T17:00:13Z</time>
      </trkpt>
      <trkpt lat="48.54332" lon="7.50316">
        <ele>172.6</ele>
        <time>2019-08-08T17:00:14Z</time>
      </trkpt>
      <trkpt lat="48.54329" lon="7.50314">
        <ele>172.6</ele>
        <time>2019-08-08T17:00:15Z</time>
      </trkpt>
      <trkpt lat="48.54326" lon="7.50312">
        <ele>172.6</ele>
        <time>2019-08-08T17:00:16Z</time>
      </trkpt>
      <trkpt lat="48.54323" lon="7.5031">
        <ele>172.6</ele>
        <time>2019-08-08T17:00:17Z</time>
      </trkpt>
      <trkpt lat="48.54319" lon="7.50306">
        <ele>172.6</ele>
        <time>2019-08-08T17:00:18Z</time>
      </trkpt>
      <trkpt lat="48.54315" lon="7.50303">
        <ele>172.6</ele>
        <time>2019-08-08T17:00:19Z</time>
      </trkpt>
      <trkpt lat="48.5431" lon="7.50299">
        <ele>172.6</ele>
        <time>2019-08-08T17:00:21Z</time>
      </trkpt>
      <trkpt lat="48.54306" lon="7.50295">
        <ele>172.6</ele>
        <time>2019-08-08T17:00:22Z</time>
      </trkpt>
      <trkpt lat="48.54303" lon="7.50292">
        <ele>172.6</ele>
        <time>2019-08-08T17:00:23Z</time>
      </trkpt>
      <trkpt lat="48.54299" lon="7.50289">
        <ele>172.6</ele>
        <time>2019-08-08T17:00:24Z</time>
      </trkpt>
      <trkpt lat="48.54295" lon="7.50287">
        <ele>172.6</ele>
        <time>2019-08-08T17:00:25Z</time>
      </trkpt>
      <trkpt lat="48.54292" lon="7.50284">
        <ele>172.6</ele>
        <time>2019-08-08T17:00:26Z</time>
      </trkpt>
      <trkpt lat="48.54287" lon="7.50279">
        <ele>172.6</ele>
        <time>2019-08-08T17:00:28Z</time>
      </trkpt>
      <trkpt lat="48.54284" lon="7.50276">
        <ele>172.6</ele>
        <time>2019-08-08T17:00:29Z</time>
      </trkpt>
      <trkpt lat="48.54281" lon="7.50275">
        <ele>172.6</ele>
        <time>2019-08-08T17:00:30Z</time>
      </trkpt>
      <trkpt lat="48.54279" lon="7.50273">
        <ele>172.6</ele>
        <time>2019-08-08T17:00:31Z</time>
      </trkpt>
      <trkpt lat="48.54276" lon="7.50271">
        <ele>172.6</ele>
        <time>2019-08-08T17:00:32Z</time>
      </trkpt>
      <trkpt lat="48.54273" lon="7.50268">
        <ele>172.6</ele>
        <time>2019-08-08T17:00:33Z</time>
      </trkpt>
      <trkpt lat="48.54269" lon="7.50264">
        <ele>172.6</ele>
        <time>2019-08-08T17:00:35Z</time>
      </trkpt>
      <trkpt lat="48.54266" lon="7.50262">
        <ele>172.6</ele>
        <time>2019-08-08T17:00:37Z</time>
      </trkpt>
      <trkpt lat="48.54263" lon="7.50266">
        <ele>172.6</ele>
        <time>2019-08-08T17:00:40Z</time>
      </trkpt>
      <trkpt lat="48.54261" lon="7.50269">
        <ele>172.6</ele>
        <time>2019-08-08T17:00:42Z</time>
      </trkpt>
      <trkpt lat="48.5426" lon="7.50273">
        <ele>172.6</ele>
        <time>2019-08-08T17:00:46Z</time>
      </trkpt>
      <trkpt lat="48.54258" lon="7.50279">
        <ele>172.6</ele>
        <time>2019-08-08T17:00:48Z</time>
      </trkpt>
      <trkpt lat="48.54256" lon="7.50283">
        <ele>172.6</ele>
        <time>2019-08-08T17:00:49Z</time>
      </trkpt>
      <trkpt lat="48.54254" lon="7.50289">
        <ele>172.6</ele>
        <time>2019-08-08T17:00:50Z</time>
      </trkpt>
      <trkpt lat="48.54252" lon="7.50294">
        <ele>172.6</ele>
        <time>2019-08-08T17:00:51Z</time>
      </trkpt>
      <trkpt lat="48.54251" lon="7.50298">
        <ele>172.6</ele>
        <time>2019-08-08T17:00:52Z</time>
      </trkpt>
      <trkpt lat="48.54249" lon="7.50301">
        <ele>172.6</ele>
        <time>2019-08-08T17:00:53Z</time>
      </trkpt>
      <trkpt lat="48.54247" lon="7.50305">
        <ele>172.6</ele>
        <time>2019-08-08T17:00:54Z</time>
      </trkpt>
      <trkpt lat="48.54243" lon="7.50311">
        <ele>172.6</ele>
        <time>2019-08-08T17:00:56Z</time>
      </trkpt>
      <trkpt lat="48.54242" lon="7.50315">
        <ele>172.6</ele>
        <time>2019-08-08T17:00:57Z</time>
      </trkpt>
      <trkpt lat="48.54239" lon="7.50317">
        <ele>172.6</ele>
        <time>2019-08-08T17:00:59Z</time>
      </trkpt>
      <trkpt lat="48.54235" lon="7.50312">
        <ele>172.5</ele>
        <time>2019-08-08T17:01:08Z</time>
      </trkpt>
      <trkpt lat="48.54232" lon="7.5031">
        <ele>172.5</ele>
        <time>2019-08-08T17:01:09Z</time>
      </trkpt>
      <trkpt lat="48.54228" lon="7.50309">
        <ele>172.5</ele>
        <time>2019-08-08T17:01:10Z</time>
      </trkpt>
      <trkpt lat="48.54225" lon="7.50306">
        <ele>172.5</ele>
        <time>2019-08-08T17:01:11Z</time>
      </trkpt>
      <trkpt lat="48.54222" lon="7.50302">
        <ele>172.4</ele>
        <time>2019-08-08T17:01:13Z</time>
      </trkpt>
      <trkpt lat="48.54219" lon="7.50297">
        <ele>172.4</ele>
        <time>2019-08-08T17:01:15Z</time>
      </trkpt>
      <trkpt lat="48.54216" lon="7.50293">
        <ele>172.4</ele>
        <time>2019-08-08T17:01:17Z</time>
      </trkpt>
      <trkpt lat="48.54212" lon="7.50291">
        <ele>172.3</ele>
        <time>2019-08-08T17:01:19Z</time>
      </trkpt>
      <trkpt lat="48.54209" lon="7.5029">
        <ele>172.2</ele>
        <time>2019-08-08T17:01:21Z</time>
      </trkpt>
      <trkpt lat="48.54206" lon="7.5029">
        <ele>172.2</ele>
        <time>2019-08-08T17:01:26Z</time>
      </trkpt>
      <trkpt lat="48.54196" lon="7.50289">
        <ele>171.9</ele>
        <time>2019-08-08T17:02:07Z</time>
      </trkpt>
      <trkpt lat="48.54193" lon="7.50291">
        <ele>171.9</ele>
        <time>2019-08-08T17:02:11Z</time>
      </trkpt>
      <trkpt lat="48.5419" lon="7.50289">
        <ele>171.8</ele>
        <time>2019-08-08T17:02:14Z</time>
      </trkpt>
      <trkpt lat="48.54201" lon="7.50295">
        <ele>171.5</ele>
        <time>2019-08-08T17:11:39Z</time>
      </trkpt>
      <trkpt lat="48.54201" lon="7.5029">
        <ele>171.4</ele>
        <time>2019-08-08T17:11:49Z</time>
      </trkpt>
      <trkpt lat="48.542" lon="7.50285">
        <ele>171.4</ele>
        <time>2019-08-08T17:11:53Z</time>
      </trkpt>
      <trkpt lat="48.54199" lon="7.5028">
        <ele>171.3</ele>
        <time>2019-08-08T17:11:56Z</time>
      </trkpt>
      <trkpt lat="48.54202" lon="7.50278">
        <ele>171.2</ele>
        <time>2019-08-08T17:12:02Z</time>
      </trkpt>
      <trkpt lat="48.542" lon="7.50307">
        <ele>170.9</ele>
        <time>2019-08-08T17:14:06Z</time>
      </trkpt>
      <trkpt lat="48.54203" lon="7.503">
        <ele>170.8</ele>
        <time>2019-08-08T17:15:12Z</time>
      </trkpt>
      <trkpt lat="48.54202" lon="7.50295">
        <ele>170.8</ele>
        <time>2019-08-08T17:15:14Z</time>
      </trkpt>
      <trkpt lat="48.54199" lon="7.5029">
        <ele>170.8</ele>
        <time>2019-08-08T17:18:05Z</time>
      </trkpt>
      <trkpt lat="48.54201" lon="7.50296">
        <ele>170.7</ele>
        <time>2019-08-08T17:28:10Z</time>
      </trkpt>
      <trkpt lat="48.54205" lon="7.50298">
        <ele>170.7</ele>
        <time>2019-08-08T17:28:12Z</time>
      </trkpt>
      <trkpt lat="48.54208" lon="7.50301">
        <ele>170.7</ele>
        <time>2019-08-08T17:28:14Z</time>
      </trkpt>
      <trkpt lat="48.54212" lon="7.50304">
        <ele>170.7</ele>
        <time>2019-08-08T17:28:16Z</time>
      </trkpt>
      <trkpt lat="48.54215" lon="7.50306">
        <ele>170.7</ele>
        <time>2019-08-08T17:28:17Z</time>
      </trkpt>
      <trkpt lat="48.54219" lon="7.50308">
        <ele>170.7</ele>
        <time>2019-08-08T17:28:19Z</time>
      </trkpt>
      <trkpt lat="48.54222" lon="7.50313">
        <ele>170.6</ele>
        <time>2019-08-08T17:28:21Z</time>
      </trkpt>
      <trkpt lat="48.54224" lon="7.50316">
        <ele>170.6</ele>
        <time>2019-08-08T17:28:22Z</time>
      </trkpt>
      <trkpt lat="48.54226" lon="7.5032">
        <ele>170.7</ele>
        <time>2019-08-08T17:28:23Z</time>
      </trkpt>
      <trkpt lat="48.54228" lon="7.50322">
        <ele>170.7</ele>
        <time>2019-08-08T17:28:24Z</time>
      </trkpt>
      <trkpt lat="48.5423" lon="7.50324">
        <ele>170.7</ele>
        <time>2019-08-08T17:28:25Z</time>
      </trkpt>
      <trkpt lat="48.54233" lon="7.50326">
        <ele>170.7</ele>
        <time>2019-08-08T17:28:26Z</time>
      </trkpt>
      <trkpt lat="48.54237" lon="7.50328">
        <ele>170.7</ele>
        <time>2019-08-08T17:28:27Z</time>
      </trkpt>
      <trkpt lat="48.54241" lon="7.50325">
        <ele>170.7</ele>
        <time>2019-08-08T17:28:29Z</time>
      </trkpt>
      <trkpt lat="48.54243" lon="7.50322">
        <ele>170.8</ele>
        <time>2019-08-08T17:28:30Z</time>
      </trkpt>
      <trkpt lat="48.54246" lon="7.50316">
        <ele>170.8</ele>
        <time>2019-08-08T17:28:31Z</time>
      </trkpt>
      <trkpt lat="48.54248" lon="7.5031">
        <ele>170.9</ele>
        <time>2019-08-08T17:28:32Z</time>
      </trkpt>
      <trkpt lat="48.54251" lon="7.50306">
        <ele>170.9</ele>
        <time>2019-08-08T17:28:33Z</time>
      </trkpt>
      <trkpt lat="48.54254" lon="7.50301">
        <ele>171</ele>
        <time>2019-08-08T17:28:34Z</time>
      </trkpt>
      <trkpt lat="48.54257" lon="7.50296">
        <ele>171</ele>
        <time>2019-08-08T17:28:35Z</time>
      </trkpt>
      <trkpt lat="48.54259" lon="7.50291">
        <ele>171.1</ele>
        <time>2019-08-08T17:28:36Z</time>
      </trkpt>
      <trkpt lat="48.5426" lon="7.50286">
        <ele>171.1</ele>
        <time>2019-08-08T17:28:37Z</time>
      </trkpt>
      <trkpt lat="48.5426" lon="7.50279">
        <ele>171.2</ele>
        <time>2019-08-08T17:28:39Z</time>
      </trkpt>
      <trkpt lat="48.5426" lon="7.50275">
        <ele>171.3</ele>
        <time>2019-08-08T17:28:40Z</time>
      </trkpt>
      <trkpt lat="48.54259" lon="7.5027">
        <ele>171.3</ele>
        <time>2019-08-08T17:28:41Z</time>
      </trkpt>
      <trkpt lat="48.54257" lon="7.50263">
        <ele>171.4</ele>
        <time>2019-08-08T17:28:43Z</time>
      </trkpt>
      <trkpt lat="48.54256" lon="7.50258">
        <ele>171.4</ele>
        <time>2019-08-08T17:28:46Z</time>
      </trkpt>
      <trkpt lat="48.54255" lon="7.50253">
        <ele>171.4</ele>
        <time>2019-08-08T17:28:49Z</time>
      </trkpt>
      <trkpt lat="48.54253" lon="7.50249">
        <ele>171.5</ele>
        <time>2019-08-08T17:28:53Z</time>
      </trkpt>
      <trkpt lat="48.5425" lon="7.50247">
        <ele>171.5</ele>
        <time>2019-08-08T17:28:55Z</time>
      </trkpt>
      <trkpt lat="48.54247" lon="7.50243">
        <ele>171.5</ele>
        <time>2019-08-08T17:28:57Z</time>
      </trkpt>
      <trkpt lat="48.54245" lon="7.5024">
        <ele>171.5</ele>
        <time>2019-08-08T17:28:58Z</time>
      </trkpt>
      <trkpt lat="48.54242" lon="7.50237">
        <ele>171.5</ele>
        <time>2019-08-08T17:29:00Z</time>
      </trkpt>
      <trkpt lat="48.54236" lon="7.50233">
        <ele>171.6</ele>
        <time>2019-08-08T17:29:02Z</time>
      </trkpt>
      <trkpt lat="48.54233" lon="7.5023">
        <ele>171.6</ele>
        <time>2019-08-08T17:29:03Z</time>
      </trkpt>
      <trkpt lat="48.5423" lon="7.50228">
        <ele>171.6</ele>
        <time>2019-08-08T17:29:04Z</time>
      </trkpt>
      <trkpt lat="48.54226" lon="7.50224">
        <ele>171.6</ele>
        <time>2019-08-08T17:29:06Z</time>
      </trkpt>
      <trkpt lat="48.54222" lon="7.50221">
        <ele>171.7</ele>
        <time>2019-08-08T17:29:08Z</time>
      </trkpt>
      <trkpt lat="48.54219" lon="7.50219">
        <ele>171.7</ele>
        <time>2019-08-08T17:29:10Z</time>
      </trkpt>
      <trkpt lat="48.54215" lon="7.50218">
        <ele>171.7</ele>
        <time>2019-08-08T17:29:13Z</time>
      </trkpt>
      <trkpt lat="48.54211" lon="7.50219">
        <ele>171.7</ele>
        <time>2019-08-08T17:29:16Z</time>
      </trkpt>
      <trkpt lat="48.54204" lon="7.50217">
        <ele>171.8</ele>
        <time>2019-08-08T17:29:26Z</time>
      </trkpt>
      <trkpt lat="48.54201" lon="7.50214">
        <ele>171.8</ele>
        <time>2019-08-08T17:29:27Z</time>
      </trkpt>
      <trkpt lat="48.54198" lon="7.50213">
        <ele>171.8</ele>
        <time>2019-08-08T17:29:28Z</time>
      </trkpt>
      <trkpt lat="48.54195" lon="7.50211">
        <ele>171.9</ele>
        <time>2019-08-08T17:29:29Z</time>
      </trkpt>
      <trkpt lat="48.54191" lon="7.50206">
        <ele>171.9</ele>
        <time>2019-08-08T17:29:31Z</time>
      </trkpt>
      <trkpt lat="48.54189" lon="7.50202">
        <ele>171.9</ele>
        <time>2019-08-08T17:29:32Z</time>
      </trkpt>
      <trkpt lat="48.54187" lon="7.50199">
        <ele>172</ele>
        <time>2019-08-08T17:29:33Z</time>
      </trkpt>
      <trkpt lat="48.54184" lon="7.50195">
        <ele>172</ele>
        <time>2019-08-08T17:29:34Z</time>
      </trkpt>
      <trkpt lat="48.5418" lon="7.50191">
        <ele>172.1</ele>
        <time>2019-08-08T17:29:35Z</time>
      </trkpt>
      <trkpt lat="48.54178" lon="7.50187">
        <ele>172.1</ele>
        <time>2019-08-08T17:29:36Z</time>
      </trkpt>
      <trkpt lat="48.54175" lon="7.50183">
        <ele>172.2</ele>
        <time>2019-08-08T17:29:37Z</time>
      </trkpt>
      <trkpt lat="48.54171" lon="7.50178">
        <ele>172.2</ele>
        <time>2019-08-08T17:29:38Z</time>
      </trkpt>
      <trkpt lat="48.54168" lon="7.50174">
        <ele>172.3</ele>
        <time>2019-08-08T17:29:39Z</time>
      </trkpt>
      <trkpt lat="48.54165" lon="7.5017">
        <ele>172.3</ele>
        <time>2019-08-08T17:29:40Z</time>
      </trkpt>
      <trkpt lat="48.54161" lon="7.50168">
        <ele>172.4</ele>
        <time>2019-08-08T17:29:41Z</time>
      </trkpt>
      <trkpt lat="48.54157" lon="7.50164">
        <ele>172.4</ele>
        <time>2019-08-08T17:29:42Z</time>
      </trkpt>
      <trkpt lat="48.54153" lon="7.50162">
        <ele>172.4</ele>
        <time>2019-08-08T17:29:43Z</time>
      </trkpt>
      <trkpt lat="48.54149" lon="7.50159">
        <ele>172.5</ele>
        <time>2019-08-08T17:29:44Z</time>
      </trkpt>
      <trkpt lat="48.54146" lon="7.50156">
        <ele>172.5</ele>
        <time>2019-08-08T17:29:45Z</time>
      </trkpt>
      <trkpt lat="48.54143" lon="7.50152">
        <ele>172.5</ele>
        <time>2019-08-08T17:29:46Z</time>
      </trkpt>
      <trkpt lat="48.54139" lon="7.50151">
        <ele>172.5</ele>
        <time>2019-08-08T17:29:47Z</time>
      </trkpt>
      <trkpt lat="48.54136" lon="7.5015">
        <ele>172.5</ele>
        <time>2019-08-08T17:29:48Z</time>
      </trkpt>
      <trkpt lat="48.54133" lon="7.5015">
        <ele>172.5</ele>
        <time>2019-08-08T17:29:49Z</time>
      </trkpt>
      <trkpt lat="48.5413" lon="7.50149">
        <ele>172.6</ele>
        <time>2019-08-08T17:29:50Z</time>
      </trkpt>
      <trkpt lat="48.54127" lon="7.50147">
        <ele>172.6</ele>
        <time>2019-08-08T17:29:51Z</time>
      </trkpt>
      <trkpt lat="48.54123" lon="7.50145">
        <ele>172.6</ele>
        <time>2019-08-08T17:29:52Z</time>
      </trkpt>
      <trkpt lat="48.54119" lon="7.50143">
        <ele>172.6</ele>
        <time>2019-08-08T17:29:53Z</time>
      </trkpt>
      <trkpt lat="48.54114" lon="7.5014">
        <ele>172.6</ele>
        <time>2019-08-08T17:29:54Z</time>
      </trkpt>
      <trkpt lat="48.5411" lon="7.50138">
        <ele>172.6</ele>
        <time>2019-08-08T17:29:55Z</time>
      </trkpt>
      <trkpt lat="48.54105" lon="7.50135">
        <ele>172.6</ele>
        <time>2019-08-08T17:29:56Z</time>
      </trkpt>
      <trkpt lat="48.54101" lon="7.50134">
        <ele>172.6</ele>
        <time>2019-08-08T17:29:57Z</time>
      </trkpt>
      <trkpt lat="48.54097" lon="7.50132">
        <ele>172.6</ele>
        <time>2019-08-08T17:29:58Z</time>
      </trkpt>
      <trkpt lat="48.54092" lon="7.50131">
        <ele>172.6</ele>
        <time>2019-08-08T17:29:59Z</time>
      </trkpt>
      <trkpt lat="48.54089" lon="7.50129">
        <ele>172.6</ele>
        <time>2019-08-08T17:30:00Z</time>
      </trkpt>
      <trkpt lat="48.54087" lon="7.50126">
        <ele>172.6</ele>
        <time>2019-08-08T17:30:01Z</time>
      </trkpt>
      <trkpt lat="48.54085" lon="7.50122">
        <ele>172.6</ele>
        <time>2019-08-08T17:30:02Z</time>
      </trkpt>
      <trkpt lat="48.54083" lon="7.50117">
        <ele>172.6</ele>
        <time>2019-08-08T17:30:04Z</time>
      </trkpt>
      <trkpt lat="48.54082" lon="7.50114">
        <ele>172.6</ele>
        <time>2019-08-08T17:30:08Z</time>
      </trkpt>
      <trkpt lat="48.54083" lon="7.50109">
        <ele>172.6</ele>
        <time>2019-08-08T17:30:11Z</time>
      </trkpt>
      <trkpt lat="48.54085" lon="7.50103">
        <ele>172.5</ele>
        <time>2019-08-08T17:30:13Z</time>
      </trkpt>
      <trkpt lat="48.54087" lon="7.50096">
        <ele>172.4</ele>
        <time>2019-08-08T17:30:15Z</time>
      </trkpt>
      <trkpt lat="48.54088" lon="7.50092">
        <ele>172.4</ele>
        <time>2019-08-08T17:30:16Z</time>
      </trkpt>
      <trkpt lat="48.5409" lon="7.50088">
        <ele>172.4</ele>
        <time>2019-08-08T17:30:18Z</time>
      </trkpt>
      <trkpt lat="48.54092" lon="7.50081">
        <ele>172.3</ele>
        <time>2019-08-08T17:30:20Z</time>
      </trkpt>
      <trkpt lat="48.54095" lon="7.50075">
        <ele>172.3</ele>
        <time>2019-08-08T17:30:22Z</time>
      </trkpt>
      <trkpt lat="48.54097" lon="7.50071">
        <ele>172.2</ele>
        <time>2019-08-08T17:30:23Z</time>
      </trkpt>
      <trkpt lat="48.54099" lon="7.50065">
        <ele>172.2</ele>
        <time>2019-08-08T17:30:24Z</time>
      </trkpt>
      <trkpt lat="48.54101" lon="7.5006">
        <ele>172.2</ele>
        <time>2019-08-08T17:30:25Z</time>
      </trkpt>
      <trkpt lat="48.54103" lon="7.50054">
        <ele>172.2</ele>
        <time>2019-08-08T17:30:26Z</time>
      </trkpt>
      <trkpt lat="48.54105" lon="7.50049">
        <ele>172.2</ele>
        <time>2019-08-08T17:30:27Z</time>
      </trkpt>
      <trkpt lat="48.54108" lon="7.50043">
        <ele>172.1</ele>
        <time>2019-08-08T17:30:28Z</time>
      </trkpt>
      <trkpt lat="48.5411" lon="7.50036">
        <ele>172.1</ele>
        <time>2019-08-08T17:30:29Z</time>
      </trkpt>
      <trkpt lat="48.54112" lon="7.5003">
        <ele>172.1</ele>
        <time>2019-08-08T17:30:30Z</time>
      </trkpt>
      <trkpt lat="48.54114" lon="7.50026">
        <ele>172.1</ele>
        <time>2019-08-08T17:30:31Z</time>
      </trkpt>
      <trkpt lat="48.54116" lon="7.50019">
        <ele>172.1</ele>
        <time>2019-08-08T17:30:32Z</time>
      </trkpt>
      <trkpt lat="48.54118" lon="7.50014">
        <ele>172.1</ele>
        <time>2019-08-08T17:30:33Z</time>
      </trkpt>
      <trkpt lat="48.54117" lon="7.50008">
        <ele>172.1</ele>
        <time>2019-08-08T17:30:35Z</time>
      </trkpt>
      <trkpt lat="48.54119" lon="7.50005">
        <ele>172.1</ele>
        <time>2019-08-08T17:30:36Z</time>
      </trkpt>
      <trkpt lat="48.54119" lon="7.5001">
        <ele>172.1</ele>
        <time>2019-08-08T17:30:41Z</time>
      </trkpt>
      <trkpt lat="48.54118" lon="7.50016">
        <ele>172.1</ele>
        <time>2019-08-08T17:30:43Z</time>
      </trkpt>
      <trkpt lat="48.54118" lon="7.50022">
        <ele>172.1</ele>
        <time>2019-08-08T17:30:45Z</time>
      </trkpt>
      <trkpt lat="48.54117" lon="7.50028">
        <ele>172.1</ele>
        <time>2019-08-08T17:30:47Z</time>
      </trkpt>
      <trkpt lat="48.54116" lon="7.50033">
        <ele>172.1</ele>
        <time>2019-08-08T17:30:49Z</time>
      </trkpt>
      <trkpt lat="48.54115" lon="7.50037">
        <ele>172.1</ele>
        <time>2019-08-08T17:30:54Z</time>
      </trkpt>
      <trkpt lat="48.54117" lon="7.50039">
        <ele>172.1</ele>
        <time>2019-08-08T17:31:01Z</time>
      </trkpt>
      <trkpt lat="48.54119" lon="7.50042">
        <ele>172.1</ele>
        <time>2019-08-08T17:31:10Z</time>
      </trkpt>
    </trkseg>
  </trk>
</gpx>